<?xml version="1.0" encoding="UTF-8"?>
<gpx version="1.1" creator="https://www.youtrack.es" xsi:schemaLocation="http://www.topografix.com/GPX/1/1 http://www.topografix.com/GPX/1/1/gpx.xsd http://www.garmin.com/xmlschemas/GpxExtensions/v3 http://www.garmin.com/xmlschemas/GpxExtensionsv3.xsd http://www.garmin.com/xmlschemas/TrackPointExtension/v1 http://www.garmin.com/xmlschemas/TrackPointExtensionv1.xsd" xmlns:gpxtpx="http://www.garmin.com/xmlschemas/TrackPointExtension/v1" xmlns:gpxx="http://www.garmin.com/xmlschemas/GpxExtensions/v3" xmlns:xsi="http://www.w3.org/2001/XMLSchema-instance">
  <metadata>
    <author>
      <name>Isaac Hinojosa</name>
      <email id="isaachinojosapovea" domain="gmail.com"/>
    </author>
    <link href="https://www.youtrack.es">
      <text>YouTrack.es</text>
    </link>
    <time>2026-05-10T17:04:38Z</time>
  </metadata>
  <trk>
    <src>https://www.youtrack.es</src>
    <link href="https://www.youtrack.es/ruta/36647-osuna-bornos-cfmoto800">
      <text>YouTrack.es</text>
    </link>
    <trkseg>
      <trkpt lat="36.808923" lon="-5.740968">
        <ele>154.0</ele>
        <time>2022-09-26T13:06:47.897+02:00[Europe/Madrid]</time>
      </trkpt>
      <trkpt lat="36.809025" lon="-5.740908">
        <ele>154.0</ele>
        <time>2022-09-26T13:06:49.884+02:00[Europe/Madrid]</time>
      </trkpt>
      <trkpt lat="36.809092" lon="-5.740788">
        <ele>154.0</ele>
        <time>2022-09-26T13:06:51.906+02:00[Europe/Madrid]</time>
      </trkpt>
      <trkpt lat="36.809132" lon="-5.740668">
        <ele>154.0</ele>
        <time>2022-09-26T13:06:53.897+02:00[Europe/Madrid]</time>
      </trkpt>
      <trkpt lat="36.809205" lon="-5.740537">
        <ele>154.0</ele>
        <time>2022-09-26T13:06:55.893+02:00[Europe/Madrid]</time>
      </trkpt>
      <trkpt lat="36.809284" lon="-5.740432">
        <ele>153.0</ele>
        <time>2022-09-26T13:06:57.893+02:00[Europe/Madrid]</time>
      </trkpt>
      <trkpt lat="36.8094" lon="-5.740385">
        <ele>152.0</ele>
        <time>2022-09-26T13:07:00.902+02:00[Europe/Madrid]</time>
      </trkpt>
      <trkpt lat="36.809453" lon="-5.740504">
        <ele>154.0</ele>
        <time>2022-09-26T13:07:03.898+02:00[Europe/Madrid]</time>
      </trkpt>
      <trkpt lat="36.809496" lon="-5.740623">
        <ele>155.0</ele>
        <time>2022-09-26T13:07:05.894+02:00[Europe/Madrid]</time>
      </trkpt>
      <trkpt lat="36.809555" lon="-5.74077">
        <ele>156.0</ele>
        <time>2022-09-26T13:07:07.895+02:00[Europe/Madrid]</time>
      </trkpt>
      <trkpt lat="36.809601" lon="-5.74092">
        <ele>157.0</ele>
        <time>2022-09-26T13:07:09.894+02:00[Europe/Madrid]</time>
      </trkpt>
      <trkpt lat="36.809595" lon="-5.741065">
        <ele>158.0</ele>
        <time>2022-09-26T13:07:11.886+02:00[Europe/Madrid]</time>
      </trkpt>
      <trkpt lat="36.809513" lon="-5.741196">
        <ele>160.0</ele>
        <time>2022-09-26T13:07:13.900+02:00[Europe/Madrid]</time>
      </trkpt>
      <trkpt lat="36.809408" lon="-5.741299">
        <ele>160.0</ele>
        <time>2022-09-26T13:07:15.893+02:00[Europe/Madrid]</time>
      </trkpt>
      <trkpt lat="36.809347" lon="-5.741384">
        <ele>160.0</ele>
        <time>2022-09-26T13:07:18.892+02:00[Europe/Madrid]</time>
      </trkpt>
      <trkpt lat="36.809375" lon="-5.741522">
        <ele>162.0</ele>
        <time>2022-09-26T13:07:21.892+02:00[Europe/Madrid]</time>
      </trkpt>
      <trkpt lat="36.809434" lon="-5.74166">
        <ele>164.0</ele>
        <time>2022-09-26T13:07:24.883+02:00[Europe/Madrid]</time>
      </trkpt>
      <trkpt lat="36.809491" lon="-5.741783">
        <ele>166.0</ele>
        <time>2022-09-26T13:07:27.896+02:00[Europe/Madrid]</time>
      </trkpt>
      <trkpt lat="36.809551" lon="-5.741928">
        <ele>168.0</ele>
        <time>2022-09-26T13:07:30.898+02:00[Europe/Madrid]</time>
      </trkpt>
      <trkpt lat="36.809592" lon="-5.742048">
        <ele>169.0</ele>
        <time>2022-09-26T13:07:32.898+02:00[Europe/Madrid]</time>
      </trkpt>
      <trkpt lat="36.809608" lon="-5.742206">
        <ele>171.0</ele>
        <time>2022-09-26T13:07:34.897+02:00[Europe/Madrid]</time>
      </trkpt>
      <trkpt lat="36.809596" lon="-5.742362">
        <ele>174.0</ele>
        <time>2022-09-26T13:07:36.892+02:00[Europe/Madrid]</time>
      </trkpt>
      <trkpt lat="36.809558" lon="-5.74251">
        <ele>175.0</ele>
        <time>2022-09-26T13:07:38.895+02:00[Europe/Madrid]</time>
      </trkpt>
      <trkpt lat="36.809554" lon="-5.742624">
        <ele>177.0</ele>
        <time>2022-09-26T13:07:40.902+02:00[Europe/Madrid]</time>
      </trkpt>
      <trkpt lat="36.809623" lon="-5.742701">
        <ele>178.0</ele>
        <time>2022-09-26T13:07:42.897+02:00[Europe/Madrid]</time>
      </trkpt>
      <trkpt lat="36.809741" lon="-5.742737">
        <ele>178.0</ele>
        <time>2022-09-26T13:07:44.899+02:00[Europe/Madrid]</time>
      </trkpt>
      <trkpt lat="36.809883" lon="-5.742757">
        <ele>179.0</ele>
        <time>2022-09-26T13:07:46.897+02:00[Europe/Madrid]</time>
      </trkpt>
      <trkpt lat="36.81002" lon="-5.742773">
        <ele>181.0</ele>
        <time>2022-09-26T13:07:48.899+02:00[Europe/Madrid]</time>
      </trkpt>
      <trkpt lat="36.810153" lon="-5.742788">
        <ele>182.0</ele>
        <time>2022-09-26T13:07:50.895+02:00[Europe/Madrid]</time>
      </trkpt>
      <trkpt lat="36.810283" lon="-5.74281">
        <ele>184.0</ele>
        <time>2022-09-26T13:07:52.907+02:00[Europe/Madrid]</time>
      </trkpt>
      <trkpt lat="36.810423" lon="-5.742834">
        <ele>184.0</ele>
        <time>2022-09-26T13:07:54.897+02:00[Europe/Madrid]</time>
      </trkpt>
      <trkpt lat="36.810555" lon="-5.742853">
        <ele>184.0</ele>
        <time>2022-09-26T13:07:56.903+02:00[Europe/Madrid]</time>
      </trkpt>
      <trkpt lat="36.810652" lon="-5.742864">
        <ele>184.0</ele>
        <time>2022-09-26T13:07:58.894+02:00[Europe/Madrid]</time>
      </trkpt>
      <trkpt lat="36.810737" lon="-5.742925">
        <ele>184.0</ele>
        <time>2022-09-26T13:08:01.901+02:00[Europe/Madrid]</time>
      </trkpt>
      <trkpt lat="36.810713" lon="-5.743109">
        <ele>187.0</ele>
        <time>2022-09-26T13:08:04.893+02:00[Europe/Madrid]</time>
      </trkpt>
      <trkpt lat="36.810685" lon="-5.74328">
        <ele>188.0</ele>
        <time>2022-09-26T13:08:06.893+02:00[Europe/Madrid]</time>
      </trkpt>
      <trkpt lat="36.810671" lon="-5.743412">
        <ele>189.0</ele>
        <time>2022-09-26T13:08:08.888+02:00[Europe/Madrid]</time>
      </trkpt>
      <trkpt lat="36.810682" lon="-5.743551">
        <ele>189.0</ele>
        <time>2022-09-26T13:08:10.898+02:00[Europe/Madrid]</time>
      </trkpt>
      <trkpt lat="36.810732" lon="-5.743707">
        <ele>192.0</ele>
        <time>2022-09-26T13:08:12.897+02:00[Europe/Madrid]</time>
      </trkpt>
      <trkpt lat="36.810781" lon="-5.743859">
        <ele>194.0</ele>
        <time>2022-09-26T13:08:14.892+02:00[Europe/Madrid]</time>
      </trkpt>
      <trkpt lat="36.810825" lon="-5.744028">
        <ele>194.0</ele>
        <time>2022-09-26T13:08:16.889+02:00[Europe/Madrid]</time>
      </trkpt>
      <trkpt lat="36.810849" lon="-5.744237">
        <ele>195.0</ele>
        <time>2022-09-26T13:08:18.885+02:00[Europe/Madrid]</time>
      </trkpt>
      <trkpt lat="36.810871" lon="-5.74446">
        <ele>197.0</ele>
        <time>2022-09-26T13:08:20.901+02:00[Europe/Madrid]</time>
      </trkpt>
      <trkpt lat="36.810885" lon="-5.744579">
        <ele>197.0</ele>
        <time>2022-09-26T13:08:21.901+02:00[Europe/Madrid]</time>
      </trkpt>
      <trkpt lat="36.810899" lon="-5.744694">
        <ele>198.0</ele>
        <time>2022-09-26T13:08:22.901+02:00[Europe/Madrid]</time>
      </trkpt>
      <trkpt lat="36.81094" lon="-5.744873">
        <ele>201.0</ele>
        <time>2022-09-26T13:08:24.898+02:00[Europe/Madrid]</time>
      </trkpt>
      <trkpt lat="36.810984" lon="-5.745021">
        <ele>202.0</ele>
        <time>2022-09-26T13:08:26.895+02:00[Europe/Madrid]</time>
      </trkpt>
      <trkpt lat="36.811027" lon="-5.745179">
        <ele>204.0</ele>
        <time>2022-09-26T13:08:28.894+02:00[Europe/Madrid]</time>
      </trkpt>
      <trkpt lat="36.81107" lon="-5.74536">
        <ele>207.0</ele>
        <time>2022-09-26T13:08:30.897+02:00[Europe/Madrid]</time>
      </trkpt>
      <trkpt lat="36.811118" lon="-5.745556">
        <ele>209.0</ele>
        <time>2022-09-26T13:08:32.894+02:00[Europe/Madrid]</time>
      </trkpt>
      <trkpt lat="36.811168" lon="-5.745739">
        <ele>211.0</ele>
        <time>2022-09-26T13:08:34.896+02:00[Europe/Madrid]</time>
      </trkpt>
      <trkpt lat="36.811203" lon="-5.745853">
        <ele>212.0</ele>
        <time>2022-09-26T13:08:36.899+02:00[Europe/Madrid]</time>
      </trkpt>
      <trkpt lat="36.8113" lon="-5.745944">
        <ele>212.0</ele>
        <time>2022-09-26T13:08:40.897+02:00[Europe/Madrid]</time>
      </trkpt>
      <trkpt lat="36.811417" lon="-5.745911">
        <ele>213.0</ele>
        <time>2022-09-26T13:08:42.912+02:00[Europe/Madrid]</time>
      </trkpt>
      <trkpt lat="36.811566" lon="-5.745897">
        <ele>214.0</ele>
        <time>2022-09-26T13:08:44.895+02:00[Europe/Madrid]</time>
      </trkpt>
      <trkpt lat="36.811701" lon="-5.745888">
        <ele>215.0</ele>
        <time>2022-09-26T13:08:46.892+02:00[Europe/Madrid]</time>
      </trkpt>
      <trkpt lat="36.81181" lon="-5.745872">
        <ele>216.0</ele>
        <time>2022-09-26T13:08:48.900+02:00[Europe/Madrid]</time>
      </trkpt>
      <trkpt lat="36.81193" lon="-5.745862">
        <ele>218.0</ele>
        <time>2022-09-26T13:08:50.894+02:00[Europe/Madrid]</time>
      </trkpt>
      <trkpt lat="36.812063" lon="-5.745838">
        <ele>218.0</ele>
        <time>2022-09-26T13:08:52.905+02:00[Europe/Madrid]</time>
      </trkpt>
      <trkpt lat="36.812181" lon="-5.745842">
        <ele>219.0</ele>
        <time>2022-09-26T13:08:54.904+02:00[Europe/Madrid]</time>
      </trkpt>
      <trkpt lat="36.812281" lon="-5.745863">
        <ele>218.0</ele>
        <time>2022-09-26T13:08:56.904+02:00[Europe/Madrid]</time>
      </trkpt>
      <trkpt lat="36.812389" lon="-5.745902">
        <ele>218.0</ele>
        <time>2022-09-26T13:08:58.891+02:00[Europe/Madrid]</time>
      </trkpt>
      <trkpt lat="36.812486" lon="-5.74593">
        <ele>217.0</ele>
        <time>2022-09-26T13:09:00.898+02:00[Europe/Madrid]</time>
      </trkpt>
      <trkpt lat="36.81259" lon="-5.745959">
        <ele>218.0</ele>
        <time>2022-09-26T13:09:03.893+02:00[Europe/Madrid]</time>
      </trkpt>
      <trkpt lat="36.812596" lon="-5.746118">
        <ele>217.0</ele>
        <time>2022-09-26T13:09:08.899+02:00[Europe/Madrid]</time>
      </trkpt>
      <trkpt lat="36.812551" lon="-5.746286">
        <ele>217.0</ele>
        <time>2022-09-26T13:09:10.890+02:00[Europe/Madrid]</time>
      </trkpt>
      <trkpt lat="36.812505" lon="-5.746462">
        <ele>218.0</ele>
        <time>2022-09-26T13:09:12.900+02:00[Europe/Madrid]</time>
      </trkpt>
      <trkpt lat="36.812462" lon="-5.746632">
        <ele>219.0</ele>
        <time>2022-09-26T13:09:14.900+02:00[Europe/Madrid]</time>
      </trkpt>
      <trkpt lat="36.812424" lon="-5.746802">
        <ele>219.0</ele>
        <time>2022-09-26T13:09:16.902+02:00[Europe/Madrid]</time>
      </trkpt>
      <trkpt lat="36.812387" lon="-5.746961">
        <ele>220.0</ele>
        <time>2022-09-26T13:09:18.893+02:00[Europe/Madrid]</time>
      </trkpt>
      <trkpt lat="36.812346" lon="-5.74711">
        <ele>220.0</ele>
        <time>2022-09-26T13:09:20.893+02:00[Europe/Madrid]</time>
      </trkpt>
      <trkpt lat="36.812314" lon="-5.747235">
        <ele>221.0</ele>
        <time>2022-09-26T13:09:22.894+02:00[Europe/Madrid]</time>
      </trkpt>
      <trkpt lat="36.812342" lon="-5.747354">
        <ele>220.0</ele>
        <time>2022-09-26T13:09:26.899+02:00[Europe/Madrid]</time>
      </trkpt>
      <trkpt lat="36.81246" lon="-5.747469">
        <ele>219.0</ele>
        <time>2022-09-26T13:09:28.897+02:00[Europe/Madrid]</time>
      </trkpt>
      <trkpt lat="36.812602" lon="-5.747599">
        <ele>220.0</ele>
        <time>2022-09-26T13:09:30.894+02:00[Europe/Madrid]</time>
      </trkpt>
      <trkpt lat="36.812727" lon="-5.747706">
        <ele>220.0</ele>
        <time>2022-09-26T13:09:32.894+02:00[Europe/Madrid]</time>
      </trkpt>
      <trkpt lat="36.812867" lon="-5.747824">
        <ele>220.0</ele>
        <time>2022-09-26T13:09:34.892+02:00[Europe/Madrid]</time>
      </trkpt>
      <trkpt lat="36.812946" lon="-5.74789">
        <ele>221.0</ele>
        <time>2022-09-26T13:09:35.897+02:00[Europe/Madrid]</time>
      </trkpt>
      <trkpt lat="36.813071" lon="-5.748001">
        <ele>220.0</ele>
        <time>2022-09-26T13:09:37.891+02:00[Europe/Madrid]</time>
      </trkpt>
      <trkpt lat="36.813181" lon="-5.748101">
        <ele>220.0</ele>
        <time>2022-09-26T13:09:39.887+02:00[Europe/Madrid]</time>
      </trkpt>
      <trkpt lat="36.813272" lon="-5.748177">
        <ele>221.0</ele>
        <time>2022-09-26T13:09:41.900+02:00[Europe/Madrid]</time>
      </trkpt>
      <trkpt lat="36.813376" lon="-5.748245">
        <ele>222.0</ele>
        <time>2022-09-26T13:09:43.906+02:00[Europe/Madrid]</time>
      </trkpt>
      <trkpt lat="36.813507" lon="-5.748322">
        <ele>223.0</ele>
        <time>2022-09-26T13:09:45.894+02:00[Europe/Madrid]</time>
      </trkpt>
      <trkpt lat="36.81365" lon="-5.748397">
        <ele>226.0</ele>
        <time>2022-09-26T13:09:47.896+02:00[Europe/Madrid]</time>
      </trkpt>
      <trkpt lat="36.813775" lon="-5.748468">
        <ele>228.0</ele>
        <time>2022-09-26T13:09:49.889+02:00[Europe/Madrid]</time>
      </trkpt>
      <trkpt lat="36.813883" lon="-5.748514">
        <ele>230.0</ele>
        <time>2022-09-26T13:09:51.890+02:00[Europe/Madrid]</time>
      </trkpt>
      <trkpt lat="36.813958" lon="-5.748582">
        <ele>231.0</ele>
        <time>2022-09-26T13:09:54.895+02:00[Europe/Madrid]</time>
      </trkpt>
      <trkpt lat="36.813989" lon="-5.748729">
        <ele>232.0</ele>
        <time>2022-09-26T13:09:56.897+02:00[Europe/Madrid]</time>
      </trkpt>
      <trkpt lat="36.814048" lon="-5.748887">
        <ele>234.0</ele>
        <time>2022-09-26T13:09:58.897+02:00[Europe/Madrid]</time>
      </trkpt>
      <trkpt lat="36.814167" lon="-5.74901">
        <ele>237.0</ele>
        <time>2022-09-26T13:10:00.888+02:00[Europe/Madrid]</time>
      </trkpt>
      <trkpt lat="36.814318" lon="-5.749128">
        <ele>239.0</ele>
        <time>2022-09-26T13:10:02.900+02:00[Europe/Madrid]</time>
      </trkpt>
      <trkpt lat="36.814443" lon="-5.749219">
        <ele>241.0</ele>
        <time>2022-09-26T13:10:04.885+02:00[Europe/Madrid]</time>
      </trkpt>
      <trkpt lat="36.814524" lon="-5.749279">
        <ele>243.0</ele>
        <time>2022-09-26T13:10:06.891+02:00[Europe/Madrid]</time>
      </trkpt>
      <trkpt lat="36.814625" lon="-5.749363">
        <ele>246.0</ele>
        <time>2022-09-26T13:10:09.890+02:00[Europe/Madrid]</time>
      </trkpt>
      <trkpt lat="36.814739" lon="-5.749421">
        <ele>247.0</ele>
        <time>2022-09-26T13:10:12.906+02:00[Europe/Madrid]</time>
      </trkpt>
      <trkpt lat="36.814869" lon="-5.749384">
        <ele>247.0</ele>
        <time>2022-09-26T13:10:14.898+02:00[Europe/Madrid]</time>
      </trkpt>
      <trkpt lat="36.814954" lon="-5.74934">
        <ele>246.0</ele>
        <time>2022-09-26T13:10:15.898+02:00[Europe/Madrid]</time>
      </trkpt>
      <trkpt lat="36.815052" lon="-5.749293">
        <ele>246.0</ele>
        <time>2022-09-26T13:10:16.898+02:00[Europe/Madrid]</time>
      </trkpt>
      <trkpt lat="36.815156" lon="-5.749247">
        <ele>245.0</ele>
        <time>2022-09-26T13:10:17.898+02:00[Europe/Madrid]</time>
      </trkpt>
      <trkpt lat="36.815269" lon="-5.749198">
        <ele>245.0</ele>
        <time>2022-09-26T13:10:18.898+02:00[Europe/Madrid]</time>
      </trkpt>
      <trkpt lat="36.815388" lon="-5.749146">
        <ele>244.0</ele>
        <time>2022-09-26T13:10:19.898+02:00[Europe/Madrid]</time>
      </trkpt>
      <trkpt lat="36.815503" lon="-5.749091">
        <ele>243.0</ele>
        <time>2022-09-26T13:10:20.900+02:00[Europe/Madrid]</time>
      </trkpt>
      <trkpt lat="36.815619" lon="-5.749042">
        <ele>243.0</ele>
        <time>2022-09-26T13:10:21.900+02:00[Europe/Madrid]</time>
      </trkpt>
      <trkpt lat="36.815735" lon="-5.748992">
        <ele>242.0</ele>
        <time>2022-09-26T13:10:22.900+02:00[Europe/Madrid]</time>
      </trkpt>
      <trkpt lat="36.81585" lon="-5.748943">
        <ele>241.0</ele>
        <time>2022-09-26T13:10:23.900+02:00[Europe/Madrid]</time>
      </trkpt>
      <trkpt lat="36.815969" lon="-5.748891">
        <ele>241.0</ele>
        <time>2022-09-26T13:10:24.900+02:00[Europe/Madrid]</time>
      </trkpt>
      <trkpt lat="36.816089" lon="-5.748837">
        <ele>240.0</ele>
        <time>2022-09-26T13:10:25.904+02:00[Europe/Madrid]</time>
      </trkpt>
      <trkpt lat="36.816217" lon="-5.748779">
        <ele>239.0</ele>
        <time>2022-09-26T13:10:26.904+02:00[Europe/Madrid]</time>
      </trkpt>
      <trkpt lat="36.816349" lon="-5.748721">
        <ele>238.0</ele>
        <time>2022-09-26T13:10:27.904+02:00[Europe/Madrid]</time>
      </trkpt>
      <trkpt lat="36.816497" lon="-5.748659">
        <ele>238.0</ele>
        <time>2022-09-26T13:10:28.904+02:00[Europe/Madrid]</time>
      </trkpt>
      <trkpt lat="36.816658" lon="-5.748589">
        <ele>237.0</ele>
        <time>2022-09-26T13:10:29.904+02:00[Europe/Madrid]</time>
      </trkpt>
      <trkpt lat="36.816824" lon="-5.748516">
        <ele>236.0</ele>
        <time>2022-09-26T13:10:30.912+02:00[Europe/Madrid]</time>
      </trkpt>
      <trkpt lat="36.816992" lon="-5.748441">
        <ele>235.0</ele>
        <time>2022-09-26T13:10:31.912+02:00[Europe/Madrid]</time>
      </trkpt>
      <trkpt lat="36.817154" lon="-5.748366">
        <ele>234.0</ele>
        <time>2022-09-26T13:10:32.912+02:00[Europe/Madrid]</time>
      </trkpt>
      <trkpt lat="36.817313" lon="-5.748284">
        <ele>234.0</ele>
        <time>2022-09-26T13:10:33.912+02:00[Europe/Madrid]</time>
      </trkpt>
      <trkpt lat="36.81747" lon="-5.74819">
        <ele>233.0</ele>
        <time>2022-09-26T13:10:34.912+02:00[Europe/Madrid]</time>
      </trkpt>
      <trkpt lat="36.817624" lon="-5.748082">
        <ele>232.0</ele>
        <time>2022-09-26T13:10:35.912+02:00[Europe/Madrid]</time>
      </trkpt>
      <trkpt lat="36.817778" lon="-5.747967">
        <ele>232.0</ele>
        <time>2022-09-26T13:10:36.912+02:00[Europe/Madrid]</time>
      </trkpt>
      <trkpt lat="36.817927" lon="-5.747846">
        <ele>231.0</ele>
        <time>2022-09-26T13:10:37.912+02:00[Europe/Madrid]</time>
      </trkpt>
      <trkpt lat="36.818076" lon="-5.74772">
        <ele>230.0</ele>
        <time>2022-09-26T13:10:38.912+02:00[Europe/Madrid]</time>
      </trkpt>
      <trkpt lat="36.818223" lon="-5.747593">
        <ele>229.0</ele>
        <time>2022-09-26T13:10:39.912+02:00[Europe/Madrid]</time>
      </trkpt>
      <trkpt lat="36.818373" lon="-5.747467">
        <ele>228.0</ele>
        <time>2022-09-26T13:10:40.912+02:00[Europe/Madrid]</time>
      </trkpt>
      <trkpt lat="36.818527" lon="-5.747345">
        <ele>227.0</ele>
        <time>2022-09-26T13:10:41.912+02:00[Europe/Madrid]</time>
      </trkpt>
      <trkpt lat="36.818683" lon="-5.747223">
        <ele>227.0</ele>
        <time>2022-09-26T13:10:42.912+02:00[Europe/Madrid]</time>
      </trkpt>
      <trkpt lat="36.818839" lon="-5.747099">
        <ele>226.0</ele>
        <time>2022-09-26T13:10:43.912+02:00[Europe/Madrid]</time>
      </trkpt>
      <trkpt lat="36.818995" lon="-5.746979">
        <ele>224.0</ele>
        <time>2022-09-26T13:10:44.912+02:00[Europe/Madrid]</time>
      </trkpt>
      <trkpt lat="36.819149" lon="-5.746867">
        <ele>224.0</ele>
        <time>2022-09-26T13:10:45.912+02:00[Europe/Madrid]</time>
      </trkpt>
      <trkpt lat="36.819302" lon="-5.746761">
        <ele>223.0</ele>
        <time>2022-09-26T13:10:46.912+02:00[Europe/Madrid]</time>
      </trkpt>
      <trkpt lat="36.819456" lon="-5.746657">
        <ele>222.0</ele>
        <time>2022-09-26T13:10:47.912+02:00[Europe/Madrid]</time>
      </trkpt>
      <trkpt lat="36.819607" lon="-5.746553">
        <ele>222.0</ele>
        <time>2022-09-26T13:10:48.912+02:00[Europe/Madrid]</time>
      </trkpt>
      <trkpt lat="36.819758" lon="-5.746449">
        <ele>221.0</ele>
        <time>2022-09-26T13:10:49.912+02:00[Europe/Madrid]</time>
      </trkpt>
      <trkpt lat="36.819908" lon="-5.746346">
        <ele>220.0</ele>
        <time>2022-09-26T13:10:50.912+02:00[Europe/Madrid]</time>
      </trkpt>
      <trkpt lat="36.820058" lon="-5.746246">
        <ele>219.0</ele>
        <time>2022-09-26T13:10:51.912+02:00[Europe/Madrid]</time>
      </trkpt>
      <trkpt lat="36.820205" lon="-5.746143">
        <ele>218.0</ele>
        <time>2022-09-26T13:10:52.912+02:00[Europe/Madrid]</time>
      </trkpt>
      <trkpt lat="36.820348" lon="-5.746042">
        <ele>217.0</ele>
        <time>2022-09-26T13:10:53.912+02:00[Europe/Madrid]</time>
      </trkpt>
      <trkpt lat="36.820492" lon="-5.745938">
        <ele>216.0</ele>
        <time>2022-09-26T13:10:54.912+02:00[Europe/Madrid]</time>
      </trkpt>
      <trkpt lat="36.820636" lon="-5.745835">
        <ele>216.0</ele>
        <time>2022-09-26T13:10:55.912+02:00[Europe/Madrid]</time>
      </trkpt>
      <trkpt lat="36.820783" lon="-5.745737">
        <ele>215.0</ele>
        <time>2022-09-26T13:10:56.912+02:00[Europe/Madrid]</time>
      </trkpt>
      <trkpt lat="36.82093" lon="-5.745635">
        <ele>214.0</ele>
        <time>2022-09-26T13:10:57.912+02:00[Europe/Madrid]</time>
      </trkpt>
      <trkpt lat="36.821075" lon="-5.745532">
        <ele>214.0</ele>
        <time>2022-09-26T13:10:58.912+02:00[Europe/Madrid]</time>
      </trkpt>
      <trkpt lat="36.821226" lon="-5.745436">
        <ele>213.0</ele>
        <time>2022-09-26T13:10:59.912+02:00[Europe/Madrid]</time>
      </trkpt>
      <trkpt lat="36.821371" lon="-5.745339">
        <ele>212.0</ele>
        <time>2022-09-26T13:11:00.912+02:00[Europe/Madrid]</time>
      </trkpt>
      <trkpt lat="36.821516" lon="-5.745243">
        <ele>211.0</ele>
        <time>2022-09-26T13:11:01.912+02:00[Europe/Madrid]</time>
      </trkpt>
      <trkpt lat="36.821662" lon="-5.745152">
        <ele>210.0</ele>
        <time>2022-09-26T13:11:02.912+02:00[Europe/Madrid]</time>
      </trkpt>
      <trkpt lat="36.82181" lon="-5.745067">
        <ele>210.0</ele>
        <time>2022-09-26T13:11:03.912+02:00[Europe/Madrid]</time>
      </trkpt>
      <trkpt lat="36.821957" lon="-5.744988">
        <ele>208.0</ele>
        <time>2022-09-26T13:11:04.912+02:00[Europe/Madrid]</time>
      </trkpt>
      <trkpt lat="36.822106" lon="-5.744915">
        <ele>207.0</ele>
        <time>2022-09-26T13:11:05.912+02:00[Europe/Madrid]</time>
      </trkpt>
      <trkpt lat="36.822259" lon="-5.744848">
        <ele>206.0</ele>
        <time>2022-09-26T13:11:06.912+02:00[Europe/Madrid]</time>
      </trkpt>
      <trkpt lat="36.822407" lon="-5.744785">
        <ele>205.0</ele>
        <time>2022-09-26T13:11:07.912+02:00[Europe/Madrid]</time>
      </trkpt>
      <trkpt lat="36.822556" lon="-5.744727">
        <ele>204.0</ele>
        <time>2022-09-26T13:11:08.912+02:00[Europe/Madrid]</time>
      </trkpt>
      <trkpt lat="36.822706" lon="-5.744674">
        <ele>204.0</ele>
        <time>2022-09-26T13:11:09.912+02:00[Europe/Madrid]</time>
      </trkpt>
      <trkpt lat="36.822857" lon="-5.744629">
        <ele>203.0</ele>
        <time>2022-09-26T13:11:10.912+02:00[Europe/Madrid]</time>
      </trkpt>
      <trkpt lat="36.823007" lon="-5.744586">
        <ele>202.0</ele>
        <time>2022-09-26T13:11:11.912+02:00[Europe/Madrid]</time>
      </trkpt>
      <trkpt lat="36.823154" lon="-5.744544">
        <ele>201.0</ele>
        <time>2022-09-26T13:11:12.912+02:00[Europe/Madrid]</time>
      </trkpt>
      <trkpt lat="36.823298" lon="-5.744502">
        <ele>200.0</ele>
        <time>2022-09-26T13:11:13.912+02:00[Europe/Madrid]</time>
      </trkpt>
      <trkpt lat="36.823442" lon="-5.744457">
        <ele>200.0</ele>
        <time>2022-09-26T13:11:14.912+02:00[Europe/Madrid]</time>
      </trkpt>
      <trkpt lat="36.823583" lon="-5.744406">
        <ele>200.0</ele>
        <time>2022-09-26T13:11:15.912+02:00[Europe/Madrid]</time>
      </trkpt>
      <trkpt lat="36.823716" lon="-5.744339">
        <ele>199.0</ele>
        <time>2022-09-26T13:11:16.912+02:00[Europe/Madrid]</time>
      </trkpt>
      <trkpt lat="36.823845" lon="-5.744255">
        <ele>198.0</ele>
        <time>2022-09-26T13:11:17.912+02:00[Europe/Madrid]</time>
      </trkpt>
      <trkpt lat="36.823964" lon="-5.744149">
        <ele>197.0</ele>
        <time>2022-09-26T13:11:18.912+02:00[Europe/Madrid]</time>
      </trkpt>
      <trkpt lat="36.824069" lon="-5.744022">
        <ele>197.0</ele>
        <time>2022-09-26T13:11:19.912+02:00[Europe/Madrid]</time>
      </trkpt>
      <trkpt lat="36.824162" lon="-5.743873">
        <ele>196.0</ele>
        <time>2022-09-26T13:11:21.003+02:00[Europe/Madrid]</time>
      </trkpt>
      <trkpt lat="36.824236" lon="-5.743713">
        <ele>195.0</ele>
        <time>2022-09-26T13:11:22.003+02:00[Europe/Madrid]</time>
      </trkpt>
      <trkpt lat="36.824299" lon="-5.743536">
        <ele>194.0</ele>
        <time>2022-09-26T13:11:23.003+02:00[Europe/Madrid]</time>
      </trkpt>
      <trkpt lat="36.824354" lon="-5.743348">
        <ele>193.0</ele>
        <time>2022-09-26T13:11:24.003+02:00[Europe/Madrid]</time>
      </trkpt>
      <trkpt lat="36.824407" lon="-5.743144">
        <ele>193.0</ele>
        <time>2022-09-26T13:11:25.003+02:00[Europe/Madrid]</time>
      </trkpt>
      <trkpt lat="36.82446" lon="-5.742935">
        <ele>192.0</ele>
        <time>2022-09-26T13:11:26.003+02:00[Europe/Madrid]</time>
      </trkpt>
      <trkpt lat="36.824509" lon="-5.742729">
        <ele>190.0</ele>
        <time>2022-09-26T13:11:27.003+02:00[Europe/Madrid]</time>
      </trkpt>
      <trkpt lat="36.824559" lon="-5.742517">
        <ele>189.0</ele>
        <time>2022-09-26T13:11:28.003+02:00[Europe/Madrid]</time>
      </trkpt>
      <trkpt lat="36.824613" lon="-5.742301">
        <ele>188.0</ele>
        <time>2022-09-26T13:11:29.003+02:00[Europe/Madrid]</time>
      </trkpt>
      <trkpt lat="36.824667" lon="-5.742086">
        <ele>187.0</ele>
        <time>2022-09-26T13:11:30.003+02:00[Europe/Madrid]</time>
      </trkpt>
      <trkpt lat="36.824721" lon="-5.741874">
        <ele>186.0</ele>
        <time>2022-09-26T13:11:31.003+02:00[Europe/Madrid]</time>
      </trkpt>
      <trkpt lat="36.824771" lon="-5.741661">
        <ele>185.0</ele>
        <time>2022-09-26T13:11:32.003+02:00[Europe/Madrid]</time>
      </trkpt>
      <trkpt lat="36.824824" lon="-5.741449">
        <ele>185.0</ele>
        <time>2022-09-26T13:11:33.003+02:00[Europe/Madrid]</time>
      </trkpt>
      <trkpt lat="36.824877" lon="-5.741233">
        <ele>184.0</ele>
        <time>2022-09-26T13:11:34.003+02:00[Europe/Madrid]</time>
      </trkpt>
      <trkpt lat="36.82493" lon="-5.741014">
        <ele>183.0</ele>
        <time>2022-09-26T13:11:35.003+02:00[Europe/Madrid]</time>
      </trkpt>
      <trkpt lat="36.824983" lon="-5.740796">
        <ele>183.0</ele>
        <time>2022-09-26T13:11:36.003+02:00[Europe/Madrid]</time>
      </trkpt>
      <trkpt lat="36.825036" lon="-5.740575">
        <ele>182.0</ele>
        <time>2022-09-26T13:11:37.003+02:00[Europe/Madrid]</time>
      </trkpt>
      <trkpt lat="36.82509" lon="-5.740356">
        <ele>181.0</ele>
        <time>2022-09-26T13:11:38.003+02:00[Europe/Madrid]</time>
      </trkpt>
      <trkpt lat="36.825142" lon="-5.740139">
        <ele>181.0</ele>
        <time>2022-09-26T13:11:39.003+02:00[Europe/Madrid]</time>
      </trkpt>
      <trkpt lat="36.825196" lon="-5.739923">
        <ele>180.0</ele>
        <time>2022-09-26T13:11:40.003+02:00[Europe/Madrid]</time>
      </trkpt>
      <trkpt lat="36.825252" lon="-5.739711">
        <ele>179.0</ele>
        <time>2022-09-26T13:11:41.003+02:00[Europe/Madrid]</time>
      </trkpt>
      <trkpt lat="36.825308" lon="-5.739495">
        <ele>178.0</ele>
        <time>2022-09-26T13:11:42.003+02:00[Europe/Madrid]</time>
      </trkpt>
      <trkpt lat="36.825365" lon="-5.739276">
        <ele>178.0</ele>
        <time>2022-09-26T13:11:43.003+02:00[Europe/Madrid]</time>
      </trkpt>
      <trkpt lat="36.825425" lon="-5.739061">
        <ele>177.0</ele>
        <time>2022-09-26T13:11:44.003+02:00[Europe/Madrid]</time>
      </trkpt>
      <trkpt lat="36.825482" lon="-5.738849">
        <ele>176.0</ele>
        <time>2022-09-26T13:11:45.003+02:00[Europe/Madrid]</time>
      </trkpt>
      <trkpt lat="36.825544" lon="-5.738637">
        <ele>176.0</ele>
        <time>2022-09-26T13:11:46.003+02:00[Europe/Madrid]</time>
      </trkpt>
      <trkpt lat="36.825597" lon="-5.73842">
        <ele>175.0</ele>
        <time>2022-09-26T13:11:47.003+02:00[Europe/Madrid]</time>
      </trkpt>
      <trkpt lat="36.825651" lon="-5.738203">
        <ele>174.0</ele>
        <time>2022-09-26T13:11:48.003+02:00[Europe/Madrid]</time>
      </trkpt>
      <trkpt lat="36.825705" lon="-5.737986">
        <ele>174.0</ele>
        <time>2022-09-26T13:11:49.003+02:00[Europe/Madrid]</time>
      </trkpt>
      <trkpt lat="36.82576" lon="-5.737768">
        <ele>173.0</ele>
        <time>2022-09-26T13:11:50.003+02:00[Europe/Madrid]</time>
      </trkpt>
      <trkpt lat="36.825814" lon="-5.737547">
        <ele>172.0</ele>
        <time>2022-09-26T13:11:51.003+02:00[Europe/Madrid]</time>
      </trkpt>
      <trkpt lat="36.825864" lon="-5.737328">
        <ele>171.0</ele>
        <time>2022-09-26T13:11:52.003+02:00[Europe/Madrid]</time>
      </trkpt>
      <trkpt lat="36.82592" lon="-5.737106">
        <ele>170.0</ele>
        <time>2022-09-26T13:11:53.003+02:00[Europe/Madrid]</time>
      </trkpt>
      <trkpt lat="36.825976" lon="-5.736886">
        <ele>170.0</ele>
        <time>2022-09-26T13:11:54.003+02:00[Europe/Madrid]</time>
      </trkpt>
      <trkpt lat="36.826031" lon="-5.736666">
        <ele>169.0</ele>
        <time>2022-09-26T13:11:55.003+02:00[Europe/Madrid]</time>
      </trkpt>
      <trkpt lat="36.826083" lon="-5.736445">
        <ele>169.0</ele>
        <time>2022-09-26T13:11:56.003+02:00[Europe/Madrid]</time>
      </trkpt>
      <trkpt lat="36.826139" lon="-5.736226">
        <ele>169.0</ele>
        <time>2022-09-26T13:11:57.003+02:00[Europe/Madrid]</time>
      </trkpt>
      <trkpt lat="36.826194" lon="-5.736002">
        <ele>168.0</ele>
        <time>2022-09-26T13:11:58.003+02:00[Europe/Madrid]</time>
      </trkpt>
      <trkpt lat="36.826251" lon="-5.735777">
        <ele>168.0</ele>
        <time>2022-09-26T13:11:59.003+02:00[Europe/Madrid]</time>
      </trkpt>
      <trkpt lat="36.826303" lon="-5.735553">
        <ele>168.0</ele>
        <time>2022-09-26T13:12:00.003+02:00[Europe/Madrid]</time>
      </trkpt>
      <trkpt lat="36.826357" lon="-5.735325">
        <ele>168.0</ele>
        <time>2022-09-26T13:12:01.003+02:00[Europe/Madrid]</time>
      </trkpt>
      <trkpt lat="36.826412" lon="-5.735093">
        <ele>168.0</ele>
        <time>2022-09-26T13:12:02.003+02:00[Europe/Madrid]</time>
      </trkpt>
      <trkpt lat="36.826468" lon="-5.734868">
        <ele>168.0</ele>
        <time>2022-09-26T13:12:03.003+02:00[Europe/Madrid]</time>
      </trkpt>
      <trkpt lat="36.826523" lon="-5.734637">
        <ele>169.0</ele>
        <time>2022-09-26T13:12:04.003+02:00[Europe/Madrid]</time>
      </trkpt>
      <trkpt lat="36.826577" lon="-5.734404">
        <ele>169.0</ele>
        <time>2022-09-26T13:12:05.003+02:00[Europe/Madrid]</time>
      </trkpt>
      <trkpt lat="36.826633" lon="-5.73417">
        <ele>170.0</ele>
        <time>2022-09-26T13:12:06.003+02:00[Europe/Madrid]</time>
      </trkpt>
      <trkpt lat="36.826692" lon="-5.733939">
        <ele>171.0</ele>
        <time>2022-09-26T13:12:07.003+02:00[Europe/Madrid]</time>
      </trkpt>
      <trkpt lat="36.826751" lon="-5.733706">
        <ele>171.0</ele>
        <time>2022-09-26T13:12:08.003+02:00[Europe/Madrid]</time>
      </trkpt>
      <trkpt lat="36.826814" lon="-5.733469">
        <ele>172.0</ele>
        <time>2022-09-26T13:12:09.003+02:00[Europe/Madrid]</time>
      </trkpt>
      <trkpt lat="36.826883" lon="-5.733231">
        <ele>172.0</ele>
        <time>2022-09-26T13:12:10.003+02:00[Europe/Madrid]</time>
      </trkpt>
      <trkpt lat="36.826954" lon="-5.732997">
        <ele>172.0</ele>
        <time>2022-09-26T13:12:11.003+02:00[Europe/Madrid]</time>
      </trkpt>
      <trkpt lat="36.827028" lon="-5.732766">
        <ele>173.0</ele>
        <time>2022-09-26T13:12:12.003+02:00[Europe/Madrid]</time>
      </trkpt>
      <trkpt lat="36.827105" lon="-5.732532">
        <ele>173.0</ele>
        <time>2022-09-26T13:12:13.003+02:00[Europe/Madrid]</time>
      </trkpt>
      <trkpt lat="36.827183" lon="-5.732299">
        <ele>173.0</ele>
        <time>2022-09-26T13:12:14.003+02:00[Europe/Madrid]</time>
      </trkpt>
      <trkpt lat="36.827265" lon="-5.732067">
        <ele>172.0</ele>
        <time>2022-09-26T13:12:15.003+02:00[Europe/Madrid]</time>
      </trkpt>
      <trkpt lat="36.827349" lon="-5.731835">
        <ele>172.0</ele>
        <time>2022-09-26T13:12:16.003+02:00[Europe/Madrid]</time>
      </trkpt>
      <trkpt lat="36.827434" lon="-5.731604">
        <ele>172.0</ele>
        <time>2022-09-26T13:12:17.003+02:00[Europe/Madrid]</time>
      </trkpt>
      <trkpt lat="36.827522" lon="-5.731374">
        <ele>172.0</ele>
        <time>2022-09-26T13:12:18.003+02:00[Europe/Madrid]</time>
      </trkpt>
      <trkpt lat="36.827612" lon="-5.731145">
        <ele>173.0</ele>
        <time>2022-09-26T13:12:19.003+02:00[Europe/Madrid]</time>
      </trkpt>
      <trkpt lat="36.827697" lon="-5.730915">
        <ele>172.0</ele>
        <time>2022-09-26T13:12:20.003+02:00[Europe/Madrid]</time>
      </trkpt>
      <trkpt lat="36.827789" lon="-5.730684">
        <ele>172.0</ele>
        <time>2022-09-26T13:12:21.003+02:00[Europe/Madrid]</time>
      </trkpt>
      <trkpt lat="36.82788" lon="-5.730454">
        <ele>172.0</ele>
        <time>2022-09-26T13:12:22.003+02:00[Europe/Madrid]</time>
      </trkpt>
      <trkpt lat="36.827971" lon="-5.730224">
        <ele>172.0</ele>
        <time>2022-09-26T13:12:23.003+02:00[Europe/Madrid]</time>
      </trkpt>
      <trkpt lat="36.828064" lon="-5.729992">
        <ele>171.0</ele>
        <time>2022-09-26T13:12:24.003+02:00[Europe/Madrid]</time>
      </trkpt>
      <trkpt lat="36.828163" lon="-5.729753">
        <ele>171.0</ele>
        <time>2022-09-26T13:12:25.003+02:00[Europe/Madrid]</time>
      </trkpt>
      <trkpt lat="36.828263" lon="-5.729508">
        <ele>170.0</ele>
        <time>2022-09-26T13:12:26.003+02:00[Europe/Madrid]</time>
      </trkpt>
      <trkpt lat="36.828365" lon="-5.729258">
        <ele>170.0</ele>
        <time>2022-09-26T13:12:27.003+02:00[Europe/Madrid]</time>
      </trkpt>
      <trkpt lat="36.828464" lon="-5.729006">
        <ele>169.0</ele>
        <time>2022-09-26T13:12:28.003+02:00[Europe/Madrid]</time>
      </trkpt>
      <trkpt lat="36.828566" lon="-5.728751">
        <ele>168.0</ele>
        <time>2022-09-26T13:12:29.003+02:00[Europe/Madrid]</time>
      </trkpt>
      <trkpt lat="36.828669" lon="-5.728498">
        <ele>168.0</ele>
        <time>2022-09-26T13:12:30.003+02:00[Europe/Madrid]</time>
      </trkpt>
      <trkpt lat="36.828773" lon="-5.728243">
        <ele>168.0</ele>
        <time>2022-09-26T13:12:31.003+02:00[Europe/Madrid]</time>
      </trkpt>
      <trkpt lat="36.828878" lon="-5.727984">
        <ele>168.0</ele>
        <time>2022-09-26T13:12:32.003+02:00[Europe/Madrid]</time>
      </trkpt>
      <trkpt lat="36.82898" lon="-5.727723">
        <ele>168.0</ele>
        <time>2022-09-26T13:12:33.003+02:00[Europe/Madrid]</time>
      </trkpt>
      <trkpt lat="36.829083" lon="-5.727463">
        <ele>169.0</ele>
        <time>2022-09-26T13:12:34.003+02:00[Europe/Madrid]</time>
      </trkpt>
      <trkpt lat="36.829186" lon="-5.727204">
        <ele>169.0</ele>
        <time>2022-09-26T13:12:35.003+02:00[Europe/Madrid]</time>
      </trkpt>
      <trkpt lat="36.829286" lon="-5.726947">
        <ele>170.0</ele>
        <time>2022-09-26T13:12:36.003+02:00[Europe/Madrid]</time>
      </trkpt>
      <trkpt lat="36.829386" lon="-5.726694">
        <ele>170.0</ele>
        <time>2022-09-26T13:12:37.003+02:00[Europe/Madrid]</time>
      </trkpt>
      <trkpt lat="36.829485" lon="-5.726446">
        <ele>171.0</ele>
        <time>2022-09-26T13:12:38.003+02:00[Europe/Madrid]</time>
      </trkpt>
      <trkpt lat="36.829586" lon="-5.726193">
        <ele>171.0</ele>
        <time>2022-09-26T13:12:39.003+02:00[Europe/Madrid]</time>
      </trkpt>
      <trkpt lat="36.829687" lon="-5.725944">
        <ele>171.0</ele>
        <time>2022-09-26T13:12:40.003+02:00[Europe/Madrid]</time>
      </trkpt>
      <trkpt lat="36.829785" lon="-5.72569">
        <ele>171.0</ele>
        <time>2022-09-26T13:12:41.003+02:00[Europe/Madrid]</time>
      </trkpt>
      <trkpt lat="36.829885" lon="-5.725443">
        <ele>171.0</ele>
        <time>2022-09-26T13:12:42.003+02:00[Europe/Madrid]</time>
      </trkpt>
      <trkpt lat="36.829982" lon="-5.725195">
        <ele>171.0</ele>
        <time>2022-09-26T13:12:43.003+02:00[Europe/Madrid]</time>
      </trkpt>
      <trkpt lat="36.830083" lon="-5.724945">
        <ele>171.0</ele>
        <time>2022-09-26T13:12:44.003+02:00[Europe/Madrid]</time>
      </trkpt>
      <trkpt lat="36.830182" lon="-5.724694">
        <ele>170.0</ele>
        <time>2022-09-26T13:12:45.003+02:00[Europe/Madrid]</time>
      </trkpt>
      <trkpt lat="36.83028" lon="-5.724445">
        <ele>170.0</ele>
        <time>2022-09-26T13:12:46.003+02:00[Europe/Madrid]</time>
      </trkpt>
      <trkpt lat="36.830378" lon="-5.724197">
        <ele>169.0</ele>
        <time>2022-09-26T13:12:47.003+02:00[Europe/Madrid]</time>
      </trkpt>
      <trkpt lat="36.830477" lon="-5.723954">
        <ele>169.0</ele>
        <time>2022-09-26T13:12:48.003+02:00[Europe/Madrid]</time>
      </trkpt>
      <trkpt lat="36.830577" lon="-5.723705">
        <ele>168.0</ele>
        <time>2022-09-26T13:12:49.003+02:00[Europe/Madrid]</time>
      </trkpt>
      <trkpt lat="36.830677" lon="-5.723451">
        <ele>167.0</ele>
        <time>2022-09-26T13:12:50.003+02:00[Europe/Madrid]</time>
      </trkpt>
      <trkpt lat="36.830779" lon="-5.723196">
        <ele>166.0</ele>
        <time>2022-09-26T13:12:51.003+02:00[Europe/Madrid]</time>
      </trkpt>
      <trkpt lat="36.830885" lon="-5.722933">
        <ele>165.0</ele>
        <time>2022-09-26T13:12:52.003+02:00[Europe/Madrid]</time>
      </trkpt>
      <trkpt lat="36.830992" lon="-5.722663">
        <ele>164.0</ele>
        <time>2022-09-26T13:12:53.003+02:00[Europe/Madrid]</time>
      </trkpt>
      <trkpt lat="36.831102" lon="-5.722393">
        <ele>163.0</ele>
        <time>2022-09-26T13:12:54.003+02:00[Europe/Madrid]</time>
      </trkpt>
      <trkpt lat="36.831208" lon="-5.722128">
        <ele>163.0</ele>
        <time>2022-09-26T13:12:55.003+02:00[Europe/Madrid]</time>
      </trkpt>
      <trkpt lat="36.831314" lon="-5.721858">
        <ele>162.0</ele>
        <time>2022-09-26T13:12:56.003+02:00[Europe/Madrid]</time>
      </trkpt>
      <trkpt lat="36.831422" lon="-5.721586">
        <ele>161.0</ele>
        <time>2022-09-26T13:12:57.003+02:00[Europe/Madrid]</time>
      </trkpt>
      <trkpt lat="36.831529" lon="-5.721316">
        <ele>160.0</ele>
        <time>2022-09-26T13:12:58.003+02:00[Europe/Madrid]</time>
      </trkpt>
      <trkpt lat="36.831632" lon="-5.721056">
        <ele>160.0</ele>
        <time>2022-09-26T13:12:59.003+02:00[Europe/Madrid]</time>
      </trkpt>
      <trkpt lat="36.83173" lon="-5.720804">
        <ele>159.0</ele>
        <time>2022-09-26T13:13:00.003+02:00[Europe/Madrid]</time>
      </trkpt>
      <trkpt lat="36.831825" lon="-5.720566">
        <ele>159.0</ele>
        <time>2022-09-26T13:13:01.003+02:00[Europe/Madrid]</time>
      </trkpt>
      <trkpt lat="36.831922" lon="-5.720338">
        <ele>158.0</ele>
        <time>2022-09-26T13:13:02.003+02:00[Europe/Madrid]</time>
      </trkpt>
      <trkpt lat="36.832019" lon="-5.720119">
        <ele>158.0</ele>
        <time>2022-09-26T13:13:03.003+02:00[Europe/Madrid]</time>
      </trkpt>
      <trkpt lat="36.832118" lon="-5.719902">
        <ele>158.0</ele>
        <time>2022-09-26T13:13:04.003+02:00[Europe/Madrid]</time>
      </trkpt>
      <trkpt lat="36.832228" lon="-5.719693">
        <ele>158.0</ele>
        <time>2022-09-26T13:13:05.003+02:00[Europe/Madrid]</time>
      </trkpt>
      <trkpt lat="36.832345" lon="-5.719494">
        <ele>157.0</ele>
        <time>2022-09-26T13:13:06.003+02:00[Europe/Madrid]</time>
      </trkpt>
      <trkpt lat="36.832474" lon="-5.719302">
        <ele>157.0</ele>
        <time>2022-09-26T13:13:07.003+02:00[Europe/Madrid]</time>
      </trkpt>
      <trkpt lat="36.832617" lon="-5.719122">
        <ele>157.0</ele>
        <time>2022-09-26T13:13:08.003+02:00[Europe/Madrid]</time>
      </trkpt>
      <trkpt lat="36.832765" lon="-5.718952">
        <ele>156.0</ele>
        <time>2022-09-26T13:13:09.003+02:00[Europe/Madrid]</time>
      </trkpt>
      <trkpt lat="36.832923" lon="-5.718788">
        <ele>156.0</ele>
        <time>2022-09-26T13:13:10.003+02:00[Europe/Madrid]</time>
      </trkpt>
      <trkpt lat="36.833088" lon="-5.718639">
        <ele>156.0</ele>
        <time>2022-09-26T13:13:11.003+02:00[Europe/Madrid]</time>
      </trkpt>
      <trkpt lat="36.83326" lon="-5.7185">
        <ele>156.0</ele>
        <time>2022-09-26T13:13:12.003+02:00[Europe/Madrid]</time>
      </trkpt>
      <trkpt lat="36.833439" lon="-5.718377">
        <ele>155.0</ele>
        <time>2022-09-26T13:13:13.003+02:00[Europe/Madrid]</time>
      </trkpt>
      <trkpt lat="36.833626" lon="-5.71827">
        <ele>155.0</ele>
        <time>2022-09-26T13:13:14.003+02:00[Europe/Madrid]</time>
      </trkpt>
      <trkpt lat="36.833821" lon="-5.718178">
        <ele>155.0</ele>
        <time>2022-09-26T13:13:15.003+02:00[Europe/Madrid]</time>
      </trkpt>
      <trkpt lat="36.834021" lon="-5.718106">
        <ele>155.0</ele>
        <time>2022-09-26T13:13:16.003+02:00[Europe/Madrid]</time>
      </trkpt>
      <trkpt lat="36.834228" lon="-5.718042">
        <ele>155.0</ele>
        <time>2022-09-26T13:13:17.003+02:00[Europe/Madrid]</time>
      </trkpt>
      <trkpt lat="36.834437" lon="-5.717986">
        <ele>155.0</ele>
        <time>2022-09-26T13:13:18.003+02:00[Europe/Madrid]</time>
      </trkpt>
      <trkpt lat="36.834652" lon="-5.71794">
        <ele>155.0</ele>
        <time>2022-09-26T13:13:19.003+02:00[Europe/Madrid]</time>
      </trkpt>
      <trkpt lat="36.834871" lon="-5.717897">
        <ele>155.0</ele>
        <time>2022-09-26T13:13:20.003+02:00[Europe/Madrid]</time>
      </trkpt>
      <trkpt lat="36.835089" lon="-5.71786">
        <ele>155.0</ele>
        <time>2022-09-26T13:13:21.003+02:00[Europe/Madrid]</time>
      </trkpt>
      <trkpt lat="36.835309" lon="-5.717826">
        <ele>154.0</ele>
        <time>2022-09-26T13:13:22.003+02:00[Europe/Madrid]</time>
      </trkpt>
      <trkpt lat="36.835528" lon="-5.717784">
        <ele>154.0</ele>
        <time>2022-09-26T13:13:23.003+02:00[Europe/Madrid]</time>
      </trkpt>
      <trkpt lat="36.835744" lon="-5.717738">
        <ele>154.0</ele>
        <time>2022-09-26T13:13:24.003+02:00[Europe/Madrid]</time>
      </trkpt>
      <trkpt lat="36.835957" lon="-5.717682">
        <ele>155.0</ele>
        <time>2022-09-26T13:13:25.003+02:00[Europe/Madrid]</time>
      </trkpt>
      <trkpt lat="36.836165" lon="-5.717615">
        <ele>155.0</ele>
        <time>2022-09-26T13:13:26.003+02:00[Europe/Madrid]</time>
      </trkpt>
      <trkpt lat="36.836366" lon="-5.717526">
        <ele>155.0</ele>
        <time>2022-09-26T13:13:27.003+02:00[Europe/Madrid]</time>
      </trkpt>
      <trkpt lat="36.836567" lon="-5.717424">
        <ele>155.0</ele>
        <time>2022-09-26T13:13:28.003+02:00[Europe/Madrid]</time>
      </trkpt>
      <trkpt lat="36.836764" lon="-5.717301">
        <ele>155.0</ele>
        <time>2022-09-26T13:13:29.003+02:00[Europe/Madrid]</time>
      </trkpt>
      <trkpt lat="36.836957" lon="-5.71716">
        <ele>155.0</ele>
        <time>2022-09-26T13:13:30.003+02:00[Europe/Madrid]</time>
      </trkpt>
      <trkpt lat="36.837143" lon="-5.717002">
        <ele>155.0</ele>
        <time>2022-09-26T13:13:31.003+02:00[Europe/Madrid]</time>
      </trkpt>
      <trkpt lat="36.837324" lon="-5.716822">
        <ele>155.0</ele>
        <time>2022-09-26T13:13:32.003+02:00[Europe/Madrid]</time>
      </trkpt>
      <trkpt lat="36.837492" lon="-5.716627">
        <ele>155.0</ele>
        <time>2022-09-26T13:13:33.003+02:00[Europe/Madrid]</time>
      </trkpt>
      <trkpt lat="36.837648" lon="-5.716413">
        <ele>155.0</ele>
        <time>2022-09-26T13:13:34.003+02:00[Europe/Madrid]</time>
      </trkpt>
      <trkpt lat="36.837805" lon="-5.716184">
        <ele>155.0</ele>
        <time>2022-09-26T13:13:35.003+02:00[Europe/Madrid]</time>
      </trkpt>
      <trkpt lat="36.83796" lon="-5.715948">
        <ele>155.0</ele>
        <time>2022-09-26T13:13:36.003+02:00[Europe/Madrid]</time>
      </trkpt>
      <trkpt lat="36.838112" lon="-5.715708">
        <ele>155.0</ele>
        <time>2022-09-26T13:13:37.003+02:00[Europe/Madrid]</time>
      </trkpt>
      <trkpt lat="36.838264" lon="-5.715465">
        <ele>155.0</ele>
        <time>2022-09-26T13:13:38.003+02:00[Europe/Madrid]</time>
      </trkpt>
      <trkpt lat="36.838416" lon="-5.715226">
        <ele>155.0</ele>
        <time>2022-09-26T13:13:39.003+02:00[Europe/Madrid]</time>
      </trkpt>
      <trkpt lat="36.838568" lon="-5.714984">
        <ele>155.0</ele>
        <time>2022-09-26T13:13:40.003+02:00[Europe/Madrid]</time>
      </trkpt>
      <trkpt lat="36.83872" lon="-5.714745">
        <ele>155.0</ele>
        <time>2022-09-26T13:13:41.003+02:00[Europe/Madrid]</time>
      </trkpt>
      <trkpt lat="36.838864" lon="-5.714511">
        <ele>155.0</ele>
        <time>2022-09-26T13:13:42.003+02:00[Europe/Madrid]</time>
      </trkpt>
      <trkpt lat="36.839004" lon="-5.71428">
        <ele>156.0</ele>
        <time>2022-09-26T13:13:43.003+02:00[Europe/Madrid]</time>
      </trkpt>
      <trkpt lat="36.839146" lon="-5.714058">
        <ele>156.0</ele>
        <time>2022-09-26T13:13:44.003+02:00[Europe/Madrid]</time>
      </trkpt>
      <trkpt lat="36.839284" lon="-5.71384">
        <ele>156.0</ele>
        <time>2022-09-26T13:13:45.003+02:00[Europe/Madrid]</time>
      </trkpt>
      <trkpt lat="36.839421" lon="-5.713624">
        <ele>156.0</ele>
        <time>2022-09-26T13:13:46.003+02:00[Europe/Madrid]</time>
      </trkpt>
      <trkpt lat="36.839554" lon="-5.713418">
        <ele>156.0</ele>
        <time>2022-09-26T13:13:47.003+02:00[Europe/Madrid]</time>
      </trkpt>
      <trkpt lat="36.839684" lon="-5.713214">
        <ele>156.0</ele>
        <time>2022-09-26T13:13:48.003+02:00[Europe/Madrid]</time>
      </trkpt>
      <trkpt lat="36.839811" lon="-5.713009">
        <ele>155.0</ele>
        <time>2022-09-26T13:13:49.003+02:00[Europe/Madrid]</time>
      </trkpt>
      <trkpt lat="36.839935" lon="-5.71281">
        <ele>156.0</ele>
        <time>2022-09-26T13:13:50.003+02:00[Europe/Madrid]</time>
      </trkpt>
      <trkpt lat="36.840059" lon="-5.712601">
        <ele>156.0</ele>
        <time>2022-09-26T13:13:51.003+02:00[Europe/Madrid]</time>
      </trkpt>
      <trkpt lat="36.840175" lon="-5.712385">
        <ele>156.0</ele>
        <time>2022-09-26T13:13:52.003+02:00[Europe/Madrid]</time>
      </trkpt>
      <trkpt lat="36.840283" lon="-5.712158">
        <ele>156.0</ele>
        <time>2022-09-26T13:13:53.003+02:00[Europe/Madrid]</time>
      </trkpt>
      <trkpt lat="36.840378" lon="-5.711916">
        <ele>156.0</ele>
        <time>2022-09-26T13:13:54.003+02:00[Europe/Madrid]</time>
      </trkpt>
      <trkpt lat="36.840463" lon="-5.711661">
        <ele>156.0</ele>
        <time>2022-09-26T13:13:55.003+02:00[Europe/Madrid]</time>
      </trkpt>
      <trkpt lat="36.840539" lon="-5.711393">
        <ele>156.0</ele>
        <time>2022-09-26T13:13:56.003+02:00[Europe/Madrid]</time>
      </trkpt>
      <trkpt lat="36.840598" lon="-5.711115">
        <ele>156.0</ele>
        <time>2022-09-26T13:13:57.003+02:00[Europe/Madrid]</time>
      </trkpt>
      <trkpt lat="36.840638" lon="-5.710824">
        <ele>156.0</ele>
        <time>2022-09-26T13:13:58.003+02:00[Europe/Madrid]</time>
      </trkpt>
      <trkpt lat="36.840668" lon="-5.710518">
        <ele>155.0</ele>
        <time>2022-09-26T13:13:59.003+02:00[Europe/Madrid]</time>
      </trkpt>
      <trkpt lat="36.84069" lon="-5.710215">
        <ele>155.0</ele>
        <time>2022-09-26T13:14:00.003+02:00[Europe/Madrid]</time>
      </trkpt>
      <trkpt lat="36.840711" lon="-5.7099">
        <ele>155.0</ele>
        <time>2022-09-26T13:14:01.003+02:00[Europe/Madrid]</time>
      </trkpt>
      <trkpt lat="36.840731" lon="-5.70958">
        <ele>154.0</ele>
        <time>2022-09-26T13:14:02.003+02:00[Europe/Madrid]</time>
      </trkpt>
      <trkpt lat="36.840756" lon="-5.709263">
        <ele>154.0</ele>
        <time>2022-09-26T13:14:03.003+02:00[Europe/Madrid]</time>
      </trkpt>
      <trkpt lat="36.840778" lon="-5.708948">
        <ele>154.0</ele>
        <time>2022-09-26T13:14:04.003+02:00[Europe/Madrid]</time>
      </trkpt>
      <trkpt lat="36.840799" lon="-5.708634">
        <ele>153.0</ele>
        <time>2022-09-26T13:14:05.003+02:00[Europe/Madrid]</time>
      </trkpt>
      <trkpt lat="36.840819" lon="-5.708321">
        <ele>153.0</ele>
        <time>2022-09-26T13:14:06.003+02:00[Europe/Madrid]</time>
      </trkpt>
      <trkpt lat="36.840841" lon="-5.708015">
        <ele>153.0</ele>
        <time>2022-09-26T13:14:07.003+02:00[Europe/Madrid]</time>
      </trkpt>
      <trkpt lat="36.840861" lon="-5.707707">
        <ele>153.0</ele>
        <time>2022-09-26T13:14:08.003+02:00[Europe/Madrid]</time>
      </trkpt>
      <trkpt lat="36.840883" lon="-5.707404">
        <ele>153.0</ele>
        <time>2022-09-26T13:14:09.003+02:00[Europe/Madrid]</time>
      </trkpt>
      <trkpt lat="36.840905" lon="-5.707102">
        <ele>153.0</ele>
        <time>2022-09-26T13:14:10.003+02:00[Europe/Madrid]</time>
      </trkpt>
      <trkpt lat="36.840924" lon="-5.706802">
        <ele>153.0</ele>
        <time>2022-09-26T13:14:11.003+02:00[Europe/Madrid]</time>
      </trkpt>
      <trkpt lat="36.840942" lon="-5.706506">
        <ele>153.0</ele>
        <time>2022-09-26T13:14:12.003+02:00[Europe/Madrid]</time>
      </trkpt>
      <trkpt lat="36.840961" lon="-5.706215">
        <ele>153.0</ele>
        <time>2022-09-26T13:14:13.003+02:00[Europe/Madrid]</time>
      </trkpt>
      <trkpt lat="36.840976" lon="-5.705929">
        <ele>153.0</ele>
        <time>2022-09-26T13:14:14.003+02:00[Europe/Madrid]</time>
      </trkpt>
      <trkpt lat="36.840989" lon="-5.705647">
        <ele>153.0</ele>
        <time>2022-09-26T13:14:15.003+02:00[Europe/Madrid]</time>
      </trkpt>
      <trkpt lat="36.840993" lon="-5.705362">
        <ele>153.0</ele>
        <time>2022-09-26T13:14:16.003+02:00[Europe/Madrid]</time>
      </trkpt>
      <trkpt lat="36.840986" lon="-5.705083">
        <ele>153.0</ele>
        <time>2022-09-26T13:14:17.003+02:00[Europe/Madrid]</time>
      </trkpt>
      <trkpt lat="36.84096" lon="-5.70481">
        <ele>153.0</ele>
        <time>2022-09-26T13:14:18.003+02:00[Europe/Madrid]</time>
      </trkpt>
      <trkpt lat="36.840923" lon="-5.704545">
        <ele>153.0</ele>
        <time>2022-09-26T13:14:19.003+02:00[Europe/Madrid]</time>
      </trkpt>
      <trkpt lat="36.840871" lon="-5.704283">
        <ele>153.0</ele>
        <time>2022-09-26T13:14:20.003+02:00[Europe/Madrid]</time>
      </trkpt>
      <trkpt lat="36.84081" lon="-5.70402">
        <ele>153.0</ele>
        <time>2022-09-26T13:14:21.003+02:00[Europe/Madrid]</time>
      </trkpt>
      <trkpt lat="36.840741" lon="-5.70376">
        <ele>153.0</ele>
        <time>2022-09-26T13:14:22.003+02:00[Europe/Madrid]</time>
      </trkpt>
      <trkpt lat="36.840668" lon="-5.703502">
        <ele>154.0</ele>
        <time>2022-09-26T13:14:23.003+02:00[Europe/Madrid]</time>
      </trkpt>
      <trkpt lat="36.840592" lon="-5.703242">
        <ele>154.0</ele>
        <time>2022-09-26T13:14:24.003+02:00[Europe/Madrid]</time>
      </trkpt>
      <trkpt lat="36.840517" lon="-5.70298">
        <ele>154.0</ele>
        <time>2022-09-26T13:14:25.003+02:00[Europe/Madrid]</time>
      </trkpt>
      <trkpt lat="36.840445" lon="-5.702718">
        <ele>154.0</ele>
        <time>2022-09-26T13:14:26.003+02:00[Europe/Madrid]</time>
      </trkpt>
      <trkpt lat="36.840372" lon="-5.70246">
        <ele>154.0</ele>
        <time>2022-09-26T13:14:27.003+02:00[Europe/Madrid]</time>
      </trkpt>
      <trkpt lat="36.840307" lon="-5.702205">
        <ele>155.0</ele>
        <time>2022-09-26T13:14:28.003+02:00[Europe/Madrid]</time>
      </trkpt>
      <trkpt lat="36.840251" lon="-5.701954">
        <ele>155.0</ele>
        <time>2022-09-26T13:14:29.003+02:00[Europe/Madrid]</time>
      </trkpt>
      <trkpt lat="36.840205" lon="-5.701698">
        <ele>156.0</ele>
        <time>2022-09-26T13:14:30.003+02:00[Europe/Madrid]</time>
      </trkpt>
      <trkpt lat="36.840171" lon="-5.701438">
        <ele>156.0</ele>
        <time>2022-09-26T13:14:31.003+02:00[Europe/Madrid]</time>
      </trkpt>
      <trkpt lat="36.840149" lon="-5.701176">
        <ele>156.0</ele>
        <time>2022-09-26T13:14:32.003+02:00[Europe/Madrid]</time>
      </trkpt>
      <trkpt lat="36.840142" lon="-5.700916">
        <ele>156.0</ele>
        <time>2022-09-26T13:14:33.003+02:00[Europe/Madrid]</time>
      </trkpt>
      <trkpt lat="36.840149" lon="-5.700653">
        <ele>156.0</ele>
        <time>2022-09-26T13:14:34.003+02:00[Europe/Madrid]</time>
      </trkpt>
      <trkpt lat="36.840166" lon="-5.70039">
        <ele>156.0</ele>
        <time>2022-09-26T13:14:35.003+02:00[Europe/Madrid]</time>
      </trkpt>
      <trkpt lat="36.840195" lon="-5.700128">
        <ele>156.0</ele>
        <time>2022-09-26T13:14:36.003+02:00[Europe/Madrid]</time>
      </trkpt>
      <trkpt lat="36.840241" lon="-5.699864">
        <ele>157.0</ele>
        <time>2022-09-26T13:14:37.003+02:00[Europe/Madrid]</time>
      </trkpt>
      <trkpt lat="36.840301" lon="-5.699606">
        <ele>157.0</ele>
        <time>2022-09-26T13:14:38.003+02:00[Europe/Madrid]</time>
      </trkpt>
      <trkpt lat="36.840375" lon="-5.699348">
        <ele>157.0</ele>
        <time>2022-09-26T13:14:39.003+02:00[Europe/Madrid]</time>
      </trkpt>
      <trkpt lat="36.840463" lon="-5.699095">
        <ele>157.0</ele>
        <time>2022-09-26T13:14:40.003+02:00[Europe/Madrid]</time>
      </trkpt>
      <trkpt lat="36.840561" lon="-5.698846">
        <ele>158.0</ele>
        <time>2022-09-26T13:14:41.003+02:00[Europe/Madrid]</time>
      </trkpt>
      <trkpt lat="36.840664" lon="-5.698598">
        <ele>158.0</ele>
        <time>2022-09-26T13:14:42.003+02:00[Europe/Madrid]</time>
      </trkpt>
      <trkpt lat="36.840767" lon="-5.698353">
        <ele>158.0</ele>
        <time>2022-09-26T13:14:43.003+02:00[Europe/Madrid]</time>
      </trkpt>
      <trkpt lat="36.84087" lon="-5.698107">
        <ele>158.0</ele>
        <time>2022-09-26T13:14:44.003+02:00[Europe/Madrid]</time>
      </trkpt>
      <trkpt lat="36.840972" lon="-5.697861">
        <ele>158.0</ele>
        <time>2022-09-26T13:14:45.003+02:00[Europe/Madrid]</time>
      </trkpt>
      <trkpt lat="36.841078" lon="-5.697617">
        <ele>158.0</ele>
        <time>2022-09-26T13:14:46.003+02:00[Europe/Madrid]</time>
      </trkpt>
      <trkpt lat="36.841182" lon="-5.697372">
        <ele>158.0</ele>
        <time>2022-09-26T13:14:47.003+02:00[Europe/Madrid]</time>
      </trkpt>
      <trkpt lat="36.841284" lon="-5.69713">
        <ele>158.0</ele>
        <time>2022-09-26T13:14:48.003+02:00[Europe/Madrid]</time>
      </trkpt>
      <trkpt lat="36.841389" lon="-5.696884">
        <ele>158.0</ele>
        <time>2022-09-26T13:14:49.003+02:00[Europe/Madrid]</time>
      </trkpt>
      <trkpt lat="36.841495" lon="-5.696642">
        <ele>159.0</ele>
        <time>2022-09-26T13:14:50.003+02:00[Europe/Madrid]</time>
      </trkpt>
      <trkpt lat="36.841599" lon="-5.696397">
        <ele>159.0</ele>
        <time>2022-09-26T13:14:51.003+02:00[Europe/Madrid]</time>
      </trkpt>
      <trkpt lat="36.841701" lon="-5.696153">
        <ele>159.0</ele>
        <time>2022-09-26T13:14:52.003+02:00[Europe/Madrid]</time>
      </trkpt>
      <trkpt lat="36.841802" lon="-5.69591">
        <ele>159.0</ele>
        <time>2022-09-26T13:14:53.003+02:00[Europe/Madrid]</time>
      </trkpt>
      <trkpt lat="36.841906" lon="-5.695667">
        <ele>159.0</ele>
        <time>2022-09-26T13:14:54.003+02:00[Europe/Madrid]</time>
      </trkpt>
      <trkpt lat="36.842007" lon="-5.695426">
        <ele>159.0</ele>
        <time>2022-09-26T13:14:55.003+02:00[Europe/Madrid]</time>
      </trkpt>
      <trkpt lat="36.842107" lon="-5.695188">
        <ele>159.0</ele>
        <time>2022-09-26T13:14:56.003+02:00[Europe/Madrid]</time>
      </trkpt>
      <trkpt lat="36.842206" lon="-5.694949">
        <ele>160.0</ele>
        <time>2022-09-26T13:14:57.003+02:00[Europe/Madrid]</time>
      </trkpt>
      <trkpt lat="36.842307" lon="-5.69471">
        <ele>160.0</ele>
        <time>2022-09-26T13:14:58.003+02:00[Europe/Madrid]</time>
      </trkpt>
      <trkpt lat="36.842407" lon="-5.694472">
        <ele>160.0</ele>
        <time>2022-09-26T13:14:59.003+02:00[Europe/Madrid]</time>
      </trkpt>
      <trkpt lat="36.842508" lon="-5.694231">
        <ele>160.0</ele>
        <time>2022-09-26T13:15:00.003+02:00[Europe/Madrid]</time>
      </trkpt>
      <trkpt lat="36.842609" lon="-5.693996">
        <ele>160.0</ele>
        <time>2022-09-26T13:15:01.003+02:00[Europe/Madrid]</time>
      </trkpt>
      <trkpt lat="36.84271" lon="-5.693761">
        <ele>160.0</ele>
        <time>2022-09-26T13:15:02.003+02:00[Europe/Madrid]</time>
      </trkpt>
      <trkpt lat="36.842814" lon="-5.693524">
        <ele>161.0</ele>
        <time>2022-09-26T13:15:03.003+02:00[Europe/Madrid]</time>
      </trkpt>
      <trkpt lat="36.842918" lon="-5.693287">
        <ele>161.0</ele>
        <time>2022-09-26T13:15:04.003+02:00[Europe/Madrid]</time>
      </trkpt>
      <trkpt lat="36.843019" lon="-5.693049">
        <ele>161.0</ele>
        <time>2022-09-26T13:15:05.003+02:00[Europe/Madrid]</time>
      </trkpt>
      <trkpt lat="36.843122" lon="-5.692807">
        <ele>161.0</ele>
        <time>2022-09-26T13:15:06.003+02:00[Europe/Madrid]</time>
      </trkpt>
      <trkpt lat="36.843224" lon="-5.692564">
        <ele>162.0</ele>
        <time>2022-09-26T13:15:07.003+02:00[Europe/Madrid]</time>
      </trkpt>
      <trkpt lat="36.843326" lon="-5.692324">
        <ele>162.0</ele>
        <time>2022-09-26T13:15:08.003+02:00[Europe/Madrid]</time>
      </trkpt>
      <trkpt lat="36.843426" lon="-5.692082">
        <ele>162.0</ele>
        <time>2022-09-26T13:15:09.003+02:00[Europe/Madrid]</time>
      </trkpt>
      <trkpt lat="36.843531" lon="-5.69184">
        <ele>162.0</ele>
        <time>2022-09-26T13:15:10.003+02:00[Europe/Madrid]</time>
      </trkpt>
      <trkpt lat="36.843637" lon="-5.691596">
        <ele>162.0</ele>
        <time>2022-09-26T13:15:11.003+02:00[Europe/Madrid]</time>
      </trkpt>
      <trkpt lat="36.84374" lon="-5.69135">
        <ele>162.0</ele>
        <time>2022-09-26T13:15:12.003+02:00[Europe/Madrid]</time>
      </trkpt>
      <trkpt lat="36.843846" lon="-5.691102">
        <ele>162.0</ele>
        <time>2022-09-26T13:15:13.003+02:00[Europe/Madrid]</time>
      </trkpt>
      <trkpt lat="36.843951" lon="-5.690855">
        <ele>162.0</ele>
        <time>2022-09-26T13:15:14.003+02:00[Europe/Madrid]</time>
      </trkpt>
      <trkpt lat="36.844059" lon="-5.690603">
        <ele>162.0</ele>
        <time>2022-09-26T13:15:15.003+02:00[Europe/Madrid]</time>
      </trkpt>
      <trkpt lat="36.844168" lon="-5.690348">
        <ele>161.0</ele>
        <time>2022-09-26T13:15:16.003+02:00[Europe/Madrid]</time>
      </trkpt>
      <trkpt lat="36.844277" lon="-5.690087">
        <ele>161.0</ele>
        <time>2022-09-26T13:15:17.003+02:00[Europe/Madrid]</time>
      </trkpt>
      <trkpt lat="36.844387" lon="-5.689829">
        <ele>161.0</ele>
        <time>2022-09-26T13:15:18.003+02:00[Europe/Madrid]</time>
      </trkpt>
      <trkpt lat="36.844498" lon="-5.689569">
        <ele>161.0</ele>
        <time>2022-09-26T13:15:19.003+02:00[Europe/Madrid]</time>
      </trkpt>
      <trkpt lat="36.844608" lon="-5.689301">
        <ele>161.0</ele>
        <time>2022-09-26T13:15:20.003+02:00[Europe/Madrid]</time>
      </trkpt>
      <trkpt lat="36.844724" lon="-5.689036">
        <ele>161.0</ele>
        <time>2022-09-26T13:15:21.003+02:00[Europe/Madrid]</time>
      </trkpt>
      <trkpt lat="36.844838" lon="-5.688773">
        <ele>161.0</ele>
        <time>2022-09-26T13:15:22.003+02:00[Europe/Madrid]</time>
      </trkpt>
      <trkpt lat="36.84495" lon="-5.688513">
        <ele>161.0</ele>
        <time>2022-09-26T13:15:23.003+02:00[Europe/Madrid]</time>
      </trkpt>
      <trkpt lat="36.84506" lon="-5.688258">
        <ele>162.0</ele>
        <time>2022-09-26T13:15:24.003+02:00[Europe/Madrid]</time>
      </trkpt>
      <trkpt lat="36.845166" lon="-5.688002">
        <ele>162.0</ele>
        <time>2022-09-26T13:15:25.003+02:00[Europe/Madrid]</time>
      </trkpt>
      <trkpt lat="36.845273" lon="-5.68775">
        <ele>162.0</ele>
        <time>2022-09-26T13:15:26.003+02:00[Europe/Madrid]</time>
      </trkpt>
      <trkpt lat="36.84538" lon="-5.687501">
        <ele>162.0</ele>
        <time>2022-09-26T13:15:27.003+02:00[Europe/Madrid]</time>
      </trkpt>
      <trkpt lat="36.845489" lon="-5.687252">
        <ele>162.0</ele>
        <time>2022-09-26T13:15:28.003+02:00[Europe/Madrid]</time>
      </trkpt>
      <trkpt lat="36.845595" lon="-5.687001">
        <ele>162.0</ele>
        <time>2022-09-26T13:15:29.003+02:00[Europe/Madrid]</time>
      </trkpt>
      <trkpt lat="36.845701" lon="-5.686751">
        <ele>162.0</ele>
        <time>2022-09-26T13:15:30.003+02:00[Europe/Madrid]</time>
      </trkpt>
      <trkpt lat="36.845807" lon="-5.686502">
        <ele>161.0</ele>
        <time>2022-09-26T13:15:31.003+02:00[Europe/Madrid]</time>
      </trkpt>
      <trkpt lat="36.845915" lon="-5.686252">
        <ele>161.0</ele>
        <time>2022-09-26T13:15:32.003+02:00[Europe/Madrid]</time>
      </trkpt>
      <trkpt lat="36.846022" lon="-5.686001">
        <ele>160.0</ele>
        <time>2022-09-26T13:15:33.003+02:00[Europe/Madrid]</time>
      </trkpt>
      <trkpt lat="36.846128" lon="-5.68575">
        <ele>161.0</ele>
        <time>2022-09-26T13:15:34.003+02:00[Europe/Madrid]</time>
      </trkpt>
      <trkpt lat="36.846234" lon="-5.685498">
        <ele>160.0</ele>
        <time>2022-09-26T13:15:35.003+02:00[Europe/Madrid]</time>
      </trkpt>
      <trkpt lat="36.846342" lon="-5.685246">
        <ele>160.0</ele>
        <time>2022-09-26T13:15:36.003+02:00[Europe/Madrid]</time>
      </trkpt>
      <trkpt lat="36.846449" lon="-5.685001">
        <ele>160.0</ele>
        <time>2022-09-26T13:15:37.003+02:00[Europe/Madrid]</time>
      </trkpt>
      <trkpt lat="36.846556" lon="-5.684765">
        <ele>159.0</ele>
        <time>2022-09-26T13:15:38.003+02:00[Europe/Madrid]</time>
      </trkpt>
      <trkpt lat="36.846665" lon="-5.684528">
        <ele>159.0</ele>
        <time>2022-09-26T13:15:39.003+02:00[Europe/Madrid]</time>
      </trkpt>
      <trkpt lat="36.846779" lon="-5.684294">
        <ele>159.0</ele>
        <time>2022-09-26T13:15:40.003+02:00[Europe/Madrid]</time>
      </trkpt>
      <trkpt lat="36.846903" lon="-5.684068">
        <ele>159.0</ele>
        <time>2022-09-26T13:15:41.003+02:00[Europe/Madrid]</time>
      </trkpt>
      <trkpt lat="36.847038" lon="-5.68385">
        <ele>158.0</ele>
        <time>2022-09-26T13:15:42.003+02:00[Europe/Madrid]</time>
      </trkpt>
      <trkpt lat="36.847186" lon="-5.683638">
        <ele>158.0</ele>
        <time>2022-09-26T13:15:43.003+02:00[Europe/Madrid]</time>
      </trkpt>
      <trkpt lat="36.847343" lon="-5.683428">
        <ele>158.0</ele>
        <time>2022-09-26T13:15:44.003+02:00[Europe/Madrid]</time>
      </trkpt>
      <trkpt lat="36.847503" lon="-5.683213">
        <ele>158.0</ele>
        <time>2022-09-26T13:15:45.003+02:00[Europe/Madrid]</time>
      </trkpt>
      <trkpt lat="36.847662" lon="-5.683001">
        <ele>157.0</ele>
        <time>2022-09-26T13:15:46.003+02:00[Europe/Madrid]</time>
      </trkpt>
      <trkpt lat="36.847817" lon="-5.682797">
        <ele>157.0</ele>
        <time>2022-09-26T13:15:47.003+02:00[Europe/Madrid]</time>
      </trkpt>
      <trkpt lat="36.84797" lon="-5.682597">
        <ele>157.0</ele>
        <time>2022-09-26T13:15:48.003+02:00[Europe/Madrid]</time>
      </trkpt>
      <trkpt lat="36.848116" lon="-5.682406">
        <ele>157.0</ele>
        <time>2022-09-26T13:15:49.003+02:00[Europe/Madrid]</time>
      </trkpt>
      <trkpt lat="36.848254" lon="-5.682223">
        <ele>157.0</ele>
        <time>2022-09-26T13:15:50.003+02:00[Europe/Madrid]</time>
      </trkpt>
      <trkpt lat="36.848388" lon="-5.68205">
        <ele>157.0</ele>
        <time>2022-09-26T13:15:51.003+02:00[Europe/Madrid]</time>
      </trkpt>
      <trkpt lat="36.848523" lon="-5.681877">
        <ele>157.0</ele>
        <time>2022-09-26T13:15:52.003+02:00[Europe/Madrid]</time>
      </trkpt>
      <trkpt lat="36.848662" lon="-5.681708">
        <ele>157.0</ele>
        <time>2022-09-26T13:15:53.003+02:00[Europe/Madrid]</time>
      </trkpt>
      <trkpt lat="36.848802" lon="-5.681541">
        <ele>156.0</ele>
        <time>2022-09-26T13:15:54.003+02:00[Europe/Madrid]</time>
      </trkpt>
      <trkpt lat="36.848951" lon="-5.681383">
        <ele>155.0</ele>
        <time>2022-09-26T13:15:55.003+02:00[Europe/Madrid]</time>
      </trkpt>
      <trkpt lat="36.849113" lon="-5.681239">
        <ele>155.0</ele>
        <time>2022-09-26T13:15:56.003+02:00[Europe/Madrid]</time>
      </trkpt>
      <trkpt lat="36.849284" lon="-5.681098">
        <ele>155.0</ele>
        <time>2022-09-26T13:15:57.003+02:00[Europe/Madrid]</time>
      </trkpt>
      <trkpt lat="36.849465" lon="-5.680956">
        <ele>155.0</ele>
        <time>2022-09-26T13:15:58.003+02:00[Europe/Madrid]</time>
      </trkpt>
      <trkpt lat="36.849658" lon="-5.680818">
        <ele>155.0</ele>
        <time>2022-09-26T13:15:59.003+02:00[Europe/Madrid]</time>
      </trkpt>
      <trkpt lat="36.849857" lon="-5.680682">
        <ele>154.0</ele>
        <time>2022-09-26T13:16:00.003+02:00[Europe/Madrid]</time>
      </trkpt>
      <trkpt lat="36.850057" lon="-5.68055">
        <ele>154.0</ele>
        <time>2022-09-26T13:16:01.003+02:00[Europe/Madrid]</time>
      </trkpt>
      <trkpt lat="36.850251" lon="-5.680422">
        <ele>154.0</ele>
        <time>2022-09-26T13:16:02.003+02:00[Europe/Madrid]</time>
      </trkpt>
      <trkpt lat="36.850445" lon="-5.680292">
        <ele>154.0</ele>
        <time>2022-09-26T13:16:03.003+02:00[Europe/Madrid]</time>
      </trkpt>
      <trkpt lat="36.850626" lon="-5.680172">
        <ele>154.0</ele>
        <time>2022-09-26T13:16:04.003+02:00[Europe/Madrid]</time>
      </trkpt>
      <trkpt lat="36.850804" lon="-5.680052">
        <ele>153.0</ele>
        <time>2022-09-26T13:16:05.003+02:00[Europe/Madrid]</time>
      </trkpt>
      <trkpt lat="36.850983" lon="-5.679932">
        <ele>154.0</ele>
        <time>2022-09-26T13:16:06.003+02:00[Europe/Madrid]</time>
      </trkpt>
      <trkpt lat="36.851158" lon="-5.679809">
        <ele>153.0</ele>
        <time>2022-09-26T13:16:07.003+02:00[Europe/Madrid]</time>
      </trkpt>
      <trkpt lat="36.85133" lon="-5.679683">
        <ele>154.0</ele>
        <time>2022-09-26T13:16:08.003+02:00[Europe/Madrid]</time>
      </trkpt>
      <trkpt lat="36.851499" lon="-5.679547">
        <ele>154.0</ele>
        <time>2022-09-26T13:16:09.003+02:00[Europe/Madrid]</time>
      </trkpt>
      <trkpt lat="36.851664" lon="-5.679399">
        <ele>154.0</ele>
        <time>2022-09-26T13:16:10.003+02:00[Europe/Madrid]</time>
      </trkpt>
      <trkpt lat="36.851824" lon="-5.679234">
        <ele>154.0</ele>
        <time>2022-09-26T13:16:11.003+02:00[Europe/Madrid]</time>
      </trkpt>
      <trkpt lat="36.851982" lon="-5.679058">
        <ele>154.0</ele>
        <time>2022-09-26T13:16:12.003+02:00[Europe/Madrid]</time>
      </trkpt>
      <trkpt lat="36.852138" lon="-5.678881">
        <ele>154.0</ele>
        <time>2022-09-26T13:16:13.003+02:00[Europe/Madrid]</time>
      </trkpt>
      <trkpt lat="36.852281" lon="-5.67871">
        <ele>154.0</ele>
        <time>2022-09-26T13:16:14.003+02:00[Europe/Madrid]</time>
      </trkpt>
      <trkpt lat="36.852421" lon="-5.67854">
        <ele>154.0</ele>
        <time>2022-09-26T13:16:15.003+02:00[Europe/Madrid]</time>
      </trkpt>
      <trkpt lat="36.852554" lon="-5.678374">
        <ele>155.0</ele>
        <time>2022-09-26T13:16:16.003+02:00[Europe/Madrid]</time>
      </trkpt>
      <trkpt lat="36.852682" lon="-5.678211">
        <ele>155.0</ele>
        <time>2022-09-26T13:16:17.003+02:00[Europe/Madrid]</time>
      </trkpt>
      <trkpt lat="36.852806" lon="-5.678049">
        <ele>155.0</ele>
        <time>2022-09-26T13:16:18.003+02:00[Europe/Madrid]</time>
      </trkpt>
      <trkpt lat="36.85293" lon="-5.677892">
        <ele>155.0</ele>
        <time>2022-09-26T13:16:19.003+02:00[Europe/Madrid]</time>
      </trkpt>
      <trkpt lat="36.853052" lon="-5.677732">
        <ele>155.0</ele>
        <time>2022-09-26T13:16:20.003+02:00[Europe/Madrid]</time>
      </trkpt>
      <trkpt lat="36.853176" lon="-5.677568">
        <ele>155.0</ele>
        <time>2022-09-26T13:16:21.003+02:00[Europe/Madrid]</time>
      </trkpt>
      <trkpt lat="36.853297" lon="-5.6774">
        <ele>155.0</ele>
        <time>2022-09-26T13:16:22.003+02:00[Europe/Madrid]</time>
      </trkpt>
      <trkpt lat="36.853418" lon="-5.677223">
        <ele>155.0</ele>
        <time>2022-09-26T13:16:23.003+02:00[Europe/Madrid]</time>
      </trkpt>
      <trkpt lat="36.85354" lon="-5.677042">
        <ele>155.0</ele>
        <time>2022-09-26T13:16:24.003+02:00[Europe/Madrid]</time>
      </trkpt>
      <trkpt lat="36.853652" lon="-5.676854">
        <ele>155.0</ele>
        <time>2022-09-26T13:16:25.003+02:00[Europe/Madrid]</time>
      </trkpt>
      <trkpt lat="36.853759" lon="-5.676648">
        <ele>154.0</ele>
        <time>2022-09-26T13:16:26.003+02:00[Europe/Madrid]</time>
      </trkpt>
      <trkpt lat="36.853854" lon="-5.676438">
        <ele>153.0</ele>
        <time>2022-09-26T13:16:27.003+02:00[Europe/Madrid]</time>
      </trkpt>
      <trkpt lat="36.85394" lon="-5.676221">
        <ele>153.0</ele>
        <time>2022-09-26T13:16:28.003+02:00[Europe/Madrid]</time>
      </trkpt>
      <trkpt lat="36.854015" lon="-5.675995">
        <ele>154.0</ele>
        <time>2022-09-26T13:16:29.003+02:00[Europe/Madrid]</time>
      </trkpt>
      <trkpt lat="36.854078" lon="-5.675761">
        <ele>153.0</ele>
        <time>2022-09-26T13:16:30.003+02:00[Europe/Madrid]</time>
      </trkpt>
      <trkpt lat="36.854137" lon="-5.675516">
        <ele>153.0</ele>
        <time>2022-09-26T13:16:31.003+02:00[Europe/Madrid]</time>
      </trkpt>
      <trkpt lat="36.854188" lon="-5.675266">
        <ele>153.0</ele>
        <time>2022-09-26T13:16:32.003+02:00[Europe/Madrid]</time>
      </trkpt>
      <trkpt lat="36.854224" lon="-5.675003">
        <ele>154.0</ele>
        <time>2022-09-26T13:16:33.003+02:00[Europe/Madrid]</time>
      </trkpt>
      <trkpt lat="36.854247" lon="-5.674731">
        <ele>154.0</ele>
        <time>2022-09-26T13:16:34.003+02:00[Europe/Madrid]</time>
      </trkpt>
      <trkpt lat="36.854254" lon="-5.674457">
        <ele>154.0</ele>
        <time>2022-09-26T13:16:35.003+02:00[Europe/Madrid]</time>
      </trkpt>
      <trkpt lat="36.854245" lon="-5.674182">
        <ele>154.0</ele>
        <time>2022-09-26T13:16:36.003+02:00[Europe/Madrid]</time>
      </trkpt>
      <trkpt lat="36.854219" lon="-5.673909">
        <ele>154.0</ele>
        <time>2022-09-26T13:16:37.003+02:00[Europe/Madrid]</time>
      </trkpt>
      <trkpt lat="36.854178" lon="-5.673643">
        <ele>154.0</ele>
        <time>2022-09-26T13:16:38.003+02:00[Europe/Madrid]</time>
      </trkpt>
      <trkpt lat="36.854124" lon="-5.673382">
        <ele>154.0</ele>
        <time>2022-09-26T13:16:39.003+02:00[Europe/Madrid]</time>
      </trkpt>
      <trkpt lat="36.854061" lon="-5.673125">
        <ele>154.0</ele>
        <time>2022-09-26T13:16:40.003+02:00[Europe/Madrid]</time>
      </trkpt>
      <trkpt lat="36.853994" lon="-5.672871">
        <ele>154.0</ele>
        <time>2022-09-26T13:16:41.003+02:00[Europe/Madrid]</time>
      </trkpt>
      <trkpt lat="36.853921" lon="-5.672618">
        <ele>154.0</ele>
        <time>2022-09-26T13:16:42.003+02:00[Europe/Madrid]</time>
      </trkpt>
      <trkpt lat="36.853848" lon="-5.672364">
        <ele>154.0</ele>
        <time>2022-09-26T13:16:43.003+02:00[Europe/Madrid]</time>
      </trkpt>
      <trkpt lat="36.853776" lon="-5.672107">
        <ele>155.0</ele>
        <time>2022-09-26T13:16:44.003+02:00[Europe/Madrid]</time>
      </trkpt>
      <trkpt lat="36.853702" lon="-5.671852">
        <ele>154.0</ele>
        <time>2022-09-26T13:16:45.003+02:00[Europe/Madrid]</time>
      </trkpt>
      <trkpt lat="36.853627" lon="-5.671593">
        <ele>154.0</ele>
        <time>2022-09-26T13:16:46.003+02:00[Europe/Madrid]</time>
      </trkpt>
      <trkpt lat="36.853552" lon="-5.671333">
        <ele>154.0</ele>
        <time>2022-09-26T13:16:47.003+02:00[Europe/Madrid]</time>
      </trkpt>
      <trkpt lat="36.853475" lon="-5.671072">
        <ele>154.0</ele>
        <time>2022-09-26T13:16:48.003+02:00[Europe/Madrid]</time>
      </trkpt>
      <trkpt lat="36.853396" lon="-5.670812">
        <ele>154.0</ele>
        <time>2022-09-26T13:16:49.003+02:00[Europe/Madrid]</time>
      </trkpt>
      <trkpt lat="36.853317" lon="-5.67055">
        <ele>154.0</ele>
        <time>2022-09-26T13:16:50.003+02:00[Europe/Madrid]</time>
      </trkpt>
      <trkpt lat="36.853239" lon="-5.670284">
        <ele>154.0</ele>
        <time>2022-09-26T13:16:51.003+02:00[Europe/Madrid]</time>
      </trkpt>
      <trkpt lat="36.853162" lon="-5.670015">
        <ele>154.0</ele>
        <time>2022-09-26T13:16:52.003+02:00[Europe/Madrid]</time>
      </trkpt>
      <trkpt lat="36.853084" lon="-5.669741">
        <ele>154.0</ele>
        <time>2022-09-26T13:16:53.003+02:00[Europe/Madrid]</time>
      </trkpt>
      <trkpt lat="36.853006" lon="-5.669469">
        <ele>154.0</ele>
        <time>2022-09-26T13:16:54.003+02:00[Europe/Madrid]</time>
      </trkpt>
      <trkpt lat="36.852929" lon="-5.669201">
        <ele>154.0</ele>
        <time>2022-09-26T13:16:55.003+02:00[Europe/Madrid]</time>
      </trkpt>
      <trkpt lat="36.852849" lon="-5.668933">
        <ele>154.0</ele>
        <time>2022-09-26T13:16:56.003+02:00[Europe/Madrid]</time>
      </trkpt>
      <trkpt lat="36.85277" lon="-5.668667">
        <ele>154.0</ele>
        <time>2022-09-26T13:16:57.003+02:00[Europe/Madrid]</time>
      </trkpt>
      <trkpt lat="36.85269" lon="-5.668405">
        <ele>154.0</ele>
        <time>2022-09-26T13:16:58.003+02:00[Europe/Madrid]</time>
      </trkpt>
      <trkpt lat="36.852617" lon="-5.668143">
        <ele>154.0</ele>
        <time>2022-09-26T13:16:59.003+02:00[Europe/Madrid]</time>
      </trkpt>
      <trkpt lat="36.852545" lon="-5.667885">
        <ele>154.0</ele>
        <time>2022-09-26T13:17:00.003+02:00[Europe/Madrid]</time>
      </trkpt>
      <trkpt lat="36.852473" lon="-5.667632">
        <ele>154.0</ele>
        <time>2022-09-26T13:17:01.003+02:00[Europe/Madrid]</time>
      </trkpt>
      <trkpt lat="36.852401" lon="-5.667384">
        <ele>154.0</ele>
        <time>2022-09-26T13:17:02.003+02:00[Europe/Madrid]</time>
      </trkpt>
      <trkpt lat="36.852329" lon="-5.66714">
        <ele>154.0</ele>
        <time>2022-09-26T13:17:03.003+02:00[Europe/Madrid]</time>
      </trkpt>
      <trkpt lat="36.852258" lon="-5.666901">
        <ele>154.0</ele>
        <time>2022-09-26T13:17:04.003+02:00[Europe/Madrid]</time>
      </trkpt>
      <trkpt lat="36.85219" lon="-5.666664">
        <ele>154.0</ele>
        <time>2022-09-26T13:17:05.003+02:00[Europe/Madrid]</time>
      </trkpt>
      <trkpt lat="36.852124" lon="-5.666425">
        <ele>154.0</ele>
        <time>2022-09-26T13:17:06.003+02:00[Europe/Madrid]</time>
      </trkpt>
      <trkpt lat="36.852066" lon="-5.666181">
        <ele>154.0</ele>
        <time>2022-09-26T13:17:07.003+02:00[Europe/Madrid]</time>
      </trkpt>
      <trkpt lat="36.85202" lon="-5.665935">
        <ele>154.0</ele>
        <time>2022-09-26T13:17:08.003+02:00[Europe/Madrid]</time>
      </trkpt>
      <trkpt lat="36.851985" lon="-5.665674">
        <ele>154.0</ele>
        <time>2022-09-26T13:17:09.003+02:00[Europe/Madrid]</time>
      </trkpt>
      <trkpt lat="36.851964" lon="-5.665409">
        <ele>154.0</ele>
        <time>2022-09-26T13:17:10.003+02:00[Europe/Madrid]</time>
      </trkpt>
      <trkpt lat="36.851958" lon="-5.66514">
        <ele>155.0</ele>
        <time>2022-09-26T13:17:11.003+02:00[Europe/Madrid]</time>
      </trkpt>
      <trkpt lat="36.851968" lon="-5.664867">
        <ele>155.0</ele>
        <time>2022-09-26T13:17:12.003+02:00[Europe/Madrid]</time>
      </trkpt>
      <trkpt lat="36.851996" lon="-5.664588">
        <ele>155.0</ele>
        <time>2022-09-26T13:17:13.003+02:00[Europe/Madrid]</time>
      </trkpt>
      <trkpt lat="36.852039" lon="-5.664316">
        <ele>155.0</ele>
        <time>2022-09-26T13:17:14.003+02:00[Europe/Madrid]</time>
      </trkpt>
      <trkpt lat="36.852098" lon="-5.66405">
        <ele>155.0</ele>
        <time>2022-09-26T13:17:15.003+02:00[Europe/Madrid]</time>
      </trkpt>
      <trkpt lat="36.852167" lon="-5.663792">
        <ele>154.0</ele>
        <time>2022-09-26T13:17:16.003+02:00[Europe/Madrid]</time>
      </trkpt>
      <trkpt lat="36.852252" lon="-5.66354">
        <ele>154.0</ele>
        <time>2022-09-26T13:17:17.003+02:00[Europe/Madrid]</time>
      </trkpt>
      <trkpt lat="36.85235" lon="-5.663307">
        <ele>154.0</ele>
        <time>2022-09-26T13:17:18.003+02:00[Europe/Madrid]</time>
      </trkpt>
      <trkpt lat="36.852467" lon="-5.663076">
        <ele>154.0</ele>
        <time>2022-09-26T13:17:19.003+02:00[Europe/Madrid]</time>
      </trkpt>
      <trkpt lat="36.852598" lon="-5.662837">
        <ele>154.0</ele>
        <time>2022-09-26T13:17:20.003+02:00[Europe/Madrid]</time>
      </trkpt>
      <trkpt lat="36.852745" lon="-5.662587">
        <ele>154.0</ele>
        <time>2022-09-26T13:17:21.003+02:00[Europe/Madrid]</time>
      </trkpt>
      <trkpt lat="36.852898" lon="-5.662349">
        <ele>153.0</ele>
        <time>2022-09-26T13:17:22.003+02:00[Europe/Madrid]</time>
      </trkpt>
      <trkpt lat="36.853057" lon="-5.662118">
        <ele>153.0</ele>
        <time>2022-09-26T13:17:23.003+02:00[Europe/Madrid]</time>
      </trkpt>
      <trkpt lat="36.853209" lon="-5.661898">
        <ele>154.0</ele>
        <time>2022-09-26T13:17:24.003+02:00[Europe/Madrid]</time>
      </trkpt>
      <trkpt lat="36.85335" lon="-5.661684">
        <ele>155.0</ele>
        <time>2022-09-26T13:17:25.003+02:00[Europe/Madrid]</time>
      </trkpt>
      <trkpt lat="36.853485" lon="-5.661467">
        <ele>156.0</ele>
        <time>2022-09-26T13:17:26.003+02:00[Europe/Madrid]</time>
      </trkpt>
      <trkpt lat="36.853615" lon="-5.661246">
        <ele>156.0</ele>
        <time>2022-09-26T13:17:27.003+02:00[Europe/Madrid]</time>
      </trkpt>
      <trkpt lat="36.85374" lon="-5.661021">
        <ele>157.0</ele>
        <time>2022-09-26T13:17:28.003+02:00[Europe/Madrid]</time>
      </trkpt>
      <trkpt lat="36.853859" lon="-5.660789">
        <ele>157.0</ele>
        <time>2022-09-26T13:17:29.003+02:00[Europe/Madrid]</time>
      </trkpt>
      <trkpt lat="36.85397" lon="-5.660548">
        <ele>158.0</ele>
        <time>2022-09-26T13:17:30.003+02:00[Europe/Madrid]</time>
      </trkpt>
      <trkpt lat="36.85407" lon="-5.660295">
        <ele>158.0</ele>
        <time>2022-09-26T13:17:31.003+02:00[Europe/Madrid]</time>
      </trkpt>
      <trkpt lat="36.854163" lon="-5.660033">
        <ele>159.0</ele>
        <time>2022-09-26T13:17:32.003+02:00[Europe/Madrid]</time>
      </trkpt>
      <trkpt lat="36.854247" lon="-5.659763">
        <ele>159.0</ele>
        <time>2022-09-26T13:17:33.003+02:00[Europe/Madrid]</time>
      </trkpt>
      <trkpt lat="36.854321" lon="-5.6595">
        <ele>160.0</ele>
        <time>2022-09-26T13:17:34.003+02:00[Europe/Madrid]</time>
      </trkpt>
      <trkpt lat="36.85438" lon="-5.659239">
        <ele>160.0</ele>
        <time>2022-09-26T13:17:35.003+02:00[Europe/Madrid]</time>
      </trkpt>
      <trkpt lat="36.854429" lon="-5.658976">
        <ele>160.0</ele>
        <time>2022-09-26T13:17:36.003+02:00[Europe/Madrid]</time>
      </trkpt>
      <trkpt lat="36.854465" lon="-5.658715">
        <ele>160.0</ele>
        <time>2022-09-26T13:17:37.003+02:00[Europe/Madrid]</time>
      </trkpt>
      <trkpt lat="36.854493" lon="-5.658456">
        <ele>160.0</ele>
        <time>2022-09-26T13:17:38.003+02:00[Europe/Madrid]</time>
      </trkpt>
      <trkpt lat="36.854512" lon="-5.658194">
        <ele>160.0</ele>
        <time>2022-09-26T13:17:39.003+02:00[Europe/Madrid]</time>
      </trkpt>
      <trkpt lat="36.854519" lon="-5.657929">
        <ele>159.0</ele>
        <time>2022-09-26T13:17:40.003+02:00[Europe/Madrid]</time>
      </trkpt>
      <trkpt lat="36.854515" lon="-5.65767">
        <ele>159.0</ele>
        <time>2022-09-26T13:17:41.003+02:00[Europe/Madrid]</time>
      </trkpt>
      <trkpt lat="36.854504" lon="-5.657416">
        <ele>160.0</ele>
        <time>2022-09-26T13:17:42.003+02:00[Europe/Madrid]</time>
      </trkpt>
      <trkpt lat="36.854483" lon="-5.657157">
        <ele>160.0</ele>
        <time>2022-09-26T13:17:43.003+02:00[Europe/Madrid]</time>
      </trkpt>
      <trkpt lat="36.854451" lon="-5.656898">
        <ele>160.0</ele>
        <time>2022-09-26T13:17:44.003+02:00[Europe/Madrid]</time>
      </trkpt>
      <trkpt lat="36.854409" lon="-5.656634">
        <ele>160.0</ele>
        <time>2022-09-26T13:17:45.003+02:00[Europe/Madrid]</time>
      </trkpt>
      <trkpt lat="36.854353" lon="-5.656366">
        <ele>161.0</ele>
        <time>2022-09-26T13:17:46.003+02:00[Europe/Madrid]</time>
      </trkpt>
      <trkpt lat="36.854288" lon="-5.6561">
        <ele>161.0</ele>
        <time>2022-09-26T13:17:47.003+02:00[Europe/Madrid]</time>
      </trkpt>
      <trkpt lat="36.854216" lon="-5.655827">
        <ele>160.0</ele>
        <time>2022-09-26T13:17:48.003+02:00[Europe/Madrid]</time>
      </trkpt>
      <trkpt lat="36.854141" lon="-5.655556">
        <ele>161.0</ele>
        <time>2022-09-26T13:17:49.003+02:00[Europe/Madrid]</time>
      </trkpt>
      <trkpt lat="36.854057" lon="-5.655284">
        <ele>161.0</ele>
        <time>2022-09-26T13:17:50.003+02:00[Europe/Madrid]</time>
      </trkpt>
      <trkpt lat="36.853973" lon="-5.655008">
        <ele>161.0</ele>
        <time>2022-09-26T13:17:51.003+02:00[Europe/Madrid]</time>
      </trkpt>
      <trkpt lat="36.853891" lon="-5.654732">
        <ele>161.0</ele>
        <time>2022-09-26T13:17:52.003+02:00[Europe/Madrid]</time>
      </trkpt>
      <trkpt lat="36.853811" lon="-5.654459">
        <ele>161.0</ele>
        <time>2022-09-26T13:17:53.003+02:00[Europe/Madrid]</time>
      </trkpt>
      <trkpt lat="36.853734" lon="-5.654185">
        <ele>161.0</ele>
        <time>2022-09-26T13:17:54.003+02:00[Europe/Madrid]</time>
      </trkpt>
      <trkpt lat="36.853657" lon="-5.653917">
        <ele>161.0</ele>
        <time>2022-09-26T13:17:55.003+02:00[Europe/Madrid]</time>
      </trkpt>
      <trkpt lat="36.853586" lon="-5.653647">
        <ele>161.0</ele>
        <time>2022-09-26T13:17:56.003+02:00[Europe/Madrid]</time>
      </trkpt>
      <trkpt lat="36.853516" lon="-5.653375">
        <ele>161.0</ele>
        <time>2022-09-26T13:17:57.003+02:00[Europe/Madrid]</time>
      </trkpt>
      <trkpt lat="36.853456" lon="-5.6531">
        <ele>162.0</ele>
        <time>2022-09-26T13:17:58.003+02:00[Europe/Madrid]</time>
      </trkpt>
      <trkpt lat="36.8534" lon="-5.652824">
        <ele>162.0</ele>
        <time>2022-09-26T13:17:59.003+02:00[Europe/Madrid]</time>
      </trkpt>
      <trkpt lat="36.853343" lon="-5.652547">
        <ele>163.0</ele>
        <time>2022-09-26T13:18:00.003+02:00[Europe/Madrid]</time>
      </trkpt>
      <trkpt lat="36.853289" lon="-5.652273">
        <ele>163.0</ele>
        <time>2022-09-26T13:18:01.003+02:00[Europe/Madrid]</time>
      </trkpt>
      <trkpt lat="36.85324" lon="-5.651996">
        <ele>164.0</ele>
        <time>2022-09-26T13:18:02.003+02:00[Europe/Madrid]</time>
      </trkpt>
      <trkpt lat="36.8532" lon="-5.651717">
        <ele>164.0</ele>
        <time>2022-09-26T13:18:03.003+02:00[Europe/Madrid]</time>
      </trkpt>
      <trkpt lat="36.85316" lon="-5.65144">
        <ele>165.0</ele>
        <time>2022-09-26T13:18:04.003+02:00[Europe/Madrid]</time>
      </trkpt>
      <trkpt lat="36.853125" lon="-5.651167">
        <ele>165.0</ele>
        <time>2022-09-26T13:18:05.003+02:00[Europe/Madrid]</time>
      </trkpt>
      <trkpt lat="36.853095" lon="-5.650889">
        <ele>166.0</ele>
        <time>2022-09-26T13:18:06.003+02:00[Europe/Madrid]</time>
      </trkpt>
      <trkpt lat="36.853063" lon="-5.650605">
        <ele>167.0</ele>
        <time>2022-09-26T13:18:07.003+02:00[Europe/Madrid]</time>
      </trkpt>
      <trkpt lat="36.853036" lon="-5.650328">
        <ele>168.0</ele>
        <time>2022-09-26T13:18:08.003+02:00[Europe/Madrid]</time>
      </trkpt>
      <trkpt lat="36.853013" lon="-5.650054">
        <ele>168.0</ele>
        <time>2022-09-26T13:18:09.003+02:00[Europe/Madrid]</time>
      </trkpt>
      <trkpt lat="36.852997" lon="-5.649782">
        <ele>169.0</ele>
        <time>2022-09-26T13:18:10.003+02:00[Europe/Madrid]</time>
      </trkpt>
      <trkpt lat="36.852986" lon="-5.649514">
        <ele>169.0</ele>
        <time>2022-09-26T13:18:11.003+02:00[Europe/Madrid]</time>
      </trkpt>
      <trkpt lat="36.852979" lon="-5.649248">
        <ele>170.0</ele>
        <time>2022-09-26T13:18:12.003+02:00[Europe/Madrid]</time>
      </trkpt>
      <trkpt lat="36.852974" lon="-5.648983">
        <ele>170.0</ele>
        <time>2022-09-26T13:18:13.003+02:00[Europe/Madrid]</time>
      </trkpt>
      <trkpt lat="36.852972" lon="-5.648721">
        <ele>171.0</ele>
        <time>2022-09-26T13:18:14.003+02:00[Europe/Madrid]</time>
      </trkpt>
      <trkpt lat="36.852974" lon="-5.648459">
        <ele>171.0</ele>
        <time>2022-09-26T13:18:15.003+02:00[Europe/Madrid]</time>
      </trkpt>
      <trkpt lat="36.852977" lon="-5.648195">
        <ele>171.0</ele>
        <time>2022-09-26T13:18:16.003+02:00[Europe/Madrid]</time>
      </trkpt>
      <trkpt lat="36.852984" lon="-5.647929">
        <ele>171.0</ele>
        <time>2022-09-26T13:18:17.003+02:00[Europe/Madrid]</time>
      </trkpt>
      <trkpt lat="36.852995" lon="-5.647655">
        <ele>171.0</ele>
        <time>2022-09-26T13:18:18.003+02:00[Europe/Madrid]</time>
      </trkpt>
      <trkpt lat="36.853008" lon="-5.647375">
        <ele>171.0</ele>
        <time>2022-09-26T13:18:19.003+02:00[Europe/Madrid]</time>
      </trkpt>
      <trkpt lat="36.853025" lon="-5.647096">
        <ele>172.0</ele>
        <time>2022-09-26T13:18:20.003+02:00[Europe/Madrid]</time>
      </trkpt>
      <trkpt lat="36.853046" lon="-5.646814">
        <ele>172.0</ele>
        <time>2022-09-26T13:18:21.003+02:00[Europe/Madrid]</time>
      </trkpt>
      <trkpt lat="36.85307" lon="-5.646547">
        <ele>171.0</ele>
        <time>2022-09-26T13:18:22.003+02:00[Europe/Madrid]</time>
      </trkpt>
      <trkpt lat="36.853097" lon="-5.646282">
        <ele>171.0</ele>
        <time>2022-09-26T13:18:23.003+02:00[Europe/Madrid]</time>
      </trkpt>
      <trkpt lat="36.853123" lon="-5.646018">
        <ele>171.0</ele>
        <time>2022-09-26T13:18:24.003+02:00[Europe/Madrid]</time>
      </trkpt>
      <trkpt lat="36.853149" lon="-5.645756">
        <ele>170.0</ele>
        <time>2022-09-26T13:18:25.003+02:00[Europe/Madrid]</time>
      </trkpt>
      <trkpt lat="36.853174" lon="-5.645498">
        <ele>170.0</ele>
        <time>2022-09-26T13:18:26.003+02:00[Europe/Madrid]</time>
      </trkpt>
      <trkpt lat="36.853198" lon="-5.645241">
        <ele>170.0</ele>
        <time>2022-09-26T13:18:27.003+02:00[Europe/Madrid]</time>
      </trkpt>
      <trkpt lat="36.853215" lon="-5.644984">
        <ele>170.0</ele>
        <time>2022-09-26T13:18:28.003+02:00[Europe/Madrid]</time>
      </trkpt>
      <trkpt lat="36.853236" lon="-5.644716">
        <ele>170.0</ele>
        <time>2022-09-26T13:18:29.003+02:00[Europe/Madrid]</time>
      </trkpt>
      <trkpt lat="36.853256" lon="-5.644432">
        <ele>170.0</ele>
        <time>2022-09-26T13:18:30.003+02:00[Europe/Madrid]</time>
      </trkpt>
      <trkpt lat="36.85327" lon="-5.644145">
        <ele>170.0</ele>
        <time>2022-09-26T13:18:31.003+02:00[Europe/Madrid]</time>
      </trkpt>
      <trkpt lat="36.853274" lon="-5.643869">
        <ele>170.0</ele>
        <time>2022-09-26T13:18:32.003+02:00[Europe/Madrid]</time>
      </trkpt>
      <trkpt lat="36.853273" lon="-5.64359">
        <ele>170.0</ele>
        <time>2022-09-26T13:18:33.003+02:00[Europe/Madrid]</time>
      </trkpt>
      <trkpt lat="36.853262" lon="-5.643317">
        <ele>170.0</ele>
        <time>2022-09-26T13:18:34.003+02:00[Europe/Madrid]</time>
      </trkpt>
      <trkpt lat="36.85325" lon="-5.643051">
        <ele>170.0</ele>
        <time>2022-09-26T13:18:35.003+02:00[Europe/Madrid]</time>
      </trkpt>
      <trkpt lat="36.853238" lon="-5.642796">
        <ele>170.0</ele>
        <time>2022-09-26T13:18:36.003+02:00[Europe/Madrid]</time>
      </trkpt>
      <trkpt lat="36.853224" lon="-5.642545">
        <ele>171.0</ele>
        <time>2022-09-26T13:18:37.003+02:00[Europe/Madrid]</time>
      </trkpt>
      <trkpt lat="36.853204" lon="-5.642296">
        <ele>171.0</ele>
        <time>2022-09-26T13:18:38.003+02:00[Europe/Madrid]</time>
      </trkpt>
      <trkpt lat="36.853178" lon="-5.642048">
        <ele>171.0</ele>
        <time>2022-09-26T13:18:39.003+02:00[Europe/Madrid]</time>
      </trkpt>
      <trkpt lat="36.853143" lon="-5.641794">
        <ele>171.0</ele>
        <time>2022-09-26T13:18:40.003+02:00[Europe/Madrid]</time>
      </trkpt>
      <trkpt lat="36.853103" lon="-5.641527">
        <ele>171.0</ele>
        <time>2022-09-26T13:18:41.003+02:00[Europe/Madrid]</time>
      </trkpt>
      <trkpt lat="36.853056" lon="-5.641247">
        <ele>171.0</ele>
        <time>2022-09-26T13:18:42.003+02:00[Europe/Madrid]</time>
      </trkpt>
      <trkpt lat="36.853002" lon="-5.640966">
        <ele>171.0</ele>
        <time>2022-09-26T13:18:43.003+02:00[Europe/Madrid]</time>
      </trkpt>
      <trkpt lat="36.852944" lon="-5.640684">
        <ele>172.0</ele>
        <time>2022-09-26T13:18:44.003+02:00[Europe/Madrid]</time>
      </trkpt>
      <trkpt lat="36.85288" lon="-5.64041">
        <ele>172.0</ele>
        <time>2022-09-26T13:18:45.003+02:00[Europe/Madrid]</time>
      </trkpt>
      <trkpt lat="36.852812" lon="-5.640146">
        <ele>172.0</ele>
        <time>2022-09-26T13:18:46.003+02:00[Europe/Madrid]</time>
      </trkpt>
      <trkpt lat="36.852745" lon="-5.6399">
        <ele>172.0</ele>
        <time>2022-09-26T13:18:47.003+02:00[Europe/Madrid]</time>
      </trkpt>
      <trkpt lat="36.852678" lon="-5.639668">
        <ele>172.0</ele>
        <time>2022-09-26T13:18:48.003+02:00[Europe/Madrid]</time>
      </trkpt>
      <trkpt lat="36.852613" lon="-5.63944">
        <ele>173.0</ele>
        <time>2022-09-26T13:18:49.003+02:00[Europe/Madrid]</time>
      </trkpt>
      <trkpt lat="36.852549" lon="-5.639217">
        <ele>173.0</ele>
        <time>2022-09-26T13:18:50.003+02:00[Europe/Madrid]</time>
      </trkpt>
      <trkpt lat="36.852486" lon="-5.638998">
        <ele>173.0</ele>
        <time>2022-09-26T13:18:51.003+02:00[Europe/Madrid]</time>
      </trkpt>
      <trkpt lat="36.852422" lon="-5.638782">
        <ele>174.0</ele>
        <time>2022-09-26T13:18:52.003+02:00[Europe/Madrid]</time>
      </trkpt>
      <trkpt lat="36.852363" lon="-5.638567">
        <ele>174.0</ele>
        <time>2022-09-26T13:18:53.003+02:00[Europe/Madrid]</time>
      </trkpt>
      <trkpt lat="36.852311" lon="-5.638346">
        <ele>175.0</ele>
        <time>2022-09-26T13:18:54.003+02:00[Europe/Madrid]</time>
      </trkpt>
      <trkpt lat="36.852263" lon="-5.638125">
        <ele>175.0</ele>
        <time>2022-09-26T13:18:55.003+02:00[Europe/Madrid]</time>
      </trkpt>
      <trkpt lat="36.85222" lon="-5.637903">
        <ele>176.0</ele>
        <time>2022-09-26T13:18:56.003+02:00[Europe/Madrid]</time>
      </trkpt>
      <trkpt lat="36.852181" lon="-5.637678">
        <ele>176.0</ele>
        <time>2022-09-26T13:18:57.003+02:00[Europe/Madrid]</time>
      </trkpt>
      <trkpt lat="36.852147" lon="-5.637453">
        <ele>177.0</ele>
        <time>2022-09-26T13:18:58.003+02:00[Europe/Madrid]</time>
      </trkpt>
      <trkpt lat="36.852124" lon="-5.637235">
        <ele>177.0</ele>
        <time>2022-09-26T13:18:59.003+02:00[Europe/Madrid]</time>
      </trkpt>
      <trkpt lat="36.852105" lon="-5.637015">
        <ele>177.0</ele>
        <time>2022-09-26T13:19:00.003+02:00[Europe/Madrid]</time>
      </trkpt>
      <trkpt lat="36.852087" lon="-5.636805">
        <ele>177.0</ele>
        <time>2022-09-26T13:19:01.003+02:00[Europe/Madrid]</time>
      </trkpt>
      <trkpt lat="36.852075" lon="-5.636595">
        <ele>177.0</ele>
        <time>2022-09-26T13:19:02.003+02:00[Europe/Madrid]</time>
      </trkpt>
      <trkpt lat="36.852068" lon="-5.636388">
        <ele>178.0</ele>
        <time>2022-09-26T13:19:03.003+02:00[Europe/Madrid]</time>
      </trkpt>
      <trkpt lat="36.852067" lon="-5.636193">
        <ele>178.0</ele>
        <time>2022-09-26T13:19:04.003+02:00[Europe/Madrid]</time>
      </trkpt>
      <trkpt lat="36.852068" lon="-5.635998">
        <ele>178.0</ele>
        <time>2022-09-26T13:19:05.003+02:00[Europe/Madrid]</time>
      </trkpt>
      <trkpt lat="36.852072" lon="-5.635803">
        <ele>178.0</ele>
        <time>2022-09-26T13:19:06.003+02:00[Europe/Madrid]</time>
      </trkpt>
      <trkpt lat="36.852081" lon="-5.635603">
        <ele>178.0</ele>
        <time>2022-09-26T13:19:07.003+02:00[Europe/Madrid]</time>
      </trkpt>
      <trkpt lat="36.852096" lon="-5.6354">
        <ele>178.0</ele>
        <time>2022-09-26T13:19:08.003+02:00[Europe/Madrid]</time>
      </trkpt>
      <trkpt lat="36.852114" lon="-5.635189">
        <ele>178.0</ele>
        <time>2022-09-26T13:19:09.003+02:00[Europe/Madrid]</time>
      </trkpt>
      <trkpt lat="36.852139" lon="-5.634972">
        <ele>178.0</ele>
        <time>2022-09-26T13:19:10.003+02:00[Europe/Madrid]</time>
      </trkpt>
      <trkpt lat="36.852166" lon="-5.634751">
        <ele>177.0</ele>
        <time>2022-09-26T13:19:11.003+02:00[Europe/Madrid]</time>
      </trkpt>
      <trkpt lat="36.852201" lon="-5.634527">
        <ele>177.0</ele>
        <time>2022-09-26T13:19:12.003+02:00[Europe/Madrid]</time>
      </trkpt>
      <trkpt lat="36.852247" lon="-5.634298">
        <ele>176.0</ele>
        <time>2022-09-26T13:19:13.003+02:00[Europe/Madrid]</time>
      </trkpt>
      <trkpt lat="36.852298" lon="-5.634067">
        <ele>175.0</ele>
        <time>2022-09-26T13:19:14.003+02:00[Europe/Madrid]</time>
      </trkpt>
      <trkpt lat="36.852355" lon="-5.633833">
        <ele>175.0</ele>
        <time>2022-09-26T13:19:15.003+02:00[Europe/Madrid]</time>
      </trkpt>
      <trkpt lat="36.852423" lon="-5.633597">
        <ele>174.0</ele>
        <time>2022-09-26T13:19:16.003+02:00[Europe/Madrid]</time>
      </trkpt>
      <trkpt lat="36.852499" lon="-5.633365">
        <ele>173.0</ele>
        <time>2022-09-26T13:19:17.003+02:00[Europe/Madrid]</time>
      </trkpt>
      <trkpt lat="36.852583" lon="-5.633134">
        <ele>173.0</ele>
        <time>2022-09-26T13:19:18.003+02:00[Europe/Madrid]</time>
      </trkpt>
      <trkpt lat="36.852669" lon="-5.632898">
        <ele>173.0</ele>
        <time>2022-09-26T13:19:19.003+02:00[Europe/Madrid]</time>
      </trkpt>
      <trkpt lat="36.852766" lon="-5.63266">
        <ele>173.0</ele>
        <time>2022-09-26T13:19:20.003+02:00[Europe/Madrid]</time>
      </trkpt>
      <trkpt lat="36.852864" lon="-5.632427">
        <ele>173.0</ele>
        <time>2022-09-26T13:19:21.003+02:00[Europe/Madrid]</time>
      </trkpt>
      <trkpt lat="36.85298" lon="-5.632195">
        <ele>173.0</ele>
        <time>2022-09-26T13:19:22.003+02:00[Europe/Madrid]</time>
      </trkpt>
      <trkpt lat="36.853101" lon="-5.631968">
        <ele>174.0</ele>
        <time>2022-09-26T13:19:23.003+02:00[Europe/Madrid]</time>
      </trkpt>
      <trkpt lat="36.853227" lon="-5.631748">
        <ele>173.0</ele>
        <time>2022-09-26T13:19:24.003+02:00[Europe/Madrid]</time>
      </trkpt>
      <trkpt lat="36.853356" lon="-5.631542">
        <ele>174.0</ele>
        <time>2022-09-26T13:19:25.003+02:00[Europe/Madrid]</time>
      </trkpt>
      <trkpt lat="36.853484" lon="-5.631345">
        <ele>174.0</ele>
        <time>2022-09-26T13:19:26.003+02:00[Europe/Madrid]</time>
      </trkpt>
      <trkpt lat="36.853617" lon="-5.63116">
        <ele>173.0</ele>
        <time>2022-09-26T13:19:27.003+02:00[Europe/Madrid]</time>
      </trkpt>
      <trkpt lat="36.853753" lon="-5.630982">
        <ele>173.0</ele>
        <time>2022-09-26T13:19:28.003+02:00[Europe/Madrid]</time>
      </trkpt>
      <trkpt lat="36.853894" lon="-5.630813">
        <ele>173.0</ele>
        <time>2022-09-26T13:19:29.003+02:00[Europe/Madrid]</time>
      </trkpt>
      <trkpt lat="36.854028" lon="-5.630653">
        <ele>173.0</ele>
        <time>2022-09-26T13:19:30.003+02:00[Europe/Madrid]</time>
      </trkpt>
      <trkpt lat="36.854163" lon="-5.630502">
        <ele>173.0</ele>
        <time>2022-09-26T13:19:31.003+02:00[Europe/Madrid]</time>
      </trkpt>
      <trkpt lat="36.854302" lon="-5.630354">
        <ele>173.0</ele>
        <time>2022-09-26T13:19:32.003+02:00[Europe/Madrid]</time>
      </trkpt>
      <trkpt lat="36.854444" lon="-5.630215">
        <ele>172.0</ele>
        <time>2022-09-26T13:19:33.003+02:00[Europe/Madrid]</time>
      </trkpt>
      <trkpt lat="36.854589" lon="-5.630083">
        <ele>173.0</ele>
        <time>2022-09-26T13:19:34.003+02:00[Europe/Madrid]</time>
      </trkpt>
      <trkpt lat="36.854739" lon="-5.62996">
        <ele>172.0</ele>
        <time>2022-09-26T13:19:35.003+02:00[Europe/Madrid]</time>
      </trkpt>
      <trkpt lat="36.854891" lon="-5.629841">
        <ele>172.0</ele>
        <time>2022-09-26T13:19:36.003+02:00[Europe/Madrid]</time>
      </trkpt>
      <trkpt lat="36.855042" lon="-5.629726">
        <ele>172.0</ele>
        <time>2022-09-26T13:19:37.003+02:00[Europe/Madrid]</time>
      </trkpt>
      <trkpt lat="36.855191" lon="-5.629607">
        <ele>171.0</ele>
        <time>2022-09-26T13:19:38.003+02:00[Europe/Madrid]</time>
      </trkpt>
      <trkpt lat="36.855335" lon="-5.629491">
        <ele>171.0</ele>
        <time>2022-09-26T13:19:39.003+02:00[Europe/Madrid]</time>
      </trkpt>
      <trkpt lat="36.855479" lon="-5.62938">
        <ele>171.0</ele>
        <time>2022-09-26T13:19:40.003+02:00[Europe/Madrid]</time>
      </trkpt>
      <trkpt lat="36.855621" lon="-5.629269">
        <ele>171.0</ele>
        <time>2022-09-26T13:19:41.003+02:00[Europe/Madrid]</time>
      </trkpt>
      <trkpt lat="36.855765" lon="-5.629154">
        <ele>171.0</ele>
        <time>2022-09-26T13:19:42.003+02:00[Europe/Madrid]</time>
      </trkpt>
      <trkpt lat="36.85591" lon="-5.629035">
        <ele>171.0</ele>
        <time>2022-09-26T13:19:43.003+02:00[Europe/Madrid]</time>
      </trkpt>
      <trkpt lat="36.856055" lon="-5.628905">
        <ele>171.0</ele>
        <time>2022-09-26T13:19:44.003+02:00[Europe/Madrid]</time>
      </trkpt>
      <trkpt lat="36.8562" lon="-5.628762">
        <ele>170.0</ele>
        <time>2022-09-26T13:19:45.003+02:00[Europe/Madrid]</time>
      </trkpt>
      <trkpt lat="36.856344" lon="-5.628612">
        <ele>170.0</ele>
        <time>2022-09-26T13:19:46.003+02:00[Europe/Madrid]</time>
      </trkpt>
      <trkpt lat="36.856486" lon="-5.628454">
        <ele>169.0</ele>
        <time>2022-09-26T13:19:47.003+02:00[Europe/Madrid]</time>
      </trkpt>
      <trkpt lat="36.856627" lon="-5.628288">
        <ele>169.0</ele>
        <time>2022-09-26T13:19:48.003+02:00[Europe/Madrid]</time>
      </trkpt>
      <trkpt lat="36.856764" lon="-5.628118">
        <ele>169.0</ele>
        <time>2022-09-26T13:19:49.003+02:00[Europe/Madrid]</time>
      </trkpt>
      <trkpt lat="36.856897" lon="-5.627949">
        <ele>169.0</ele>
        <time>2022-09-26T13:19:50.003+02:00[Europe/Madrid]</time>
      </trkpt>
      <trkpt lat="36.857017" lon="-5.62779">
        <ele>169.0</ele>
        <time>2022-09-26T13:19:51.003+02:00[Europe/Madrid]</time>
      </trkpt>
      <trkpt lat="36.857131" lon="-5.62763">
        <ele>169.0</ele>
        <time>2022-09-26T13:19:52.003+02:00[Europe/Madrid]</time>
      </trkpt>
      <trkpt lat="36.857236" lon="-5.627472">
        <ele>169.0</ele>
        <time>2022-09-26T13:19:53.003+02:00[Europe/Madrid]</time>
      </trkpt>
      <trkpt lat="36.857336" lon="-5.627319">
        <ele>170.0</ele>
        <time>2022-09-26T13:19:54.003+02:00[Europe/Madrid]</time>
      </trkpt>
      <trkpt lat="36.857432" lon="-5.627158">
        <ele>170.0</ele>
        <time>2022-09-26T13:19:55.003+02:00[Europe/Madrid]</time>
      </trkpt>
      <trkpt lat="36.857527" lon="-5.626989">
        <ele>170.0</ele>
        <time>2022-09-26T13:19:56.003+02:00[Europe/Madrid]</time>
      </trkpt>
      <trkpt lat="36.85762" lon="-5.626811">
        <ele>170.0</ele>
        <time>2022-09-26T13:19:57.003+02:00[Europe/Madrid]</time>
      </trkpt>
      <trkpt lat="36.857711" lon="-5.626623">
        <ele>171.0</ele>
        <time>2022-09-26T13:19:58.003+02:00[Europe/Madrid]</time>
      </trkpt>
      <trkpt lat="36.857804" lon="-5.626431">
        <ele>171.0</ele>
        <time>2022-09-26T13:19:59.003+02:00[Europe/Madrid]</time>
      </trkpt>
      <trkpt lat="36.857898" lon="-5.626229">
        <ele>171.0</ele>
        <time>2022-09-26T13:20:00.003+02:00[Europe/Madrid]</time>
      </trkpt>
      <trkpt lat="36.857994" lon="-5.626023">
        <ele>171.0</ele>
        <time>2022-09-26T13:20:01.003+02:00[Europe/Madrid]</time>
      </trkpt>
      <trkpt lat="36.858094" lon="-5.625806">
        <ele>171.0</ele>
        <time>2022-09-26T13:20:02.003+02:00[Europe/Madrid]</time>
      </trkpt>
      <trkpt lat="36.858195" lon="-5.625583">
        <ele>171.0</ele>
        <time>2022-09-26T13:20:03.003+02:00[Europe/Madrid]</time>
      </trkpt>
      <trkpt lat="36.858294" lon="-5.625365">
        <ele>171.0</ele>
        <time>2022-09-26T13:20:04.003+02:00[Europe/Madrid]</time>
      </trkpt>
      <trkpt lat="36.858388" lon="-5.625157">
        <ele>172.0</ele>
        <time>2022-09-26T13:20:05.003+02:00[Europe/Madrid]</time>
      </trkpt>
      <trkpt lat="36.858483" lon="-5.624953">
        <ele>172.0</ele>
        <time>2022-09-26T13:20:06.003+02:00[Europe/Madrid]</time>
      </trkpt>
      <trkpt lat="36.858576" lon="-5.624752">
        <ele>172.0</ele>
        <time>2022-09-26T13:20:07.003+02:00[Europe/Madrid]</time>
      </trkpt>
      <trkpt lat="36.858665" lon="-5.624562">
        <ele>173.0</ele>
        <time>2022-09-26T13:20:08.003+02:00[Europe/Madrid]</time>
      </trkpt>
      <trkpt lat="36.858755" lon="-5.624369">
        <ele>173.0</ele>
        <time>2022-09-26T13:20:09.003+02:00[Europe/Madrid]</time>
      </trkpt>
      <trkpt lat="36.858845" lon="-5.624174">
        <ele>173.0</ele>
        <time>2022-09-26T13:20:10.003+02:00[Europe/Madrid]</time>
      </trkpt>
      <trkpt lat="36.858936" lon="-5.623974">
        <ele>173.0</ele>
        <time>2022-09-26T13:20:11.003+02:00[Europe/Madrid]</time>
      </trkpt>
      <trkpt lat="36.859028" lon="-5.623773">
        <ele>174.0</ele>
        <time>2022-09-26T13:20:12.003+02:00[Europe/Madrid]</time>
      </trkpt>
      <trkpt lat="36.859121" lon="-5.62357">
        <ele>174.0</ele>
        <time>2022-09-26T13:20:13.003+02:00[Europe/Madrid]</time>
      </trkpt>
      <trkpt lat="36.859211" lon="-5.623375">
        <ele>174.0</ele>
        <time>2022-09-26T13:20:14.003+02:00[Europe/Madrid]</time>
      </trkpt>
      <trkpt lat="36.859296" lon="-5.623189">
        <ele>174.0</ele>
        <time>2022-09-26T13:20:15.003+02:00[Europe/Madrid]</time>
      </trkpt>
      <trkpt lat="36.859379" lon="-5.623007">
        <ele>175.0</ele>
        <time>2022-09-26T13:20:16.003+02:00[Europe/Madrid]</time>
      </trkpt>
      <trkpt lat="36.859457" lon="-5.62283">
        <ele>175.0</ele>
        <time>2022-09-26T13:20:17.003+02:00[Europe/Madrid]</time>
      </trkpt>
      <trkpt lat="36.859532" lon="-5.622658">
        <ele>175.0</ele>
        <time>2022-09-26T13:20:18.003+02:00[Europe/Madrid]</time>
      </trkpt>
      <trkpt lat="36.859608" lon="-5.622482">
        <ele>175.0</ele>
        <time>2022-09-26T13:20:19.003+02:00[Europe/Madrid]</time>
      </trkpt>
      <trkpt lat="36.859687" lon="-5.622303">
        <ele>176.0</ele>
        <time>2022-09-26T13:20:20.003+02:00[Europe/Madrid]</time>
      </trkpt>
      <trkpt lat="36.859769" lon="-5.622116">
        <ele>176.0</ele>
        <time>2022-09-26T13:20:21.003+02:00[Europe/Madrid]</time>
      </trkpt>
      <trkpt lat="36.859855" lon="-5.62192">
        <ele>176.0</ele>
        <time>2022-09-26T13:20:22.003+02:00[Europe/Madrid]</time>
      </trkpt>
      <trkpt lat="36.859938" lon="-5.621712">
        <ele>176.0</ele>
        <time>2022-09-26T13:20:23.003+02:00[Europe/Madrid]</time>
      </trkpt>
      <trkpt lat="36.860021" lon="-5.621495">
        <ele>177.0</ele>
        <time>2022-09-26T13:20:24.003+02:00[Europe/Madrid]</time>
      </trkpt>
      <trkpt lat="36.860104" lon="-5.621271">
        <ele>178.0</ele>
        <time>2022-09-26T13:20:25.003+02:00[Europe/Madrid]</time>
      </trkpt>
      <trkpt lat="36.860181" lon="-5.621047">
        <ele>179.0</ele>
        <time>2022-09-26T13:20:26.003+02:00[Europe/Madrid]</time>
      </trkpt>
      <trkpt lat="36.860256" lon="-5.620826">
        <ele>179.0</ele>
        <time>2022-09-26T13:20:27.003+02:00[Europe/Madrid]</time>
      </trkpt>
      <trkpt lat="36.860328" lon="-5.62061">
        <ele>180.0</ele>
        <time>2022-09-26T13:20:28.003+02:00[Europe/Madrid]</time>
      </trkpt>
      <trkpt lat="36.860394" lon="-5.620401">
        <ele>181.0</ele>
        <time>2022-09-26T13:20:29.003+02:00[Europe/Madrid]</time>
      </trkpt>
      <trkpt lat="36.860457" lon="-5.620192">
        <ele>182.0</ele>
        <time>2022-09-26T13:20:30.003+02:00[Europe/Madrid]</time>
      </trkpt>
      <trkpt lat="36.860514" lon="-5.619995">
        <ele>183.0</ele>
        <time>2022-09-26T13:20:31.003+02:00[Europe/Madrid]</time>
      </trkpt>
      <trkpt lat="36.860571" lon="-5.619798">
        <ele>183.0</ele>
        <time>2022-09-26T13:20:32.003+02:00[Europe/Madrid]</time>
      </trkpt>
      <trkpt lat="36.860629" lon="-5.619603">
        <ele>184.0</ele>
        <time>2022-09-26T13:20:33.003+02:00[Europe/Madrid]</time>
      </trkpt>
      <trkpt lat="36.860686" lon="-5.619405">
        <ele>184.0</ele>
        <time>2022-09-26T13:20:34.003+02:00[Europe/Madrid]</time>
      </trkpt>
      <trkpt lat="36.860744" lon="-5.619204">
        <ele>185.0</ele>
        <time>2022-09-26T13:20:35.003+02:00[Europe/Madrid]</time>
      </trkpt>
      <trkpt lat="36.860804" lon="-5.619002">
        <ele>185.0</ele>
        <time>2022-09-26T13:20:36.003+02:00[Europe/Madrid]</time>
      </trkpt>
      <trkpt lat="36.860863" lon="-5.618796">
        <ele>186.0</ele>
        <time>2022-09-26T13:20:37.003+02:00[Europe/Madrid]</time>
      </trkpt>
      <trkpt lat="36.860929" lon="-5.618587">
        <ele>188.0</ele>
        <time>2022-09-26T13:20:38.003+02:00[Europe/Madrid]</time>
      </trkpt>
      <trkpt lat="36.860995" lon="-5.618375">
        <ele>189.0</ele>
        <time>2022-09-26T13:20:39.003+02:00[Europe/Madrid]</time>
      </trkpt>
      <trkpt lat="36.861061" lon="-5.618165">
        <ele>190.0</ele>
        <time>2022-09-26T13:20:40.003+02:00[Europe/Madrid]</time>
      </trkpt>
      <trkpt lat="36.861127" lon="-5.617966">
        <ele>191.0</ele>
        <time>2022-09-26T13:20:41.003+02:00[Europe/Madrid]</time>
      </trkpt>
      <trkpt lat="36.861193" lon="-5.617776">
        <ele>191.0</ele>
        <time>2022-09-26T13:20:42.003+02:00[Europe/Madrid]</time>
      </trkpt>
      <trkpt lat="36.861258" lon="-5.617588">
        <ele>192.0</ele>
        <time>2022-09-26T13:20:43.003+02:00[Europe/Madrid]</time>
      </trkpt>
      <trkpt lat="36.861322" lon="-5.617409">
        <ele>193.0</ele>
        <time>2022-09-26T13:20:44.003+02:00[Europe/Madrid]</time>
      </trkpt>
      <trkpt lat="36.861386" lon="-5.617232">
        <ele>193.0</ele>
        <time>2022-09-26T13:20:45.003+02:00[Europe/Madrid]</time>
      </trkpt>
      <trkpt lat="36.861451" lon="-5.617054">
        <ele>193.0</ele>
        <time>2022-09-26T13:20:46.003+02:00[Europe/Madrid]</time>
      </trkpt>
      <trkpt lat="36.861517" lon="-5.616876">
        <ele>193.0</ele>
        <time>2022-09-26T13:20:47.003+02:00[Europe/Madrid]</time>
      </trkpt>
      <trkpt lat="36.861586" lon="-5.616699">
        <ele>193.0</ele>
        <time>2022-09-26T13:20:48.003+02:00[Europe/Madrid]</time>
      </trkpt>
      <trkpt lat="36.861658" lon="-5.616514">
        <ele>193.0</ele>
        <time>2022-09-26T13:20:49.003+02:00[Europe/Madrid]</time>
      </trkpt>
      <trkpt lat="36.861732" lon="-5.616323">
        <ele>192.0</ele>
        <time>2022-09-26T13:20:50.003+02:00[Europe/Madrid]</time>
      </trkpt>
      <trkpt lat="36.861808" lon="-5.616138">
        <ele>192.0</ele>
        <time>2022-09-26T13:20:51.003+02:00[Europe/Madrid]</time>
      </trkpt>
      <trkpt lat="36.861881" lon="-5.615963">
        <ele>192.0</ele>
        <time>2022-09-26T13:20:52.003+02:00[Europe/Madrid]</time>
      </trkpt>
      <trkpt lat="36.861944" lon="-5.615806">
        <ele>192.0</ele>
        <time>2022-09-26T13:20:53.003+02:00[Europe/Madrid]</time>
      </trkpt>
      <trkpt lat="36.862005" lon="-5.615649">
        <ele>192.0</ele>
        <time>2022-09-26T13:20:54.003+02:00[Europe/Madrid]</time>
      </trkpt>
      <trkpt lat="36.862066" lon="-5.615499">
        <ele>192.0</ele>
        <time>2022-09-26T13:20:55.003+02:00[Europe/Madrid]</time>
      </trkpt>
      <trkpt lat="36.862125" lon="-5.615352">
        <ele>192.0</ele>
        <time>2022-09-26T13:20:56.003+02:00[Europe/Madrid]</time>
      </trkpt>
      <trkpt lat="36.862181" lon="-5.615216">
        <ele>192.0</ele>
        <time>2022-09-26T13:20:57.003+02:00[Europe/Madrid]</time>
      </trkpt>
      <trkpt lat="36.862235" lon="-5.615081">
        <ele>191.0</ele>
        <time>2022-09-26T13:20:58.003+02:00[Europe/Madrid]</time>
      </trkpt>
      <trkpt lat="36.862289" lon="-5.614943">
        <ele>191.0</ele>
        <time>2022-09-26T13:20:59.003+02:00[Europe/Madrid]</time>
      </trkpt>
      <trkpt lat="36.862342" lon="-5.614802">
        <ele>191.0</ele>
        <time>2022-09-26T13:21:00.003+02:00[Europe/Madrid]</time>
      </trkpt>
      <trkpt lat="36.862393" lon="-5.614665">
        <ele>190.0</ele>
        <time>2022-09-26T13:21:01.003+02:00[Europe/Madrid]</time>
      </trkpt>
      <trkpt lat="36.862444" lon="-5.614522">
        <ele>190.0</ele>
        <time>2022-09-26T13:21:02.003+02:00[Europe/Madrid]</time>
      </trkpt>
      <trkpt lat="36.862494" lon="-5.61438">
        <ele>190.0</ele>
        <time>2022-09-26T13:21:03.003+02:00[Europe/Madrid]</time>
      </trkpt>
      <trkpt lat="36.862549" lon="-5.614223">
        <ele>190.0</ele>
        <time>2022-09-26T13:21:04.003+02:00[Europe/Madrid]</time>
      </trkpt>
      <trkpt lat="36.862608" lon="-5.614062">
        <ele>190.0</ele>
        <time>2022-09-26T13:21:05.003+02:00[Europe/Madrid]</time>
      </trkpt>
      <trkpt lat="36.862673" lon="-5.613883">
        <ele>190.0</ele>
        <time>2022-09-26T13:21:06.003+02:00[Europe/Madrid]</time>
      </trkpt>
      <trkpt lat="36.862742" lon="-5.613688">
        <ele>189.0</ele>
        <time>2022-09-26T13:21:07.003+02:00[Europe/Madrid]</time>
      </trkpt>
      <trkpt lat="36.862818" lon="-5.613478">
        <ele>190.0</ele>
        <time>2022-09-26T13:21:08.003+02:00[Europe/Madrid]</time>
      </trkpt>
      <trkpt lat="36.862903" lon="-5.61325">
        <ele>189.0</ele>
        <time>2022-09-26T13:21:09.003+02:00[Europe/Madrid]</time>
      </trkpt>
      <trkpt lat="36.862996" lon="-5.613018">
        <ele>189.0</ele>
        <time>2022-09-26T13:21:10.003+02:00[Europe/Madrid]</time>
      </trkpt>
      <trkpt lat="36.863087" lon="-5.612788">
        <ele>189.0</ele>
        <time>2022-09-26T13:21:11.003+02:00[Europe/Madrid]</time>
      </trkpt>
      <trkpt lat="36.863177" lon="-5.612561">
        <ele>189.0</ele>
        <time>2022-09-26T13:21:12.003+02:00[Europe/Madrid]</time>
      </trkpt>
      <trkpt lat="36.863265" lon="-5.612352">
        <ele>189.0</ele>
        <time>2022-09-26T13:21:13.003+02:00[Europe/Madrid]</time>
      </trkpt>
      <trkpt lat="36.863355" lon="-5.612145">
        <ele>190.0</ele>
        <time>2022-09-26T13:21:14.003+02:00[Europe/Madrid]</time>
      </trkpt>
      <trkpt lat="36.863453" lon="-5.611936">
        <ele>190.0</ele>
        <time>2022-09-26T13:21:15.003+02:00[Europe/Madrid]</time>
      </trkpt>
      <trkpt lat="36.863552" lon="-5.611722">
        <ele>190.0</ele>
        <time>2022-09-26T13:21:16.003+02:00[Europe/Madrid]</time>
      </trkpt>
      <trkpt lat="36.863652" lon="-5.611503">
        <ele>190.0</ele>
        <time>2022-09-26T13:21:17.003+02:00[Europe/Madrid]</time>
      </trkpt>
      <trkpt lat="36.863752" lon="-5.611275">
        <ele>190.0</ele>
        <time>2022-09-26T13:21:18.003+02:00[Europe/Madrid]</time>
      </trkpt>
      <trkpt lat="36.863851" lon="-5.611051">
        <ele>190.0</ele>
        <time>2022-09-26T13:21:19.003+02:00[Europe/Madrid]</time>
      </trkpt>
      <trkpt lat="36.863944" lon="-5.610821">
        <ele>191.0</ele>
        <time>2022-09-26T13:21:20.003+02:00[Europe/Madrid]</time>
      </trkpt>
      <trkpt lat="36.864031" lon="-5.610593">
        <ele>191.0</ele>
        <time>2022-09-26T13:21:21.003+02:00[Europe/Madrid]</time>
      </trkpt>
      <trkpt lat="36.864121" lon="-5.610365">
        <ele>191.0</ele>
        <time>2022-09-26T13:21:22.003+02:00[Europe/Madrid]</time>
      </trkpt>
      <trkpt lat="36.864211" lon="-5.610138">
        <ele>191.0</ele>
        <time>2022-09-26T13:21:23.003+02:00[Europe/Madrid]</time>
      </trkpt>
      <trkpt lat="36.864306" lon="-5.609906">
        <ele>191.0</ele>
        <time>2022-09-26T13:21:24.003+02:00[Europe/Madrid]</time>
      </trkpt>
      <trkpt lat="36.8644" lon="-5.609679">
        <ele>191.0</ele>
        <time>2022-09-26T13:21:25.003+02:00[Europe/Madrid]</time>
      </trkpt>
      <trkpt lat="36.864499" lon="-5.609446">
        <ele>191.0</ele>
        <time>2022-09-26T13:21:26.003+02:00[Europe/Madrid]</time>
      </trkpt>
      <trkpt lat="36.864599" lon="-5.609199">
        <ele>191.0</ele>
        <time>2022-09-26T13:21:27.003+02:00[Europe/Madrid]</time>
      </trkpt>
      <trkpt lat="36.864696" lon="-5.608947">
        <ele>191.0</ele>
        <time>2022-09-26T13:21:28.003+02:00[Europe/Madrid]</time>
      </trkpt>
      <trkpt lat="36.864798" lon="-5.608692">
        <ele>191.0</ele>
        <time>2022-09-26T13:21:29.003+02:00[Europe/Madrid]</time>
      </trkpt>
      <trkpt lat="36.864902" lon="-5.608431">
        <ele>191.0</ele>
        <time>2022-09-26T13:21:30.003+02:00[Europe/Madrid]</time>
      </trkpt>
      <trkpt lat="36.86501" lon="-5.608163">
        <ele>191.0</ele>
        <time>2022-09-26T13:21:31.003+02:00[Europe/Madrid]</time>
      </trkpt>
      <trkpt lat="36.865119" lon="-5.607891">
        <ele>190.0</ele>
        <time>2022-09-26T13:21:32.003+02:00[Europe/Madrid]</time>
      </trkpt>
      <trkpt lat="36.865231" lon="-5.607612">
        <ele>190.0</ele>
        <time>2022-09-26T13:21:33.003+02:00[Europe/Madrid]</time>
      </trkpt>
      <trkpt lat="36.865345" lon="-5.607336">
        <ele>190.0</ele>
        <time>2022-09-26T13:21:34.003+02:00[Europe/Madrid]</time>
      </trkpt>
      <trkpt lat="36.865455" lon="-5.607056">
        <ele>190.0</ele>
        <time>2022-09-26T13:21:35.003+02:00[Europe/Madrid]</time>
      </trkpt>
      <trkpt lat="36.865568" lon="-5.606774">
        <ele>191.0</ele>
        <time>2022-09-26T13:21:36.003+02:00[Europe/Madrid]</time>
      </trkpt>
      <trkpt lat="36.865681" lon="-5.606483">
        <ele>190.0</ele>
        <time>2022-09-26T13:21:37.003+02:00[Europe/Madrid]</time>
      </trkpt>
      <trkpt lat="36.865793" lon="-5.606198">
        <ele>191.0</ele>
        <time>2022-09-26T13:21:38.003+02:00[Europe/Madrid]</time>
      </trkpt>
      <trkpt lat="36.865905" lon="-5.605917">
        <ele>191.0</ele>
        <time>2022-09-26T13:21:39.003+02:00[Europe/Madrid]</time>
      </trkpt>
      <trkpt lat="36.866018" lon="-5.605637">
        <ele>192.0</ele>
        <time>2022-09-26T13:21:40.003+02:00[Europe/Madrid]</time>
      </trkpt>
      <trkpt lat="36.866133" lon="-5.605357">
        <ele>192.0</ele>
        <time>2022-09-26T13:21:41.003+02:00[Europe/Madrid]</time>
      </trkpt>
      <trkpt lat="36.866243" lon="-5.605074">
        <ele>193.0</ele>
        <time>2022-09-26T13:21:42.003+02:00[Europe/Madrid]</time>
      </trkpt>
      <trkpt lat="36.866356" lon="-5.604796">
        <ele>194.0</ele>
        <time>2022-09-26T13:21:43.003+02:00[Europe/Madrid]</time>
      </trkpt>
      <trkpt lat="36.866465" lon="-5.60452">
        <ele>195.0</ele>
        <time>2022-09-26T13:21:44.003+02:00[Europe/Madrid]</time>
      </trkpt>
      <trkpt lat="36.866576" lon="-5.604245">
        <ele>195.0</ele>
        <time>2022-09-26T13:21:45.003+02:00[Europe/Madrid]</time>
      </trkpt>
      <trkpt lat="36.866686" lon="-5.603969">
        <ele>196.0</ele>
        <time>2022-09-26T13:21:46.003+02:00[Europe/Madrid]</time>
      </trkpt>
      <trkpt lat="36.866796" lon="-5.603697">
        <ele>197.0</ele>
        <time>2022-09-26T13:21:47.003+02:00[Europe/Madrid]</time>
      </trkpt>
      <trkpt lat="36.866907" lon="-5.603423">
        <ele>197.0</ele>
        <time>2022-09-26T13:21:48.003+02:00[Europe/Madrid]</time>
      </trkpt>
      <trkpt lat="36.867015" lon="-5.603146">
        <ele>198.0</ele>
        <time>2022-09-26T13:21:49.003+02:00[Europe/Madrid]</time>
      </trkpt>
      <trkpt lat="36.867123" lon="-5.602877">
        <ele>199.0</ele>
        <time>2022-09-26T13:21:50.003+02:00[Europe/Madrid]</time>
      </trkpt>
      <trkpt lat="36.86723" lon="-5.602609">
        <ele>200.0</ele>
        <time>2022-09-26T13:21:51.003+02:00[Europe/Madrid]</time>
      </trkpt>
      <trkpt lat="36.867335" lon="-5.602348">
        <ele>201.0</ele>
        <time>2022-09-26T13:21:52.003+02:00[Europe/Madrid]</time>
      </trkpt>
      <trkpt lat="36.86744" lon="-5.602089">
        <ele>201.0</ele>
        <time>2022-09-26T13:21:53.003+02:00[Europe/Madrid]</time>
      </trkpt>
      <trkpt lat="36.867542" lon="-5.601831">
        <ele>202.0</ele>
        <time>2022-09-26T13:21:54.003+02:00[Europe/Madrid]</time>
      </trkpt>
      <trkpt lat="36.867644" lon="-5.601569">
        <ele>203.0</ele>
        <time>2022-09-26T13:21:55.003+02:00[Europe/Madrid]</time>
      </trkpt>
      <trkpt lat="36.867746" lon="-5.601307">
        <ele>203.0</ele>
        <time>2022-09-26T13:21:56.003+02:00[Europe/Madrid]</time>
      </trkpt>
      <trkpt lat="36.867851" lon="-5.601046">
        <ele>205.0</ele>
        <time>2022-09-26T13:21:57.003+02:00[Europe/Madrid]</time>
      </trkpt>
      <trkpt lat="36.867958" lon="-5.60079">
        <ele>205.0</ele>
        <time>2022-09-26T13:21:58.003+02:00[Europe/Madrid]</time>
      </trkpt>
      <trkpt lat="36.868063" lon="-5.600536">
        <ele>206.0</ele>
        <time>2022-09-26T13:21:59.003+02:00[Europe/Madrid]</time>
      </trkpt>
      <trkpt lat="36.86817" lon="-5.600289">
        <ele>207.0</ele>
        <time>2022-09-26T13:22:00.003+02:00[Europe/Madrid]</time>
      </trkpt>
      <trkpt lat="36.86828" lon="-5.600045">
        <ele>208.0</ele>
        <time>2022-09-26T13:22:01.003+02:00[Europe/Madrid]</time>
      </trkpt>
      <trkpt lat="36.868397" lon="-5.599799">
        <ele>208.0</ele>
        <time>2022-09-26T13:22:02.003+02:00[Europe/Madrid]</time>
      </trkpt>
      <trkpt lat="36.868517" lon="-5.59955">
        <ele>208.0</ele>
        <time>2022-09-26T13:22:03.003+02:00[Europe/Madrid]</time>
      </trkpt>
      <trkpt lat="36.868641" lon="-5.599305">
        <ele>208.0</ele>
        <time>2022-09-26T13:22:04.003+02:00[Europe/Madrid]</time>
      </trkpt>
      <trkpt lat="36.868767" lon="-5.599059">
        <ele>208.0</ele>
        <time>2022-09-26T13:22:05.003+02:00[Europe/Madrid]</time>
      </trkpt>
      <trkpt lat="36.868893" lon="-5.598815">
        <ele>208.0</ele>
        <time>2022-09-26T13:22:06.003+02:00[Europe/Madrid]</time>
      </trkpt>
      <trkpt lat="36.869023" lon="-5.598574">
        <ele>208.0</ele>
        <time>2022-09-26T13:22:07.003+02:00[Europe/Madrid]</time>
      </trkpt>
      <trkpt lat="36.869149" lon="-5.598335">
        <ele>207.0</ele>
        <time>2022-09-26T13:22:08.003+02:00[Europe/Madrid]</time>
      </trkpt>
      <trkpt lat="36.869276" lon="-5.598098">
        <ele>207.0</ele>
        <time>2022-09-26T13:22:09.003+02:00[Europe/Madrid]</time>
      </trkpt>
      <trkpt lat="36.869403" lon="-5.597859">
        <ele>207.0</ele>
        <time>2022-09-26T13:22:10.003+02:00[Europe/Madrid]</time>
      </trkpt>
      <trkpt lat="36.86953" lon="-5.597618">
        <ele>206.0</ele>
        <time>2022-09-26T13:22:11.003+02:00[Europe/Madrid]</time>
      </trkpt>
      <trkpt lat="36.869657" lon="-5.597378">
        <ele>206.0</ele>
        <time>2022-09-26T13:22:12.003+02:00[Europe/Madrid]</time>
      </trkpt>
      <trkpt lat="36.869782" lon="-5.597137">
        <ele>206.0</ele>
        <time>2022-09-26T13:22:13.003+02:00[Europe/Madrid]</time>
      </trkpt>
      <trkpt lat="36.869906" lon="-5.596897">
        <ele>206.0</ele>
        <time>2022-09-26T13:22:14.003+02:00[Europe/Madrid]</time>
      </trkpt>
      <trkpt lat="36.870033" lon="-5.596658">
        <ele>206.0</ele>
        <time>2022-09-26T13:22:15.003+02:00[Europe/Madrid]</time>
      </trkpt>
      <trkpt lat="36.87016" lon="-5.596419">
        <ele>205.0</ele>
        <time>2022-09-26T13:22:16.003+02:00[Europe/Madrid]</time>
      </trkpt>
      <trkpt lat="36.870286" lon="-5.596182">
        <ele>205.0</ele>
        <time>2022-09-26T13:22:17.003+02:00[Europe/Madrid]</time>
      </trkpt>
      <trkpt lat="36.870412" lon="-5.595948">
        <ele>205.0</ele>
        <time>2022-09-26T13:22:18.003+02:00[Europe/Madrid]</time>
      </trkpt>
      <trkpt lat="36.870539" lon="-5.595709">
        <ele>205.0</ele>
        <time>2022-09-26T13:22:19.003+02:00[Europe/Madrid]</time>
      </trkpt>
      <trkpt lat="36.870663" lon="-5.595473">
        <ele>205.0</ele>
        <time>2022-09-26T13:22:20.003+02:00[Europe/Madrid]</time>
      </trkpt>
      <trkpt lat="36.870785" lon="-5.595238">
        <ele>205.0</ele>
        <time>2022-09-26T13:22:21.003+02:00[Europe/Madrid]</time>
      </trkpt>
      <trkpt lat="36.87091" lon="-5.595005">
        <ele>205.0</ele>
        <time>2022-09-26T13:22:22.003+02:00[Europe/Madrid]</time>
      </trkpt>
      <trkpt lat="36.871036" lon="-5.594771">
        <ele>206.0</ele>
        <time>2022-09-26T13:22:23.003+02:00[Europe/Madrid]</time>
      </trkpt>
      <trkpt lat="36.871163" lon="-5.594537">
        <ele>206.0</ele>
        <time>2022-09-26T13:22:24.003+02:00[Europe/Madrid]</time>
      </trkpt>
      <trkpt lat="36.871287" lon="-5.594301">
        <ele>206.0</ele>
        <time>2022-09-26T13:22:25.003+02:00[Europe/Madrid]</time>
      </trkpt>
      <trkpt lat="36.871412" lon="-5.594063">
        <ele>206.0</ele>
        <time>2022-09-26T13:22:26.003+02:00[Europe/Madrid]</time>
      </trkpt>
      <trkpt lat="36.871537" lon="-5.593826">
        <ele>206.0</ele>
        <time>2022-09-26T13:22:27.003+02:00[Europe/Madrid]</time>
      </trkpt>
      <trkpt lat="36.87166" lon="-5.593586">
        <ele>206.0</ele>
        <time>2022-09-26T13:22:28.003+02:00[Europe/Madrid]</time>
      </trkpt>
      <trkpt lat="36.871786" lon="-5.593346">
        <ele>206.0</ele>
        <time>2022-09-26T13:22:29.003+02:00[Europe/Madrid]</time>
      </trkpt>
      <trkpt lat="36.871913" lon="-5.593105">
        <ele>206.0</ele>
        <time>2022-09-26T13:22:30.003+02:00[Europe/Madrid]</time>
      </trkpt>
      <trkpt lat="36.87204" lon="-5.59286">
        <ele>206.0</ele>
        <time>2022-09-26T13:22:31.003+02:00[Europe/Madrid]</time>
      </trkpt>
      <trkpt lat="36.872172" lon="-5.592615">
        <ele>206.0</ele>
        <time>2022-09-26T13:22:32.003+02:00[Europe/Madrid]</time>
      </trkpt>
      <trkpt lat="36.872301" lon="-5.592366">
        <ele>206.0</ele>
        <time>2022-09-26T13:22:33.003+02:00[Europe/Madrid]</time>
      </trkpt>
      <trkpt lat="36.872429" lon="-5.592118">
        <ele>206.0</ele>
        <time>2022-09-26T13:22:34.003+02:00[Europe/Madrid]</time>
      </trkpt>
      <trkpt lat="36.87256" lon="-5.591875">
        <ele>206.0</ele>
        <time>2022-09-26T13:22:35.003+02:00[Europe/Madrid]</time>
      </trkpt>
      <trkpt lat="36.872691" lon="-5.591634">
        <ele>206.0</ele>
        <time>2022-09-26T13:22:36.003+02:00[Europe/Madrid]</time>
      </trkpt>
      <trkpt lat="36.872822" lon="-5.591392">
        <ele>206.0</ele>
        <time>2022-09-26T13:22:37.003+02:00[Europe/Madrid]</time>
      </trkpt>
      <trkpt lat="36.872953" lon="-5.591149">
        <ele>206.0</ele>
        <time>2022-09-26T13:22:38.003+02:00[Europe/Madrid]</time>
      </trkpt>
      <trkpt lat="36.873085" lon="-5.590899">
        <ele>206.0</ele>
        <time>2022-09-26T13:22:39.003+02:00[Europe/Madrid]</time>
      </trkpt>
      <trkpt lat="36.873221" lon="-5.590643">
        <ele>206.0</ele>
        <time>2022-09-26T13:22:40.003+02:00[Europe/Madrid]</time>
      </trkpt>
      <trkpt lat="36.87336" lon="-5.590386">
        <ele>206.0</ele>
        <time>2022-09-26T13:22:41.003+02:00[Europe/Madrid]</time>
      </trkpt>
      <trkpt lat="36.873498" lon="-5.59013">
        <ele>206.0</ele>
        <time>2022-09-26T13:22:42.003+02:00[Europe/Madrid]</time>
      </trkpt>
      <trkpt lat="36.873633" lon="-5.589874">
        <ele>206.0</ele>
        <time>2022-09-26T13:22:43.003+02:00[Europe/Madrid]</time>
      </trkpt>
      <trkpt lat="36.873766" lon="-5.58962">
        <ele>206.0</ele>
        <time>2022-09-26T13:22:44.003+02:00[Europe/Madrid]</time>
      </trkpt>
      <trkpt lat="36.873899" lon="-5.589365">
        <ele>207.0</ele>
        <time>2022-09-26T13:22:45.003+02:00[Europe/Madrid]</time>
      </trkpt>
      <trkpt lat="36.874033" lon="-5.589113">
        <ele>207.0</ele>
        <time>2022-09-26T13:22:46.003+02:00[Europe/Madrid]</time>
      </trkpt>
      <trkpt lat="36.874166" lon="-5.588861">
        <ele>207.0</ele>
        <time>2022-09-26T13:22:47.003+02:00[Europe/Madrid]</time>
      </trkpt>
      <trkpt lat="36.874298" lon="-5.588611">
        <ele>208.0</ele>
        <time>2022-09-26T13:22:48.003+02:00[Europe/Madrid]</time>
      </trkpt>
      <trkpt lat="36.874428" lon="-5.588361">
        <ele>208.0</ele>
        <time>2022-09-26T13:22:49.003+02:00[Europe/Madrid]</time>
      </trkpt>
      <trkpt lat="36.874561" lon="-5.588112">
        <ele>209.0</ele>
        <time>2022-09-26T13:22:50.003+02:00[Europe/Madrid]</time>
      </trkpt>
      <trkpt lat="36.87469" lon="-5.587867">
        <ele>209.0</ele>
        <time>2022-09-26T13:22:51.003+02:00[Europe/Madrid]</time>
      </trkpt>
      <trkpt lat="36.874816" lon="-5.587622">
        <ele>209.0</ele>
        <time>2022-09-26T13:22:52.003+02:00[Europe/Madrid]</time>
      </trkpt>
      <trkpt lat="36.874947" lon="-5.587377">
        <ele>210.0</ele>
        <time>2022-09-26T13:22:53.003+02:00[Europe/Madrid]</time>
      </trkpt>
      <trkpt lat="36.875076" lon="-5.587135">
        <ele>210.0</ele>
        <time>2022-09-26T13:22:54.003+02:00[Europe/Madrid]</time>
      </trkpt>
      <trkpt lat="36.875202" lon="-5.586896">
        <ele>211.0</ele>
        <time>2022-09-26T13:22:55.003+02:00[Europe/Madrid]</time>
      </trkpt>
      <trkpt lat="36.875326" lon="-5.586656">
        <ele>211.0</ele>
        <time>2022-09-26T13:22:56.003+02:00[Europe/Madrid]</time>
      </trkpt>
      <trkpt lat="36.875449" lon="-5.58642">
        <ele>212.0</ele>
        <time>2022-09-26T13:22:57.003+02:00[Europe/Madrid]</time>
      </trkpt>
      <trkpt lat="36.875576" lon="-5.58619">
        <ele>212.0</ele>
        <time>2022-09-26T13:22:58.003+02:00[Europe/Madrid]</time>
      </trkpt>
      <trkpt lat="36.875701" lon="-5.585962">
        <ele>213.0</ele>
        <time>2022-09-26T13:22:59.003+02:00[Europe/Madrid]</time>
      </trkpt>
      <trkpt lat="36.875824" lon="-5.585734">
        <ele>213.0</ele>
        <time>2022-09-26T13:23:00.003+02:00[Europe/Madrid]</time>
      </trkpt>
      <trkpt lat="36.875946" lon="-5.585507">
        <ele>213.0</ele>
        <time>2022-09-26T13:23:01.003+02:00[Europe/Madrid]</time>
      </trkpt>
      <trkpt lat="36.876067" lon="-5.585273">
        <ele>213.0</ele>
        <time>2022-09-26T13:23:02.003+02:00[Europe/Madrid]</time>
      </trkpt>
      <trkpt lat="36.876188" lon="-5.585043">
        <ele>213.0</ele>
        <time>2022-09-26T13:23:03.003+02:00[Europe/Madrid]</time>
      </trkpt>
      <trkpt lat="36.876308" lon="-5.584813">
        <ele>213.0</ele>
        <time>2022-09-26T13:23:04.003+02:00[Europe/Madrid]</time>
      </trkpt>
      <trkpt lat="36.876429" lon="-5.58458">
        <ele>213.0</ele>
        <time>2022-09-26T13:23:05.003+02:00[Europe/Madrid]</time>
      </trkpt>
      <trkpt lat="36.876552" lon="-5.584343">
        <ele>213.0</ele>
        <time>2022-09-26T13:23:06.003+02:00[Europe/Madrid]</time>
      </trkpt>
      <trkpt lat="36.876678" lon="-5.584107">
        <ele>213.0</ele>
        <time>2022-09-26T13:23:07.003+02:00[Europe/Madrid]</time>
      </trkpt>
      <trkpt lat="36.876803" lon="-5.583867">
        <ele>213.0</ele>
        <time>2022-09-26T13:23:08.003+02:00[Europe/Madrid]</time>
      </trkpt>
      <trkpt lat="36.876932" lon="-5.583623">
        <ele>214.0</ele>
        <time>2022-09-26T13:23:09.003+02:00[Europe/Madrid]</time>
      </trkpt>
      <trkpt lat="36.877062" lon="-5.583374">
        <ele>214.0</ele>
        <time>2022-09-26T13:23:10.003+02:00[Europe/Madrid]</time>
      </trkpt>
      <trkpt lat="36.877196" lon="-5.583125">
        <ele>214.0</ele>
        <time>2022-09-26T13:23:11.003+02:00[Europe/Madrid]</time>
      </trkpt>
      <trkpt lat="36.877332" lon="-5.582874">
        <ele>214.0</ele>
        <time>2022-09-26T13:23:12.003+02:00[Europe/Madrid]</time>
      </trkpt>
      <trkpt lat="36.877466" lon="-5.582624">
        <ele>214.0</ele>
        <time>2022-09-26T13:23:13.003+02:00[Europe/Madrid]</time>
      </trkpt>
      <trkpt lat="36.877593" lon="-5.582383">
        <ele>214.0</ele>
        <time>2022-09-26T13:23:14.003+02:00[Europe/Madrid]</time>
      </trkpt>
      <trkpt lat="36.877722" lon="-5.582142">
        <ele>214.0</ele>
        <time>2022-09-26T13:23:15.003+02:00[Europe/Madrid]</time>
      </trkpt>
      <trkpt lat="36.877847" lon="-5.581902">
        <ele>214.0</ele>
        <time>2022-09-26T13:23:16.003+02:00[Europe/Madrid]</time>
      </trkpt>
      <trkpt lat="36.877973" lon="-5.581668">
        <ele>214.0</ele>
        <time>2022-09-26T13:23:17.003+02:00[Europe/Madrid]</time>
      </trkpt>
      <trkpt lat="36.878098" lon="-5.581434">
        <ele>214.0</ele>
        <time>2022-09-26T13:23:18.003+02:00[Europe/Madrid]</time>
      </trkpt>
      <trkpt lat="36.87822" lon="-5.581202">
        <ele>214.0</ele>
        <time>2022-09-26T13:23:19.003+02:00[Europe/Madrid]</time>
      </trkpt>
      <trkpt lat="36.878341" lon="-5.580972">
        <ele>214.0</ele>
        <time>2022-09-26T13:23:20.003+02:00[Europe/Madrid]</time>
      </trkpt>
      <trkpt lat="36.878459" lon="-5.58075">
        <ele>213.0</ele>
        <time>2022-09-26T13:23:21.003+02:00[Europe/Madrid]</time>
      </trkpt>
      <trkpt lat="36.878576" lon="-5.580529">
        <ele>214.0</ele>
        <time>2022-09-26T13:23:22.003+02:00[Europe/Madrid]</time>
      </trkpt>
      <trkpt lat="36.878689" lon="-5.580314">
        <ele>214.0</ele>
        <time>2022-09-26T13:23:23.003+02:00[Europe/Madrid]</time>
      </trkpt>
      <trkpt lat="36.878803" lon="-5.580097">
        <ele>214.0</ele>
        <time>2022-09-26T13:23:24.003+02:00[Europe/Madrid]</time>
      </trkpt>
      <trkpt lat="36.878914" lon="-5.579886">
        <ele>214.0</ele>
        <time>2022-09-26T13:23:25.003+02:00[Europe/Madrid]</time>
      </trkpt>
      <trkpt lat="36.879025" lon="-5.579677">
        <ele>214.0</ele>
        <time>2022-09-26T13:23:26.003+02:00[Europe/Madrid]</time>
      </trkpt>
      <trkpt lat="36.879134" lon="-5.579473">
        <ele>214.0</ele>
        <time>2022-09-26T13:23:27.003+02:00[Europe/Madrid]</time>
      </trkpt>
      <trkpt lat="36.879241" lon="-5.579268">
        <ele>214.0</ele>
        <time>2022-09-26T13:23:28.003+02:00[Europe/Madrid]</time>
      </trkpt>
      <trkpt lat="36.879351" lon="-5.57907">
        <ele>214.0</ele>
        <time>2022-09-26T13:23:29.003+02:00[Europe/Madrid]</time>
      </trkpt>
      <trkpt lat="36.879455" lon="-5.578873">
        <ele>214.0</ele>
        <time>2022-09-26T13:23:30.003+02:00[Europe/Madrid]</time>
      </trkpt>
      <trkpt lat="36.87956" lon="-5.578678">
        <ele>215.0</ele>
        <time>2022-09-26T13:23:31.003+02:00[Europe/Madrid]</time>
      </trkpt>
      <trkpt lat="36.879665" lon="-5.578479">
        <ele>215.0</ele>
        <time>2022-09-26T13:23:32.003+02:00[Europe/Madrid]</time>
      </trkpt>
      <trkpt lat="36.87977" lon="-5.578272">
        <ele>215.0</ele>
        <time>2022-09-26T13:23:33.003+02:00[Europe/Madrid]</time>
      </trkpt>
      <trkpt lat="36.879879" lon="-5.578056">
        <ele>215.0</ele>
        <time>2022-09-26T13:23:34.003+02:00[Europe/Madrid]</time>
      </trkpt>
      <trkpt lat="36.879994" lon="-5.577824">
        <ele>216.0</ele>
        <time>2022-09-26T13:23:35.003+02:00[Europe/Madrid]</time>
      </trkpt>
      <trkpt lat="36.880107" lon="-5.577582">
        <ele>216.0</ele>
        <time>2022-09-26T13:23:36.003+02:00[Europe/Madrid]</time>
      </trkpt>
      <trkpt lat="36.880208" lon="-5.577335">
        <ele>217.0</ele>
        <time>2022-09-26T13:23:37.003+02:00[Europe/Madrid]</time>
      </trkpt>
      <trkpt lat="36.880299" lon="-5.577099">
        <ele>216.0</ele>
        <time>2022-09-26T13:23:38.003+02:00[Europe/Madrid]</time>
      </trkpt>
      <trkpt lat="36.880378" lon="-5.576873">
        <ele>217.0</ele>
        <time>2022-09-26T13:23:39.003+02:00[Europe/Madrid]</time>
      </trkpt>
      <trkpt lat="36.880451" lon="-5.576667">
        <ele>217.0</ele>
        <time>2022-09-26T13:23:40.003+02:00[Europe/Madrid]</time>
      </trkpt>
      <trkpt lat="36.880518" lon="-5.576479">
        <ele>217.0</ele>
        <time>2022-09-26T13:23:41.003+02:00[Europe/Madrid]</time>
      </trkpt>
      <trkpt lat="36.880576" lon="-5.57631">
        <ele>218.0</ele>
        <time>2022-09-26T13:23:42.003+02:00[Europe/Madrid]</time>
      </trkpt>
      <trkpt lat="36.880624" lon="-5.576159">
        <ele>218.0</ele>
        <time>2022-09-26T13:23:43.003+02:00[Europe/Madrid]</time>
      </trkpt>
      <trkpt lat="36.880663" lon="-5.576007">
        <ele>218.0</ele>
        <time>2022-09-26T13:23:44.003+02:00[Europe/Madrid]</time>
      </trkpt>
      <trkpt lat="36.880688" lon="-5.575862">
        <ele>217.0</ele>
        <time>2022-09-26T13:23:45.003+02:00[Europe/Madrid]</time>
      </trkpt>
      <trkpt lat="36.880694" lon="-5.575713">
        <ele>217.0</ele>
        <time>2022-09-26T13:23:46.003+02:00[Europe/Madrid]</time>
      </trkpt>
      <trkpt lat="36.880688" lon="-5.575576">
        <ele>216.0</ele>
        <time>2022-09-26T13:23:47.003+02:00[Europe/Madrid]</time>
      </trkpt>
      <trkpt lat="36.880682" lon="-5.575449">
        <ele>216.0</ele>
        <time>2022-09-26T13:23:48.003+02:00[Europe/Madrid]</time>
      </trkpt>
      <trkpt lat="36.880673" lon="-5.575328">
        <ele>216.0</ele>
        <time>2022-09-26T13:23:49.003+02:00[Europe/Madrid]</time>
      </trkpt>
      <trkpt lat="36.880664" lon="-5.575215">
        <ele>215.0</ele>
        <time>2022-09-26T13:23:50.003+02:00[Europe/Madrid]</time>
      </trkpt>
      <trkpt lat="36.880649" lon="-5.575005">
        <ele>214.0</ele>
        <time>2022-09-26T13:23:51.898+02:00[Europe/Madrid]</time>
      </trkpt>
      <trkpt lat="36.880643" lon="-5.574835">
        <ele>214.0</ele>
        <time>2022-09-26T13:23:53.887+02:00[Europe/Madrid]</time>
      </trkpt>
      <trkpt lat="36.88066" lon="-5.574713">
        <ele>213.0</ele>
        <time>2022-09-26T13:23:55.905+02:00[Europe/Madrid]</time>
      </trkpt>
      <trkpt lat="36.880741" lon="-5.57463">
        <ele>213.0</ele>
        <time>2022-09-26T13:23:59.891+02:00[Europe/Madrid]</time>
      </trkpt>
      <trkpt lat="36.880893" lon="-5.574644">
        <ele>213.0</ele>
        <time>2022-09-26T13:24:01.891+02:00[Europe/Madrid]</time>
      </trkpt>
      <trkpt lat="36.880999" lon="-5.574665">
        <ele>214.0</ele>
        <time>2022-09-26T13:24:02.893+02:00[Europe/Madrid]</time>
      </trkpt>
      <trkpt lat="36.881123" lon="-5.574685">
        <ele>214.0</ele>
        <time>2022-09-26T13:24:03.893+02:00[Europe/Madrid]</time>
      </trkpt>
      <trkpt lat="36.881268" lon="-5.574701">
        <ele>215.0</ele>
        <time>2022-09-26T13:24:04.893+02:00[Europe/Madrid]</time>
      </trkpt>
      <trkpt lat="36.881426" lon="-5.574709">
        <ele>216.0</ele>
        <time>2022-09-26T13:24:05.893+02:00[Europe/Madrid]</time>
      </trkpt>
      <trkpt lat="36.881575" lon="-5.574711">
        <ele>216.0</ele>
        <time>2022-09-26T13:24:06.893+02:00[Europe/Madrid]</time>
      </trkpt>
      <trkpt lat="36.881709" lon="-5.574698">
        <ele>217.0</ele>
        <time>2022-09-26T13:24:07.895+02:00[Europe/Madrid]</time>
      </trkpt>
      <trkpt lat="36.881833" lon="-5.574679">
        <ele>217.0</ele>
        <time>2022-09-26T13:24:08.895+02:00[Europe/Madrid]</time>
      </trkpt>
      <trkpt lat="36.88196" lon="-5.574648">
        <ele>218.0</ele>
        <time>2022-09-26T13:24:09.895+02:00[Europe/Madrid]</time>
      </trkpt>
      <trkpt lat="36.882088" lon="-5.574609">
        <ele>219.0</ele>
        <time>2022-09-26T13:24:10.895+02:00[Europe/Madrid]</time>
      </trkpt>
      <trkpt lat="36.882216" lon="-5.574559">
        <ele>220.0</ele>
        <time>2022-09-26T13:24:11.897+02:00[Europe/Madrid]</time>
      </trkpt>
      <trkpt lat="36.882346" lon="-5.574498">
        <ele>221.0</ele>
        <time>2022-09-26T13:24:12.897+02:00[Europe/Madrid]</time>
      </trkpt>
      <trkpt lat="36.882476" lon="-5.574422">
        <ele>221.0</ele>
        <time>2022-09-26T13:24:13.899+02:00[Europe/Madrid]</time>
      </trkpt>
      <trkpt lat="36.882614" lon="-5.574335">
        <ele>222.0</ele>
        <time>2022-09-26T13:24:14.899+02:00[Europe/Madrid]</time>
      </trkpt>
      <trkpt lat="36.882755" lon="-5.574237">
        <ele>222.0</ele>
        <time>2022-09-26T13:24:15.900+02:00[Europe/Madrid]</time>
      </trkpt>
      <trkpt lat="36.882906" lon="-5.574135">
        <ele>222.0</ele>
        <time>2022-09-26T13:24:16.900+02:00[Europe/Madrid]</time>
      </trkpt>
      <trkpt lat="36.883064" lon="-5.574031">
        <ele>222.0</ele>
        <time>2022-09-26T13:24:17.900+02:00[Europe/Madrid]</time>
      </trkpt>
      <trkpt lat="36.883233" lon="-5.57392">
        <ele>222.0</ele>
        <time>2022-09-26T13:24:18.900+02:00[Europe/Madrid]</time>
      </trkpt>
      <trkpt lat="36.88341" lon="-5.573804">
        <ele>222.0</ele>
        <time>2022-09-26T13:24:19.900+02:00[Europe/Madrid]</time>
      </trkpt>
      <trkpt lat="36.883594" lon="-5.57368">
        <ele>222.0</ele>
        <time>2022-09-26T13:24:20.900+02:00[Europe/Madrid]</time>
      </trkpt>
      <trkpt lat="36.883787" lon="-5.573556">
        <ele>223.0</ele>
        <time>2022-09-26T13:24:21.900+02:00[Europe/Madrid]</time>
      </trkpt>
      <trkpt lat="36.883985" lon="-5.573424">
        <ele>223.0</ele>
        <time>2022-09-26T13:24:22.900+02:00[Europe/Madrid]</time>
      </trkpt>
      <trkpt lat="36.884175" lon="-5.573296">
        <ele>223.0</ele>
        <time>2022-09-26T13:24:23.900+02:00[Europe/Madrid]</time>
      </trkpt>
      <trkpt lat="36.884354" lon="-5.573178">
        <ele>223.0</ele>
        <time>2022-09-26T13:24:24.900+02:00[Europe/Madrid]</time>
      </trkpt>
      <trkpt lat="36.884527" lon="-5.573062">
        <ele>223.0</ele>
        <time>2022-09-26T13:24:25.901+02:00[Europe/Madrid]</time>
      </trkpt>
      <trkpt lat="36.884702" lon="-5.572943">
        <ele>224.0</ele>
        <time>2022-09-26T13:24:26.901+02:00[Europe/Madrid]</time>
      </trkpt>
      <trkpt lat="36.884879" lon="-5.572823">
        <ele>224.0</ele>
        <time>2022-09-26T13:24:27.901+02:00[Europe/Madrid]</time>
      </trkpt>
      <trkpt lat="36.88506" lon="-5.572702">
        <ele>224.0</ele>
        <time>2022-09-26T13:24:28.901+02:00[Europe/Madrid]</time>
      </trkpt>
      <trkpt lat="36.88524" lon="-5.572579">
        <ele>224.0</ele>
        <time>2022-09-26T13:24:29.901+02:00[Europe/Madrid]</time>
      </trkpt>
      <trkpt lat="36.885421" lon="-5.572455">
        <ele>224.0</ele>
        <time>2022-09-26T13:24:30.901+02:00[Europe/Madrid]</time>
      </trkpt>
      <trkpt lat="36.885607" lon="-5.572333">
        <ele>225.0</ele>
        <time>2022-09-26T13:24:31.901+02:00[Europe/Madrid]</time>
      </trkpt>
      <trkpt lat="36.885792" lon="-5.572209">
        <ele>224.0</ele>
        <time>2022-09-26T13:24:32.905+02:00[Europe/Madrid]</time>
      </trkpt>
      <trkpt lat="36.88598" lon="-5.572085">
        <ele>225.0</ele>
        <time>2022-09-26T13:24:33.905+02:00[Europe/Madrid]</time>
      </trkpt>
      <trkpt lat="36.886168" lon="-5.571959">
        <ele>225.0</ele>
        <time>2022-09-26T13:24:34.905+02:00[Europe/Madrid]</time>
      </trkpt>
      <trkpt lat="36.886361" lon="-5.571841">
        <ele>225.0</ele>
        <time>2022-09-26T13:24:35.905+02:00[Europe/Madrid]</time>
      </trkpt>
      <trkpt lat="36.886556" lon="-5.571724">
        <ele>225.0</ele>
        <time>2022-09-26T13:24:36.905+02:00[Europe/Madrid]</time>
      </trkpt>
      <trkpt lat="36.886754" lon="-5.571605">
        <ele>226.0</ele>
        <time>2022-09-26T13:24:37.905+02:00[Europe/Madrid]</time>
      </trkpt>
      <trkpt lat="36.886955" lon="-5.571489">
        <ele>226.0</ele>
        <time>2022-09-26T13:24:38.905+02:00[Europe/Madrid]</time>
      </trkpt>
      <trkpt lat="36.88716" lon="-5.571375">
        <ele>226.0</ele>
        <time>2022-09-26T13:24:39.905+02:00[Europe/Madrid]</time>
      </trkpt>
      <trkpt lat="36.887369" lon="-5.571259">
        <ele>226.0</ele>
        <time>2022-09-26T13:24:40.905+02:00[Europe/Madrid]</time>
      </trkpt>
      <trkpt lat="36.887582" lon="-5.571141">
        <ele>226.0</ele>
        <time>2022-09-26T13:24:41.905+02:00[Europe/Madrid]</time>
      </trkpt>
      <trkpt lat="36.887798" lon="-5.571028">
        <ele>226.0</ele>
        <time>2022-09-26T13:24:42.905+02:00[Europe/Madrid]</time>
      </trkpt>
      <trkpt lat="36.888016" lon="-5.570914">
        <ele>226.0</ele>
        <time>2022-09-26T13:24:43.905+02:00[Europe/Madrid]</time>
      </trkpt>
      <trkpt lat="36.888236" lon="-5.570797">
        <ele>226.0</ele>
        <time>2022-09-26T13:24:44.905+02:00[Europe/Madrid]</time>
      </trkpt>
      <trkpt lat="36.888458" lon="-5.57068">
        <ele>226.0</ele>
        <time>2022-09-26T13:24:45.905+02:00[Europe/Madrid]</time>
      </trkpt>
      <trkpt lat="36.888685" lon="-5.570564">
        <ele>225.0</ele>
        <time>2022-09-26T13:24:46.905+02:00[Europe/Madrid]</time>
      </trkpt>
      <trkpt lat="36.888912" lon="-5.570443">
        <ele>225.0</ele>
        <time>2022-09-26T13:24:47.905+02:00[Europe/Madrid]</time>
      </trkpt>
      <trkpt lat="36.889141" lon="-5.570324">
        <ele>225.0</ele>
        <time>2022-09-26T13:24:48.905+02:00[Europe/Madrid]</time>
      </trkpt>
      <trkpt lat="36.889373" lon="-5.570205">
        <ele>225.0</ele>
        <time>2022-09-26T13:24:49.905+02:00[Europe/Madrid]</time>
      </trkpt>
      <trkpt lat="36.889608" lon="-5.570085">
        <ele>224.0</ele>
        <time>2022-09-26T13:24:50.905+02:00[Europe/Madrid]</time>
      </trkpt>
      <trkpt lat="36.889841" lon="-5.569965">
        <ele>224.0</ele>
        <time>2022-09-26T13:24:51.905+02:00[Europe/Madrid]</time>
      </trkpt>
      <trkpt lat="36.890074" lon="-5.569846">
        <ele>224.0</ele>
        <time>2022-09-26T13:24:52.905+02:00[Europe/Madrid]</time>
      </trkpt>
      <trkpt lat="36.890306" lon="-5.569721">
        <ele>224.0</ele>
        <time>2022-09-26T13:24:53.906+02:00[Europe/Madrid]</time>
      </trkpt>
      <trkpt lat="36.890538" lon="-5.569586">
        <ele>224.0</ele>
        <time>2022-09-26T13:24:54.906+02:00[Europe/Madrid]</time>
      </trkpt>
      <trkpt lat="36.890764" lon="-5.569441">
        <ele>224.0</ele>
        <time>2022-09-26T13:24:55.906+02:00[Europe/Madrid]</time>
      </trkpt>
      <trkpt lat="36.890989" lon="-5.569295">
        <ele>224.0</ele>
        <time>2022-09-26T13:24:56.906+02:00[Europe/Madrid]</time>
      </trkpt>
      <trkpt lat="36.891211" lon="-5.569155">
        <ele>224.0</ele>
        <time>2022-09-26T13:24:57.906+02:00[Europe/Madrid]</time>
      </trkpt>
      <trkpt lat="36.89143" lon="-5.569013">
        <ele>224.0</ele>
        <time>2022-09-26T13:24:58.906+02:00[Europe/Madrid]</time>
      </trkpt>
      <trkpt lat="36.89165" lon="-5.568873">
        <ele>224.0</ele>
        <time>2022-09-26T13:24:59.906+02:00[Europe/Madrid]</time>
      </trkpt>
      <trkpt lat="36.891868" lon="-5.568736">
        <ele>223.0</ele>
        <time>2022-09-26T13:25:00.906+02:00[Europe/Madrid]</time>
      </trkpt>
      <trkpt lat="36.892078" lon="-5.5686">
        <ele>223.0</ele>
        <time>2022-09-26T13:25:01.906+02:00[Europe/Madrid]</time>
      </trkpt>
      <trkpt lat="36.892289" lon="-5.568468">
        <ele>223.0</ele>
        <time>2022-09-26T13:25:02.906+02:00[Europe/Madrid]</time>
      </trkpt>
      <trkpt lat="36.8925" lon="-5.56833">
        <ele>223.0</ele>
        <time>2022-09-26T13:25:03.906+02:00[Europe/Madrid]</time>
      </trkpt>
      <trkpt lat="36.892713" lon="-5.568192">
        <ele>223.0</ele>
        <time>2022-09-26T13:25:04.906+02:00[Europe/Madrid]</time>
      </trkpt>
      <trkpt lat="36.892927" lon="-5.568055">
        <ele>223.0</ele>
        <time>2022-09-26T13:25:05.906+02:00[Europe/Madrid]</time>
      </trkpt>
      <trkpt lat="36.893141" lon="-5.567919">
        <ele>223.0</ele>
        <time>2022-09-26T13:25:06.906+02:00[Europe/Madrid]</time>
      </trkpt>
      <trkpt lat="36.893354" lon="-5.567781">
        <ele>222.0</ele>
        <time>2022-09-26T13:25:07.906+02:00[Europe/Madrid]</time>
      </trkpt>
      <trkpt lat="36.893566" lon="-5.567644">
        <ele>223.0</ele>
        <time>2022-09-26T13:25:08.906+02:00[Europe/Madrid]</time>
      </trkpt>
      <trkpt lat="36.893776" lon="-5.567506">
        <ele>223.0</ele>
        <time>2022-09-26T13:25:09.906+02:00[Europe/Madrid]</time>
      </trkpt>
      <trkpt lat="36.893987" lon="-5.567371">
        <ele>223.0</ele>
        <time>2022-09-26T13:25:10.906+02:00[Europe/Madrid]</time>
      </trkpt>
      <trkpt lat="36.894197" lon="-5.567237">
        <ele>223.0</ele>
        <time>2022-09-26T13:25:11.906+02:00[Europe/Madrid]</time>
      </trkpt>
      <trkpt lat="36.894422" lon="-5.567093">
        <ele>223.0</ele>
        <time>2022-09-26T13:25:12.906+02:00[Europe/Madrid]</time>
      </trkpt>
      <trkpt lat="36.894644" lon="-5.566956">
        <ele>223.0</ele>
        <time>2022-09-26T13:25:13.909+02:00[Europe/Madrid]</time>
      </trkpt>
      <trkpt lat="36.894855" lon="-5.566821">
        <ele>224.0</ele>
        <time>2022-09-26T13:25:14.909+02:00[Europe/Madrid]</time>
      </trkpt>
      <trkpt lat="36.895056" lon="-5.566687">
        <ele>224.0</ele>
        <time>2022-09-26T13:25:15.909+02:00[Europe/Madrid]</time>
      </trkpt>
      <trkpt lat="36.895241" lon="-5.566554">
        <ele>224.0</ele>
        <time>2022-09-26T13:25:16.915+02:00[Europe/Madrid]</time>
      </trkpt>
      <trkpt lat="36.895417" lon="-5.566408">
        <ele>225.0</ele>
        <time>2022-09-26T13:25:17.915+02:00[Europe/Madrid]</time>
      </trkpt>
      <trkpt lat="36.895589" lon="-5.566242">
        <ele>225.0</ele>
        <time>2022-09-26T13:25:18.915+02:00[Europe/Madrid]</time>
      </trkpt>
      <trkpt lat="36.895759" lon="-5.566067">
        <ele>224.0</ele>
        <time>2022-09-26T13:25:19.915+02:00[Europe/Madrid]</time>
      </trkpt>
      <trkpt lat="36.895929" lon="-5.565895">
        <ele>224.0</ele>
        <time>2022-09-26T13:25:20.915+02:00[Europe/Madrid]</time>
      </trkpt>
      <trkpt lat="36.896096" lon="-5.565726">
        <ele>224.0</ele>
        <time>2022-09-26T13:25:21.915+02:00[Europe/Madrid]</time>
      </trkpt>
      <trkpt lat="36.896263" lon="-5.565553">
        <ele>224.0</ele>
        <time>2022-09-26T13:25:22.915+02:00[Europe/Madrid]</time>
      </trkpt>
      <trkpt lat="36.896426" lon="-5.565386">
        <ele>224.0</ele>
        <time>2022-09-26T13:25:23.915+02:00[Europe/Madrid]</time>
      </trkpt>
      <trkpt lat="36.896579" lon="-5.565226">
        <ele>223.0</ele>
        <time>2022-09-26T13:25:24.915+02:00[Europe/Madrid]</time>
      </trkpt>
      <trkpt lat="36.896729" lon="-5.565076">
        <ele>223.0</ele>
        <time>2022-09-26T13:25:25.915+02:00[Europe/Madrid]</time>
      </trkpt>
      <trkpt lat="36.89688" lon="-5.564915">
        <ele>223.0</ele>
        <time>2022-09-26T13:25:26.915+02:00[Europe/Madrid]</time>
      </trkpt>
      <trkpt lat="36.897035" lon="-5.564754">
        <ele>223.0</ele>
        <time>2022-09-26T13:25:27.915+02:00[Europe/Madrid]</time>
      </trkpt>
      <trkpt lat="36.897196" lon="-5.56459">
        <ele>223.0</ele>
        <time>2022-09-26T13:25:28.915+02:00[Europe/Madrid]</time>
      </trkpt>
      <trkpt lat="36.897359" lon="-5.564428">
        <ele>223.0</ele>
        <time>2022-09-26T13:25:29.915+02:00[Europe/Madrid]</time>
      </trkpt>
      <trkpt lat="36.89752" lon="-5.564261">
        <ele>223.0</ele>
        <time>2022-09-26T13:25:30.915+02:00[Europe/Madrid]</time>
      </trkpt>
      <trkpt lat="36.897679" lon="-5.564095">
        <ele>223.0</ele>
        <time>2022-09-26T13:25:31.915+02:00[Europe/Madrid]</time>
      </trkpt>
      <trkpt lat="36.897838" lon="-5.563924">
        <ele>223.0</ele>
        <time>2022-09-26T13:25:32.915+02:00[Europe/Madrid]</time>
      </trkpt>
      <trkpt lat="36.897998" lon="-5.563752">
        <ele>222.0</ele>
        <time>2022-09-26T13:25:33.915+02:00[Europe/Madrid]</time>
      </trkpt>
      <trkpt lat="36.898158" lon="-5.563578">
        <ele>222.0</ele>
        <time>2022-09-26T13:25:34.915+02:00[Europe/Madrid]</time>
      </trkpt>
      <trkpt lat="36.898314" lon="-5.563403">
        <ele>222.0</ele>
        <time>2022-09-26T13:25:35.915+02:00[Europe/Madrid]</time>
      </trkpt>
      <trkpt lat="36.898471" lon="-5.563223">
        <ele>222.0</ele>
        <time>2022-09-26T13:25:36.915+02:00[Europe/Madrid]</time>
      </trkpt>
      <trkpt lat="36.898631" lon="-5.563042">
        <ele>222.0</ele>
        <time>2022-09-26T13:25:37.915+02:00[Europe/Madrid]</time>
      </trkpt>
      <trkpt lat="36.898795" lon="-5.562852">
        <ele>222.0</ele>
        <time>2022-09-26T13:25:38.915+02:00[Europe/Madrid]</time>
      </trkpt>
      <trkpt lat="36.898955" lon="-5.562656">
        <ele>221.0</ele>
        <time>2022-09-26T13:25:39.915+02:00[Europe/Madrid]</time>
      </trkpt>
      <trkpt lat="36.899122" lon="-5.562449">
        <ele>221.0</ele>
        <time>2022-09-26T13:25:40.915+02:00[Europe/Madrid]</time>
      </trkpt>
      <trkpt lat="36.899292" lon="-5.562241">
        <ele>220.0</ele>
        <time>2022-09-26T13:25:41.915+02:00[Europe/Madrid]</time>
      </trkpt>
      <trkpt lat="36.899467" lon="-5.562027">
        <ele>220.0</ele>
        <time>2022-09-26T13:25:42.915+02:00[Europe/Madrid]</time>
      </trkpt>
      <trkpt lat="36.899643" lon="-5.561812">
        <ele>220.0</ele>
        <time>2022-09-26T13:25:43.915+02:00[Europe/Madrid]</time>
      </trkpt>
      <trkpt lat="36.899826" lon="-5.561592">
        <ele>219.0</ele>
        <time>2022-09-26T13:25:44.915+02:00[Europe/Madrid]</time>
      </trkpt>
      <trkpt lat="36.900014" lon="-5.561373">
        <ele>219.0</ele>
        <time>2022-09-26T13:25:45.915+02:00[Europe/Madrid]</time>
      </trkpt>
      <trkpt lat="36.900206" lon="-5.56115">
        <ele>219.0</ele>
        <time>2022-09-26T13:25:46.915+02:00[Europe/Madrid]</time>
      </trkpt>
      <trkpt lat="36.9004" lon="-5.560933">
        <ele>218.0</ele>
        <time>2022-09-26T13:25:47.915+02:00[Europe/Madrid]</time>
      </trkpt>
      <trkpt lat="36.900595" lon="-5.560725">
        <ele>218.0</ele>
        <time>2022-09-26T13:25:48.915+02:00[Europe/Madrid]</time>
      </trkpt>
      <trkpt lat="36.900787" lon="-5.560514">
        <ele>217.0</ele>
        <time>2022-09-26T13:25:49.915+02:00[Europe/Madrid]</time>
      </trkpt>
      <trkpt lat="36.900978" lon="-5.5603">
        <ele>217.0</ele>
        <time>2022-09-26T13:25:50.915+02:00[Europe/Madrid]</time>
      </trkpt>
      <trkpt lat="36.901176" lon="-5.560088">
        <ele>217.0</ele>
        <time>2022-09-26T13:25:51.915+02:00[Europe/Madrid]</time>
      </trkpt>
      <trkpt lat="36.901374" lon="-5.559875">
        <ele>216.0</ele>
        <time>2022-09-26T13:25:52.915+02:00[Europe/Madrid]</time>
      </trkpt>
      <trkpt lat="36.901573" lon="-5.559661">
        <ele>216.0</ele>
        <time>2022-09-26T13:25:53.915+02:00[Europe/Madrid]</time>
      </trkpt>
      <trkpt lat="36.901773" lon="-5.559453">
        <ele>217.0</ele>
        <time>2022-09-26T13:25:54.915+02:00[Europe/Madrid]</time>
      </trkpt>
      <trkpt lat="36.901969" lon="-5.559246">
        <ele>217.0</ele>
        <time>2022-09-26T13:25:55.915+02:00[Europe/Madrid]</time>
      </trkpt>
      <trkpt lat="36.902161" lon="-5.559046">
        <ele>216.0</ele>
        <time>2022-09-26T13:25:56.915+02:00[Europe/Madrid]</time>
      </trkpt>
      <trkpt lat="36.90235" lon="-5.558852">
        <ele>217.0</ele>
        <time>2022-09-26T13:25:57.915+02:00[Europe/Madrid]</time>
      </trkpt>
      <trkpt lat="36.902538" lon="-5.558648">
        <ele>217.0</ele>
        <time>2022-09-26T13:25:58.915+02:00[Europe/Madrid]</time>
      </trkpt>
      <trkpt lat="36.902726" lon="-5.558447">
        <ele>216.0</ele>
        <time>2022-09-26T13:25:59.915+02:00[Europe/Madrid]</time>
      </trkpt>
      <trkpt lat="36.902905" lon="-5.558254">
        <ele>217.0</ele>
        <time>2022-09-26T13:26:00.915+02:00[Europe/Madrid]</time>
      </trkpt>
      <trkpt lat="36.903075" lon="-5.55807">
        <ele>217.0</ele>
        <time>2022-09-26T13:26:01.915+02:00[Europe/Madrid]</time>
      </trkpt>
      <trkpt lat="36.903243" lon="-5.557902">
        <ele>217.0</ele>
        <time>2022-09-26T13:26:02.915+02:00[Europe/Madrid]</time>
      </trkpt>
      <trkpt lat="36.90342" lon="-5.55775">
        <ele>217.0</ele>
        <time>2022-09-26T13:26:03.915+02:00[Europe/Madrid]</time>
      </trkpt>
      <trkpt lat="36.903606" lon="-5.557623">
        <ele>217.0</ele>
        <time>2022-09-26T13:26:04.915+02:00[Europe/Madrid]</time>
      </trkpt>
      <trkpt lat="36.903806" lon="-5.557516">
        <ele>217.0</ele>
        <time>2022-09-26T13:26:05.915+02:00[Europe/Madrid]</time>
      </trkpt>
      <trkpt lat="36.904024" lon="-5.557422">
        <ele>216.0</ele>
        <time>2022-09-26T13:26:06.915+02:00[Europe/Madrid]</time>
      </trkpt>
      <trkpt lat="36.904252" lon="-5.557327">
        <ele>216.0</ele>
        <time>2022-09-26T13:26:07.915+02:00[Europe/Madrid]</time>
      </trkpt>
      <trkpt lat="36.904483" lon="-5.557232">
        <ele>216.0</ele>
        <time>2022-09-26T13:26:08.915+02:00[Europe/Madrid]</time>
      </trkpt>
      <trkpt lat="36.904716" lon="-5.557137">
        <ele>216.0</ele>
        <time>2022-09-26T13:26:09.915+02:00[Europe/Madrid]</time>
      </trkpt>
      <trkpt lat="36.904951" lon="-5.557044">
        <ele>216.0</ele>
        <time>2022-09-26T13:26:10.915+02:00[Europe/Madrid]</time>
      </trkpt>
      <trkpt lat="36.905187" lon="-5.556952">
        <ele>216.0</ele>
        <time>2022-09-26T13:26:11.915+02:00[Europe/Madrid]</time>
      </trkpt>
      <trkpt lat="36.905426" lon="-5.556858">
        <ele>216.0</ele>
        <time>2022-09-26T13:26:12.915+02:00[Europe/Madrid]</time>
      </trkpt>
      <trkpt lat="36.90567" lon="-5.556758">
        <ele>216.0</ele>
        <time>2022-09-26T13:26:13.915+02:00[Europe/Madrid]</time>
      </trkpt>
      <trkpt lat="36.905919" lon="-5.556657">
        <ele>215.0</ele>
        <time>2022-09-26T13:26:14.915+02:00[Europe/Madrid]</time>
      </trkpt>
      <trkpt lat="36.906171" lon="-5.556559">
        <ele>215.0</ele>
        <time>2022-09-26T13:26:15.915+02:00[Europe/Madrid]</time>
      </trkpt>
      <trkpt lat="36.906407" lon="-5.556467">
        <ele>215.0</ele>
        <time>2022-09-26T13:26:16.915+02:00[Europe/Madrid]</time>
      </trkpt>
      <trkpt lat="36.90663" lon="-5.556378">
        <ele>215.0</ele>
        <time>2022-09-26T13:26:17.915+02:00[Europe/Madrid]</time>
      </trkpt>
      <trkpt lat="36.906848" lon="-5.55629">
        <ele>214.0</ele>
        <time>2022-09-26T13:26:18.915+02:00[Europe/Madrid]</time>
      </trkpt>
      <trkpt lat="36.907055" lon="-5.556211">
        <ele>214.0</ele>
        <time>2022-09-26T13:26:19.915+02:00[Europe/Madrid]</time>
      </trkpt>
      <trkpt lat="36.907254" lon="-5.556128">
        <ele>213.0</ele>
        <time>2022-09-26T13:26:20.915+02:00[Europe/Madrid]</time>
      </trkpt>
      <trkpt lat="36.907448" lon="-5.556055">
        <ele>213.0</ele>
        <time>2022-09-26T13:26:21.915+02:00[Europe/Madrid]</time>
      </trkpt>
      <trkpt lat="36.907634" lon="-5.555985">
        <ele>213.0</ele>
        <time>2022-09-26T13:26:22.915+02:00[Europe/Madrid]</time>
      </trkpt>
      <trkpt lat="36.907809" lon="-5.555914">
        <ele>212.0</ele>
        <time>2022-09-26T13:26:23.915+02:00[Europe/Madrid]</time>
      </trkpt>
      <trkpt lat="36.907981" lon="-5.555835">
        <ele>212.0</ele>
        <time>2022-09-26T13:26:24.915+02:00[Europe/Madrid]</time>
      </trkpt>
      <trkpt lat="36.908155" lon="-5.555738">
        <ele>212.0</ele>
        <time>2022-09-26T13:26:25.915+02:00[Europe/Madrid]</time>
      </trkpt>
      <trkpt lat="36.908338" lon="-5.555621">
        <ele>212.0</ele>
        <time>2022-09-26T13:26:26.915+02:00[Europe/Madrid]</time>
      </trkpt>
      <trkpt lat="36.908526" lon="-5.555488">
        <ele>211.0</ele>
        <time>2022-09-26T13:26:27.915+02:00[Europe/Madrid]</time>
      </trkpt>
      <trkpt lat="36.908717" lon="-5.555351">
        <ele>211.0</ele>
        <time>2022-09-26T13:26:28.915+02:00[Europe/Madrid]</time>
      </trkpt>
      <trkpt lat="36.908903" lon="-5.55522">
        <ele>211.0</ele>
        <time>2022-09-26T13:26:29.915+02:00[Europe/Madrid]</time>
      </trkpt>
      <trkpt lat="36.909081" lon="-5.555094">
        <ele>211.0</ele>
        <time>2022-09-26T13:26:30.915+02:00[Europe/Madrid]</time>
      </trkpt>
      <trkpt lat="36.90925" lon="-5.554975">
        <ele>211.0</ele>
        <time>2022-09-26T13:26:31.915+02:00[Europe/Madrid]</time>
      </trkpt>
      <trkpt lat="36.909411" lon="-5.55486">
        <ele>211.0</ele>
        <time>2022-09-26T13:26:32.915+02:00[Europe/Madrid]</time>
      </trkpt>
      <trkpt lat="36.909564" lon="-5.554752">
        <ele>211.0</ele>
        <time>2022-09-26T13:26:33.915+02:00[Europe/Madrid]</time>
      </trkpt>
      <trkpt lat="36.909712" lon="-5.554643">
        <ele>211.0</ele>
        <time>2022-09-26T13:26:34.915+02:00[Europe/Madrid]</time>
      </trkpt>
      <trkpt lat="36.909852" lon="-5.554545">
        <ele>211.0</ele>
        <time>2022-09-26T13:26:35.915+02:00[Europe/Madrid]</time>
      </trkpt>
      <trkpt lat="36.909982" lon="-5.554447">
        <ele>211.0</ele>
        <time>2022-09-26T13:26:36.915+02:00[Europe/Madrid]</time>
      </trkpt>
      <trkpt lat="36.910106" lon="-5.55436">
        <ele>211.0</ele>
        <time>2022-09-26T13:26:37.915+02:00[Europe/Madrid]</time>
      </trkpt>
      <trkpt lat="36.910225" lon="-5.55428">
        <ele>211.0</ele>
        <time>2022-09-26T13:26:38.915+02:00[Europe/Madrid]</time>
      </trkpt>
      <trkpt lat="36.91034" lon="-5.554201">
        <ele>211.0</ele>
        <time>2022-09-26T13:26:39.915+02:00[Europe/Madrid]</time>
      </trkpt>
      <trkpt lat="36.910448" lon="-5.554121">
        <ele>211.0</ele>
        <time>2022-09-26T13:26:40.915+02:00[Europe/Madrid]</time>
      </trkpt>
      <trkpt lat="36.910543" lon="-5.554044">
        <ele>211.0</ele>
        <time>2022-09-26T13:26:41.915+02:00[Europe/Madrid]</time>
      </trkpt>
      <trkpt lat="36.910628" lon="-5.553972">
        <ele>211.0</ele>
        <time>2022-09-26T13:26:42.915+02:00[Europe/Madrid]</time>
      </trkpt>
      <trkpt lat="36.910697" lon="-5.553898">
        <ele>211.0</ele>
        <time>2022-09-26T13:26:43.915+02:00[Europe/Madrid]</time>
      </trkpt>
      <trkpt lat="36.910794" lon="-5.553731">
        <ele>211.0</ele>
        <time>2022-09-26T13:26:45.895+02:00[Europe/Madrid]</time>
      </trkpt>
      <trkpt lat="36.910852" lon="-5.553535">
        <ele>212.0</ele>
        <time>2022-09-26T13:26:47.895+02:00[Europe/Madrid]</time>
      </trkpt>
      <trkpt lat="36.910952" lon="-5.553389">
        <ele>213.0</ele>
        <time>2022-09-26T13:26:49.888+02:00[Europe/Madrid]</time>
      </trkpt>
      <trkpt lat="36.911095" lon="-5.553352">
        <ele>214.0</ele>
        <time>2022-09-26T13:26:51.893+02:00[Europe/Madrid]</time>
      </trkpt>
      <trkpt lat="36.911264" lon="-5.553382">
        <ele>214.0</ele>
        <time>2022-09-26T13:26:53.893+02:00[Europe/Madrid]</time>
      </trkpt>
      <trkpt lat="36.911364" lon="-5.553383">
        <ele>215.0</ele>
        <time>2022-09-26T13:26:54.893+02:00[Europe/Madrid]</time>
      </trkpt>
      <trkpt lat="36.911465" lon="-5.553361">
        <ele>215.0</ele>
        <time>2022-09-26T13:26:55.896+02:00[Europe/Madrid]</time>
      </trkpt>
      <trkpt lat="36.91157" lon="-5.55332">
        <ele>216.0</ele>
        <time>2022-09-26T13:26:56.898+02:00[Europe/Madrid]</time>
      </trkpt>
      <trkpt lat="36.911673" lon="-5.55327">
        <ele>217.0</ele>
        <time>2022-09-26T13:26:57.900+02:00[Europe/Madrid]</time>
      </trkpt>
      <trkpt lat="36.911766" lon="-5.553225">
        <ele>218.0</ele>
        <time>2022-09-26T13:26:58.900+02:00[Europe/Madrid]</time>
      </trkpt>
      <trkpt lat="36.911851" lon="-5.553186">
        <ele>218.0</ele>
        <time>2022-09-26T13:26:59.900+02:00[Europe/Madrid]</time>
      </trkpt>
      <trkpt lat="36.912008" lon="-5.553112">
        <ele>218.0</ele>
        <time>2022-09-26T13:27:01.887+02:00[Europe/Madrid]</time>
      </trkpt>
      <trkpt lat="36.912168" lon="-5.553028">
        <ele>219.0</ele>
        <time>2022-09-26T13:27:03.895+02:00[Europe/Madrid]</time>
      </trkpt>
      <trkpt lat="36.912253" lon="-5.552978">
        <ele>218.0</ele>
        <time>2022-09-26T13:27:04.895+02:00[Europe/Madrid]</time>
      </trkpt>
      <trkpt lat="36.912345" lon="-5.552916">
        <ele>219.0</ele>
        <time>2022-09-26T13:27:05.895+02:00[Europe/Madrid]</time>
      </trkpt>
      <trkpt lat="36.91244" lon="-5.552851">
        <ele>219.0</ele>
        <time>2022-09-26T13:27:06.899+02:00[Europe/Madrid]</time>
      </trkpt>
      <trkpt lat="36.91254" lon="-5.552779">
        <ele>219.0</ele>
        <time>2022-09-26T13:27:07.906+02:00[Europe/Madrid]</time>
      </trkpt>
      <trkpt lat="36.912638" lon="-5.552699">
        <ele>219.0</ele>
        <time>2022-09-26T13:27:08.906+02:00[Europe/Madrid]</time>
      </trkpt>
      <trkpt lat="36.912731" lon="-5.552615">
        <ele>218.0</ele>
        <time>2022-09-26T13:27:09.906+02:00[Europe/Madrid]</time>
      </trkpt>
      <trkpt lat="36.912822" lon="-5.552528">
        <ele>217.0</ele>
        <time>2022-09-26T13:27:10.906+02:00[Europe/Madrid]</time>
      </trkpt>
      <trkpt lat="36.912909" lon="-5.552442">
        <ele>216.0</ele>
        <time>2022-09-26T13:27:11.906+02:00[Europe/Madrid]</time>
      </trkpt>
      <trkpt lat="36.912987" lon="-5.55236">
        <ele>216.0</ele>
        <time>2022-09-26T13:27:12.906+02:00[Europe/Madrid]</time>
      </trkpt>
      <trkpt lat="36.913062" lon="-5.552281">
        <ele>216.0</ele>
        <time>2022-09-26T13:27:13.906+02:00[Europe/Madrid]</time>
      </trkpt>
      <trkpt lat="36.913135" lon="-5.5522">
        <ele>215.0</ele>
        <time>2022-09-26T13:27:14.906+02:00[Europe/Madrid]</time>
      </trkpt>
      <trkpt lat="36.913199" lon="-5.552115">
        <ele>215.0</ele>
        <time>2022-09-26T13:27:15.906+02:00[Europe/Madrid]</time>
      </trkpt>
      <trkpt lat="36.913292" lon="-5.551967">
        <ele>214.0</ele>
        <time>2022-09-26T13:27:17.892+02:00[Europe/Madrid]</time>
      </trkpt>
      <trkpt lat="36.913348" lon="-5.551802">
        <ele>214.0</ele>
        <time>2022-09-26T13:27:19.898+02:00[Europe/Madrid]</time>
      </trkpt>
      <trkpt lat="36.913349" lon="-5.551573">
        <ele>214.0</ele>
        <time>2022-09-26T13:27:21.891+02:00[Europe/Madrid]</time>
      </trkpt>
      <trkpt lat="36.91332" lon="-5.551457">
        <ele>214.0</ele>
        <time>2022-09-26T13:27:22.916+02:00[Europe/Madrid]</time>
      </trkpt>
      <trkpt lat="36.913276" lon="-5.551353">
        <ele>214.0</ele>
        <time>2022-09-26T13:27:23.916+02:00[Europe/Madrid]</time>
      </trkpt>
      <trkpt lat="36.91321" lon="-5.551264">
        <ele>215.0</ele>
        <time>2022-09-26T13:27:24.916+02:00[Europe/Madrid]</time>
      </trkpt>
      <trkpt lat="36.91313" lon="-5.551195">
        <ele>215.0</ele>
        <time>2022-09-26T13:27:25.916+02:00[Europe/Madrid]</time>
      </trkpt>
      <trkpt lat="36.913033" lon="-5.551149">
        <ele>216.0</ele>
        <time>2022-09-26T13:27:26.916+02:00[Europe/Madrid]</time>
      </trkpt>
      <trkpt lat="36.912925" lon="-5.551126">
        <ele>217.0</ele>
        <time>2022-09-26T13:27:27.916+02:00[Europe/Madrid]</time>
      </trkpt>
      <trkpt lat="36.91281" lon="-5.551122">
        <ele>217.0</ele>
        <time>2022-09-26T13:27:28.916+02:00[Europe/Madrid]</time>
      </trkpt>
      <trkpt lat="36.912701" lon="-5.551137">
        <ele>217.0</ele>
        <time>2022-09-26T13:27:29.916+02:00[Europe/Madrid]</time>
      </trkpt>
      <trkpt lat="36.912599" lon="-5.551171">
        <ele>217.0</ele>
        <time>2022-09-26T13:27:30.916+02:00[Europe/Madrid]</time>
      </trkpt>
      <trkpt lat="36.912495" lon="-5.551233">
        <ele>217.0</ele>
        <time>2022-09-26T13:27:31.916+02:00[Europe/Madrid]</time>
      </trkpt>
      <trkpt lat="36.912393" lon="-5.55132">
        <ele>217.0</ele>
        <time>2022-09-26T13:27:32.916+02:00[Europe/Madrid]</time>
      </trkpt>
      <trkpt lat="36.912297" lon="-5.5514">
        <ele>217.0</ele>
        <time>2022-09-26T13:27:33.916+02:00[Europe/Madrid]</time>
      </trkpt>
      <trkpt lat="36.912201" lon="-5.551479">
        <ele>217.0</ele>
        <time>2022-09-26T13:27:34.916+02:00[Europe/Madrid]</time>
      </trkpt>
      <trkpt lat="36.912111" lon="-5.551554">
        <ele>216.0</ele>
        <time>2022-09-26T13:27:35.916+02:00[Europe/Madrid]</time>
      </trkpt>
      <trkpt lat="36.912027" lon="-5.551627">
        <ele>216.0</ele>
        <time>2022-09-26T13:27:36.916+02:00[Europe/Madrid]</time>
      </trkpt>
      <trkpt lat="36.911949" lon="-5.551698">
        <ele>216.0</ele>
        <time>2022-09-26T13:27:37.916+02:00[Europe/Madrid]</time>
      </trkpt>
      <trkpt lat="36.911887" lon="-5.551782">
        <ele>216.0</ele>
        <time>2022-09-26T13:27:38.916+02:00[Europe/Madrid]</time>
      </trkpt>
      <trkpt lat="36.911821" lon="-5.551982">
        <ele>215.0</ele>
        <time>2022-09-26T13:27:40.897+02:00[Europe/Madrid]</time>
      </trkpt>
      <trkpt lat="36.911858" lon="-5.5522">
        <ele>214.0</ele>
        <time>2022-09-26T13:27:42.895+02:00[Europe/Madrid]</time>
      </trkpt>
      <trkpt lat="36.911912" lon="-5.552305">
        <ele>213.0</ele>
        <time>2022-09-26T13:27:43.895+02:00[Europe/Madrid]</time>
      </trkpt>
      <trkpt lat="36.911986" lon="-5.55242">
        <ele>213.0</ele>
        <time>2022-09-26T13:27:44.895+02:00[Europe/Madrid]</time>
      </trkpt>
      <trkpt lat="36.912066" lon="-5.552533">
        <ele>212.0</ele>
        <time>2022-09-26T13:27:45.896+02:00[Europe/Madrid]</time>
      </trkpt>
      <trkpt lat="36.91215" lon="-5.552662">
        <ele>212.0</ele>
        <time>2022-09-26T13:27:46.896+02:00[Europe/Madrid]</time>
      </trkpt>
      <trkpt lat="36.912246" lon="-5.552816">
        <ele>212.0</ele>
        <time>2022-09-26T13:27:47.896+02:00[Europe/Madrid]</time>
      </trkpt>
      <trkpt lat="36.912348" lon="-5.552979">
        <ele>211.0</ele>
        <time>2022-09-26T13:27:48.896+02:00[Europe/Madrid]</time>
      </trkpt>
      <trkpt lat="36.912455" lon="-5.553148">
        <ele>211.0</ele>
        <time>2022-09-26T13:27:49.896+02:00[Europe/Madrid]</time>
      </trkpt>
      <trkpt lat="36.912563" lon="-5.553304">
        <ele>211.0</ele>
        <time>2022-09-26T13:27:50.896+02:00[Europe/Madrid]</time>
      </trkpt>
      <trkpt lat="36.912674" lon="-5.553452">
        <ele>211.0</ele>
        <time>2022-09-26T13:27:51.896+02:00[Europe/Madrid]</time>
      </trkpt>
      <trkpt lat="36.912791" lon="-5.553599">
        <ele>210.0</ele>
        <time>2022-09-26T13:27:52.896+02:00[Europe/Madrid]</time>
      </trkpt>
      <trkpt lat="36.912912" lon="-5.553752">
        <ele>210.0</ele>
        <time>2022-09-26T13:27:53.900+02:00[Europe/Madrid]</time>
      </trkpt>
      <trkpt lat="36.913043" lon="-5.553912">
        <ele>209.0</ele>
        <time>2022-09-26T13:27:54.900+02:00[Europe/Madrid]</time>
      </trkpt>
      <trkpt lat="36.913178" lon="-5.554072">
        <ele>209.0</ele>
        <time>2022-09-26T13:27:55.900+02:00[Europe/Madrid]</time>
      </trkpt>
      <trkpt lat="36.913312" lon="-5.554236">
        <ele>209.0</ele>
        <time>2022-09-26T13:27:56.903+02:00[Europe/Madrid]</time>
      </trkpt>
      <trkpt lat="36.913448" lon="-5.554398">
        <ele>209.0</ele>
        <time>2022-09-26T13:27:57.903+02:00[Europe/Madrid]</time>
      </trkpt>
      <trkpt lat="36.913582" lon="-5.554549">
        <ele>209.0</ele>
        <time>2022-09-26T13:27:58.903+02:00[Europe/Madrid]</time>
      </trkpt>
      <trkpt lat="36.913715" lon="-5.554689">
        <ele>209.0</ele>
        <time>2022-09-26T13:27:59.903+02:00[Europe/Madrid]</time>
      </trkpt>
      <trkpt lat="36.913848" lon="-5.554831">
        <ele>209.0</ele>
        <time>2022-09-26T13:28:00.903+02:00[Europe/Madrid]</time>
      </trkpt>
      <trkpt lat="36.913984" lon="-5.554965">
        <ele>209.0</ele>
        <time>2022-09-26T13:28:01.903+02:00[Europe/Madrid]</time>
      </trkpt>
      <trkpt lat="36.914122" lon="-5.555097">
        <ele>208.0</ele>
        <time>2022-09-26T13:28:02.903+02:00[Europe/Madrid]</time>
      </trkpt>
      <trkpt lat="36.914264" lon="-5.555233">
        <ele>207.0</ele>
        <time>2022-09-26T13:28:03.903+02:00[Europe/Madrid]</time>
      </trkpt>
      <trkpt lat="36.914409" lon="-5.555374">
        <ele>207.0</ele>
        <time>2022-09-26T13:28:04.903+02:00[Europe/Madrid]</time>
      </trkpt>
      <trkpt lat="36.91456" lon="-5.555511">
        <ele>206.0</ele>
        <time>2022-09-26T13:28:05.903+02:00[Europe/Madrid]</time>
      </trkpt>
      <trkpt lat="36.914716" lon="-5.555651">
        <ele>206.0</ele>
        <time>2022-09-26T13:28:06.903+02:00[Europe/Madrid]</time>
      </trkpt>
      <trkpt lat="36.914876" lon="-5.55579">
        <ele>206.0</ele>
        <time>2022-09-26T13:28:07.903+02:00[Europe/Madrid]</time>
      </trkpt>
      <trkpt lat="36.915043" lon="-5.555926">
        <ele>206.0</ele>
        <time>2022-09-26T13:28:08.904+02:00[Europe/Madrid]</time>
      </trkpt>
      <trkpt lat="36.91521" lon="-5.556062">
        <ele>206.0</ele>
        <time>2022-09-26T13:28:09.904+02:00[Europe/Madrid]</time>
      </trkpt>
      <trkpt lat="36.915383" lon="-5.556197">
        <ele>205.0</ele>
        <time>2022-09-26T13:28:10.904+02:00[Europe/Madrid]</time>
      </trkpt>
      <trkpt lat="36.915557" lon="-5.55633">
        <ele>205.0</ele>
        <time>2022-09-26T13:28:11.904+02:00[Europe/Madrid]</time>
      </trkpt>
      <trkpt lat="36.915738" lon="-5.556462">
        <ele>204.0</ele>
        <time>2022-09-26T13:28:12.904+02:00[Europe/Madrid]</time>
      </trkpt>
      <trkpt lat="36.915918" lon="-5.55659">
        <ele>204.0</ele>
        <time>2022-09-26T13:28:13.904+02:00[Europe/Madrid]</time>
      </trkpt>
      <trkpt lat="36.916099" lon="-5.556714">
        <ele>204.0</ele>
        <time>2022-09-26T13:28:14.904+02:00[Europe/Madrid]</time>
      </trkpt>
      <trkpt lat="36.916283" lon="-5.556834">
        <ele>204.0</ele>
        <time>2022-09-26T13:28:15.904+02:00[Europe/Madrid]</time>
      </trkpt>
      <trkpt lat="36.916467" lon="-5.55695">
        <ele>203.0</ele>
        <time>2022-09-26T13:28:16.919+02:00[Europe/Madrid]</time>
      </trkpt>
      <trkpt lat="36.916658" lon="-5.557063">
        <ele>203.0</ele>
        <time>2022-09-26T13:28:17.919+02:00[Europe/Madrid]</time>
      </trkpt>
      <trkpt lat="36.91685" lon="-5.557173">
        <ele>202.0</ele>
        <time>2022-09-26T13:28:18.919+02:00[Europe/Madrid]</time>
      </trkpt>
      <trkpt lat="36.917038" lon="-5.557278">
        <ele>202.0</ele>
        <time>2022-09-26T13:28:19.919+02:00[Europe/Madrid]</time>
      </trkpt>
      <trkpt lat="36.91722" lon="-5.557378">
        <ele>202.0</ele>
        <time>2022-09-26T13:28:20.919+02:00[Europe/Madrid]</time>
      </trkpt>
      <trkpt lat="36.917397" lon="-5.557466">
        <ele>202.0</ele>
        <time>2022-09-26T13:28:21.919+02:00[Europe/Madrid]</time>
      </trkpt>
      <trkpt lat="36.917572" lon="-5.557551">
        <ele>202.0</ele>
        <time>2022-09-26T13:28:22.919+02:00[Europe/Madrid]</time>
      </trkpt>
      <trkpt lat="36.917751" lon="-5.557638">
        <ele>201.0</ele>
        <time>2022-09-26T13:28:23.919+02:00[Europe/Madrid]</time>
      </trkpt>
      <trkpt lat="36.917933" lon="-5.55772">
        <ele>201.0</ele>
        <time>2022-09-26T13:28:24.919+02:00[Europe/Madrid]</time>
      </trkpt>
      <trkpt lat="36.918121" lon="-5.557802">
        <ele>201.0</ele>
        <time>2022-09-26T13:28:25.919+02:00[Europe/Madrid]</time>
      </trkpt>
      <trkpt lat="36.918311" lon="-5.557885">
        <ele>200.0</ele>
        <time>2022-09-26T13:28:26.919+02:00[Europe/Madrid]</time>
      </trkpt>
      <trkpt lat="36.918506" lon="-5.557963">
        <ele>199.0</ele>
        <time>2022-09-26T13:28:27.919+02:00[Europe/Madrid]</time>
      </trkpt>
      <trkpt lat="36.918707" lon="-5.558037">
        <ele>199.0</ele>
        <time>2022-09-26T13:28:28.919+02:00[Europe/Madrid]</time>
      </trkpt>
      <trkpt lat="36.918907" lon="-5.558108">
        <ele>198.0</ele>
        <time>2022-09-26T13:28:29.919+02:00[Europe/Madrid]</time>
      </trkpt>
      <trkpt lat="36.919101" lon="-5.558171">
        <ele>198.0</ele>
        <time>2022-09-26T13:28:30.919+02:00[Europe/Madrid]</time>
      </trkpt>
      <trkpt lat="36.91929" lon="-5.558228">
        <ele>197.0</ele>
        <time>2022-09-26T13:28:31.919+02:00[Europe/Madrid]</time>
      </trkpt>
      <trkpt lat="36.919473" lon="-5.558282">
        <ele>196.0</ele>
        <time>2022-09-26T13:28:32.919+02:00[Europe/Madrid]</time>
      </trkpt>
      <trkpt lat="36.919649" lon="-5.558332">
        <ele>196.0</ele>
        <time>2022-09-26T13:28:33.919+02:00[Europe/Madrid]</time>
      </trkpt>
      <trkpt lat="36.919821" lon="-5.558378">
        <ele>195.0</ele>
        <time>2022-09-26T13:28:34.919+02:00[Europe/Madrid]</time>
      </trkpt>
      <trkpt lat="36.919993" lon="-5.558423">
        <ele>194.0</ele>
        <time>2022-09-26T13:28:35.919+02:00[Europe/Madrid]</time>
      </trkpt>
      <trkpt lat="36.920176" lon="-5.558465">
        <ele>193.0</ele>
        <time>2022-09-26T13:28:36.919+02:00[Europe/Madrid]</time>
      </trkpt>
      <trkpt lat="36.920373" lon="-5.558506">
        <ele>193.0</ele>
        <time>2022-09-26T13:28:37.919+02:00[Europe/Madrid]</time>
      </trkpt>
      <trkpt lat="36.920592" lon="-5.558542">
        <ele>192.0</ele>
        <time>2022-09-26T13:28:38.919+02:00[Europe/Madrid]</time>
      </trkpt>
      <trkpt lat="36.920825" lon="-5.558581">
        <ele>191.0</ele>
        <time>2022-09-26T13:28:39.919+02:00[Europe/Madrid]</time>
      </trkpt>
      <trkpt lat="36.921074" lon="-5.558619">
        <ele>190.0</ele>
        <time>2022-09-26T13:28:40.919+02:00[Europe/Madrid]</time>
      </trkpt>
      <trkpt lat="36.921334" lon="-5.558654">
        <ele>190.0</ele>
        <time>2022-09-26T13:28:41.919+02:00[Europe/Madrid]</time>
      </trkpt>
      <trkpt lat="36.9216" lon="-5.558679">
        <ele>189.0</ele>
        <time>2022-09-26T13:28:42.919+02:00[Europe/Madrid]</time>
      </trkpt>
      <trkpt lat="36.921868" lon="-5.5587">
        <ele>188.0</ele>
        <time>2022-09-26T13:28:43.919+02:00[Europe/Madrid]</time>
      </trkpt>
      <trkpt lat="36.922131" lon="-5.558709">
        <ele>188.0</ele>
        <time>2022-09-26T13:28:44.919+02:00[Europe/Madrid]</time>
      </trkpt>
      <trkpt lat="36.922398" lon="-5.558709">
        <ele>187.0</ele>
        <time>2022-09-26T13:28:45.919+02:00[Europe/Madrid]</time>
      </trkpt>
      <trkpt lat="36.922664" lon="-5.558703">
        <ele>187.0</ele>
        <time>2022-09-26T13:28:46.919+02:00[Europe/Madrid]</time>
      </trkpt>
      <trkpt lat="36.922931" lon="-5.558696">
        <ele>188.0</ele>
        <time>2022-09-26T13:28:47.919+02:00[Europe/Madrid]</time>
      </trkpt>
      <trkpt lat="36.923197" lon="-5.558684">
        <ele>189.0</ele>
        <time>2022-09-26T13:28:48.919+02:00[Europe/Madrid]</time>
      </trkpt>
      <trkpt lat="36.923457" lon="-5.558667">
        <ele>189.0</ele>
        <time>2022-09-26T13:28:49.919+02:00[Europe/Madrid]</time>
      </trkpt>
      <trkpt lat="36.92372" lon="-5.558652">
        <ele>190.0</ele>
        <time>2022-09-26T13:28:50.919+02:00[Europe/Madrid]</time>
      </trkpt>
      <trkpt lat="36.923984" lon="-5.558632">
        <ele>191.0</ele>
        <time>2022-09-26T13:28:51.919+02:00[Europe/Madrid]</time>
      </trkpt>
      <trkpt lat="36.924245" lon="-5.558604">
        <ele>192.0</ele>
        <time>2022-09-26T13:28:52.919+02:00[Europe/Madrid]</time>
      </trkpt>
      <trkpt lat="36.924502" lon="-5.558591">
        <ele>193.0</ele>
        <time>2022-09-26T13:28:53.919+02:00[Europe/Madrid]</time>
      </trkpt>
      <trkpt lat="36.924759" lon="-5.558597">
        <ele>193.0</ele>
        <time>2022-09-26T13:28:54.919+02:00[Europe/Madrid]</time>
      </trkpt>
      <trkpt lat="36.925016" lon="-5.558627">
        <ele>194.0</ele>
        <time>2022-09-26T13:28:55.919+02:00[Europe/Madrid]</time>
      </trkpt>
      <trkpt lat="36.925267" lon="-5.558682">
        <ele>195.0</ele>
        <time>2022-09-26T13:28:56.919+02:00[Europe/Madrid]</time>
      </trkpt>
      <trkpt lat="36.92551" lon="-5.558763">
        <ele>196.0</ele>
        <time>2022-09-26T13:28:57.919+02:00[Europe/Madrid]</time>
      </trkpt>
      <trkpt lat="36.925747" lon="-5.55886">
        <ele>197.0</ele>
        <time>2022-09-26T13:28:58.919+02:00[Europe/Madrid]</time>
      </trkpt>
      <trkpt lat="36.925984" lon="-5.558979">
        <ele>198.0</ele>
        <time>2022-09-26T13:28:59.919+02:00[Europe/Madrid]</time>
      </trkpt>
      <trkpt lat="36.926224" lon="-5.559103">
        <ele>200.0</ele>
        <time>2022-09-26T13:29:00.919+02:00[Europe/Madrid]</time>
      </trkpt>
      <trkpt lat="36.926466" lon="-5.559231">
        <ele>201.0</ele>
        <time>2022-09-26T13:29:01.919+02:00[Europe/Madrid]</time>
      </trkpt>
      <trkpt lat="36.926696" lon="-5.55936">
        <ele>202.0</ele>
        <time>2022-09-26T13:29:02.919+02:00[Europe/Madrid]</time>
      </trkpt>
      <trkpt lat="36.926926" lon="-5.559486">
        <ele>204.0</ele>
        <time>2022-09-26T13:29:03.919+02:00[Europe/Madrid]</time>
      </trkpt>
      <trkpt lat="36.927156" lon="-5.559611">
        <ele>205.0</ele>
        <time>2022-09-26T13:29:04.919+02:00[Europe/Madrid]</time>
      </trkpt>
      <trkpt lat="36.927388" lon="-5.559733">
        <ele>206.0</ele>
        <time>2022-09-26T13:29:05.919+02:00[Europe/Madrid]</time>
      </trkpt>
      <trkpt lat="36.927623" lon="-5.559854">
        <ele>207.0</ele>
        <time>2022-09-26T13:29:06.919+02:00[Europe/Madrid]</time>
      </trkpt>
      <trkpt lat="36.927854" lon="-5.559977">
        <ele>208.0</ele>
        <time>2022-09-26T13:29:07.919+02:00[Europe/Madrid]</time>
      </trkpt>
      <trkpt lat="36.928082" lon="-5.560102">
        <ele>209.0</ele>
        <time>2022-09-26T13:29:08.919+02:00[Europe/Madrid]</time>
      </trkpt>
      <trkpt lat="36.928302" lon="-5.560242">
        <ele>211.0</ele>
        <time>2022-09-26T13:29:09.919+02:00[Europe/Madrid]</time>
      </trkpt>
      <trkpt lat="36.928515" lon="-5.560402">
        <ele>212.0</ele>
        <time>2022-09-26T13:29:10.919+02:00[Europe/Madrid]</time>
      </trkpt>
      <trkpt lat="36.92872" lon="-5.560576">
        <ele>213.0</ele>
        <time>2022-09-26T13:29:11.919+02:00[Europe/Madrid]</time>
      </trkpt>
      <trkpt lat="36.928918" lon="-5.560764">
        <ele>214.0</ele>
        <time>2022-09-26T13:29:12.919+02:00[Europe/Madrid]</time>
      </trkpt>
      <trkpt lat="36.929107" lon="-5.560967">
        <ele>215.0</ele>
        <time>2022-09-26T13:29:13.919+02:00[Europe/Madrid]</time>
      </trkpt>
      <trkpt lat="36.929289" lon="-5.561181">
        <ele>216.0</ele>
        <time>2022-09-26T13:29:14.919+02:00[Europe/Madrid]</time>
      </trkpt>
      <trkpt lat="36.929455" lon="-5.561415">
        <ele>217.0</ele>
        <time>2022-09-26T13:29:15.919+02:00[Europe/Madrid]</time>
      </trkpt>
      <trkpt lat="36.929607" lon="-5.561665">
        <ele>218.0</ele>
        <time>2022-09-26T13:29:16.919+02:00[Europe/Madrid]</time>
      </trkpt>
      <trkpt lat="36.929748" lon="-5.561929">
        <ele>219.0</ele>
        <time>2022-09-26T13:29:17.919+02:00[Europe/Madrid]</time>
      </trkpt>
      <trkpt lat="36.929874" lon="-5.562209">
        <ele>221.0</ele>
        <time>2022-09-26T13:29:18.919+02:00[Europe/Madrid]</time>
      </trkpt>
      <trkpt lat="36.929989" lon="-5.562502">
        <ele>222.0</ele>
        <time>2022-09-26T13:29:19.919+02:00[Europe/Madrid]</time>
      </trkpt>
      <trkpt lat="36.930089" lon="-5.562798">
        <ele>223.0</ele>
        <time>2022-09-26T13:29:20.919+02:00[Europe/Madrid]</time>
      </trkpt>
      <trkpt lat="36.930171" lon="-5.563095">
        <ele>223.0</ele>
        <time>2022-09-26T13:29:21.919+02:00[Europe/Madrid]</time>
      </trkpt>
      <trkpt lat="36.930238" lon="-5.563397">
        <ele>224.0</ele>
        <time>2022-09-26T13:29:22.919+02:00[Europe/Madrid]</time>
      </trkpt>
      <trkpt lat="36.930287" lon="-5.563704">
        <ele>225.0</ele>
        <time>2022-09-26T13:29:23.919+02:00[Europe/Madrid]</time>
      </trkpt>
      <trkpt lat="36.930326" lon="-5.564002">
        <ele>225.0</ele>
        <time>2022-09-26T13:29:24.919+02:00[Europe/Madrid]</time>
      </trkpt>
      <trkpt lat="36.930354" lon="-5.564297">
        <ele>225.0</ele>
        <time>2022-09-26T13:29:25.919+02:00[Europe/Madrid]</time>
      </trkpt>
      <trkpt lat="36.930377" lon="-5.564589">
        <ele>225.0</ele>
        <time>2022-09-26T13:29:26.919+02:00[Europe/Madrid]</time>
      </trkpt>
      <trkpt lat="36.930405" lon="-5.564881">
        <ele>225.0</ele>
        <time>2022-09-26T13:29:27.919+02:00[Europe/Madrid]</time>
      </trkpt>
      <trkpt lat="36.930445" lon="-5.565176">
        <ele>224.0</ele>
        <time>2022-09-26T13:29:28.919+02:00[Europe/Madrid]</time>
      </trkpt>
      <trkpt lat="36.930497" lon="-5.56547">
        <ele>223.0</ele>
        <time>2022-09-26T13:29:29.919+02:00[Europe/Madrid]</time>
      </trkpt>
      <trkpt lat="36.930564" lon="-5.565765">
        <ele>222.0</ele>
        <time>2022-09-26T13:29:30.919+02:00[Europe/Madrid]</time>
      </trkpt>
      <trkpt lat="36.930649" lon="-5.566046">
        <ele>221.0</ele>
        <time>2022-09-26T13:29:31.919+02:00[Europe/Madrid]</time>
      </trkpt>
      <trkpt lat="36.930752" lon="-5.566311">
        <ele>220.0</ele>
        <time>2022-09-26T13:29:32.919+02:00[Europe/Madrid]</time>
      </trkpt>
      <trkpt lat="36.930869" lon="-5.566567">
        <ele>219.0</ele>
        <time>2022-09-26T13:29:33.919+02:00[Europe/Madrid]</time>
      </trkpt>
      <trkpt lat="36.930989" lon="-5.56681">
        <ele>218.0</ele>
        <time>2022-09-26T13:29:34.919+02:00[Europe/Madrid]</time>
      </trkpt>
      <trkpt lat="36.931108" lon="-5.567046">
        <ele>218.0</ele>
        <time>2022-09-26T13:29:35.919+02:00[Europe/Madrid]</time>
      </trkpt>
      <trkpt lat="36.931221" lon="-5.567274">
        <ele>217.0</ele>
        <time>2022-09-26T13:29:36.919+02:00[Europe/Madrid]</time>
      </trkpt>
      <trkpt lat="36.931338" lon="-5.567504">
        <ele>216.0</ele>
        <time>2022-09-26T13:29:37.919+02:00[Europe/Madrid]</time>
      </trkpt>
      <trkpt lat="36.931458" lon="-5.567734">
        <ele>215.0</ele>
        <time>2022-09-26T13:29:38.919+02:00[Europe/Madrid]</time>
      </trkpt>
      <trkpt lat="36.931577" lon="-5.567959">
        <ele>214.0</ele>
        <time>2022-09-26T13:29:39.919+02:00[Europe/Madrid]</time>
      </trkpt>
      <trkpt lat="36.931696" lon="-5.568181">
        <ele>214.0</ele>
        <time>2022-09-26T13:29:40.919+02:00[Europe/Madrid]</time>
      </trkpt>
      <trkpt lat="36.931817" lon="-5.568406">
        <ele>213.0</ele>
        <time>2022-09-26T13:29:41.919+02:00[Europe/Madrid]</time>
      </trkpt>
      <trkpt lat="36.931939" lon="-5.568626">
        <ele>213.0</ele>
        <time>2022-09-26T13:29:42.919+02:00[Europe/Madrid]</time>
      </trkpt>
      <trkpt lat="36.932067" lon="-5.568845">
        <ele>213.0</ele>
        <time>2022-09-26T13:29:43.919+02:00[Europe/Madrid]</time>
      </trkpt>
      <trkpt lat="36.932194" lon="-5.569055">
        <ele>213.0</ele>
        <time>2022-09-26T13:29:44.919+02:00[Europe/Madrid]</time>
      </trkpt>
      <trkpt lat="36.932325" lon="-5.569265">
        <ele>213.0</ele>
        <time>2022-09-26T13:29:45.919+02:00[Europe/Madrid]</time>
      </trkpt>
      <trkpt lat="36.932459" lon="-5.569464">
        <ele>214.0</ele>
        <time>2022-09-26T13:29:46.919+02:00[Europe/Madrid]</time>
      </trkpt>
      <trkpt lat="36.932596" lon="-5.569657">
        <ele>214.0</ele>
        <time>2022-09-26T13:29:47.919+02:00[Europe/Madrid]</time>
      </trkpt>
      <trkpt lat="36.932731" lon="-5.569842">
        <ele>214.0</ele>
        <time>2022-09-26T13:29:48.919+02:00[Europe/Madrid]</time>
      </trkpt>
      <trkpt lat="36.932864" lon="-5.570016">
        <ele>215.0</ele>
        <time>2022-09-26T13:29:49.919+02:00[Europe/Madrid]</time>
      </trkpt>
      <trkpt lat="36.932989" lon="-5.570175">
        <ele>215.0</ele>
        <time>2022-09-26T13:29:50.919+02:00[Europe/Madrid]</time>
      </trkpt>
      <trkpt lat="36.933109" lon="-5.570323">
        <ele>216.0</ele>
        <time>2022-09-26T13:29:51.919+02:00[Europe/Madrid]</time>
      </trkpt>
      <trkpt lat="36.933223" lon="-5.570461">
        <ele>216.0</ele>
        <time>2022-09-26T13:29:52.919+02:00[Europe/Madrid]</time>
      </trkpt>
      <trkpt lat="36.933343" lon="-5.570596">
        <ele>216.0</ele>
        <time>2022-09-26T13:29:53.919+02:00[Europe/Madrid]</time>
      </trkpt>
      <trkpt lat="36.933466" lon="-5.570734">
        <ele>217.0</ele>
        <time>2022-09-26T13:29:54.919+02:00[Europe/Madrid]</time>
      </trkpt>
      <trkpt lat="36.933594" lon="-5.570875">
        <ele>217.0</ele>
        <time>2022-09-26T13:29:55.919+02:00[Europe/Madrid]</time>
      </trkpt>
      <trkpt lat="36.933729" lon="-5.571022">
        <ele>218.0</ele>
        <time>2022-09-26T13:29:56.919+02:00[Europe/Madrid]</time>
      </trkpt>
      <trkpt lat="36.93387" lon="-5.57118">
        <ele>218.0</ele>
        <time>2022-09-26T13:29:57.919+02:00[Europe/Madrid]</time>
      </trkpt>
      <trkpt lat="36.934022" lon="-5.571341">
        <ele>219.0</ele>
        <time>2022-09-26T13:29:58.919+02:00[Europe/Madrid]</time>
      </trkpt>
      <trkpt lat="36.93417" lon="-5.571498">
        <ele>219.0</ele>
        <time>2022-09-26T13:29:59.919+02:00[Europe/Madrid]</time>
      </trkpt>
      <trkpt lat="36.934318" lon="-5.571656">
        <ele>220.0</ele>
        <time>2022-09-26T13:30:00.919+02:00[Europe/Madrid]</time>
      </trkpt>
      <trkpt lat="36.93446" lon="-5.571805">
        <ele>220.0</ele>
        <time>2022-09-26T13:30:01.919+02:00[Europe/Madrid]</time>
      </trkpt>
      <trkpt lat="36.934594" lon="-5.571949">
        <ele>220.0</ele>
        <time>2022-09-26T13:30:02.919+02:00[Europe/Madrid]</time>
      </trkpt>
      <trkpt lat="36.934721" lon="-5.572089">
        <ele>220.0</ele>
        <time>2022-09-26T13:30:03.919+02:00[Europe/Madrid]</time>
      </trkpt>
      <trkpt lat="36.934841" lon="-5.57222">
        <ele>220.0</ele>
        <time>2022-09-26T13:30:04.919+02:00[Europe/Madrid]</time>
      </trkpt>
      <trkpt lat="36.934961" lon="-5.572349">
        <ele>220.0</ele>
        <time>2022-09-26T13:30:05.919+02:00[Europe/Madrid]</time>
      </trkpt>
      <trkpt lat="36.935081" lon="-5.572478">
        <ele>220.0</ele>
        <time>2022-09-26T13:30:06.919+02:00[Europe/Madrid]</time>
      </trkpt>
      <trkpt lat="36.935197" lon="-5.572603">
        <ele>221.0</ele>
        <time>2022-09-26T13:30:07.919+02:00[Europe/Madrid]</time>
      </trkpt>
      <trkpt lat="36.935311" lon="-5.572721">
        <ele>221.0</ele>
        <time>2022-09-26T13:30:08.919+02:00[Europe/Madrid]</time>
      </trkpt>
      <trkpt lat="36.935417" lon="-5.572836">
        <ele>221.0</ele>
        <time>2022-09-26T13:30:09.919+02:00[Europe/Madrid]</time>
      </trkpt>
      <trkpt lat="36.935525" lon="-5.57295">
        <ele>221.0</ele>
        <time>2022-09-26T13:30:10.919+02:00[Europe/Madrid]</time>
      </trkpt>
      <trkpt lat="36.935631" lon="-5.573064">
        <ele>221.0</ele>
        <time>2022-09-26T13:30:11.919+02:00[Europe/Madrid]</time>
      </trkpt>
      <trkpt lat="36.935737" lon="-5.57318">
        <ele>221.0</ele>
        <time>2022-09-26T13:30:12.919+02:00[Europe/Madrid]</time>
      </trkpt>
      <trkpt lat="36.935851" lon="-5.573299">
        <ele>221.0</ele>
        <time>2022-09-26T13:30:13.919+02:00[Europe/Madrid]</time>
      </trkpt>
      <trkpt lat="36.935966" lon="-5.573426">
        <ele>221.0</ele>
        <time>2022-09-26T13:30:14.919+02:00[Europe/Madrid]</time>
      </trkpt>
      <trkpt lat="36.936086" lon="-5.573557">
        <ele>221.0</ele>
        <time>2022-09-26T13:30:15.919+02:00[Europe/Madrid]</time>
      </trkpt>
      <trkpt lat="36.936209" lon="-5.57369">
        <ele>221.0</ele>
        <time>2022-09-26T13:30:16.919+02:00[Europe/Madrid]</time>
      </trkpt>
      <trkpt lat="36.936335" lon="-5.573827">
        <ele>221.0</ele>
        <time>2022-09-26T13:30:17.919+02:00[Europe/Madrid]</time>
      </trkpt>
      <trkpt lat="36.936459" lon="-5.573956">
        <ele>221.0</ele>
        <time>2022-09-26T13:30:18.919+02:00[Europe/Madrid]</time>
      </trkpt>
      <trkpt lat="36.936577" lon="-5.574075">
        <ele>220.0</ele>
        <time>2022-09-26T13:30:19.919+02:00[Europe/Madrid]</time>
      </trkpt>
      <trkpt lat="36.936698" lon="-5.57419">
        <ele>220.0</ele>
        <time>2022-09-26T13:30:20.919+02:00[Europe/Madrid]</time>
      </trkpt>
      <trkpt lat="36.936826" lon="-5.574303">
        <ele>220.0</ele>
        <time>2022-09-26T13:30:21.919+02:00[Europe/Madrid]</time>
      </trkpt>
      <trkpt lat="36.936961" lon="-5.574412">
        <ele>220.0</ele>
        <time>2022-09-26T13:30:22.919+02:00[Europe/Madrid]</time>
      </trkpt>
      <trkpt lat="36.937105" lon="-5.574515">
        <ele>220.0</ele>
        <time>2022-09-26T13:30:23.919+02:00[Europe/Madrid]</time>
      </trkpt>
      <trkpt lat="36.937257" lon="-5.574613">
        <ele>220.0</ele>
        <time>2022-09-26T13:30:24.919+02:00[Europe/Madrid]</time>
      </trkpt>
      <trkpt lat="36.937416" lon="-5.574707">
        <ele>220.0</ele>
        <time>2022-09-26T13:30:25.919+02:00[Europe/Madrid]</time>
      </trkpt>
      <trkpt lat="36.937578" lon="-5.574799">
        <ele>220.0</ele>
        <time>2022-09-26T13:30:26.919+02:00[Europe/Madrid]</time>
      </trkpt>
      <trkpt lat="36.937743" lon="-5.574893">
        <ele>220.0</ele>
        <time>2022-09-26T13:30:27.919+02:00[Europe/Madrid]</time>
      </trkpt>
      <trkpt lat="36.93791" lon="-5.57499">
        <ele>220.0</ele>
        <time>2022-09-26T13:30:28.919+02:00[Europe/Madrid]</time>
      </trkpt>
      <trkpt lat="36.938083" lon="-5.575081">
        <ele>219.0</ele>
        <time>2022-09-26T13:30:29.919+02:00[Europe/Madrid]</time>
      </trkpt>
      <trkpt lat="36.938259" lon="-5.575178">
        <ele>219.0</ele>
        <time>2022-09-26T13:30:30.919+02:00[Europe/Madrid]</time>
      </trkpt>
      <trkpt lat="36.938434" lon="-5.575269">
        <ele>219.0</ele>
        <time>2022-09-26T13:30:31.919+02:00[Europe/Madrid]</time>
      </trkpt>
      <trkpt lat="36.938605" lon="-5.575362">
        <ele>219.0</ele>
        <time>2022-09-26T13:30:32.919+02:00[Europe/Madrid]</time>
      </trkpt>
      <trkpt lat="36.938778" lon="-5.575457">
        <ele>219.0</ele>
        <time>2022-09-26T13:30:33.919+02:00[Europe/Madrid]</time>
      </trkpt>
      <trkpt lat="36.938952" lon="-5.575554">
        <ele>219.0</ele>
        <time>2022-09-26T13:30:34.919+02:00[Europe/Madrid]</time>
      </trkpt>
      <trkpt lat="36.939136" lon="-5.575653">
        <ele>218.0</ele>
        <time>2022-09-26T13:30:35.919+02:00[Europe/Madrid]</time>
      </trkpt>
      <trkpt lat="36.93932" lon="-5.575752">
        <ele>218.0</ele>
        <time>2022-09-26T13:30:36.919+02:00[Europe/Madrid]</time>
      </trkpt>
      <trkpt lat="36.939508" lon="-5.575854">
        <ele>217.0</ele>
        <time>2022-09-26T13:30:37.919+02:00[Europe/Madrid]</time>
      </trkpt>
      <trkpt lat="36.939699" lon="-5.575961">
        <ele>217.0</ele>
        <time>2022-09-26T13:30:38.919+02:00[Europe/Madrid]</time>
      </trkpt>
      <trkpt lat="36.939894" lon="-5.576062">
        <ele>217.0</ele>
        <time>2022-09-26T13:30:39.919+02:00[Europe/Madrid]</time>
      </trkpt>
      <trkpt lat="36.940088" lon="-5.576168">
        <ele>216.0</ele>
        <time>2022-09-26T13:30:40.919+02:00[Europe/Madrid]</time>
      </trkpt>
      <trkpt lat="36.940283" lon="-5.576279">
        <ele>216.0</ele>
        <time>2022-09-26T13:30:41.919+02:00[Europe/Madrid]</time>
      </trkpt>
      <trkpt lat="36.940483" lon="-5.576385">
        <ele>215.0</ele>
        <time>2022-09-26T13:30:42.919+02:00[Europe/Madrid]</time>
      </trkpt>
      <trkpt lat="36.940684" lon="-5.576493">
        <ele>215.0</ele>
        <time>2022-09-26T13:30:43.919+02:00[Europe/Madrid]</time>
      </trkpt>
      <trkpt lat="36.940886" lon="-5.576605">
        <ele>214.0</ele>
        <time>2022-09-26T13:30:44.919+02:00[Europe/Madrid]</time>
      </trkpt>
      <trkpt lat="36.941084" lon="-5.576718">
        <ele>214.0</ele>
        <time>2022-09-26T13:30:45.919+02:00[Europe/Madrid]</time>
      </trkpt>
      <trkpt lat="36.941284" lon="-5.576829">
        <ele>214.0</ele>
        <time>2022-09-26T13:30:46.919+02:00[Europe/Madrid]</time>
      </trkpt>
      <trkpt lat="36.94148" lon="-5.576938">
        <ele>214.0</ele>
        <time>2022-09-26T13:30:47.919+02:00[Europe/Madrid]</time>
      </trkpt>
      <trkpt lat="36.941679" lon="-5.577048">
        <ele>213.0</ele>
        <time>2022-09-26T13:30:48.919+02:00[Europe/Madrid]</time>
      </trkpt>
      <trkpt lat="36.941876" lon="-5.577155">
        <ele>213.0</ele>
        <time>2022-09-26T13:30:49.919+02:00[Europe/Madrid]</time>
      </trkpt>
      <trkpt lat="36.942074" lon="-5.577259">
        <ele>213.0</ele>
        <time>2022-09-26T13:30:50.919+02:00[Europe/Madrid]</time>
      </trkpt>
      <trkpt lat="36.942272" lon="-5.577365">
        <ele>213.0</ele>
        <time>2022-09-26T13:30:51.919+02:00[Europe/Madrid]</time>
      </trkpt>
      <trkpt lat="36.942476" lon="-5.577475">
        <ele>212.0</ele>
        <time>2022-09-26T13:30:52.919+02:00[Europe/Madrid]</time>
      </trkpt>
      <trkpt lat="36.94269" lon="-5.577591">
        <ele>212.0</ele>
        <time>2022-09-26T13:30:53.919+02:00[Europe/Madrid]</time>
      </trkpt>
      <trkpt lat="36.942892" lon="-5.577708">
        <ele>212.0</ele>
        <time>2022-09-26T13:30:54.919+02:00[Europe/Madrid]</time>
      </trkpt>
      <trkpt lat="36.943097" lon="-5.577818">
        <ele>212.0</ele>
        <time>2022-09-26T13:30:55.919+02:00[Europe/Madrid]</time>
      </trkpt>
      <trkpt lat="36.943296" lon="-5.577928">
        <ele>212.0</ele>
        <time>2022-09-26T13:30:56.992+02:00[Europe/Madrid]</time>
      </trkpt>
      <trkpt lat="36.943489" lon="-5.578031">
        <ele>211.0</ele>
        <time>2022-09-26T13:30:57.992+02:00[Europe/Madrid]</time>
      </trkpt>
      <trkpt lat="36.94368" lon="-5.578135">
        <ele>211.0</ele>
        <time>2022-09-26T13:30:58.992+02:00[Europe/Madrid]</time>
      </trkpt>
      <trkpt lat="36.943869" lon="-5.578238">
        <ele>211.0</ele>
        <time>2022-09-26T13:30:59.992+02:00[Europe/Madrid]</time>
      </trkpt>
      <trkpt lat="36.944059" lon="-5.578345">
        <ele>211.0</ele>
        <time>2022-09-26T13:31:00.992+02:00[Europe/Madrid]</time>
      </trkpt>
      <trkpt lat="36.944248" lon="-5.578451">
        <ele>211.0</ele>
        <time>2022-09-26T13:31:01.992+02:00[Europe/Madrid]</time>
      </trkpt>
      <trkpt lat="36.944437" lon="-5.578558">
        <ele>211.0</ele>
        <time>2022-09-26T13:31:02.992+02:00[Europe/Madrid]</time>
      </trkpt>
      <trkpt lat="36.944629" lon="-5.578671">
        <ele>211.0</ele>
        <time>2022-09-26T13:31:03.992+02:00[Europe/Madrid]</time>
      </trkpt>
      <trkpt lat="36.944818" lon="-5.57879">
        <ele>211.0</ele>
        <time>2022-09-26T13:31:04.992+02:00[Europe/Madrid]</time>
      </trkpt>
      <trkpt lat="36.945006" lon="-5.578923">
        <ele>211.0</ele>
        <time>2022-09-26T13:31:05.992+02:00[Europe/Madrid]</time>
      </trkpt>
      <trkpt lat="36.945187" lon="-5.579064">
        <ele>211.0</ele>
        <time>2022-09-26T13:31:06.992+02:00[Europe/Madrid]</time>
      </trkpt>
      <trkpt lat="36.945365" lon="-5.579224">
        <ele>211.0</ele>
        <time>2022-09-26T13:31:07.992+02:00[Europe/Madrid]</time>
      </trkpt>
      <trkpt lat="36.945542" lon="-5.579403">
        <ele>211.0</ele>
        <time>2022-09-26T13:31:08.992+02:00[Europe/Madrid]</time>
      </trkpt>
      <trkpt lat="36.945716" lon="-5.579594">
        <ele>210.0</ele>
        <time>2022-09-26T13:31:09.992+02:00[Europe/Madrid]</time>
      </trkpt>
      <trkpt lat="36.945883" lon="-5.579791">
        <ele>210.0</ele>
        <time>2022-09-26T13:31:10.992+02:00[Europe/Madrid]</time>
      </trkpt>
      <trkpt lat="36.946052" lon="-5.579988">
        <ele>210.0</ele>
        <time>2022-09-26T13:31:11.992+02:00[Europe/Madrid]</time>
      </trkpt>
      <trkpt lat="36.946218" lon="-5.580182">
        <ele>209.0</ele>
        <time>2022-09-26T13:31:12.992+02:00[Europe/Madrid]</time>
      </trkpt>
      <trkpt lat="36.946377" lon="-5.580367">
        <ele>209.0</ele>
        <time>2022-09-26T13:31:13.992+02:00[Europe/Madrid]</time>
      </trkpt>
      <trkpt lat="36.94653" lon="-5.580546">
        <ele>209.0</ele>
        <time>2022-09-26T13:31:14.992+02:00[Europe/Madrid]</time>
      </trkpt>
      <trkpt lat="36.946682" lon="-5.580727">
        <ele>208.0</ele>
        <time>2022-09-26T13:31:15.992+02:00[Europe/Madrid]</time>
      </trkpt>
      <trkpt lat="36.94684" lon="-5.580907">
        <ele>208.0</ele>
        <time>2022-09-26T13:31:16.992+02:00[Europe/Madrid]</time>
      </trkpt>
      <trkpt lat="36.946994" lon="-5.58109">
        <ele>208.0</ele>
        <time>2022-09-26T13:31:17.992+02:00[Europe/Madrid]</time>
      </trkpt>
      <trkpt lat="36.947146" lon="-5.581271">
        <ele>208.0</ele>
        <time>2022-09-26T13:31:18.992+02:00[Europe/Madrid]</time>
      </trkpt>
      <trkpt lat="36.94729" lon="-5.581442">
        <ele>208.0</ele>
        <time>2022-09-26T13:31:19.992+02:00[Europe/Madrid]</time>
      </trkpt>
      <trkpt lat="36.94743" lon="-5.581612">
        <ele>208.0</ele>
        <time>2022-09-26T13:31:20.992+02:00[Europe/Madrid]</time>
      </trkpt>
      <trkpt lat="36.947571" lon="-5.581776">
        <ele>207.0</ele>
        <time>2022-09-26T13:31:21.992+02:00[Europe/Madrid]</time>
      </trkpt>
      <trkpt lat="36.947712" lon="-5.581937">
        <ele>207.0</ele>
        <time>2022-09-26T13:31:22.992+02:00[Europe/Madrid]</time>
      </trkpt>
      <trkpt lat="36.947855" lon="-5.582107">
        <ele>207.0</ele>
        <time>2022-09-26T13:31:23.992+02:00[Europe/Madrid]</time>
      </trkpt>
      <trkpt lat="36.948001" lon="-5.582278">
        <ele>207.0</ele>
        <time>2022-09-26T13:31:24.992+02:00[Europe/Madrid]</time>
      </trkpt>
      <trkpt lat="36.948145" lon="-5.582445">
        <ele>206.0</ele>
        <time>2022-09-26T13:31:25.992+02:00[Europe/Madrid]</time>
      </trkpt>
      <trkpt lat="36.94829" lon="-5.582616">
        <ele>206.0</ele>
        <time>2022-09-26T13:31:26.992+02:00[Europe/Madrid]</time>
      </trkpt>
      <trkpt lat="36.948436" lon="-5.582785">
        <ele>206.0</ele>
        <time>2022-09-26T13:31:27.992+02:00[Europe/Madrid]</time>
      </trkpt>
      <trkpt lat="36.94858" lon="-5.582953">
        <ele>206.0</ele>
        <time>2022-09-26T13:31:28.992+02:00[Europe/Madrid]</time>
      </trkpt>
      <trkpt lat="36.948724" lon="-5.583121">
        <ele>205.0</ele>
        <time>2022-09-26T13:31:29.992+02:00[Europe/Madrid]</time>
      </trkpt>
      <trkpt lat="36.948865" lon="-5.583288">
        <ele>205.0</ele>
        <time>2022-09-26T13:31:30.992+02:00[Europe/Madrid]</time>
      </trkpt>
      <trkpt lat="36.949006" lon="-5.583451">
        <ele>205.0</ele>
        <time>2022-09-26T13:31:31.992+02:00[Europe/Madrid]</time>
      </trkpt>
      <trkpt lat="36.949148" lon="-5.583615">
        <ele>205.0</ele>
        <time>2022-09-26T13:31:32.992+02:00[Europe/Madrid]</time>
      </trkpt>
      <trkpt lat="36.949282" lon="-5.583769">
        <ele>205.0</ele>
        <time>2022-09-26T13:31:33.992+02:00[Europe/Madrid]</time>
      </trkpt>
      <trkpt lat="36.949415" lon="-5.583914">
        <ele>205.0</ele>
        <time>2022-09-26T13:31:34.992+02:00[Europe/Madrid]</time>
      </trkpt>
      <trkpt lat="36.949548" lon="-5.584041">
        <ele>205.0</ele>
        <time>2022-09-26T13:31:35.992+02:00[Europe/Madrid]</time>
      </trkpt>
      <trkpt lat="36.949679" lon="-5.584152">
        <ele>205.0</ele>
        <time>2022-09-26T13:31:36.992+02:00[Europe/Madrid]</time>
      </trkpt>
      <trkpt lat="36.94981" lon="-5.584249">
        <ele>205.0</ele>
        <time>2022-09-26T13:31:37.992+02:00[Europe/Madrid]</time>
      </trkpt>
      <trkpt lat="36.949936" lon="-5.584337">
        <ele>206.0</ele>
        <time>2022-09-26T13:31:38.992+02:00[Europe/Madrid]</time>
      </trkpt>
      <trkpt lat="36.950064" lon="-5.584416">
        <ele>206.0</ele>
        <time>2022-09-26T13:31:39.992+02:00[Europe/Madrid]</time>
      </trkpt>
      <trkpt lat="36.950187" lon="-5.584482">
        <ele>206.0</ele>
        <time>2022-09-26T13:31:40.992+02:00[Europe/Madrid]</time>
      </trkpt>
      <trkpt lat="36.950307" lon="-5.584542">
        <ele>206.0</ele>
        <time>2022-09-26T13:31:41.992+02:00[Europe/Madrid]</time>
      </trkpt>
      <trkpt lat="36.95042" lon="-5.584596">
        <ele>207.0</ele>
        <time>2022-09-26T13:31:42.992+02:00[Europe/Madrid]</time>
      </trkpt>
      <trkpt lat="36.950529" lon="-5.584642">
        <ele>208.0</ele>
        <time>2022-09-26T13:31:43.992+02:00[Europe/Madrid]</time>
      </trkpt>
      <trkpt lat="36.950634" lon="-5.584681">
        <ele>208.0</ele>
        <time>2022-09-26T13:31:44.992+02:00[Europe/Madrid]</time>
      </trkpt>
      <trkpt lat="36.950726" lon="-5.584711">
        <ele>209.0</ele>
        <time>2022-09-26T13:31:45.992+02:00[Europe/Madrid]</time>
      </trkpt>
      <trkpt lat="36.950847" lon="-5.584737">
        <ele>209.0</ele>
        <time>2022-09-26T13:31:47.891+02:00[Europe/Madrid]</time>
      </trkpt>
      <trkpt lat="36.950945" lon="-5.584756">
        <ele>210.0</ele>
        <time>2022-09-26T13:31:50.897+02:00[Europe/Madrid]</time>
      </trkpt>
      <trkpt lat="36.951084" lon="-5.584782">
        <ele>211.0</ele>
        <time>2022-09-26T13:31:53.889+02:00[Europe/Madrid]</time>
      </trkpt>
      <trkpt lat="36.951198" lon="-5.584788">
        <ele>211.0</ele>
        <time>2022-09-26T13:31:55.892+02:00[Europe/Madrid]</time>
      </trkpt>
      <trkpt lat="36.951314" lon="-5.584798">
        <ele>211.0</ele>
        <time>2022-09-26T13:31:57.890+02:00[Europe/Madrid]</time>
      </trkpt>
      <trkpt lat="36.951449" lon="-5.584795">
        <ele>212.0</ele>
        <time>2022-09-26T13:31:59.903+02:00[Europe/Madrid]</time>
      </trkpt>
      <trkpt lat="36.951598" lon="-5.584789">
        <ele>213.0</ele>
        <time>2022-09-26T13:32:01.891+02:00[Europe/Madrid]</time>
      </trkpt>
      <trkpt lat="36.951765" lon="-5.584778">
        <ele>213.0</ele>
        <time>2022-09-26T13:32:03.896+02:00[Europe/Madrid]</time>
      </trkpt>
      <trkpt lat="36.951861" lon="-5.584771">
        <ele>213.0</ele>
        <time>2022-09-26T13:32:04.896+02:00[Europe/Madrid]</time>
      </trkpt>
      <trkpt lat="36.951962" lon="-5.58476">
        <ele>214.0</ele>
        <time>2022-09-26T13:32:05.896+02:00[Europe/Madrid]</time>
      </trkpt>
      <trkpt lat="36.952081" lon="-5.584748">
        <ele>214.0</ele>
        <time>2022-09-26T13:32:06.896+02:00[Europe/Madrid]</time>
      </trkpt>
      <trkpt lat="36.952211" lon="-5.584734">
        <ele>215.0</ele>
        <time>2022-09-26T13:32:07.897+02:00[Europe/Madrid]</time>
      </trkpt>
      <trkpt lat="36.95236" lon="-5.584717">
        <ele>215.0</ele>
        <time>2022-09-26T13:32:08.900+02:00[Europe/Madrid]</time>
      </trkpt>
      <trkpt lat="36.95252" lon="-5.5847">
        <ele>216.0</ele>
        <time>2022-09-26T13:32:09.900+02:00[Europe/Madrid]</time>
      </trkpt>
      <trkpt lat="36.952698" lon="-5.58468">
        <ele>216.0</ele>
        <time>2022-09-26T13:32:10.900+02:00[Europe/Madrid]</time>
      </trkpt>
      <trkpt lat="36.952889" lon="-5.584659">
        <ele>217.0</ele>
        <time>2022-09-26T13:32:11.900+02:00[Europe/Madrid]</time>
      </trkpt>
      <trkpt lat="36.953069" lon="-5.584641">
        <ele>218.0</ele>
        <time>2022-09-26T13:32:12.900+02:00[Europe/Madrid]</time>
      </trkpt>
      <trkpt lat="36.953246" lon="-5.584631">
        <ele>218.0</ele>
        <time>2022-09-26T13:32:13.900+02:00[Europe/Madrid]</time>
      </trkpt>
      <trkpt lat="36.953431" lon="-5.584628">
        <ele>218.0</ele>
        <time>2022-09-26T13:32:14.900+02:00[Europe/Madrid]</time>
      </trkpt>
      <trkpt lat="36.953619" lon="-5.584636">
        <ele>219.0</ele>
        <time>2022-09-26T13:32:15.901+02:00[Europe/Madrid]</time>
      </trkpt>
      <trkpt lat="36.953811" lon="-5.584656">
        <ele>219.0</ele>
        <time>2022-09-26T13:32:16.901+02:00[Europe/Madrid]</time>
      </trkpt>
      <trkpt lat="36.953997" lon="-5.584685">
        <ele>219.0</ele>
        <time>2022-09-26T13:32:17.901+02:00[Europe/Madrid]</time>
      </trkpt>
      <trkpt lat="36.954177" lon="-5.584727">
        <ele>219.0</ele>
        <time>2022-09-26T13:32:18.901+02:00[Europe/Madrid]</time>
      </trkpt>
      <trkpt lat="36.954353" lon="-5.584783">
        <ele>220.0</ele>
        <time>2022-09-26T13:32:19.901+02:00[Europe/Madrid]</time>
      </trkpt>
      <trkpt lat="36.954529" lon="-5.584853">
        <ele>220.0</ele>
        <time>2022-09-26T13:32:20.901+02:00[Europe/Madrid]</time>
      </trkpt>
      <trkpt lat="36.954715" lon="-5.584941">
        <ele>220.0</ele>
        <time>2022-09-26T13:32:21.901+02:00[Europe/Madrid]</time>
      </trkpt>
      <trkpt lat="36.954902" lon="-5.585045">
        <ele>219.0</ele>
        <time>2022-09-26T13:32:22.901+02:00[Europe/Madrid]</time>
      </trkpt>
      <trkpt lat="36.955095" lon="-5.585156">
        <ele>219.0</ele>
        <time>2022-09-26T13:32:23.901+02:00[Europe/Madrid]</time>
      </trkpt>
      <trkpt lat="36.955288" lon="-5.585269">
        <ele>219.0</ele>
        <time>2022-09-26T13:32:24.901+02:00[Europe/Madrid]</time>
      </trkpt>
      <trkpt lat="36.955482" lon="-5.585383">
        <ele>218.0</ele>
        <time>2022-09-26T13:32:25.901+02:00[Europe/Madrid]</time>
      </trkpt>
      <trkpt lat="36.95568" lon="-5.585497">
        <ele>217.0</ele>
        <time>2022-09-26T13:32:26.901+02:00[Europe/Madrid]</time>
      </trkpt>
      <trkpt lat="36.95587" lon="-5.58561">
        <ele>216.0</ele>
        <time>2022-09-26T13:32:27.902+02:00[Europe/Madrid]</time>
      </trkpt>
      <trkpt lat="36.956049" lon="-5.585722">
        <ele>216.0</ele>
        <time>2022-09-26T13:32:28.902+02:00[Europe/Madrid]</time>
      </trkpt>
      <trkpt lat="36.956226" lon="-5.585829">
        <ele>215.0</ele>
        <time>2022-09-26T13:32:29.902+02:00[Europe/Madrid]</time>
      </trkpt>
      <trkpt lat="36.956403" lon="-5.585936">
        <ele>215.0</ele>
        <time>2022-09-26T13:32:30.902+02:00[Europe/Madrid]</time>
      </trkpt>
      <trkpt lat="36.956572" lon="-5.586039">
        <ele>214.0</ele>
        <time>2022-09-26T13:32:31.902+02:00[Europe/Madrid]</time>
      </trkpt>
      <trkpt lat="36.95674" lon="-5.586145">
        <ele>214.0</ele>
        <time>2022-09-26T13:32:32.902+02:00[Europe/Madrid]</time>
      </trkpt>
      <trkpt lat="36.956905" lon="-5.586252">
        <ele>214.0</ele>
        <time>2022-09-26T13:32:33.902+02:00[Europe/Madrid]</time>
      </trkpt>
      <trkpt lat="36.957071" lon="-5.586352">
        <ele>214.0</ele>
        <time>2022-09-26T13:32:34.902+02:00[Europe/Madrid]</time>
      </trkpt>
      <trkpt lat="36.957236" lon="-5.586452">
        <ele>215.0</ele>
        <time>2022-09-26T13:32:35.902+02:00[Europe/Madrid]</time>
      </trkpt>
      <trkpt lat="36.957404" lon="-5.586549">
        <ele>215.0</ele>
        <time>2022-09-26T13:32:36.902+02:00[Europe/Madrid]</time>
      </trkpt>
      <trkpt lat="36.957569" lon="-5.586643">
        <ele>215.0</ele>
        <time>2022-09-26T13:32:37.902+02:00[Europe/Madrid]</time>
      </trkpt>
      <trkpt lat="36.957739" lon="-5.586743">
        <ele>215.0</ele>
        <time>2022-09-26T13:32:38.902+02:00[Europe/Madrid]</time>
      </trkpt>
      <trkpt lat="36.957906" lon="-5.586844">
        <ele>216.0</ele>
        <time>2022-09-26T13:32:39.902+02:00[Europe/Madrid]</time>
      </trkpt>
      <trkpt lat="36.958079" lon="-5.586935">
        <ele>216.0</ele>
        <time>2022-09-26T13:32:40.902+02:00[Europe/Madrid]</time>
      </trkpt>
      <trkpt lat="36.958259" lon="-5.587023">
        <ele>217.0</ele>
        <time>2022-09-26T13:32:41.902+02:00[Europe/Madrid]</time>
      </trkpt>
      <trkpt lat="36.958449" lon="-5.587101">
        <ele>218.0</ele>
        <time>2022-09-26T13:32:42.902+02:00[Europe/Madrid]</time>
      </trkpt>
      <trkpt lat="36.958651" lon="-5.587164">
        <ele>219.0</ele>
        <time>2022-09-26T13:32:43.902+02:00[Europe/Madrid]</time>
      </trkpt>
      <trkpt lat="36.958865" lon="-5.587213">
        <ele>220.0</ele>
        <time>2022-09-26T13:32:44.902+02:00[Europe/Madrid]</time>
      </trkpt>
      <trkpt lat="36.959094" lon="-5.587243">
        <ele>221.0</ele>
        <time>2022-09-26T13:32:45.902+02:00[Europe/Madrid]</time>
      </trkpt>
      <trkpt lat="36.959337" lon="-5.58725">
        <ele>222.0</ele>
        <time>2022-09-26T13:32:46.902+02:00[Europe/Madrid]</time>
      </trkpt>
      <trkpt lat="36.959583" lon="-5.587234">
        <ele>223.0</ele>
        <time>2022-09-26T13:32:47.902+02:00[Europe/Madrid]</time>
      </trkpt>
      <trkpt lat="36.959822" lon="-5.587204">
        <ele>224.0</ele>
        <time>2022-09-26T13:32:48.902+02:00[Europe/Madrid]</time>
      </trkpt>
      <trkpt lat="36.960055" lon="-5.587144">
        <ele>225.0</ele>
        <time>2022-09-26T13:32:49.902+02:00[Europe/Madrid]</time>
      </trkpt>
      <trkpt lat="36.96028" lon="-5.587062">
        <ele>226.0</ele>
        <time>2022-09-26T13:32:50.902+02:00[Europe/Madrid]</time>
      </trkpt>
      <trkpt lat="36.960503" lon="-5.586961">
        <ele>227.0</ele>
        <time>2022-09-26T13:32:51.902+02:00[Europe/Madrid]</time>
      </trkpt>
      <trkpt lat="36.960724" lon="-5.586834">
        <ele>229.0</ele>
        <time>2022-09-26T13:32:52.902+02:00[Europe/Madrid]</time>
      </trkpt>
      <trkpt lat="36.960939" lon="-5.586691">
        <ele>230.0</ele>
        <time>2022-09-26T13:32:53.902+02:00[Europe/Madrid]</time>
      </trkpt>
      <trkpt lat="36.961143" lon="-5.586521">
        <ele>231.0</ele>
        <time>2022-09-26T13:32:54.902+02:00[Europe/Madrid]</time>
      </trkpt>
      <trkpt lat="36.961335" lon="-5.586332">
        <ele>231.0</ele>
        <time>2022-09-26T13:32:55.902+02:00[Europe/Madrid]</time>
      </trkpt>
      <trkpt lat="36.961521" lon="-5.586121">
        <ele>232.0</ele>
        <time>2022-09-26T13:32:56.907+02:00[Europe/Madrid]</time>
      </trkpt>
      <trkpt lat="36.961694" lon="-5.585892">
        <ele>233.0</ele>
        <time>2022-09-26T13:32:57.907+02:00[Europe/Madrid]</time>
      </trkpt>
      <trkpt lat="36.96185" lon="-5.58567">
        <ele>234.0</ele>
        <time>2022-09-26T13:32:58.907+02:00[Europe/Madrid]</time>
      </trkpt>
      <trkpt lat="36.962003" lon="-5.585451">
        <ele>234.0</ele>
        <time>2022-09-26T13:32:59.907+02:00[Europe/Madrid]</time>
      </trkpt>
      <trkpt lat="36.962155" lon="-5.585238">
        <ele>235.0</ele>
        <time>2022-09-26T13:33:00.907+02:00[Europe/Madrid]</time>
      </trkpt>
      <trkpt lat="36.962304" lon="-5.585023">
        <ele>235.0</ele>
        <time>2022-09-26T13:33:01.907+02:00[Europe/Madrid]</time>
      </trkpt>
      <trkpt lat="36.962455" lon="-5.584809">
        <ele>235.0</ele>
        <time>2022-09-26T13:33:02.907+02:00[Europe/Madrid]</time>
      </trkpt>
      <trkpt lat="36.962599" lon="-5.584601">
        <ele>235.0</ele>
        <time>2022-09-26T13:33:03.907+02:00[Europe/Madrid]</time>
      </trkpt>
      <trkpt lat="36.962736" lon="-5.584406">
        <ele>234.0</ele>
        <time>2022-09-26T13:33:04.907+02:00[Europe/Madrid]</time>
      </trkpt>
      <trkpt lat="36.962874" lon="-5.584212">
        <ele>234.0</ele>
        <time>2022-09-26T13:33:05.907+02:00[Europe/Madrid]</time>
      </trkpt>
      <trkpt lat="36.963013" lon="-5.584016">
        <ele>234.0</ele>
        <time>2022-09-26T13:33:06.907+02:00[Europe/Madrid]</time>
      </trkpt>
      <trkpt lat="36.963161" lon="-5.583824">
        <ele>234.0</ele>
        <time>2022-09-26T13:33:07.907+02:00[Europe/Madrid]</time>
      </trkpt>
      <trkpt lat="36.963319" lon="-5.583634">
        <ele>233.0</ele>
        <time>2022-09-26T13:33:08.907+02:00[Europe/Madrid]</time>
      </trkpt>
      <trkpt lat="36.963485" lon="-5.583456">
        <ele>232.0</ele>
        <time>2022-09-26T13:33:09.907+02:00[Europe/Madrid]</time>
      </trkpt>
      <trkpt lat="36.96366" lon="-5.583292">
        <ele>231.0</ele>
        <time>2022-09-26T13:33:10.907+02:00[Europe/Madrid]</time>
      </trkpt>
      <trkpt lat="36.963846" lon="-5.583148">
        <ele>231.0</ele>
        <time>2022-09-26T13:33:11.907+02:00[Europe/Madrid]</time>
      </trkpt>
      <trkpt lat="36.96404" lon="-5.583018">
        <ele>230.0</ele>
        <time>2022-09-26T13:33:12.907+02:00[Europe/Madrid]</time>
      </trkpt>
      <trkpt lat="36.964241" lon="-5.582901">
        <ele>229.0</ele>
        <time>2022-09-26T13:33:13.907+02:00[Europe/Madrid]</time>
      </trkpt>
      <trkpt lat="36.964446" lon="-5.582804">
        <ele>228.0</ele>
        <time>2022-09-26T13:33:14.907+02:00[Europe/Madrid]</time>
      </trkpt>
      <trkpt lat="36.964654" lon="-5.582723">
        <ele>227.0</ele>
        <time>2022-09-26T13:33:15.907+02:00[Europe/Madrid]</time>
      </trkpt>
      <trkpt lat="36.964867" lon="-5.582661">
        <ele>226.0</ele>
        <time>2022-09-26T13:33:16.907+02:00[Europe/Madrid]</time>
      </trkpt>
      <trkpt lat="36.965086" lon="-5.582619">
        <ele>226.0</ele>
        <time>2022-09-26T13:33:17.907+02:00[Europe/Madrid]</time>
      </trkpt>
      <trkpt lat="36.96531" lon="-5.582595">
        <ele>225.0</ele>
        <time>2022-09-26T13:33:18.994+02:00[Europe/Madrid]</time>
      </trkpt>
      <trkpt lat="36.965536" lon="-5.582593">
        <ele>224.0</ele>
        <time>2022-09-26T13:33:19.994+02:00[Europe/Madrid]</time>
      </trkpt>
      <trkpt lat="36.965767" lon="-5.582611">
        <ele>223.0</ele>
        <time>2022-09-26T13:33:20.994+02:00[Europe/Madrid]</time>
      </trkpt>
      <trkpt lat="36.965998" lon="-5.582653">
        <ele>222.0</ele>
        <time>2022-09-26T13:33:21.994+02:00[Europe/Madrid]</time>
      </trkpt>
      <trkpt lat="36.966231" lon="-5.582717">
        <ele>221.0</ele>
        <time>2022-09-26T13:33:22.994+02:00[Europe/Madrid]</time>
      </trkpt>
      <trkpt lat="36.96646" lon="-5.582801">
        <ele>221.0</ele>
        <time>2022-09-26T13:33:23.994+02:00[Europe/Madrid]</time>
      </trkpt>
      <trkpt lat="36.966684" lon="-5.582902">
        <ele>220.0</ele>
        <time>2022-09-26T13:33:24.994+02:00[Europe/Madrid]</time>
      </trkpt>
      <trkpt lat="36.966908" lon="-5.583021">
        <ele>218.0</ele>
        <time>2022-09-26T13:33:25.994+02:00[Europe/Madrid]</time>
      </trkpt>
      <trkpt lat="36.967141" lon="-5.583163">
        <ele>218.0</ele>
        <time>2022-09-26T13:33:26.994+02:00[Europe/Madrid]</time>
      </trkpt>
      <trkpt lat="36.967378" lon="-5.583312">
        <ele>217.0</ele>
        <time>2022-09-26T13:33:27.994+02:00[Europe/Madrid]</time>
      </trkpt>
      <trkpt lat="36.967617" lon="-5.583464">
        <ele>216.0</ele>
        <time>2022-09-26T13:33:28.994+02:00[Europe/Madrid]</time>
      </trkpt>
      <trkpt lat="36.967862" lon="-5.583613">
        <ele>215.0</ele>
        <time>2022-09-26T13:33:29.994+02:00[Europe/Madrid]</time>
      </trkpt>
      <trkpt lat="36.968106" lon="-5.58377">
        <ele>214.0</ele>
        <time>2022-09-26T13:33:30.994+02:00[Europe/Madrid]</time>
      </trkpt>
      <trkpt lat="36.968352" lon="-5.583926">
        <ele>213.0</ele>
        <time>2022-09-26T13:33:31.994+02:00[Europe/Madrid]</time>
      </trkpt>
      <trkpt lat="36.968597" lon="-5.584082">
        <ele>211.0</ele>
        <time>2022-09-26T13:33:32.994+02:00[Europe/Madrid]</time>
      </trkpt>
      <trkpt lat="36.968841" lon="-5.584237">
        <ele>210.0</ele>
        <time>2022-09-26T13:33:33.994+02:00[Europe/Madrid]</time>
      </trkpt>
      <trkpt lat="36.969083" lon="-5.584391">
        <ele>209.0</ele>
        <time>2022-09-26T13:33:34.994+02:00[Europe/Madrid]</time>
      </trkpt>
      <trkpt lat="36.969321" lon="-5.584545">
        <ele>208.0</ele>
        <time>2022-09-26T13:33:35.994+02:00[Europe/Madrid]</time>
      </trkpt>
      <trkpt lat="36.96956" lon="-5.584699">
        <ele>207.0</ele>
        <time>2022-09-26T13:33:36.994+02:00[Europe/Madrid]</time>
      </trkpt>
      <trkpt lat="36.969798" lon="-5.584854">
        <ele>206.0</ele>
        <time>2022-09-26T13:33:37.994+02:00[Europe/Madrid]</time>
      </trkpt>
      <trkpt lat="36.970032" lon="-5.585011">
        <ele>205.0</ele>
        <time>2022-09-26T13:33:38.994+02:00[Europe/Madrid]</time>
      </trkpt>
      <trkpt lat="36.97027" lon="-5.585162">
        <ele>203.0</ele>
        <time>2022-09-26T13:33:39.994+02:00[Europe/Madrid]</time>
      </trkpt>
      <trkpt lat="36.970508" lon="-5.585314">
        <ele>202.0</ele>
        <time>2022-09-26T13:33:40.994+02:00[Europe/Madrid]</time>
      </trkpt>
      <trkpt lat="36.970747" lon="-5.585469">
        <ele>202.0</ele>
        <time>2022-09-26T13:33:41.994+02:00[Europe/Madrid]</time>
      </trkpt>
      <trkpt lat="36.970982" lon="-5.585623">
        <ele>202.0</ele>
        <time>2022-09-26T13:33:42.994+02:00[Europe/Madrid]</time>
      </trkpt>
      <trkpt lat="36.97122" lon="-5.585775">
        <ele>202.0</ele>
        <time>2022-09-26T13:33:43.994+02:00[Europe/Madrid]</time>
      </trkpt>
      <trkpt lat="36.971452" lon="-5.585928">
        <ele>202.0</ele>
        <time>2022-09-26T13:33:44.994+02:00[Europe/Madrid]</time>
      </trkpt>
      <trkpt lat="36.971678" lon="-5.586072">
        <ele>202.0</ele>
        <time>2022-09-26T13:33:45.994+02:00[Europe/Madrid]</time>
      </trkpt>
      <trkpt lat="36.9719" lon="-5.586213">
        <ele>202.0</ele>
        <time>2022-09-26T13:33:46.994+02:00[Europe/Madrid]</time>
      </trkpt>
      <trkpt lat="36.972111" lon="-5.586353">
        <ele>203.0</ele>
        <time>2022-09-26T13:33:47.994+02:00[Europe/Madrid]</time>
      </trkpt>
      <trkpt lat="36.972319" lon="-5.586485">
        <ele>204.0</ele>
        <time>2022-09-26T13:33:48.994+02:00[Europe/Madrid]</time>
      </trkpt>
      <trkpt lat="36.972526" lon="-5.586616">
        <ele>204.0</ele>
        <time>2022-09-26T13:33:49.994+02:00[Europe/Madrid]</time>
      </trkpt>
      <trkpt lat="36.972731" lon="-5.586751">
        <ele>205.0</ele>
        <time>2022-09-26T13:33:50.994+02:00[Europe/Madrid]</time>
      </trkpt>
      <trkpt lat="36.972931" lon="-5.58688">
        <ele>206.0</ele>
        <time>2022-09-26T13:33:51.994+02:00[Europe/Madrid]</time>
      </trkpt>
      <trkpt lat="36.973125" lon="-5.586991">
        <ele>206.0</ele>
        <time>2022-09-26T13:33:52.994+02:00[Europe/Madrid]</time>
      </trkpt>
      <trkpt lat="36.973321" lon="-5.587088">
        <ele>207.0</ele>
        <time>2022-09-26T13:33:53.994+02:00[Europe/Madrid]</time>
      </trkpt>
      <trkpt lat="36.973515" lon="-5.587169">
        <ele>207.0</ele>
        <time>2022-09-26T13:33:54.994+02:00[Europe/Madrid]</time>
      </trkpt>
      <trkpt lat="36.973709" lon="-5.58724">
        <ele>208.0</ele>
        <time>2022-09-26T13:33:55.994+02:00[Europe/Madrid]</time>
      </trkpt>
      <trkpt lat="36.973905" lon="-5.587292">
        <ele>208.0</ele>
        <time>2022-09-26T13:33:56.994+02:00[Europe/Madrid]</time>
      </trkpt>
      <trkpt lat="36.974103" lon="-5.587329">
        <ele>208.0</ele>
        <time>2022-09-26T13:33:57.994+02:00[Europe/Madrid]</time>
      </trkpt>
      <trkpt lat="36.974304" lon="-5.58735">
        <ele>208.0</ele>
        <time>2022-09-26T13:33:58.994+02:00[Europe/Madrid]</time>
      </trkpt>
      <trkpt lat="36.97451" lon="-5.587357">
        <ele>208.0</ele>
        <time>2022-09-26T13:33:59.994+02:00[Europe/Madrid]</time>
      </trkpt>
      <trkpt lat="36.974716" lon="-5.587349">
        <ele>209.0</ele>
        <time>2022-09-26T13:34:00.994+02:00[Europe/Madrid]</time>
      </trkpt>
      <trkpt lat="36.974922" lon="-5.587334">
        <ele>208.0</ele>
        <time>2022-09-26T13:34:01.994+02:00[Europe/Madrid]</time>
      </trkpt>
      <trkpt lat="36.975125" lon="-5.587318">
        <ele>209.0</ele>
        <time>2022-09-26T13:34:02.994+02:00[Europe/Madrid]</time>
      </trkpt>
      <trkpt lat="36.975318" lon="-5.587301">
        <ele>208.0</ele>
        <time>2022-09-26T13:34:03.994+02:00[Europe/Madrid]</time>
      </trkpt>
      <trkpt lat="36.975502" lon="-5.587283">
        <ele>208.0</ele>
        <time>2022-09-26T13:34:04.994+02:00[Europe/Madrid]</time>
      </trkpt>
      <trkpt lat="36.97568" lon="-5.587258">
        <ele>209.0</ele>
        <time>2022-09-26T13:34:05.994+02:00[Europe/Madrid]</time>
      </trkpt>
      <trkpt lat="36.975857" lon="-5.587238">
        <ele>208.0</ele>
        <time>2022-09-26T13:34:06.994+02:00[Europe/Madrid]</time>
      </trkpt>
      <trkpt lat="36.976028" lon="-5.587222">
        <ele>208.0</ele>
        <time>2022-09-26T13:34:07.994+02:00[Europe/Madrid]</time>
      </trkpt>
      <trkpt lat="36.976198" lon="-5.587202">
        <ele>208.0</ele>
        <time>2022-09-26T13:34:08.994+02:00[Europe/Madrid]</time>
      </trkpt>
      <trkpt lat="36.976365" lon="-5.587181">
        <ele>209.0</ele>
        <time>2022-09-26T13:34:09.994+02:00[Europe/Madrid]</time>
      </trkpt>
      <trkpt lat="36.976533" lon="-5.587164">
        <ele>209.0</ele>
        <time>2022-09-26T13:34:10.994+02:00[Europe/Madrid]</time>
      </trkpt>
      <trkpt lat="36.976703" lon="-5.587146">
        <ele>209.0</ele>
        <time>2022-09-26T13:34:11.994+02:00[Europe/Madrid]</time>
      </trkpt>
      <trkpt lat="36.976878" lon="-5.587131">
        <ele>208.0</ele>
        <time>2022-09-26T13:34:12.994+02:00[Europe/Madrid]</time>
      </trkpt>
      <trkpt lat="36.977059" lon="-5.58711">
        <ele>208.0</ele>
        <time>2022-09-26T13:34:13.994+02:00[Europe/Madrid]</time>
      </trkpt>
      <trkpt lat="36.977247" lon="-5.58709">
        <ele>208.0</ele>
        <time>2022-09-26T13:34:14.994+02:00[Europe/Madrid]</time>
      </trkpt>
      <trkpt lat="36.977437" lon="-5.58707">
        <ele>207.0</ele>
        <time>2022-09-26T13:34:15.994+02:00[Europe/Madrid]</time>
      </trkpt>
      <trkpt lat="36.977629" lon="-5.587053">
        <ele>206.0</ele>
        <time>2022-09-26T13:34:16.994+02:00[Europe/Madrid]</time>
      </trkpt>
      <trkpt lat="36.977821" lon="-5.587037">
        <ele>206.0</ele>
        <time>2022-09-26T13:34:17.994+02:00[Europe/Madrid]</time>
      </trkpt>
      <trkpt lat="36.978009" lon="-5.587018">
        <ele>205.0</ele>
        <time>2022-09-26T13:34:18.994+02:00[Europe/Madrid]</time>
      </trkpt>
      <trkpt lat="36.978199" lon="-5.586998">
        <ele>204.0</ele>
        <time>2022-09-26T13:34:19.994+02:00[Europe/Madrid]</time>
      </trkpt>
      <trkpt lat="36.978383" lon="-5.586981">
        <ele>203.0</ele>
        <time>2022-09-26T13:34:20.994+02:00[Europe/Madrid]</time>
      </trkpt>
      <trkpt lat="36.978563" lon="-5.586966">
        <ele>203.0</ele>
        <time>2022-09-26T13:34:21.994+02:00[Europe/Madrid]</time>
      </trkpt>
      <trkpt lat="36.97874" lon="-5.586948">
        <ele>203.0</ele>
        <time>2022-09-26T13:34:22.994+02:00[Europe/Madrid]</time>
      </trkpt>
      <trkpt lat="36.978917" lon="-5.586927">
        <ele>203.0</ele>
        <time>2022-09-26T13:34:23.994+02:00[Europe/Madrid]</time>
      </trkpt>
      <trkpt lat="36.97909" lon="-5.586906">
        <ele>203.0</ele>
        <time>2022-09-26T13:34:24.994+02:00[Europe/Madrid]</time>
      </trkpt>
      <trkpt lat="36.979265" lon="-5.586883">
        <ele>203.0</ele>
        <time>2022-09-26T13:34:25.994+02:00[Europe/Madrid]</time>
      </trkpt>
      <trkpt lat="36.979439" lon="-5.586863">
        <ele>204.0</ele>
        <time>2022-09-26T13:34:26.994+02:00[Europe/Madrid]</time>
      </trkpt>
      <trkpt lat="36.979601" lon="-5.586838">
        <ele>204.0</ele>
        <time>2022-09-26T13:34:27.994+02:00[Europe/Madrid]</time>
      </trkpt>
      <trkpt lat="36.979756" lon="-5.586816">
        <ele>205.0</ele>
        <time>2022-09-26T13:34:28.994+02:00[Europe/Madrid]</time>
      </trkpt>
      <trkpt lat="36.979898" lon="-5.586795">
        <ele>206.0</ele>
        <time>2022-09-26T13:34:29.994+02:00[Europe/Madrid]</time>
      </trkpt>
      <trkpt lat="36.98003" lon="-5.586775">
        <ele>206.0</ele>
        <time>2022-09-26T13:34:30.994+02:00[Europe/Madrid]</time>
      </trkpt>
      <trkpt lat="36.980152" lon="-5.586758">
        <ele>206.0</ele>
        <time>2022-09-26T13:34:31.994+02:00[Europe/Madrid]</time>
      </trkpt>
      <trkpt lat="36.980266" lon="-5.586732">
        <ele>207.0</ele>
        <time>2022-09-26T13:34:32.994+02:00[Europe/Madrid]</time>
      </trkpt>
      <trkpt lat="36.980363" lon="-5.586696">
        <ele>207.0</ele>
        <time>2022-09-26T13:34:33.994+02:00[Europe/Madrid]</time>
      </trkpt>
      <trkpt lat="36.980457" lon="-5.586649">
        <ele>208.0</ele>
        <time>2022-09-26T13:34:34.994+02:00[Europe/Madrid]</time>
      </trkpt>
      <trkpt lat="36.980554" lon="-5.586585">
        <ele>208.0</ele>
        <time>2022-09-26T13:34:35.994+02:00[Europe/Madrid]</time>
      </trkpt>
      <trkpt lat="36.980662" lon="-5.586496">
        <ele>208.0</ele>
        <time>2022-09-26T13:34:36.994+02:00[Europe/Madrid]</time>
      </trkpt>
      <trkpt lat="36.980781" lon="-5.586394">
        <ele>209.0</ele>
        <time>2022-09-26T13:34:37.994+02:00[Europe/Madrid]</time>
      </trkpt>
      <trkpt lat="36.98091" lon="-5.58628">
        <ele>209.0</ele>
        <time>2022-09-26T13:34:38.994+02:00[Europe/Madrid]</time>
      </trkpt>
      <trkpt lat="36.981043" lon="-5.586164">
        <ele>209.0</ele>
        <time>2022-09-26T13:34:39.994+02:00[Europe/Madrid]</time>
      </trkpt>
      <trkpt lat="36.981171" lon="-5.586053">
        <ele>210.0</ele>
        <time>2022-09-26T13:34:40.994+02:00[Europe/Madrid]</time>
      </trkpt>
      <trkpt lat="36.981294" lon="-5.585947">
        <ele>211.0</ele>
        <time>2022-09-26T13:34:41.994+02:00[Europe/Madrid]</time>
      </trkpt>
      <trkpt lat="36.981413" lon="-5.585841">
        <ele>211.0</ele>
        <time>2022-09-26T13:34:42.994+02:00[Europe/Madrid]</time>
      </trkpt>
      <trkpt lat="36.981533" lon="-5.585737">
        <ele>211.0</ele>
        <time>2022-09-26T13:34:43.994+02:00[Europe/Madrid]</time>
      </trkpt>
      <trkpt lat="36.981652" lon="-5.585629">
        <ele>212.0</ele>
        <time>2022-09-26T13:34:44.994+02:00[Europe/Madrid]</time>
      </trkpt>
      <trkpt lat="36.981778" lon="-5.58552">
        <ele>212.0</ele>
        <time>2022-09-26T13:34:45.994+02:00[Europe/Madrid]</time>
      </trkpt>
      <trkpt lat="36.981909" lon="-5.585403">
        <ele>212.0</ele>
        <time>2022-09-26T13:34:46.994+02:00[Europe/Madrid]</time>
      </trkpt>
      <trkpt lat="36.982043" lon="-5.585275">
        <ele>212.0</ele>
        <time>2022-09-26T13:34:47.994+02:00[Europe/Madrid]</time>
      </trkpt>
      <trkpt lat="36.982182" lon="-5.585133">
        <ele>213.0</ele>
        <time>2022-09-26T13:34:48.994+02:00[Europe/Madrid]</time>
      </trkpt>
      <trkpt lat="36.982322" lon="-5.584977">
        <ele>213.0</ele>
        <time>2022-09-26T13:34:49.994+02:00[Europe/Madrid]</time>
      </trkpt>
      <trkpt lat="36.982466" lon="-5.584815">
        <ele>213.0</ele>
        <time>2022-09-26T13:34:50.994+02:00[Europe/Madrid]</time>
      </trkpt>
      <trkpt lat="36.982612" lon="-5.584645">
        <ele>214.0</ele>
        <time>2022-09-26T13:34:51.994+02:00[Europe/Madrid]</time>
      </trkpt>
      <trkpt lat="36.982754" lon="-5.584478">
        <ele>214.0</ele>
        <time>2022-09-26T13:34:52.994+02:00[Europe/Madrid]</time>
      </trkpt>
      <trkpt lat="36.982888" lon="-5.584318">
        <ele>215.0</ele>
        <time>2022-09-26T13:34:53.994+02:00[Europe/Madrid]</time>
      </trkpt>
      <trkpt lat="36.983017" lon="-5.584156">
        <ele>216.0</ele>
        <time>2022-09-26T13:34:54.994+02:00[Europe/Madrid]</time>
      </trkpt>
      <trkpt lat="36.983144" lon="-5.584005">
        <ele>216.0</ele>
        <time>2022-09-26T13:34:55.994+02:00[Europe/Madrid]</time>
      </trkpt>
      <trkpt lat="36.983263" lon="-5.58386">
        <ele>216.0</ele>
        <time>2022-09-26T13:34:56.994+02:00[Europe/Madrid]</time>
      </trkpt>
      <trkpt lat="36.98338" lon="-5.583721">
        <ele>216.0</ele>
        <time>2022-09-26T13:34:57.994+02:00[Europe/Madrid]</time>
      </trkpt>
      <trkpt lat="36.983496" lon="-5.583589">
        <ele>217.0</ele>
        <time>2022-09-26T13:34:58.994+02:00[Europe/Madrid]</time>
      </trkpt>
      <trkpt lat="36.983609" lon="-5.583459">
        <ele>217.0</ele>
        <time>2022-09-26T13:34:59.994+02:00[Europe/Madrid]</time>
      </trkpt>
      <trkpt lat="36.983718" lon="-5.583334">
        <ele>218.0</ele>
        <time>2022-09-26T13:35:00.994+02:00[Europe/Madrid]</time>
      </trkpt>
      <trkpt lat="36.983817" lon="-5.58322">
        <ele>218.0</ele>
        <time>2022-09-26T13:35:01.994+02:00[Europe/Madrid]</time>
      </trkpt>
      <trkpt lat="36.983915" lon="-5.583109">
        <ele>218.0</ele>
        <time>2022-09-26T13:35:02.994+02:00[Europe/Madrid]</time>
      </trkpt>
      <trkpt lat="36.984005" lon="-5.583001">
        <ele>219.0</ele>
        <time>2022-09-26T13:35:03.994+02:00[Europe/Madrid]</time>
      </trkpt>
      <trkpt lat="36.984097" lon="-5.58289">
        <ele>219.0</ele>
        <time>2022-09-26T13:35:04.994+02:00[Europe/Madrid]</time>
      </trkpt>
      <trkpt lat="36.984189" lon="-5.582781">
        <ele>219.0</ele>
        <time>2022-09-26T13:35:05.994+02:00[Europe/Madrid]</time>
      </trkpt>
      <trkpt lat="36.984288" lon="-5.582666">
        <ele>220.0</ele>
        <time>2022-09-26T13:35:06.994+02:00[Europe/Madrid]</time>
      </trkpt>
      <trkpt lat="36.984385" lon="-5.582549">
        <ele>221.0</ele>
        <time>2022-09-26T13:35:07.994+02:00[Europe/Madrid]</time>
      </trkpt>
      <trkpt lat="36.984479" lon="-5.582434">
        <ele>222.0</ele>
        <time>2022-09-26T13:35:08.994+02:00[Europe/Madrid]</time>
      </trkpt>
      <trkpt lat="36.984572" lon="-5.582324">
        <ele>222.0</ele>
        <time>2022-09-26T13:35:09.994+02:00[Europe/Madrid]</time>
      </trkpt>
      <trkpt lat="36.98466" lon="-5.582216">
        <ele>223.0</ele>
        <time>2022-09-26T13:35:10.994+02:00[Europe/Madrid]</time>
      </trkpt>
      <trkpt lat="36.984752" lon="-5.582109">
        <ele>224.0</ele>
        <time>2022-09-26T13:35:11.994+02:00[Europe/Madrid]</time>
      </trkpt>
      <trkpt lat="36.984846" lon="-5.582003">
        <ele>225.0</ele>
        <time>2022-09-26T13:35:12.994+02:00[Europe/Madrid]</time>
      </trkpt>
      <trkpt lat="36.984945" lon="-5.581893">
        <ele>226.0</ele>
        <time>2022-09-26T13:35:13.994+02:00[Europe/Madrid]</time>
      </trkpt>
      <trkpt lat="36.985046" lon="-5.581776">
        <ele>227.0</ele>
        <time>2022-09-26T13:35:14.994+02:00[Europe/Madrid]</time>
      </trkpt>
      <trkpt lat="36.985151" lon="-5.581656">
        <ele>228.0</ele>
        <time>2022-09-26T13:35:15.994+02:00[Europe/Madrid]</time>
      </trkpt>
      <trkpt lat="36.985261" lon="-5.58153">
        <ele>229.0</ele>
        <time>2022-09-26T13:35:16.994+02:00[Europe/Madrid]</time>
      </trkpt>
      <trkpt lat="36.98538" lon="-5.581391">
        <ele>230.0</ele>
        <time>2022-09-26T13:35:17.994+02:00[Europe/Madrid]</time>
      </trkpt>
      <trkpt lat="36.985513" lon="-5.581248">
        <ele>232.0</ele>
        <time>2022-09-26T13:35:18.994+02:00[Europe/Madrid]</time>
      </trkpt>
      <trkpt lat="36.985658" lon="-5.581105">
        <ele>233.0</ele>
        <time>2022-09-26T13:35:19.994+02:00[Europe/Madrid]</time>
      </trkpt>
      <trkpt lat="36.985816" lon="-5.580962">
        <ele>234.0</ele>
        <time>2022-09-26T13:35:20.994+02:00[Europe/Madrid]</time>
      </trkpt>
      <trkpt lat="36.985984" lon="-5.580821">
        <ele>235.0</ele>
        <time>2022-09-26T13:35:21.994+02:00[Europe/Madrid]</time>
      </trkpt>
      <trkpt lat="36.986151" lon="-5.580689">
        <ele>237.0</ele>
        <time>2022-09-26T13:35:22.994+02:00[Europe/Madrid]</time>
      </trkpt>
      <trkpt lat="36.986309" lon="-5.580565">
        <ele>238.0</ele>
        <time>2022-09-26T13:35:23.994+02:00[Europe/Madrid]</time>
      </trkpt>
      <trkpt lat="36.986467" lon="-5.58045">
        <ele>239.0</ele>
        <time>2022-09-26T13:35:24.994+02:00[Europe/Madrid]</time>
      </trkpt>
      <trkpt lat="36.986628" lon="-5.580338">
        <ele>240.0</ele>
        <time>2022-09-26T13:35:25.994+02:00[Europe/Madrid]</time>
      </trkpt>
      <trkpt lat="36.986784" lon="-5.580227">
        <ele>242.0</ele>
        <time>2022-09-26T13:35:26.994+02:00[Europe/Madrid]</time>
      </trkpt>
      <trkpt lat="36.986939" lon="-5.580117">
        <ele>243.0</ele>
        <time>2022-09-26T13:35:27.994+02:00[Europe/Madrid]</time>
      </trkpt>
      <trkpt lat="36.987094" lon="-5.580011">
        <ele>244.0</ele>
        <time>2022-09-26T13:35:28.994+02:00[Europe/Madrid]</time>
      </trkpt>
      <trkpt lat="36.987249" lon="-5.579905">
        <ele>245.0</ele>
        <time>2022-09-26T13:35:29.994+02:00[Europe/Madrid]</time>
      </trkpt>
      <trkpt lat="36.987408" lon="-5.57979">
        <ele>246.0</ele>
        <time>2022-09-26T13:35:30.994+02:00[Europe/Madrid]</time>
      </trkpt>
      <trkpt lat="36.987568" lon="-5.579665">
        <ele>246.0</ele>
        <time>2022-09-26T13:35:31.994+02:00[Europe/Madrid]</time>
      </trkpt>
      <trkpt lat="36.987725" lon="-5.579534">
        <ele>247.0</ele>
        <time>2022-09-26T13:35:32.994+02:00[Europe/Madrid]</time>
      </trkpt>
      <trkpt lat="36.987877" lon="-5.579396">
        <ele>247.0</ele>
        <time>2022-09-26T13:35:33.994+02:00[Europe/Madrid]</time>
      </trkpt>
      <trkpt lat="36.988024" lon="-5.579259">
        <ele>248.0</ele>
        <time>2022-09-26T13:35:34.994+02:00[Europe/Madrid]</time>
      </trkpt>
      <trkpt lat="36.988163" lon="-5.579132">
        <ele>248.0</ele>
        <time>2022-09-26T13:35:35.994+02:00[Europe/Madrid]</time>
      </trkpt>
      <trkpt lat="36.988295" lon="-5.579015">
        <ele>249.0</ele>
        <time>2022-09-26T13:35:36.994+02:00[Europe/Madrid]</time>
      </trkpt>
      <trkpt lat="36.988419" lon="-5.5789">
        <ele>249.0</ele>
        <time>2022-09-26T13:35:37.994+02:00[Europe/Madrid]</time>
      </trkpt>
      <trkpt lat="36.988537" lon="-5.578796">
        <ele>250.0</ele>
        <time>2022-09-26T13:35:38.994+02:00[Europe/Madrid]</time>
      </trkpt>
      <trkpt lat="36.988648" lon="-5.578694">
        <ele>251.0</ele>
        <time>2022-09-26T13:35:39.994+02:00[Europe/Madrid]</time>
      </trkpt>
      <trkpt lat="36.988755" lon="-5.578591">
        <ele>251.0</ele>
        <time>2022-09-26T13:35:40.994+02:00[Europe/Madrid]</time>
      </trkpt>
      <trkpt lat="36.988855" lon="-5.578494">
        <ele>252.0</ele>
        <time>2022-09-26T13:35:41.994+02:00[Europe/Madrid]</time>
      </trkpt>
      <trkpt lat="36.988954" lon="-5.5784">
        <ele>252.0</ele>
        <time>2022-09-26T13:35:42.994+02:00[Europe/Madrid]</time>
      </trkpt>
      <trkpt lat="36.989057" lon="-5.578314">
        <ele>252.0</ele>
        <time>2022-09-26T13:35:43.994+02:00[Europe/Madrid]</time>
      </trkpt>
      <trkpt lat="36.989166" lon="-5.578235">
        <ele>253.0</ele>
        <time>2022-09-26T13:35:44.994+02:00[Europe/Madrid]</time>
      </trkpt>
      <trkpt lat="36.989273" lon="-5.578166">
        <ele>254.0</ele>
        <time>2022-09-26T13:35:45.994+02:00[Europe/Madrid]</time>
      </trkpt>
      <trkpt lat="36.989377" lon="-5.57811">
        <ele>255.0</ele>
        <time>2022-09-26T13:35:46.994+02:00[Europe/Madrid]</time>
      </trkpt>
      <trkpt lat="36.989473" lon="-5.578063">
        <ele>256.0</ele>
        <time>2022-09-26T13:35:47.994+02:00[Europe/Madrid]</time>
      </trkpt>
      <trkpt lat="36.989567" lon="-5.578016">
        <ele>257.0</ele>
        <time>2022-09-26T13:35:48.994+02:00[Europe/Madrid]</time>
      </trkpt>
      <trkpt lat="36.989659" lon="-5.577969">
        <ele>258.0</ele>
        <time>2022-09-26T13:35:49.994+02:00[Europe/Madrid]</time>
      </trkpt>
      <trkpt lat="36.989745" lon="-5.57793">
        <ele>258.0</ele>
        <time>2022-09-26T13:35:50.994+02:00[Europe/Madrid]</time>
      </trkpt>
      <trkpt lat="36.989909" lon="-5.577849">
        <ele>260.0</ele>
        <time>2022-09-26T13:35:52.892+02:00[Europe/Madrid]</time>
      </trkpt>
      <trkpt lat="36.989993" lon="-5.577805">
        <ele>261.0</ele>
        <time>2022-09-26T13:35:53.897+02:00[Europe/Madrid]</time>
      </trkpt>
      <trkpt lat="36.990077" lon="-5.577759">
        <ele>262.0</ele>
        <time>2022-09-26T13:35:54.897+02:00[Europe/Madrid]</time>
      </trkpt>
      <trkpt lat="36.990221" lon="-5.577686">
        <ele>263.0</ele>
        <time>2022-09-26T13:35:56.893+02:00[Europe/Madrid]</time>
      </trkpt>
      <trkpt lat="36.990383" lon="-5.577621">
        <ele>264.0</ele>
        <time>2022-09-26T13:35:58.900+02:00[Europe/Madrid]</time>
      </trkpt>
      <trkpt lat="36.990484" lon="-5.57758">
        <ele>265.0</ele>
        <time>2022-09-26T13:35:59.900+02:00[Europe/Madrid]</time>
      </trkpt>
      <trkpt lat="36.990591" lon="-5.577528">
        <ele>266.0</ele>
        <time>2022-09-26T13:36:00.900+02:00[Europe/Madrid]</time>
      </trkpt>
      <trkpt lat="36.990709" lon="-5.577477">
        <ele>267.0</ele>
        <time>2022-09-26T13:36:01.902+02:00[Europe/Madrid]</time>
      </trkpt>
      <trkpt lat="36.990827" lon="-5.577421">
        <ele>268.0</ele>
        <time>2022-09-26T13:36:02.908+02:00[Europe/Madrid]</time>
      </trkpt>
      <trkpt lat="36.990941" lon="-5.577364">
        <ele>269.0</ele>
        <time>2022-09-26T13:36:03.908+02:00[Europe/Madrid]</time>
      </trkpt>
      <trkpt lat="36.991045" lon="-5.577315">
        <ele>269.0</ele>
        <time>2022-09-26T13:36:04.908+02:00[Europe/Madrid]</time>
      </trkpt>
      <trkpt lat="36.99116" lon="-5.577257">
        <ele>270.0</ele>
        <time>2022-09-26T13:36:05.908+02:00[Europe/Madrid]</time>
      </trkpt>
      <trkpt lat="36.991273" lon="-5.5772">
        <ele>271.0</ele>
        <time>2022-09-26T13:36:06.908+02:00[Europe/Madrid]</time>
      </trkpt>
      <trkpt lat="36.991375" lon="-5.577153">
        <ele>272.0</ele>
        <time>2022-09-26T13:36:07.908+02:00[Europe/Madrid]</time>
      </trkpt>
      <trkpt lat="36.991471" lon="-5.577109">
        <ele>273.0</ele>
        <time>2022-09-26T13:36:08.908+02:00[Europe/Madrid]</time>
      </trkpt>
      <trkpt lat="36.991564" lon="-5.577061">
        <ele>274.0</ele>
        <time>2022-09-26T13:36:09.908+02:00[Europe/Madrid]</time>
      </trkpt>
      <trkpt lat="36.991655" lon="-5.577015">
        <ele>274.0</ele>
        <time>2022-09-26T13:36:10.908+02:00[Europe/Madrid]</time>
      </trkpt>
      <trkpt lat="36.991751" lon="-5.576968">
        <ele>275.0</ele>
        <time>2022-09-26T13:36:11.908+02:00[Europe/Madrid]</time>
      </trkpt>
      <trkpt lat="36.991849" lon="-5.576923">
        <ele>276.0</ele>
        <time>2022-09-26T13:36:12.908+02:00[Europe/Madrid]</time>
      </trkpt>
      <trkpt lat="36.991944" lon="-5.576879">
        <ele>276.0</ele>
        <time>2022-09-26T13:36:13.908+02:00[Europe/Madrid]</time>
      </trkpt>
      <trkpt lat="36.992039" lon="-5.576833">
        <ele>277.0</ele>
        <time>2022-09-26T13:36:14.908+02:00[Europe/Madrid]</time>
      </trkpt>
      <trkpt lat="36.992137" lon="-5.576794">
        <ele>278.0</ele>
        <time>2022-09-26T13:36:15.908+02:00[Europe/Madrid]</time>
      </trkpt>
      <trkpt lat="36.992241" lon="-5.576761">
        <ele>279.0</ele>
        <time>2022-09-26T13:36:16.966+02:00[Europe/Madrid]</time>
      </trkpt>
      <trkpt lat="36.992344" lon="-5.576735">
        <ele>279.0</ele>
        <time>2022-09-26T13:36:17.966+02:00[Europe/Madrid]</time>
      </trkpt>
      <trkpt lat="36.992447" lon="-5.57672">
        <ele>280.0</ele>
        <time>2022-09-26T13:36:18.966+02:00[Europe/Madrid]</time>
      </trkpt>
      <trkpt lat="36.992542" lon="-5.576711">
        <ele>280.0</ele>
        <time>2022-09-26T13:36:19.966+02:00[Europe/Madrid]</time>
      </trkpt>
      <trkpt lat="36.992636" lon="-5.576702">
        <ele>281.0</ele>
        <time>2022-09-26T13:36:20.966+02:00[Europe/Madrid]</time>
      </trkpt>
      <trkpt lat="36.99273" lon="-5.5767">
        <ele>281.0</ele>
        <time>2022-09-26T13:36:21.966+02:00[Europe/Madrid]</time>
      </trkpt>
      <trkpt lat="36.992822" lon="-5.576694">
        <ele>282.0</ele>
        <time>2022-09-26T13:36:22.966+02:00[Europe/Madrid]</time>
      </trkpt>
      <trkpt lat="36.992922" lon="-5.576686">
        <ele>282.0</ele>
        <time>2022-09-26T13:36:23.966+02:00[Europe/Madrid]</time>
      </trkpt>
      <trkpt lat="36.993021" lon="-5.576676">
        <ele>283.0</ele>
        <time>2022-09-26T13:36:24.966+02:00[Europe/Madrid]</time>
      </trkpt>
      <trkpt lat="36.993128" lon="-5.576666">
        <ele>284.0</ele>
        <time>2022-09-26T13:36:25.966+02:00[Europe/Madrid]</time>
      </trkpt>
      <trkpt lat="36.993245" lon="-5.57666">
        <ele>284.0</ele>
        <time>2022-09-26T13:36:26.966+02:00[Europe/Madrid]</time>
      </trkpt>
      <trkpt lat="36.993373" lon="-5.576657">
        <ele>285.0</ele>
        <time>2022-09-26T13:36:27.966+02:00[Europe/Madrid]</time>
      </trkpt>
      <trkpt lat="36.993503" lon="-5.576653">
        <ele>285.0</ele>
        <time>2022-09-26T13:36:28.966+02:00[Europe/Madrid]</time>
      </trkpt>
      <trkpt lat="36.993632" lon="-5.576647">
        <ele>286.0</ele>
        <time>2022-09-26T13:36:29.966+02:00[Europe/Madrid]</time>
      </trkpt>
      <trkpt lat="36.993746" lon="-5.576645">
        <ele>286.0</ele>
        <time>2022-09-26T13:36:30.966+02:00[Europe/Madrid]</time>
      </trkpt>
      <trkpt lat="36.993848" lon="-5.57664">
        <ele>287.0</ele>
        <time>2022-09-26T13:36:31.966+02:00[Europe/Madrid]</time>
      </trkpt>
      <trkpt lat="36.993942" lon="-5.57664">
        <ele>288.0</ele>
        <time>2022-09-26T13:36:32.966+02:00[Europe/Madrid]</time>
      </trkpt>
      <trkpt lat="36.994032" lon="-5.576641">
        <ele>288.0</ele>
        <time>2022-09-26T13:36:33.966+02:00[Europe/Madrid]</time>
      </trkpt>
      <trkpt lat="36.994128" lon="-5.576644">
        <ele>289.0</ele>
        <time>2022-09-26T13:36:34.966+02:00[Europe/Madrid]</time>
      </trkpt>
      <trkpt lat="36.994219" lon="-5.576639">
        <ele>290.0</ele>
        <time>2022-09-26T13:36:35.966+02:00[Europe/Madrid]</time>
      </trkpt>
      <trkpt lat="36.994312" lon="-5.576629">
        <ele>290.0</ele>
        <time>2022-09-26T13:36:36.966+02:00[Europe/Madrid]</time>
      </trkpt>
      <trkpt lat="36.994421" lon="-5.576613">
        <ele>291.0</ele>
        <time>2022-09-26T13:36:37.966+02:00[Europe/Madrid]</time>
      </trkpt>
      <trkpt lat="36.994544" lon="-5.576602">
        <ele>292.0</ele>
        <time>2022-09-26T13:36:38.966+02:00[Europe/Madrid]</time>
      </trkpt>
      <trkpt lat="36.99468" lon="-5.576581">
        <ele>292.0</ele>
        <time>2022-09-26T13:36:39.966+02:00[Europe/Madrid]</time>
      </trkpt>
      <trkpt lat="36.994818" lon="-5.576572">
        <ele>293.0</ele>
        <time>2022-09-26T13:36:40.966+02:00[Europe/Madrid]</time>
      </trkpt>
      <trkpt lat="36.994958" lon="-5.576565">
        <ele>294.0</ele>
        <time>2022-09-26T13:36:41.966+02:00[Europe/Madrid]</time>
      </trkpt>
      <trkpt lat="36.995087" lon="-5.576561">
        <ele>295.0</ele>
        <time>2022-09-26T13:36:42.966+02:00[Europe/Madrid]</time>
      </trkpt>
      <trkpt lat="36.995202" lon="-5.576558">
        <ele>295.0</ele>
        <time>2022-09-26T13:36:43.966+02:00[Europe/Madrid]</time>
      </trkpt>
      <trkpt lat="36.995304" lon="-5.576553">
        <ele>296.0</ele>
        <time>2022-09-26T13:36:44.966+02:00[Europe/Madrid]</time>
      </trkpt>
      <trkpt lat="36.995403" lon="-5.576552">
        <ele>296.0</ele>
        <time>2022-09-26T13:36:45.966+02:00[Europe/Madrid]</time>
      </trkpt>
      <trkpt lat="36.995503" lon="-5.576547">
        <ele>297.0</ele>
        <time>2022-09-26T13:36:46.966+02:00[Europe/Madrid]</time>
      </trkpt>
      <trkpt lat="36.995606" lon="-5.576538">
        <ele>298.0</ele>
        <time>2022-09-26T13:36:47.966+02:00[Europe/Madrid]</time>
      </trkpt>
      <trkpt lat="36.995722" lon="-5.576531">
        <ele>299.0</ele>
        <time>2022-09-26T13:36:48.966+02:00[Europe/Madrid]</time>
      </trkpt>
      <trkpt lat="36.995853" lon="-5.576523">
        <ele>299.0</ele>
        <time>2022-09-26T13:36:49.966+02:00[Europe/Madrid]</time>
      </trkpt>
      <trkpt lat="36.995998" lon="-5.576515">
        <ele>300.0</ele>
        <time>2022-09-26T13:36:50.966+02:00[Europe/Madrid]</time>
      </trkpt>
      <trkpt lat="36.996142" lon="-5.576507">
        <ele>300.0</ele>
        <time>2022-09-26T13:36:51.966+02:00[Europe/Madrid]</time>
      </trkpt>
      <trkpt lat="36.99627" lon="-5.576499">
        <ele>301.0</ele>
        <time>2022-09-26T13:36:52.966+02:00[Europe/Madrid]</time>
      </trkpt>
      <trkpt lat="36.996385" lon="-5.576491">
        <ele>302.0</ele>
        <time>2022-09-26T13:36:53.966+02:00[Europe/Madrid]</time>
      </trkpt>
      <trkpt lat="36.996492" lon="-5.576483">
        <ele>302.0</ele>
        <time>2022-09-26T13:36:54.966+02:00[Europe/Madrid]</time>
      </trkpt>
      <trkpt lat="36.996599" lon="-5.576478">
        <ele>303.0</ele>
        <time>2022-09-26T13:36:55.966+02:00[Europe/Madrid]</time>
      </trkpt>
      <trkpt lat="36.99671" lon="-5.576473">
        <ele>303.0</ele>
        <time>2022-09-26T13:36:56.966+02:00[Europe/Madrid]</time>
      </trkpt>
      <trkpt lat="36.996828" lon="-5.576459">
        <ele>304.0</ele>
        <time>2022-09-26T13:36:57.966+02:00[Europe/Madrid]</time>
      </trkpt>
      <trkpt lat="36.996949" lon="-5.576457">
        <ele>304.0</ele>
        <time>2022-09-26T13:36:58.966+02:00[Europe/Madrid]</time>
      </trkpt>
      <trkpt lat="36.997064" lon="-5.576451">
        <ele>305.0</ele>
        <time>2022-09-26T13:36:59.966+02:00[Europe/Madrid]</time>
      </trkpt>
      <trkpt lat="36.997165" lon="-5.576443">
        <ele>305.0</ele>
        <time>2022-09-26T13:37:00.966+02:00[Europe/Madrid]</time>
      </trkpt>
      <trkpt lat="36.997267" lon="-5.576437">
        <ele>305.0</ele>
        <time>2022-09-26T13:37:01.966+02:00[Europe/Madrid]</time>
      </trkpt>
      <trkpt lat="36.997367" lon="-5.576434">
        <ele>306.0</ele>
        <time>2022-09-26T13:37:02.966+02:00[Europe/Madrid]</time>
      </trkpt>
      <trkpt lat="36.997457" lon="-5.576427">
        <ele>306.0</ele>
        <time>2022-09-26T13:37:03.966+02:00[Europe/Madrid]</time>
      </trkpt>
      <trkpt lat="36.997625" lon="-5.576417">
        <ele>308.0</ele>
        <time>2022-09-26T13:37:05.894+02:00[Europe/Madrid]</time>
      </trkpt>
      <trkpt lat="36.997774" lon="-5.576416">
        <ele>309.0</ele>
        <time>2022-09-26T13:37:07.892+02:00[Europe/Madrid]</time>
      </trkpt>
      <trkpt lat="36.997882" lon="-5.576458">
        <ele>309.0</ele>
        <time>2022-09-26T13:37:09.888+02:00[Europe/Madrid]</time>
      </trkpt>
      <trkpt lat="36.997953" lon="-5.576563">
        <ele>309.0</ele>
        <time>2022-09-26T13:37:11.891+02:00[Europe/Madrid]</time>
      </trkpt>
      <trkpt lat="36.998039" lon="-5.576656">
        <ele>308.0</ele>
        <time>2022-09-26T13:37:13.892+02:00[Europe/Madrid]</time>
      </trkpt>
      <trkpt lat="36.998169" lon="-5.576654">
        <ele>308.0</ele>
        <time>2022-09-26T13:37:15.889+02:00[Europe/Madrid]</time>
      </trkpt>
      <trkpt lat="36.998334" lon="-5.576532">
        <ele>307.0</ele>
        <time>2022-09-26T13:37:17.882+02:00[Europe/Madrid]</time>
      </trkpt>
      <trkpt lat="36.998436" lon="-5.576435">
        <ele>306.0</ele>
        <time>2022-09-26T13:37:18.884+02:00[Europe/Madrid]</time>
      </trkpt>
      <trkpt lat="36.998552" lon="-5.576318">
        <ele>306.0</ele>
        <time>2022-09-26T13:37:19.899+02:00[Europe/Madrid]</time>
      </trkpt>
      <trkpt lat="36.998661" lon="-5.576191">
        <ele>305.0</ele>
        <time>2022-09-26T13:37:20.899+02:00[Europe/Madrid]</time>
      </trkpt>
      <trkpt lat="36.998759" lon="-5.576062">
        <ele>304.0</ele>
        <time>2022-09-26T13:37:21.899+02:00[Europe/Madrid]</time>
      </trkpt>
      <trkpt lat="36.998851" lon="-5.575939">
        <ele>304.0</ele>
        <time>2022-09-26T13:37:22.899+02:00[Europe/Madrid]</time>
      </trkpt>
      <trkpt lat="36.998945" lon="-5.575828">
        <ele>304.0</ele>
        <time>2022-09-26T13:37:23.899+02:00[Europe/Madrid]</time>
      </trkpt>
      <trkpt lat="36.999045" lon="-5.575728">
        <ele>304.0</ele>
        <time>2022-09-26T13:37:24.899+02:00[Europe/Madrid]</time>
      </trkpt>
      <trkpt lat="36.999162" lon="-5.575643">
        <ele>304.0</ele>
        <time>2022-09-26T13:37:25.899+02:00[Europe/Madrid]</time>
      </trkpt>
      <trkpt lat="36.999292" lon="-5.57558">
        <ele>304.0</ele>
        <time>2022-09-26T13:37:26.899+02:00[Europe/Madrid]</time>
      </trkpt>
      <trkpt lat="36.999432" lon="-5.575543">
        <ele>304.0</ele>
        <time>2022-09-26T13:37:27.899+02:00[Europe/Madrid]</time>
      </trkpt>
      <trkpt lat="36.99958" lon="-5.575532">
        <ele>304.0</ele>
        <time>2022-09-26T13:37:28.899+02:00[Europe/Madrid]</time>
      </trkpt>
      <trkpt lat="36.999734" lon="-5.575546">
        <ele>304.0</ele>
        <time>2022-09-26T13:37:29.899+02:00[Europe/Madrid]</time>
      </trkpt>
      <trkpt lat="36.999876" lon="-5.575573">
        <ele>305.0</ele>
        <time>2022-09-26T13:37:30.899+02:00[Europe/Madrid]</time>
      </trkpt>
      <trkpt lat="37.000022" lon="-5.575595">
        <ele>306.0</ele>
        <time>2022-09-26T13:37:31.899+02:00[Europe/Madrid]</time>
      </trkpt>
      <trkpt lat="37.000166" lon="-5.575591">
        <ele>307.0</ele>
        <time>2022-09-26T13:37:32.899+02:00[Europe/Madrid]</time>
      </trkpt>
      <trkpt lat="37.000303" lon="-5.575567">
        <ele>308.0</ele>
        <time>2022-09-26T13:37:33.899+02:00[Europe/Madrid]</time>
      </trkpt>
      <trkpt lat="37.000428" lon="-5.57555">
        <ele>309.0</ele>
        <time>2022-09-26T13:37:34.899+02:00[Europe/Madrid]</time>
      </trkpt>
      <trkpt lat="37.000549" lon="-5.575559">
        <ele>309.0</ele>
        <time>2022-09-26T13:37:35.899+02:00[Europe/Madrid]</time>
      </trkpt>
      <trkpt lat="37.000666" lon="-5.575603">
        <ele>310.0</ele>
        <time>2022-09-26T13:37:36.899+02:00[Europe/Madrid]</time>
      </trkpt>
      <trkpt lat="37.000781" lon="-5.575677">
        <ele>311.0</ele>
        <time>2022-09-26T13:37:37.899+02:00[Europe/Madrid]</time>
      </trkpt>
      <trkpt lat="37.000906" lon="-5.57576">
        <ele>312.0</ele>
        <time>2022-09-26T13:37:38.899+02:00[Europe/Madrid]</time>
      </trkpt>
      <trkpt lat="37.001044" lon="-5.575821">
        <ele>312.0</ele>
        <time>2022-09-26T13:37:39.899+02:00[Europe/Madrid]</time>
      </trkpt>
      <trkpt lat="37.001192" lon="-5.575867">
        <ele>312.0</ele>
        <time>2022-09-26T13:37:40.899+02:00[Europe/Madrid]</time>
      </trkpt>
      <trkpt lat="37.001355" lon="-5.575904">
        <ele>312.0</ele>
        <time>2022-09-26T13:37:41.899+02:00[Europe/Madrid]</time>
      </trkpt>
      <trkpt lat="37.001533" lon="-5.57593">
        <ele>312.0</ele>
        <time>2022-09-26T13:37:42.899+02:00[Europe/Madrid]</time>
      </trkpt>
      <trkpt lat="37.001714" lon="-5.575955">
        <ele>312.0</ele>
        <time>2022-09-26T13:37:43.899+02:00[Europe/Madrid]</time>
      </trkpt>
      <trkpt lat="37.001887" lon="-5.575979">
        <ele>312.0</ele>
        <time>2022-09-26T13:37:44.899+02:00[Europe/Madrid]</time>
      </trkpt>
      <trkpt lat="37.002053" lon="-5.576002">
        <ele>312.0</ele>
        <time>2022-09-26T13:37:45.899+02:00[Europe/Madrid]</time>
      </trkpt>
      <trkpt lat="37.002213" lon="-5.576018">
        <ele>312.0</ele>
        <time>2022-09-26T13:37:46.899+02:00[Europe/Madrid]</time>
      </trkpt>
      <trkpt lat="37.002365" lon="-5.576008">
        <ele>312.0</ele>
        <time>2022-09-26T13:37:47.899+02:00[Europe/Madrid]</time>
      </trkpt>
      <trkpt lat="37.002507" lon="-5.575969">
        <ele>311.0</ele>
        <time>2022-09-26T13:37:48.899+02:00[Europe/Madrid]</time>
      </trkpt>
      <trkpt lat="37.002642" lon="-5.575923">
        <ele>311.0</ele>
        <time>2022-09-26T13:37:49.899+02:00[Europe/Madrid]</time>
      </trkpt>
      <trkpt lat="37.00277" lon="-5.575884">
        <ele>311.0</ele>
        <time>2022-09-26T13:37:50.902+02:00[Europe/Madrid]</time>
      </trkpt>
      <trkpt lat="37.002899" lon="-5.575866">
        <ele>310.0</ele>
        <time>2022-09-26T13:37:51.902+02:00[Europe/Madrid]</time>
      </trkpt>
      <trkpt lat="37.003021" lon="-5.575881">
        <ele>310.0</ele>
        <time>2022-09-26T13:37:52.902+02:00[Europe/Madrid]</time>
      </trkpt>
      <trkpt lat="37.003143" lon="-5.575925">
        <ele>310.0</ele>
        <time>2022-09-26T13:37:53.902+02:00[Europe/Madrid]</time>
      </trkpt>
      <trkpt lat="37.003266" lon="-5.576002">
        <ele>309.0</ele>
        <time>2022-09-26T13:37:54.902+02:00[Europe/Madrid]</time>
      </trkpt>
      <trkpt lat="37.003391" lon="-5.576078">
        <ele>309.0</ele>
        <time>2022-09-26T13:37:55.902+02:00[Europe/Madrid]</time>
      </trkpt>
      <trkpt lat="37.00353" lon="-5.576136">
        <ele>308.0</ele>
        <time>2022-09-26T13:37:56.902+02:00[Europe/Madrid]</time>
      </trkpt>
      <trkpt lat="37.003689" lon="-5.576172">
        <ele>308.0</ele>
        <time>2022-09-26T13:37:57.902+02:00[Europe/Madrid]</time>
      </trkpt>
      <trkpt lat="37.003857" lon="-5.576202">
        <ele>307.0</ele>
        <time>2022-09-26T13:37:58.902+02:00[Europe/Madrid]</time>
      </trkpt>
      <trkpt lat="37.004036" lon="-5.576227">
        <ele>306.0</ele>
        <time>2022-09-26T13:37:59.902+02:00[Europe/Madrid]</time>
      </trkpt>
      <trkpt lat="37.004224" lon="-5.576253">
        <ele>306.0</ele>
        <time>2022-09-26T13:38:00.902+02:00[Europe/Madrid]</time>
      </trkpt>
      <trkpt lat="37.004407" lon="-5.57628">
        <ele>305.0</ele>
        <time>2022-09-26T13:38:01.902+02:00[Europe/Madrid]</time>
      </trkpt>
      <trkpt lat="37.004584" lon="-5.576308">
        <ele>304.0</ele>
        <time>2022-09-26T13:38:02.902+02:00[Europe/Madrid]</time>
      </trkpt>
      <trkpt lat="37.004759" lon="-5.576335">
        <ele>304.0</ele>
        <time>2022-09-26T13:38:03.902+02:00[Europe/Madrid]</time>
      </trkpt>
      <trkpt lat="37.004925" lon="-5.576364">
        <ele>304.0</ele>
        <time>2022-09-26T13:38:04.902+02:00[Europe/Madrid]</time>
      </trkpt>
      <trkpt lat="37.005083" lon="-5.576386">
        <ele>304.0</ele>
        <time>2022-09-26T13:38:05.902+02:00[Europe/Madrid]</time>
      </trkpt>
      <trkpt lat="37.005241" lon="-5.576405">
        <ele>304.0</ele>
        <time>2022-09-26T13:38:06.902+02:00[Europe/Madrid]</time>
      </trkpt>
      <trkpt lat="37.005402" lon="-5.576417">
        <ele>303.0</ele>
        <time>2022-09-26T13:38:07.902+02:00[Europe/Madrid]</time>
      </trkpt>
      <trkpt lat="37.005569" lon="-5.576426">
        <ele>303.0</ele>
        <time>2022-09-26T13:38:08.902+02:00[Europe/Madrid]</time>
      </trkpt>
      <trkpt lat="37.005744" lon="-5.576423">
        <ele>303.0</ele>
        <time>2022-09-26T13:38:09.902+02:00[Europe/Madrid]</time>
      </trkpt>
      <trkpt lat="37.005927" lon="-5.576404">
        <ele>302.0</ele>
        <time>2022-09-26T13:38:10.902+02:00[Europe/Madrid]</time>
      </trkpt>
      <trkpt lat="37.006113" lon="-5.576365">
        <ele>301.0</ele>
        <time>2022-09-26T13:38:11.902+02:00[Europe/Madrid]</time>
      </trkpt>
      <trkpt lat="37.006292" lon="-5.576315">
        <ele>300.0</ele>
        <time>2022-09-26T13:38:12.902+02:00[Europe/Madrid]</time>
      </trkpt>
      <trkpt lat="37.006459" lon="-5.576266">
        <ele>300.0</ele>
        <time>2022-09-26T13:38:13.902+02:00[Europe/Madrid]</time>
      </trkpt>
      <trkpt lat="37.006621" lon="-5.576221">
        <ele>300.0</ele>
        <time>2022-09-26T13:38:14.902+02:00[Europe/Madrid]</time>
      </trkpt>
      <trkpt lat="37.006771" lon="-5.576178">
        <ele>300.0</ele>
        <time>2022-09-26T13:38:15.902+02:00[Europe/Madrid]</time>
      </trkpt>
      <trkpt lat="37.00691" lon="-5.576137">
        <ele>300.0</ele>
        <time>2022-09-26T13:38:16.902+02:00[Europe/Madrid]</time>
      </trkpt>
      <trkpt lat="37.007041" lon="-5.576102">
        <ele>300.0</ele>
        <time>2022-09-26T13:38:17.902+02:00[Europe/Madrid]</time>
      </trkpt>
      <trkpt lat="37.007165" lon="-5.57605">
        <ele>300.0</ele>
        <time>2022-09-26T13:38:18.902+02:00[Europe/Madrid]</time>
      </trkpt>
      <trkpt lat="37.007285" lon="-5.575973">
        <ele>300.0</ele>
        <time>2022-09-26T13:38:19.902+02:00[Europe/Madrid]</time>
      </trkpt>
      <trkpt lat="37.007406" lon="-5.575863">
        <ele>299.0</ele>
        <time>2022-09-26T13:38:20.902+02:00[Europe/Madrid]</time>
      </trkpt>
      <trkpt lat="37.00753" lon="-5.575736">
        <ele>299.0</ele>
        <time>2022-09-26T13:38:21.905+02:00[Europe/Madrid]</time>
      </trkpt>
      <trkpt lat="37.007658" lon="-5.575594">
        <ele>299.0</ele>
        <time>2022-09-26T13:38:22.905+02:00[Europe/Madrid]</time>
      </trkpt>
      <trkpt lat="37.007791" lon="-5.575445">
        <ele>298.0</ele>
        <time>2022-09-26T13:38:23.905+02:00[Europe/Madrid]</time>
      </trkpt>
      <trkpt lat="37.007921" lon="-5.575295">
        <ele>298.0</ele>
        <time>2022-09-26T13:38:24.905+02:00[Europe/Madrid]</time>
      </trkpt>
      <trkpt lat="37.008047" lon="-5.575154">
        <ele>298.0</ele>
        <time>2022-09-26T13:38:25.905+02:00[Europe/Madrid]</time>
      </trkpt>
      <trkpt lat="37.008167" lon="-5.575015">
        <ele>299.0</ele>
        <time>2022-09-26T13:38:26.905+02:00[Europe/Madrid]</time>
      </trkpt>
      <trkpt lat="37.008285" lon="-5.574879">
        <ele>299.0</ele>
        <time>2022-09-26T13:38:27.905+02:00[Europe/Madrid]</time>
      </trkpt>
      <trkpt lat="37.008394" lon="-5.574751">
        <ele>299.0</ele>
        <time>2022-09-26T13:38:28.905+02:00[Europe/Madrid]</time>
      </trkpt>
      <trkpt lat="37.008501" lon="-5.574635">
        <ele>298.0</ele>
        <time>2022-09-26T13:38:29.905+02:00[Europe/Madrid]</time>
      </trkpt>
      <trkpt lat="37.00861" lon="-5.574535">
        <ele>298.0</ele>
        <time>2022-09-26T13:38:30.905+02:00[Europe/Madrid]</time>
      </trkpt>
      <trkpt lat="37.008719" lon="-5.574463">
        <ele>299.0</ele>
        <time>2022-09-26T13:38:31.905+02:00[Europe/Madrid]</time>
      </trkpt>
      <trkpt lat="37.00884" lon="-5.574421">
        <ele>299.0</ele>
        <time>2022-09-26T13:38:32.905+02:00[Europe/Madrid]</time>
      </trkpt>
      <trkpt lat="37.008975" lon="-5.574407">
        <ele>298.0</ele>
        <time>2022-09-26T13:38:33.905+02:00[Europe/Madrid]</time>
      </trkpt>
      <trkpt lat="37.009121" lon="-5.574424">
        <ele>298.0</ele>
        <time>2022-09-26T13:38:34.905+02:00[Europe/Madrid]</time>
      </trkpt>
      <trkpt lat="37.009278" lon="-5.574445">
        <ele>298.0</ele>
        <time>2022-09-26T13:38:35.905+02:00[Europe/Madrid]</time>
      </trkpt>
      <trkpt lat="37.009435" lon="-5.574458">
        <ele>297.0</ele>
        <time>2022-09-26T13:38:36.905+02:00[Europe/Madrid]</time>
      </trkpt>
      <trkpt lat="37.009584" lon="-5.574468">
        <ele>296.0</ele>
        <time>2022-09-26T13:38:37.905+02:00[Europe/Madrid]</time>
      </trkpt>
      <trkpt lat="37.009735" lon="-5.574484">
        <ele>296.0</ele>
        <time>2022-09-26T13:38:38.905+02:00[Europe/Madrid]</time>
      </trkpt>
      <trkpt lat="37.009887" lon="-5.57448">
        <ele>295.0</ele>
        <time>2022-09-26T13:38:39.905+02:00[Europe/Madrid]</time>
      </trkpt>
      <trkpt lat="37.010032" lon="-5.574463">
        <ele>295.0</ele>
        <time>2022-09-26T13:38:40.905+02:00[Europe/Madrid]</time>
      </trkpt>
      <trkpt lat="37.010178" lon="-5.574449">
        <ele>294.0</ele>
        <time>2022-09-26T13:38:41.905+02:00[Europe/Madrid]</time>
      </trkpt>
      <trkpt lat="37.010318" lon="-5.57444">
        <ele>294.0</ele>
        <time>2022-09-26T13:38:42.905+02:00[Europe/Madrid]</time>
      </trkpt>
      <trkpt lat="37.010451" lon="-5.574449">
        <ele>293.0</ele>
        <time>2022-09-26T13:38:43.905+02:00[Europe/Madrid]</time>
      </trkpt>
      <trkpt lat="37.010576" lon="-5.574484">
        <ele>293.0</ele>
        <time>2022-09-26T13:38:44.905+02:00[Europe/Madrid]</time>
      </trkpt>
      <trkpt lat="37.010682" lon="-5.574555">
        <ele>292.0</ele>
        <time>2022-09-26T13:38:45.905+02:00[Europe/Madrid]</time>
      </trkpt>
      <trkpt lat="37.010766" lon="-5.574657">
        <ele>292.0</ele>
        <time>2022-09-26T13:38:46.905+02:00[Europe/Madrid]</time>
      </trkpt>
      <trkpt lat="37.010828" lon="-5.57479">
        <ele>292.0</ele>
        <time>2022-09-26T13:38:47.905+02:00[Europe/Madrid]</time>
      </trkpt>
      <trkpt lat="37.010873" lon="-5.574952">
        <ele>293.0</ele>
        <time>2022-09-26T13:38:48.905+02:00[Europe/Madrid]</time>
      </trkpt>
      <trkpt lat="37.010909" lon="-5.575124">
        <ele>294.0</ele>
        <time>2022-09-26T13:38:49.905+02:00[Europe/Madrid]</time>
      </trkpt>
      <trkpt lat="37.010942" lon="-5.575277">
        <ele>294.0</ele>
        <time>2022-09-26T13:38:50.905+02:00[Europe/Madrid]</time>
      </trkpt>
      <trkpt lat="37.010987" lon="-5.575417">
        <ele>294.0</ele>
        <time>2022-09-26T13:38:51.905+02:00[Europe/Madrid]</time>
      </trkpt>
      <trkpt lat="37.011053" lon="-5.575533">
        <ele>295.0</ele>
        <time>2022-09-26T13:38:52.905+02:00[Europe/Madrid]</time>
      </trkpt>
      <trkpt lat="37.011138" lon="-5.575621">
        <ele>295.0</ele>
        <time>2022-09-26T13:38:53.905+02:00[Europe/Madrid]</time>
      </trkpt>
      <trkpt lat="37.011244" lon="-5.575681">
        <ele>294.0</ele>
        <time>2022-09-26T13:38:54.905+02:00[Europe/Madrid]</time>
      </trkpt>
      <trkpt lat="37.011369" lon="-5.575714">
        <ele>293.0</ele>
        <time>2022-09-26T13:38:55.905+02:00[Europe/Madrid]</time>
      </trkpt>
      <trkpt lat="37.011514" lon="-5.575718">
        <ele>293.0</ele>
        <time>2022-09-26T13:38:56.905+02:00[Europe/Madrid]</time>
      </trkpt>
      <trkpt lat="37.011669" lon="-5.575709">
        <ele>292.0</ele>
        <time>2022-09-26T13:38:57.905+02:00[Europe/Madrid]</time>
      </trkpt>
      <trkpt lat="37.011826" lon="-5.575693">
        <ele>291.0</ele>
        <time>2022-09-26T13:38:58.905+02:00[Europe/Madrid]</time>
      </trkpt>
      <trkpt lat="37.011978" lon="-5.575682">
        <ele>291.0</ele>
        <time>2022-09-26T13:38:59.905+02:00[Europe/Madrid]</time>
      </trkpt>
      <trkpt lat="37.012127" lon="-5.575682">
        <ele>290.0</ele>
        <time>2022-09-26T13:39:00.905+02:00[Europe/Madrid]</time>
      </trkpt>
      <trkpt lat="37.012279" lon="-5.575698">
        <ele>289.0</ele>
        <time>2022-09-26T13:39:01.905+02:00[Europe/Madrid]</time>
      </trkpt>
      <trkpt lat="37.012425" lon="-5.575732">
        <ele>289.0</ele>
        <time>2022-09-26T13:39:02.905+02:00[Europe/Madrid]</time>
      </trkpt>
      <trkpt lat="37.012569" lon="-5.575768">
        <ele>288.0</ele>
        <time>2022-09-26T13:39:03.905+02:00[Europe/Madrid]</time>
      </trkpt>
      <trkpt lat="37.012714" lon="-5.575783">
        <ele>287.0</ele>
        <time>2022-09-26T13:39:04.905+02:00[Europe/Madrid]</time>
      </trkpt>
      <trkpt lat="37.012866" lon="-5.575777">
        <ele>286.0</ele>
        <time>2022-09-26T13:39:05.905+02:00[Europe/Madrid]</time>
      </trkpt>
      <trkpt lat="37.013008" lon="-5.575743">
        <ele>285.0</ele>
        <time>2022-09-26T13:39:06.905+02:00[Europe/Madrid]</time>
      </trkpt>
      <trkpt lat="37.013147" lon="-5.575706">
        <ele>284.0</ele>
        <time>2022-09-26T13:39:07.905+02:00[Europe/Madrid]</time>
      </trkpt>
      <trkpt lat="37.013283" lon="-5.575693">
        <ele>283.0</ele>
        <time>2022-09-26T13:39:08.905+02:00[Europe/Madrid]</time>
      </trkpt>
      <trkpt lat="37.013423" lon="-5.5757">
        <ele>282.0</ele>
        <time>2022-09-26T13:39:09.905+02:00[Europe/Madrid]</time>
      </trkpt>
      <trkpt lat="37.013555" lon="-5.575736">
        <ele>281.0</ele>
        <time>2022-09-26T13:39:10.906+02:00[Europe/Madrid]</time>
      </trkpt>
      <trkpt lat="37.013689" lon="-5.57577">
        <ele>280.0</ele>
        <time>2022-09-26T13:39:11.906+02:00[Europe/Madrid]</time>
      </trkpt>
      <trkpt lat="37.013835" lon="-5.575786">
        <ele>279.0</ele>
        <time>2022-09-26T13:39:12.906+02:00[Europe/Madrid]</time>
      </trkpt>
      <trkpt lat="37.013987" lon="-5.575778">
        <ele>279.0</ele>
        <time>2022-09-26T13:39:13.906+02:00[Europe/Madrid]</time>
      </trkpt>
      <trkpt lat="37.014137" lon="-5.575764">
        <ele>278.0</ele>
        <time>2022-09-26T13:39:14.906+02:00[Europe/Madrid]</time>
      </trkpt>
      <trkpt lat="37.014275" lon="-5.575754">
        <ele>277.0</ele>
        <time>2022-09-26T13:39:15.906+02:00[Europe/Madrid]</time>
      </trkpt>
      <trkpt lat="37.014412" lon="-5.575741">
        <ele>277.0</ele>
        <time>2022-09-26T13:39:16.906+02:00[Europe/Madrid]</time>
      </trkpt>
      <trkpt lat="37.014553" lon="-5.575704">
        <ele>276.0</ele>
        <time>2022-09-26T13:39:17.906+02:00[Europe/Madrid]</time>
      </trkpt>
      <trkpt lat="37.014689" lon="-5.575652">
        <ele>275.0</ele>
        <time>2022-09-26T13:39:18.906+02:00[Europe/Madrid]</time>
      </trkpt>
      <trkpt lat="37.014829" lon="-5.575575">
        <ele>275.0</ele>
        <time>2022-09-26T13:39:19.906+02:00[Europe/Madrid]</time>
      </trkpt>
      <trkpt lat="37.01496" lon="-5.57548">
        <ele>274.0</ele>
        <time>2022-09-26T13:39:20.906+02:00[Europe/Madrid]</time>
      </trkpt>
      <trkpt lat="37.015096" lon="-5.57537">
        <ele>272.0</ele>
        <time>2022-09-26T13:39:21.906+02:00[Europe/Madrid]</time>
      </trkpt>
      <trkpt lat="37.015225" lon="-5.575258">
        <ele>270.0</ele>
        <time>2022-09-26T13:39:22.906+02:00[Europe/Madrid]</time>
      </trkpt>
      <trkpt lat="37.015353" lon="-5.575152">
        <ele>269.0</ele>
        <time>2022-09-26T13:39:23.906+02:00[Europe/Madrid]</time>
      </trkpt>
      <trkpt lat="37.015476" lon="-5.575046">
        <ele>267.0</ele>
        <time>2022-09-26T13:39:24.906+02:00[Europe/Madrid]</time>
      </trkpt>
      <trkpt lat="37.015598" lon="-5.574941">
        <ele>265.0</ele>
        <time>2022-09-26T13:39:25.906+02:00[Europe/Madrid]</time>
      </trkpt>
      <trkpt lat="37.015716" lon="-5.574842">
        <ele>264.0</ele>
        <time>2022-09-26T13:39:26.906+02:00[Europe/Madrid]</time>
      </trkpt>
      <trkpt lat="37.015836" lon="-5.57476">
        <ele>263.0</ele>
        <time>2022-09-26T13:39:27.906+02:00[Europe/Madrid]</time>
      </trkpt>
      <trkpt lat="37.01596" lon="-5.574701">
        <ele>262.0</ele>
        <time>2022-09-26T13:39:28.906+02:00[Europe/Madrid]</time>
      </trkpt>
      <trkpt lat="37.016088" lon="-5.574668">
        <ele>262.0</ele>
        <time>2022-09-26T13:39:29.906+02:00[Europe/Madrid]</time>
      </trkpt>
      <trkpt lat="37.016219" lon="-5.574658">
        <ele>261.0</ele>
        <time>2022-09-26T13:39:30.906+02:00[Europe/Madrid]</time>
      </trkpt>
      <trkpt lat="37.01635" lon="-5.574672">
        <ele>260.0</ele>
        <time>2022-09-26T13:39:31.906+02:00[Europe/Madrid]</time>
      </trkpt>
      <trkpt lat="37.016474" lon="-5.574714">
        <ele>259.0</ele>
        <time>2022-09-26T13:39:32.906+02:00[Europe/Madrid]</time>
      </trkpt>
      <trkpt lat="37.016592" lon="-5.574782">
        <ele>258.0</ele>
        <time>2022-09-26T13:39:33.906+02:00[Europe/Madrid]</time>
      </trkpt>
      <trkpt lat="37.016702" lon="-5.574857">
        <ele>258.0</ele>
        <time>2022-09-26T13:39:34.906+02:00[Europe/Madrid]</time>
      </trkpt>
      <trkpt lat="37.016811" lon="-5.574937">
        <ele>257.0</ele>
        <time>2022-09-26T13:39:35.906+02:00[Europe/Madrid]</time>
      </trkpt>
      <trkpt lat="37.016929" lon="-5.575013">
        <ele>256.0</ele>
        <time>2022-09-26T13:39:36.906+02:00[Europe/Madrid]</time>
      </trkpt>
      <trkpt lat="37.017047" lon="-5.575075">
        <ele>255.0</ele>
        <time>2022-09-26T13:39:37.906+02:00[Europe/Madrid]</time>
      </trkpt>
      <trkpt lat="37.017172" lon="-5.575118">
        <ele>254.0</ele>
        <time>2022-09-26T13:39:38.906+02:00[Europe/Madrid]</time>
      </trkpt>
      <trkpt lat="37.017308" lon="-5.575137">
        <ele>253.0</ele>
        <time>2022-09-26T13:39:39.906+02:00[Europe/Madrid]</time>
      </trkpt>
      <trkpt lat="37.017455" lon="-5.575135">
        <ele>252.0</ele>
        <time>2022-09-26T13:39:40.906+02:00[Europe/Madrid]</time>
      </trkpt>
      <trkpt lat="37.017609" lon="-5.575118">
        <ele>251.0</ele>
        <time>2022-09-26T13:39:41.906+02:00[Europe/Madrid]</time>
      </trkpt>
      <trkpt lat="37.017771" lon="-5.575098">
        <ele>250.0</ele>
        <time>2022-09-26T13:39:42.906+02:00[Europe/Madrid]</time>
      </trkpt>
      <trkpt lat="37.017929" lon="-5.575076">
        <ele>249.0</ele>
        <time>2022-09-26T13:39:43.906+02:00[Europe/Madrid]</time>
      </trkpt>
      <trkpt lat="37.018079" lon="-5.575057">
        <ele>248.0</ele>
        <time>2022-09-26T13:39:44.906+02:00[Europe/Madrid]</time>
      </trkpt>
      <trkpt lat="37.018228" lon="-5.575039">
        <ele>247.0</ele>
        <time>2022-09-26T13:39:45.906+02:00[Europe/Madrid]</time>
      </trkpt>
      <trkpt lat="37.018371" lon="-5.575016">
        <ele>247.0</ele>
        <time>2022-09-26T13:39:46.906+02:00[Europe/Madrid]</time>
      </trkpt>
      <trkpt lat="37.018509" lon="-5.574998">
        <ele>246.0</ele>
        <time>2022-09-26T13:39:47.906+02:00[Europe/Madrid]</time>
      </trkpt>
      <trkpt lat="37.018642" lon="-5.574981">
        <ele>245.0</ele>
        <time>2022-09-26T13:39:48.906+02:00[Europe/Madrid]</time>
      </trkpt>
      <trkpt lat="37.018767" lon="-5.574975">
        <ele>244.0</ele>
        <time>2022-09-26T13:39:49.906+02:00[Europe/Madrid]</time>
      </trkpt>
      <trkpt lat="37.018892" lon="-5.574983">
        <ele>243.0</ele>
        <time>2022-09-26T13:39:50.906+02:00[Europe/Madrid]</time>
      </trkpt>
      <trkpt lat="37.019009" lon="-5.575019">
        <ele>242.0</ele>
        <time>2022-09-26T13:39:51.906+02:00[Europe/Madrid]</time>
      </trkpt>
      <trkpt lat="37.019111" lon="-5.575085">
        <ele>241.0</ele>
        <time>2022-09-26T13:39:52.906+02:00[Europe/Madrid]</time>
      </trkpt>
      <trkpt lat="37.019195" lon="-5.575178">
        <ele>241.0</ele>
        <time>2022-09-26T13:39:53.906+02:00[Europe/Madrid]</time>
      </trkpt>
      <trkpt lat="37.019269" lon="-5.575302">
        <ele>241.0</ele>
        <time>2022-09-26T13:39:54.906+02:00[Europe/Madrid]</time>
      </trkpt>
      <trkpt lat="37.019331" lon="-5.575455">
        <ele>241.0</ele>
        <time>2022-09-26T13:39:55.906+02:00[Europe/Madrid]</time>
      </trkpt>
      <trkpt lat="37.019392" lon="-5.575628">
        <ele>241.0</ele>
        <time>2022-09-26T13:39:56.906+02:00[Europe/Madrid]</time>
      </trkpt>
      <trkpt lat="37.019447" lon="-5.575795">
        <ele>241.0</ele>
        <time>2022-09-26T13:39:57.906+02:00[Europe/Madrid]</time>
      </trkpt>
      <trkpt lat="37.019502" lon="-5.575953">
        <ele>241.0</ele>
        <time>2022-09-26T13:39:58.906+02:00[Europe/Madrid]</time>
      </trkpt>
      <trkpt lat="37.019565" lon="-5.57609">
        <ele>240.0</ele>
        <time>2022-09-26T13:39:59.906+02:00[Europe/Madrid]</time>
      </trkpt>
      <trkpt lat="37.019633" lon="-5.576211">
        <ele>240.0</ele>
        <time>2022-09-26T13:40:00.906+02:00[Europe/Madrid]</time>
      </trkpt>
      <trkpt lat="37.019722" lon="-5.576302">
        <ele>239.0</ele>
        <time>2022-09-26T13:40:01.906+02:00[Europe/Madrid]</time>
      </trkpt>
      <trkpt lat="37.01983" lon="-5.576358">
        <ele>238.0</ele>
        <time>2022-09-26T13:40:02.906+02:00[Europe/Madrid]</time>
      </trkpt>
      <trkpt lat="37.019959" lon="-5.576393">
        <ele>238.0</ele>
        <time>2022-09-26T13:40:03.906+02:00[Europe/Madrid]</time>
      </trkpt>
      <trkpt lat="37.020101" lon="-5.576413">
        <ele>237.0</ele>
        <time>2022-09-26T13:40:04.906+02:00[Europe/Madrid]</time>
      </trkpt>
      <trkpt lat="37.020244" lon="-5.576434">
        <ele>236.0</ele>
        <time>2022-09-26T13:40:05.906+02:00[Europe/Madrid]</time>
      </trkpt>
      <trkpt lat="37.020381" lon="-5.576466">
        <ele>235.0</ele>
        <time>2022-09-26T13:40:06.906+02:00[Europe/Madrid]</time>
      </trkpt>
      <trkpt lat="37.020513" lon="-5.576485">
        <ele>234.0</ele>
        <time>2022-09-26T13:40:07.906+02:00[Europe/Madrid]</time>
      </trkpt>
      <trkpt lat="37.020645" lon="-5.576478">
        <ele>232.0</ele>
        <time>2022-09-26T13:40:08.906+02:00[Europe/Madrid]</time>
      </trkpt>
      <trkpt lat="37.020771" lon="-5.576446">
        <ele>231.0</ele>
        <time>2022-09-26T13:40:09.906+02:00[Europe/Madrid]</time>
      </trkpt>
      <trkpt lat="37.020884" lon="-5.576375">
        <ele>230.0</ele>
        <time>2022-09-26T13:40:10.906+02:00[Europe/Madrid]</time>
      </trkpt>
      <trkpt lat="37.020982" lon="-5.576268">
        <ele>229.0</ele>
        <time>2022-09-26T13:40:11.906+02:00[Europe/Madrid]</time>
      </trkpt>
      <trkpt lat="37.021076" lon="-5.576135">
        <ele>227.0</ele>
        <time>2022-09-26T13:40:12.906+02:00[Europe/Madrid]</time>
      </trkpt>
      <trkpt lat="37.021171" lon="-5.575981">
        <ele>226.0</ele>
        <time>2022-09-26T13:40:13.906+02:00[Europe/Madrid]</time>
      </trkpt>
      <trkpt lat="37.02127" lon="-5.575818">
        <ele>224.0</ele>
        <time>2022-09-26T13:40:14.906+02:00[Europe/Madrid]</time>
      </trkpt>
      <trkpt lat="37.021368" lon="-5.57566">
        <ele>223.0</ele>
        <time>2022-09-26T13:40:15.906+02:00[Europe/Madrid]</time>
      </trkpt>
      <trkpt lat="37.021464" lon="-5.575501">
        <ele>222.0</ele>
        <time>2022-09-26T13:40:16.906+02:00[Europe/Madrid]</time>
      </trkpt>
      <trkpt lat="37.021559" lon="-5.57535">
        <ele>221.0</ele>
        <time>2022-09-26T13:40:17.906+02:00[Europe/Madrid]</time>
      </trkpt>
      <trkpt lat="37.021652" lon="-5.575202">
        <ele>220.0</ele>
        <time>2022-09-26T13:40:18.906+02:00[Europe/Madrid]</time>
      </trkpt>
      <trkpt lat="37.021744" lon="-5.57506">
        <ele>219.0</ele>
        <time>2022-09-26T13:40:19.906+02:00[Europe/Madrid]</time>
      </trkpt>
      <trkpt lat="37.021844" lon="-5.574927">
        <ele>218.0</ele>
        <time>2022-09-26T13:40:20.906+02:00[Europe/Madrid]</time>
      </trkpt>
      <trkpt lat="37.02195" lon="-5.574808">
        <ele>217.0</ele>
        <time>2022-09-26T13:40:21.906+02:00[Europe/Madrid]</time>
      </trkpt>
      <trkpt lat="37.022062" lon="-5.574708">
        <ele>216.0</ele>
        <time>2022-09-26T13:40:22.906+02:00[Europe/Madrid]</time>
      </trkpt>
      <trkpt lat="37.022179" lon="-5.574625">
        <ele>215.0</ele>
        <time>2022-09-26T13:40:23.906+02:00[Europe/Madrid]</time>
      </trkpt>
      <trkpt lat="37.022302" lon="-5.574562">
        <ele>214.0</ele>
        <time>2022-09-26T13:40:24.906+02:00[Europe/Madrid]</time>
      </trkpt>
      <trkpt lat="37.022433" lon="-5.574532">
        <ele>213.0</ele>
        <time>2022-09-26T13:40:25.906+02:00[Europe/Madrid]</time>
      </trkpt>
      <trkpt lat="37.022578" lon="-5.574522">
        <ele>213.0</ele>
        <time>2022-09-26T13:40:26.906+02:00[Europe/Madrid]</time>
      </trkpt>
      <trkpt lat="37.022721" lon="-5.574512">
        <ele>212.0</ele>
        <time>2022-09-26T13:40:27.906+02:00[Europe/Madrid]</time>
      </trkpt>
      <trkpt lat="37.022861" lon="-5.574473">
        <ele>212.0</ele>
        <time>2022-09-26T13:40:28.906+02:00[Europe/Madrid]</time>
      </trkpt>
      <trkpt lat="37.022997" lon="-5.574428">
        <ele>211.0</ele>
        <time>2022-09-26T13:40:29.906+02:00[Europe/Madrid]</time>
      </trkpt>
      <trkpt lat="37.023132" lon="-5.574411">
        <ele>210.0</ele>
        <time>2022-09-26T13:40:30.906+02:00[Europe/Madrid]</time>
      </trkpt>
      <trkpt lat="37.02327" lon="-5.574415">
        <ele>210.0</ele>
        <time>2022-09-26T13:40:31.906+02:00[Europe/Madrid]</time>
      </trkpt>
      <trkpt lat="37.023402" lon="-5.574417">
        <ele>209.0</ele>
        <time>2022-09-26T13:40:32.906+02:00[Europe/Madrid]</time>
      </trkpt>
      <trkpt lat="37.023535" lon="-5.574397">
        <ele>208.0</ele>
        <time>2022-09-26T13:40:33.906+02:00[Europe/Madrid]</time>
      </trkpt>
      <trkpt lat="37.023669" lon="-5.574364">
        <ele>208.0</ele>
        <time>2022-09-26T13:40:34.906+02:00[Europe/Madrid]</time>
      </trkpt>
      <trkpt lat="37.023796" lon="-5.574295">
        <ele>207.0</ele>
        <time>2022-09-26T13:40:35.906+02:00[Europe/Madrid]</time>
      </trkpt>
      <trkpt lat="37.023915" lon="-5.574203">
        <ele>207.0</ele>
        <time>2022-09-26T13:40:36.906+02:00[Europe/Madrid]</time>
      </trkpt>
      <trkpt lat="37.024034" lon="-5.574119">
        <ele>206.0</ele>
        <time>2022-09-26T13:40:37.906+02:00[Europe/Madrid]</time>
      </trkpt>
      <trkpt lat="37.024155" lon="-5.574038">
        <ele>205.0</ele>
        <time>2022-09-26T13:40:38.906+02:00[Europe/Madrid]</time>
      </trkpt>
      <trkpt lat="37.024286" lon="-5.573975">
        <ele>204.0</ele>
        <time>2022-09-26T13:40:39.906+02:00[Europe/Madrid]</time>
      </trkpt>
      <trkpt lat="37.024439" lon="-5.573926">
        <ele>204.0</ele>
        <time>2022-09-26T13:40:40.906+02:00[Europe/Madrid]</time>
      </trkpt>
      <trkpt lat="37.024597" lon="-5.573896">
        <ele>203.0</ele>
        <time>2022-09-26T13:40:41.906+02:00[Europe/Madrid]</time>
      </trkpt>
      <trkpt lat="37.024753" lon="-5.573873">
        <ele>203.0</ele>
        <time>2022-09-26T13:40:42.906+02:00[Europe/Madrid]</time>
      </trkpt>
      <trkpt lat="37.024909" lon="-5.573847">
        <ele>203.0</ele>
        <time>2022-09-26T13:40:43.906+02:00[Europe/Madrid]</time>
      </trkpt>
      <trkpt lat="37.025067" lon="-5.573809">
        <ele>204.0</ele>
        <time>2022-09-26T13:40:44.906+02:00[Europe/Madrid]</time>
      </trkpt>
      <trkpt lat="37.025228" lon="-5.573754">
        <ele>204.0</ele>
        <time>2022-09-26T13:40:45.906+02:00[Europe/Madrid]</time>
      </trkpt>
      <trkpt lat="37.025392" lon="-5.573695">
        <ele>205.0</ele>
        <time>2022-09-26T13:40:46.906+02:00[Europe/Madrid]</time>
      </trkpt>
      <trkpt lat="37.025553" lon="-5.573622">
        <ele>206.0</ele>
        <time>2022-09-26T13:40:47.906+02:00[Europe/Madrid]</time>
      </trkpt>
      <trkpt lat="37.025705" lon="-5.57353">
        <ele>207.0</ele>
        <time>2022-09-26T13:40:48.906+02:00[Europe/Madrid]</time>
      </trkpt>
      <trkpt lat="37.025854" lon="-5.573425">
        <ele>209.0</ele>
        <time>2022-09-26T13:40:49.906+02:00[Europe/Madrid]</time>
      </trkpt>
      <trkpt lat="37.02599" lon="-5.573309">
        <ele>210.0</ele>
        <time>2022-09-26T13:40:50.906+02:00[Europe/Madrid]</time>
      </trkpt>
      <trkpt lat="37.026109" lon="-5.573191">
        <ele>211.0</ele>
        <time>2022-09-26T13:40:51.906+02:00[Europe/Madrid]</time>
      </trkpt>
      <trkpt lat="37.026217" lon="-5.573073">
        <ele>212.0</ele>
        <time>2022-09-26T13:40:52.906+02:00[Europe/Madrid]</time>
      </trkpt>
      <trkpt lat="37.026319" lon="-5.572945">
        <ele>213.0</ele>
        <time>2022-09-26T13:40:53.906+02:00[Europe/Madrid]</time>
      </trkpt>
      <trkpt lat="37.026422" lon="-5.572806">
        <ele>214.0</ele>
        <time>2022-09-26T13:40:54.906+02:00[Europe/Madrid]</time>
      </trkpt>
      <trkpt lat="37.026526" lon="-5.572647">
        <ele>215.0</ele>
        <time>2022-09-26T13:40:55.912+02:00[Europe/Madrid]</time>
      </trkpt>
      <trkpt lat="37.026631" lon="-5.572476">
        <ele>216.0</ele>
        <time>2022-09-26T13:40:56.912+02:00[Europe/Madrid]</time>
      </trkpt>
      <trkpt lat="37.026745" lon="-5.572295">
        <ele>217.0</ele>
        <time>2022-09-26T13:40:57.912+02:00[Europe/Madrid]</time>
      </trkpt>
      <trkpt lat="37.026857" lon="-5.572112">
        <ele>217.0</ele>
        <time>2022-09-26T13:40:58.912+02:00[Europe/Madrid]</time>
      </trkpt>
      <trkpt lat="37.026966" lon="-5.571949">
        <ele>217.0</ele>
        <time>2022-09-26T13:40:59.912+02:00[Europe/Madrid]</time>
      </trkpt>
      <trkpt lat="37.027067" lon="-5.571789">
        <ele>218.0</ele>
        <time>2022-09-26T13:41:00.912+02:00[Europe/Madrid]</time>
      </trkpt>
      <trkpt lat="37.027155" lon="-5.571625">
        <ele>218.0</ele>
        <time>2022-09-26T13:41:01.912+02:00[Europe/Madrid]</time>
      </trkpt>
      <trkpt lat="37.027233" lon="-5.571469">
        <ele>218.0</ele>
        <time>2022-09-26T13:41:02.912+02:00[Europe/Madrid]</time>
      </trkpt>
      <trkpt lat="37.027295" lon="-5.5713">
        <ele>219.0</ele>
        <time>2022-09-26T13:41:03.912+02:00[Europe/Madrid]</time>
      </trkpt>
      <trkpt lat="37.027337" lon="-5.571128">
        <ele>219.0</ele>
        <time>2022-09-26T13:41:04.912+02:00[Europe/Madrid]</time>
      </trkpt>
      <trkpt lat="37.027353" lon="-5.570958">
        <ele>219.0</ele>
        <time>2022-09-26T13:41:05.912+02:00[Europe/Madrid]</time>
      </trkpt>
      <trkpt lat="37.027345" lon="-5.570801">
        <ele>218.0</ele>
        <time>2022-09-26T13:41:06.912+02:00[Europe/Madrid]</time>
      </trkpt>
      <trkpt lat="37.027306" lon="-5.570651">
        <ele>218.0</ele>
        <time>2022-09-26T13:41:07.912+02:00[Europe/Madrid]</time>
      </trkpt>
      <trkpt lat="37.027234" lon="-5.570519">
        <ele>218.0</ele>
        <time>2022-09-26T13:41:08.912+02:00[Europe/Madrid]</time>
      </trkpt>
      <trkpt lat="37.027136" lon="-5.570404">
        <ele>218.0</ele>
        <time>2022-09-26T13:41:09.912+02:00[Europe/Madrid]</time>
      </trkpt>
      <trkpt lat="37.027014" lon="-5.570304">
        <ele>218.0</ele>
        <time>2022-09-26T13:41:10.912+02:00[Europe/Madrid]</time>
      </trkpt>
      <trkpt lat="37.026883" lon="-5.570206">
        <ele>219.0</ele>
        <time>2022-09-26T13:41:11.912+02:00[Europe/Madrid]</time>
      </trkpt>
      <trkpt lat="37.026753" lon="-5.570098">
        <ele>218.0</ele>
        <time>2022-09-26T13:41:12.912+02:00[Europe/Madrid]</time>
      </trkpt>
      <trkpt lat="37.026638" lon="-5.569974">
        <ele>218.0</ele>
        <time>2022-09-26T13:41:13.912+02:00[Europe/Madrid]</time>
      </trkpt>
      <trkpt lat="37.026533" lon="-5.56984">
        <ele>217.0</ele>
        <time>2022-09-26T13:41:14.912+02:00[Europe/Madrid]</time>
      </trkpt>
      <trkpt lat="37.026435" lon="-5.569707">
        <ele>217.0</ele>
        <time>2022-09-26T13:41:15.912+02:00[Europe/Madrid]</time>
      </trkpt>
      <trkpt lat="37.026341" lon="-5.569567">
        <ele>216.0</ele>
        <time>2022-09-26T13:41:16.912+02:00[Europe/Madrid]</time>
      </trkpt>
      <trkpt lat="37.026246" lon="-5.569427">
        <ele>216.0</ele>
        <time>2022-09-26T13:41:17.912+02:00[Europe/Madrid]</time>
      </trkpt>
      <trkpt lat="37.026159" lon="-5.569295">
        <ele>215.0</ele>
        <time>2022-09-26T13:41:18.912+02:00[Europe/Madrid]</time>
      </trkpt>
      <trkpt lat="37.026073" lon="-5.569167">
        <ele>214.0</ele>
        <time>2022-09-26T13:41:19.912+02:00[Europe/Madrid]</time>
      </trkpt>
      <trkpt lat="37.025998" lon="-5.56904">
        <ele>214.0</ele>
        <time>2022-09-26T13:41:20.912+02:00[Europe/Madrid]</time>
      </trkpt>
      <trkpt lat="37.025935" lon="-5.568909">
        <ele>214.0</ele>
        <time>2022-09-26T13:41:21.912+02:00[Europe/Madrid]</time>
      </trkpt>
      <trkpt lat="37.02589" lon="-5.568764">
        <ele>213.0</ele>
        <time>2022-09-26T13:41:22.912+02:00[Europe/Madrid]</time>
      </trkpt>
      <trkpt lat="37.025857" lon="-5.568601">
        <ele>213.0</ele>
        <time>2022-09-26T13:41:23.912+02:00[Europe/Madrid]</time>
      </trkpt>
      <trkpt lat="37.025837" lon="-5.568425">
        <ele>213.0</ele>
        <time>2022-09-26T13:41:24.912+02:00[Europe/Madrid]</time>
      </trkpt>
      <trkpt lat="37.025824" lon="-5.568247">
        <ele>212.0</ele>
        <time>2022-09-26T13:41:25.912+02:00[Europe/Madrid]</time>
      </trkpt>
      <trkpt lat="37.025816" lon="-5.568073">
        <ele>212.0</ele>
        <time>2022-09-26T13:41:26.912+02:00[Europe/Madrid]</time>
      </trkpt>
      <trkpt lat="37.025822" lon="-5.567903">
        <ele>211.0</ele>
        <time>2022-09-26T13:41:27.912+02:00[Europe/Madrid]</time>
      </trkpt>
      <trkpt lat="37.025847" lon="-5.56773">
        <ele>210.0</ele>
        <time>2022-09-26T13:41:28.912+02:00[Europe/Madrid]</time>
      </trkpt>
      <trkpt lat="37.025887" lon="-5.567556">
        <ele>209.0</ele>
        <time>2022-09-26T13:41:29.912+02:00[Europe/Madrid]</time>
      </trkpt>
      <trkpt lat="37.025925" lon="-5.567387">
        <ele>209.0</ele>
        <time>2022-09-26T13:41:30.912+02:00[Europe/Madrid]</time>
      </trkpt>
      <trkpt lat="37.025958" lon="-5.567212">
        <ele>208.0</ele>
        <time>2022-09-26T13:41:31.912+02:00[Europe/Madrid]</time>
      </trkpt>
      <trkpt lat="37.025977" lon="-5.567031">
        <ele>207.0</ele>
        <time>2022-09-26T13:41:32.912+02:00[Europe/Madrid]</time>
      </trkpt>
      <trkpt lat="37.02598" lon="-5.56685">
        <ele>206.0</ele>
        <time>2022-09-26T13:41:33.912+02:00[Europe/Madrid]</time>
      </trkpt>
      <trkpt lat="37.025977" lon="-5.56668">
        <ele>206.0</ele>
        <time>2022-09-26T13:41:34.912+02:00[Europe/Madrid]</time>
      </trkpt>
      <trkpt lat="37.025983" lon="-5.566517">
        <ele>206.0</ele>
        <time>2022-09-26T13:41:35.912+02:00[Europe/Madrid]</time>
      </trkpt>
      <trkpt lat="37.026011" lon="-5.566355">
        <ele>206.0</ele>
        <time>2022-09-26T13:41:36.912+02:00[Europe/Madrid]</time>
      </trkpt>
      <trkpt lat="37.026054" lon="-5.56618">
        <ele>205.0</ele>
        <time>2022-09-26T13:41:37.912+02:00[Europe/Madrid]</time>
      </trkpt>
      <trkpt lat="37.026109" lon="-5.566">
        <ele>205.0</ele>
        <time>2022-09-26T13:41:38.912+02:00[Europe/Madrid]</time>
      </trkpt>
      <trkpt lat="37.026172" lon="-5.565819">
        <ele>204.0</ele>
        <time>2022-09-26T13:41:39.912+02:00[Europe/Madrid]</time>
      </trkpt>
      <trkpt lat="37.026237" lon="-5.565642">
        <ele>204.0</ele>
        <time>2022-09-26T13:41:40.912+02:00[Europe/Madrid]</time>
      </trkpt>
      <trkpt lat="37.026293" lon="-5.565476">
        <ele>203.0</ele>
        <time>2022-09-26T13:41:41.912+02:00[Europe/Madrid]</time>
      </trkpt>
      <trkpt lat="37.026348" lon="-5.565319">
        <ele>203.0</ele>
        <time>2022-09-26T13:41:42.912+02:00[Europe/Madrid]</time>
      </trkpt>
      <trkpt lat="37.026406" lon="-5.565168">
        <ele>202.0</ele>
        <time>2022-09-26T13:41:43.912+02:00[Europe/Madrid]</time>
      </trkpt>
      <trkpt lat="37.026471" lon="-5.565029">
        <ele>201.0</ele>
        <time>2022-09-26T13:41:44.912+02:00[Europe/Madrid]</time>
      </trkpt>
      <trkpt lat="37.026547" lon="-5.564899">
        <ele>201.0</ele>
        <time>2022-09-26T13:41:45.912+02:00[Europe/Madrid]</time>
      </trkpt>
      <trkpt lat="37.026623" lon="-5.564776">
        <ele>201.0</ele>
        <time>2022-09-26T13:41:46.912+02:00[Europe/Madrid]</time>
      </trkpt>
      <trkpt lat="37.026694" lon="-5.564653">
        <ele>200.0</ele>
        <time>2022-09-26T13:41:47.912+02:00[Europe/Madrid]</time>
      </trkpt>
      <trkpt lat="37.02676" lon="-5.564514">
        <ele>199.0</ele>
        <time>2022-09-26T13:41:48.912+02:00[Europe/Madrid]</time>
      </trkpt>
      <trkpt lat="37.026813" lon="-5.564366">
        <ele>199.0</ele>
        <time>2022-09-26T13:41:49.912+02:00[Europe/Madrid]</time>
      </trkpt>
      <trkpt lat="37.026851" lon="-5.564204">
        <ele>198.0</ele>
        <time>2022-09-26T13:41:50.912+02:00[Europe/Madrid]</time>
      </trkpt>
      <trkpt lat="37.026874" lon="-5.564049">
        <ele>197.0</ele>
        <time>2022-09-26T13:41:51.912+02:00[Europe/Madrid]</time>
      </trkpt>
      <trkpt lat="37.0269" lon="-5.563901">
        <ele>197.0</ele>
        <time>2022-09-26T13:41:52.912+02:00[Europe/Madrid]</time>
      </trkpt>
      <trkpt lat="37.026938" lon="-5.563745">
        <ele>196.0</ele>
        <time>2022-09-26T13:41:53.912+02:00[Europe/Madrid]</time>
      </trkpt>
      <trkpt lat="37.026993" lon="-5.56359">
        <ele>195.0</ele>
        <time>2022-09-26T13:41:54.912+02:00[Europe/Madrid]</time>
      </trkpt>
      <trkpt lat="37.027055" lon="-5.563427">
        <ele>194.0</ele>
        <time>2022-09-26T13:41:55.912+02:00[Europe/Madrid]</time>
      </trkpt>
      <trkpt lat="37.027119" lon="-5.563257">
        <ele>194.0</ele>
        <time>2022-09-26T13:41:56.912+02:00[Europe/Madrid]</time>
      </trkpt>
      <trkpt lat="37.027192" lon="-5.563098">
        <ele>193.0</ele>
        <time>2022-09-26T13:41:57.912+02:00[Europe/Madrid]</time>
      </trkpt>
      <trkpt lat="37.027266" lon="-5.562954">
        <ele>193.0</ele>
        <time>2022-09-26T13:41:58.912+02:00[Europe/Madrid]</time>
      </trkpt>
      <trkpt lat="37.027323" lon="-5.562807">
        <ele>192.0</ele>
        <time>2022-09-26T13:41:59.912+02:00[Europe/Madrid]</time>
      </trkpt>
      <trkpt lat="37.027364" lon="-5.56265">
        <ele>191.0</ele>
        <time>2022-09-26T13:42:00.912+02:00[Europe/Madrid]</time>
      </trkpt>
      <trkpt lat="37.027406" lon="-5.562491">
        <ele>190.0</ele>
        <time>2022-09-26T13:42:01.912+02:00[Europe/Madrid]</time>
      </trkpt>
      <trkpt lat="37.027451" lon="-5.562331">
        <ele>189.0</ele>
        <time>2022-09-26T13:42:02.912+02:00[Europe/Madrid]</time>
      </trkpt>
      <trkpt lat="37.027512" lon="-5.562183">
        <ele>188.0</ele>
        <time>2022-09-26T13:42:03.912+02:00[Europe/Madrid]</time>
      </trkpt>
      <trkpt lat="37.027577" lon="-5.562049">
        <ele>188.0</ele>
        <time>2022-09-26T13:42:04.912+02:00[Europe/Madrid]</time>
      </trkpt>
      <trkpt lat="37.027632" lon="-5.561912">
        <ele>187.0</ele>
        <time>2022-09-26T13:42:05.912+02:00[Europe/Madrid]</time>
      </trkpt>
      <trkpt lat="37.027675" lon="-5.561773">
        <ele>186.0</ele>
        <time>2022-09-26T13:42:06.912+02:00[Europe/Madrid]</time>
      </trkpt>
      <trkpt lat="37.027716" lon="-5.561635">
        <ele>186.0</ele>
        <time>2022-09-26T13:42:07.912+02:00[Europe/Madrid]</time>
      </trkpt>
      <trkpt lat="37.027756" lon="-5.561502">
        <ele>186.0</ele>
        <time>2022-09-26T13:42:08.912+02:00[Europe/Madrid]</time>
      </trkpt>
      <trkpt lat="37.027813" lon="-5.561383">
        <ele>185.0</ele>
        <time>2022-09-26T13:42:09.912+02:00[Europe/Madrid]</time>
      </trkpt>
      <trkpt lat="37.027888" lon="-5.561284">
        <ele>185.0</ele>
        <time>2022-09-26T13:42:10.912+02:00[Europe/Madrid]</time>
      </trkpt>
      <trkpt lat="37.027988" lon="-5.561207">
        <ele>184.0</ele>
        <time>2022-09-26T13:42:11.912+02:00[Europe/Madrid]</time>
      </trkpt>
      <trkpt lat="37.028108" lon="-5.56115">
        <ele>184.0</ele>
        <time>2022-09-26T13:42:12.912+02:00[Europe/Madrid]</time>
      </trkpt>
      <trkpt lat="37.028239" lon="-5.561093">
        <ele>183.0</ele>
        <time>2022-09-26T13:42:13.912+02:00[Europe/Madrid]</time>
      </trkpt>
      <trkpt lat="37.028365" lon="-5.561036">
        <ele>183.0</ele>
        <time>2022-09-26T13:42:14.912+02:00[Europe/Madrid]</time>
      </trkpt>
      <trkpt lat="37.028485" lon="-5.560984">
        <ele>183.0</ele>
        <time>2022-09-26T13:42:15.912+02:00[Europe/Madrid]</time>
      </trkpt>
      <trkpt lat="37.028611" lon="-5.560945">
        <ele>184.0</ele>
        <time>2022-09-26T13:42:16.912+02:00[Europe/Madrid]</time>
      </trkpt>
      <trkpt lat="37.028748" lon="-5.560919">
        <ele>183.0</ele>
        <time>2022-09-26T13:42:17.912+02:00[Europe/Madrid]</time>
      </trkpt>
      <trkpt lat="37.028887" lon="-5.560902">
        <ele>182.0</ele>
        <time>2022-09-26T13:42:18.912+02:00[Europe/Madrid]</time>
      </trkpt>
      <trkpt lat="37.029022" lon="-5.5609">
        <ele>182.0</ele>
        <time>2022-09-26T13:42:19.912+02:00[Europe/Madrid]</time>
      </trkpt>
      <trkpt lat="37.029151" lon="-5.5609">
        <ele>182.0</ele>
        <time>2022-09-26T13:42:20.912+02:00[Europe/Madrid]</time>
      </trkpt>
      <trkpt lat="37.029279" lon="-5.560897">
        <ele>182.0</ele>
        <time>2022-09-26T13:42:21.912+02:00[Europe/Madrid]</time>
      </trkpt>
      <trkpt lat="37.029417" lon="-5.560892">
        <ele>182.0</ele>
        <time>2022-09-26T13:42:22.912+02:00[Europe/Madrid]</time>
      </trkpt>
      <trkpt lat="37.029556" lon="-5.560891">
        <ele>182.0</ele>
        <time>2022-09-26T13:42:23.912+02:00[Europe/Madrid]</time>
      </trkpt>
      <trkpt lat="37.029692" lon="-5.560892">
        <ele>182.0</ele>
        <time>2022-09-26T13:42:24.912+02:00[Europe/Madrid]</time>
      </trkpt>
      <trkpt lat="37.029821" lon="-5.560898">
        <ele>182.0</ele>
        <time>2022-09-26T13:42:25.912+02:00[Europe/Madrid]</time>
      </trkpt>
      <trkpt lat="37.029941" lon="-5.560917">
        <ele>182.0</ele>
        <time>2022-09-26T13:42:26.912+02:00[Europe/Madrid]</time>
      </trkpt>
      <trkpt lat="37.03006" lon="-5.560948">
        <ele>182.0</ele>
        <time>2022-09-26T13:42:27.912+02:00[Europe/Madrid]</time>
      </trkpt>
      <trkpt lat="37.030174" lon="-5.560999">
        <ele>182.0</ele>
        <time>2022-09-26T13:42:28.912+02:00[Europe/Madrid]</time>
      </trkpt>
      <trkpt lat="37.030281" lon="-5.561073">
        <ele>182.0</ele>
        <time>2022-09-26T13:42:29.912+02:00[Europe/Madrid]</time>
      </trkpt>
      <trkpt lat="37.030379" lon="-5.561175">
        <ele>182.0</ele>
        <time>2022-09-26T13:42:30.912+02:00[Europe/Madrid]</time>
      </trkpt>
      <trkpt lat="37.030463" lon="-5.561294">
        <ele>182.0</ele>
        <time>2022-09-26T13:42:31.912+02:00[Europe/Madrid]</time>
      </trkpt>
      <trkpt lat="37.030527" lon="-5.561434">
        <ele>183.0</ele>
        <time>2022-09-26T13:42:32.912+02:00[Europe/Madrid]</time>
      </trkpt>
      <trkpt lat="37.030572" lon="-5.561589">
        <ele>183.0</ele>
        <time>2022-09-26T13:42:33.912+02:00[Europe/Madrid]</time>
      </trkpt>
      <trkpt lat="37.0306" lon="-5.561751">
        <ele>184.0</ele>
        <time>2022-09-26T13:42:34.912+02:00[Europe/Madrid]</time>
      </trkpt>
      <trkpt lat="37.0306" lon="-5.561924">
        <ele>184.0</ele>
        <time>2022-09-26T13:42:35.912+02:00[Europe/Madrid]</time>
      </trkpt>
      <trkpt lat="37.030579" lon="-5.562107">
        <ele>185.0</ele>
        <time>2022-09-26T13:42:36.912+02:00[Europe/Madrid]</time>
      </trkpt>
      <trkpt lat="37.030541" lon="-5.5623">
        <ele>186.0</ele>
        <time>2022-09-26T13:42:37.912+02:00[Europe/Madrid]</time>
      </trkpt>
      <trkpt lat="37.030498" lon="-5.562476">
        <ele>187.0</ele>
        <time>2022-09-26T13:42:38.912+02:00[Europe/Madrid]</time>
      </trkpt>
      <trkpt lat="37.030474" lon="-5.562644">
        <ele>188.0</ele>
        <time>2022-09-26T13:42:39.912+02:00[Europe/Madrid]</time>
      </trkpt>
      <trkpt lat="37.030463" lon="-5.562811">
        <ele>189.0</ele>
        <time>2022-09-26T13:42:40.912+02:00[Europe/Madrid]</time>
      </trkpt>
      <trkpt lat="37.030476" lon="-5.562974">
        <ele>190.0</ele>
        <time>2022-09-26T13:42:41.912+02:00[Europe/Madrid]</time>
      </trkpt>
      <trkpt lat="37.03051" lon="-5.56313">
        <ele>191.0</ele>
        <time>2022-09-26T13:42:42.912+02:00[Europe/Madrid]</time>
      </trkpt>
      <trkpt lat="37.030565" lon="-5.563258">
        <ele>192.0</ele>
        <time>2022-09-26T13:42:43.912+02:00[Europe/Madrid]</time>
      </trkpt>
      <trkpt lat="37.030646" lon="-5.563372">
        <ele>193.0</ele>
        <time>2022-09-26T13:42:44.912+02:00[Europe/Madrid]</time>
      </trkpt>
      <trkpt lat="37.030741" lon="-5.563459">
        <ele>193.0</ele>
        <time>2022-09-26T13:42:45.912+02:00[Europe/Madrid]</time>
      </trkpt>
      <trkpt lat="37.030848" lon="-5.563516">
        <ele>194.0</ele>
        <time>2022-09-26T13:42:46.912+02:00[Europe/Madrid]</time>
      </trkpt>
      <trkpt lat="37.030964" lon="-5.563536">
        <ele>195.0</ele>
        <time>2022-09-26T13:42:47.912+02:00[Europe/Madrid]</time>
      </trkpt>
      <trkpt lat="37.03108" lon="-5.563507">
        <ele>196.0</ele>
        <time>2022-09-26T13:42:48.912+02:00[Europe/Madrid]</time>
      </trkpt>
      <trkpt lat="37.031194" lon="-5.563442">
        <ele>197.0</ele>
        <time>2022-09-26T13:42:49.912+02:00[Europe/Madrid]</time>
      </trkpt>
      <trkpt lat="37.031313" lon="-5.563344">
        <ele>197.0</ele>
        <time>2022-09-26T13:42:50.912+02:00[Europe/Madrid]</time>
      </trkpt>
      <trkpt lat="37.031437" lon="-5.563241">
        <ele>197.0</ele>
        <time>2022-09-26T13:42:51.912+02:00[Europe/Madrid]</time>
      </trkpt>
      <trkpt lat="37.031551" lon="-5.563146">
        <ele>198.0</ele>
        <time>2022-09-26T13:42:52.912+02:00[Europe/Madrid]</time>
      </trkpt>
      <trkpt lat="37.031647" lon="-5.563046">
        <ele>198.0</ele>
        <time>2022-09-26T13:42:53.912+02:00[Europe/Madrid]</time>
      </trkpt>
      <trkpt lat="37.031723" lon="-5.56293">
        <ele>199.0</ele>
        <time>2022-09-26T13:42:54.912+02:00[Europe/Madrid]</time>
      </trkpt>
      <trkpt lat="37.031772" lon="-5.562793">
        <ele>199.0</ele>
        <time>2022-09-26T13:42:55.912+02:00[Europe/Madrid]</time>
      </trkpt>
      <trkpt lat="37.031799" lon="-5.562629">
        <ele>200.0</ele>
        <time>2022-09-26T13:42:56.912+02:00[Europe/Madrid]</time>
      </trkpt>
      <trkpt lat="37.031812" lon="-5.562445">
        <ele>201.0</ele>
        <time>2022-09-26T13:42:57.912+02:00[Europe/Madrid]</time>
      </trkpt>
      <trkpt lat="37.031818" lon="-5.562266">
        <ele>202.0</ele>
        <time>2022-09-26T13:42:58.912+02:00[Europe/Madrid]</time>
      </trkpt>
      <trkpt lat="37.031824" lon="-5.562106">
        <ele>203.0</ele>
        <time>2022-09-26T13:42:59.912+02:00[Europe/Madrid]</time>
      </trkpt>
      <trkpt lat="37.031837" lon="-5.561964">
        <ele>204.0</ele>
        <time>2022-09-26T13:43:00.912+02:00[Europe/Madrid]</time>
      </trkpt>
      <trkpt lat="37.031875" lon="-5.56185">
        <ele>205.0</ele>
        <time>2022-09-26T13:43:01.912+02:00[Europe/Madrid]</time>
      </trkpt>
      <trkpt lat="37.031935" lon="-5.561752">
        <ele>206.0</ele>
        <time>2022-09-26T13:43:02.912+02:00[Europe/Madrid]</time>
      </trkpt>
      <trkpt lat="37.032017" lon="-5.561679">
        <ele>207.0</ele>
        <time>2022-09-26T13:43:03.912+02:00[Europe/Madrid]</time>
      </trkpt>
      <trkpt lat="37.032124" lon="-5.561629">
        <ele>207.0</ele>
        <time>2022-09-26T13:43:04.912+02:00[Europe/Madrid]</time>
      </trkpt>
      <trkpt lat="37.032249" lon="-5.561586">
        <ele>208.0</ele>
        <time>2022-09-26T13:43:05.912+02:00[Europe/Madrid]</time>
      </trkpt>
      <trkpt lat="37.032391" lon="-5.561546">
        <ele>210.0</ele>
        <time>2022-09-26T13:43:06.912+02:00[Europe/Madrid]</time>
      </trkpt>
      <trkpt lat="37.032544" lon="-5.561499">
        <ele>211.0</ele>
        <time>2022-09-26T13:43:07.912+02:00[Europe/Madrid]</time>
      </trkpt>
      <trkpt lat="37.032716" lon="-5.561441">
        <ele>212.0</ele>
        <time>2022-09-26T13:43:08.912+02:00[Europe/Madrid]</time>
      </trkpt>
      <trkpt lat="37.032903" lon="-5.561378">
        <ele>213.0</ele>
        <time>2022-09-26T13:43:09.912+02:00[Europe/Madrid]</time>
      </trkpt>
      <trkpt lat="37.033077" lon="-5.561309">
        <ele>215.0</ele>
        <time>2022-09-26T13:43:10.912+02:00[Europe/Madrid]</time>
      </trkpt>
      <trkpt lat="37.033237" lon="-5.561232">
        <ele>216.0</ele>
        <time>2022-09-26T13:43:11.912+02:00[Europe/Madrid]</time>
      </trkpt>
      <trkpt lat="37.033401" lon="-5.561153">
        <ele>217.0</ele>
        <time>2022-09-26T13:43:12.912+02:00[Europe/Madrid]</time>
      </trkpt>
      <trkpt lat="37.033567" lon="-5.56108">
        <ele>218.0</ele>
        <time>2022-09-26T13:43:13.912+02:00[Europe/Madrid]</time>
      </trkpt>
      <trkpt lat="37.033737" lon="-5.561023">
        <ele>219.0</ele>
        <time>2022-09-26T13:43:14.912+02:00[Europe/Madrid]</time>
      </trkpt>
      <trkpt lat="37.033909" lon="-5.560983">
        <ele>220.0</ele>
        <time>2022-09-26T13:43:15.912+02:00[Europe/Madrid]</time>
      </trkpt>
      <trkpt lat="37.034086" lon="-5.560946">
        <ele>221.0</ele>
        <time>2022-09-26T13:43:16.912+02:00[Europe/Madrid]</time>
      </trkpt>
      <trkpt lat="37.034263" lon="-5.560914">
        <ele>222.0</ele>
        <time>2022-09-26T13:43:17.912+02:00[Europe/Madrid]</time>
      </trkpt>
      <trkpt lat="37.034439" lon="-5.560883">
        <ele>223.0</ele>
        <time>2022-09-26T13:43:18.912+02:00[Europe/Madrid]</time>
      </trkpt>
      <trkpt lat="37.034611" lon="-5.560851">
        <ele>224.0</ele>
        <time>2022-09-26T13:43:19.912+02:00[Europe/Madrid]</time>
      </trkpt>
      <trkpt lat="37.034778" lon="-5.560816">
        <ele>226.0</ele>
        <time>2022-09-26T13:43:20.912+02:00[Europe/Madrid]</time>
      </trkpt>
      <trkpt lat="37.034941" lon="-5.560769">
        <ele>227.0</ele>
        <time>2022-09-26T13:43:21.912+02:00[Europe/Madrid]</time>
      </trkpt>
      <trkpt lat="37.035103" lon="-5.56071">
        <ele>228.0</ele>
        <time>2022-09-26T13:43:22.912+02:00[Europe/Madrid]</time>
      </trkpt>
      <trkpt lat="37.035268" lon="-5.560633">
        <ele>229.0</ele>
        <time>2022-09-26T13:43:23.912+02:00[Europe/Madrid]</time>
      </trkpt>
      <trkpt lat="37.035432" lon="-5.560543">
        <ele>230.0</ele>
        <time>2022-09-26T13:43:24.912+02:00[Europe/Madrid]</time>
      </trkpt>
      <trkpt lat="37.035598" lon="-5.560437">
        <ele>231.0</ele>
        <time>2022-09-26T13:43:25.912+02:00[Europe/Madrid]</time>
      </trkpt>
      <trkpt lat="37.035765" lon="-5.560318">
        <ele>232.0</ele>
        <time>2022-09-26T13:43:26.912+02:00[Europe/Madrid]</time>
      </trkpt>
      <trkpt lat="37.035934" lon="-5.56019">
        <ele>233.0</ele>
        <time>2022-09-26T13:43:27.912+02:00[Europe/Madrid]</time>
      </trkpt>
      <trkpt lat="37.036103" lon="-5.560056">
        <ele>234.0</ele>
        <time>2022-09-26T13:43:28.912+02:00[Europe/Madrid]</time>
      </trkpt>
      <trkpt lat="37.036272" lon="-5.559928">
        <ele>235.0</ele>
        <time>2022-09-26T13:43:29.912+02:00[Europe/Madrid]</time>
      </trkpt>
      <trkpt lat="37.036433" lon="-5.559809">
        <ele>236.0</ele>
        <time>2022-09-26T13:43:30.912+02:00[Europe/Madrid]</time>
      </trkpt>
      <trkpt lat="37.036597" lon="-5.559687">
        <ele>236.0</ele>
        <time>2022-09-26T13:43:31.912+02:00[Europe/Madrid]</time>
      </trkpt>
      <trkpt lat="37.036762" lon="-5.559563">
        <ele>237.0</ele>
        <time>2022-09-26T13:43:32.912+02:00[Europe/Madrid]</time>
      </trkpt>
      <trkpt lat="37.036924" lon="-5.55944">
        <ele>237.0</ele>
        <time>2022-09-26T13:43:33.912+02:00[Europe/Madrid]</time>
      </trkpt>
      <trkpt lat="37.037081" lon="-5.559321">
        <ele>238.0</ele>
        <time>2022-09-26T13:43:34.912+02:00[Europe/Madrid]</time>
      </trkpt>
      <trkpt lat="37.037231" lon="-5.559201">
        <ele>239.0</ele>
        <time>2022-09-26T13:43:35.912+02:00[Europe/Madrid]</time>
      </trkpt>
      <trkpt lat="37.037375" lon="-5.559058">
        <ele>239.0</ele>
        <time>2022-09-26T13:43:36.912+02:00[Europe/Madrid]</time>
      </trkpt>
      <trkpt lat="37.037515" lon="-5.558892">
        <ele>240.0</ele>
        <time>2022-09-26T13:43:37.912+02:00[Europe/Madrid]</time>
      </trkpt>
      <trkpt lat="37.037655" lon="-5.558716">
        <ele>240.0</ele>
        <time>2022-09-26T13:43:38.912+02:00[Europe/Madrid]</time>
      </trkpt>
      <trkpt lat="37.037792" lon="-5.558529">
        <ele>241.0</ele>
        <time>2022-09-26T13:43:39.912+02:00[Europe/Madrid]</time>
      </trkpt>
      <trkpt lat="37.037921" lon="-5.558331">
        <ele>242.0</ele>
        <time>2022-09-26T13:43:40.912+02:00[Europe/Madrid]</time>
      </trkpt>
      <trkpt lat="37.038041" lon="-5.558124">
        <ele>242.0</ele>
        <time>2022-09-26T13:43:41.912+02:00[Europe/Madrid]</time>
      </trkpt>
      <trkpt lat="37.038153" lon="-5.557905">
        <ele>243.0</ele>
        <time>2022-09-26T13:43:42.912+02:00[Europe/Madrid]</time>
      </trkpt>
      <trkpt lat="37.038258" lon="-5.557683">
        <ele>244.0</ele>
        <time>2022-09-26T13:43:43.912+02:00[Europe/Madrid]</time>
      </trkpt>
      <trkpt lat="37.038361" lon="-5.557465">
        <ele>244.0</ele>
        <time>2022-09-26T13:43:44.912+02:00[Europe/Madrid]</time>
      </trkpt>
      <trkpt lat="37.038461" lon="-5.55725">
        <ele>244.0</ele>
        <time>2022-09-26T13:43:45.912+02:00[Europe/Madrid]</time>
      </trkpt>
      <trkpt lat="37.038559" lon="-5.55703">
        <ele>244.0</ele>
        <time>2022-09-26T13:43:46.912+02:00[Europe/Madrid]</time>
      </trkpt>
      <trkpt lat="37.038656" lon="-5.556797">
        <ele>243.0</ele>
        <time>2022-09-26T13:43:47.912+02:00[Europe/Madrid]</time>
      </trkpt>
      <trkpt lat="37.038758" lon="-5.556558">
        <ele>243.0</ele>
        <time>2022-09-26T13:43:48.912+02:00[Europe/Madrid]</time>
      </trkpt>
      <trkpt lat="37.038864" lon="-5.556315">
        <ele>242.0</ele>
        <time>2022-09-26T13:43:49.912+02:00[Europe/Madrid]</time>
      </trkpt>
      <trkpt lat="37.038967" lon="-5.556076">
        <ele>242.0</ele>
        <time>2022-09-26T13:43:50.912+02:00[Europe/Madrid]</time>
      </trkpt>
      <trkpt lat="37.039069" lon="-5.555848">
        <ele>242.0</ele>
        <time>2022-09-26T13:43:51.912+02:00[Europe/Madrid]</time>
      </trkpt>
      <trkpt lat="37.039163" lon="-5.555631">
        <ele>241.0</ele>
        <time>2022-09-26T13:43:52.912+02:00[Europe/Madrid]</time>
      </trkpt>
      <trkpt lat="37.039257" lon="-5.555419">
        <ele>241.0</ele>
        <time>2022-09-26T13:43:53.912+02:00[Europe/Madrid]</time>
      </trkpt>
      <trkpt lat="37.039352" lon="-5.55522">
        <ele>240.0</ele>
        <time>2022-09-26T13:43:54.912+02:00[Europe/Madrid]</time>
      </trkpt>
      <trkpt lat="37.039447" lon="-5.55503">
        <ele>240.0</ele>
        <time>2022-09-26T13:43:55.912+02:00[Europe/Madrid]</time>
      </trkpt>
      <trkpt lat="37.039548" lon="-5.554849">
        <ele>239.0</ele>
        <time>2022-09-26T13:43:56.912+02:00[Europe/Madrid]</time>
      </trkpt>
      <trkpt lat="37.03966" lon="-5.554678">
        <ele>239.0</ele>
        <time>2022-09-26T13:43:57.912+02:00[Europe/Madrid]</time>
      </trkpt>
      <trkpt lat="37.039793" lon="-5.554513">
        <ele>238.0</ele>
        <time>2022-09-26T13:43:58.912+02:00[Europe/Madrid]</time>
      </trkpt>
      <trkpt lat="37.039938" lon="-5.554347">
        <ele>237.0</ele>
        <time>2022-09-26T13:43:59.912+02:00[Europe/Madrid]</time>
      </trkpt>
      <trkpt lat="37.040098" lon="-5.554174">
        <ele>235.0</ele>
        <time>2022-09-26T13:44:00.912+02:00[Europe/Madrid]</time>
      </trkpt>
      <trkpt lat="37.040267" lon="-5.554001">
        <ele>234.0</ele>
        <time>2022-09-26T13:44:01.912+02:00[Europe/Madrid]</time>
      </trkpt>
      <trkpt lat="37.040443" lon="-5.553823">
        <ele>232.0</ele>
        <time>2022-09-26T13:44:02.912+02:00[Europe/Madrid]</time>
      </trkpt>
      <trkpt lat="37.040622" lon="-5.553644">
        <ele>231.0</ele>
        <time>2022-09-26T13:44:03.912+02:00[Europe/Madrid]</time>
      </trkpt>
      <trkpt lat="37.040803" lon="-5.55346">
        <ele>230.0</ele>
        <time>2022-09-26T13:44:04.912+02:00[Europe/Madrid]</time>
      </trkpt>
      <trkpt lat="37.040987" lon="-5.553274">
        <ele>229.0</ele>
        <time>2022-09-26T13:44:05.912+02:00[Europe/Madrid]</time>
      </trkpt>
      <trkpt lat="37.041171" lon="-5.553089">
        <ele>228.0</ele>
        <time>2022-09-26T13:44:06.912+02:00[Europe/Madrid]</time>
      </trkpt>
      <trkpt lat="37.041357" lon="-5.552905">
        <ele>227.0</ele>
        <time>2022-09-26T13:44:07.912+02:00[Europe/Madrid]</time>
      </trkpt>
      <trkpt lat="37.041544" lon="-5.55272">
        <ele>226.0</ele>
        <time>2022-09-26T13:44:08.912+02:00[Europe/Madrid]</time>
      </trkpt>
      <trkpt lat="37.041728" lon="-5.552534">
        <ele>225.0</ele>
        <time>2022-09-26T13:44:09.912+02:00[Europe/Madrid]</time>
      </trkpt>
      <trkpt lat="37.041912" lon="-5.552348">
        <ele>225.0</ele>
        <time>2022-09-26T13:44:10.912+02:00[Europe/Madrid]</time>
      </trkpt>
      <trkpt lat="37.042091" lon="-5.55217">
        <ele>225.0</ele>
        <time>2022-09-26T13:44:11.912+02:00[Europe/Madrid]</time>
      </trkpt>
      <trkpt lat="37.042262" lon="-5.552001">
        <ele>225.0</ele>
        <time>2022-09-26T13:44:12.912+02:00[Europe/Madrid]</time>
      </trkpt>
      <trkpt lat="37.042426" lon="-5.551837">
        <ele>225.0</ele>
        <time>2022-09-26T13:44:13.912+02:00[Europe/Madrid]</time>
      </trkpt>
      <trkpt lat="37.042586" lon="-5.551676">
        <ele>225.0</ele>
        <time>2022-09-26T13:44:14.912+02:00[Europe/Madrid]</time>
      </trkpt>
      <trkpt lat="37.042741" lon="-5.55152">
        <ele>225.0</ele>
        <time>2022-09-26T13:44:15.912+02:00[Europe/Madrid]</time>
      </trkpt>
      <trkpt lat="37.042894" lon="-5.551369">
        <ele>226.0</ele>
        <time>2022-09-26T13:44:16.912+02:00[Europe/Madrid]</time>
      </trkpt>
      <trkpt lat="37.043036" lon="-5.551224">
        <ele>226.0</ele>
        <time>2022-09-26T13:44:17.912+02:00[Europe/Madrid]</time>
      </trkpt>
      <trkpt lat="37.043176" lon="-5.551086">
        <ele>227.0</ele>
        <time>2022-09-26T13:44:18.912+02:00[Europe/Madrid]</time>
      </trkpt>
      <trkpt lat="37.043311" lon="-5.550951">
        <ele>227.0</ele>
        <time>2022-09-26T13:44:19.912+02:00[Europe/Madrid]</time>
      </trkpt>
      <trkpt lat="37.043446" lon="-5.550819">
        <ele>228.0</ele>
        <time>2022-09-26T13:44:20.912+02:00[Europe/Madrid]</time>
      </trkpt>
      <trkpt lat="37.043586" lon="-5.550683">
        <ele>228.0</ele>
        <time>2022-09-26T13:44:21.912+02:00[Europe/Madrid]</time>
      </trkpt>
      <trkpt lat="37.043733" lon="-5.550539">
        <ele>227.0</ele>
        <time>2022-09-26T13:44:22.912+02:00[Europe/Madrid]</time>
      </trkpt>
      <trkpt lat="37.043888" lon="-5.550388">
        <ele>227.0</ele>
        <time>2022-09-26T13:44:23.912+02:00[Europe/Madrid]</time>
      </trkpt>
      <trkpt lat="37.044057" lon="-5.550224">
        <ele>226.0</ele>
        <time>2022-09-26T13:44:24.912+02:00[Europe/Madrid]</time>
      </trkpt>
      <trkpt lat="37.044241" lon="-5.550046">
        <ele>225.0</ele>
        <time>2022-09-26T13:44:25.912+02:00[Europe/Madrid]</time>
      </trkpt>
      <trkpt lat="37.044434" lon="-5.549857">
        <ele>225.0</ele>
        <time>2022-09-26T13:44:26.912+02:00[Europe/Madrid]</time>
      </trkpt>
      <trkpt lat="37.044635" lon="-5.549655">
        <ele>225.0</ele>
        <time>2022-09-26T13:44:27.912+02:00[Europe/Madrid]</time>
      </trkpt>
      <trkpt lat="37.044842" lon="-5.549449">
        <ele>225.0</ele>
        <time>2022-09-26T13:44:28.912+02:00[Europe/Madrid]</time>
      </trkpt>
      <trkpt lat="37.045039" lon="-5.549253">
        <ele>226.0</ele>
        <time>2022-09-26T13:44:29.912+02:00[Europe/Madrid]</time>
      </trkpt>
      <trkpt lat="37.045227" lon="-5.549069">
        <ele>227.0</ele>
        <time>2022-09-26T13:44:30.912+02:00[Europe/Madrid]</time>
      </trkpt>
      <trkpt lat="37.045406" lon="-5.548895">
        <ele>229.0</ele>
        <time>2022-09-26T13:44:31.912+02:00[Europe/Madrid]</time>
      </trkpt>
      <trkpt lat="37.045586" lon="-5.548717">
        <ele>230.0</ele>
        <time>2022-09-26T13:44:32.912+02:00[Europe/Madrid]</time>
      </trkpt>
      <trkpt lat="37.045776" lon="-5.54853">
        <ele>231.0</ele>
        <time>2022-09-26T13:44:33.912+02:00[Europe/Madrid]</time>
      </trkpt>
      <trkpt lat="37.045969" lon="-5.548342">
        <ele>231.0</ele>
        <time>2022-09-26T13:44:34.912+02:00[Europe/Madrid]</time>
      </trkpt>
      <trkpt lat="37.046172" lon="-5.548143">
        <ele>231.0</ele>
        <time>2022-09-26T13:44:35.912+02:00[Europe/Madrid]</time>
      </trkpt>
      <trkpt lat="37.046383" lon="-5.547939">
        <ele>230.0</ele>
        <time>2022-09-26T13:44:36.912+02:00[Europe/Madrid]</time>
      </trkpt>
      <trkpt lat="37.046598" lon="-5.547725">
        <ele>230.0</ele>
        <time>2022-09-26T13:44:37.912+02:00[Europe/Madrid]</time>
      </trkpt>
      <trkpt lat="37.04682" lon="-5.547509">
        <ele>230.0</ele>
        <time>2022-09-26T13:44:38.912+02:00[Europe/Madrid]</time>
      </trkpt>
      <trkpt lat="37.047045" lon="-5.547287">
        <ele>230.0</ele>
        <time>2022-09-26T13:44:39.912+02:00[Europe/Madrid]</time>
      </trkpt>
      <trkpt lat="37.047269" lon="-5.547065">
        <ele>231.0</ele>
        <time>2022-09-26T13:44:40.912+02:00[Europe/Madrid]</time>
      </trkpt>
      <trkpt lat="37.047498" lon="-5.546843">
        <ele>232.0</ele>
        <time>2022-09-26T13:44:41.912+02:00[Europe/Madrid]</time>
      </trkpt>
      <trkpt lat="37.047727" lon="-5.546618">
        <ele>232.0</ele>
        <time>2022-09-26T13:44:42.912+02:00[Europe/Madrid]</time>
      </trkpt>
      <trkpt lat="37.047956" lon="-5.546391">
        <ele>233.0</ele>
        <time>2022-09-26T13:44:43.912+02:00[Europe/Madrid]</time>
      </trkpt>
      <trkpt lat="37.048185" lon="-5.546163">
        <ele>234.0</ele>
        <time>2022-09-26T13:44:44.912+02:00[Europe/Madrid]</time>
      </trkpt>
      <trkpt lat="37.048408" lon="-5.545939">
        <ele>235.0</ele>
        <time>2022-09-26T13:44:45.912+02:00[Europe/Madrid]</time>
      </trkpt>
      <trkpt lat="37.048622" lon="-5.545727">
        <ele>235.0</ele>
        <time>2022-09-26T13:44:46.912+02:00[Europe/Madrid]</time>
      </trkpt>
      <trkpt lat="37.048825" lon="-5.545527">
        <ele>236.0</ele>
        <time>2022-09-26T13:44:47.912+02:00[Europe/Madrid]</time>
      </trkpt>
      <trkpt lat="37.049024" lon="-5.545334">
        <ele>237.0</ele>
        <time>2022-09-26T13:44:48.912+02:00[Europe/Madrid]</time>
      </trkpt>
      <trkpt lat="37.049221" lon="-5.545142">
        <ele>238.0</ele>
        <time>2022-09-26T13:44:49.912+02:00[Europe/Madrid]</time>
      </trkpt>
      <trkpt lat="37.049409" lon="-5.544954">
        <ele>239.0</ele>
        <time>2022-09-26T13:44:50.912+02:00[Europe/Madrid]</time>
      </trkpt>
      <trkpt lat="37.049588" lon="-5.544772">
        <ele>240.0</ele>
        <time>2022-09-26T13:44:51.912+02:00[Europe/Madrid]</time>
      </trkpt>
      <trkpt lat="37.049761" lon="-5.544599">
        <ele>240.0</ele>
        <time>2022-09-26T13:44:52.912+02:00[Europe/Madrid]</time>
      </trkpt>
      <trkpt lat="37.049926" lon="-5.544437">
        <ele>241.0</ele>
        <time>2022-09-26T13:44:53.912+02:00[Europe/Madrid]</time>
      </trkpt>
      <trkpt lat="37.05008" lon="-5.544283">
        <ele>241.0</ele>
        <time>2022-09-26T13:44:54.912+02:00[Europe/Madrid]</time>
      </trkpt>
      <trkpt lat="37.050225" lon="-5.544139">
        <ele>242.0</ele>
        <time>2022-09-26T13:44:55.912+02:00[Europe/Madrid]</time>
      </trkpt>
      <trkpt lat="37.050365" lon="-5.544004">
        <ele>243.0</ele>
        <time>2022-09-26T13:44:56.978+02:00[Europe/Madrid]</time>
      </trkpt>
      <trkpt lat="37.050501" lon="-5.543877">
        <ele>243.0</ele>
        <time>2022-09-26T13:44:57.978+02:00[Europe/Madrid]</time>
      </trkpt>
      <trkpt lat="37.050633" lon="-5.543762">
        <ele>243.0</ele>
        <time>2022-09-26T13:44:58.978+02:00[Europe/Madrid]</time>
      </trkpt>
      <trkpt lat="37.050769" lon="-5.543673">
        <ele>243.0</ele>
        <time>2022-09-26T13:44:59.978+02:00[Europe/Madrid]</time>
      </trkpt>
      <trkpt lat="37.050908" lon="-5.543613">
        <ele>244.0</ele>
        <time>2022-09-26T13:45:00.978+02:00[Europe/Madrid]</time>
      </trkpt>
      <trkpt lat="37.051053" lon="-5.543586">
        <ele>244.0</ele>
        <time>2022-09-26T13:45:01.978+02:00[Europe/Madrid]</time>
      </trkpt>
      <trkpt lat="37.051208" lon="-5.543586">
        <ele>244.0</ele>
        <time>2022-09-26T13:45:02.978+02:00[Europe/Madrid]</time>
      </trkpt>
      <trkpt lat="37.051365" lon="-5.543599">
        <ele>245.0</ele>
        <time>2022-09-26T13:45:03.978+02:00[Europe/Madrid]</time>
      </trkpt>
      <trkpt lat="37.051531" lon="-5.543602">
        <ele>245.0</ele>
        <time>2022-09-26T13:45:04.978+02:00[Europe/Madrid]</time>
      </trkpt>
      <trkpt lat="37.051707" lon="-5.543589">
        <ele>246.0</ele>
        <time>2022-09-26T13:45:05.978+02:00[Europe/Madrid]</time>
      </trkpt>
      <trkpt lat="37.051897" lon="-5.543555">
        <ele>246.0</ele>
        <time>2022-09-26T13:45:06.978+02:00[Europe/Madrid]</time>
      </trkpt>
      <trkpt lat="37.052099" lon="-5.543506">
        <ele>246.0</ele>
        <time>2022-09-26T13:45:07.978+02:00[Europe/Madrid]</time>
      </trkpt>
      <trkpt lat="37.052317" lon="-5.543448">
        <ele>245.0</ele>
        <time>2022-09-26T13:45:08.978+02:00[Europe/Madrid]</time>
      </trkpt>
      <trkpt lat="37.052546" lon="-5.543384">
        <ele>245.0</ele>
        <time>2022-09-26T13:45:09.978+02:00[Europe/Madrid]</time>
      </trkpt>
      <trkpt lat="37.052786" lon="-5.543309">
        <ele>245.0</ele>
        <time>2022-09-26T13:45:10.978+02:00[Europe/Madrid]</time>
      </trkpt>
      <trkpt lat="37.053029" lon="-5.543224">
        <ele>246.0</ele>
        <time>2022-09-26T13:45:11.978+02:00[Europe/Madrid]</time>
      </trkpt>
      <trkpt lat="37.05327" lon="-5.543131">
        <ele>246.0</ele>
        <time>2022-09-26T13:45:12.978+02:00[Europe/Madrid]</time>
      </trkpt>
      <trkpt lat="37.053502" lon="-5.543035">
        <ele>246.0</ele>
        <time>2022-09-26T13:45:13.978+02:00[Europe/Madrid]</time>
      </trkpt>
      <trkpt lat="37.053734" lon="-5.542936">
        <ele>246.0</ele>
        <time>2022-09-26T13:45:14.978+02:00[Europe/Madrid]</time>
      </trkpt>
      <trkpt lat="37.053969" lon="-5.542833">
        <ele>246.0</ele>
        <time>2022-09-26T13:45:15.978+02:00[Europe/Madrid]</time>
      </trkpt>
      <trkpt lat="37.0542" lon="-5.542721">
        <ele>246.0</ele>
        <time>2022-09-26T13:45:16.978+02:00[Europe/Madrid]</time>
      </trkpt>
      <trkpt lat="37.054423" lon="-5.54261">
        <ele>246.0</ele>
        <time>2022-09-26T13:45:17.978+02:00[Europe/Madrid]</time>
      </trkpt>
      <trkpt lat="37.054627" lon="-5.542511">
        <ele>246.0</ele>
        <time>2022-09-26T13:45:18.978+02:00[Europe/Madrid]</time>
      </trkpt>
      <trkpt lat="37.054816" lon="-5.542415">
        <ele>246.0</ele>
        <time>2022-09-26T13:45:19.978+02:00[Europe/Madrid]</time>
      </trkpt>
      <trkpt lat="37.054998" lon="-5.542314">
        <ele>246.0</ele>
        <time>2022-09-26T13:45:20.978+02:00[Europe/Madrid]</time>
      </trkpt>
      <trkpt lat="37.055178" lon="-5.542217">
        <ele>245.0</ele>
        <time>2022-09-26T13:45:21.978+02:00[Europe/Madrid]</time>
      </trkpt>
      <trkpt lat="37.055347" lon="-5.542129">
        <ele>244.0</ele>
        <time>2022-09-26T13:45:22.978+02:00[Europe/Madrid]</time>
      </trkpt>
      <trkpt lat="37.055514" lon="-5.542048">
        <ele>244.0</ele>
        <time>2022-09-26T13:45:23.978+02:00[Europe/Madrid]</time>
      </trkpt>
      <trkpt lat="37.055676" lon="-5.541972">
        <ele>243.0</ele>
        <time>2022-09-26T13:45:24.978+02:00[Europe/Madrid]</time>
      </trkpt>
      <trkpt lat="37.055845" lon="-5.541896">
        <ele>243.0</ele>
        <time>2022-09-26T13:45:25.978+02:00[Europe/Madrid]</time>
      </trkpt>
      <trkpt lat="37.056025" lon="-5.541839">
        <ele>242.0</ele>
        <time>2022-09-26T13:45:26.978+02:00[Europe/Madrid]</time>
      </trkpt>
      <trkpt lat="37.056214" lon="-5.541803">
        <ele>242.0</ele>
        <time>2022-09-26T13:45:27.978+02:00[Europe/Madrid]</time>
      </trkpt>
      <trkpt lat="37.056421" lon="-5.54178">
        <ele>242.0</ele>
        <time>2022-09-26T13:45:28.978+02:00[Europe/Madrid]</time>
      </trkpt>
      <trkpt lat="37.056641" lon="-5.541756">
        <ele>241.0</ele>
        <time>2022-09-26T13:45:29.978+02:00[Europe/Madrid]</time>
      </trkpt>
      <trkpt lat="37.056874" lon="-5.541727">
        <ele>241.0</ele>
        <time>2022-09-26T13:45:30.978+02:00[Europe/Madrid]</time>
      </trkpt>
      <trkpt lat="37.057116" lon="-5.541693">
        <ele>241.0</ele>
        <time>2022-09-26T13:45:31.978+02:00[Europe/Madrid]</time>
      </trkpt>
      <trkpt lat="37.057361" lon="-5.541656">
        <ele>241.0</ele>
        <time>2022-09-26T13:45:32.978+02:00[Europe/Madrid]</time>
      </trkpt>
      <trkpt lat="37.057607" lon="-5.541618">
        <ele>240.0</ele>
        <time>2022-09-26T13:45:33.978+02:00[Europe/Madrid]</time>
      </trkpt>
      <trkpt lat="37.057861" lon="-5.541573">
        <ele>240.0</ele>
        <time>2022-09-26T13:45:34.978+02:00[Europe/Madrid]</time>
      </trkpt>
      <trkpt lat="37.05812" lon="-5.541526">
        <ele>240.0</ele>
        <time>2022-09-26T13:45:35.978+02:00[Europe/Madrid]</time>
      </trkpt>
      <trkpt lat="37.058385" lon="-5.541467">
        <ele>240.0</ele>
        <time>2022-09-26T13:45:36.978+02:00[Europe/Madrid]</time>
      </trkpt>
      <trkpt lat="37.058659" lon="-5.541405">
        <ele>239.0</ele>
        <time>2022-09-26T13:45:37.978+02:00[Europe/Madrid]</time>
      </trkpt>
      <trkpt lat="37.058923" lon="-5.541345">
        <ele>239.0</ele>
        <time>2022-09-26T13:45:38.978+02:00[Europe/Madrid]</time>
      </trkpt>
      <trkpt lat="37.059174" lon="-5.541289">
        <ele>239.0</ele>
        <time>2022-09-26T13:45:39.978+02:00[Europe/Madrid]</time>
      </trkpt>
      <trkpt lat="37.059416" lon="-5.541234">
        <ele>239.0</ele>
        <time>2022-09-26T13:45:40.978+02:00[Europe/Madrid]</time>
      </trkpt>
      <trkpt lat="37.059646" lon="-5.541179">
        <ele>239.0</ele>
        <time>2022-09-26T13:45:41.978+02:00[Europe/Madrid]</time>
      </trkpt>
      <trkpt lat="37.059868" lon="-5.541124">
        <ele>239.0</ele>
        <time>2022-09-26T13:45:42.978+02:00[Europe/Madrid]</time>
      </trkpt>
      <trkpt lat="37.060085" lon="-5.54106">
        <ele>239.0</ele>
        <time>2022-09-26T13:45:43.978+02:00[Europe/Madrid]</time>
      </trkpt>
      <trkpt lat="37.060295" lon="-5.540982">
        <ele>238.0</ele>
        <time>2022-09-26T13:45:44.978+02:00[Europe/Madrid]</time>
      </trkpt>
      <trkpt lat="37.0605" lon="-5.540899">
        <ele>238.0</ele>
        <time>2022-09-26T13:45:45.978+02:00[Europe/Madrid]</time>
      </trkpt>
      <trkpt lat="37.060698" lon="-5.540817">
        <ele>237.0</ele>
        <time>2022-09-26T13:45:46.978+02:00[Europe/Madrid]</time>
      </trkpt>
      <trkpt lat="37.060888" lon="-5.540736">
        <ele>236.0</ele>
        <time>2022-09-26T13:45:47.978+02:00[Europe/Madrid]</time>
      </trkpt>
      <trkpt lat="37.061072" lon="-5.540657">
        <ele>235.0</ele>
        <time>2022-09-26T13:45:48.978+02:00[Europe/Madrid]</time>
      </trkpt>
      <trkpt lat="37.061255" lon="-5.540578">
        <ele>234.0</ele>
        <time>2022-09-26T13:45:49.978+02:00[Europe/Madrid]</time>
      </trkpt>
      <trkpt lat="37.061427" lon="-5.540498">
        <ele>234.0</ele>
        <time>2022-09-26T13:45:50.978+02:00[Europe/Madrid]</time>
      </trkpt>
      <trkpt lat="37.061595" lon="-5.540387">
        <ele>232.0</ele>
        <time>2022-09-26T13:45:51.978+02:00[Europe/Madrid]</time>
      </trkpt>
      <trkpt lat="37.06176" lon="-5.54026">
        <ele>231.0</ele>
        <time>2022-09-26T13:45:52.978+02:00[Europe/Madrid]</time>
      </trkpt>
      <trkpt lat="37.061925" lon="-5.540108">
        <ele>230.0</ele>
        <time>2022-09-26T13:45:53.978+02:00[Europe/Madrid]</time>
      </trkpt>
      <trkpt lat="37.062094" lon="-5.539949">
        <ele>229.0</ele>
        <time>2022-09-26T13:45:54.978+02:00[Europe/Madrid]</time>
      </trkpt>
      <trkpt lat="37.062255" lon="-5.539793">
        <ele>228.0</ele>
        <time>2022-09-26T13:45:55.978+02:00[Europe/Madrid]</time>
      </trkpt>
      <trkpt lat="37.062407" lon="-5.539637">
        <ele>226.0</ele>
        <time>2022-09-26T13:45:56.978+02:00[Europe/Madrid]</time>
      </trkpt>
      <trkpt lat="37.06255" lon="-5.539468">
        <ele>225.0</ele>
        <time>2022-09-26T13:45:57.978+02:00[Europe/Madrid]</time>
      </trkpt>
      <trkpt lat="37.062679" lon="-5.539276">
        <ele>224.0</ele>
        <time>2022-09-26T13:45:58.978+02:00[Europe/Madrid]</time>
      </trkpt>
      <trkpt lat="37.062804" lon="-5.539054">
        <ele>224.0</ele>
        <time>2022-09-26T13:45:59.978+02:00[Europe/Madrid]</time>
      </trkpt>
      <trkpt lat="37.062923" lon="-5.538812">
        <ele>223.0</ele>
        <time>2022-09-26T13:46:00.978+02:00[Europe/Madrid]</time>
      </trkpt>
      <trkpt lat="37.063045" lon="-5.538555">
        <ele>222.0</ele>
        <time>2022-09-26T13:46:01.978+02:00[Europe/Madrid]</time>
      </trkpt>
      <trkpt lat="37.063173" lon="-5.538288">
        <ele>222.0</ele>
        <time>2022-09-26T13:46:02.978+02:00[Europe/Madrid]</time>
      </trkpt>
      <trkpt lat="37.063299" lon="-5.538028">
        <ele>221.0</ele>
        <time>2022-09-26T13:46:03.978+02:00[Europe/Madrid]</time>
      </trkpt>
      <trkpt lat="37.063418" lon="-5.537777">
        <ele>221.0</ele>
        <time>2022-09-26T13:46:04.978+02:00[Europe/Madrid]</time>
      </trkpt>
      <trkpt lat="37.063528" lon="-5.537545">
        <ele>220.0</ele>
        <time>2022-09-26T13:46:05.978+02:00[Europe/Madrid]</time>
      </trkpt>
      <trkpt lat="37.063627" lon="-5.53733">
        <ele>220.0</ele>
        <time>2022-09-26T13:46:06.978+02:00[Europe/Madrid]</time>
      </trkpt>
      <trkpt lat="37.063715" lon="-5.537115">
        <ele>220.0</ele>
        <time>2022-09-26T13:46:07.978+02:00[Europe/Madrid]</time>
      </trkpt>
      <trkpt lat="37.063786" lon="-5.536885">
        <ele>219.0</ele>
        <time>2022-09-26T13:46:08.978+02:00[Europe/Madrid]</time>
      </trkpt>
      <trkpt lat="37.063841" lon="-5.536628">
        <ele>219.0</ele>
        <time>2022-09-26T13:46:09.978+02:00[Europe/Madrid]</time>
      </trkpt>
      <trkpt lat="37.063888" lon="-5.53635">
        <ele>218.0</ele>
        <time>2022-09-26T13:46:10.978+02:00[Europe/Madrid]</time>
      </trkpt>
      <trkpt lat="37.063936" lon="-5.536062">
        <ele>218.0</ele>
        <time>2022-09-26T13:46:11.978+02:00[Europe/Madrid]</time>
      </trkpt>
      <trkpt lat="37.063983" lon="-5.535759">
        <ele>218.0</ele>
        <time>2022-09-26T13:46:12.978+02:00[Europe/Madrid]</time>
      </trkpt>
      <trkpt lat="37.064033" lon="-5.535446">
        <ele>218.0</ele>
        <time>2022-09-26T13:46:13.978+02:00[Europe/Madrid]</time>
      </trkpt>
      <trkpt lat="37.064082" lon="-5.535124">
        <ele>217.0</ele>
        <time>2022-09-26T13:46:14.978+02:00[Europe/Madrid]</time>
      </trkpt>
      <trkpt lat="37.064134" lon="-5.534798">
        <ele>217.0</ele>
        <time>2022-09-26T13:46:15.978+02:00[Europe/Madrid]</time>
      </trkpt>
      <trkpt lat="37.064181" lon="-5.534483">
        <ele>217.0</ele>
        <time>2022-09-26T13:46:16.978+02:00[Europe/Madrid]</time>
      </trkpt>
      <trkpt lat="37.064228" lon="-5.534182">
        <ele>216.0</ele>
        <time>2022-09-26T13:46:17.978+02:00[Europe/Madrid]</time>
      </trkpt>
      <trkpt lat="37.064274" lon="-5.533892">
        <ele>216.0</ele>
        <time>2022-09-26T13:46:18.978+02:00[Europe/Madrid]</time>
      </trkpt>
      <trkpt lat="37.064314" lon="-5.533618">
        <ele>216.0</ele>
        <time>2022-09-26T13:46:19.978+02:00[Europe/Madrid]</time>
      </trkpt>
      <trkpt lat="37.06435" lon="-5.533366">
        <ele>216.0</ele>
        <time>2022-09-26T13:46:20.978+02:00[Europe/Madrid]</time>
      </trkpt>
      <trkpt lat="37.064386" lon="-5.533143">
        <ele>215.0</ele>
        <time>2022-09-26T13:46:21.978+02:00[Europe/Madrid]</time>
      </trkpt>
      <trkpt lat="37.06442" lon="-5.532941">
        <ele>215.0</ele>
        <time>2022-09-26T13:46:22.978+02:00[Europe/Madrid]</time>
      </trkpt>
      <trkpt lat="37.064459" lon="-5.532752">
        <ele>215.0</ele>
        <time>2022-09-26T13:46:23.978+02:00[Europe/Madrid]</time>
      </trkpt>
      <trkpt lat="37.064507" lon="-5.532572">
        <ele>215.0</ele>
        <time>2022-09-26T13:46:24.978+02:00[Europe/Madrid]</time>
      </trkpt>
      <trkpt lat="37.064571" lon="-5.532408">
        <ele>214.0</ele>
        <time>2022-09-26T13:46:25.978+02:00[Europe/Madrid]</time>
      </trkpt>
      <trkpt lat="37.064656" lon="-5.532257">
        <ele>214.0</ele>
        <time>2022-09-26T13:46:26.978+02:00[Europe/Madrid]</time>
      </trkpt>
      <trkpt lat="37.064765" lon="-5.53211">
        <ele>214.0</ele>
        <time>2022-09-26T13:46:27.978+02:00[Europe/Madrid]</time>
      </trkpt>
      <trkpt lat="37.064892" lon="-5.531955">
        <ele>213.0</ele>
        <time>2022-09-26T13:46:28.978+02:00[Europe/Madrid]</time>
      </trkpt>
      <trkpt lat="37.065034" lon="-5.531788">
        <ele>213.0</ele>
        <time>2022-09-26T13:46:29.978+02:00[Europe/Madrid]</time>
      </trkpt>
      <trkpt lat="37.065188" lon="-5.531607">
        <ele>213.0</ele>
        <time>2022-09-26T13:46:30.978+02:00[Europe/Madrid]</time>
      </trkpt>
      <trkpt lat="37.065353" lon="-5.531413">
        <ele>212.0</ele>
        <time>2022-09-26T13:46:31.978+02:00[Europe/Madrid]</time>
      </trkpt>
      <trkpt lat="37.065529" lon="-5.531205">
        <ele>212.0</ele>
        <time>2022-09-26T13:46:32.978+02:00[Europe/Madrid]</time>
      </trkpt>
      <trkpt lat="37.065717" lon="-5.530981">
        <ele>212.0</ele>
        <time>2022-09-26T13:46:33.978+02:00[Europe/Madrid]</time>
      </trkpt>
      <trkpt lat="37.065915" lon="-5.530746">
        <ele>212.0</ele>
        <time>2022-09-26T13:46:34.978+02:00[Europe/Madrid]</time>
      </trkpt>
      <trkpt lat="37.066115" lon="-5.530508">
        <ele>212.0</ele>
        <time>2022-09-26T13:46:35.978+02:00[Europe/Madrid]</time>
      </trkpt>
      <trkpt lat="37.066306" lon="-5.530278">
        <ele>212.0</ele>
        <time>2022-09-26T13:46:36.978+02:00[Europe/Madrid]</time>
      </trkpt>
      <trkpt lat="37.066492" lon="-5.530055">
        <ele>212.0</ele>
        <time>2022-09-26T13:46:37.978+02:00[Europe/Madrid]</time>
      </trkpt>
      <trkpt lat="37.066672" lon="-5.529838">
        <ele>212.0</ele>
        <time>2022-09-26T13:46:38.978+02:00[Europe/Madrid]</time>
      </trkpt>
      <trkpt lat="37.066844" lon="-5.529636">
        <ele>212.0</ele>
        <time>2022-09-26T13:46:39.978+02:00[Europe/Madrid]</time>
      </trkpt>
      <trkpt lat="37.066999" lon="-5.529449">
        <ele>213.0</ele>
        <time>2022-09-26T13:46:40.978+02:00[Europe/Madrid]</time>
      </trkpt>
      <trkpt lat="37.06714" lon="-5.529274">
        <ele>214.0</ele>
        <time>2022-09-26T13:46:41.978+02:00[Europe/Madrid]</time>
      </trkpt>
      <trkpt lat="37.067266" lon="-5.52911">
        <ele>216.0</ele>
        <time>2022-09-26T13:46:42.978+02:00[Europe/Madrid]</time>
      </trkpt>
      <trkpt lat="37.067375" lon="-5.528953">
        <ele>217.0</ele>
        <time>2022-09-26T13:46:43.978+02:00[Europe/Madrid]</time>
      </trkpt>
      <trkpt lat="37.067464" lon="-5.528795">
        <ele>217.0</ele>
        <time>2022-09-26T13:46:44.978+02:00[Europe/Madrid]</time>
      </trkpt>
      <trkpt lat="37.067552" lon="-5.528643">
        <ele>217.0</ele>
        <time>2022-09-26T13:46:45.978+02:00[Europe/Madrid]</time>
      </trkpt>
      <trkpt lat="37.067636" lon="-5.528503">
        <ele>217.0</ele>
        <time>2022-09-26T13:46:46.978+02:00[Europe/Madrid]</time>
      </trkpt>
      <trkpt lat="37.067732" lon="-5.528378">
        <ele>216.0</ele>
        <time>2022-09-26T13:46:47.978+02:00[Europe/Madrid]</time>
      </trkpt>
      <trkpt lat="37.067833" lon="-5.528275">
        <ele>216.0</ele>
        <time>2022-09-26T13:46:48.978+02:00[Europe/Madrid]</time>
      </trkpt>
      <trkpt lat="37.067948" lon="-5.528192">
        <ele>215.0</ele>
        <time>2022-09-26T13:46:49.978+02:00[Europe/Madrid]</time>
      </trkpt>
      <trkpt lat="37.06808" lon="-5.528134">
        <ele>215.0</ele>
        <time>2022-09-26T13:46:50.978+02:00[Europe/Madrid]</time>
      </trkpt>
      <trkpt lat="37.068224" lon="-5.528085">
        <ele>215.0</ele>
        <time>2022-09-26T13:46:51.978+02:00[Europe/Madrid]</time>
      </trkpt>
      <trkpt lat="37.068367" lon="-5.528033">
        <ele>215.0</ele>
        <time>2022-09-26T13:46:52.978+02:00[Europe/Madrid]</time>
      </trkpt>
      <trkpt lat="37.068506" lon="-5.527976">
        <ele>215.0</ele>
        <time>2022-09-26T13:46:53.978+02:00[Europe/Madrid]</time>
      </trkpt>
      <trkpt lat="37.068633" lon="-5.527901">
        <ele>215.0</ele>
        <time>2022-09-26T13:46:54.978+02:00[Europe/Madrid]</time>
      </trkpt>
      <trkpt lat="37.068751" lon="-5.527804">
        <ele>215.0</ele>
        <time>2022-09-26T13:46:55.978+02:00[Europe/Madrid]</time>
      </trkpt>
      <trkpt lat="37.068863" lon="-5.52768">
        <ele>215.0</ele>
        <time>2022-09-26T13:46:56.978+02:00[Europe/Madrid]</time>
      </trkpt>
      <trkpt lat="37.068962" lon="-5.52753">
        <ele>215.0</ele>
        <time>2022-09-26T13:46:57.978+02:00[Europe/Madrid]</time>
      </trkpt>
      <trkpt lat="37.069051" lon="-5.527357">
        <ele>215.0</ele>
        <time>2022-09-26T13:46:58.978+02:00[Europe/Madrid]</time>
      </trkpt>
      <trkpt lat="37.069138" lon="-5.527171">
        <ele>215.0</ele>
        <time>2022-09-26T13:46:59.978+02:00[Europe/Madrid]</time>
      </trkpt>
      <trkpt lat="37.06923" lon="-5.526978">
        <ele>216.0</ele>
        <time>2022-09-26T13:47:00.978+02:00[Europe/Madrid]</time>
      </trkpt>
      <trkpt lat="37.069324" lon="-5.526767">
        <ele>216.0</ele>
        <time>2022-09-26T13:47:01.978+02:00[Europe/Madrid]</time>
      </trkpt>
      <trkpt lat="37.069412" lon="-5.526536">
        <ele>216.0</ele>
        <time>2022-09-26T13:47:02.978+02:00[Europe/Madrid]</time>
      </trkpt>
      <trkpt lat="37.06949" lon="-5.526281">
        <ele>216.0</ele>
        <time>2022-09-26T13:47:03.978+02:00[Europe/Madrid]</time>
      </trkpt>
      <trkpt lat="37.069565" lon="-5.526014">
        <ele>217.0</ele>
        <time>2022-09-26T13:47:04.978+02:00[Europe/Madrid]</time>
      </trkpt>
      <trkpt lat="37.069634" lon="-5.525757">
        <ele>217.0</ele>
        <time>2022-09-26T13:47:05.978+02:00[Europe/Madrid]</time>
      </trkpt>
      <trkpt lat="37.069698" lon="-5.525516">
        <ele>218.0</ele>
        <time>2022-09-26T13:47:06.978+02:00[Europe/Madrid]</time>
      </trkpt>
      <trkpt lat="37.06976" lon="-5.525288">
        <ele>218.0</ele>
        <time>2022-09-26T13:47:07.978+02:00[Europe/Madrid]</time>
      </trkpt>
      <trkpt lat="37.069823" lon="-5.525082">
        <ele>219.0</ele>
        <time>2022-09-26T13:47:08.978+02:00[Europe/Madrid]</time>
      </trkpt>
      <trkpt lat="37.069894" lon="-5.524892">
        <ele>219.0</ele>
        <time>2022-09-26T13:47:09.978+02:00[Europe/Madrid]</time>
      </trkpt>
      <trkpt lat="37.069974" lon="-5.524719">
        <ele>220.0</ele>
        <time>2022-09-26T13:47:10.978+02:00[Europe/Madrid]</time>
      </trkpt>
      <trkpt lat="37.070062" lon="-5.524559">
        <ele>221.0</ele>
        <time>2022-09-26T13:47:11.978+02:00[Europe/Madrid]</time>
      </trkpt>
      <trkpt lat="37.070171" lon="-5.524408">
        <ele>221.0</ele>
        <time>2022-09-26T13:47:12.978+02:00[Europe/Madrid]</time>
      </trkpt>
      <trkpt lat="37.070302" lon="-5.524264">
        <ele>222.0</ele>
        <time>2022-09-26T13:47:13.978+02:00[Europe/Madrid]</time>
      </trkpt>
      <trkpt lat="37.07045" lon="-5.524117">
        <ele>222.0</ele>
        <time>2022-09-26T13:47:14.978+02:00[Europe/Madrid]</time>
      </trkpt>
      <trkpt lat="37.070609" lon="-5.523963">
        <ele>223.0</ele>
        <time>2022-09-26T13:47:15.978+02:00[Europe/Madrid]</time>
      </trkpt>
      <trkpt lat="37.070778" lon="-5.5238">
        <ele>223.0</ele>
        <time>2022-09-26T13:47:16.978+02:00[Europe/Madrid]</time>
      </trkpt>
      <trkpt lat="37.07096" lon="-5.523627">
        <ele>224.0</ele>
        <time>2022-09-26T13:47:17.978+02:00[Europe/Madrid]</time>
      </trkpt>
      <trkpt lat="37.071153" lon="-5.523442">
        <ele>225.0</ele>
        <time>2022-09-26T13:47:18.978+02:00[Europe/Madrid]</time>
      </trkpt>
      <trkpt lat="37.071356" lon="-5.52325">
        <ele>226.0</ele>
        <time>2022-09-26T13:47:19.978+02:00[Europe/Madrid]</time>
      </trkpt>
      <trkpt lat="37.071568" lon="-5.523047">
        <ele>227.0</ele>
        <time>2022-09-26T13:47:20.978+02:00[Europe/Madrid]</time>
      </trkpt>
      <trkpt lat="37.071769" lon="-5.522857">
        <ele>229.0</ele>
        <time>2022-09-26T13:47:21.978+02:00[Europe/Madrid]</time>
      </trkpt>
      <trkpt lat="37.071957" lon="-5.522679">
        <ele>230.0</ele>
        <time>2022-09-26T13:47:22.978+02:00[Europe/Madrid]</time>
      </trkpt>
      <trkpt lat="37.072131" lon="-5.522507">
        <ele>231.0</ele>
        <time>2022-09-26T13:47:23.978+02:00[Europe/Madrid]</time>
      </trkpt>
      <trkpt lat="37.072293" lon="-5.522352">
        <ele>233.0</ele>
        <time>2022-09-26T13:47:24.978+02:00[Europe/Madrid]</time>
      </trkpt>
      <trkpt lat="37.07244" lon="-5.522213">
        <ele>234.0</ele>
        <time>2022-09-26T13:47:25.978+02:00[Europe/Madrid]</time>
      </trkpt>
      <trkpt lat="37.072576" lon="-5.522083">
        <ele>235.0</ele>
        <time>2022-09-26T13:47:26.978+02:00[Europe/Madrid]</time>
      </trkpt>
      <trkpt lat="37.072698" lon="-5.521961">
        <ele>236.0</ele>
        <time>2022-09-26T13:47:27.978+02:00[Europe/Madrid]</time>
      </trkpt>
      <trkpt lat="37.072804" lon="-5.521839">
        <ele>237.0</ele>
        <time>2022-09-26T13:47:28.978+02:00[Europe/Madrid]</time>
      </trkpt>
      <trkpt lat="37.072907" lon="-5.521711">
        <ele>238.0</ele>
        <time>2022-09-26T13:47:29.978+02:00[Europe/Madrid]</time>
      </trkpt>
      <trkpt lat="37.073012" lon="-5.521579">
        <ele>238.0</ele>
        <time>2022-09-26T13:47:30.978+02:00[Europe/Madrid]</time>
      </trkpt>
      <trkpt lat="37.073123" lon="-5.521441">
        <ele>238.0</ele>
        <time>2022-09-26T13:47:31.978+02:00[Europe/Madrid]</time>
      </trkpt>
      <trkpt lat="37.073239" lon="-5.52129">
        <ele>237.0</ele>
        <time>2022-09-26T13:47:32.978+02:00[Europe/Madrid]</time>
      </trkpt>
      <trkpt lat="37.073363" lon="-5.521133">
        <ele>237.0</ele>
        <time>2022-09-26T13:47:33.978+02:00[Europe/Madrid]</time>
      </trkpt>
      <trkpt lat="37.073498" lon="-5.520962">
        <ele>236.0</ele>
        <time>2022-09-26T13:47:34.978+02:00[Europe/Madrid]</time>
      </trkpt>
      <trkpt lat="37.073639" lon="-5.520777">
        <ele>234.0</ele>
        <time>2022-09-26T13:47:35.978+02:00[Europe/Madrid]</time>
      </trkpt>
      <trkpt lat="37.07378" lon="-5.520591">
        <ele>233.0</ele>
        <time>2022-09-26T13:47:36.978+02:00[Europe/Madrid]</time>
      </trkpt>
      <trkpt lat="37.073925" lon="-5.520399">
        <ele>232.0</ele>
        <time>2022-09-26T13:47:37.978+02:00[Europe/Madrid]</time>
      </trkpt>
      <trkpt lat="37.074077" lon="-5.520205">
        <ele>232.0</ele>
        <time>2022-09-26T13:47:38.978+02:00[Europe/Madrid]</time>
      </trkpt>
      <trkpt lat="37.074236" lon="-5.520003">
        <ele>232.0</ele>
        <time>2022-09-26T13:47:39.978+02:00[Europe/Madrid]</time>
      </trkpt>
      <trkpt lat="37.074403" lon="-5.519793">
        <ele>233.0</ele>
        <time>2022-09-26T13:47:40.978+02:00[Europe/Madrid]</time>
      </trkpt>
      <trkpt lat="37.074576" lon="-5.51957">
        <ele>233.0</ele>
        <time>2022-09-26T13:47:41.978+02:00[Europe/Madrid]</time>
      </trkpt>
      <trkpt lat="37.074755" lon="-5.519334">
        <ele>235.0</ele>
        <time>2022-09-26T13:47:42.978+02:00[Europe/Madrid]</time>
      </trkpt>
      <trkpt lat="37.074926" lon="-5.519114">
        <ele>236.0</ele>
        <time>2022-09-26T13:47:43.978+02:00[Europe/Madrid]</time>
      </trkpt>
      <trkpt lat="37.075083" lon="-5.518909">
        <ele>238.0</ele>
        <time>2022-09-26T13:47:44.978+02:00[Europe/Madrid]</time>
      </trkpt>
      <trkpt lat="37.075233" lon="-5.518715">
        <ele>240.0</ele>
        <time>2022-09-26T13:47:45.978+02:00[Europe/Madrid]</time>
      </trkpt>
      <trkpt lat="37.075382" lon="-5.518523">
        <ele>242.0</ele>
        <time>2022-09-26T13:47:46.978+02:00[Europe/Madrid]</time>
      </trkpt>
      <trkpt lat="37.07553" lon="-5.518327">
        <ele>244.0</ele>
        <time>2022-09-26T13:47:47.978+02:00[Europe/Madrid]</time>
      </trkpt>
      <trkpt lat="37.075682" lon="-5.518131">
        <ele>245.0</ele>
        <time>2022-09-26T13:47:48.978+02:00[Europe/Madrid]</time>
      </trkpt>
      <trkpt lat="37.075836" lon="-5.51794">
        <ele>246.0</ele>
        <time>2022-09-26T13:47:49.978+02:00[Europe/Madrid]</time>
      </trkpt>
      <trkpt lat="37.075982" lon="-5.517754">
        <ele>247.0</ele>
        <time>2022-09-26T13:47:50.978+02:00[Europe/Madrid]</time>
      </trkpt>
      <trkpt lat="37.076122" lon="-5.517573">
        <ele>248.0</ele>
        <time>2022-09-26T13:47:51.978+02:00[Europe/Madrid]</time>
      </trkpt>
      <trkpt lat="37.076263" lon="-5.517387">
        <ele>249.0</ele>
        <time>2022-09-26T13:47:52.978+02:00[Europe/Madrid]</time>
      </trkpt>
      <trkpt lat="37.076397" lon="-5.517205">
        <ele>249.0</ele>
        <time>2022-09-26T13:47:53.978+02:00[Europe/Madrid]</time>
      </trkpt>
      <trkpt lat="37.076527" lon="-5.517026">
        <ele>250.0</ele>
        <time>2022-09-26T13:47:54.978+02:00[Europe/Madrid]</time>
      </trkpt>
      <trkpt lat="37.07666" lon="-5.516839">
        <ele>251.0</ele>
        <time>2022-09-26T13:47:55.978+02:00[Europe/Madrid]</time>
      </trkpt>
      <trkpt lat="37.076784" lon="-5.516664">
        <ele>252.0</ele>
        <time>2022-09-26T13:47:56.978+02:00[Europe/Madrid]</time>
      </trkpt>
      <trkpt lat="37.076911" lon="-5.516491">
        <ele>253.0</ele>
        <time>2022-09-26T13:47:57.978+02:00[Europe/Madrid]</time>
      </trkpt>
      <trkpt lat="37.077041" lon="-5.516321">
        <ele>254.0</ele>
        <time>2022-09-26T13:47:58.978+02:00[Europe/Madrid]</time>
      </trkpt>
      <trkpt lat="37.077184" lon="-5.516154">
        <ele>254.0</ele>
        <time>2022-09-26T13:47:59.978+02:00[Europe/Madrid]</time>
      </trkpt>
      <trkpt lat="37.077334" lon="-5.515982">
        <ele>255.0</ele>
        <time>2022-09-26T13:48:00.978+02:00[Europe/Madrid]</time>
      </trkpt>
      <trkpt lat="37.07748" lon="-5.515818">
        <ele>255.0</ele>
        <time>2022-09-26T13:48:01.978+02:00[Europe/Madrid]</time>
      </trkpt>
      <trkpt lat="37.077627" lon="-5.515664">
        <ele>255.0</ele>
        <time>2022-09-26T13:48:02.978+02:00[Europe/Madrid]</time>
      </trkpt>
      <trkpt lat="37.077779" lon="-5.515523">
        <ele>256.0</ele>
        <time>2022-09-26T13:48:03.978+02:00[Europe/Madrid]</time>
      </trkpt>
      <trkpt lat="37.077937" lon="-5.515387">
        <ele>256.0</ele>
        <time>2022-09-26T13:48:04.978+02:00[Europe/Madrid]</time>
      </trkpt>
      <trkpt lat="37.078101" lon="-5.515262">
        <ele>256.0</ele>
        <time>2022-09-26T13:48:05.978+02:00[Europe/Madrid]</time>
      </trkpt>
      <trkpt lat="37.078275" lon="-5.515152">
        <ele>256.0</ele>
        <time>2022-09-26T13:48:06.978+02:00[Europe/Madrid]</time>
      </trkpt>
      <trkpt lat="37.078456" lon="-5.515057">
        <ele>256.0</ele>
        <time>2022-09-26T13:48:07.978+02:00[Europe/Madrid]</time>
      </trkpt>
      <trkpt lat="37.078646" lon="-5.514982">
        <ele>256.0</ele>
        <time>2022-09-26T13:48:08.978+02:00[Europe/Madrid]</time>
      </trkpt>
      <trkpt lat="37.078845" lon="-5.514922">
        <ele>256.0</ele>
        <time>2022-09-26T13:48:09.978+02:00[Europe/Madrid]</time>
      </trkpt>
      <trkpt lat="37.079055" lon="-5.514873">
        <ele>256.0</ele>
        <time>2022-09-26T13:48:10.978+02:00[Europe/Madrid]</time>
      </trkpt>
      <trkpt lat="37.079272" lon="-5.514839">
        <ele>256.0</ele>
        <time>2022-09-26T13:48:11.978+02:00[Europe/Madrid]</time>
      </trkpt>
      <trkpt lat="37.079499" lon="-5.514804">
        <ele>255.0</ele>
        <time>2022-09-26T13:48:12.978+02:00[Europe/Madrid]</time>
      </trkpt>
      <trkpt lat="37.07973" lon="-5.51477">
        <ele>255.0</ele>
        <time>2022-09-26T13:48:13.978+02:00[Europe/Madrid]</time>
      </trkpt>
      <trkpt lat="37.07997" lon="-5.514739">
        <ele>255.0</ele>
        <time>2022-09-26T13:48:14.978+02:00[Europe/Madrid]</time>
      </trkpt>
      <trkpt lat="37.080213" lon="-5.514705">
        <ele>254.0</ele>
        <time>2022-09-26T13:48:15.978+02:00[Europe/Madrid]</time>
      </trkpt>
      <trkpt lat="37.080461" lon="-5.514669">
        <ele>253.0</ele>
        <time>2022-09-26T13:48:16.978+02:00[Europe/Madrid]</time>
      </trkpt>
      <trkpt lat="37.080711" lon="-5.514628">
        <ele>252.0</ele>
        <time>2022-09-26T13:48:17.978+02:00[Europe/Madrid]</time>
      </trkpt>
      <trkpt lat="37.080958" lon="-5.514581">
        <ele>251.0</ele>
        <time>2022-09-26T13:48:18.978+02:00[Europe/Madrid]</time>
      </trkpt>
      <trkpt lat="37.081198" lon="-5.51452">
        <ele>250.0</ele>
        <time>2022-09-26T13:48:19.978+02:00[Europe/Madrid]</time>
      </trkpt>
      <trkpt lat="37.081437" lon="-5.514454">
        <ele>248.0</ele>
        <time>2022-09-26T13:48:20.978+02:00[Europe/Madrid]</time>
      </trkpt>
      <trkpt lat="37.081665" lon="-5.514373">
        <ele>247.0</ele>
        <time>2022-09-26T13:48:21.978+02:00[Europe/Madrid]</time>
      </trkpt>
      <trkpt lat="37.081889" lon="-5.514267">
        <ele>246.0</ele>
        <time>2022-09-26T13:48:22.978+02:00[Europe/Madrid]</time>
      </trkpt>
      <trkpt lat="37.082104" lon="-5.514141">
        <ele>245.0</ele>
        <time>2022-09-26T13:48:23.978+02:00[Europe/Madrid]</time>
      </trkpt>
      <trkpt lat="37.082315" lon="-5.514">
        <ele>244.0</ele>
        <time>2022-09-26T13:48:24.978+02:00[Europe/Madrid]</time>
      </trkpt>
      <trkpt lat="37.08252" lon="-5.513866">
        <ele>243.0</ele>
        <time>2022-09-26T13:48:25.978+02:00[Europe/Madrid]</time>
      </trkpt>
      <trkpt lat="37.08272" lon="-5.513736">
        <ele>242.0</ele>
        <time>2022-09-26T13:48:26.978+02:00[Europe/Madrid]</time>
      </trkpt>
      <trkpt lat="37.082913" lon="-5.513608">
        <ele>240.0</ele>
        <time>2022-09-26T13:48:27.978+02:00[Europe/Madrid]</time>
      </trkpt>
      <trkpt lat="37.083097" lon="-5.513481">
        <ele>240.0</ele>
        <time>2022-09-26T13:48:28.978+02:00[Europe/Madrid]</time>
      </trkpt>
      <trkpt lat="37.083275" lon="-5.513353">
        <ele>239.0</ele>
        <time>2022-09-26T13:48:29.978+02:00[Europe/Madrid]</time>
      </trkpt>
      <trkpt lat="37.083444" lon="-5.513221">
        <ele>238.0</ele>
        <time>2022-09-26T13:48:30.978+02:00[Europe/Madrid]</time>
      </trkpt>
      <trkpt lat="37.083612" lon="-5.513076">
        <ele>237.0</ele>
        <time>2022-09-26T13:48:31.978+02:00[Europe/Madrid]</time>
      </trkpt>
      <trkpt lat="37.083777" lon="-5.512924">
        <ele>237.0</ele>
        <time>2022-09-26T13:48:32.978+02:00[Europe/Madrid]</time>
      </trkpt>
      <trkpt lat="37.083939" lon="-5.512767">
        <ele>237.0</ele>
        <time>2022-09-26T13:48:33.978+02:00[Europe/Madrid]</time>
      </trkpt>
      <trkpt lat="37.084097" lon="-5.512617">
        <ele>236.0</ele>
        <time>2022-09-26T13:48:34.978+02:00[Europe/Madrid]</time>
      </trkpt>
      <trkpt lat="37.084238" lon="-5.512464">
        <ele>236.0</ele>
        <time>2022-09-26T13:48:35.978+02:00[Europe/Madrid]</time>
      </trkpt>
      <trkpt lat="37.084369" lon="-5.512285">
        <ele>237.0</ele>
        <time>2022-09-26T13:48:36.978+02:00[Europe/Madrid]</time>
      </trkpt>
      <trkpt lat="37.084495" lon="-5.51208">
        <ele>238.0</ele>
        <time>2022-09-26T13:48:37.978+02:00[Europe/Madrid]</time>
      </trkpt>
      <trkpt lat="37.084617" lon="-5.511857">
        <ele>238.0</ele>
        <time>2022-09-26T13:48:38.978+02:00[Europe/Madrid]</time>
      </trkpt>
      <trkpt lat="37.084739" lon="-5.511637">
        <ele>239.0</ele>
        <time>2022-09-26T13:48:39.978+02:00[Europe/Madrid]</time>
      </trkpt>
      <trkpt lat="37.08486" lon="-5.511419">
        <ele>240.0</ele>
        <time>2022-09-26T13:48:40.978+02:00[Europe/Madrid]</time>
      </trkpt>
      <trkpt lat="37.084986" lon="-5.511205">
        <ele>240.0</ele>
        <time>2022-09-26T13:48:41.978+02:00[Europe/Madrid]</time>
      </trkpt>
      <trkpt lat="37.085122" lon="-5.510994">
        <ele>241.0</ele>
        <time>2022-09-26T13:48:42.978+02:00[Europe/Madrid]</time>
      </trkpt>
      <trkpt lat="37.085262" lon="-5.51079">
        <ele>241.0</ele>
        <time>2022-09-26T13:48:43.978+02:00[Europe/Madrid]</time>
      </trkpt>
      <trkpt lat="37.085401" lon="-5.510593">
        <ele>241.0</ele>
        <time>2022-09-26T13:48:44.978+02:00[Europe/Madrid]</time>
      </trkpt>
      <trkpt lat="37.08553" lon="-5.510404">
        <ele>240.0</ele>
        <time>2022-09-26T13:48:45.978+02:00[Europe/Madrid]</time>
      </trkpt>
      <trkpt lat="37.085644" lon="-5.510217">
        <ele>240.0</ele>
        <time>2022-09-26T13:48:46.978+02:00[Europe/Madrid]</time>
      </trkpt>
      <trkpt lat="37.085747" lon="-5.510032">
        <ele>240.0</ele>
        <time>2022-09-26T13:48:47.978+02:00[Europe/Madrid]</time>
      </trkpt>
      <trkpt lat="37.08584" lon="-5.509854">
        <ele>239.0</ele>
        <time>2022-09-26T13:48:48.978+02:00[Europe/Madrid]</time>
      </trkpt>
      <trkpt lat="37.085928" lon="-5.509687">
        <ele>240.0</ele>
        <time>2022-09-26T13:48:49.978+02:00[Europe/Madrid]</time>
      </trkpt>
      <trkpt lat="37.086013" lon="-5.509525">
        <ele>240.0</ele>
        <time>2022-09-26T13:48:50.978+02:00[Europe/Madrid]</time>
      </trkpt>
      <trkpt lat="37.086092" lon="-5.509365">
        <ele>240.0</ele>
        <time>2022-09-26T13:48:51.978+02:00[Europe/Madrid]</time>
      </trkpt>
      <trkpt lat="37.086175" lon="-5.509201">
        <ele>240.0</ele>
        <time>2022-09-26T13:48:52.978+02:00[Europe/Madrid]</time>
      </trkpt>
      <trkpt lat="37.086264" lon="-5.509029">
        <ele>241.0</ele>
        <time>2022-09-26T13:48:53.978+02:00[Europe/Madrid]</time>
      </trkpt>
      <trkpt lat="37.086353" lon="-5.508848">
        <ele>241.0</ele>
        <time>2022-09-26T13:48:54.978+02:00[Europe/Madrid]</time>
      </trkpt>
      <trkpt lat="37.086449" lon="-5.508659">
        <ele>241.0</ele>
        <time>2022-09-26T13:48:55.978+02:00[Europe/Madrid]</time>
      </trkpt>
      <trkpt lat="37.086552" lon="-5.508464">
        <ele>241.0</ele>
        <time>2022-09-26T13:48:56.978+02:00[Europe/Madrid]</time>
      </trkpt>
      <trkpt lat="37.086664" lon="-5.508265">
        <ele>242.0</ele>
        <time>2022-09-26T13:48:57.978+02:00[Europe/Madrid]</time>
      </trkpt>
      <trkpt lat="37.086771" lon="-5.508066">
        <ele>242.0</ele>
        <time>2022-09-26T13:48:58.978+02:00[Europe/Madrid]</time>
      </trkpt>
      <trkpt lat="37.086877" lon="-5.507877">
        <ele>242.0</ele>
        <time>2022-09-26T13:48:59.978+02:00[Europe/Madrid]</time>
      </trkpt>
      <trkpt lat="37.086987" lon="-5.50769">
        <ele>242.0</ele>
        <time>2022-09-26T13:49:00.978+02:00[Europe/Madrid]</time>
      </trkpt>
      <trkpt lat="37.0871" lon="-5.507502">
        <ele>242.0</ele>
        <time>2022-09-26T13:49:01.978+02:00[Europe/Madrid]</time>
      </trkpt>
      <trkpt lat="37.087214" lon="-5.507312">
        <ele>243.0</ele>
        <time>2022-09-26T13:49:02.978+02:00[Europe/Madrid]</time>
      </trkpt>
      <trkpt lat="37.087327" lon="-5.507122">
        <ele>243.0</ele>
        <time>2022-09-26T13:49:03.978+02:00[Europe/Madrid]</time>
      </trkpt>
      <trkpt lat="37.087441" lon="-5.506934">
        <ele>243.0</ele>
        <time>2022-09-26T13:49:04.978+02:00[Europe/Madrid]</time>
      </trkpt>
      <trkpt lat="37.087551" lon="-5.50675">
        <ele>243.0</ele>
        <time>2022-09-26T13:49:05.978+02:00[Europe/Madrid]</time>
      </trkpt>
      <trkpt lat="37.087656" lon="-5.506577">
        <ele>244.0</ele>
        <time>2022-09-26T13:49:06.978+02:00[Europe/Madrid]</time>
      </trkpt>
      <trkpt lat="37.087756" lon="-5.506412">
        <ele>244.0</ele>
        <time>2022-09-26T13:49:07.978+02:00[Europe/Madrid]</time>
      </trkpt>
      <trkpt lat="37.087848" lon="-5.506249">
        <ele>244.0</ele>
        <time>2022-09-26T13:49:08.978+02:00[Europe/Madrid]</time>
      </trkpt>
      <trkpt lat="37.087944" lon="-5.506084">
        <ele>244.0</ele>
        <time>2022-09-26T13:49:09.978+02:00[Europe/Madrid]</time>
      </trkpt>
      <trkpt lat="37.088032" lon="-5.505906">
        <ele>244.0</ele>
        <time>2022-09-26T13:49:10.978+02:00[Europe/Madrid]</time>
      </trkpt>
      <trkpt lat="37.088117" lon="-5.505723">
        <ele>244.0</ele>
        <time>2022-09-26T13:49:11.978+02:00[Europe/Madrid]</time>
      </trkpt>
      <trkpt lat="37.0882" lon="-5.505526">
        <ele>243.0</ele>
        <time>2022-09-26T13:49:12.978+02:00[Europe/Madrid]</time>
      </trkpt>
      <trkpt lat="37.088282" lon="-5.505321">
        <ele>243.0</ele>
        <time>2022-09-26T13:49:13.978+02:00[Europe/Madrid]</time>
      </trkpt>
      <trkpt lat="37.088364" lon="-5.505109">
        <ele>243.0</ele>
        <time>2022-09-26T13:49:14.978+02:00[Europe/Madrid]</time>
      </trkpt>
      <trkpt lat="37.08845" lon="-5.504887">
        <ele>243.0</ele>
        <time>2022-09-26T13:49:15.978+02:00[Europe/Madrid]</time>
      </trkpt>
      <trkpt lat="37.088542" lon="-5.504658">
        <ele>243.0</ele>
        <time>2022-09-26T13:49:16.978+02:00[Europe/Madrid]</time>
      </trkpt>
      <trkpt lat="37.088634" lon="-5.50442">
        <ele>242.0</ele>
        <time>2022-09-26T13:49:17.978+02:00[Europe/Madrid]</time>
      </trkpt>
      <trkpt lat="37.088725" lon="-5.504176">
        <ele>241.0</ele>
        <time>2022-09-26T13:49:18.978+02:00[Europe/Madrid]</time>
      </trkpt>
      <trkpt lat="37.088821" lon="-5.50393">
        <ele>241.0</ele>
        <time>2022-09-26T13:49:19.978+02:00[Europe/Madrid]</time>
      </trkpt>
      <trkpt lat="37.088919" lon="-5.503679">
        <ele>241.0</ele>
        <time>2022-09-26T13:49:20.978+02:00[Europe/Madrid]</time>
      </trkpt>
      <trkpt lat="37.089017" lon="-5.503425">
        <ele>240.0</ele>
        <time>2022-09-26T13:49:21.978+02:00[Europe/Madrid]</time>
      </trkpt>
      <trkpt lat="37.089116" lon="-5.503177">
        <ele>240.0</ele>
        <time>2022-09-26T13:49:22.978+02:00[Europe/Madrid]</time>
      </trkpt>
      <trkpt lat="37.089212" lon="-5.502937">
        <ele>238.0</ele>
        <time>2022-09-26T13:49:23.978+02:00[Europe/Madrid]</time>
      </trkpt>
      <trkpt lat="37.089311" lon="-5.502696">
        <ele>237.0</ele>
        <time>2022-09-26T13:49:24.978+02:00[Europe/Madrid]</time>
      </trkpt>
      <trkpt lat="37.08941" lon="-5.502449">
        <ele>236.0</ele>
        <time>2022-09-26T13:49:25.978+02:00[Europe/Madrid]</time>
      </trkpt>
      <trkpt lat="37.089506" lon="-5.502196">
        <ele>235.0</ele>
        <time>2022-09-26T13:49:26.978+02:00[Europe/Madrid]</time>
      </trkpt>
      <trkpt lat="37.089605" lon="-5.501938">
        <ele>235.0</ele>
        <time>2022-09-26T13:49:27.978+02:00[Europe/Madrid]</time>
      </trkpt>
      <trkpt lat="37.089707" lon="-5.501675">
        <ele>234.0</ele>
        <time>2022-09-26T13:49:28.978+02:00[Europe/Madrid]</time>
      </trkpt>
      <trkpt lat="37.089811" lon="-5.501407">
        <ele>234.0</ele>
        <time>2022-09-26T13:49:29.978+02:00[Europe/Madrid]</time>
      </trkpt>
      <trkpt lat="37.089916" lon="-5.501133">
        <ele>233.0</ele>
        <time>2022-09-26T13:49:30.978+02:00[Europe/Madrid]</time>
      </trkpt>
      <trkpt lat="37.090021" lon="-5.500849">
        <ele>233.0</ele>
        <time>2022-09-26T13:49:31.978+02:00[Europe/Madrid]</time>
      </trkpt>
      <trkpt lat="37.090131" lon="-5.500561">
        <ele>233.0</ele>
        <time>2022-09-26T13:49:32.978+02:00[Europe/Madrid]</time>
      </trkpt>
      <trkpt lat="37.090245" lon="-5.500269">
        <ele>233.0</ele>
        <time>2022-09-26T13:49:33.978+02:00[Europe/Madrid]</time>
      </trkpt>
      <trkpt lat="37.090361" lon="-5.49997">
        <ele>233.0</ele>
        <time>2022-09-26T13:49:34.978+02:00[Europe/Madrid]</time>
      </trkpt>
      <trkpt lat="37.090475" lon="-5.499669">
        <ele>233.0</ele>
        <time>2022-09-26T13:49:35.978+02:00[Europe/Madrid]</time>
      </trkpt>
      <trkpt lat="37.09059" lon="-5.499362">
        <ele>233.0</ele>
        <time>2022-09-26T13:49:36.978+02:00[Europe/Madrid]</time>
      </trkpt>
      <trkpt lat="37.090704" lon="-5.499053">
        <ele>232.0</ele>
        <time>2022-09-26T13:49:37.978+02:00[Europe/Madrid]</time>
      </trkpt>
      <trkpt lat="37.09082" lon="-5.498748">
        <ele>232.0</ele>
        <time>2022-09-26T13:49:38.978+02:00[Europe/Madrid]</time>
      </trkpt>
      <trkpt lat="37.090937" lon="-5.498442">
        <ele>233.0</ele>
        <time>2022-09-26T13:49:39.978+02:00[Europe/Madrid]</time>
      </trkpt>
      <trkpt lat="37.091049" lon="-5.498143">
        <ele>233.0</ele>
        <time>2022-09-26T13:49:40.978+02:00[Europe/Madrid]</time>
      </trkpt>
      <trkpt lat="37.091156" lon="-5.497857">
        <ele>233.0</ele>
        <time>2022-09-26T13:49:41.978+02:00[Europe/Madrid]</time>
      </trkpt>
      <trkpt lat="37.091266" lon="-5.49758">
        <ele>233.0</ele>
        <time>2022-09-26T13:49:42.978+02:00[Europe/Madrid]</time>
      </trkpt>
      <trkpt lat="37.091369" lon="-5.497309">
        <ele>233.0</ele>
        <time>2022-09-26T13:49:43.978+02:00[Europe/Madrid]</time>
      </trkpt>
      <trkpt lat="37.09147" lon="-5.497037">
        <ele>233.0</ele>
        <time>2022-09-26T13:49:44.978+02:00[Europe/Madrid]</time>
      </trkpt>
      <trkpt lat="37.091573" lon="-5.496765">
        <ele>234.0</ele>
        <time>2022-09-26T13:49:45.978+02:00[Europe/Madrid]</time>
      </trkpt>
      <trkpt lat="37.091675" lon="-5.496492">
        <ele>234.0</ele>
        <time>2022-09-26T13:49:46.978+02:00[Europe/Madrid]</time>
      </trkpt>
      <trkpt lat="37.091774" lon="-5.496228">
        <ele>234.0</ele>
        <time>2022-09-26T13:49:47.978+02:00[Europe/Madrid]</time>
      </trkpt>
      <trkpt lat="37.091871" lon="-5.495972">
        <ele>233.0</ele>
        <time>2022-09-26T13:49:48.978+02:00[Europe/Madrid]</time>
      </trkpt>
      <trkpt lat="37.091963" lon="-5.495728">
        <ele>232.0</ele>
        <time>2022-09-26T13:49:49.978+02:00[Europe/Madrid]</time>
      </trkpt>
      <trkpt lat="37.092047" lon="-5.495499">
        <ele>231.0</ele>
        <time>2022-09-26T13:49:50.978+02:00[Europe/Madrid]</time>
      </trkpt>
      <trkpt lat="37.092134" lon="-5.495284">
        <ele>230.0</ele>
        <time>2022-09-26T13:49:51.978+02:00[Europe/Madrid]</time>
      </trkpt>
      <trkpt lat="37.092221" lon="-5.49509">
        <ele>230.0</ele>
        <time>2022-09-26T13:49:52.978+02:00[Europe/Madrid]</time>
      </trkpt>
      <trkpt lat="37.09232" lon="-5.494919">
        <ele>229.0</ele>
        <time>2022-09-26T13:49:53.978+02:00[Europe/Madrid]</time>
      </trkpt>
      <trkpt lat="37.092443" lon="-5.494748">
        <ele>228.0</ele>
        <time>2022-09-26T13:49:54.978+02:00[Europe/Madrid]</time>
      </trkpt>
      <trkpt lat="37.092588" lon="-5.494577">
        <ele>227.0</ele>
        <time>2022-09-26T13:49:55.978+02:00[Europe/Madrid]</time>
      </trkpt>
      <trkpt lat="37.092746" lon="-5.4944">
        <ele>226.0</ele>
        <time>2022-09-26T13:49:56.978+02:00[Europe/Madrid]</time>
      </trkpt>
      <trkpt lat="37.092916" lon="-5.494214">
        <ele>225.0</ele>
        <time>2022-09-26T13:49:57.978+02:00[Europe/Madrid]</time>
      </trkpt>
      <trkpt lat="37.09309" lon="-5.494016">
        <ele>223.0</ele>
        <time>2022-09-26T13:49:58.978+02:00[Europe/Madrid]</time>
      </trkpt>
      <trkpt lat="37.093273" lon="-5.493815">
        <ele>222.0</ele>
        <time>2022-09-26T13:49:59.978+02:00[Europe/Madrid]</time>
      </trkpt>
      <trkpt lat="37.093461" lon="-5.493606">
        <ele>221.0</ele>
        <time>2022-09-26T13:50:00.978+02:00[Europe/Madrid]</time>
      </trkpt>
      <trkpt lat="37.093649" lon="-5.493397">
        <ele>221.0</ele>
        <time>2022-09-26T13:50:01.978+02:00[Europe/Madrid]</time>
      </trkpt>
      <trkpt lat="37.093832" lon="-5.493194">
        <ele>220.0</ele>
        <time>2022-09-26T13:50:02.978+02:00[Europe/Madrid]</time>
      </trkpt>
      <trkpt lat="37.094009" lon="-5.493001">
        <ele>220.0</ele>
        <time>2022-09-26T13:50:03.978+02:00[Europe/Madrid]</time>
      </trkpt>
      <trkpt lat="37.094177" lon="-5.492813">
        <ele>219.0</ele>
        <time>2022-09-26T13:50:04.978+02:00[Europe/Madrid]</time>
      </trkpt>
      <trkpt lat="37.09434" lon="-5.492632">
        <ele>219.0</ele>
        <time>2022-09-26T13:50:05.978+02:00[Europe/Madrid]</time>
      </trkpt>
      <trkpt lat="37.094494" lon="-5.492459">
        <ele>218.0</ele>
        <time>2022-09-26T13:50:06.978+02:00[Europe/Madrid]</time>
      </trkpt>
      <trkpt lat="37.094638" lon="-5.492302">
        <ele>218.0</ele>
        <time>2022-09-26T13:50:07.978+02:00[Europe/Madrid]</time>
      </trkpt>
      <trkpt lat="37.094769" lon="-5.492159">
        <ele>218.0</ele>
        <time>2022-09-26T13:50:08.978+02:00[Europe/Madrid]</time>
      </trkpt>
      <trkpt lat="37.094889" lon="-5.492014">
        <ele>217.0</ele>
        <time>2022-09-26T13:50:09.978+02:00[Europe/Madrid]</time>
      </trkpt>
      <trkpt lat="37.09499" lon="-5.491862">
        <ele>217.0</ele>
        <time>2022-09-26T13:50:10.978+02:00[Europe/Madrid]</time>
      </trkpt>
      <trkpt lat="37.09507" lon="-5.491699">
        <ele>217.0</ele>
        <time>2022-09-26T13:50:11.978+02:00[Europe/Madrid]</time>
      </trkpt>
      <trkpt lat="37.095133" lon="-5.491528">
        <ele>217.0</ele>
        <time>2022-09-26T13:50:12.978+02:00[Europe/Madrid]</time>
      </trkpt>
      <trkpt lat="37.095183" lon="-5.491355">
        <ele>218.0</ele>
        <time>2022-09-26T13:50:13.978+02:00[Europe/Madrid]</time>
      </trkpt>
      <trkpt lat="37.095216" lon="-5.491196">
        <ele>218.0</ele>
        <time>2022-09-26T13:50:14.978+02:00[Europe/Madrid]</time>
      </trkpt>
      <trkpt lat="37.095226" lon="-5.491039">
        <ele>217.0</ele>
        <time>2022-09-26T13:50:15.978+02:00[Europe/Madrid]</time>
      </trkpt>
      <trkpt lat="37.095208" lon="-5.490885">
        <ele>217.0</ele>
        <time>2022-09-26T13:50:16.978+02:00[Europe/Madrid]</time>
      </trkpt>
      <trkpt lat="37.09516" lon="-5.490739">
        <ele>217.0</ele>
        <time>2022-09-26T13:50:17.978+02:00[Europe/Madrid]</time>
      </trkpt>
      <trkpt lat="37.095091" lon="-5.490597">
        <ele>218.0</ele>
        <time>2022-09-26T13:50:18.978+02:00[Europe/Madrid]</time>
      </trkpt>
      <trkpt lat="37.095019" lon="-5.490448">
        <ele>218.0</ele>
        <time>2022-09-26T13:50:19.978+02:00[Europe/Madrid]</time>
      </trkpt>
      <trkpt lat="37.094956" lon="-5.490286">
        <ele>217.0</ele>
        <time>2022-09-26T13:50:20.978+02:00[Europe/Madrid]</time>
      </trkpt>
      <trkpt lat="37.094907" lon="-5.490119">
        <ele>218.0</ele>
        <time>2022-09-26T13:50:21.978+02:00[Europe/Madrid]</time>
      </trkpt>
      <trkpt lat="37.094874" lon="-5.489944">
        <ele>217.0</ele>
        <time>2022-09-26T13:50:22.978+02:00[Europe/Madrid]</time>
      </trkpt>
      <trkpt lat="37.094862" lon="-5.48976">
        <ele>217.0</ele>
        <time>2022-09-26T13:50:23.978+02:00[Europe/Madrid]</time>
      </trkpt>
      <trkpt lat="37.09487" lon="-5.489561">
        <ele>215.0</ele>
        <time>2022-09-26T13:50:24.978+02:00[Europe/Madrid]</time>
      </trkpt>
      <trkpt lat="37.094892" lon="-5.489356">
        <ele>214.0</ele>
        <time>2022-09-26T13:50:25.978+02:00[Europe/Madrid]</time>
      </trkpt>
      <trkpt lat="37.09492" lon="-5.489144">
        <ele>212.0</ele>
        <time>2022-09-26T13:50:26.978+02:00[Europe/Madrid]</time>
      </trkpt>
      <trkpt lat="37.094937" lon="-5.488923">
        <ele>211.0</ele>
        <time>2022-09-26T13:50:27.978+02:00[Europe/Madrid]</time>
      </trkpt>
      <trkpt lat="37.094933" lon="-5.488706">
        <ele>211.0</ele>
        <time>2022-09-26T13:50:28.978+02:00[Europe/Madrid]</time>
      </trkpt>
      <trkpt lat="37.094906" lon="-5.488504">
        <ele>211.0</ele>
        <time>2022-09-26T13:50:29.978+02:00[Europe/Madrid]</time>
      </trkpt>
      <trkpt lat="37.094878" lon="-5.488308">
        <ele>211.0</ele>
        <time>2022-09-26T13:50:30.978+02:00[Europe/Madrid]</time>
      </trkpt>
      <trkpt lat="37.094846" lon="-5.488118">
        <ele>211.0</ele>
        <time>2022-09-26T13:50:31.978+02:00[Europe/Madrid]</time>
      </trkpt>
      <trkpt lat="37.094815" lon="-5.487931">
        <ele>210.0</ele>
        <time>2022-09-26T13:50:32.978+02:00[Europe/Madrid]</time>
      </trkpt>
      <trkpt lat="37.094791" lon="-5.487748">
        <ele>210.0</ele>
        <time>2022-09-26T13:50:33.978+02:00[Europe/Madrid]</time>
      </trkpt>
      <trkpt lat="37.094764" lon="-5.487567">
        <ele>209.0</ele>
        <time>2022-09-26T13:50:34.978+02:00[Europe/Madrid]</time>
      </trkpt>
      <trkpt lat="37.094736" lon="-5.487382">
        <ele>209.0</ele>
        <time>2022-09-26T13:50:35.978+02:00[Europe/Madrid]</time>
      </trkpt>
      <trkpt lat="37.094709" lon="-5.487188">
        <ele>208.0</ele>
        <time>2022-09-26T13:50:36.978+02:00[Europe/Madrid]</time>
      </trkpt>
      <trkpt lat="37.094692" lon="-5.486988">
        <ele>207.0</ele>
        <time>2022-09-26T13:50:37.978+02:00[Europe/Madrid]</time>
      </trkpt>
      <trkpt lat="37.094693" lon="-5.486786">
        <ele>207.0</ele>
        <time>2022-09-26T13:50:38.978+02:00[Europe/Madrid]</time>
      </trkpt>
      <trkpt lat="37.094714" lon="-5.486576">
        <ele>206.0</ele>
        <time>2022-09-26T13:50:39.978+02:00[Europe/Madrid]</time>
      </trkpt>
      <trkpt lat="37.094757" lon="-5.486365">
        <ele>206.0</ele>
        <time>2022-09-26T13:50:40.978+02:00[Europe/Madrid]</time>
      </trkpt>
      <trkpt lat="37.094807" lon="-5.486153">
        <ele>206.0</ele>
        <time>2022-09-26T13:50:41.978+02:00[Europe/Madrid]</time>
      </trkpt>
      <trkpt lat="37.094859" lon="-5.485935">
        <ele>207.0</ele>
        <time>2022-09-26T13:50:42.978+02:00[Europe/Madrid]</time>
      </trkpt>
      <trkpt lat="37.094906" lon="-5.485724">
        <ele>207.0</ele>
        <time>2022-09-26T13:50:43.978+02:00[Europe/Madrid]</time>
      </trkpt>
      <trkpt lat="37.094947" lon="-5.485523">
        <ele>207.0</ele>
        <time>2022-09-26T13:50:44.978+02:00[Europe/Madrid]</time>
      </trkpt>
      <trkpt lat="37.094984" lon="-5.485331">
        <ele>207.0</ele>
        <time>2022-09-26T13:50:45.978+02:00[Europe/Madrid]</time>
      </trkpt>
      <trkpt lat="37.095024" lon="-5.485139">
        <ele>206.0</ele>
        <time>2022-09-26T13:50:46.978+02:00[Europe/Madrid]</time>
      </trkpt>
      <trkpt lat="37.095069" lon="-5.484948">
        <ele>206.0</ele>
        <time>2022-09-26T13:50:47.978+02:00[Europe/Madrid]</time>
      </trkpt>
      <trkpt lat="37.095117" lon="-5.484762">
        <ele>205.0</ele>
        <time>2022-09-26T13:50:48.978+02:00[Europe/Madrid]</time>
      </trkpt>
      <trkpt lat="37.095173" lon="-5.484584">
        <ele>205.0</ele>
        <time>2022-09-26T13:50:49.978+02:00[Europe/Madrid]</time>
      </trkpt>
      <trkpt lat="37.095241" lon="-5.484415">
        <ele>204.0</ele>
        <time>2022-09-26T13:50:50.978+02:00[Europe/Madrid]</time>
      </trkpt>
      <trkpt lat="37.095325" lon="-5.484248">
        <ele>203.0</ele>
        <time>2022-09-26T13:50:51.978+02:00[Europe/Madrid]</time>
      </trkpt>
      <trkpt lat="37.095423" lon="-5.484089">
        <ele>202.0</ele>
        <time>2022-09-26T13:50:52.978+02:00[Europe/Madrid]</time>
      </trkpt>
      <trkpt lat="37.095533" lon="-5.483927">
        <ele>202.0</ele>
        <time>2022-09-26T13:50:53.978+02:00[Europe/Madrid]</time>
      </trkpt>
      <trkpt lat="37.095646" lon="-5.483763">
        <ele>202.0</ele>
        <time>2022-09-26T13:50:54.978+02:00[Europe/Madrid]</time>
      </trkpt>
      <trkpt lat="37.09577" lon="-5.483592">
        <ele>202.0</ele>
        <time>2022-09-26T13:50:55.978+02:00[Europe/Madrid]</time>
      </trkpt>
      <trkpt lat="37.095896" lon="-5.483416">
        <ele>202.0</ele>
        <time>2022-09-26T13:50:56.978+02:00[Europe/Madrid]</time>
      </trkpt>
      <trkpt lat="37.096018" lon="-5.483243">
        <ele>203.0</ele>
        <time>2022-09-26T13:50:57.978+02:00[Europe/Madrid]</time>
      </trkpt>
      <trkpt lat="37.09614" lon="-5.483077">
        <ele>203.0</ele>
        <time>2022-09-26T13:50:58.978+02:00[Europe/Madrid]</time>
      </trkpt>
      <trkpt lat="37.096257" lon="-5.482917">
        <ele>204.0</ele>
        <time>2022-09-26T13:50:59.978+02:00[Europe/Madrid]</time>
      </trkpt>
      <trkpt lat="37.096376" lon="-5.482754">
        <ele>204.0</ele>
        <time>2022-09-26T13:51:00.978+02:00[Europe/Madrid]</time>
      </trkpt>
      <trkpt lat="37.096497" lon="-5.482581">
        <ele>205.0</ele>
        <time>2022-09-26T13:51:01.978+02:00[Europe/Madrid]</time>
      </trkpt>
      <trkpt lat="37.096613" lon="-5.482396">
        <ele>206.0</ele>
        <time>2022-09-26T13:51:02.978+02:00[Europe/Madrid]</time>
      </trkpt>
      <trkpt lat="37.096724" lon="-5.482199">
        <ele>206.0</ele>
        <time>2022-09-26T13:51:03.978+02:00[Europe/Madrid]</time>
      </trkpt>
      <trkpt lat="37.096832" lon="-5.481989">
        <ele>207.0</ele>
        <time>2022-09-26T13:51:04.978+02:00[Europe/Madrid]</time>
      </trkpt>
      <trkpt lat="37.096933" lon="-5.481763">
        <ele>207.0</ele>
        <time>2022-09-26T13:51:05.978+02:00[Europe/Madrid]</time>
      </trkpt>
      <trkpt lat="37.097032" lon="-5.481528">
        <ele>208.0</ele>
        <time>2022-09-26T13:51:06.978+02:00[Europe/Madrid]</time>
      </trkpt>
      <trkpt lat="37.097119" lon="-5.481305">
        <ele>209.0</ele>
        <time>2022-09-26T13:51:07.978+02:00[Europe/Madrid]</time>
      </trkpt>
      <trkpt lat="37.097207" lon="-5.481095">
        <ele>210.0</ele>
        <time>2022-09-26T13:51:08.978+02:00[Europe/Madrid]</time>
      </trkpt>
      <trkpt lat="37.097292" lon="-5.480904">
        <ele>211.0</ele>
        <time>2022-09-26T13:51:09.978+02:00[Europe/Madrid]</time>
      </trkpt>
      <trkpt lat="37.097376" lon="-5.480731">
        <ele>212.0</ele>
        <time>2022-09-26T13:51:10.978+02:00[Europe/Madrid]</time>
      </trkpt>
      <trkpt lat="37.09747" lon="-5.48057">
        <ele>212.0</ele>
        <time>2022-09-26T13:51:11.978+02:00[Europe/Madrid]</time>
      </trkpt>
      <trkpt lat="37.097575" lon="-5.480417">
        <ele>213.0</ele>
        <time>2022-09-26T13:51:12.978+02:00[Europe/Madrid]</time>
      </trkpt>
      <trkpt lat="37.097697" lon="-5.480269">
        <ele>213.0</ele>
        <time>2022-09-26T13:51:13.978+02:00[Europe/Madrid]</time>
      </trkpt>
      <trkpt lat="37.097836" lon="-5.480123">
        <ele>212.0</ele>
        <time>2022-09-26T13:51:14.978+02:00[Europe/Madrid]</time>
      </trkpt>
      <trkpt lat="37.097991" lon="-5.479973">
        <ele>212.0</ele>
        <time>2022-09-26T13:51:15.978+02:00[Europe/Madrid]</time>
      </trkpt>
      <trkpt lat="37.098154" lon="-5.479815">
        <ele>212.0</ele>
        <time>2022-09-26T13:51:16.978+02:00[Europe/Madrid]</time>
      </trkpt>
      <trkpt lat="37.098321" lon="-5.479655">
        <ele>211.0</ele>
        <time>2022-09-26T13:51:17.978+02:00[Europe/Madrid]</time>
      </trkpt>
      <trkpt lat="37.098488" lon="-5.479496">
        <ele>211.0</ele>
        <time>2022-09-26T13:51:18.978+02:00[Europe/Madrid]</time>
      </trkpt>
      <trkpt lat="37.098649" lon="-5.479341">
        <ele>211.0</ele>
        <time>2022-09-26T13:51:19.978+02:00[Europe/Madrid]</time>
      </trkpt>
      <trkpt lat="37.098814" lon="-5.479188">
        <ele>211.0</ele>
        <time>2022-09-26T13:51:20.978+02:00[Europe/Madrid]</time>
      </trkpt>
      <trkpt lat="37.098978" lon="-5.479029">
        <ele>211.0</ele>
        <time>2022-09-26T13:51:21.978+02:00[Europe/Madrid]</time>
      </trkpt>
      <trkpt lat="37.099135" lon="-5.478862">
        <ele>211.0</ele>
        <time>2022-09-26T13:51:22.978+02:00[Europe/Madrid]</time>
      </trkpt>
      <trkpt lat="37.099291" lon="-5.478684">
        <ele>211.0</ele>
        <time>2022-09-26T13:51:23.978+02:00[Europe/Madrid]</time>
      </trkpt>
      <trkpt lat="37.09944" lon="-5.478492">
        <ele>211.0</ele>
        <time>2022-09-26T13:51:24.978+02:00[Europe/Madrid]</time>
      </trkpt>
      <trkpt lat="37.099584" lon="-5.47829">
        <ele>213.0</ele>
        <time>2022-09-26T13:51:25.978+02:00[Europe/Madrid]</time>
      </trkpt>
      <trkpt lat="37.099721" lon="-5.478092">
        <ele>214.0</ele>
        <time>2022-09-26T13:51:26.978+02:00[Europe/Madrid]</time>
      </trkpt>
      <trkpt lat="37.099858" lon="-5.477896">
        <ele>215.0</ele>
        <time>2022-09-26T13:51:27.978+02:00[Europe/Madrid]</time>
      </trkpt>
      <trkpt lat="37.099994" lon="-5.477695">
        <ele>215.0</ele>
        <time>2022-09-26T13:51:28.978+02:00[Europe/Madrid]</time>
      </trkpt>
      <trkpt lat="37.100134" lon="-5.477489">
        <ele>216.0</ele>
        <time>2022-09-26T13:51:29.978+02:00[Europe/Madrid]</time>
      </trkpt>
      <trkpt lat="37.100276" lon="-5.477283">
        <ele>216.0</ele>
        <time>2022-09-26T13:51:30.978+02:00[Europe/Madrid]</time>
      </trkpt>
      <trkpt lat="37.100418" lon="-5.477073">
        <ele>217.0</ele>
        <time>2022-09-26T13:51:31.978+02:00[Europe/Madrid]</time>
      </trkpt>
      <trkpt lat="37.10056" lon="-5.476861">
        <ele>218.0</ele>
        <time>2022-09-26T13:51:32.978+02:00[Europe/Madrid]</time>
      </trkpt>
      <trkpt lat="37.100705" lon="-5.476645">
        <ele>219.0</ele>
        <time>2022-09-26T13:51:33.978+02:00[Europe/Madrid]</time>
      </trkpt>
      <trkpt lat="37.100853" lon="-5.476426">
        <ele>221.0</ele>
        <time>2022-09-26T13:51:34.978+02:00[Europe/Madrid]</time>
      </trkpt>
      <trkpt lat="37.101" lon="-5.47621">
        <ele>222.0</ele>
        <time>2022-09-26T13:51:35.978+02:00[Europe/Madrid]</time>
      </trkpt>
      <trkpt lat="37.101144" lon="-5.476001">
        <ele>224.0</ele>
        <time>2022-09-26T13:51:36.978+02:00[Europe/Madrid]</time>
      </trkpt>
      <trkpt lat="37.101289" lon="-5.475788">
        <ele>225.0</ele>
        <time>2022-09-26T13:51:37.978+02:00[Europe/Madrid]</time>
      </trkpt>
      <trkpt lat="37.101423" lon="-5.475587">
        <ele>227.0</ele>
        <time>2022-09-26T13:51:38.978+02:00[Europe/Madrid]</time>
      </trkpt>
      <trkpt lat="37.101552" lon="-5.475402">
        <ele>228.0</ele>
        <time>2022-09-26T13:51:39.978+02:00[Europe/Madrid]</time>
      </trkpt>
      <trkpt lat="37.101665" lon="-5.475238">
        <ele>229.0</ele>
        <time>2022-09-26T13:51:40.978+02:00[Europe/Madrid]</time>
      </trkpt>
      <trkpt lat="37.101778" lon="-5.475093">
        <ele>231.0</ele>
        <time>2022-09-26T13:51:41.978+02:00[Europe/Madrid]</time>
      </trkpt>
      <trkpt lat="37.101897" lon="-5.474963">
        <ele>232.0</ele>
        <time>2022-09-26T13:51:42.978+02:00[Europe/Madrid]</time>
      </trkpt>
      <trkpt lat="37.10203" lon="-5.474852">
        <ele>233.0</ele>
        <time>2022-09-26T13:51:43.978+02:00[Europe/Madrid]</time>
      </trkpt>
      <trkpt lat="37.10218" lon="-5.474756">
        <ele>234.0</ele>
        <time>2022-09-26T13:51:44.978+02:00[Europe/Madrid]</time>
      </trkpt>
      <trkpt lat="37.102346" lon="-5.47467">
        <ele>235.0</ele>
        <time>2022-09-26T13:51:45.978+02:00[Europe/Madrid]</time>
      </trkpt>
      <trkpt lat="37.102525" lon="-5.474582">
        <ele>236.0</ele>
        <time>2022-09-26T13:51:46.978+02:00[Europe/Madrid]</time>
      </trkpt>
      <trkpt lat="37.10271" lon="-5.474485">
        <ele>238.0</ele>
        <time>2022-09-26T13:51:47.978+02:00[Europe/Madrid]</time>
      </trkpt>
      <trkpt lat="37.102899" lon="-5.474381">
        <ele>239.0</ele>
        <time>2022-09-26T13:51:48.978+02:00[Europe/Madrid]</time>
      </trkpt>
      <trkpt lat="37.10308" lon="-5.474283">
        <ele>240.0</ele>
        <time>2022-09-26T13:51:49.978+02:00[Europe/Madrid]</time>
      </trkpt>
      <trkpt lat="37.103258" lon="-5.474176">
        <ele>241.0</ele>
        <time>2022-09-26T13:51:50.978+02:00[Europe/Madrid]</time>
      </trkpt>
      <trkpt lat="37.10343" lon="-5.474049">
        <ele>242.0</ele>
        <time>2022-09-26T13:51:51.978+02:00[Europe/Madrid]</time>
      </trkpt>
      <trkpt lat="37.103592" lon="-5.4739">
        <ele>243.0</ele>
        <time>2022-09-26T13:51:52.978+02:00[Europe/Madrid]</time>
      </trkpt>
      <trkpt lat="37.103747" lon="-5.473734">
        <ele>245.0</ele>
        <time>2022-09-26T13:51:53.978+02:00[Europe/Madrid]</time>
      </trkpt>
      <trkpt lat="37.103909" lon="-5.473572">
        <ele>246.0</ele>
        <time>2022-09-26T13:51:54.978+02:00[Europe/Madrid]</time>
      </trkpt>
      <trkpt lat="37.104081" lon="-5.473417">
        <ele>247.0</ele>
        <time>2022-09-26T13:51:55.978+02:00[Europe/Madrid]</time>
      </trkpt>
      <trkpt lat="37.104264" lon="-5.473266">
        <ele>248.0</ele>
        <time>2022-09-26T13:51:56.978+02:00[Europe/Madrid]</time>
      </trkpt>
      <trkpt lat="37.104454" lon="-5.473107">
        <ele>249.0</ele>
        <time>2022-09-26T13:51:57.978+02:00[Europe/Madrid]</time>
      </trkpt>
      <trkpt lat="37.104635" lon="-5.472957">
        <ele>249.0</ele>
        <time>2022-09-26T13:51:58.978+02:00[Europe/Madrid]</time>
      </trkpt>
      <trkpt lat="37.104806" lon="-5.472816">
        <ele>250.0</ele>
        <time>2022-09-26T13:51:59.978+02:00[Europe/Madrid]</time>
      </trkpt>
      <trkpt lat="37.10497" lon="-5.472688">
        <ele>251.0</ele>
        <time>2022-09-26T13:52:00.978+02:00[Europe/Madrid]</time>
      </trkpt>
      <trkpt lat="37.105126" lon="-5.472575">
        <ele>251.0</ele>
        <time>2022-09-26T13:52:01.978+02:00[Europe/Madrid]</time>
      </trkpt>
      <trkpt lat="37.105279" lon="-5.472478">
        <ele>252.0</ele>
        <time>2022-09-26T13:52:02.978+02:00[Europe/Madrid]</time>
      </trkpt>
      <trkpt lat="37.105437" lon="-5.472391">
        <ele>252.0</ele>
        <time>2022-09-26T13:52:03.978+02:00[Europe/Madrid]</time>
      </trkpt>
      <trkpt lat="37.105593" lon="-5.472322">
        <ele>253.0</ele>
        <time>2022-09-26T13:52:04.978+02:00[Europe/Madrid]</time>
      </trkpt>
      <trkpt lat="37.105746" lon="-5.472263">
        <ele>253.0</ele>
        <time>2022-09-26T13:52:05.978+02:00[Europe/Madrid]</time>
      </trkpt>
      <trkpt lat="37.105895" lon="-5.472221">
        <ele>254.0</ele>
        <time>2022-09-26T13:52:06.978+02:00[Europe/Madrid]</time>
      </trkpt>
      <trkpt lat="37.106042" lon="-5.472205">
        <ele>254.0</ele>
        <time>2022-09-26T13:52:07.978+02:00[Europe/Madrid]</time>
      </trkpt>
      <trkpt lat="37.106193" lon="-5.472212">
        <ele>255.0</ele>
        <time>2022-09-26T13:52:08.978+02:00[Europe/Madrid]</time>
      </trkpt>
      <trkpt lat="37.106347" lon="-5.472219">
        <ele>255.0</ele>
        <time>2022-09-26T13:52:09.978+02:00[Europe/Madrid]</time>
      </trkpt>
      <trkpt lat="37.106506" lon="-5.472203">
        <ele>256.0</ele>
        <time>2022-09-26T13:52:10.978+02:00[Europe/Madrid]</time>
      </trkpt>
      <trkpt lat="37.106677" lon="-5.472158">
        <ele>256.0</ele>
        <time>2022-09-26T13:52:11.978+02:00[Europe/Madrid]</time>
      </trkpt>
      <trkpt lat="37.106852" lon="-5.472095">
        <ele>257.0</ele>
        <time>2022-09-26T13:52:12.978+02:00[Europe/Madrid]</time>
      </trkpt>
      <trkpt lat="37.10704" lon="-5.472017">
        <ele>258.0</ele>
        <time>2022-09-26T13:52:13.978+02:00[Europe/Madrid]</time>
      </trkpt>
      <trkpt lat="37.107226" lon="-5.471939">
        <ele>258.0</ele>
        <time>2022-09-26T13:52:14.978+02:00[Europe/Madrid]</time>
      </trkpt>
      <trkpt lat="37.107405" lon="-5.471864">
        <ele>259.0</ele>
        <time>2022-09-26T13:52:15.978+02:00[Europe/Madrid]</time>
      </trkpt>
      <trkpt lat="37.107575" lon="-5.47178">
        <ele>258.0</ele>
        <time>2022-09-26T13:52:16.978+02:00[Europe/Madrid]</time>
      </trkpt>
      <trkpt lat="37.107749" lon="-5.471682">
        <ele>257.0</ele>
        <time>2022-09-26T13:52:17.978+02:00[Europe/Madrid]</time>
      </trkpt>
      <trkpt lat="37.107914" lon="-5.471566">
        <ele>256.0</ele>
        <time>2022-09-26T13:52:18.978+02:00[Europe/Madrid]</time>
      </trkpt>
      <trkpt lat="37.108072" lon="-5.471432">
        <ele>255.0</ele>
        <time>2022-09-26T13:52:19.978+02:00[Europe/Madrid]</time>
      </trkpt>
      <trkpt lat="37.10823" lon="-5.471274">
        <ele>255.0</ele>
        <time>2022-09-26T13:52:20.978+02:00[Europe/Madrid]</time>
      </trkpt>
      <trkpt lat="37.108376" lon="-5.471097">
        <ele>255.0</ele>
        <time>2022-09-26T13:52:21.978+02:00[Europe/Madrid]</time>
      </trkpt>
      <trkpt lat="37.108511" lon="-5.470923">
        <ele>256.0</ele>
        <time>2022-09-26T13:52:22.978+02:00[Europe/Madrid]</time>
      </trkpt>
      <trkpt lat="37.108635" lon="-5.470755">
        <ele>257.0</ele>
        <time>2022-09-26T13:52:23.978+02:00[Europe/Madrid]</time>
      </trkpt>
      <trkpt lat="37.108764" lon="-5.470595">
        <ele>258.0</ele>
        <time>2022-09-26T13:52:24.978+02:00[Europe/Madrid]</time>
      </trkpt>
      <trkpt lat="37.108894" lon="-5.470446">
        <ele>259.0</ele>
        <time>2022-09-26T13:52:25.978+02:00[Europe/Madrid]</time>
      </trkpt>
      <trkpt lat="37.109031" lon="-5.470301">
        <ele>258.0</ele>
        <time>2022-09-26T13:52:26.978+02:00[Europe/Madrid]</time>
      </trkpt>
      <trkpt lat="37.109178" lon="-5.470159">
        <ele>257.0</ele>
        <time>2022-09-26T13:52:27.978+02:00[Europe/Madrid]</time>
      </trkpt>
      <trkpt lat="37.109333" lon="-5.470018">
        <ele>256.0</ele>
        <time>2022-09-26T13:52:28.978+02:00[Europe/Madrid]</time>
      </trkpt>
      <trkpt lat="37.109485" lon="-5.469879">
        <ele>255.0</ele>
        <time>2022-09-26T13:52:29.978+02:00[Europe/Madrid]</time>
      </trkpt>
      <trkpt lat="37.109629" lon="-5.469746">
        <ele>253.0</ele>
        <time>2022-09-26T13:52:30.978+02:00[Europe/Madrid]</time>
      </trkpt>
      <trkpt lat="37.10977" lon="-5.469634">
        <ele>253.0</ele>
        <time>2022-09-26T13:52:31.978+02:00[Europe/Madrid]</time>
      </trkpt>
      <trkpt lat="37.109912" lon="-5.469549">
        <ele>252.0</ele>
        <time>2022-09-26T13:52:32.978+02:00[Europe/Madrid]</time>
      </trkpt>
      <trkpt lat="37.110067" lon="-5.469487">
        <ele>251.0</ele>
        <time>2022-09-26T13:52:33.978+02:00[Europe/Madrid]</time>
      </trkpt>
      <trkpt lat="37.11023" lon="-5.469443">
        <ele>250.0</ele>
        <time>2022-09-26T13:52:34.978+02:00[Europe/Madrid]</time>
      </trkpt>
      <trkpt lat="37.110395" lon="-5.469403">
        <ele>249.0</ele>
        <time>2022-09-26T13:52:35.978+02:00[Europe/Madrid]</time>
      </trkpt>
      <trkpt lat="37.110564" lon="-5.469349">
        <ele>249.0</ele>
        <time>2022-09-26T13:52:36.978+02:00[Europe/Madrid]</time>
      </trkpt>
      <trkpt lat="37.110734" lon="-5.469279">
        <ele>248.0</ele>
        <time>2022-09-26T13:52:37.978+02:00[Europe/Madrid]</time>
      </trkpt>
      <trkpt lat="37.110905" lon="-5.469185">
        <ele>248.0</ele>
        <time>2022-09-26T13:52:38.978+02:00[Europe/Madrid]</time>
      </trkpt>
      <trkpt lat="37.111068" lon="-5.469078">
        <ele>248.0</ele>
        <time>2022-09-26T13:52:39.978+02:00[Europe/Madrid]</time>
      </trkpt>
      <trkpt lat="37.11122" lon="-5.46897">
        <ele>248.0</ele>
        <time>2022-09-26T13:52:40.978+02:00[Europe/Madrid]</time>
      </trkpt>
      <trkpt lat="37.111366" lon="-5.468866">
        <ele>248.0</ele>
        <time>2022-09-26T13:52:41.978+02:00[Europe/Madrid]</time>
      </trkpt>
      <trkpt lat="37.111498" lon="-5.468758">
        <ele>248.0</ele>
        <time>2022-09-26T13:52:42.978+02:00[Europe/Madrid]</time>
      </trkpt>
      <trkpt lat="37.111615" lon="-5.468633">
        <ele>248.0</ele>
        <time>2022-09-26T13:52:43.978+02:00[Europe/Madrid]</time>
      </trkpt>
      <trkpt lat="37.11171" lon="-5.468487">
        <ele>248.0</ele>
        <time>2022-09-26T13:52:44.978+02:00[Europe/Madrid]</time>
      </trkpt>
      <trkpt lat="37.111784" lon="-5.468321">
        <ele>248.0</ele>
        <time>2022-09-26T13:52:45.978+02:00[Europe/Madrid]</time>
      </trkpt>
      <trkpt lat="37.111839" lon="-5.468144">
        <ele>249.0</ele>
        <time>2022-09-26T13:52:46.978+02:00[Europe/Madrid]</time>
      </trkpt>
      <trkpt lat="37.111889" lon="-5.467963">
        <ele>250.0</ele>
        <time>2022-09-26T13:52:47.978+02:00[Europe/Madrid]</time>
      </trkpt>
      <trkpt lat="37.111937" lon="-5.467779">
        <ele>249.0</ele>
        <time>2022-09-26T13:52:48.978+02:00[Europe/Madrid]</time>
      </trkpt>
      <trkpt lat="37.111996" lon="-5.467592">
        <ele>249.0</ele>
        <time>2022-09-26T13:52:49.978+02:00[Europe/Madrid]</time>
      </trkpt>
      <trkpt lat="37.11207" lon="-5.467398">
        <ele>247.0</ele>
        <time>2022-09-26T13:52:50.978+02:00[Europe/Madrid]</time>
      </trkpt>
      <trkpt lat="37.112158" lon="-5.467204">
        <ele>246.0</ele>
        <time>2022-09-26T13:52:51.978+02:00[Europe/Madrid]</time>
      </trkpt>
      <trkpt lat="37.112257" lon="-5.467015">
        <ele>245.0</ele>
        <time>2022-09-26T13:52:52.978+02:00[Europe/Madrid]</time>
      </trkpt>
      <trkpt lat="37.11236" lon="-5.466832">
        <ele>244.0</ele>
        <time>2022-09-26T13:52:53.978+02:00[Europe/Madrid]</time>
      </trkpt>
      <trkpt lat="37.112454" lon="-5.46664">
        <ele>243.0</ele>
        <time>2022-09-26T13:52:54.978+02:00[Europe/Madrid]</time>
      </trkpt>
      <trkpt lat="37.112539" lon="-5.466436">
        <ele>243.0</ele>
        <time>2022-09-26T13:52:55.978+02:00[Europe/Madrid]</time>
      </trkpt>
      <trkpt lat="37.112613" lon="-5.466233">
        <ele>243.0</ele>
        <time>2022-09-26T13:52:56.978+02:00[Europe/Madrid]</time>
      </trkpt>
      <trkpt lat="37.112685" lon="-5.466044">
        <ele>243.0</ele>
        <time>2022-09-26T13:52:57.978+02:00[Europe/Madrid]</time>
      </trkpt>
      <trkpt lat="37.112765" lon="-5.465878">
        <ele>243.0</ele>
        <time>2022-09-26T13:52:58.978+02:00[Europe/Madrid]</time>
      </trkpt>
      <trkpt lat="37.112856" lon="-5.465728">
        <ele>243.0</ele>
        <time>2022-09-26T13:52:59.978+02:00[Europe/Madrid]</time>
      </trkpt>
      <trkpt lat="37.112957" lon="-5.465593">
        <ele>243.0</ele>
        <time>2022-09-26T13:53:00.978+02:00[Europe/Madrid]</time>
      </trkpt>
      <trkpt lat="37.113067" lon="-5.465468">
        <ele>243.0</ele>
        <time>2022-09-26T13:53:01.978+02:00[Europe/Madrid]</time>
      </trkpt>
      <trkpt lat="37.11319" lon="-5.46534">
        <ele>242.0</ele>
        <time>2022-09-26T13:53:02.978+02:00[Europe/Madrid]</time>
      </trkpt>
      <trkpt lat="37.113327" lon="-5.46521">
        <ele>241.0</ele>
        <time>2022-09-26T13:53:03.978+02:00[Europe/Madrid]</time>
      </trkpt>
      <trkpt lat="37.113473" lon="-5.465074">
        <ele>240.0</ele>
        <time>2022-09-26T13:53:04.978+02:00[Europe/Madrid]</time>
      </trkpt>
      <trkpt lat="37.113633" lon="-5.464933">
        <ele>239.0</ele>
        <time>2022-09-26T13:53:05.978+02:00[Europe/Madrid]</time>
      </trkpt>
      <trkpt lat="37.113802" lon="-5.464779">
        <ele>238.0</ele>
        <time>2022-09-26T13:53:06.978+02:00[Europe/Madrid]</time>
      </trkpt>
      <trkpt lat="37.113968" lon="-5.464628">
        <ele>237.0</ele>
        <time>2022-09-26T13:53:07.978+02:00[Europe/Madrid]</time>
      </trkpt>
      <trkpt lat="37.114126" lon="-5.464482">
        <ele>237.0</ele>
        <time>2022-09-26T13:53:08.978+02:00[Europe/Madrid]</time>
      </trkpt>
      <trkpt lat="37.114272" lon="-5.46433">
        <ele>237.0</ele>
        <time>2022-09-26T13:53:09.978+02:00[Europe/Madrid]</time>
      </trkpt>
      <trkpt lat="37.114401" lon="-5.464174">
        <ele>237.0</ele>
        <time>2022-09-26T13:53:10.978+02:00[Europe/Madrid]</time>
      </trkpt>
      <trkpt lat="37.114515" lon="-5.464021">
        <ele>238.0</ele>
        <time>2022-09-26T13:53:11.978+02:00[Europe/Madrid]</time>
      </trkpt>
      <trkpt lat="37.114619" lon="-5.463869">
        <ele>238.0</ele>
        <time>2022-09-26T13:53:12.978+02:00[Europe/Madrid]</time>
      </trkpt>
      <trkpt lat="37.114716" lon="-5.463722">
        <ele>239.0</ele>
        <time>2022-09-26T13:53:13.978+02:00[Europe/Madrid]</time>
      </trkpt>
      <trkpt lat="37.114808" lon="-5.46359">
        <ele>239.0</ele>
        <time>2022-09-26T13:53:14.978+02:00[Europe/Madrid]</time>
      </trkpt>
      <trkpt lat="37.114897" lon="-5.463467">
        <ele>239.0</ele>
        <time>2022-09-26T13:53:15.978+02:00[Europe/Madrid]</time>
      </trkpt>
      <trkpt lat="37.114983" lon="-5.463355">
        <ele>240.0</ele>
        <time>2022-09-26T13:53:16.978+02:00[Europe/Madrid]</time>
      </trkpt>
      <trkpt lat="37.115068" lon="-5.463247">
        <ele>240.0</ele>
        <time>2022-09-26T13:53:17.978+02:00[Europe/Madrid]</time>
      </trkpt>
      <trkpt lat="37.115156" lon="-5.463147">
        <ele>240.0</ele>
        <time>2022-09-26T13:53:18.978+02:00[Europe/Madrid]</time>
      </trkpt>
      <trkpt lat="37.115242" lon="-5.463056">
        <ele>241.0</ele>
        <time>2022-09-26T13:53:19.978+02:00[Europe/Madrid]</time>
      </trkpt>
      <trkpt lat="37.115321" lon="-5.462978">
        <ele>241.0</ele>
        <time>2022-09-26T13:53:20.978+02:00[Europe/Madrid]</time>
      </trkpt>
      <trkpt lat="37.115449" lon="-5.462847">
        <ele>241.0</ele>
        <time>2022-09-26T13:53:22.900+02:00[Europe/Madrid]</time>
      </trkpt>
      <trkpt lat="37.115544" lon="-5.462711">
        <ele>242.0</ele>
        <time>2022-09-26T13:53:24.885+02:00[Europe/Madrid]</time>
      </trkpt>
      <trkpt lat="37.115657" lon="-5.462624">
        <ele>243.0</ele>
        <time>2022-09-26T13:53:26.884+02:00[Europe/Madrid]</time>
      </trkpt>
      <trkpt lat="37.115814" lon="-5.462635">
        <ele>243.0</ele>
        <time>2022-09-26T13:53:28.891+02:00[Europe/Madrid]</time>
      </trkpt>
      <trkpt lat="37.11592" lon="-5.46266">
        <ele>244.0</ele>
        <time>2022-09-26T13:53:29.891+02:00[Europe/Madrid]</time>
      </trkpt>
      <trkpt lat="37.116043" lon="-5.462678">
        <ele>244.0</ele>
        <time>2022-09-26T13:53:30.892+02:00[Europe/Madrid]</time>
      </trkpt>
      <trkpt lat="37.116157" lon="-5.462699">
        <ele>245.0</ele>
        <time>2022-09-26T13:53:31.893+02:00[Europe/Madrid]</time>
      </trkpt>
      <trkpt lat="37.116267" lon="-5.462731">
        <ele>245.0</ele>
        <time>2022-09-26T13:53:32.893+02:00[Europe/Madrid]</time>
      </trkpt>
      <trkpt lat="37.116376" lon="-5.462772">
        <ele>246.0</ele>
        <time>2022-09-26T13:53:33.893+02:00[Europe/Madrid]</time>
      </trkpt>
      <trkpt lat="37.116486" lon="-5.462825">
        <ele>246.0</ele>
        <time>2022-09-26T13:53:34.900+02:00[Europe/Madrid]</time>
      </trkpt>
      <trkpt lat="37.116589" lon="-5.462887">
        <ele>247.0</ele>
        <time>2022-09-26T13:53:35.900+02:00[Europe/Madrid]</time>
      </trkpt>
      <trkpt lat="37.116697" lon="-5.462955">
        <ele>248.0</ele>
        <time>2022-09-26T13:53:36.907+02:00[Europe/Madrid]</time>
      </trkpt>
      <trkpt lat="37.116798" lon="-5.463031">
        <ele>248.0</ele>
        <time>2022-09-26T13:53:37.907+02:00[Europe/Madrid]</time>
      </trkpt>
      <trkpt lat="37.116898" lon="-5.463121">
        <ele>249.0</ele>
        <time>2022-09-26T13:53:38.907+02:00[Europe/Madrid]</time>
      </trkpt>
      <trkpt lat="37.117002" lon="-5.463219">
        <ele>249.0</ele>
        <time>2022-09-26T13:53:39.907+02:00[Europe/Madrid]</time>
      </trkpt>
      <trkpt lat="37.117102" lon="-5.46333">
        <ele>250.0</ele>
        <time>2022-09-26T13:53:40.907+02:00[Europe/Madrid]</time>
      </trkpt>
      <trkpt lat="37.117209" lon="-5.463454">
        <ele>251.0</ele>
        <time>2022-09-26T13:53:41.907+02:00[Europe/Madrid]</time>
      </trkpt>
      <trkpt lat="37.117311" lon="-5.463571">
        <ele>251.0</ele>
        <time>2022-09-26T13:53:42.907+02:00[Europe/Madrid]</time>
      </trkpt>
      <trkpt lat="37.117412" lon="-5.463688">
        <ele>251.0</ele>
        <time>2022-09-26T13:53:43.907+02:00[Europe/Madrid]</time>
      </trkpt>
      <trkpt lat="37.117511" lon="-5.463806">
        <ele>252.0</ele>
        <time>2022-09-26T13:53:44.907+02:00[Europe/Madrid]</time>
      </trkpt>
      <trkpt lat="37.117607" lon="-5.463919">
        <ele>252.0</ele>
        <time>2022-09-26T13:53:45.907+02:00[Europe/Madrid]</time>
      </trkpt>
      <trkpt lat="37.117706" lon="-5.464034">
        <ele>253.0</ele>
        <time>2022-09-26T13:53:46.907+02:00[Europe/Madrid]</time>
      </trkpt>
      <trkpt lat="37.117804" lon="-5.464148">
        <ele>254.0</ele>
        <time>2022-09-26T13:53:47.907+02:00[Europe/Madrid]</time>
      </trkpt>
      <trkpt lat="37.117902" lon="-5.464261">
        <ele>254.0</ele>
        <time>2022-09-26T13:53:48.907+02:00[Europe/Madrid]</time>
      </trkpt>
      <trkpt lat="37.117992" lon="-5.464365">
        <ele>254.0</ele>
        <time>2022-09-26T13:53:49.907+02:00[Europe/Madrid]</time>
      </trkpt>
      <trkpt lat="37.118084" lon="-5.464459">
        <ele>255.0</ele>
        <time>2022-09-26T13:53:50.907+02:00[Europe/Madrid]</time>
      </trkpt>
      <trkpt lat="37.118182" lon="-5.464536">
        <ele>255.0</ele>
        <time>2022-09-26T13:53:51.907+02:00[Europe/Madrid]</time>
      </trkpt>
      <trkpt lat="37.118281" lon="-5.464606">
        <ele>256.0</ele>
        <time>2022-09-26T13:53:52.907+02:00[Europe/Madrid]</time>
      </trkpt>
      <trkpt lat="37.118371" lon="-5.464663">
        <ele>256.0</ele>
        <time>2022-09-26T13:53:53.907+02:00[Europe/Madrid]</time>
      </trkpt>
      <trkpt lat="37.118531" lon="-5.46474">
        <ele>257.0</ele>
        <time>2022-09-26T13:53:55.891+02:00[Europe/Madrid]</time>
      </trkpt>
      <trkpt lat="37.118675" lon="-5.464753">
        <ele>257.0</ele>
        <time>2022-09-26T13:53:57.896+02:00[Europe/Madrid]</time>
      </trkpt>
      <trkpt lat="37.118806" lon="-5.464739">
        <ele>257.0</ele>
        <time>2022-09-26T13:53:59.895+02:00[Europe/Madrid]</time>
      </trkpt>
      <trkpt lat="37.118945" lon="-5.464793">
        <ele>257.0</ele>
        <time>2022-09-26T13:54:01.883+02:00[Europe/Madrid]</time>
      </trkpt>
      <trkpt lat="37.11911" lon="-5.464864">
        <ele>258.0</ele>
        <time>2022-09-26T13:54:03.889+02:00[Europe/Madrid]</time>
      </trkpt>
      <trkpt lat="37.119201" lon="-5.464874">
        <ele>258.0</ele>
        <time>2022-09-26T13:54:04.889+02:00[Europe/Madrid]</time>
      </trkpt>
      <trkpt lat="37.119296" lon="-5.46487">
        <ele>258.0</ele>
        <time>2022-09-26T13:54:05.889+02:00[Europe/Madrid]</time>
      </trkpt>
      <trkpt lat="37.119391" lon="-5.464851">
        <ele>259.0</ele>
        <time>2022-09-26T13:54:06.892+02:00[Europe/Madrid]</time>
      </trkpt>
      <trkpt lat="37.119483" lon="-5.464834">
        <ele>259.0</ele>
        <time>2022-09-26T13:54:07.892+02:00[Europe/Madrid]</time>
      </trkpt>
      <trkpt lat="37.119578" lon="-5.464806">
        <ele>259.0</ele>
        <time>2022-09-26T13:54:08.892+02:00[Europe/Madrid]</time>
      </trkpt>
      <trkpt lat="37.119679" lon="-5.46477">
        <ele>259.0</ele>
        <time>2022-09-26T13:54:09.892+02:00[Europe/Madrid]</time>
      </trkpt>
      <trkpt lat="37.11978" lon="-5.464726">
        <ele>260.0</ele>
        <time>2022-09-26T13:54:10.892+02:00[Europe/Madrid]</time>
      </trkpt>
      <trkpt lat="37.119882" lon="-5.464673">
        <ele>260.0</ele>
        <time>2022-09-26T13:54:11.894+02:00[Europe/Madrid]</time>
      </trkpt>
      <trkpt lat="37.119978" lon="-5.464614">
        <ele>260.0</ele>
        <time>2022-09-26T13:54:12.894+02:00[Europe/Madrid]</time>
      </trkpt>
      <trkpt lat="37.120072" lon="-5.464542">
        <ele>260.0</ele>
        <time>2022-09-26T13:54:13.896+02:00[Europe/Madrid]</time>
      </trkpt>
      <trkpt lat="37.120169" lon="-5.464457">
        <ele>260.0</ele>
        <time>2022-09-26T13:54:14.896+02:00[Europe/Madrid]</time>
      </trkpt>
      <trkpt lat="37.120274" lon="-5.464353">
        <ele>260.0</ele>
        <time>2022-09-26T13:54:15.896+02:00[Europe/Madrid]</time>
      </trkpt>
      <trkpt lat="37.120384" lon="-5.464241">
        <ele>260.0</ele>
        <time>2022-09-26T13:54:16.896+02:00[Europe/Madrid]</time>
      </trkpt>
      <trkpt lat="37.120487" lon="-5.464137">
        <ele>261.0</ele>
        <time>2022-09-26T13:54:17.896+02:00[Europe/Madrid]</time>
      </trkpt>
      <trkpt lat="37.120582" lon="-5.46404">
        <ele>261.0</ele>
        <time>2022-09-26T13:54:18.896+02:00[Europe/Madrid]</time>
      </trkpt>
      <trkpt lat="37.120668" lon="-5.463946">
        <ele>261.0</ele>
        <time>2022-09-26T13:54:19.896+02:00[Europe/Madrid]</time>
      </trkpt>
      <trkpt lat="37.120753" lon="-5.46386">
        <ele>261.0</ele>
        <time>2022-09-26T13:54:20.896+02:00[Europe/Madrid]</time>
      </trkpt>
      <trkpt lat="37.120834" lon="-5.46378">
        <ele>261.0</ele>
        <time>2022-09-26T13:54:21.896+02:00[Europe/Madrid]</time>
      </trkpt>
      <trkpt lat="37.120907" lon="-5.463703">
        <ele>262.0</ele>
        <time>2022-09-26T13:54:22.896+02:00[Europe/Madrid]</time>
      </trkpt>
      <trkpt lat="37.121029" lon="-5.463557">
        <ele>262.0</ele>
        <time>2022-09-26T13:54:24.886+02:00[Europe/Madrid]</time>
      </trkpt>
      <trkpt lat="37.121131" lon="-5.463423">
        <ele>263.0</ele>
        <time>2022-09-26T13:54:26.887+02:00[Europe/Madrid]</time>
      </trkpt>
      <trkpt lat="37.121223" lon="-5.463292">
        <ele>264.0</ele>
        <time>2022-09-26T13:54:28.888+02:00[Europe/Madrid]</time>
      </trkpt>
      <trkpt lat="37.121364" lon="-5.463176">
        <ele>265.0</ele>
        <time>2022-09-26T13:54:30.882+02:00[Europe/Madrid]</time>
      </trkpt>
      <trkpt lat="37.121436" lon="-5.463108">
        <ele>265.0</ele>
        <time>2022-09-26T13:54:31.890+02:00[Europe/Madrid]</time>
      </trkpt>
      <trkpt lat="37.121566" lon="-5.462978">
        <ele>265.0</ele>
        <time>2022-09-26T13:54:33.890+02:00[Europe/Madrid]</time>
      </trkpt>
      <trkpt lat="37.121676" lon="-5.462869">
        <ele>265.0</ele>
        <time>2022-09-26T13:54:35.890+02:00[Europe/Madrid]</time>
      </trkpt>
      <trkpt lat="37.12179" lon="-5.462754">
        <ele>266.0</ele>
        <time>2022-09-26T13:54:37.896+02:00[Europe/Madrid]</time>
      </trkpt>
      <trkpt lat="37.1219" lon="-5.462643">
        <ele>266.0</ele>
        <time>2022-09-26T13:54:39.891+02:00[Europe/Madrid]</time>
      </trkpt>
      <trkpt lat="37.122011" lon="-5.462529">
        <ele>267.0</ele>
        <time>2022-09-26T13:54:41.900+02:00[Europe/Madrid]</time>
      </trkpt>
      <trkpt lat="37.122142" lon="-5.4624">
        <ele>267.0</ele>
        <time>2022-09-26T13:54:43.889+02:00[Europe/Madrid]</time>
      </trkpt>
      <trkpt lat="37.122277" lon="-5.462258">
        <ele>267.0</ele>
        <time>2022-09-26T13:54:45.890+02:00[Europe/Madrid]</time>
      </trkpt>
      <trkpt lat="37.122413" lon="-5.462111">
        <ele>267.0</ele>
        <time>2022-09-26T13:54:47.891+02:00[Europe/Madrid]</time>
      </trkpt>
      <trkpt lat="37.122543" lon="-5.461977">
        <ele>267.0</ele>
        <time>2022-09-26T13:54:49.888+02:00[Europe/Madrid]</time>
      </trkpt>
      <trkpt lat="37.122666" lon="-5.461852">
        <ele>267.0</ele>
        <time>2022-09-26T13:54:51.903+02:00[Europe/Madrid]</time>
      </trkpt>
      <trkpt lat="37.122798" lon="-5.461706">
        <ele>267.0</ele>
        <time>2022-09-26T13:54:53.895+02:00[Europe/Madrid]</time>
      </trkpt>
      <trkpt lat="37.122915" lon="-5.461585">
        <ele>266.0</ele>
        <time>2022-09-26T13:54:55.894+02:00[Europe/Madrid]</time>
      </trkpt>
      <trkpt lat="37.123025" lon="-5.461487">
        <ele>266.0</ele>
        <time>2022-09-26T13:54:57.891+02:00[Europe/Madrid]</time>
      </trkpt>
      <trkpt lat="37.123125" lon="-5.461379">
        <ele>266.0</ele>
        <time>2022-09-26T13:54:59.884+02:00[Europe/Madrid]</time>
      </trkpt>
      <trkpt lat="37.123247" lon="-5.461253">
        <ele>265.0</ele>
        <time>2022-09-26T13:55:01.897+02:00[Europe/Madrid]</time>
      </trkpt>
      <trkpt lat="37.123382" lon="-5.461104">
        <ele>265.0</ele>
        <time>2022-09-26T13:55:03.894+02:00[Europe/Madrid]</time>
      </trkpt>
      <trkpt lat="37.12345" lon="-5.461029">
        <ele>265.0</ele>
        <time>2022-09-26T13:55:04.895+02:00[Europe/Madrid]</time>
      </trkpt>
      <trkpt lat="37.123574" lon="-5.460893">
        <ele>265.0</ele>
        <time>2022-09-26T13:55:06.893+02:00[Europe/Madrid]</time>
      </trkpt>
      <trkpt lat="37.123701" lon="-5.460768">
        <ele>265.0</ele>
        <time>2022-09-26T13:55:08.894+02:00[Europe/Madrid]</time>
      </trkpt>
      <trkpt lat="37.123836" lon="-5.46067">
        <ele>265.0</ele>
        <time>2022-09-26T13:55:10.882+02:00[Europe/Madrid]</time>
      </trkpt>
      <trkpt lat="37.123963" lon="-5.460609">
        <ele>264.0</ele>
        <time>2022-09-26T13:55:12.891+02:00[Europe/Madrid]</time>
      </trkpt>
      <trkpt lat="37.124079" lon="-5.460558">
        <ele>264.0</ele>
        <time>2022-09-26T13:55:14.891+02:00[Europe/Madrid]</time>
      </trkpt>
      <trkpt lat="37.124209" lon="-5.460503">
        <ele>264.0</ele>
        <time>2022-09-26T13:55:16.890+02:00[Europe/Madrid]</time>
      </trkpt>
      <trkpt lat="37.124319" lon="-5.460415">
        <ele>264.0</ele>
        <time>2022-09-26T13:55:18.890+02:00[Europe/Madrid]</time>
      </trkpt>
      <trkpt lat="37.124387" lon="-5.460257">
        <ele>265.0</ele>
        <time>2022-09-26T13:55:20.899+02:00[Europe/Madrid]</time>
      </trkpt>
      <trkpt lat="37.124414" lon="-5.460102">
        <ele>265.0</ele>
        <time>2022-09-26T13:55:22.889+02:00[Europe/Madrid]</time>
      </trkpt>
      <trkpt lat="37.12434" lon="-5.460019">
        <ele>265.0</ele>
        <time>2022-09-26T13:55:26.891+02:00[Europe/Madrid]</time>
      </trkpt>
      <trkpt lat="37.124394" lon="-5.45992">
        <ele>267.0</ele>
        <time>2022-09-26T13:59:25.888+02:00[Europe/Madrid]</time>
      </trkpt>
      <trkpt lat="37.124483" lon="-5.459901">
        <ele>268.0</ele>
        <time>2022-09-26T13:59:37.896+02:00[Europe/Madrid]</time>
      </trkpt>
      <trkpt lat="37.124493" lon="-5.460032">
        <ele>266.0</ele>
        <time>2022-09-26T13:59:40.895+02:00[Europe/Madrid]</time>
      </trkpt>
      <trkpt lat="37.124462" lon="-5.46017">
        <ele>265.0</ele>
        <time>2022-09-26T13:59:43.890+02:00[Europe/Madrid]</time>
      </trkpt>
      <trkpt lat="37.124453" lon="-5.460303">
        <ele>264.0</ele>
        <time>2022-09-26T13:59:46.889+02:00[Europe/Madrid]</time>
      </trkpt>
      <trkpt lat="37.124516" lon="-5.460383">
        <ele>263.0</ele>
        <time>2022-09-26T13:59:49.895+02:00[Europe/Madrid]</time>
      </trkpt>
      <trkpt lat="37.124658" lon="-5.460447">
        <ele>262.0</ele>
        <time>2022-09-26T13:59:51.897+02:00[Europe/Madrid]</time>
      </trkpt>
      <trkpt lat="37.124749" lon="-5.460464">
        <ele>262.0</ele>
        <time>2022-09-26T13:59:52.897+02:00[Europe/Madrid]</time>
      </trkpt>
      <trkpt lat="37.124914" lon="-5.460477">
        <ele>262.0</ele>
        <time>2022-09-26T13:59:54.892+02:00[Europe/Madrid]</time>
      </trkpt>
      <trkpt lat="37.125064" lon="-5.460467">
        <ele>261.0</ele>
        <time>2022-09-26T13:59:56.889+02:00[Europe/Madrid]</time>
      </trkpt>
      <trkpt lat="37.125218" lon="-5.460447">
        <ele>260.0</ele>
        <time>2022-09-26T13:59:58.885+02:00[Europe/Madrid]</time>
      </trkpt>
      <trkpt lat="37.125381" lon="-5.460424">
        <ele>260.0</ele>
        <time>2022-09-26T14:00:00.893+02:00[Europe/Madrid]</time>
      </trkpt>
      <trkpt lat="37.125544" lon="-5.460408">
        <ele>259.0</ele>
        <time>2022-09-26T14:00:02.889+02:00[Europe/Madrid]</time>
      </trkpt>
      <trkpt lat="37.125714" lon="-5.46038">
        <ele>259.0</ele>
        <time>2022-09-26T14:00:04.891+02:00[Europe/Madrid]</time>
      </trkpt>
      <trkpt lat="37.125809" lon="-5.460363">
        <ele>258.0</ele>
        <time>2022-09-26T14:00:05.895+02:00[Europe/Madrid]</time>
      </trkpt>
      <trkpt lat="37.125919" lon="-5.460346">
        <ele>258.0</ele>
        <time>2022-09-26T14:00:06.897+02:00[Europe/Madrid]</time>
      </trkpt>
      <trkpt lat="37.126031" lon="-5.460329">
        <ele>257.0</ele>
        <time>2022-09-26T14:00:07.897+02:00[Europe/Madrid]</time>
      </trkpt>
      <trkpt lat="37.126136" lon="-5.460313">
        <ele>257.0</ele>
        <time>2022-09-26T14:00:08.897+02:00[Europe/Madrid]</time>
      </trkpt>
      <trkpt lat="37.126239" lon="-5.460298">
        <ele>257.0</ele>
        <time>2022-09-26T14:00:09.897+02:00[Europe/Madrid]</time>
      </trkpt>
      <trkpt lat="37.126337" lon="-5.460272">
        <ele>256.0</ele>
        <time>2022-09-26T14:00:10.901+02:00[Europe/Madrid]</time>
      </trkpt>
      <trkpt lat="37.12643" lon="-5.460234">
        <ele>256.0</ele>
        <time>2022-09-26T14:00:11.901+02:00[Europe/Madrid]</time>
      </trkpt>
      <trkpt lat="37.126527" lon="-5.460173">
        <ele>256.0</ele>
        <time>2022-09-26T14:00:12.901+02:00[Europe/Madrid]</time>
      </trkpt>
      <trkpt lat="37.126616" lon="-5.460083">
        <ele>255.0</ele>
        <time>2022-09-26T14:00:13.901+02:00[Europe/Madrid]</time>
      </trkpt>
      <trkpt lat="37.126698" lon="-5.459977">
        <ele>254.0</ele>
        <time>2022-09-26T14:00:14.901+02:00[Europe/Madrid]</time>
      </trkpt>
      <trkpt lat="37.126787" lon="-5.459852">
        <ele>254.0</ele>
        <time>2022-09-26T14:00:15.901+02:00[Europe/Madrid]</time>
      </trkpt>
      <trkpt lat="37.126877" lon="-5.459713">
        <ele>253.0</ele>
        <time>2022-09-26T14:00:16.901+02:00[Europe/Madrid]</time>
      </trkpt>
      <trkpt lat="37.126966" lon="-5.459572">
        <ele>253.0</ele>
        <time>2022-09-26T14:00:17.901+02:00[Europe/Madrid]</time>
      </trkpt>
      <trkpt lat="37.127048" lon="-5.459433">
        <ele>253.0</ele>
        <time>2022-09-26T14:00:18.901+02:00[Europe/Madrid]</time>
      </trkpt>
      <trkpt lat="37.12712" lon="-5.459296">
        <ele>253.0</ele>
        <time>2022-09-26T14:00:19.901+02:00[Europe/Madrid]</time>
      </trkpt>
      <trkpt lat="37.127185" lon="-5.459164">
        <ele>252.0</ele>
        <time>2022-09-26T14:00:20.901+02:00[Europe/Madrid]</time>
      </trkpt>
      <trkpt lat="37.127235" lon="-5.459026">
        <ele>252.0</ele>
        <time>2022-09-26T14:00:21.901+02:00[Europe/Madrid]</time>
      </trkpt>
      <trkpt lat="37.127282" lon="-5.458885">
        <ele>252.0</ele>
        <time>2022-09-26T14:00:22.901+02:00[Europe/Madrid]</time>
      </trkpt>
      <trkpt lat="37.127322" lon="-5.458744">
        <ele>252.0</ele>
        <time>2022-09-26T14:00:23.901+02:00[Europe/Madrid]</time>
      </trkpt>
      <trkpt lat="37.127357" lon="-5.458608">
        <ele>251.0</ele>
        <time>2022-09-26T14:00:24.901+02:00[Europe/Madrid]</time>
      </trkpt>
      <trkpt lat="37.127384" lon="-5.458487">
        <ele>251.0</ele>
        <time>2022-09-26T14:00:25.901+02:00[Europe/Madrid]</time>
      </trkpt>
      <trkpt lat="37.127405" lon="-5.458287">
        <ele>250.0</ele>
        <time>2022-09-26T14:00:27.889+02:00[Europe/Madrid]</time>
      </trkpt>
      <trkpt lat="37.127421" lon="-5.458093">
        <ele>249.0</ele>
        <time>2022-09-26T14:00:29.890+02:00[Europe/Madrid]</time>
      </trkpt>
      <trkpt lat="37.127514" lon="-5.457906">
        <ele>248.0</ele>
        <time>2022-09-26T14:00:31.888+02:00[Europe/Madrid]</time>
      </trkpt>
      <trkpt lat="37.127572" lon="-5.457793">
        <ele>247.0</ele>
        <time>2022-09-26T14:00:32.904+02:00[Europe/Madrid]</time>
      </trkpt>
      <trkpt lat="37.127624" lon="-5.457666">
        <ele>247.0</ele>
        <time>2022-09-26T14:00:33.904+02:00[Europe/Madrid]</time>
      </trkpt>
      <trkpt lat="37.127681" lon="-5.457537">
        <ele>247.0</ele>
        <time>2022-09-26T14:00:34.904+02:00[Europe/Madrid]</time>
      </trkpt>
      <trkpt lat="37.127747" lon="-5.457405">
        <ele>246.0</ele>
        <time>2022-09-26T14:00:35.904+02:00[Europe/Madrid]</time>
      </trkpt>
      <trkpt lat="37.127824" lon="-5.45727">
        <ele>245.0</ele>
        <time>2022-09-26T14:00:36.904+02:00[Europe/Madrid]</time>
      </trkpt>
      <trkpt lat="37.127901" lon="-5.457142">
        <ele>244.0</ele>
        <time>2022-09-26T14:00:37.904+02:00[Europe/Madrid]</time>
      </trkpt>
      <trkpt lat="37.127976" lon="-5.45702">
        <ele>243.0</ele>
        <time>2022-09-26T14:00:38.904+02:00[Europe/Madrid]</time>
      </trkpt>
      <trkpt lat="37.128047" lon="-5.456906">
        <ele>243.0</ele>
        <time>2022-09-26T14:00:39.904+02:00[Europe/Madrid]</time>
      </trkpt>
      <trkpt lat="37.128116" lon="-5.456794">
        <ele>242.0</ele>
        <time>2022-09-26T14:00:40.904+02:00[Europe/Madrid]</time>
      </trkpt>
      <trkpt lat="37.128186" lon="-5.456685">
        <ele>241.0</ele>
        <time>2022-09-26T14:00:41.904+02:00[Europe/Madrid]</time>
      </trkpt>
      <trkpt lat="37.128254" lon="-5.456581">
        <ele>241.0</ele>
        <time>2022-09-26T14:00:42.904+02:00[Europe/Madrid]</time>
      </trkpt>
      <trkpt lat="37.128322" lon="-5.456473">
        <ele>240.0</ele>
        <time>2022-09-26T14:00:43.904+02:00[Europe/Madrid]</time>
      </trkpt>
      <trkpt lat="37.128389" lon="-5.456371">
        <ele>240.0</ele>
        <time>2022-09-26T14:00:44.904+02:00[Europe/Madrid]</time>
      </trkpt>
      <trkpt lat="37.128452" lon="-5.456273">
        <ele>239.0</ele>
        <time>2022-09-26T14:00:45.904+02:00[Europe/Madrid]</time>
      </trkpt>
      <trkpt lat="37.128519" lon="-5.456162">
        <ele>238.0</ele>
        <time>2022-09-26T14:00:46.904+02:00[Europe/Madrid]</time>
      </trkpt>
      <trkpt lat="37.128591" lon="-5.456048">
        <ele>238.0</ele>
        <time>2022-09-26T14:00:47.904+02:00[Europe/Madrid]</time>
      </trkpt>
      <trkpt lat="37.128666" lon="-5.45593">
        <ele>237.0</ele>
        <time>2022-09-26T14:00:48.904+02:00[Europe/Madrid]</time>
      </trkpt>
      <trkpt lat="37.128737" lon="-5.455811">
        <ele>237.0</ele>
        <time>2022-09-26T14:00:49.904+02:00[Europe/Madrid]</time>
      </trkpt>
      <trkpt lat="37.128813" lon="-5.455693">
        <ele>237.0</ele>
        <time>2022-09-26T14:00:50.904+02:00[Europe/Madrid]</time>
      </trkpt>
      <trkpt lat="37.128882" lon="-5.455589">
        <ele>237.0</ele>
        <time>2022-09-26T14:00:51.904+02:00[Europe/Madrid]</time>
      </trkpt>
      <trkpt lat="37.128948" lon="-5.455487">
        <ele>237.0</ele>
        <time>2022-09-26T14:00:52.904+02:00[Europe/Madrid]</time>
      </trkpt>
      <trkpt lat="37.129007" lon="-5.455392">
        <ele>237.0</ele>
        <time>2022-09-26T14:00:53.904+02:00[Europe/Madrid]</time>
      </trkpt>
      <trkpt lat="37.129064" lon="-5.455301">
        <ele>237.0</ele>
        <time>2022-09-26T14:00:54.904+02:00[Europe/Madrid]</time>
      </trkpt>
      <trkpt lat="37.129158" lon="-5.455146">
        <ele>237.0</ele>
        <time>2022-09-26T14:00:56.895+02:00[Europe/Madrid]</time>
      </trkpt>
      <trkpt lat="37.129237" lon="-5.455019">
        <ele>237.0</ele>
        <time>2022-09-26T14:00:58.896+02:00[Europe/Madrid]</time>
      </trkpt>
      <trkpt lat="37.129303" lon="-5.454915">
        <ele>237.0</ele>
        <time>2022-09-26T14:01:00.887+02:00[Europe/Madrid]</time>
      </trkpt>
      <trkpt lat="37.129374" lon="-5.454808">
        <ele>237.0</ele>
        <time>2022-09-26T14:01:02.887+02:00[Europe/Madrid]</time>
      </trkpt>
      <trkpt lat="37.129435" lon="-5.454719">
        <ele>238.0</ele>
        <time>2022-09-26T14:01:04.894+02:00[Europe/Madrid]</time>
      </trkpt>
      <trkpt lat="37.129515" lon="-5.454601">
        <ele>238.0</ele>
        <time>2022-09-26T14:01:07.897+02:00[Europe/Madrid]</time>
      </trkpt>
      <trkpt lat="37.129572" lon="-5.454512">
        <ele>238.0</ele>
        <time>2022-09-26T14:01:10.887+02:00[Europe/Madrid]</time>
      </trkpt>
      <trkpt lat="37.129633" lon="-5.454425">
        <ele>238.0</ele>
        <time>2022-09-26T14:01:13.881+02:00[Europe/Madrid]</time>
      </trkpt>
      <trkpt lat="37.129707" lon="-5.454321">
        <ele>238.0</ele>
        <time>2022-09-26T14:01:16.889+02:00[Europe/Madrid]</time>
      </trkpt>
      <trkpt lat="37.129765" lon="-5.454225">
        <ele>237.0</ele>
        <time>2022-09-26T14:01:20.888+02:00[Europe/Madrid]</time>
      </trkpt>
      <trkpt lat="37.129825" lon="-5.454127">
        <ele>237.0</ele>
        <time>2022-09-26T14:01:23.888+02:00[Europe/Madrid]</time>
      </trkpt>
      <trkpt lat="37.129854" lon="-5.454007">
        <ele>237.0</ele>
        <time>2022-09-26T14:01:25.888+02:00[Europe/Madrid]</time>
      </trkpt>
      <trkpt lat="37.129854" lon="-5.453852">
        <ele>237.0</ele>
        <time>2022-09-26T14:01:27.881+02:00[Europe/Madrid]</time>
      </trkpt>
      <trkpt lat="37.129818" lon="-5.45366">
        <ele>237.0</ele>
        <time>2022-09-26T14:01:29.882+02:00[Europe/Madrid]</time>
      </trkpt>
      <trkpt lat="37.129777" lon="-5.453561">
        <ele>237.0</ele>
        <time>2022-09-26T14:01:30.994+02:00[Europe/Madrid]</time>
      </trkpt>
      <trkpt lat="37.129721" lon="-5.453449">
        <ele>237.0</ele>
        <time>2022-09-26T14:01:31.994+02:00[Europe/Madrid]</time>
      </trkpt>
      <trkpt lat="37.129658" lon="-5.453326">
        <ele>236.0</ele>
        <time>2022-09-26T14:01:32.994+02:00[Europe/Madrid]</time>
      </trkpt>
      <trkpt lat="37.129595" lon="-5.4532">
        <ele>236.0</ele>
        <time>2022-09-26T14:01:33.994+02:00[Europe/Madrid]</time>
      </trkpt>
      <trkpt lat="37.129535" lon="-5.45308">
        <ele>236.0</ele>
        <time>2022-09-26T14:01:34.994+02:00[Europe/Madrid]</time>
      </trkpt>
      <trkpt lat="37.129476" lon="-5.452964">
        <ele>236.0</ele>
        <time>2022-09-26T14:01:35.994+02:00[Europe/Madrid]</time>
      </trkpt>
      <trkpt lat="37.129417" lon="-5.452851">
        <ele>236.0</ele>
        <time>2022-09-26T14:01:36.994+02:00[Europe/Madrid]</time>
      </trkpt>
      <trkpt lat="37.129353" lon="-5.452737">
        <ele>237.0</ele>
        <time>2022-09-26T14:01:37.994+02:00[Europe/Madrid]</time>
      </trkpt>
      <trkpt lat="37.129289" lon="-5.452628">
        <ele>237.0</ele>
        <time>2022-09-26T14:01:38.994+02:00[Europe/Madrid]</time>
      </trkpt>
      <trkpt lat="37.129224" lon="-5.452515">
        <ele>237.0</ele>
        <time>2022-09-26T14:01:39.994+02:00[Europe/Madrid]</time>
      </trkpt>
      <trkpt lat="37.129151" lon="-5.4524">
        <ele>237.0</ele>
        <time>2022-09-26T14:01:40.994+02:00[Europe/Madrid]</time>
      </trkpt>
      <trkpt lat="37.129077" lon="-5.452286">
        <ele>237.0</ele>
        <time>2022-09-26T14:01:41.994+02:00[Europe/Madrid]</time>
      </trkpt>
      <trkpt lat="37.128997" lon="-5.452172">
        <ele>237.0</ele>
        <time>2022-09-26T14:01:42.994+02:00[Europe/Madrid]</time>
      </trkpt>
      <trkpt lat="37.128921" lon="-5.452065">
        <ele>237.0</ele>
        <time>2022-09-26T14:01:43.994+02:00[Europe/Madrid]</time>
      </trkpt>
      <trkpt lat="37.128836" lon="-5.451962">
        <ele>237.0</ele>
        <time>2022-09-26T14:01:44.994+02:00[Europe/Madrid]</time>
      </trkpt>
      <trkpt lat="37.128744" lon="-5.451867">
        <ele>238.0</ele>
        <time>2022-09-26T14:01:45.994+02:00[Europe/Madrid]</time>
      </trkpt>
      <trkpt lat="37.128648" lon="-5.45178">
        <ele>238.0</ele>
        <time>2022-09-26T14:01:46.994+02:00[Europe/Madrid]</time>
      </trkpt>
      <trkpt lat="37.128564" lon="-5.4517">
        <ele>238.0</ele>
        <time>2022-09-26T14:01:47.994+02:00[Europe/Madrid]</time>
      </trkpt>
      <trkpt lat="37.128485" lon="-5.451625">
        <ele>238.0</ele>
        <time>2022-09-26T14:01:48.994+02:00[Europe/Madrid]</time>
      </trkpt>
      <trkpt lat="37.128359" lon="-5.451513">
        <ele>239.0</ele>
        <time>2022-09-26T14:01:50.900+02:00[Europe/Madrid]</time>
      </trkpt>
      <trkpt lat="37.128266" lon="-5.451423">
        <ele>239.0</ele>
        <time>2022-09-26T14:01:52.883+02:00[Europe/Madrid]</time>
      </trkpt>
      <trkpt lat="37.128171" lon="-5.45133">
        <ele>240.0</ele>
        <time>2022-09-26T14:01:54.885+02:00[Europe/Madrid]</time>
      </trkpt>
      <trkpt lat="37.128055" lon="-5.45123">
        <ele>241.0</ele>
        <time>2022-09-26T14:01:56.884+02:00[Europe/Madrid]</time>
      </trkpt>
      <trkpt lat="37.127929" lon="-5.451108">
        <ele>241.0</ele>
        <time>2022-09-26T14:01:58.883+02:00[Europe/Madrid]</time>
      </trkpt>
      <trkpt lat="37.127811" lon="-5.451001">
        <ele>242.0</ele>
        <time>2022-09-26T14:02:00.893+02:00[Europe/Madrid]</time>
      </trkpt>
      <trkpt lat="37.127706" lon="-5.450899">
        <ele>242.0</ele>
        <time>2022-09-26T14:02:02.885+02:00[Europe/Madrid]</time>
      </trkpt>
      <trkpt lat="37.127612" lon="-5.450803">
        <ele>243.0</ele>
        <time>2022-09-26T14:02:05.881+02:00[Europe/Madrid]</time>
      </trkpt>
      <trkpt lat="37.127521" lon="-5.450719">
        <ele>243.0</ele>
        <time>2022-09-26T14:02:14.891+02:00[Europe/Madrid]</time>
      </trkpt>
      <trkpt lat="37.127405" lon="-5.45061">
        <ele>245.0</ele>
        <time>2022-09-26T14:02:22.892+02:00[Europe/Madrid]</time>
      </trkpt>
      <trkpt lat="37.127303" lon="-5.450492">
        <ele>245.0</ele>
        <time>2022-09-26T14:02:24.894+02:00[Europe/Madrid]</time>
      </trkpt>
      <trkpt lat="37.127171" lon="-5.450357">
        <ele>244.0</ele>
        <time>2022-09-26T14:02:26.888+02:00[Europe/Madrid]</time>
      </trkpt>
      <trkpt lat="37.127031" lon="-5.450228">
        <ele>246.0</ele>
        <time>2022-09-26T14:02:28.893+02:00[Europe/Madrid]</time>
      </trkpt>
      <trkpt lat="37.126897" lon="-5.450082">
        <ele>246.0</ele>
        <time>2022-09-26T14:02:30.891+02:00[Europe/Madrid]</time>
      </trkpt>
      <trkpt lat="37.12678" lon="-5.449955">
        <ele>245.0</ele>
        <time>2022-09-26T14:02:32.891+02:00[Europe/Madrid]</time>
      </trkpt>
      <trkpt lat="37.126686" lon="-5.449844">
        <ele>246.0</ele>
        <time>2022-09-26T14:02:34.888+02:00[Europe/Madrid]</time>
      </trkpt>
      <trkpt lat="37.126607" lon="-5.449741">
        <ele>246.0</ele>
        <time>2022-09-26T14:02:36.897+02:00[Europe/Madrid]</time>
      </trkpt>
      <trkpt lat="37.12653" lon="-5.449658">
        <ele>246.0</ele>
        <time>2022-09-26T14:02:38.891+02:00[Europe/Madrid]</time>
      </trkpt>
      <trkpt lat="37.126442" lon="-5.44959">
        <ele>246.0</ele>
        <time>2022-09-26T14:02:40.892+02:00[Europe/Madrid]</time>
      </trkpt>
      <trkpt lat="37.126367" lon="-5.449519">
        <ele>246.0</ele>
        <time>2022-09-26T14:02:42.891+02:00[Europe/Madrid]</time>
      </trkpt>
      <trkpt lat="37.126336" lon="-5.449373">
        <ele>245.0</ele>
        <time>2022-09-26T14:02:45.889+02:00[Europe/Madrid]</time>
      </trkpt>
      <trkpt lat="37.126314" lon="-5.449238">
        <ele>246.0</ele>
        <time>2022-09-26T14:02:48.896+02:00[Europe/Madrid]</time>
      </trkpt>
      <trkpt lat="37.126263" lon="-5.449131">
        <ele>247.0</ele>
        <time>2022-09-26T14:02:50.886+02:00[Europe/Madrid]</time>
      </trkpt>
      <trkpt lat="37.126211" lon="-5.449011">
        <ele>248.0</ele>
        <time>2022-09-26T14:02:52.903+02:00[Europe/Madrid]</time>
      </trkpt>
      <trkpt lat="37.126155" lon="-5.448897">
        <ele>248.0</ele>
        <time>2022-09-26T14:02:54.879+02:00[Europe/Madrid]</time>
      </trkpt>
      <trkpt lat="37.126102" lon="-5.448776">
        <ele>248.0</ele>
        <time>2022-09-26T14:02:56.883+02:00[Europe/Madrid]</time>
      </trkpt>
      <trkpt lat="37.126039" lon="-5.448639">
        <ele>249.0</ele>
        <time>2022-09-26T14:02:58.884+02:00[Europe/Madrid]</time>
      </trkpt>
      <trkpt lat="37.125971" lon="-5.448486">
        <ele>250.0</ele>
        <time>2022-09-26T14:03:00.884+02:00[Europe/Madrid]</time>
      </trkpt>
      <trkpt lat="37.125901" lon="-5.44833">
        <ele>250.0</ele>
        <time>2022-09-26T14:03:02.888+02:00[Europe/Madrid]</time>
      </trkpt>
      <trkpt lat="37.125833" lon="-5.448197">
        <ele>251.0</ele>
        <time>2022-09-26T14:03:04.882+02:00[Europe/Madrid]</time>
      </trkpt>
      <trkpt lat="37.125769" lon="-5.448118">
        <ele>252.0</ele>
        <time>2022-09-26T14:03:12.888+02:00[Europe/Madrid]</time>
      </trkpt>
      <trkpt lat="37.1257" lon="-5.448003">
        <ele>252.0</ele>
        <time>2022-09-26T14:03:15.892+02:00[Europe/Madrid]</time>
      </trkpt>
      <trkpt lat="37.125686" lon="-5.447889">
        <ele>253.0</ele>
        <time>2022-09-26T14:03:17.892+02:00[Europe/Madrid]</time>
      </trkpt>
      <trkpt lat="37.125749" lon="-5.447775">
        <ele>253.0</ele>
        <time>2022-09-26T14:03:19.885+02:00[Europe/Madrid]</time>
      </trkpt>
      <trkpt lat="37.125844" lon="-5.44765">
        <ele>252.0</ele>
        <time>2022-09-26T14:03:21.887+02:00[Europe/Madrid]</time>
      </trkpt>
      <trkpt lat="37.125899" lon="-5.447438">
        <ele>251.0</ele>
        <time>2022-09-26T14:03:23.892+02:00[Europe/Madrid]</time>
      </trkpt>
      <trkpt lat="37.125921" lon="-5.447314">
        <ele>250.0</ele>
        <time>2022-09-26T14:03:24.892+02:00[Europe/Madrid]</time>
      </trkpt>
      <trkpt lat="37.125951" lon="-5.447187">
        <ele>249.0</ele>
        <time>2022-09-26T14:03:25.892+02:00[Europe/Madrid]</time>
      </trkpt>
      <trkpt lat="37.125989" lon="-5.447054">
        <ele>249.0</ele>
        <time>2022-09-26T14:03:26.892+02:00[Europe/Madrid]</time>
      </trkpt>
      <trkpt lat="37.126033" lon="-5.446919">
        <ele>249.0</ele>
        <time>2022-09-26T14:03:27.918+02:00[Europe/Madrid]</time>
      </trkpt>
      <trkpt lat="37.12608" lon="-5.446784">
        <ele>249.0</ele>
        <time>2022-09-26T14:03:28.918+02:00[Europe/Madrid]</time>
      </trkpt>
      <trkpt lat="37.126127" lon="-5.446646">
        <ele>248.0</ele>
        <time>2022-09-26T14:03:29.918+02:00[Europe/Madrid]</time>
      </trkpt>
      <trkpt lat="37.126175" lon="-5.446509">
        <ele>248.0</ele>
        <time>2022-09-26T14:03:30.918+02:00[Europe/Madrid]</time>
      </trkpt>
      <trkpt lat="37.126226" lon="-5.446369">
        <ele>248.0</ele>
        <time>2022-09-26T14:03:31.918+02:00[Europe/Madrid]</time>
      </trkpt>
      <trkpt lat="37.126272" lon="-5.446226">
        <ele>248.0</ele>
        <time>2022-09-26T14:03:32.918+02:00[Europe/Madrid]</time>
      </trkpt>
      <trkpt lat="37.126317" lon="-5.446093">
        <ele>248.0</ele>
        <time>2022-09-26T14:03:33.918+02:00[Europe/Madrid]</time>
      </trkpt>
      <trkpt lat="37.126362" lon="-5.445961">
        <ele>248.0</ele>
        <time>2022-09-26T14:03:34.918+02:00[Europe/Madrid]</time>
      </trkpt>
      <trkpt lat="37.126405" lon="-5.445825">
        <ele>248.0</ele>
        <time>2022-09-26T14:03:35.918+02:00[Europe/Madrid]</time>
      </trkpt>
      <trkpt lat="37.126454" lon="-5.44569">
        <ele>249.0</ele>
        <time>2022-09-26T14:03:36.918+02:00[Europe/Madrid]</time>
      </trkpt>
      <trkpt lat="37.126504" lon="-5.445551">
        <ele>249.0</ele>
        <time>2022-09-26T14:03:37.918+02:00[Europe/Madrid]</time>
      </trkpt>
      <trkpt lat="37.126554" lon="-5.445409">
        <ele>249.0</ele>
        <time>2022-09-26T14:03:38.918+02:00[Europe/Madrid]</time>
      </trkpt>
      <trkpt lat="37.126602" lon="-5.445266">
        <ele>250.0</ele>
        <time>2022-09-26T14:03:39.918+02:00[Europe/Madrid]</time>
      </trkpt>
      <trkpt lat="37.12665" lon="-5.445117">
        <ele>250.0</ele>
        <time>2022-09-26T14:03:40.918+02:00[Europe/Madrid]</time>
      </trkpt>
      <trkpt lat="37.126697" lon="-5.444971">
        <ele>251.0</ele>
        <time>2022-09-26T14:03:41.918+02:00[Europe/Madrid]</time>
      </trkpt>
      <trkpt lat="37.126744" lon="-5.444826">
        <ele>251.0</ele>
        <time>2022-09-26T14:03:42.918+02:00[Europe/Madrid]</time>
      </trkpt>
      <trkpt lat="37.126796" lon="-5.444684">
        <ele>252.0</ele>
        <time>2022-09-26T14:03:43.918+02:00[Europe/Madrid]</time>
      </trkpt>
      <trkpt lat="37.126846" lon="-5.444545">
        <ele>252.0</ele>
        <time>2022-09-26T14:03:44.918+02:00[Europe/Madrid]</time>
      </trkpt>
      <trkpt lat="37.126894" lon="-5.444403">
        <ele>252.0</ele>
        <time>2022-09-26T14:03:45.918+02:00[Europe/Madrid]</time>
      </trkpt>
      <trkpt lat="37.12694" lon="-5.444264">
        <ele>253.0</ele>
        <time>2022-09-26T14:03:46.918+02:00[Europe/Madrid]</time>
      </trkpt>
      <trkpt lat="37.126985" lon="-5.444134">
        <ele>253.0</ele>
        <time>2022-09-26T14:03:47.918+02:00[Europe/Madrid]</time>
      </trkpt>
      <trkpt lat="37.127024" lon="-5.444021">
        <ele>254.0</ele>
        <time>2022-09-26T14:03:48.918+02:00[Europe/Madrid]</time>
      </trkpt>
      <trkpt lat="37.127064" lon="-5.44391">
        <ele>254.0</ele>
        <time>2022-09-26T14:03:49.918+02:00[Europe/Madrid]</time>
      </trkpt>
      <trkpt lat="37.127102" lon="-5.443796">
        <ele>254.0</ele>
        <time>2022-09-26T14:03:50.918+02:00[Europe/Madrid]</time>
      </trkpt>
      <trkpt lat="37.127145" lon="-5.443682">
        <ele>254.0</ele>
        <time>2022-09-26T14:03:51.918+02:00[Europe/Madrid]</time>
      </trkpt>
      <trkpt lat="37.127184" lon="-5.443572">
        <ele>255.0</ele>
        <time>2022-09-26T14:03:52.918+02:00[Europe/Madrid]</time>
      </trkpt>
      <trkpt lat="37.127221" lon="-5.443467">
        <ele>255.0</ele>
        <time>2022-09-26T14:03:53.918+02:00[Europe/Madrid]</time>
      </trkpt>
      <trkpt lat="37.127289" lon="-5.443282">
        <ele>256.0</ele>
        <time>2022-09-26T14:03:55.892+02:00[Europe/Madrid]</time>
      </trkpt>
      <trkpt lat="37.127358" lon="-5.443108">
        <ele>256.0</ele>
        <time>2022-09-26T14:03:57.891+02:00[Europe/Madrid]</time>
      </trkpt>
      <trkpt lat="37.127435" lon="-5.442951">
        <ele>257.0</ele>
        <time>2022-09-26T14:03:59.887+02:00[Europe/Madrid]</time>
      </trkpt>
      <trkpt lat="37.127517" lon="-5.4428">
        <ele>258.0</ele>
        <time>2022-09-26T14:04:01.882+02:00[Europe/Madrid]</time>
      </trkpt>
      <trkpt lat="37.127582" lon="-5.442687">
        <ele>257.0</ele>
        <time>2022-09-26T14:04:03.887+02:00[Europe/Madrid]</time>
      </trkpt>
      <trkpt lat="37.127637" lon="-5.442584">
        <ele>257.0</ele>
        <time>2022-09-26T14:04:05.888+02:00[Europe/Madrid]</time>
      </trkpt>
      <trkpt lat="37.127689" lon="-5.442443">
        <ele>258.0</ele>
        <time>2022-09-26T14:04:07.910+02:00[Europe/Madrid]</time>
      </trkpt>
      <trkpt lat="37.127767" lon="-5.442277">
        <ele>258.0</ele>
        <time>2022-09-26T14:04:09.894+02:00[Europe/Madrid]</time>
      </trkpt>
      <trkpt lat="37.127837" lon="-5.442199">
        <ele>258.0</ele>
        <time>2022-09-26T14:04:10.894+02:00[Europe/Madrid]</time>
      </trkpt>
      <trkpt lat="37.127912" lon="-5.442114">
        <ele>259.0</ele>
        <time>2022-09-26T14:04:11.894+02:00[Europe/Madrid]</time>
      </trkpt>
      <trkpt lat="37.127992" lon="-5.442">
        <ele>259.0</ele>
        <time>2022-09-26T14:04:12.894+02:00[Europe/Madrid]</time>
      </trkpt>
      <trkpt lat="37.128064" lon="-5.441883">
        <ele>260.0</ele>
        <time>2022-09-26T14:04:13.894+02:00[Europe/Madrid]</time>
      </trkpt>
      <trkpt lat="37.128136" lon="-5.441756">
        <ele>260.0</ele>
        <time>2022-09-26T14:04:14.894+02:00[Europe/Madrid]</time>
      </trkpt>
      <trkpt lat="37.128215" lon="-5.441625">
        <ele>260.0</ele>
        <time>2022-09-26T14:04:15.894+02:00[Europe/Madrid]</time>
      </trkpt>
      <trkpt lat="37.128294" lon="-5.441488">
        <ele>260.0</ele>
        <time>2022-09-26T14:04:16.894+02:00[Europe/Madrid]</time>
      </trkpt>
      <trkpt lat="37.128375" lon="-5.441358">
        <ele>260.0</ele>
        <time>2022-09-26T14:04:17.894+02:00[Europe/Madrid]</time>
      </trkpt>
      <trkpt lat="37.12845" lon="-5.441243">
        <ele>260.0</ele>
        <time>2022-09-26T14:04:18.895+02:00[Europe/Madrid]</time>
      </trkpt>
      <trkpt lat="37.128519" lon="-5.441137">
        <ele>261.0</ele>
        <time>2022-09-26T14:04:19.896+02:00[Europe/Madrid]</time>
      </trkpt>
      <trkpt lat="37.128584" lon="-5.441043">
        <ele>262.0</ele>
        <time>2022-09-26T14:04:20.896+02:00[Europe/Madrid]</time>
      </trkpt>
      <trkpt lat="37.128646" lon="-5.440953">
        <ele>262.0</ele>
        <time>2022-09-26T14:04:21.896+02:00[Europe/Madrid]</time>
      </trkpt>
      <trkpt lat="37.128713" lon="-5.440858">
        <ele>262.0</ele>
        <time>2022-09-26T14:04:22.896+02:00[Europe/Madrid]</time>
      </trkpt>
      <trkpt lat="37.128777" lon="-5.440772">
        <ele>262.0</ele>
        <time>2022-09-26T14:04:23.896+02:00[Europe/Madrid]</time>
      </trkpt>
      <trkpt lat="37.128841" lon="-5.440683">
        <ele>262.0</ele>
        <time>2022-09-26T14:04:24.896+02:00[Europe/Madrid]</time>
      </trkpt>
      <trkpt lat="37.128904" lon="-5.440592">
        <ele>262.0</ele>
        <time>2022-09-26T14:04:25.898+02:00[Europe/Madrid]</time>
      </trkpt>
      <trkpt lat="37.12897" lon="-5.440502">
        <ele>262.0</ele>
        <time>2022-09-26T14:04:26.898+02:00[Europe/Madrid]</time>
      </trkpt>
      <trkpt lat="37.129038" lon="-5.440413">
        <ele>263.0</ele>
        <time>2022-09-26T14:04:27.898+02:00[Europe/Madrid]</time>
      </trkpt>
      <trkpt lat="37.129108" lon="-5.440318">
        <ele>263.0</ele>
        <time>2022-09-26T14:04:28.898+02:00[Europe/Madrid]</time>
      </trkpt>
      <trkpt lat="37.129184" lon="-5.440222">
        <ele>263.0</ele>
        <time>2022-09-26T14:04:29.898+02:00[Europe/Madrid]</time>
      </trkpt>
      <trkpt lat="37.129271" lon="-5.440113">
        <ele>264.0</ele>
        <time>2022-09-26T14:04:30.898+02:00[Europe/Madrid]</time>
      </trkpt>
      <trkpt lat="37.129367" lon="-5.439996">
        <ele>264.0</ele>
        <time>2022-09-26T14:04:31.898+02:00[Europe/Madrid]</time>
      </trkpt>
      <trkpt lat="37.129464" lon="-5.439876">
        <ele>264.0</ele>
        <time>2022-09-26T14:04:32.898+02:00[Europe/Madrid]</time>
      </trkpt>
      <trkpt lat="37.129558" lon="-5.439757">
        <ele>265.0</ele>
        <time>2022-09-26T14:04:33.898+02:00[Europe/Madrid]</time>
      </trkpt>
      <trkpt lat="37.129647" lon="-5.439647">
        <ele>265.0</ele>
        <time>2022-09-26T14:04:34.898+02:00[Europe/Madrid]</time>
      </trkpt>
      <trkpt lat="37.129733" lon="-5.439541">
        <ele>266.0</ele>
        <time>2022-09-26T14:04:35.898+02:00[Europe/Madrid]</time>
      </trkpt>
      <trkpt lat="37.12981" lon="-5.439447">
        <ele>266.0</ele>
        <time>2022-09-26T14:04:36.898+02:00[Europe/Madrid]</time>
      </trkpt>
      <trkpt lat="37.129891" lon="-5.439342">
        <ele>266.0</ele>
        <time>2022-09-26T14:04:37.898+02:00[Europe/Madrid]</time>
      </trkpt>
      <trkpt lat="37.129967" lon="-5.439244">
        <ele>267.0</ele>
        <time>2022-09-26T14:04:38.898+02:00[Europe/Madrid]</time>
      </trkpt>
      <trkpt lat="37.130045" lon="-5.439141">
        <ele>268.0</ele>
        <time>2022-09-26T14:04:39.898+02:00[Europe/Madrid]</time>
      </trkpt>
      <trkpt lat="37.130121" lon="-5.43904">
        <ele>268.0</ele>
        <time>2022-09-26T14:04:40.898+02:00[Europe/Madrid]</time>
      </trkpt>
      <trkpt lat="37.130199" lon="-5.438935">
        <ele>269.0</ele>
        <time>2022-09-26T14:04:41.898+02:00[Europe/Madrid]</time>
      </trkpt>
      <trkpt lat="37.130272" lon="-5.438837">
        <ele>269.0</ele>
        <time>2022-09-26T14:04:42.898+02:00[Europe/Madrid]</time>
      </trkpt>
      <trkpt lat="37.130341" lon="-5.438752">
        <ele>270.0</ele>
        <time>2022-09-26T14:04:43.898+02:00[Europe/Madrid]</time>
      </trkpt>
      <trkpt lat="37.130409" lon="-5.438661">
        <ele>270.0</ele>
        <time>2022-09-26T14:04:44.898+02:00[Europe/Madrid]</time>
      </trkpt>
      <trkpt lat="37.130476" lon="-5.438578">
        <ele>271.0</ele>
        <time>2022-09-26T14:04:45.898+02:00[Europe/Madrid]</time>
      </trkpt>
      <trkpt lat="37.13054" lon="-5.438494">
        <ele>272.0</ele>
        <time>2022-09-26T14:04:46.898+02:00[Europe/Madrid]</time>
      </trkpt>
      <trkpt lat="37.130665" lon="-5.438345">
        <ele>273.0</ele>
        <time>2022-09-26T14:04:48.885+02:00[Europe/Madrid]</time>
      </trkpt>
      <trkpt lat="37.130795" lon="-5.438208">
        <ele>274.0</ele>
        <time>2022-09-26T14:04:50.887+02:00[Europe/Madrid]</time>
      </trkpt>
      <trkpt lat="37.130937" lon="-5.438071">
        <ele>275.0</ele>
        <time>2022-09-26T14:04:52.892+02:00[Europe/Madrid]</time>
      </trkpt>
      <trkpt lat="37.131012" lon="-5.437999">
        <ele>275.0</ele>
        <time>2022-09-26T14:04:53.892+02:00[Europe/Madrid]</time>
      </trkpt>
      <trkpt lat="37.131091" lon="-5.43793">
        <ele>276.0</ele>
        <time>2022-09-26T14:04:54.892+02:00[Europe/Madrid]</time>
      </trkpt>
      <trkpt lat="37.131168" lon="-5.437863">
        <ele>276.0</ele>
        <time>2022-09-26T14:04:55.892+02:00[Europe/Madrid]</time>
      </trkpt>
      <trkpt lat="37.131246" lon="-5.4378">
        <ele>276.0</ele>
        <time>2022-09-26T14:04:56.892+02:00[Europe/Madrid]</time>
      </trkpt>
      <trkpt lat="37.131326" lon="-5.437738">
        <ele>277.0</ele>
        <time>2022-09-26T14:04:57.905+02:00[Europe/Madrid]</time>
      </trkpt>
      <trkpt lat="37.131401" lon="-5.437672">
        <ele>277.0</ele>
        <time>2022-09-26T14:04:58.905+02:00[Europe/Madrid]</time>
      </trkpt>
      <trkpt lat="37.131479" lon="-5.437609">
        <ele>277.0</ele>
        <time>2022-09-26T14:04:59.905+02:00[Europe/Madrid]</time>
      </trkpt>
      <trkpt lat="37.13156" lon="-5.437547">
        <ele>278.0</ele>
        <time>2022-09-26T14:05:00.905+02:00[Europe/Madrid]</time>
      </trkpt>
      <trkpt lat="37.131644" lon="-5.437491">
        <ele>279.0</ele>
        <time>2022-09-26T14:05:01.905+02:00[Europe/Madrid]</time>
      </trkpt>
      <trkpt lat="37.131733" lon="-5.43744">
        <ele>279.0</ele>
        <time>2022-09-26T14:05:02.905+02:00[Europe/Madrid]</time>
      </trkpt>
      <trkpt lat="37.131824" lon="-5.4374">
        <ele>279.0</ele>
        <time>2022-09-26T14:05:03.905+02:00[Europe/Madrid]</time>
      </trkpt>
      <trkpt lat="37.131918" lon="-5.437373">
        <ele>279.0</ele>
        <time>2022-09-26T14:05:04.905+02:00[Europe/Madrid]</time>
      </trkpt>
      <trkpt lat="37.132013" lon="-5.437352">
        <ele>279.0</ele>
        <time>2022-09-26T14:05:05.905+02:00[Europe/Madrid]</time>
      </trkpt>
      <trkpt lat="37.132114" lon="-5.437336">
        <ele>279.0</ele>
        <time>2022-09-26T14:05:06.905+02:00[Europe/Madrid]</time>
      </trkpt>
      <trkpt lat="37.13222" lon="-5.437321">
        <ele>279.0</ele>
        <time>2022-09-26T14:05:07.905+02:00[Europe/Madrid]</time>
      </trkpt>
      <trkpt lat="37.132332" lon="-5.437305">
        <ele>279.0</ele>
        <time>2022-09-26T14:05:08.905+02:00[Europe/Madrid]</time>
      </trkpt>
      <trkpt lat="37.132448" lon="-5.437286">
        <ele>279.0</ele>
        <time>2022-09-26T14:05:09.905+02:00[Europe/Madrid]</time>
      </trkpt>
      <trkpt lat="37.13256" lon="-5.43727">
        <ele>279.0</ele>
        <time>2022-09-26T14:05:10.905+02:00[Europe/Madrid]</time>
      </trkpt>
      <trkpt lat="37.132672" lon="-5.437254">
        <ele>279.0</ele>
        <time>2022-09-26T14:05:11.905+02:00[Europe/Madrid]</time>
      </trkpt>
      <trkpt lat="37.132784" lon="-5.437243">
        <ele>279.0</ele>
        <time>2022-09-26T14:05:12.905+02:00[Europe/Madrid]</time>
      </trkpt>
      <trkpt lat="37.132898" lon="-5.437228">
        <ele>279.0</ele>
        <time>2022-09-26T14:05:13.905+02:00[Europe/Madrid]</time>
      </trkpt>
      <trkpt lat="37.133012" lon="-5.437214">
        <ele>280.0</ele>
        <time>2022-09-26T14:05:14.905+02:00[Europe/Madrid]</time>
      </trkpt>
      <trkpt lat="37.133129" lon="-5.437196">
        <ele>280.0</ele>
        <time>2022-09-26T14:05:15.905+02:00[Europe/Madrid]</time>
      </trkpt>
      <trkpt lat="37.133245" lon="-5.437163">
        <ele>280.0</ele>
        <time>2022-09-26T14:05:16.905+02:00[Europe/Madrid]</time>
      </trkpt>
      <trkpt lat="37.133363" lon="-5.437127">
        <ele>280.0</ele>
        <time>2022-09-26T14:05:17.905+02:00[Europe/Madrid]</time>
      </trkpt>
      <trkpt lat="37.13348" lon="-5.437072">
        <ele>279.0</ele>
        <time>2022-09-26T14:05:18.905+02:00[Europe/Madrid]</time>
      </trkpt>
      <trkpt lat="37.133601" lon="-5.436992">
        <ele>279.0</ele>
        <time>2022-09-26T14:05:19.905+02:00[Europe/Madrid]</time>
      </trkpt>
      <trkpt lat="37.133723" lon="-5.436896">
        <ele>278.0</ele>
        <time>2022-09-26T14:05:20.905+02:00[Europe/Madrid]</time>
      </trkpt>
      <trkpt lat="37.13385" lon="-5.436791">
        <ele>279.0</ele>
        <time>2022-09-26T14:05:21.905+02:00[Europe/Madrid]</time>
      </trkpt>
      <trkpt lat="37.133997" lon="-5.436675">
        <ele>278.0</ele>
        <time>2022-09-26T14:05:22.905+02:00[Europe/Madrid]</time>
      </trkpt>
      <trkpt lat="37.134166" lon="-5.436546">
        <ele>278.0</ele>
        <time>2022-09-26T14:05:23.905+02:00[Europe/Madrid]</time>
      </trkpt>
      <trkpt lat="37.134354" lon="-5.436398">
        <ele>278.0</ele>
        <time>2022-09-26T14:05:24.905+02:00[Europe/Madrid]</time>
      </trkpt>
      <trkpt lat="37.134557" lon="-5.436236">
        <ele>278.0</ele>
        <time>2022-09-26T14:05:25.905+02:00[Europe/Madrid]</time>
      </trkpt>
      <trkpt lat="37.134772" lon="-5.436063">
        <ele>278.0</ele>
        <time>2022-09-26T14:05:26.905+02:00[Europe/Madrid]</time>
      </trkpt>
      <trkpt lat="37.135002" lon="-5.435886">
        <ele>278.0</ele>
        <time>2022-09-26T14:05:27.905+02:00[Europe/Madrid]</time>
      </trkpt>
      <trkpt lat="37.135238" lon="-5.435703">
        <ele>278.0</ele>
        <time>2022-09-26T14:05:28.905+02:00[Europe/Madrid]</time>
      </trkpt>
      <trkpt lat="37.135459" lon="-5.435524">
        <ele>279.0</ele>
        <time>2022-09-26T14:05:29.905+02:00[Europe/Madrid]</time>
      </trkpt>
      <trkpt lat="37.135669" lon="-5.43536">
        <ele>279.0</ele>
        <time>2022-09-26T14:05:30.905+02:00[Europe/Madrid]</time>
      </trkpt>
      <trkpt lat="37.135869" lon="-5.435212">
        <ele>280.0</ele>
        <time>2022-09-26T14:05:31.905+02:00[Europe/Madrid]</time>
      </trkpt>
      <trkpt lat="37.136061" lon="-5.435074">
        <ele>280.0</ele>
        <time>2022-09-26T14:05:32.905+02:00[Europe/Madrid]</time>
      </trkpt>
      <trkpt lat="37.13624" lon="-5.434942">
        <ele>281.0</ele>
        <time>2022-09-26T14:05:33.905+02:00[Europe/Madrid]</time>
      </trkpt>
      <trkpt lat="37.136408" lon="-5.434814">
        <ele>282.0</ele>
        <time>2022-09-26T14:05:34.905+02:00[Europe/Madrid]</time>
      </trkpt>
      <trkpt lat="37.136564" lon="-5.43469">
        <ele>282.0</ele>
        <time>2022-09-26T14:05:35.905+02:00[Europe/Madrid]</time>
      </trkpt>
      <trkpt lat="37.136705" lon="-5.434561">
        <ele>283.0</ele>
        <time>2022-09-26T14:05:36.905+02:00[Europe/Madrid]</time>
      </trkpt>
      <trkpt lat="37.136819" lon="-5.434414">
        <ele>284.0</ele>
        <time>2022-09-26T14:05:37.905+02:00[Europe/Madrid]</time>
      </trkpt>
      <trkpt lat="37.136905" lon="-5.434251">
        <ele>285.0</ele>
        <time>2022-09-26T14:05:38.905+02:00[Europe/Madrid]</time>
      </trkpt>
      <trkpt lat="37.13696" lon="-5.434083">
        <ele>286.0</ele>
        <time>2022-09-26T14:05:39.905+02:00[Europe/Madrid]</time>
      </trkpt>
      <trkpt lat="37.136999" lon="-5.433887">
        <ele>287.0</ele>
        <time>2022-09-26T14:05:40.905+02:00[Europe/Madrid]</time>
      </trkpt>
      <trkpt lat="37.137027" lon="-5.433673">
        <ele>288.0</ele>
        <time>2022-09-26T14:05:41.905+02:00[Europe/Madrid]</time>
      </trkpt>
      <trkpt lat="37.13706" lon="-5.433452">
        <ele>289.0</ele>
        <time>2022-09-26T14:05:42.905+02:00[Europe/Madrid]</time>
      </trkpt>
      <trkpt lat="37.137097" lon="-5.433242">
        <ele>290.0</ele>
        <time>2022-09-26T14:05:43.905+02:00[Europe/Madrid]</time>
      </trkpt>
      <trkpt lat="37.137133" lon="-5.433035">
        <ele>292.0</ele>
        <time>2022-09-26T14:05:44.905+02:00[Europe/Madrid]</time>
      </trkpt>
      <trkpt lat="37.137177" lon="-5.43284">
        <ele>293.0</ele>
        <time>2022-09-26T14:05:45.905+02:00[Europe/Madrid]</time>
      </trkpt>
      <trkpt lat="37.137231" lon="-5.432665">
        <ele>294.0</ele>
        <time>2022-09-26T14:05:46.905+02:00[Europe/Madrid]</time>
      </trkpt>
      <trkpt lat="37.137302" lon="-5.432507">
        <ele>295.0</ele>
        <time>2022-09-26T14:05:47.905+02:00[Europe/Madrid]</time>
      </trkpt>
      <trkpt lat="37.137392" lon="-5.43236">
        <ele>295.0</ele>
        <time>2022-09-26T14:05:48.998+02:00[Europe/Madrid]</time>
      </trkpt>
      <trkpt lat="37.137504" lon="-5.432231">
        <ele>296.0</ele>
        <time>2022-09-26T14:05:49.998+02:00[Europe/Madrid]</time>
      </trkpt>
      <trkpt lat="37.137633" lon="-5.432099">
        <ele>297.0</ele>
        <time>2022-09-26T14:05:50.998+02:00[Europe/Madrid]</time>
      </trkpt>
      <trkpt lat="37.137775" lon="-5.431964">
        <ele>298.0</ele>
        <time>2022-09-26T14:05:51.998+02:00[Europe/Madrid]</time>
      </trkpt>
      <trkpt lat="37.137919" lon="-5.431814">
        <ele>298.0</ele>
        <time>2022-09-26T14:05:52.998+02:00[Europe/Madrid]</time>
      </trkpt>
      <trkpt lat="37.138054" lon="-5.431676">
        <ele>299.0</ele>
        <time>2022-09-26T14:05:53.998+02:00[Europe/Madrid]</time>
      </trkpt>
      <trkpt lat="37.138187" lon="-5.431545">
        <ele>299.0</ele>
        <time>2022-09-26T14:05:54.998+02:00[Europe/Madrid]</time>
      </trkpt>
      <trkpt lat="37.138332" lon="-5.431428">
        <ele>299.0</ele>
        <time>2022-09-26T14:05:55.998+02:00[Europe/Madrid]</time>
      </trkpt>
      <trkpt lat="37.138491" lon="-5.43133">
        <ele>299.0</ele>
        <time>2022-09-26T14:05:56.998+02:00[Europe/Madrid]</time>
      </trkpt>
      <trkpt lat="37.138669" lon="-5.431247">
        <ele>298.0</ele>
        <time>2022-09-26T14:05:57.998+02:00[Europe/Madrid]</time>
      </trkpt>
      <trkpt lat="37.138862" lon="-5.43116">
        <ele>297.0</ele>
        <time>2022-09-26T14:05:58.998+02:00[Europe/Madrid]</time>
      </trkpt>
      <trkpt lat="37.13907" lon="-5.431065">
        <ele>296.0</ele>
        <time>2022-09-26T14:05:59.998+02:00[Europe/Madrid]</time>
      </trkpt>
      <trkpt lat="37.139283" lon="-5.430966">
        <ele>295.0</ele>
        <time>2022-09-26T14:06:00.998+02:00[Europe/Madrid]</time>
      </trkpt>
      <trkpt lat="37.139504" lon="-5.430867">
        <ele>294.0</ele>
        <time>2022-09-26T14:06:01.998+02:00[Europe/Madrid]</time>
      </trkpt>
      <trkpt lat="37.139731" lon="-5.430765">
        <ele>293.0</ele>
        <time>2022-09-26T14:06:02.998+02:00[Europe/Madrid]</time>
      </trkpt>
      <trkpt lat="37.139965" lon="-5.430662">
        <ele>292.0</ele>
        <time>2022-09-26T14:06:03.998+02:00[Europe/Madrid]</time>
      </trkpt>
      <trkpt lat="37.140199" lon="-5.430556">
        <ele>291.0</ele>
        <time>2022-09-26T14:06:04.998+02:00[Europe/Madrid]</time>
      </trkpt>
      <trkpt lat="37.140433" lon="-5.430449">
        <ele>290.0</ele>
        <time>2022-09-26T14:06:05.998+02:00[Europe/Madrid]</time>
      </trkpt>
      <trkpt lat="37.140653" lon="-5.430352">
        <ele>289.0</ele>
        <time>2022-09-26T14:06:06.998+02:00[Europe/Madrid]</time>
      </trkpt>
      <trkpt lat="37.140868" lon="-5.430256">
        <ele>288.0</ele>
        <time>2022-09-26T14:06:07.998+02:00[Europe/Madrid]</time>
      </trkpt>
      <trkpt lat="37.141077" lon="-5.430161">
        <ele>287.0</ele>
        <time>2022-09-26T14:06:08.998+02:00[Europe/Madrid]</time>
      </trkpt>
      <trkpt lat="37.141288" lon="-5.430064">
        <ele>286.0</ele>
        <time>2022-09-26T14:06:09.998+02:00[Europe/Madrid]</time>
      </trkpt>
      <trkpt lat="37.141496" lon="-5.429971">
        <ele>285.0</ele>
        <time>2022-09-26T14:06:10.998+02:00[Europe/Madrid]</time>
      </trkpt>
      <trkpt lat="37.141702" lon="-5.42988">
        <ele>284.0</ele>
        <time>2022-09-26T14:06:11.998+02:00[Europe/Madrid]</time>
      </trkpt>
      <trkpt lat="37.141902" lon="-5.429796">
        <ele>283.0</ele>
        <time>2022-09-26T14:06:12.998+02:00[Europe/Madrid]</time>
      </trkpt>
      <trkpt lat="37.142093" lon="-5.429718">
        <ele>283.0</ele>
        <time>2022-09-26T14:06:13.998+02:00[Europe/Madrid]</time>
      </trkpt>
      <trkpt lat="37.142285" lon="-5.429652">
        <ele>282.0</ele>
        <time>2022-09-26T14:06:14.998+02:00[Europe/Madrid]</time>
      </trkpt>
      <trkpt lat="37.142482" lon="-5.429611">
        <ele>281.0</ele>
        <time>2022-09-26T14:06:15.998+02:00[Europe/Madrid]</time>
      </trkpt>
      <trkpt lat="37.14269" lon="-5.429595">
        <ele>281.0</ele>
        <time>2022-09-26T14:06:16.998+02:00[Europe/Madrid]</time>
      </trkpt>
      <trkpt lat="37.1429" lon="-5.429595">
        <ele>281.0</ele>
        <time>2022-09-26T14:06:17.998+02:00[Europe/Madrid]</time>
      </trkpt>
      <trkpt lat="37.143118" lon="-5.429599">
        <ele>281.0</ele>
        <time>2022-09-26T14:06:18.998+02:00[Europe/Madrid]</time>
      </trkpt>
      <trkpt lat="37.143337" lon="-5.429604">
        <ele>281.0</ele>
        <time>2022-09-26T14:06:19.998+02:00[Europe/Madrid]</time>
      </trkpt>
      <trkpt lat="37.14355" lon="-5.429606">
        <ele>280.0</ele>
        <time>2022-09-26T14:06:20.998+02:00[Europe/Madrid]</time>
      </trkpt>
      <trkpt lat="37.143751" lon="-5.42961">
        <ele>280.0</ele>
        <time>2022-09-26T14:06:21.998+02:00[Europe/Madrid]</time>
      </trkpt>
      <trkpt lat="37.143953" lon="-5.429615">
        <ele>280.0</ele>
        <time>2022-09-26T14:06:22.998+02:00[Europe/Madrid]</time>
      </trkpt>
      <trkpt lat="37.144149" lon="-5.429616">
        <ele>280.0</ele>
        <time>2022-09-26T14:06:23.998+02:00[Europe/Madrid]</time>
      </trkpt>
      <trkpt lat="37.144341" lon="-5.429603">
        <ele>280.0</ele>
        <time>2022-09-26T14:06:24.998+02:00[Europe/Madrid]</time>
      </trkpt>
      <trkpt lat="37.144523" lon="-5.429576">
        <ele>279.0</ele>
        <time>2022-09-26T14:06:25.998+02:00[Europe/Madrid]</time>
      </trkpt>
      <trkpt lat="37.144694" lon="-5.429528">
        <ele>278.0</ele>
        <time>2022-09-26T14:06:26.998+02:00[Europe/Madrid]</time>
      </trkpt>
      <trkpt lat="37.144869" lon="-5.429452">
        <ele>277.0</ele>
        <time>2022-09-26T14:06:27.998+02:00[Europe/Madrid]</time>
      </trkpt>
      <trkpt lat="37.145051" lon="-5.42935">
        <ele>276.0</ele>
        <time>2022-09-26T14:06:28.998+02:00[Europe/Madrid]</time>
      </trkpt>
      <trkpt lat="37.145238" lon="-5.429234">
        <ele>275.0</ele>
        <time>2022-09-26T14:06:29.998+02:00[Europe/Madrid]</time>
      </trkpt>
      <trkpt lat="37.145439" lon="-5.429117">
        <ele>274.0</ele>
        <time>2022-09-26T14:06:30.998+02:00[Europe/Madrid]</time>
      </trkpt>
      <trkpt lat="37.145649" lon="-5.428996">
        <ele>273.0</ele>
        <time>2022-09-26T14:06:31.998+02:00[Europe/Madrid]</time>
      </trkpt>
      <trkpt lat="37.145867" lon="-5.428866">
        <ele>272.0</ele>
        <time>2022-09-26T14:06:32.998+02:00[Europe/Madrid]</time>
      </trkpt>
      <trkpt lat="37.146078" lon="-5.428744">
        <ele>272.0</ele>
        <time>2022-09-26T14:06:33.998+02:00[Europe/Madrid]</time>
      </trkpt>
      <trkpt lat="37.146281" lon="-5.428626">
        <ele>271.0</ele>
        <time>2022-09-26T14:06:34.998+02:00[Europe/Madrid]</time>
      </trkpt>
      <trkpt lat="37.146475" lon="-5.428511">
        <ele>271.0</ele>
        <time>2022-09-26T14:06:35.998+02:00[Europe/Madrid]</time>
      </trkpt>
      <trkpt lat="37.146654" lon="-5.428416">
        <ele>270.0</ele>
        <time>2022-09-26T14:06:36.998+02:00[Europe/Madrid]</time>
      </trkpt>
      <trkpt lat="37.146827" lon="-5.428339">
        <ele>269.0</ele>
        <time>2022-09-26T14:06:37.998+02:00[Europe/Madrid]</time>
      </trkpt>
      <trkpt lat="37.147" lon="-5.428279">
        <ele>269.0</ele>
        <time>2022-09-26T14:06:38.998+02:00[Europe/Madrid]</time>
      </trkpt>
      <trkpt lat="37.147176" lon="-5.428235">
        <ele>268.0</ele>
        <time>2022-09-26T14:06:39.998+02:00[Europe/Madrid]</time>
      </trkpt>
      <trkpt lat="37.147354" lon="-5.428207">
        <ele>267.0</ele>
        <time>2022-09-26T14:06:40.998+02:00[Europe/Madrid]</time>
      </trkpt>
      <trkpt lat="37.147523" lon="-5.428171">
        <ele>266.0</ele>
        <time>2022-09-26T14:06:41.998+02:00[Europe/Madrid]</time>
      </trkpt>
      <trkpt lat="37.147685" lon="-5.428122">
        <ele>266.0</ele>
        <time>2022-09-26T14:06:42.998+02:00[Europe/Madrid]</time>
      </trkpt>
      <trkpt lat="37.147847" lon="-5.428043">
        <ele>264.0</ele>
        <time>2022-09-26T14:06:43.998+02:00[Europe/Madrid]</time>
      </trkpt>
      <trkpt lat="37.148001" lon="-5.427939">
        <ele>263.0</ele>
        <time>2022-09-26T14:06:44.998+02:00[Europe/Madrid]</time>
      </trkpt>
      <trkpt lat="37.14815" lon="-5.427811">
        <ele>261.0</ele>
        <time>2022-09-26T14:06:45.998+02:00[Europe/Madrid]</time>
      </trkpt>
      <trkpt lat="37.148291" lon="-5.427673">
        <ele>259.0</ele>
        <time>2022-09-26T14:06:46.998+02:00[Europe/Madrid]</time>
      </trkpt>
      <trkpt lat="37.148413" lon="-5.427527">
        <ele>258.0</ele>
        <time>2022-09-26T14:06:47.998+02:00[Europe/Madrid]</time>
      </trkpt>
      <trkpt lat="37.148515" lon="-5.427365">
        <ele>257.0</ele>
        <time>2022-09-26T14:06:48.998+02:00[Europe/Madrid]</time>
      </trkpt>
      <trkpt lat="37.148592" lon="-5.427189">
        <ele>256.0</ele>
        <time>2022-09-26T14:06:49.998+02:00[Europe/Madrid]</time>
      </trkpt>
      <trkpt lat="37.14865" lon="-5.426999">
        <ele>255.0</ele>
        <time>2022-09-26T14:06:50.998+02:00[Europe/Madrid]</time>
      </trkpt>
      <trkpt lat="37.14869" lon="-5.426789">
        <ele>255.0</ele>
        <time>2022-09-26T14:06:51.998+02:00[Europe/Madrid]</time>
      </trkpt>
      <trkpt lat="37.148724" lon="-5.426562">
        <ele>255.0</ele>
        <time>2022-09-26T14:06:52.998+02:00[Europe/Madrid]</time>
      </trkpt>
      <trkpt lat="37.148764" lon="-5.426319">
        <ele>253.0</ele>
        <time>2022-09-26T14:06:53.998+02:00[Europe/Madrid]</time>
      </trkpt>
      <trkpt lat="37.148804" lon="-5.426076">
        <ele>252.0</ele>
        <time>2022-09-26T14:06:54.998+02:00[Europe/Madrid]</time>
      </trkpt>
      <trkpt lat="37.148842" lon="-5.425839">
        <ele>251.0</ele>
        <time>2022-09-26T14:06:55.998+02:00[Europe/Madrid]</time>
      </trkpt>
      <trkpt lat="37.148886" lon="-5.425611">
        <ele>250.0</ele>
        <time>2022-09-26T14:06:56.998+02:00[Europe/Madrid]</time>
      </trkpt>
      <trkpt lat="37.148934" lon="-5.42539">
        <ele>249.0</ele>
        <time>2022-09-26T14:06:57.998+02:00[Europe/Madrid]</time>
      </trkpt>
      <trkpt lat="37.148991" lon="-5.425177">
        <ele>248.0</ele>
        <time>2022-09-26T14:06:58.998+02:00[Europe/Madrid]</time>
      </trkpt>
      <trkpt lat="37.149061" lon="-5.424978">
        <ele>247.0</ele>
        <time>2022-09-26T14:06:59.998+02:00[Europe/Madrid]</time>
      </trkpt>
      <trkpt lat="37.149149" lon="-5.424785">
        <ele>246.0</ele>
        <time>2022-09-26T14:07:00.998+02:00[Europe/Madrid]</time>
      </trkpt>
      <trkpt lat="37.149252" lon="-5.424594">
        <ele>246.0</ele>
        <time>2022-09-26T14:07:01.998+02:00[Europe/Madrid]</time>
      </trkpt>
      <trkpt lat="37.149363" lon="-5.424388">
        <ele>244.0</ele>
        <time>2022-09-26T14:07:02.998+02:00[Europe/Madrid]</time>
      </trkpt>
      <trkpt lat="37.149479" lon="-5.424175">
        <ele>243.0</ele>
        <time>2022-09-26T14:07:03.998+02:00[Europe/Madrid]</time>
      </trkpt>
      <trkpt lat="37.149597" lon="-5.423961">
        <ele>242.0</ele>
        <time>2022-09-26T14:07:04.998+02:00[Europe/Madrid]</time>
      </trkpt>
      <trkpt lat="37.149709" lon="-5.423751">
        <ele>241.0</ele>
        <time>2022-09-26T14:07:05.998+02:00[Europe/Madrid]</time>
      </trkpt>
      <trkpt lat="37.14982" lon="-5.423548">
        <ele>240.0</ele>
        <time>2022-09-26T14:07:06.998+02:00[Europe/Madrid]</time>
      </trkpt>
      <trkpt lat="37.149929" lon="-5.423352">
        <ele>239.0</ele>
        <time>2022-09-26T14:07:07.998+02:00[Europe/Madrid]</time>
      </trkpt>
      <trkpt lat="37.150043" lon="-5.423169">
        <ele>238.0</ele>
        <time>2022-09-26T14:07:08.998+02:00[Europe/Madrid]</time>
      </trkpt>
      <trkpt lat="37.150167" lon="-5.422998">
        <ele>237.0</ele>
        <time>2022-09-26T14:07:09.998+02:00[Europe/Madrid]</time>
      </trkpt>
      <trkpt lat="37.150308" lon="-5.422836">
        <ele>236.0</ele>
        <time>2022-09-26T14:07:10.998+02:00[Europe/Madrid]</time>
      </trkpt>
      <trkpt lat="37.150463" lon="-5.422675">
        <ele>235.0</ele>
        <time>2022-09-26T14:07:11.998+02:00[Europe/Madrid]</time>
      </trkpt>
      <trkpt lat="37.15063" lon="-5.422514">
        <ele>235.0</ele>
        <time>2022-09-26T14:07:12.998+02:00[Europe/Madrid]</time>
      </trkpt>
      <trkpt lat="37.150804" lon="-5.42235">
        <ele>235.0</ele>
        <time>2022-09-26T14:07:13.998+02:00[Europe/Madrid]</time>
      </trkpt>
      <trkpt lat="37.150974" lon="-5.422194">
        <ele>235.0</ele>
        <time>2022-09-26T14:07:14.998+02:00[Europe/Madrid]</time>
      </trkpt>
      <trkpt lat="37.151138" lon="-5.422047">
        <ele>235.0</ele>
        <time>2022-09-26T14:07:15.998+02:00[Europe/Madrid]</time>
      </trkpt>
      <trkpt lat="37.151298" lon="-5.421909">
        <ele>234.0</ele>
        <time>2022-09-26T14:07:16.998+02:00[Europe/Madrid]</time>
      </trkpt>
      <trkpt lat="37.151464" lon="-5.421784">
        <ele>234.0</ele>
        <time>2022-09-26T14:07:17.998+02:00[Europe/Madrid]</time>
      </trkpt>
      <trkpt lat="37.151643" lon="-5.421675">
        <ele>234.0</ele>
        <time>2022-09-26T14:07:18.998+02:00[Europe/Madrid]</time>
      </trkpt>
      <trkpt lat="37.151835" lon="-5.421574">
        <ele>234.0</ele>
        <time>2022-09-26T14:07:19.998+02:00[Europe/Madrid]</time>
      </trkpt>
      <trkpt lat="37.152036" lon="-5.421475">
        <ele>234.0</ele>
        <time>2022-09-26T14:07:20.998+02:00[Europe/Madrid]</time>
      </trkpt>
      <trkpt lat="37.15224" lon="-5.421372">
        <ele>234.0</ele>
        <time>2022-09-26T14:07:21.998+02:00[Europe/Madrid]</time>
      </trkpt>
      <trkpt lat="37.152439" lon="-5.421272">
        <ele>233.0</ele>
        <time>2022-09-26T14:07:22.998+02:00[Europe/Madrid]</time>
      </trkpt>
      <trkpt lat="37.152631" lon="-5.421177">
        <ele>233.0</ele>
        <time>2022-09-26T14:07:23.998+02:00[Europe/Madrid]</time>
      </trkpt>
      <trkpt lat="37.152815" lon="-5.42108">
        <ele>233.0</ele>
        <time>2022-09-26T14:07:24.998+02:00[Europe/Madrid]</time>
      </trkpt>
      <trkpt lat="37.152994" lon="-5.420969">
        <ele>233.0</ele>
        <time>2022-09-26T14:07:25.998+02:00[Europe/Madrid]</time>
      </trkpt>
      <trkpt lat="37.153161" lon="-5.420847">
        <ele>232.0</ele>
        <time>2022-09-26T14:07:26.998+02:00[Europe/Madrid]</time>
      </trkpt>
      <trkpt lat="37.153316" lon="-5.420713">
        <ele>232.0</ele>
        <time>2022-09-26T14:07:27.998+02:00[Europe/Madrid]</time>
      </trkpt>
      <trkpt lat="37.153455" lon="-5.420563">
        <ele>232.0</ele>
        <time>2022-09-26T14:07:28.998+02:00[Europe/Madrid]</time>
      </trkpt>
      <trkpt lat="37.15358" lon="-5.420392">
        <ele>232.0</ele>
        <time>2022-09-26T14:07:29.998+02:00[Europe/Madrid]</time>
      </trkpt>
      <trkpt lat="37.15369" lon="-5.420199">
        <ele>232.0</ele>
        <time>2022-09-26T14:07:30.998+02:00[Europe/Madrid]</time>
      </trkpt>
      <trkpt lat="37.153797" lon="-5.419977">
        <ele>232.0</ele>
        <time>2022-09-26T14:07:31.998+02:00[Europe/Madrid]</time>
      </trkpt>
      <trkpt lat="37.153903" lon="-5.41974">
        <ele>232.0</ele>
        <time>2022-09-26T14:07:32.998+02:00[Europe/Madrid]</time>
      </trkpt>
      <trkpt lat="37.154012" lon="-5.419492">
        <ele>232.0</ele>
        <time>2022-09-26T14:07:33.998+02:00[Europe/Madrid]</time>
      </trkpt>
      <trkpt lat="37.154126" lon="-5.419234">
        <ele>232.0</ele>
        <time>2022-09-26T14:07:34.998+02:00[Europe/Madrid]</time>
      </trkpt>
      <trkpt lat="37.15424" lon="-5.418972">
        <ele>232.0</ele>
        <time>2022-09-26T14:07:35.998+02:00[Europe/Madrid]</time>
      </trkpt>
      <trkpt lat="37.154353" lon="-5.418701">
        <ele>233.0</ele>
        <time>2022-09-26T14:07:36.998+02:00[Europe/Madrid]</time>
      </trkpt>
      <trkpt lat="37.154467" lon="-5.418432">
        <ele>233.0</ele>
        <time>2022-09-26T14:07:37.998+02:00[Europe/Madrid]</time>
      </trkpt>
      <trkpt lat="37.154582" lon="-5.418163">
        <ele>234.0</ele>
        <time>2022-09-26T14:07:38.998+02:00[Europe/Madrid]</time>
      </trkpt>
      <trkpt lat="37.154704" lon="-5.417893">
        <ele>235.0</ele>
        <time>2022-09-26T14:07:39.998+02:00[Europe/Madrid]</time>
      </trkpt>
      <trkpt lat="37.154827" lon="-5.417624">
        <ele>235.0</ele>
        <time>2022-09-26T14:07:40.998+02:00[Europe/Madrid]</time>
      </trkpt>
      <trkpt lat="37.154953" lon="-5.41735">
        <ele>236.0</ele>
        <time>2022-09-26T14:07:41.998+02:00[Europe/Madrid]</time>
      </trkpt>
      <trkpt lat="37.155084" lon="-5.417077">
        <ele>237.0</ele>
        <time>2022-09-26T14:07:42.998+02:00[Europe/Madrid]</time>
      </trkpt>
      <trkpt lat="37.155221" lon="-5.416802">
        <ele>237.0</ele>
        <time>2022-09-26T14:07:43.998+02:00[Europe/Madrid]</time>
      </trkpt>
      <trkpt lat="37.155349" lon="-5.416533">
        <ele>238.0</ele>
        <time>2022-09-26T14:07:44.998+02:00[Europe/Madrid]</time>
      </trkpt>
      <trkpt lat="37.155473" lon="-5.416277">
        <ele>238.0</ele>
        <time>2022-09-26T14:07:45.998+02:00[Europe/Madrid]</time>
      </trkpt>
      <trkpt lat="37.155596" lon="-5.416024">
        <ele>239.0</ele>
        <time>2022-09-26T14:07:46.998+02:00[Europe/Madrid]</time>
      </trkpt>
      <trkpt lat="37.155721" lon="-5.415773">
        <ele>240.0</ele>
        <time>2022-09-26T14:07:47.998+02:00[Europe/Madrid]</time>
      </trkpt>
      <trkpt lat="37.155848" lon="-5.415534">
        <ele>240.0</ele>
        <time>2022-09-26T14:07:48.998+02:00[Europe/Madrid]</time>
      </trkpt>
      <trkpt lat="37.155978" lon="-5.415314">
        <ele>240.0</ele>
        <time>2022-09-26T14:07:49.998+02:00[Europe/Madrid]</time>
      </trkpt>
      <trkpt lat="37.156121" lon="-5.415103">
        <ele>241.0</ele>
        <time>2022-09-26T14:07:50.998+02:00[Europe/Madrid]</time>
      </trkpt>
      <trkpt lat="37.156281" lon="-5.414898">
        <ele>241.0</ele>
        <time>2022-09-26T14:07:51.998+02:00[Europe/Madrid]</time>
      </trkpt>
      <trkpt lat="37.156457" lon="-5.414687">
        <ele>242.0</ele>
        <time>2022-09-26T14:07:52.998+02:00[Europe/Madrid]</time>
      </trkpt>
      <trkpt lat="37.156644" lon="-5.414472">
        <ele>243.0</ele>
        <time>2022-09-26T14:07:53.998+02:00[Europe/Madrid]</time>
      </trkpt>
      <trkpt lat="37.156824" lon="-5.414266">
        <ele>243.0</ele>
        <time>2022-09-26T14:07:54.998+02:00[Europe/Madrid]</time>
      </trkpt>
      <trkpt lat="37.156993" lon="-5.414074">
        <ele>243.0</ele>
        <time>2022-09-26T14:07:55.998+02:00[Europe/Madrid]</time>
      </trkpt>
      <trkpt lat="37.157152" lon="-5.41389">
        <ele>244.0</ele>
        <time>2022-09-26T14:07:56.998+02:00[Europe/Madrid]</time>
      </trkpt>
      <trkpt lat="37.157313" lon="-5.413717">
        <ele>244.0</ele>
        <time>2022-09-26T14:07:57.998+02:00[Europe/Madrid]</time>
      </trkpt>
      <trkpt lat="37.157483" lon="-5.413552">
        <ele>245.0</ele>
        <time>2022-09-26T14:07:58.998+02:00[Europe/Madrid]</time>
      </trkpt>
      <trkpt lat="37.157668" lon="-5.413394">
        <ele>245.0</ele>
        <time>2022-09-26T14:07:59.998+02:00[Europe/Madrid]</time>
      </trkpt>
      <trkpt lat="37.157866" lon="-5.413249">
        <ele>245.0</ele>
        <time>2022-09-26T14:08:00.998+02:00[Europe/Madrid]</time>
      </trkpt>
      <trkpt lat="37.158075" lon="-5.413106">
        <ele>245.0</ele>
        <time>2022-09-26T14:08:01.998+02:00[Europe/Madrid]</time>
      </trkpt>
      <trkpt lat="37.158295" lon="-5.412959">
        <ele>245.0</ele>
        <time>2022-09-26T14:08:02.998+02:00[Europe/Madrid]</time>
      </trkpt>
      <trkpt lat="37.158523" lon="-5.412806">
        <ele>245.0</ele>
        <time>2022-09-26T14:08:03.998+02:00[Europe/Madrid]</time>
      </trkpt>
      <trkpt lat="37.158742" lon="-5.41266">
        <ele>245.0</ele>
        <time>2022-09-26T14:08:04.998+02:00[Europe/Madrid]</time>
      </trkpt>
      <trkpt lat="37.158957" lon="-5.41251">
        <ele>245.0</ele>
        <time>2022-09-26T14:08:05.998+02:00[Europe/Madrid]</time>
      </trkpt>
      <trkpt lat="37.159169" lon="-5.412347">
        <ele>246.0</ele>
        <time>2022-09-26T14:08:06.998+02:00[Europe/Madrid]</time>
      </trkpt>
      <trkpt lat="37.15938" lon="-5.412167">
        <ele>246.0</ele>
        <time>2022-09-26T14:08:07.998+02:00[Europe/Madrid]</time>
      </trkpt>
      <trkpt lat="37.159588" lon="-5.411962">
        <ele>246.0</ele>
        <time>2022-09-26T14:08:08.998+02:00[Europe/Madrid]</time>
      </trkpt>
      <trkpt lat="37.159796" lon="-5.411747">
        <ele>246.0</ele>
        <time>2022-09-26T14:08:09.998+02:00[Europe/Madrid]</time>
      </trkpt>
      <trkpt lat="37.159992" lon="-5.411551">
        <ele>246.0</ele>
        <time>2022-09-26T14:08:10.998+02:00[Europe/Madrid]</time>
      </trkpt>
      <trkpt lat="37.160183" lon="-5.411356">
        <ele>247.0</ele>
        <time>2022-09-26T14:08:11.998+02:00[Europe/Madrid]</time>
      </trkpt>
      <trkpt lat="37.16037" lon="-5.411163">
        <ele>247.0</ele>
        <time>2022-09-26T14:08:12.998+02:00[Europe/Madrid]</time>
      </trkpt>
      <trkpt lat="37.160556" lon="-5.410971">
        <ele>247.0</ele>
        <time>2022-09-26T14:08:13.998+02:00[Europe/Madrid]</time>
      </trkpt>
      <trkpt lat="37.160744" lon="-5.410778">
        <ele>247.0</ele>
        <time>2022-09-26T14:08:14.998+02:00[Europe/Madrid]</time>
      </trkpt>
      <trkpt lat="37.160924" lon="-5.410584">
        <ele>247.0</ele>
        <time>2022-09-26T14:08:15.998+02:00[Europe/Madrid]</time>
      </trkpt>
      <trkpt lat="37.161099" lon="-5.410398">
        <ele>248.0</ele>
        <time>2022-09-26T14:08:16.998+02:00[Europe/Madrid]</time>
      </trkpt>
      <trkpt lat="37.161268" lon="-5.41022">
        <ele>248.0</ele>
        <time>2022-09-26T14:08:17.998+02:00[Europe/Madrid]</time>
      </trkpt>
      <trkpt lat="37.16143" lon="-5.410051">
        <ele>248.0</ele>
        <time>2022-09-26T14:08:18.998+02:00[Europe/Madrid]</time>
      </trkpt>
      <trkpt lat="37.161591" lon="-5.409894">
        <ele>248.0</ele>
        <time>2022-09-26T14:08:19.998+02:00[Europe/Madrid]</time>
      </trkpt>
      <trkpt lat="37.161748" lon="-5.409734">
        <ele>248.0</ele>
        <time>2022-09-26T14:08:20.998+02:00[Europe/Madrid]</time>
      </trkpt>
      <trkpt lat="37.161907" lon="-5.409575">
        <ele>248.0</ele>
        <time>2022-09-26T14:08:21.998+02:00[Europe/Madrid]</time>
      </trkpt>
      <trkpt lat="37.16206" lon="-5.409425">
        <ele>249.0</ele>
        <time>2022-09-26T14:08:22.998+02:00[Europe/Madrid]</time>
      </trkpt>
      <trkpt lat="37.162216" lon="-5.409282">
        <ele>249.0</ele>
        <time>2022-09-26T14:08:23.998+02:00[Europe/Madrid]</time>
      </trkpt>
      <trkpt lat="37.162373" lon="-5.409137">
        <ele>248.0</ele>
        <time>2022-09-26T14:08:24.998+02:00[Europe/Madrid]</time>
      </trkpt>
      <trkpt lat="37.162533" lon="-5.40899">
        <ele>248.0</ele>
        <time>2022-09-26T14:08:25.998+02:00[Europe/Madrid]</time>
      </trkpt>
      <trkpt lat="37.162694" lon="-5.408842">
        <ele>248.0</ele>
        <time>2022-09-26T14:08:26.998+02:00[Europe/Madrid]</time>
      </trkpt>
      <trkpt lat="37.162857" lon="-5.408692">
        <ele>248.0</ele>
        <time>2022-09-26T14:08:27.998+02:00[Europe/Madrid]</time>
      </trkpt>
      <trkpt lat="37.163024" lon="-5.408543">
        <ele>248.0</ele>
        <time>2022-09-26T14:08:28.998+02:00[Europe/Madrid]</time>
      </trkpt>
      <trkpt lat="37.163192" lon="-5.408386">
        <ele>248.0</ele>
        <time>2022-09-26T14:08:29.998+02:00[Europe/Madrid]</time>
      </trkpt>
      <trkpt lat="37.163359" lon="-5.408226">
        <ele>248.0</ele>
        <time>2022-09-26T14:08:30.998+02:00[Europe/Madrid]</time>
      </trkpt>
      <trkpt lat="37.16353" lon="-5.408066">
        <ele>248.0</ele>
        <time>2022-09-26T14:08:31.998+02:00[Europe/Madrid]</time>
      </trkpt>
      <trkpt lat="37.163701" lon="-5.407901">
        <ele>248.0</ele>
        <time>2022-09-26T14:08:32.998+02:00[Europe/Madrid]</time>
      </trkpt>
      <trkpt lat="37.163874" lon="-5.407733">
        <ele>248.0</ele>
        <time>2022-09-26T14:08:33.998+02:00[Europe/Madrid]</time>
      </trkpt>
      <trkpt lat="37.164049" lon="-5.407568">
        <ele>247.0</ele>
        <time>2022-09-26T14:08:34.998+02:00[Europe/Madrid]</time>
      </trkpt>
      <trkpt lat="37.164227" lon="-5.407406">
        <ele>247.0</ele>
        <time>2022-09-26T14:08:35.998+02:00[Europe/Madrid]</time>
      </trkpt>
      <trkpt lat="37.164408" lon="-5.407244">
        <ele>247.0</ele>
        <time>2022-09-26T14:08:36.998+02:00[Europe/Madrid]</time>
      </trkpt>
      <trkpt lat="37.16459" lon="-5.407082">
        <ele>247.0</ele>
        <time>2022-09-26T14:08:37.998+02:00[Europe/Madrid]</time>
      </trkpt>
      <trkpt lat="37.164778" lon="-5.406917">
        <ele>247.0</ele>
        <time>2022-09-26T14:08:38.998+02:00[Europe/Madrid]</time>
      </trkpt>
      <trkpt lat="37.164965" lon="-5.40675">
        <ele>247.0</ele>
        <time>2022-09-26T14:08:39.998+02:00[Europe/Madrid]</time>
      </trkpt>
      <trkpt lat="37.16516" lon="-5.406582">
        <ele>247.0</ele>
        <time>2022-09-26T14:08:40.998+02:00[Europe/Madrid]</time>
      </trkpt>
      <trkpt lat="37.165354" lon="-5.406412">
        <ele>247.0</ele>
        <time>2022-09-26T14:08:41.998+02:00[Europe/Madrid]</time>
      </trkpt>
      <trkpt lat="37.165543" lon="-5.406243">
        <ele>247.0</ele>
        <time>2022-09-26T14:08:42.998+02:00[Europe/Madrid]</time>
      </trkpt>
      <trkpt lat="37.165725" lon="-5.406079">
        <ele>247.0</ele>
        <time>2022-09-26T14:08:43.998+02:00[Europe/Madrid]</time>
      </trkpt>
      <trkpt lat="37.165899" lon="-5.40593">
        <ele>247.0</ele>
        <time>2022-09-26T14:08:44.998+02:00[Europe/Madrid]</time>
      </trkpt>
      <trkpt lat="37.166074" lon="-5.405798">
        <ele>246.0</ele>
        <time>2022-09-26T14:08:45.998+02:00[Europe/Madrid]</time>
      </trkpt>
      <trkpt lat="37.166252" lon="-5.405678">
        <ele>246.0</ele>
        <time>2022-09-26T14:08:46.998+02:00[Europe/Madrid]</time>
      </trkpt>
      <trkpt lat="37.166438" lon="-5.405586">
        <ele>246.0</ele>
        <time>2022-09-26T14:08:47.998+02:00[Europe/Madrid]</time>
      </trkpt>
      <trkpt lat="37.16663" lon="-5.405511">
        <ele>245.0</ele>
        <time>2022-09-26T14:08:48.998+02:00[Europe/Madrid]</time>
      </trkpt>
      <trkpt lat="37.166834" lon="-5.405445">
        <ele>246.0</ele>
        <time>2022-09-26T14:08:49.998+02:00[Europe/Madrid]</time>
      </trkpt>
      <trkpt lat="37.167056" lon="-5.405385">
        <ele>246.0</ele>
        <time>2022-09-26T14:08:50.998+02:00[Europe/Madrid]</time>
      </trkpt>
      <trkpt lat="37.167283" lon="-5.405323">
        <ele>246.0</ele>
        <time>2022-09-26T14:08:51.998+02:00[Europe/Madrid]</time>
      </trkpt>
      <trkpt lat="37.167505" lon="-5.405264">
        <ele>246.0</ele>
        <time>2022-09-26T14:08:52.998+02:00[Europe/Madrid]</time>
      </trkpt>
      <trkpt lat="37.167716" lon="-5.405209">
        <ele>246.0</ele>
        <time>2022-09-26T14:08:53.998+02:00[Europe/Madrid]</time>
      </trkpt>
      <trkpt lat="37.167916" lon="-5.405154">
        <ele>246.0</ele>
        <time>2022-09-26T14:08:54.998+02:00[Europe/Madrid]</time>
      </trkpt>
      <trkpt lat="37.168123" lon="-5.405098">
        <ele>247.0</ele>
        <time>2022-09-26T14:08:55.998+02:00[Europe/Madrid]</time>
      </trkpt>
      <trkpt lat="37.16834" lon="-5.405038">
        <ele>247.0</ele>
        <time>2022-09-26T14:08:56.998+02:00[Europe/Madrid]</time>
      </trkpt>
      <trkpt lat="37.168551" lon="-5.404978">
        <ele>247.0</ele>
        <time>2022-09-26T14:08:57.998+02:00[Europe/Madrid]</time>
      </trkpt>
      <trkpt lat="37.16875" lon="-5.40492">
        <ele>247.0</ele>
        <time>2022-09-26T14:08:58.998+02:00[Europe/Madrid]</time>
      </trkpt>
      <trkpt lat="37.16894" lon="-5.404857">
        <ele>248.0</ele>
        <time>2022-09-26T14:08:59.998+02:00[Europe/Madrid]</time>
      </trkpt>
      <trkpt lat="37.169117" lon="-5.404778">
        <ele>247.0</ele>
        <time>2022-09-26T14:09:00.998+02:00[Europe/Madrid]</time>
      </trkpt>
      <trkpt lat="37.169288" lon="-5.40468">
        <ele>246.0</ele>
        <time>2022-09-26T14:09:01.998+02:00[Europe/Madrid]</time>
      </trkpt>
      <trkpt lat="37.169467" lon="-5.404555">
        <ele>245.0</ele>
        <time>2022-09-26T14:09:02.998+02:00[Europe/Madrid]</time>
      </trkpt>
      <trkpt lat="37.169653" lon="-5.40441">
        <ele>244.0</ele>
        <time>2022-09-26T14:09:03.998+02:00[Europe/Madrid]</time>
      </trkpt>
      <trkpt lat="37.169848" lon="-5.404254">
        <ele>243.0</ele>
        <time>2022-09-26T14:09:04.998+02:00[Europe/Madrid]</time>
      </trkpt>
      <trkpt lat="37.170052" lon="-5.404091">
        <ele>242.0</ele>
        <time>2022-09-26T14:09:05.998+02:00[Europe/Madrid]</time>
      </trkpt>
      <trkpt lat="37.170265" lon="-5.403927">
        <ele>241.0</ele>
        <time>2022-09-26T14:09:06.998+02:00[Europe/Madrid]</time>
      </trkpt>
      <trkpt lat="37.170484" lon="-5.403752">
        <ele>240.0</ele>
        <time>2022-09-26T14:09:07.998+02:00[Europe/Madrid]</time>
      </trkpt>
      <trkpt lat="37.170707" lon="-5.403571">
        <ele>240.0</ele>
        <time>2022-09-26T14:09:08.998+02:00[Europe/Madrid]</time>
      </trkpt>
      <trkpt lat="37.170941" lon="-5.403387">
        <ele>240.0</ele>
        <time>2022-09-26T14:09:09.998+02:00[Europe/Madrid]</time>
      </trkpt>
      <trkpt lat="37.171186" lon="-5.403195">
        <ele>239.0</ele>
        <time>2022-09-26T14:09:10.998+02:00[Europe/Madrid]</time>
      </trkpt>
      <trkpt lat="37.171422" lon="-5.40301">
        <ele>239.0</ele>
        <time>2022-09-26T14:09:11.998+02:00[Europe/Madrid]</time>
      </trkpt>
      <trkpt lat="37.171646" lon="-5.402837">
        <ele>239.0</ele>
        <time>2022-09-26T14:09:12.998+02:00[Europe/Madrid]</time>
      </trkpt>
      <trkpt lat="37.171856" lon="-5.402667">
        <ele>239.0</ele>
        <time>2022-09-26T14:09:13.998+02:00[Europe/Madrid]</time>
      </trkpt>
      <trkpt lat="37.172057" lon="-5.402501">
        <ele>239.0</ele>
        <time>2022-09-26T14:09:14.998+02:00[Europe/Madrid]</time>
      </trkpt>
      <trkpt lat="37.172258" lon="-5.40234">
        <ele>240.0</ele>
        <time>2022-09-26T14:09:15.998+02:00[Europe/Madrid]</time>
      </trkpt>
      <trkpt lat="37.172457" lon="-5.402182">
        <ele>241.0</ele>
        <time>2022-09-26T14:09:16.998+02:00[Europe/Madrid]</time>
      </trkpt>
      <trkpt lat="37.172657" lon="-5.402026">
        <ele>242.0</ele>
        <time>2022-09-26T14:09:17.998+02:00[Europe/Madrid]</time>
      </trkpt>
      <trkpt lat="37.172854" lon="-5.401882">
        <ele>242.0</ele>
        <time>2022-09-26T14:09:18.998+02:00[Europe/Madrid]</time>
      </trkpt>
      <trkpt lat="37.173049" lon="-5.401749">
        <ele>243.0</ele>
        <time>2022-09-26T14:09:19.998+02:00[Europe/Madrid]</time>
      </trkpt>
      <trkpt lat="37.173243" lon="-5.401633">
        <ele>245.0</ele>
        <time>2022-09-26T14:09:20.998+02:00[Europe/Madrid]</time>
      </trkpt>
      <trkpt lat="37.173442" lon="-5.40153">
        <ele>245.0</ele>
        <time>2022-09-26T14:09:21.998+02:00[Europe/Madrid]</time>
      </trkpt>
      <trkpt lat="37.173645" lon="-5.401438">
        <ele>246.0</ele>
        <time>2022-09-26T14:09:22.998+02:00[Europe/Madrid]</time>
      </trkpt>
      <trkpt lat="37.173865" lon="-5.401355">
        <ele>246.0</ele>
        <time>2022-09-26T14:09:23.998+02:00[Europe/Madrid]</time>
      </trkpt>
      <trkpt lat="37.174101" lon="-5.401278">
        <ele>247.0</ele>
        <time>2022-09-26T14:09:24.998+02:00[Europe/Madrid]</time>
      </trkpt>
      <trkpt lat="37.174353" lon="-5.401204">
        <ele>247.0</ele>
        <time>2022-09-26T14:09:25.998+02:00[Europe/Madrid]</time>
      </trkpt>
      <trkpt lat="37.174615" lon="-5.401123">
        <ele>248.0</ele>
        <time>2022-09-26T14:09:26.998+02:00[Europe/Madrid]</time>
      </trkpt>
      <trkpt lat="37.174892" lon="-5.401042">
        <ele>248.0</ele>
        <time>2022-09-26T14:09:27.998+02:00[Europe/Madrid]</time>
      </trkpt>
      <trkpt lat="37.175179" lon="-5.400952">
        <ele>249.0</ele>
        <time>2022-09-26T14:09:28.998+02:00[Europe/Madrid]</time>
      </trkpt>
      <trkpt lat="37.175471" lon="-5.400864">
        <ele>250.0</ele>
        <time>2022-09-26T14:09:29.998+02:00[Europe/Madrid]</time>
      </trkpt>
      <trkpt lat="37.175745" lon="-5.400781">
        <ele>250.0</ele>
        <time>2022-09-26T14:09:30.998+02:00[Europe/Madrid]</time>
      </trkpt>
      <trkpt lat="37.176004" lon="-5.400705">
        <ele>251.0</ele>
        <time>2022-09-26T14:09:31.998+02:00[Europe/Madrid]</time>
      </trkpt>
      <trkpt lat="37.176249" lon="-5.400632">
        <ele>251.0</ele>
        <time>2022-09-26T14:09:32.998+02:00[Europe/Madrid]</time>
      </trkpt>
      <trkpt lat="37.176484" lon="-5.400564">
        <ele>252.0</ele>
        <time>2022-09-26T14:09:33.998+02:00[Europe/Madrid]</time>
      </trkpt>
      <trkpt lat="37.176704" lon="-5.400495">
        <ele>252.0</ele>
        <time>2022-09-26T14:09:34.998+02:00[Europe/Madrid]</time>
      </trkpt>
      <trkpt lat="37.176916" lon="-5.400434">
        <ele>253.0</ele>
        <time>2022-09-26T14:09:35.998+02:00[Europe/Madrid]</time>
      </trkpt>
      <trkpt lat="37.177124" lon="-5.400376">
        <ele>254.0</ele>
        <time>2022-09-26T14:09:36.998+02:00[Europe/Madrid]</time>
      </trkpt>
      <trkpt lat="37.177333" lon="-5.400321">
        <ele>254.0</ele>
        <time>2022-09-26T14:09:37.998+02:00[Europe/Madrid]</time>
      </trkpt>
      <trkpt lat="37.177552" lon="-5.40027">
        <ele>254.0</ele>
        <time>2022-09-26T14:09:38.998+02:00[Europe/Madrid]</time>
      </trkpt>
      <trkpt lat="37.177778" lon="-5.400222">
        <ele>254.0</ele>
        <time>2022-09-26T14:09:39.998+02:00[Europe/Madrid]</time>
      </trkpt>
      <trkpt lat="37.17802" lon="-5.400169">
        <ele>253.0</ele>
        <time>2022-09-26T14:09:40.998+02:00[Europe/Madrid]</time>
      </trkpt>
      <trkpt lat="37.178279" lon="-5.400118">
        <ele>252.0</ele>
        <time>2022-09-26T14:09:41.998+02:00[Europe/Madrid]</time>
      </trkpt>
      <trkpt lat="37.178555" lon="-5.400076">
        <ele>252.0</ele>
        <time>2022-09-26T14:09:42.998+02:00[Europe/Madrid]</time>
      </trkpt>
      <trkpt lat="37.178841" lon="-5.400031">
        <ele>252.0</ele>
        <time>2022-09-26T14:09:43.998+02:00[Europe/Madrid]</time>
      </trkpt>
      <trkpt lat="37.179112" lon="-5.399984">
        <ele>251.0</ele>
        <time>2022-09-26T14:09:44.998+02:00[Europe/Madrid]</time>
      </trkpt>
      <trkpt lat="37.179373" lon="-5.399942">
        <ele>250.0</ele>
        <time>2022-09-26T14:09:45.998+02:00[Europe/Madrid]</time>
      </trkpt>
      <trkpt lat="37.179623" lon="-5.399901">
        <ele>250.0</ele>
        <time>2022-09-26T14:09:46.998+02:00[Europe/Madrid]</time>
      </trkpt>
      <trkpt lat="37.179859" lon="-5.399862">
        <ele>249.0</ele>
        <time>2022-09-26T14:09:47.998+02:00[Europe/Madrid]</time>
      </trkpt>
      <trkpt lat="37.180092" lon="-5.399827">
        <ele>249.0</ele>
        <time>2022-09-26T14:09:48.998+02:00[Europe/Madrid]</time>
      </trkpt>
      <trkpt lat="37.180319" lon="-5.399791">
        <ele>248.0</ele>
        <time>2022-09-26T14:09:49.998+02:00[Europe/Madrid]</time>
      </trkpt>
      <trkpt lat="37.180544" lon="-5.399758">
        <ele>248.0</ele>
        <time>2022-09-26T14:09:50.998+02:00[Europe/Madrid]</time>
      </trkpt>
      <trkpt lat="37.180769" lon="-5.399723">
        <ele>248.0</ele>
        <time>2022-09-26T14:09:51.998+02:00[Europe/Madrid]</time>
      </trkpt>
      <trkpt lat="37.180993" lon="-5.399685">
        <ele>247.0</ele>
        <time>2022-09-26T14:09:52.998+02:00[Europe/Madrid]</time>
      </trkpt>
      <trkpt lat="37.181209" lon="-5.399645">
        <ele>246.0</ele>
        <time>2022-09-26T14:09:53.998+02:00[Europe/Madrid]</time>
      </trkpt>
      <trkpt lat="37.181413" lon="-5.399605">
        <ele>246.0</ele>
        <time>2022-09-26T14:09:54.998+02:00[Europe/Madrid]</time>
      </trkpt>
      <trkpt lat="37.181618" lon="-5.399564">
        <ele>246.0</ele>
        <time>2022-09-26T14:09:55.998+02:00[Europe/Madrid]</time>
      </trkpt>
      <trkpt lat="37.181822" lon="-5.399516">
        <ele>247.0</ele>
        <time>2022-09-26T14:09:56.998+02:00[Europe/Madrid]</time>
      </trkpt>
      <trkpt lat="37.182029" lon="-5.399447">
        <ele>247.0</ele>
        <time>2022-09-26T14:09:57.998+02:00[Europe/Madrid]</time>
      </trkpt>
      <trkpt lat="37.182235" lon="-5.399368">
        <ele>248.0</ele>
        <time>2022-09-26T14:09:58.998+02:00[Europe/Madrid]</time>
      </trkpt>
      <trkpt lat="37.182445" lon="-5.399275">
        <ele>247.0</ele>
        <time>2022-09-26T14:09:59.998+02:00[Europe/Madrid]</time>
      </trkpt>
      <trkpt lat="37.182658" lon="-5.399162">
        <ele>248.0</ele>
        <time>2022-09-26T14:10:00.998+02:00[Europe/Madrid]</time>
      </trkpt>
      <trkpt lat="37.18288" lon="-5.399035">
        <ele>248.0</ele>
        <time>2022-09-26T14:10:01.998+02:00[Europe/Madrid]</time>
      </trkpt>
      <trkpt lat="37.183102" lon="-5.398893">
        <ele>248.0</ele>
        <time>2022-09-26T14:10:02.998+02:00[Europe/Madrid]</time>
      </trkpt>
      <trkpt lat="37.183332" lon="-5.398739">
        <ele>248.0</ele>
        <time>2022-09-26T14:10:03.998+02:00[Europe/Madrid]</time>
      </trkpt>
      <trkpt lat="37.183565" lon="-5.398572">
        <ele>249.0</ele>
        <time>2022-09-26T14:10:04.998+02:00[Europe/Madrid]</time>
      </trkpt>
      <trkpt lat="37.183796" lon="-5.398399">
        <ele>249.0</ele>
        <time>2022-09-26T14:10:05.998+02:00[Europe/Madrid]</time>
      </trkpt>
      <trkpt lat="37.184038" lon="-5.398223">
        <ele>250.0</ele>
        <time>2022-09-26T14:10:06.998+02:00[Europe/Madrid]</time>
      </trkpt>
      <trkpt lat="37.184278" lon="-5.398043">
        <ele>251.0</ele>
        <time>2022-09-26T14:10:07.998+02:00[Europe/Madrid]</time>
      </trkpt>
      <trkpt lat="37.184504" lon="-5.397877">
        <ele>252.0</ele>
        <time>2022-09-26T14:10:08.998+02:00[Europe/Madrid]</time>
      </trkpt>
      <trkpt lat="37.184715" lon="-5.397722">
        <ele>253.0</ele>
        <time>2022-09-26T14:10:09.998+02:00[Europe/Madrid]</time>
      </trkpt>
      <trkpt lat="37.184917" lon="-5.397576">
        <ele>254.0</ele>
        <time>2022-09-26T14:10:10.998+02:00[Europe/Madrid]</time>
      </trkpt>
      <trkpt lat="37.185111" lon="-5.397434">
        <ele>256.0</ele>
        <time>2022-09-26T14:10:11.998+02:00[Europe/Madrid]</time>
      </trkpt>
      <trkpt lat="37.185295" lon="-5.397292">
        <ele>257.0</ele>
        <time>2022-09-26T14:10:12.998+02:00[Europe/Madrid]</time>
      </trkpt>
      <trkpt lat="37.18547" lon="-5.397156">
        <ele>258.0</ele>
        <time>2022-09-26T14:10:13.998+02:00[Europe/Madrid]</time>
      </trkpt>
      <trkpt lat="37.185631" lon="-5.39703">
        <ele>259.0</ele>
        <time>2022-09-26T14:10:14.998+02:00[Europe/Madrid]</time>
      </trkpt>
      <trkpt lat="37.185785" lon="-5.396907">
        <ele>260.0</ele>
        <time>2022-09-26T14:10:15.998+02:00[Europe/Madrid]</time>
      </trkpt>
      <trkpt lat="37.185939" lon="-5.39678">
        <ele>260.0</ele>
        <time>2022-09-26T14:10:16.998+02:00[Europe/Madrid]</time>
      </trkpt>
      <trkpt lat="37.186098" lon="-5.396646">
        <ele>260.0</ele>
        <time>2022-09-26T14:10:17.998+02:00[Europe/Madrid]</time>
      </trkpt>
      <trkpt lat="37.186266" lon="-5.396502">
        <ele>259.0</ele>
        <time>2022-09-26T14:10:18.998+02:00[Europe/Madrid]</time>
      </trkpt>
      <trkpt lat="37.186442" lon="-5.396349">
        <ele>259.0</ele>
        <time>2022-09-26T14:10:19.998+02:00[Europe/Madrid]</time>
      </trkpt>
      <trkpt lat="37.186628" lon="-5.396185">
        <ele>258.0</ele>
        <time>2022-09-26T14:10:20.998+02:00[Europe/Madrid]</time>
      </trkpt>
      <trkpt lat="37.186821" lon="-5.396012">
        <ele>257.0</ele>
        <time>2022-09-26T14:10:21.998+02:00[Europe/Madrid]</time>
      </trkpt>
      <trkpt lat="37.187023" lon="-5.395832">
        <ele>257.0</ele>
        <time>2022-09-26T14:10:22.998+02:00[Europe/Madrid]</time>
      </trkpt>
      <trkpt lat="37.187229" lon="-5.395648">
        <ele>256.0</ele>
        <time>2022-09-26T14:10:23.998+02:00[Europe/Madrid]</time>
      </trkpt>
      <trkpt lat="37.187442" lon="-5.395457">
        <ele>256.0</ele>
        <time>2022-09-26T14:10:24.998+02:00[Europe/Madrid]</time>
      </trkpt>
      <trkpt lat="37.18766" lon="-5.395258">
        <ele>255.0</ele>
        <time>2022-09-26T14:10:25.998+02:00[Europe/Madrid]</time>
      </trkpt>
      <trkpt lat="37.187878" lon="-5.39506">
        <ele>254.0</ele>
        <time>2022-09-26T14:10:26.998+02:00[Europe/Madrid]</time>
      </trkpt>
      <trkpt lat="37.188093" lon="-5.394863">
        <ele>253.0</ele>
        <time>2022-09-26T14:10:27.998+02:00[Europe/Madrid]</time>
      </trkpt>
      <trkpt lat="37.188304" lon="-5.39467">
        <ele>252.0</ele>
        <time>2022-09-26T14:10:28.998+02:00[Europe/Madrid]</time>
      </trkpt>
      <trkpt lat="37.188522" lon="-5.394473">
        <ele>251.0</ele>
        <time>2022-09-26T14:10:29.998+02:00[Europe/Madrid]</time>
      </trkpt>
      <trkpt lat="37.188741" lon="-5.394273">
        <ele>250.0</ele>
        <time>2022-09-26T14:10:30.998+02:00[Europe/Madrid]</time>
      </trkpt>
      <trkpt lat="37.188953" lon="-5.39408">
        <ele>250.0</ele>
        <time>2022-09-26T14:10:31.998+02:00[Europe/Madrid]</time>
      </trkpt>
      <trkpt lat="37.189165" lon="-5.393889">
        <ele>249.0</ele>
        <time>2022-09-26T14:10:32.998+02:00[Europe/Madrid]</time>
      </trkpt>
      <trkpt lat="37.189367" lon="-5.393707">
        <ele>248.0</ele>
        <time>2022-09-26T14:10:33.998+02:00[Europe/Madrid]</time>
      </trkpt>
      <trkpt lat="37.189565" lon="-5.393529">
        <ele>248.0</ele>
        <time>2022-09-26T14:10:34.998+02:00[Europe/Madrid]</time>
      </trkpt>
      <trkpt lat="37.189756" lon="-5.393353">
        <ele>247.0</ele>
        <time>2022-09-26T14:10:35.998+02:00[Europe/Madrid]</time>
      </trkpt>
      <trkpt lat="37.189941" lon="-5.393186">
        <ele>247.0</ele>
        <time>2022-09-26T14:10:36.998+02:00[Europe/Madrid]</time>
      </trkpt>
      <trkpt lat="37.190114" lon="-5.393025">
        <ele>247.0</ele>
        <time>2022-09-26T14:10:37.998+02:00[Europe/Madrid]</time>
      </trkpt>
      <trkpt lat="37.190282" lon="-5.392863">
        <ele>247.0</ele>
        <time>2022-09-26T14:10:38.998+02:00[Europe/Madrid]</time>
      </trkpt>
      <trkpt lat="37.190447" lon="-5.392685">
        <ele>247.0</ele>
        <time>2022-09-26T14:10:39.998+02:00[Europe/Madrid]</time>
      </trkpt>
      <trkpt lat="37.190609" lon="-5.392492">
        <ele>246.0</ele>
        <time>2022-09-26T14:10:40.998+02:00[Europe/Madrid]</time>
      </trkpt>
      <trkpt lat="37.190764" lon="-5.392277">
        <ele>246.0</ele>
        <time>2022-09-26T14:10:41.998+02:00[Europe/Madrid]</time>
      </trkpt>
      <trkpt lat="37.190911" lon="-5.392041">
        <ele>245.0</ele>
        <time>2022-09-26T14:10:42.998+02:00[Europe/Madrid]</time>
      </trkpt>
      <trkpt lat="37.191046" lon="-5.391806">
        <ele>245.0</ele>
        <time>2022-09-26T14:10:43.998+02:00[Europe/Madrid]</time>
      </trkpt>
      <trkpt lat="37.191179" lon="-5.391566">
        <ele>245.0</ele>
        <time>2022-09-26T14:10:44.998+02:00[Europe/Madrid]</time>
      </trkpt>
      <trkpt lat="37.191313" lon="-5.391324">
        <ele>245.0</ele>
        <time>2022-09-26T14:10:45.998+02:00[Europe/Madrid]</time>
      </trkpt>
      <trkpt lat="37.191452" lon="-5.391076">
        <ele>244.0</ele>
        <time>2022-09-26T14:10:46.998+02:00[Europe/Madrid]</time>
      </trkpt>
      <trkpt lat="37.191591" lon="-5.390825">
        <ele>244.0</ele>
        <time>2022-09-26T14:10:47.998+02:00[Europe/Madrid]</time>
      </trkpt>
      <trkpt lat="37.191735" lon="-5.390568">
        <ele>244.0</ele>
        <time>2022-09-26T14:10:48.998+02:00[Europe/Madrid]</time>
      </trkpt>
      <trkpt lat="37.191882" lon="-5.390308">
        <ele>245.0</ele>
        <time>2022-09-26T14:10:49.998+02:00[Europe/Madrid]</time>
      </trkpt>
      <trkpt lat="37.192029" lon="-5.39004">
        <ele>245.0</ele>
        <time>2022-09-26T14:10:50.998+02:00[Europe/Madrid]</time>
      </trkpt>
      <trkpt lat="37.192181" lon="-5.389769">
        <ele>246.0</ele>
        <time>2022-09-26T14:10:51.998+02:00[Europe/Madrid]</time>
      </trkpt>
      <trkpt lat="37.192334" lon="-5.389494">
        <ele>246.0</ele>
        <time>2022-09-26T14:10:52.998+02:00[Europe/Madrid]</time>
      </trkpt>
      <trkpt lat="37.192486" lon="-5.389219">
        <ele>246.0</ele>
        <time>2022-09-26T14:10:53.998+02:00[Europe/Madrid]</time>
      </trkpt>
      <trkpt lat="37.192631" lon="-5.388952">
        <ele>246.0</ele>
        <time>2022-09-26T14:10:54.998+02:00[Europe/Madrid]</time>
      </trkpt>
      <trkpt lat="37.192777" lon="-5.388694">
        <ele>247.0</ele>
        <time>2022-09-26T14:10:55.998+02:00[Europe/Madrid]</time>
      </trkpt>
      <trkpt lat="37.192921" lon="-5.388441">
        <ele>247.0</ele>
        <time>2022-09-26T14:10:56.998+02:00[Europe/Madrid]</time>
      </trkpt>
      <trkpt lat="37.193066" lon="-5.388184">
        <ele>247.0</ele>
        <time>2022-09-26T14:10:57.998+02:00[Europe/Madrid]</time>
      </trkpt>
      <trkpt lat="37.193207" lon="-5.387933">
        <ele>248.0</ele>
        <time>2022-09-26T14:10:58.998+02:00[Europe/Madrid]</time>
      </trkpt>
      <trkpt lat="37.193348" lon="-5.38768">
        <ele>248.0</ele>
        <time>2022-09-26T14:10:59.998+02:00[Europe/Madrid]</time>
      </trkpt>
      <trkpt lat="37.193489" lon="-5.387428">
        <ele>248.0</ele>
        <time>2022-09-26T14:11:00.998+02:00[Europe/Madrid]</time>
      </trkpt>
      <trkpt lat="37.193629" lon="-5.387177">
        <ele>248.0</ele>
        <time>2022-09-26T14:11:01.998+02:00[Europe/Madrid]</time>
      </trkpt>
      <trkpt lat="37.19377" lon="-5.386928">
        <ele>248.0</ele>
        <time>2022-09-26T14:11:02.998+02:00[Europe/Madrid]</time>
      </trkpt>
      <trkpt lat="37.193915" lon="-5.386673">
        <ele>249.0</ele>
        <time>2022-09-26T14:11:03.998+02:00[Europe/Madrid]</time>
      </trkpt>
      <trkpt lat="37.194054" lon="-5.386416">
        <ele>249.0</ele>
        <time>2022-09-26T14:11:04.998+02:00[Europe/Madrid]</time>
      </trkpt>
      <trkpt lat="37.194194" lon="-5.386157">
        <ele>249.0</ele>
        <time>2022-09-26T14:11:05.998+02:00[Europe/Madrid]</time>
      </trkpt>
      <trkpt lat="37.194336" lon="-5.385897">
        <ele>248.0</ele>
        <time>2022-09-26T14:11:06.998+02:00[Europe/Madrid]</time>
      </trkpt>
      <trkpt lat="37.194479" lon="-5.385638">
        <ele>248.0</ele>
        <time>2022-09-26T14:11:07.998+02:00[Europe/Madrid]</time>
      </trkpt>
      <trkpt lat="37.194619" lon="-5.385383">
        <ele>248.0</ele>
        <time>2022-09-26T14:11:08.998+02:00[Europe/Madrid]</time>
      </trkpt>
      <trkpt lat="37.194766" lon="-5.385123">
        <ele>248.0</ele>
        <time>2022-09-26T14:11:09.998+02:00[Europe/Madrid]</time>
      </trkpt>
      <trkpt lat="37.194914" lon="-5.38486">
        <ele>249.0</ele>
        <time>2022-09-26T14:11:10.998+02:00[Europe/Madrid]</time>
      </trkpt>
      <trkpt lat="37.195069" lon="-5.384585">
        <ele>249.0</ele>
        <time>2022-09-26T14:11:11.998+02:00[Europe/Madrid]</time>
      </trkpt>
      <trkpt lat="37.195227" lon="-5.384296">
        <ele>249.0</ele>
        <time>2022-09-26T14:11:12.998+02:00[Europe/Madrid]</time>
      </trkpt>
      <trkpt lat="37.195379" lon="-5.384022">
        <ele>250.0</ele>
        <time>2022-09-26T14:11:13.998+02:00[Europe/Madrid]</time>
      </trkpt>
      <trkpt lat="37.195522" lon="-5.383763">
        <ele>251.0</ele>
        <time>2022-09-26T14:11:14.998+02:00[Europe/Madrid]</time>
      </trkpt>
      <trkpt lat="37.195656" lon="-5.383514">
        <ele>252.0</ele>
        <time>2022-09-26T14:11:15.998+02:00[Europe/Madrid]</time>
      </trkpt>
      <trkpt lat="37.195786" lon="-5.383281">
        <ele>253.0</ele>
        <time>2022-09-26T14:11:16.998+02:00[Europe/Madrid]</time>
      </trkpt>
      <trkpt lat="37.195908" lon="-5.38306">
        <ele>253.0</ele>
        <time>2022-09-26T14:11:17.998+02:00[Europe/Madrid]</time>
      </trkpt>
      <trkpt lat="37.196029" lon="-5.382845">
        <ele>254.0</ele>
        <time>2022-09-26T14:11:18.998+02:00[Europe/Madrid]</time>
      </trkpt>
      <trkpt lat="37.196152" lon="-5.382628">
        <ele>254.0</ele>
        <time>2022-09-26T14:11:19.998+02:00[Europe/Madrid]</time>
      </trkpt>
      <trkpt lat="37.196276" lon="-5.382417">
        <ele>255.0</ele>
        <time>2022-09-26T14:11:20.998+02:00[Europe/Madrid]</time>
      </trkpt>
      <trkpt lat="37.196396" lon="-5.382211">
        <ele>256.0</ele>
        <time>2022-09-26T14:11:21.998+02:00[Europe/Madrid]</time>
      </trkpt>
      <trkpt lat="37.196517" lon="-5.38201">
        <ele>257.0</ele>
        <time>2022-09-26T14:11:22.998+02:00[Europe/Madrid]</time>
      </trkpt>
      <trkpt lat="37.196635" lon="-5.381814">
        <ele>257.0</ele>
        <time>2022-09-26T14:11:23.998+02:00[Europe/Madrid]</time>
      </trkpt>
      <trkpt lat="37.19675" lon="-5.381628">
        <ele>257.0</ele>
        <time>2022-09-26T14:11:24.998+02:00[Europe/Madrid]</time>
      </trkpt>
      <trkpt lat="37.196867" lon="-5.38144">
        <ele>256.0</ele>
        <time>2022-09-26T14:11:25.998+02:00[Europe/Madrid]</time>
      </trkpt>
      <trkpt lat="37.196994" lon="-5.381243">
        <ele>255.0</ele>
        <time>2022-09-26T14:11:26.998+02:00[Europe/Madrid]</time>
      </trkpt>
      <trkpt lat="37.197133" lon="-5.381032">
        <ele>254.0</ele>
        <time>2022-09-26T14:11:27.998+02:00[Europe/Madrid]</time>
      </trkpt>
      <trkpt lat="37.197282" lon="-5.380813">
        <ele>253.0</ele>
        <time>2022-09-26T14:11:28.998+02:00[Europe/Madrid]</time>
      </trkpt>
      <trkpt lat="37.197439" lon="-5.380584">
        <ele>253.0</ele>
        <time>2022-09-26T14:11:29.998+02:00[Europe/Madrid]</time>
      </trkpt>
      <trkpt lat="37.1976" lon="-5.380342">
        <ele>252.0</ele>
        <time>2022-09-26T14:11:30.998+02:00[Europe/Madrid]</time>
      </trkpt>
      <trkpt lat="37.197765" lon="-5.380098">
        <ele>251.0</ele>
        <time>2022-09-26T14:11:31.998+02:00[Europe/Madrid]</time>
      </trkpt>
      <trkpt lat="37.197931" lon="-5.379851">
        <ele>250.0</ele>
        <time>2022-09-26T14:11:32.998+02:00[Europe/Madrid]</time>
      </trkpt>
      <trkpt lat="37.198101" lon="-5.379605">
        <ele>249.0</ele>
        <time>2022-09-26T14:11:33.998+02:00[Europe/Madrid]</time>
      </trkpt>
      <trkpt lat="37.198271" lon="-5.379354">
        <ele>248.0</ele>
        <time>2022-09-26T14:11:34.998+02:00[Europe/Madrid]</time>
      </trkpt>
      <trkpt lat="37.198439" lon="-5.379102">
        <ele>247.0</ele>
        <time>2022-09-26T14:11:35.998+02:00[Europe/Madrid]</time>
      </trkpt>
      <trkpt lat="37.198608" lon="-5.378848">
        <ele>247.0</ele>
        <time>2022-09-26T14:11:36.998+02:00[Europe/Madrid]</time>
      </trkpt>
      <trkpt lat="37.198779" lon="-5.378595">
        <ele>247.0</ele>
        <time>2022-09-26T14:11:37.998+02:00[Europe/Madrid]</time>
      </trkpt>
      <trkpt lat="37.198948" lon="-5.378338">
        <ele>247.0</ele>
        <time>2022-09-26T14:11:38.998+02:00[Europe/Madrid]</time>
      </trkpt>
      <trkpt lat="37.199118" lon="-5.378079">
        <ele>246.0</ele>
        <time>2022-09-26T14:11:39.998+02:00[Europe/Madrid]</time>
      </trkpt>
      <trkpt lat="37.199296" lon="-5.377813">
        <ele>247.0</ele>
        <time>2022-09-26T14:11:40.998+02:00[Europe/Madrid]</time>
      </trkpt>
      <trkpt lat="37.199481" lon="-5.377537">
        <ele>248.0</ele>
        <time>2022-09-26T14:11:41.998+02:00[Europe/Madrid]</time>
      </trkpt>
      <trkpt lat="37.199663" lon="-5.377272">
        <ele>249.0</ele>
        <time>2022-09-26T14:11:42.998+02:00[Europe/Madrid]</time>
      </trkpt>
      <trkpt lat="37.199839" lon="-5.377015">
        <ele>250.0</ele>
        <time>2022-09-26T14:11:43.998+02:00[Europe/Madrid]</time>
      </trkpt>
      <trkpt lat="37.200009" lon="-5.37676">
        <ele>250.0</ele>
        <time>2022-09-26T14:11:44.998+02:00[Europe/Madrid]</time>
      </trkpt>
      <trkpt lat="37.200175" lon="-5.376509">
        <ele>251.0</ele>
        <time>2022-09-26T14:11:45.998+02:00[Europe/Madrid]</time>
      </trkpt>
      <trkpt lat="37.200342" lon="-5.376256">
        <ele>252.0</ele>
        <time>2022-09-26T14:11:46.998+02:00[Europe/Madrid]</time>
      </trkpt>
      <trkpt lat="37.200515" lon="-5.376004">
        <ele>253.0</ele>
        <time>2022-09-26T14:11:47.998+02:00[Europe/Madrid]</time>
      </trkpt>
      <trkpt lat="37.200686" lon="-5.375753">
        <ele>254.0</ele>
        <time>2022-09-26T14:11:48.998+02:00[Europe/Madrid]</time>
      </trkpt>
      <trkpt lat="37.200861" lon="-5.375494">
        <ele>254.0</ele>
        <time>2022-09-26T14:11:49.998+02:00[Europe/Madrid]</time>
      </trkpt>
      <trkpt lat="37.201047" lon="-5.375222">
        <ele>254.0</ele>
        <time>2022-09-26T14:11:50.998+02:00[Europe/Madrid]</time>
      </trkpt>
      <trkpt lat="37.201238" lon="-5.374942">
        <ele>254.0</ele>
        <time>2022-09-26T14:11:51.998+02:00[Europe/Madrid]</time>
      </trkpt>
      <trkpt lat="37.201434" lon="-5.374648">
        <ele>255.0</ele>
        <time>2022-09-26T14:11:52.998+02:00[Europe/Madrid]</time>
      </trkpt>
      <trkpt lat="37.201638" lon="-5.374348">
        <ele>256.0</ele>
        <time>2022-09-26T14:11:53.998+02:00[Europe/Madrid]</time>
      </trkpt>
      <trkpt lat="37.201849" lon="-5.374039">
        <ele>257.0</ele>
        <time>2022-09-26T14:11:54.998+02:00[Europe/Madrid]</time>
      </trkpt>
      <trkpt lat="37.202056" lon="-5.373724">
        <ele>257.0</ele>
        <time>2022-09-26T14:11:55.998+02:00[Europe/Madrid]</time>
      </trkpt>
      <trkpt lat="37.202255" lon="-5.373426">
        <ele>258.0</ele>
        <time>2022-09-26T14:11:56.998+02:00[Europe/Madrid]</time>
      </trkpt>
      <trkpt lat="37.202447" lon="-5.373144">
        <ele>259.0</ele>
        <time>2022-09-26T14:11:57.998+02:00[Europe/Madrid]</time>
      </trkpt>
      <trkpt lat="37.202626" lon="-5.372874">
        <ele>260.0</ele>
        <time>2022-09-26T14:11:58.998+02:00[Europe/Madrid]</time>
      </trkpt>
      <trkpt lat="37.2028" lon="-5.372615">
        <ele>260.0</ele>
        <time>2022-09-26T14:11:59.998+02:00[Europe/Madrid]</time>
      </trkpt>
      <trkpt lat="37.202967" lon="-5.372365">
        <ele>261.0</ele>
        <time>2022-09-26T14:12:00.998+02:00[Europe/Madrid]</time>
      </trkpt>
      <trkpt lat="37.203132" lon="-5.372124">
        <ele>262.0</ele>
        <time>2022-09-26T14:12:01.998+02:00[Europe/Madrid]</time>
      </trkpt>
      <trkpt lat="37.203296" lon="-5.371883">
        <ele>262.0</ele>
        <time>2022-09-26T14:12:02.998+02:00[Europe/Madrid]</time>
      </trkpt>
      <trkpt lat="37.203458" lon="-5.371637">
        <ele>263.0</ele>
        <time>2022-09-26T14:12:03.998+02:00[Europe/Madrid]</time>
      </trkpt>
      <trkpt lat="37.203618" lon="-5.37139">
        <ele>264.0</ele>
        <time>2022-09-26T14:12:04.998+02:00[Europe/Madrid]</time>
      </trkpt>
      <trkpt lat="37.203785" lon="-5.371142">
        <ele>264.0</ele>
        <time>2022-09-26T14:12:05.998+02:00[Europe/Madrid]</time>
      </trkpt>
      <trkpt lat="37.203949" lon="-5.370897">
        <ele>265.0</ele>
        <time>2022-09-26T14:12:06.998+02:00[Europe/Madrid]</time>
      </trkpt>
      <trkpt lat="37.20411" lon="-5.370656">
        <ele>266.0</ele>
        <time>2022-09-26T14:12:07.998+02:00[Europe/Madrid]</time>
      </trkpt>
      <trkpt lat="37.20426" lon="-5.37043">
        <ele>266.0</ele>
        <time>2022-09-26T14:12:08.998+02:00[Europe/Madrid]</time>
      </trkpt>
      <trkpt lat="37.204401" lon="-5.370213">
        <ele>267.0</ele>
        <time>2022-09-26T14:12:09.998+02:00[Europe/Madrid]</time>
      </trkpt>
      <trkpt lat="37.204534" lon="-5.370005">
        <ele>267.0</ele>
        <time>2022-09-26T14:12:10.998+02:00[Europe/Madrid]</time>
      </trkpt>
      <trkpt lat="37.204671" lon="-5.369789">
        <ele>267.0</ele>
        <time>2022-09-26T14:12:11.998+02:00[Europe/Madrid]</time>
      </trkpt>
      <trkpt lat="37.204806" lon="-5.36956">
        <ele>266.0</ele>
        <time>2022-09-26T14:12:12.998+02:00[Europe/Madrid]</time>
      </trkpt>
      <trkpt lat="37.20494" lon="-5.369326">
        <ele>265.0</ele>
        <time>2022-09-26T14:12:13.998+02:00[Europe/Madrid]</time>
      </trkpt>
      <trkpt lat="37.205071" lon="-5.369096">
        <ele>264.0</ele>
        <time>2022-09-26T14:12:14.998+02:00[Europe/Madrid]</time>
      </trkpt>
      <trkpt lat="37.205196" lon="-5.368872">
        <ele>263.0</ele>
        <time>2022-09-26T14:12:15.998+02:00[Europe/Madrid]</time>
      </trkpt>
      <trkpt lat="37.205319" lon="-5.368655">
        <ele>262.0</ele>
        <time>2022-09-26T14:12:16.998+02:00[Europe/Madrid]</time>
      </trkpt>
      <trkpt lat="37.205439" lon="-5.368438">
        <ele>261.0</ele>
        <time>2022-09-26T14:12:17.998+02:00[Europe/Madrid]</time>
      </trkpt>
      <trkpt lat="37.205554" lon="-5.368216">
        <ele>260.0</ele>
        <time>2022-09-26T14:12:18.998+02:00[Europe/Madrid]</time>
      </trkpt>
      <trkpt lat="37.205663" lon="-5.367993">
        <ele>259.0</ele>
        <time>2022-09-26T14:12:19.998+02:00[Europe/Madrid]</time>
      </trkpt>
      <trkpt lat="37.205765" lon="-5.367764">
        <ele>258.0</ele>
        <time>2022-09-26T14:12:20.998+02:00[Europe/Madrid]</time>
      </trkpt>
      <trkpt lat="37.205861" lon="-5.367536">
        <ele>257.0</ele>
        <time>2022-09-26T14:12:21.998+02:00[Europe/Madrid]</time>
      </trkpt>
      <trkpt lat="37.20595" lon="-5.367301">
        <ele>257.0</ele>
        <time>2022-09-26T14:12:22.998+02:00[Europe/Madrid]</time>
      </trkpt>
      <trkpt lat="37.206039" lon="-5.36706">
        <ele>256.0</ele>
        <time>2022-09-26T14:12:23.998+02:00[Europe/Madrid]</time>
      </trkpt>
      <trkpt lat="37.206129" lon="-5.366811">
        <ele>256.0</ele>
        <time>2022-09-26T14:12:24.998+02:00[Europe/Madrid]</time>
      </trkpt>
      <trkpt lat="37.206214" lon="-5.366556">
        <ele>255.0</ele>
        <time>2022-09-26T14:12:25.998+02:00[Europe/Madrid]</time>
      </trkpt>
      <trkpt lat="37.206293" lon="-5.366299">
        <ele>254.0</ele>
        <time>2022-09-26T14:12:26.998+02:00[Europe/Madrid]</time>
      </trkpt>
      <trkpt lat="37.206382" lon="-5.366021">
        <ele>254.0</ele>
        <time>2022-09-26T14:12:27.998+02:00[Europe/Madrid]</time>
      </trkpt>
      <trkpt lat="37.206474" lon="-5.365729">
        <ele>253.0</ele>
        <time>2022-09-26T14:12:28.998+02:00[Europe/Madrid]</time>
      </trkpt>
      <trkpt lat="37.206567" lon="-5.365416">
        <ele>252.0</ele>
        <time>2022-09-26T14:12:29.998+02:00[Europe/Madrid]</time>
      </trkpt>
      <trkpt lat="37.206647" lon="-5.36508">
        <ele>252.0</ele>
        <time>2022-09-26T14:12:30.998+02:00[Europe/Madrid]</time>
      </trkpt>
      <trkpt lat="37.206725" lon="-5.364722">
        <ele>251.0</ele>
        <time>2022-09-26T14:12:31.998+02:00[Europe/Madrid]</time>
      </trkpt>
      <trkpt lat="37.206802" lon="-5.364344">
        <ele>250.0</ele>
        <time>2022-09-26T14:12:32.998+02:00[Europe/Madrid]</time>
      </trkpt>
      <trkpt lat="37.206884" lon="-5.363967">
        <ele>249.0</ele>
        <time>2022-09-26T14:12:33.998+02:00[Europe/Madrid]</time>
      </trkpt>
      <trkpt lat="37.206963" lon="-5.363603">
        <ele>250.0</ele>
        <time>2022-09-26T14:12:34.998+02:00[Europe/Madrid]</time>
      </trkpt>
      <trkpt lat="37.207042" lon="-5.363253">
        <ele>250.0</ele>
        <time>2022-09-26T14:12:35.998+02:00[Europe/Madrid]</time>
      </trkpt>
      <trkpt lat="37.20712" lon="-5.362924">
        <ele>250.0</ele>
        <time>2022-09-26T14:12:36.998+02:00[Europe/Madrid]</time>
      </trkpt>
      <trkpt lat="37.20719" lon="-5.362606">
        <ele>250.0</ele>
        <time>2022-09-26T14:12:37.998+02:00[Europe/Madrid]</time>
      </trkpt>
      <trkpt lat="37.20726" lon="-5.362293">
        <ele>250.0</ele>
        <time>2022-09-26T14:12:38.998+02:00[Europe/Madrid]</time>
      </trkpt>
      <trkpt lat="37.20733" lon="-5.361987">
        <ele>250.0</ele>
        <time>2022-09-26T14:12:39.998+02:00[Europe/Madrid]</time>
      </trkpt>
      <trkpt lat="37.207398" lon="-5.361692">
        <ele>251.0</ele>
        <time>2022-09-26T14:12:40.998+02:00[Europe/Madrid]</time>
      </trkpt>
      <trkpt lat="37.207464" lon="-5.361399">
        <ele>252.0</ele>
        <time>2022-09-26T14:12:41.998+02:00[Europe/Madrid]</time>
      </trkpt>
      <trkpt lat="37.207527" lon="-5.361107">
        <ele>252.0</ele>
        <time>2022-09-26T14:12:42.998+02:00[Europe/Madrid]</time>
      </trkpt>
      <trkpt lat="37.207588" lon="-5.360818">
        <ele>252.0</ele>
        <time>2022-09-26T14:12:43.998+02:00[Europe/Madrid]</time>
      </trkpt>
      <trkpt lat="37.207652" lon="-5.360537">
        <ele>252.0</ele>
        <time>2022-09-26T14:12:44.998+02:00[Europe/Madrid]</time>
      </trkpt>
      <trkpt lat="37.207715" lon="-5.360271">
        <ele>253.0</ele>
        <time>2022-09-26T14:12:45.998+02:00[Europe/Madrid]</time>
      </trkpt>
      <trkpt lat="37.207776" lon="-5.360012">
        <ele>253.0</ele>
        <time>2022-09-26T14:12:46.998+02:00[Europe/Madrid]</time>
      </trkpt>
      <trkpt lat="37.207844" lon="-5.359754">
        <ele>253.0</ele>
        <time>2022-09-26T14:12:47.998+02:00[Europe/Madrid]</time>
      </trkpt>
      <trkpt lat="37.207911" lon="-5.359497">
        <ele>253.0</ele>
        <time>2022-09-26T14:12:48.998+02:00[Europe/Madrid]</time>
      </trkpt>
      <trkpt lat="37.207984" lon="-5.359242">
        <ele>253.0</ele>
        <time>2022-09-26T14:12:49.998+02:00[Europe/Madrid]</time>
      </trkpt>
      <trkpt lat="37.208062" lon="-5.358988">
        <ele>253.0</ele>
        <time>2022-09-26T14:12:50.998+02:00[Europe/Madrid]</time>
      </trkpt>
      <trkpt lat="37.208144" lon="-5.358738">
        <ele>253.0</ele>
        <time>2022-09-26T14:12:51.998+02:00[Europe/Madrid]</time>
      </trkpt>
      <trkpt lat="37.208234" lon="-5.358481">
        <ele>252.0</ele>
        <time>2022-09-26T14:12:52.998+02:00[Europe/Madrid]</time>
      </trkpt>
      <trkpt lat="37.208327" lon="-5.358231">
        <ele>251.0</ele>
        <time>2022-09-26T14:12:53.998+02:00[Europe/Madrid]</time>
      </trkpt>
      <trkpt lat="37.208418" lon="-5.357986">
        <ele>251.0</ele>
        <time>2022-09-26T14:12:54.998+02:00[Europe/Madrid]</time>
      </trkpt>
      <trkpt lat="37.208502" lon="-5.357749">
        <ele>250.0</ele>
        <time>2022-09-26T14:12:55.998+02:00[Europe/Madrid]</time>
      </trkpt>
      <trkpt lat="37.208578" lon="-5.357511">
        <ele>249.0</ele>
        <time>2022-09-26T14:12:56.998+02:00[Europe/Madrid]</time>
      </trkpt>
      <trkpt lat="37.208649" lon="-5.357269">
        <ele>248.0</ele>
        <time>2022-09-26T14:12:57.998+02:00[Europe/Madrid]</time>
      </trkpt>
      <trkpt lat="37.208703" lon="-5.357021">
        <ele>247.0</ele>
        <time>2022-09-26T14:12:58.998+02:00[Europe/Madrid]</time>
      </trkpt>
      <trkpt lat="37.208744" lon="-5.356759">
        <ele>246.0</ele>
        <time>2022-09-26T14:12:59.998+02:00[Europe/Madrid]</time>
      </trkpt>
      <trkpt lat="37.208778" lon="-5.356492">
        <ele>245.0</ele>
        <time>2022-09-26T14:13:00.998+02:00[Europe/Madrid]</time>
      </trkpt>
      <trkpt lat="37.208813" lon="-5.356215">
        <ele>244.0</ele>
        <time>2022-09-26T14:13:01.998+02:00[Europe/Madrid]</time>
      </trkpt>
      <trkpt lat="37.208847" lon="-5.35593">
        <ele>243.0</ele>
        <time>2022-09-26T14:13:02.998+02:00[Europe/Madrid]</time>
      </trkpt>
      <trkpt lat="37.208884" lon="-5.355638">
        <ele>242.0</ele>
        <time>2022-09-26T14:13:03.998+02:00[Europe/Madrid]</time>
      </trkpt>
      <trkpt lat="37.208924" lon="-5.355335">
        <ele>242.0</ele>
        <time>2022-09-26T14:13:04.998+02:00[Europe/Madrid]</time>
      </trkpt>
      <trkpt lat="37.208962" lon="-5.355023">
        <ele>240.0</ele>
        <time>2022-09-26T14:13:05.998+02:00[Europe/Madrid]</time>
      </trkpt>
      <trkpt lat="37.209" lon="-5.354706">
        <ele>239.0</ele>
        <time>2022-09-26T14:13:06.998+02:00[Europe/Madrid]</time>
      </trkpt>
      <trkpt lat="37.209042" lon="-5.354386">
        <ele>238.0</ele>
        <time>2022-09-26T14:13:07.998+02:00[Europe/Madrid]</time>
      </trkpt>
      <trkpt lat="37.209083" lon="-5.354058">
        <ele>237.0</ele>
        <time>2022-09-26T14:13:08.998+02:00[Europe/Madrid]</time>
      </trkpt>
      <trkpt lat="37.209123" lon="-5.35373">
        <ele>236.0</ele>
        <time>2022-09-26T14:13:09.998+02:00[Europe/Madrid]</time>
      </trkpt>
      <trkpt lat="37.209164" lon="-5.353398">
        <ele>235.0</ele>
        <time>2022-09-26T14:13:10.998+02:00[Europe/Madrid]</time>
      </trkpt>
      <trkpt lat="37.209199" lon="-5.353062">
        <ele>234.0</ele>
        <time>2022-09-26T14:13:11.998+02:00[Europe/Madrid]</time>
      </trkpt>
      <trkpt lat="37.209241" lon="-5.352733">
        <ele>233.0</ele>
        <time>2022-09-26T14:13:12.998+02:00[Europe/Madrid]</time>
      </trkpt>
      <trkpt lat="37.209283" lon="-5.352411">
        <ele>233.0</ele>
        <time>2022-09-26T14:13:13.998+02:00[Europe/Madrid]</time>
      </trkpt>
      <trkpt lat="37.209322" lon="-5.352097">
        <ele>233.0</ele>
        <time>2022-09-26T14:13:14.998+02:00[Europe/Madrid]</time>
      </trkpt>
      <trkpt lat="37.209355" lon="-5.351798">
        <ele>233.0</ele>
        <time>2022-09-26T14:13:15.998+02:00[Europe/Madrid]</time>
      </trkpt>
      <trkpt lat="37.209392" lon="-5.351508">
        <ele>233.0</ele>
        <time>2022-09-26T14:13:16.998+02:00[Europe/Madrid]</time>
      </trkpt>
      <trkpt lat="37.209425" lon="-5.351214">
        <ele>232.0</ele>
        <time>2022-09-26T14:13:17.998+02:00[Europe/Madrid]</time>
      </trkpt>
      <trkpt lat="37.209458" lon="-5.350925">
        <ele>231.0</ele>
        <time>2022-09-26T14:13:18.998+02:00[Europe/Madrid]</time>
      </trkpt>
      <trkpt lat="37.209492" lon="-5.350638">
        <ele>230.0</ele>
        <time>2022-09-26T14:13:19.998+02:00[Europe/Madrid]</time>
      </trkpt>
      <trkpt lat="37.209529" lon="-5.350354">
        <ele>230.0</ele>
        <time>2022-09-26T14:13:20.998+02:00[Europe/Madrid]</time>
      </trkpt>
      <trkpt lat="37.209568" lon="-5.350074">
        <ele>229.0</ele>
        <time>2022-09-26T14:13:21.998+02:00[Europe/Madrid]</time>
      </trkpt>
      <trkpt lat="37.209617" lon="-5.349796">
        <ele>229.0</ele>
        <time>2022-09-26T14:13:22.998+02:00[Europe/Madrid]</time>
      </trkpt>
      <trkpt lat="37.209677" lon="-5.349522">
        <ele>229.0</ele>
        <time>2022-09-26T14:13:23.998+02:00[Europe/Madrid]</time>
      </trkpt>
      <trkpt lat="37.209753" lon="-5.349247">
        <ele>229.0</ele>
        <time>2022-09-26T14:13:24.998+02:00[Europe/Madrid]</time>
      </trkpt>
      <trkpt lat="37.209843" lon="-5.348967">
        <ele>229.0</ele>
        <time>2022-09-26T14:13:25.998+02:00[Europe/Madrid]</time>
      </trkpt>
      <trkpt lat="37.209952" lon="-5.348681">
        <ele>228.0</ele>
        <time>2022-09-26T14:13:26.998+02:00[Europe/Madrid]</time>
      </trkpt>
      <trkpt lat="37.210078" lon="-5.348387">
        <ele>228.0</ele>
        <time>2022-09-26T14:13:27.998+02:00[Europe/Madrid]</time>
      </trkpt>
      <trkpt lat="37.210211" lon="-5.348079">
        <ele>228.0</ele>
        <time>2022-09-26T14:13:28.998+02:00[Europe/Madrid]</time>
      </trkpt>
      <trkpt lat="37.210346" lon="-5.347768">
        <ele>228.0</ele>
        <time>2022-09-26T14:13:29.998+02:00[Europe/Madrid]</time>
      </trkpt>
      <trkpt lat="37.210475" lon="-5.347471">
        <ele>228.0</ele>
        <time>2022-09-26T14:13:30.998+02:00[Europe/Madrid]</time>
      </trkpt>
      <trkpt lat="37.2106" lon="-5.34719">
        <ele>228.0</ele>
        <time>2022-09-26T14:13:31.998+02:00[Europe/Madrid]</time>
      </trkpt>
      <trkpt lat="37.210718" lon="-5.346918">
        <ele>229.0</ele>
        <time>2022-09-26T14:13:32.998+02:00[Europe/Madrid]</time>
      </trkpt>
      <trkpt lat="37.210826" lon="-5.346658">
        <ele>229.0</ele>
        <time>2022-09-26T14:13:33.998+02:00[Europe/Madrid]</time>
      </trkpt>
      <trkpt lat="37.210931" lon="-5.346417">
        <ele>230.0</ele>
        <time>2022-09-26T14:13:34.998+02:00[Europe/Madrid]</time>
      </trkpt>
      <trkpt lat="37.211038" lon="-5.346193">
        <ele>231.0</ele>
        <time>2022-09-26T14:13:35.998+02:00[Europe/Madrid]</time>
      </trkpt>
      <trkpt lat="37.211148" lon="-5.345967">
        <ele>232.0</ele>
        <time>2022-09-26T14:13:36.998+02:00[Europe/Madrid]</time>
      </trkpt>
      <trkpt lat="37.211267" lon="-5.345741">
        <ele>232.0</ele>
        <time>2022-09-26T14:13:37.998+02:00[Europe/Madrid]</time>
      </trkpt>
      <trkpt lat="37.211398" lon="-5.345513">
        <ele>232.0</ele>
        <time>2022-09-26T14:13:38.998+02:00[Europe/Madrid]</time>
      </trkpt>
      <trkpt lat="37.211536" lon="-5.345282">
        <ele>231.0</ele>
        <time>2022-09-26T14:13:39.998+02:00[Europe/Madrid]</time>
      </trkpt>
      <trkpt lat="37.211676" lon="-5.345049">
        <ele>232.0</ele>
        <time>2022-09-26T14:13:40.998+02:00[Europe/Madrid]</time>
      </trkpt>
      <trkpt lat="37.211812" lon="-5.344825">
        <ele>232.0</ele>
        <time>2022-09-26T14:13:41.998+02:00[Europe/Madrid]</time>
      </trkpt>
      <trkpt lat="37.211942" lon="-5.344608">
        <ele>232.0</ele>
        <time>2022-09-26T14:13:42.998+02:00[Europe/Madrid]</time>
      </trkpt>
      <trkpt lat="37.212072" lon="-5.344393">
        <ele>233.0</ele>
        <time>2022-09-26T14:13:43.998+02:00[Europe/Madrid]</time>
      </trkpt>
      <trkpt lat="37.212206" lon="-5.344179">
        <ele>232.0</ele>
        <time>2022-09-26T14:13:44.998+02:00[Europe/Madrid]</time>
      </trkpt>
      <trkpt lat="37.212342" lon="-5.343958">
        <ele>231.0</ele>
        <time>2022-09-26T14:13:45.998+02:00[Europe/Madrid]</time>
      </trkpt>
      <trkpt lat="37.212484" lon="-5.343727">
        <ele>230.0</ele>
        <time>2022-09-26T14:13:46.998+02:00[Europe/Madrid]</time>
      </trkpt>
      <trkpt lat="37.21263" lon="-5.343494">
        <ele>228.0</ele>
        <time>2022-09-26T14:13:47.998+02:00[Europe/Madrid]</time>
      </trkpt>
      <trkpt lat="37.212784" lon="-5.343251">
        <ele>228.0</ele>
        <time>2022-09-26T14:13:48.998+02:00[Europe/Madrid]</time>
      </trkpt>
      <trkpt lat="37.212936" lon="-5.343005">
        <ele>227.0</ele>
        <time>2022-09-26T14:13:49.998+02:00[Europe/Madrid]</time>
      </trkpt>
      <trkpt lat="37.213088" lon="-5.342763">
        <ele>227.0</ele>
        <time>2022-09-26T14:13:50.998+02:00[Europe/Madrid]</time>
      </trkpt>
      <trkpt lat="37.213232" lon="-5.342535">
        <ele>228.0</ele>
        <time>2022-09-26T14:13:51.998+02:00[Europe/Madrid]</time>
      </trkpt>
      <trkpt lat="37.213369" lon="-5.342314">
        <ele>229.0</ele>
        <time>2022-09-26T14:13:52.998+02:00[Europe/Madrid]</time>
      </trkpt>
      <trkpt lat="37.213496" lon="-5.342101">
        <ele>229.0</ele>
        <time>2022-09-26T14:13:53.998+02:00[Europe/Madrid]</time>
      </trkpt>
      <trkpt lat="37.213618" lon="-5.341885">
        <ele>230.0</ele>
        <time>2022-09-26T14:13:54.998+02:00[Europe/Madrid]</time>
      </trkpt>
      <trkpt lat="37.21373" lon="-5.341661">
        <ele>230.0</ele>
        <time>2022-09-26T14:13:55.998+02:00[Europe/Madrid]</time>
      </trkpt>
      <trkpt lat="37.213832" lon="-5.341428">
        <ele>231.0</ele>
        <time>2022-09-26T14:13:56.998+02:00[Europe/Madrid]</time>
      </trkpt>
      <trkpt lat="37.213919" lon="-5.341183">
        <ele>232.0</ele>
        <time>2022-09-26T14:13:57.998+02:00[Europe/Madrid]</time>
      </trkpt>
      <trkpt lat="37.213994" lon="-5.340925">
        <ele>233.0</ele>
        <time>2022-09-26T14:13:58.998+02:00[Europe/Madrid]</time>
      </trkpt>
      <trkpt lat="37.21406" lon="-5.340649">
        <ele>234.0</ele>
        <time>2022-09-26T14:13:59.998+02:00[Europe/Madrid]</time>
      </trkpt>
      <trkpt lat="37.214123" lon="-5.340365">
        <ele>234.0</ele>
        <time>2022-09-26T14:14:00.998+02:00[Europe/Madrid]</time>
      </trkpt>
      <trkpt lat="37.214187" lon="-5.340081">
        <ele>235.0</ele>
        <time>2022-09-26T14:14:01.998+02:00[Europe/Madrid]</time>
      </trkpt>
      <trkpt lat="37.214249" lon="-5.339795">
        <ele>235.0</ele>
        <time>2022-09-26T14:14:02.998+02:00[Europe/Madrid]</time>
      </trkpt>
      <trkpt lat="37.21431" lon="-5.339517">
        <ele>235.0</ele>
        <time>2022-09-26T14:14:03.998+02:00[Europe/Madrid]</time>
      </trkpt>
      <trkpt lat="37.214364" lon="-5.339254">
        <ele>236.0</ele>
        <time>2022-09-26T14:14:04.998+02:00[Europe/Madrid]</time>
      </trkpt>
      <trkpt lat="37.214417" lon="-5.338999">
        <ele>236.0</ele>
        <time>2022-09-26T14:14:05.998+02:00[Europe/Madrid]</time>
      </trkpt>
      <trkpt lat="37.214471" lon="-5.338754">
        <ele>237.0</ele>
        <time>2022-09-26T14:14:06.998+02:00[Europe/Madrid]</time>
      </trkpt>
      <trkpt lat="37.214524" lon="-5.338515">
        <ele>237.0</ele>
        <time>2022-09-26T14:14:07.998+02:00[Europe/Madrid]</time>
      </trkpt>
      <trkpt lat="37.214577" lon="-5.338287">
        <ele>237.0</ele>
        <time>2022-09-26T14:14:08.998+02:00[Europe/Madrid]</time>
      </trkpt>
      <trkpt lat="37.214633" lon="-5.338063">
        <ele>237.0</ele>
        <time>2022-09-26T14:14:09.998+02:00[Europe/Madrid]</time>
      </trkpt>
      <trkpt lat="37.214693" lon="-5.337851">
        <ele>237.0</ele>
        <time>2022-09-26T14:14:10.998+02:00[Europe/Madrid]</time>
      </trkpt>
      <trkpt lat="37.214769" lon="-5.337642">
        <ele>236.0</ele>
        <time>2022-09-26T14:14:11.998+02:00[Europe/Madrid]</time>
      </trkpt>
      <trkpt lat="37.214865" lon="-5.337434">
        <ele>236.0</ele>
        <time>2022-09-26T14:14:12.998+02:00[Europe/Madrid]</time>
      </trkpt>
      <trkpt lat="37.214983" lon="-5.337218">
        <ele>236.0</ele>
        <time>2022-09-26T14:14:13.998+02:00[Europe/Madrid]</time>
      </trkpt>
      <trkpt lat="37.215115" lon="-5.337">
        <ele>235.0</ele>
        <time>2022-09-26T14:14:14.998+02:00[Europe/Madrid]</time>
      </trkpt>
      <trkpt lat="37.215256" lon="-5.336771">
        <ele>235.0</ele>
        <time>2022-09-26T14:14:15.998+02:00[Europe/Madrid]</time>
      </trkpt>
      <trkpt lat="37.215405" lon="-5.336533">
        <ele>235.0</ele>
        <time>2022-09-26T14:14:16.998+02:00[Europe/Madrid]</time>
      </trkpt>
      <trkpt lat="37.215559" lon="-5.336287">
        <ele>234.0</ele>
        <time>2022-09-26T14:14:17.998+02:00[Europe/Madrid]</time>
      </trkpt>
      <trkpt lat="37.215721" lon="-5.336035">
        <ele>234.0</ele>
        <time>2022-09-26T14:14:18.998+02:00[Europe/Madrid]</time>
      </trkpt>
      <trkpt lat="37.215886" lon="-5.335777">
        <ele>233.0</ele>
        <time>2022-09-26T14:14:19.998+02:00[Europe/Madrid]</time>
      </trkpt>
      <trkpt lat="37.216047" lon="-5.33552">
        <ele>233.0</ele>
        <time>2022-09-26T14:14:20.998+02:00[Europe/Madrid]</time>
      </trkpt>
      <trkpt lat="37.216203" lon="-5.335269">
        <ele>233.0</ele>
        <time>2022-09-26T14:14:21.998+02:00[Europe/Madrid]</time>
      </trkpt>
      <trkpt lat="37.216357" lon="-5.335026">
        <ele>232.0</ele>
        <time>2022-09-26T14:14:22.998+02:00[Europe/Madrid]</time>
      </trkpt>
      <trkpt lat="37.216506" lon="-5.334786">
        <ele>232.0</ele>
        <time>2022-09-26T14:14:23.998+02:00[Europe/Madrid]</time>
      </trkpt>
      <trkpt lat="37.216649" lon="-5.334553">
        <ele>231.0</ele>
        <time>2022-09-26T14:14:24.998+02:00[Europe/Madrid]</time>
      </trkpt>
      <trkpt lat="37.216791" lon="-5.334321">
        <ele>230.0</ele>
        <time>2022-09-26T14:14:25.998+02:00[Europe/Madrid]</time>
      </trkpt>
      <trkpt lat="37.21693" lon="-5.334096">
        <ele>229.0</ele>
        <time>2022-09-26T14:14:26.998+02:00[Europe/Madrid]</time>
      </trkpt>
      <trkpt lat="37.217069" lon="-5.333872">
        <ele>228.0</ele>
        <time>2022-09-26T14:14:27.998+02:00[Europe/Madrid]</time>
      </trkpt>
      <trkpt lat="37.2172" lon="-5.333636">
        <ele>227.0</ele>
        <time>2022-09-26T14:14:28.998+02:00[Europe/Madrid]</time>
      </trkpt>
      <trkpt lat="37.21732" lon="-5.333383">
        <ele>226.0</ele>
        <time>2022-09-26T14:14:29.998+02:00[Europe/Madrid]</time>
      </trkpt>
      <trkpt lat="37.217426" lon="-5.33311">
        <ele>226.0</ele>
        <time>2022-09-26T14:14:30.998+02:00[Europe/Madrid]</time>
      </trkpt>
      <trkpt lat="37.217519" lon="-5.332816">
        <ele>226.0</ele>
        <time>2022-09-26T14:14:31.998+02:00[Europe/Madrid]</time>
      </trkpt>
      <trkpt lat="37.217614" lon="-5.332502">
        <ele>226.0</ele>
        <time>2022-09-26T14:14:32.998+02:00[Europe/Madrid]</time>
      </trkpt>
      <trkpt lat="37.217708" lon="-5.332188">
        <ele>226.0</ele>
        <time>2022-09-26T14:14:33.998+02:00[Europe/Madrid]</time>
      </trkpt>
      <trkpt lat="37.217798" lon="-5.331892">
        <ele>226.0</ele>
        <time>2022-09-26T14:14:34.998+02:00[Europe/Madrid]</time>
      </trkpt>
      <trkpt lat="37.217882" lon="-5.331609">
        <ele>227.0</ele>
        <time>2022-09-26T14:14:35.998+02:00[Europe/Madrid]</time>
      </trkpt>
      <trkpt lat="37.217964" lon="-5.331345">
        <ele>228.0</ele>
        <time>2022-09-26T14:14:36.998+02:00[Europe/Madrid]</time>
      </trkpt>
      <trkpt lat="37.218047" lon="-5.331096">
        <ele>229.0</ele>
        <time>2022-09-26T14:14:37.998+02:00[Europe/Madrid]</time>
      </trkpt>
      <trkpt lat="37.218129" lon="-5.330866">
        <ele>229.0</ele>
        <time>2022-09-26T14:14:38.998+02:00[Europe/Madrid]</time>
      </trkpt>
      <trkpt lat="37.218225" lon="-5.330649">
        <ele>229.0</ele>
        <time>2022-09-26T14:14:39.998+02:00[Europe/Madrid]</time>
      </trkpt>
      <trkpt lat="37.218343" lon="-5.330437">
        <ele>229.0</ele>
        <time>2022-09-26T14:14:40.998+02:00[Europe/Madrid]</time>
      </trkpt>
      <trkpt lat="37.218476" lon="-5.330224">
        <ele>229.0</ele>
        <time>2022-09-26T14:14:41.998+02:00[Europe/Madrid]</time>
      </trkpt>
      <trkpt lat="37.218623" lon="-5.330005">
        <ele>229.0</ele>
        <time>2022-09-26T14:14:42.998+02:00[Europe/Madrid]</time>
      </trkpt>
      <trkpt lat="37.218777" lon="-5.329777">
        <ele>230.0</ele>
        <time>2022-09-26T14:14:43.998+02:00[Europe/Madrid]</time>
      </trkpt>
      <trkpt lat="37.218937" lon="-5.329542">
        <ele>230.0</ele>
        <time>2022-09-26T14:14:44.998+02:00[Europe/Madrid]</time>
      </trkpt>
      <trkpt lat="37.219104" lon="-5.329306">
        <ele>230.0</ele>
        <time>2022-09-26T14:14:45.998+02:00[Europe/Madrid]</time>
      </trkpt>
      <trkpt lat="37.219275" lon="-5.329062">
        <ele>231.0</ele>
        <time>2022-09-26T14:14:46.998+02:00[Europe/Madrid]</time>
      </trkpt>
      <trkpt lat="37.219444" lon="-5.328816">
        <ele>231.0</ele>
        <time>2022-09-26T14:14:47.998+02:00[Europe/Madrid]</time>
      </trkpt>
      <trkpt lat="37.219605" lon="-5.328588">
        <ele>232.0</ele>
        <time>2022-09-26T14:14:48.998+02:00[Europe/Madrid]</time>
      </trkpt>
      <trkpt lat="37.219763" lon="-5.328362">
        <ele>233.0</ele>
        <time>2022-09-26T14:14:49.998+02:00[Europe/Madrid]</time>
      </trkpt>
      <trkpt lat="37.219915" lon="-5.328146">
        <ele>233.0</ele>
        <time>2022-09-26T14:14:50.998+02:00[Europe/Madrid]</time>
      </trkpt>
      <trkpt lat="37.220056" lon="-5.327938">
        <ele>234.0</ele>
        <time>2022-09-26T14:14:51.998+02:00[Europe/Madrid]</time>
      </trkpt>
      <trkpt lat="37.22019" lon="-5.32774">
        <ele>235.0</ele>
        <time>2022-09-26T14:14:52.998+02:00[Europe/Madrid]</time>
      </trkpt>
      <trkpt lat="37.220317" lon="-5.327558">
        <ele>235.0</ele>
        <time>2022-09-26T14:14:53.998+02:00[Europe/Madrid]</time>
      </trkpt>
      <trkpt lat="37.220442" lon="-5.327377">
        <ele>236.0</ele>
        <time>2022-09-26T14:14:54.998+02:00[Europe/Madrid]</time>
      </trkpt>
      <trkpt lat="37.220559" lon="-5.327188">
        <ele>236.0</ele>
        <time>2022-09-26T14:14:55.998+02:00[Europe/Madrid]</time>
      </trkpt>
      <trkpt lat="37.220665" lon="-5.326989">
        <ele>236.0</ele>
        <time>2022-09-26T14:14:56.998+02:00[Europe/Madrid]</time>
      </trkpt>
      <trkpt lat="37.220752" lon="-5.326774">
        <ele>237.0</ele>
        <time>2022-09-26T14:14:57.998+02:00[Europe/Madrid]</time>
      </trkpt>
      <trkpt lat="37.220826" lon="-5.326557">
        <ele>237.0</ele>
        <time>2022-09-26T14:14:58.998+02:00[Europe/Madrid]</time>
      </trkpt>
      <trkpt lat="37.220885" lon="-5.326345">
        <ele>238.0</ele>
        <time>2022-09-26T14:14:59.998+02:00[Europe/Madrid]</time>
      </trkpt>
      <trkpt lat="37.220934" lon="-5.326141">
        <ele>239.0</ele>
        <time>2022-09-26T14:15:00.998+02:00[Europe/Madrid]</time>
      </trkpt>
      <trkpt lat="37.220977" lon="-5.325949">
        <ele>239.0</ele>
        <time>2022-09-26T14:15:01.998+02:00[Europe/Madrid]</time>
      </trkpt>
      <trkpt lat="37.221012" lon="-5.325765">
        <ele>239.0</ele>
        <time>2022-09-26T14:15:02.998+02:00[Europe/Madrid]</time>
      </trkpt>
      <trkpt lat="37.221041" lon="-5.32559">
        <ele>239.0</ele>
        <time>2022-09-26T14:15:03.998+02:00[Europe/Madrid]</time>
      </trkpt>
      <trkpt lat="37.221065" lon="-5.325424">
        <ele>239.0</ele>
        <time>2022-09-26T14:15:04.998+02:00[Europe/Madrid]</time>
      </trkpt>
      <trkpt lat="37.221084" lon="-5.325266">
        <ele>239.0</ele>
        <time>2022-09-26T14:15:05.998+02:00[Europe/Madrid]</time>
      </trkpt>
      <trkpt lat="37.221097" lon="-5.325123">
        <ele>239.0</ele>
        <time>2022-09-26T14:15:06.998+02:00[Europe/Madrid]</time>
      </trkpt>
      <trkpt lat="37.221108" lon="-5.324992">
        <ele>238.0</ele>
        <time>2022-09-26T14:15:07.998+02:00[Europe/Madrid]</time>
      </trkpt>
      <trkpt lat="37.221115" lon="-5.324874">
        <ele>238.0</ele>
        <time>2022-09-26T14:15:08.998+02:00[Europe/Madrid]</time>
      </trkpt>
      <trkpt lat="37.221128" lon="-5.324663">
        <ele>238.0</ele>
        <time>2022-09-26T14:15:10.881+02:00[Europe/Madrid]</time>
      </trkpt>
      <trkpt lat="37.221135" lon="-5.324466">
        <ele>238.0</ele>
        <time>2022-09-26T14:15:12.894+02:00[Europe/Madrid]</time>
      </trkpt>
      <trkpt lat="37.221153" lon="-5.324266">
        <ele>237.0</ele>
        <time>2022-09-26T14:15:14.881+02:00[Europe/Madrid]</time>
      </trkpt>
      <trkpt lat="37.221169" lon="-5.324052">
        <ele>237.0</ele>
        <time>2022-09-26T14:15:16.885+02:00[Europe/Madrid]</time>
      </trkpt>
      <trkpt lat="37.221178" lon="-5.323933">
        <ele>236.0</ele>
        <time>2022-09-26T14:15:17.885+02:00[Europe/Madrid]</time>
      </trkpt>
      <trkpt lat="37.221185" lon="-5.323808">
        <ele>236.0</ele>
        <time>2022-09-26T14:15:18.885+02:00[Europe/Madrid]</time>
      </trkpt>
      <trkpt lat="37.221184" lon="-5.323679">
        <ele>235.0</ele>
        <time>2022-09-26T14:15:19.885+02:00[Europe/Madrid]</time>
      </trkpt>
      <trkpt lat="37.22118" lon="-5.323525">
        <ele>235.0</ele>
        <time>2022-09-26T14:15:20.885+02:00[Europe/Madrid]</time>
      </trkpt>
      <trkpt lat="37.221179" lon="-5.323365">
        <ele>234.0</ele>
        <time>2022-09-26T14:15:21.885+02:00[Europe/Madrid]</time>
      </trkpt>
      <trkpt lat="37.221183" lon="-5.323212">
        <ele>234.0</ele>
        <time>2022-09-26T14:15:22.885+02:00[Europe/Madrid]</time>
      </trkpt>
      <trkpt lat="37.22119" lon="-5.323065">
        <ele>234.0</ele>
        <time>2022-09-26T14:15:23.885+02:00[Europe/Madrid]</time>
      </trkpt>
      <trkpt lat="37.221191" lon="-5.322926">
        <ele>233.0</ele>
        <time>2022-09-26T14:15:24.885+02:00[Europe/Madrid]</time>
      </trkpt>
      <trkpt lat="37.2212" lon="-5.322784">
        <ele>233.0</ele>
        <time>2022-09-26T14:15:25.885+02:00[Europe/Madrid]</time>
      </trkpt>
      <trkpt lat="37.221208" lon="-5.322636">
        <ele>233.0</ele>
        <time>2022-09-26T14:15:26.886+02:00[Europe/Madrid]</time>
      </trkpt>
      <trkpt lat="37.221212" lon="-5.322488">
        <ele>234.0</ele>
        <time>2022-09-26T14:15:27.886+02:00[Europe/Madrid]</time>
      </trkpt>
      <trkpt lat="37.221216" lon="-5.322344">
        <ele>233.0</ele>
        <time>2022-09-26T14:15:28.891+02:00[Europe/Madrid]</time>
      </trkpt>
      <trkpt lat="37.221217" lon="-5.322204">
        <ele>233.0</ele>
        <time>2022-09-26T14:15:29.891+02:00[Europe/Madrid]</time>
      </trkpt>
      <trkpt lat="37.221221" lon="-5.322074">
        <ele>233.0</ele>
        <time>2022-09-26T14:15:30.891+02:00[Europe/Madrid]</time>
      </trkpt>
      <trkpt lat="37.221225" lon="-5.321946">
        <ele>233.0</ele>
        <time>2022-09-26T14:15:31.891+02:00[Europe/Madrid]</time>
      </trkpt>
      <trkpt lat="37.221225" lon="-5.321818">
        <ele>233.0</ele>
        <time>2022-09-26T14:15:32.891+02:00[Europe/Madrid]</time>
      </trkpt>
      <trkpt lat="37.221231" lon="-5.321693">
        <ele>233.0</ele>
        <time>2022-09-26T14:15:33.891+02:00[Europe/Madrid]</time>
      </trkpt>
      <trkpt lat="37.221235" lon="-5.321577">
        <ele>233.0</ele>
        <time>2022-09-26T14:15:34.891+02:00[Europe/Madrid]</time>
      </trkpt>
      <trkpt lat="37.221235" lon="-5.321455">
        <ele>233.0</ele>
        <time>2022-09-26T14:15:35.891+02:00[Europe/Madrid]</time>
      </trkpt>
      <trkpt lat="37.22123" lon="-5.321335">
        <ele>233.0</ele>
        <time>2022-09-26T14:15:36.892+02:00[Europe/Madrid]</time>
      </trkpt>
      <trkpt lat="37.221242" lon="-5.321105">
        <ele>233.0</ele>
        <time>2022-09-26T14:15:38.890+02:00[Europe/Madrid]</time>
      </trkpt>
      <trkpt lat="37.221258" lon="-5.32098">
        <ele>234.0</ele>
        <time>2022-09-26T14:15:39.890+02:00[Europe/Madrid]</time>
      </trkpt>
      <trkpt lat="37.221268" lon="-5.320839">
        <ele>234.0</ele>
        <time>2022-09-26T14:15:40.890+02:00[Europe/Madrid]</time>
      </trkpt>
      <trkpt lat="37.221275" lon="-5.320681">
        <ele>234.0</ele>
        <time>2022-09-26T14:15:41.890+02:00[Europe/Madrid]</time>
      </trkpt>
      <trkpt lat="37.221286" lon="-5.320525">
        <ele>234.0</ele>
        <time>2022-09-26T14:15:42.890+02:00[Europe/Madrid]</time>
      </trkpt>
      <trkpt lat="37.221301" lon="-5.320372">
        <ele>234.0</ele>
        <time>2022-09-26T14:15:43.890+02:00[Europe/Madrid]</time>
      </trkpt>
      <trkpt lat="37.221312" lon="-5.320218">
        <ele>234.0</ele>
        <time>2022-09-26T14:15:44.890+02:00[Europe/Madrid]</time>
      </trkpt>
      <trkpt lat="37.221324" lon="-5.320061">
        <ele>234.0</ele>
        <time>2022-09-26T14:15:45.890+02:00[Europe/Madrid]</time>
      </trkpt>
      <trkpt lat="37.221339" lon="-5.319893">
        <ele>234.0</ele>
        <time>2022-09-26T14:15:46.892+02:00[Europe/Madrid]</time>
      </trkpt>
      <trkpt lat="37.221363" lon="-5.319693">
        <ele>234.0</ele>
        <time>2022-09-26T14:15:47.892+02:00[Europe/Madrid]</time>
      </trkpt>
      <trkpt lat="37.221392" lon="-5.319492">
        <ele>234.0</ele>
        <time>2022-09-26T14:15:48.894+02:00[Europe/Madrid]</time>
      </trkpt>
      <trkpt lat="37.221413" lon="-5.319303">
        <ele>234.0</ele>
        <time>2022-09-26T14:15:49.894+02:00[Europe/Madrid]</time>
      </trkpt>
      <trkpt lat="37.221437" lon="-5.319126">
        <ele>234.0</ele>
        <time>2022-09-26T14:15:50.894+02:00[Europe/Madrid]</time>
      </trkpt>
      <trkpt lat="37.22146" lon="-5.318963">
        <ele>234.0</ele>
        <time>2022-09-26T14:15:51.894+02:00[Europe/Madrid]</time>
      </trkpt>
      <trkpt lat="37.221482" lon="-5.318815">
        <ele>234.0</ele>
        <time>2022-09-26T14:15:52.894+02:00[Europe/Madrid]</time>
      </trkpt>
      <trkpt lat="37.221501" lon="-5.318678">
        <ele>234.0</ele>
        <time>2022-09-26T14:15:53.894+02:00[Europe/Madrid]</time>
      </trkpt>
      <trkpt lat="37.22152" lon="-5.318541">
        <ele>234.0</ele>
        <time>2022-09-26T14:15:54.899+02:00[Europe/Madrid]</time>
      </trkpt>
      <trkpt lat="37.221541" lon="-5.318411">
        <ele>234.0</ele>
        <time>2022-09-26T14:15:55.899+02:00[Europe/Madrid]</time>
      </trkpt>
      <trkpt lat="37.221559" lon="-5.318285">
        <ele>234.0</ele>
        <time>2022-09-26T14:15:56.899+02:00[Europe/Madrid]</time>
      </trkpt>
      <trkpt lat="37.221572" lon="-5.318171">
        <ele>233.0</ele>
        <time>2022-09-26T14:15:57.944+02:00[Europe/Madrid]</time>
      </trkpt>
      <trkpt lat="37.221587" lon="-5.318052">
        <ele>233.0</ele>
        <time>2022-09-26T14:15:58.944+02:00[Europe/Madrid]</time>
      </trkpt>
      <trkpt lat="37.221605" lon="-5.317921">
        <ele>232.0</ele>
        <time>2022-09-26T14:15:59.944+02:00[Europe/Madrid]</time>
      </trkpt>
      <trkpt lat="37.221626" lon="-5.317797">
        <ele>232.0</ele>
        <time>2022-09-26T14:16:00.944+02:00[Europe/Madrid]</time>
      </trkpt>
      <trkpt lat="37.221648" lon="-5.317679">
        <ele>231.0</ele>
        <time>2022-09-26T14:16:01.944+02:00[Europe/Madrid]</time>
      </trkpt>
      <trkpt lat="37.22167" lon="-5.317563">
        <ele>231.0</ele>
        <time>2022-09-26T14:16:02.944+02:00[Europe/Madrid]</time>
      </trkpt>
      <trkpt lat="37.221698" lon="-5.31745">
        <ele>231.0</ele>
        <time>2022-09-26T14:16:03.944+02:00[Europe/Madrid]</time>
      </trkpt>
      <trkpt lat="37.221727" lon="-5.31734">
        <ele>231.0</ele>
        <time>2022-09-26T14:16:04.944+02:00[Europe/Madrid]</time>
      </trkpt>
      <trkpt lat="37.221757" lon="-5.317233">
        <ele>231.0</ele>
        <time>2022-09-26T14:16:05.944+02:00[Europe/Madrid]</time>
      </trkpt>
      <trkpt lat="37.221813" lon="-5.317043">
        <ele>231.0</ele>
        <time>2022-09-26T14:16:07.891+02:00[Europe/Madrid]</time>
      </trkpt>
      <trkpt lat="37.221869" lon="-5.316873">
        <ele>230.0</ele>
        <time>2022-09-26T14:16:09.881+02:00[Europe/Madrid]</time>
      </trkpt>
      <trkpt lat="37.221918" lon="-5.316709">
        <ele>229.0</ele>
        <time>2022-09-26T14:16:11.892+02:00[Europe/Madrid]</time>
      </trkpt>
      <trkpt lat="37.22197" lon="-5.316525">
        <ele>229.0</ele>
        <time>2022-09-26T14:16:13.878+02:00[Europe/Madrid]</time>
      </trkpt>
      <trkpt lat="37.222022" lon="-5.316339">
        <ele>228.0</ele>
        <time>2022-09-26T14:16:15.887+02:00[Europe/Madrid]</time>
      </trkpt>
      <trkpt lat="37.22206" lon="-5.316163">
        <ele>227.0</ele>
        <time>2022-09-26T14:16:17.886+02:00[Europe/Madrid]</time>
      </trkpt>
      <trkpt lat="37.2221" lon="-5.316013">
        <ele>226.0</ele>
        <time>2022-09-26T14:16:19.897+02:00[Europe/Madrid]</time>
      </trkpt>
      <trkpt lat="37.222131" lon="-5.315881">
        <ele>226.0</ele>
        <time>2022-09-26T14:16:21.881+02:00[Europe/Madrid]</time>
      </trkpt>
      <trkpt lat="37.222171" lon="-5.315717">
        <ele>225.0</ele>
        <time>2022-09-26T14:16:23.886+02:00[Europe/Madrid]</time>
      </trkpt>
      <trkpt lat="37.222217" lon="-5.315559">
        <ele>224.0</ele>
        <time>2022-09-26T14:16:25.888+02:00[Europe/Madrid]</time>
      </trkpt>
      <trkpt lat="37.222256" lon="-5.315427">
        <ele>224.0</ele>
        <time>2022-09-26T14:16:28.889+02:00[Europe/Madrid]</time>
      </trkpt>
      <trkpt lat="37.222289" lon="-5.315309">
        <ele>225.0</ele>
        <time>2022-09-26T14:16:35.896+02:00[Europe/Madrid]</time>
      </trkpt>
      <trkpt lat="37.222328" lon="-5.315196">
        <ele>225.0</ele>
        <time>2022-09-26T14:16:37.901+02:00[Europe/Madrid]</time>
      </trkpt>
      <trkpt lat="37.222368" lon="-5.315095">
        <ele>225.0</ele>
        <time>2022-09-26T14:16:39.886+02:00[Europe/Madrid]</time>
      </trkpt>
      <trkpt lat="37.222426" lon="-5.314949">
        <ele>225.0</ele>
        <time>2022-09-26T14:16:42.890+02:00[Europe/Madrid]</time>
      </trkpt>
      <trkpt lat="37.222492" lon="-5.314787">
        <ele>225.0</ele>
        <time>2022-09-26T14:16:45.882+02:00[Europe/Madrid]</time>
      </trkpt>
      <trkpt lat="37.222523" lon="-5.314677">
        <ele>225.0</ele>
        <time>2022-09-26T14:16:47.902+02:00[Europe/Madrid]</time>
      </trkpt>
      <trkpt lat="37.222594" lon="-5.314536">
        <ele>224.0</ele>
        <time>2022-09-26T14:16:50.885+02:00[Europe/Madrid]</time>
      </trkpt>
      <trkpt lat="37.222674" lon="-5.314406">
        <ele>224.0</ele>
        <time>2022-09-26T14:16:53.875+02:00[Europe/Madrid]</time>
      </trkpt>
      <trkpt lat="37.222737" lon="-5.314306">
        <ele>224.0</ele>
        <time>2022-09-26T14:16:55.886+02:00[Europe/Madrid]</time>
      </trkpt>
      <trkpt lat="37.222797" lon="-5.3142">
        <ele>224.0</ele>
        <time>2022-09-26T14:16:57.925+02:00[Europe/Madrid]</time>
      </trkpt>
      <trkpt lat="37.222856" lon="-5.314103">
        <ele>225.0</ele>
        <time>2022-09-26T14:16:59.886+02:00[Europe/Madrid]</time>
      </trkpt>
      <trkpt lat="37.222915" lon="-5.313965">
        <ele>225.0</ele>
        <time>2022-09-26T14:17:02.881+02:00[Europe/Madrid]</time>
      </trkpt>
      <trkpt lat="37.222954" lon="-5.313805">
        <ele>223.0</ele>
        <time>2022-09-26T14:17:14.887+02:00[Europe/Madrid]</time>
      </trkpt>
      <trkpt lat="37.222957" lon="-5.313654">
        <ele>222.0</ele>
        <time>2022-09-26T14:17:16.897+02:00[Europe/Madrid]</time>
      </trkpt>
      <trkpt lat="37.222964" lon="-5.313499">
        <ele>222.0</ele>
        <time>2022-09-26T14:17:18.883+02:00[Europe/Madrid]</time>
      </trkpt>
      <trkpt lat="37.222977" lon="-5.313371">
        <ele>221.0</ele>
        <time>2022-09-26T14:17:20.882+02:00[Europe/Madrid]</time>
      </trkpt>
      <trkpt lat="37.222976" lon="-5.31323">
        <ele>221.0</ele>
        <time>2022-09-26T14:17:22.889+02:00[Europe/Madrid]</time>
      </trkpt>
      <trkpt lat="37.22297" lon="-5.313106">
        <ele>220.0</ele>
        <time>2022-09-26T14:17:24.889+02:00[Europe/Madrid]</time>
      </trkpt>
      <trkpt lat="37.222964" lon="-5.31295">
        <ele>219.0</ele>
        <time>2022-09-26T14:17:27.887+02:00[Europe/Madrid]</time>
      </trkpt>
      <trkpt lat="37.222979" lon="-5.312818">
        <ele>219.0</ele>
        <time>2022-09-26T14:17:30.884+02:00[Europe/Madrid]</time>
      </trkpt>
      <trkpt lat="37.223092" lon="-5.312738">
        <ele>220.0</ele>
        <time>2022-09-26T14:17:33.879+02:00[Europe/Madrid]</time>
      </trkpt>
      <trkpt lat="37.223227" lon="-5.312668">
        <ele>220.0</ele>
        <time>2022-09-26T14:17:35.889+02:00[Europe/Madrid]</time>
      </trkpt>
      <trkpt lat="37.223342" lon="-5.312625">
        <ele>220.0</ele>
        <time>2022-09-26T14:17:37.881+02:00[Europe/Madrid]</time>
      </trkpt>
      <trkpt lat="37.223458" lon="-5.312584">
        <ele>220.0</ele>
        <time>2022-09-26T14:17:39.886+02:00[Europe/Madrid]</time>
      </trkpt>
      <trkpt lat="37.223588" lon="-5.312537">
        <ele>221.0</ele>
        <time>2022-09-26T14:17:41.885+02:00[Europe/Madrid]</time>
      </trkpt>
      <trkpt lat="37.223712" lon="-5.312485">
        <ele>222.0</ele>
        <time>2022-09-26T14:17:43.890+02:00[Europe/Madrid]</time>
      </trkpt>
      <trkpt lat="37.223835" lon="-5.312439">
        <ele>222.0</ele>
        <time>2022-09-26T14:17:45.885+02:00[Europe/Madrid]</time>
      </trkpt>
      <trkpt lat="37.223954" lon="-5.312395">
        <ele>223.0</ele>
        <time>2022-09-26T14:17:47.888+02:00[Europe/Madrid]</time>
      </trkpt>
      <trkpt lat="37.22409" lon="-5.312349">
        <ele>223.0</ele>
        <time>2022-09-26T14:17:49.880+02:00[Europe/Madrid]</time>
      </trkpt>
      <trkpt lat="37.224221" lon="-5.312302">
        <ele>223.0</ele>
        <time>2022-09-26T14:17:51.889+02:00[Europe/Madrid]</time>
      </trkpt>
      <trkpt lat="37.224342" lon="-5.312257">
        <ele>222.0</ele>
        <time>2022-09-26T14:17:53.884+02:00[Europe/Madrid]</time>
      </trkpt>
      <trkpt lat="37.224442" lon="-5.312225">
        <ele>222.0</ele>
        <time>2022-09-26T14:17:55.893+02:00[Europe/Madrid]</time>
      </trkpt>
      <trkpt lat="37.22455" lon="-5.312186">
        <ele>222.0</ele>
        <time>2022-09-26T14:17:57.876+02:00[Europe/Madrid]</time>
      </trkpt>
      <trkpt lat="37.224677" lon="-5.312125">
        <ele>221.0</ele>
        <time>2022-09-26T14:17:59.878+02:00[Europe/Madrid]</time>
      </trkpt>
      <trkpt lat="37.224809" lon="-5.31208">
        <ele>221.0</ele>
        <time>2022-09-26T14:18:01.876+02:00[Europe/Madrid]</time>
      </trkpt>
      <trkpt lat="37.224929" lon="-5.312032">
        <ele>221.0</ele>
        <time>2022-09-26T14:18:03.887+02:00[Europe/Madrid]</time>
      </trkpt>
      <trkpt lat="37.225048" lon="-5.311979">
        <ele>220.0</ele>
        <time>2022-09-26T14:18:05.880+02:00[Europe/Madrid]</time>
      </trkpt>
      <trkpt lat="37.225163" lon="-5.311939">
        <ele>220.0</ele>
        <time>2022-09-26T14:18:07.878+02:00[Europe/Madrid]</time>
      </trkpt>
      <trkpt lat="37.225278" lon="-5.3119">
        <ele>219.0</ele>
        <time>2022-09-26T14:18:09.893+02:00[Europe/Madrid]</time>
      </trkpt>
      <trkpt lat="37.225372" lon="-5.311873">
        <ele>219.0</ele>
        <time>2022-09-26T14:18:11.891+02:00[Europe/Madrid]</time>
      </trkpt>
      <trkpt lat="37.225493" lon="-5.311826">
        <ele>219.0</ele>
        <time>2022-09-26T14:18:13.889+02:00[Europe/Madrid]</time>
      </trkpt>
      <trkpt lat="37.22561" lon="-5.311762">
        <ele>217.0</ele>
        <time>2022-09-26T14:18:15.887+02:00[Europe/Madrid]</time>
      </trkpt>
      <trkpt lat="37.225715" lon="-5.311659">
        <ele>215.0</ele>
        <time>2022-09-26T14:18:17.886+02:00[Europe/Madrid]</time>
      </trkpt>
      <trkpt lat="37.225822" lon="-5.31151">
        <ele>213.0</ele>
        <time>2022-09-26T14:18:19.888+02:00[Europe/Madrid]</time>
      </trkpt>
      <trkpt lat="37.225919" lon="-5.311342">
        <ele>213.0</ele>
        <time>2022-09-26T14:18:21.889+02:00[Europe/Madrid]</time>
      </trkpt>
      <trkpt lat="37.226012" lon="-5.311174">
        <ele>213.0</ele>
        <time>2022-09-26T14:18:23.875+02:00[Europe/Madrid]</time>
      </trkpt>
      <trkpt lat="37.226108" lon="-5.311001">
        <ele>212.0</ele>
        <time>2022-09-26T14:18:25.887+02:00[Europe/Madrid]</time>
      </trkpt>
      <trkpt lat="37.226204" lon="-5.310829">
        <ele>212.0</ele>
        <time>2022-09-26T14:18:27.926+02:00[Europe/Madrid]</time>
      </trkpt>
      <trkpt lat="37.226301" lon="-5.310672">
        <ele>211.0</ele>
        <time>2022-09-26T14:18:29.888+02:00[Europe/Madrid]</time>
      </trkpt>
      <trkpt lat="37.226384" lon="-5.31052">
        <ele>209.0</ele>
        <time>2022-09-26T14:18:31.882+02:00[Europe/Madrid]</time>
      </trkpt>
      <trkpt lat="37.226457" lon="-5.310388">
        <ele>209.0</ele>
        <time>2022-09-26T14:18:33.893+02:00[Europe/Madrid]</time>
      </trkpt>
      <trkpt lat="37.226516" lon="-5.310286">
        <ele>207.0</ele>
        <time>2022-09-26T14:18:47.882+02:00[Europe/Madrid]</time>
      </trkpt>
      <trkpt lat="37.226572" lon="-5.31016">
        <ele>206.0</ele>
        <time>2022-09-26T14:18:51.925+02:00[Europe/Madrid]</time>
      </trkpt>
      <trkpt lat="37.226612" lon="-5.310021">
        <ele>206.0</ele>
        <time>2022-09-26T14:18:53.888+02:00[Europe/Madrid]</time>
      </trkpt>
      <trkpt lat="37.226625" lon="-5.309854">
        <ele>205.0</ele>
        <time>2022-09-26T14:18:55.884+02:00[Europe/Madrid]</time>
      </trkpt>
      <trkpt lat="37.226621" lon="-5.309683">
        <ele>204.0</ele>
        <time>2022-09-26T14:18:57.887+02:00[Europe/Madrid]</time>
      </trkpt>
      <trkpt lat="37.226597" lon="-5.309489">
        <ele>204.0</ele>
        <time>2022-09-26T14:18:59.888+02:00[Europe/Madrid]</time>
      </trkpt>
      <trkpt lat="37.226587" lon="-5.309377">
        <ele>203.0</ele>
        <time>2022-09-26T14:19:00.888+02:00[Europe/Madrid]</time>
      </trkpt>
      <trkpt lat="37.226572" lon="-5.30925">
        <ele>203.0</ele>
        <time>2022-09-26T14:19:01.888+02:00[Europe/Madrid]</time>
      </trkpt>
      <trkpt lat="37.226557" lon="-5.309124">
        <ele>202.0</ele>
        <time>2022-09-26T14:19:02.888+02:00[Europe/Madrid]</time>
      </trkpt>
      <trkpt lat="37.22654" lon="-5.308992">
        <ele>202.0</ele>
        <time>2022-09-26T14:19:03.888+02:00[Europe/Madrid]</time>
      </trkpt>
      <trkpt lat="37.226522" lon="-5.308855">
        <ele>201.0</ele>
        <time>2022-09-26T14:19:04.888+02:00[Europe/Madrid]</time>
      </trkpt>
      <trkpt lat="37.226506" lon="-5.308717">
        <ele>200.0</ele>
        <time>2022-09-26T14:19:05.888+02:00[Europe/Madrid]</time>
      </trkpt>
      <trkpt lat="37.226491" lon="-5.308578">
        <ele>199.0</ele>
        <time>2022-09-26T14:19:06.888+02:00[Europe/Madrid]</time>
      </trkpt>
      <trkpt lat="37.226481" lon="-5.308449">
        <ele>198.0</ele>
        <time>2022-09-26T14:19:07.893+02:00[Europe/Madrid]</time>
      </trkpt>
      <trkpt lat="37.226476" lon="-5.308319">
        <ele>198.0</ele>
        <time>2022-09-26T14:19:08.893+02:00[Europe/Madrid]</time>
      </trkpt>
      <trkpt lat="37.226481" lon="-5.308186">
        <ele>197.0</ele>
        <time>2022-09-26T14:19:09.893+02:00[Europe/Madrid]</time>
      </trkpt>
      <trkpt lat="37.226489" lon="-5.308054">
        <ele>196.0</ele>
        <time>2022-09-26T14:19:10.893+02:00[Europe/Madrid]</time>
      </trkpt>
      <trkpt lat="37.226505" lon="-5.307916">
        <ele>196.0</ele>
        <time>2022-09-26T14:19:11.893+02:00[Europe/Madrid]</time>
      </trkpt>
      <trkpt lat="37.226524" lon="-5.307779">
        <ele>195.0</ele>
        <time>2022-09-26T14:19:12.893+02:00[Europe/Madrid]</time>
      </trkpt>
      <trkpt lat="37.226544" lon="-5.307636">
        <ele>195.0</ele>
        <time>2022-09-26T14:19:13.893+02:00[Europe/Madrid]</time>
      </trkpt>
      <trkpt lat="37.226567" lon="-5.307492">
        <ele>195.0</ele>
        <time>2022-09-26T14:19:14.893+02:00[Europe/Madrid]</time>
      </trkpt>
      <trkpt lat="37.226585" lon="-5.30735">
        <ele>194.0</ele>
        <time>2022-09-26T14:19:15.893+02:00[Europe/Madrid]</time>
      </trkpt>
      <trkpt lat="37.226604" lon="-5.30721">
        <ele>194.0</ele>
        <time>2022-09-26T14:19:16.893+02:00[Europe/Madrid]</time>
      </trkpt>
      <trkpt lat="37.226627" lon="-5.307069">
        <ele>194.0</ele>
        <time>2022-09-26T14:19:17.893+02:00[Europe/Madrid]</time>
      </trkpt>
      <trkpt lat="37.226643" lon="-5.306933">
        <ele>194.0</ele>
        <time>2022-09-26T14:19:18.893+02:00[Europe/Madrid]</time>
      </trkpt>
      <trkpt lat="37.22666" lon="-5.306798">
        <ele>194.0</ele>
        <time>2022-09-26T14:19:19.893+02:00[Europe/Madrid]</time>
      </trkpt>
      <trkpt lat="37.226679" lon="-5.306666">
        <ele>194.0</ele>
        <time>2022-09-26T14:19:20.893+02:00[Europe/Madrid]</time>
      </trkpt>
      <trkpt lat="37.226701" lon="-5.306534">
        <ele>194.0</ele>
        <time>2022-09-26T14:19:21.898+02:00[Europe/Madrid]</time>
      </trkpt>
      <trkpt lat="37.226724" lon="-5.306397">
        <ele>194.0</ele>
        <time>2022-09-26T14:19:22.898+02:00[Europe/Madrid]</time>
      </trkpt>
      <trkpt lat="37.226747" lon="-5.306255">
        <ele>195.0</ele>
        <time>2022-09-26T14:19:23.898+02:00[Europe/Madrid]</time>
      </trkpt>
      <trkpt lat="37.226768" lon="-5.306113">
        <ele>194.0</ele>
        <time>2022-09-26T14:19:24.898+02:00[Europe/Madrid]</time>
      </trkpt>
      <trkpt lat="37.226791" lon="-5.305971">
        <ele>195.0</ele>
        <time>2022-09-26T14:19:25.898+02:00[Europe/Madrid]</time>
      </trkpt>
      <trkpt lat="37.226812" lon="-5.305834">
        <ele>195.0</ele>
        <time>2022-09-26T14:19:26.898+02:00[Europe/Madrid]</time>
      </trkpt>
      <trkpt lat="37.22683" lon="-5.305703">
        <ele>195.0</ele>
        <time>2022-09-26T14:19:27.898+02:00[Europe/Madrid]</time>
      </trkpt>
      <trkpt lat="37.226849" lon="-5.305583">
        <ele>195.0</ele>
        <time>2022-09-26T14:19:28.898+02:00[Europe/Madrid]</time>
      </trkpt>
      <trkpt lat="37.226865" lon="-5.305462">
        <ele>195.0</ele>
        <time>2022-09-26T14:19:29.898+02:00[Europe/Madrid]</time>
      </trkpt>
      <trkpt lat="37.226884" lon="-5.305349">
        <ele>195.0</ele>
        <time>2022-09-26T14:19:30.898+02:00[Europe/Madrid]</time>
      </trkpt>
      <trkpt lat="37.226903" lon="-5.305227">
        <ele>195.0</ele>
        <time>2022-09-26T14:19:31.898+02:00[Europe/Madrid]</time>
      </trkpt>
      <trkpt lat="37.226924" lon="-5.3051">
        <ele>196.0</ele>
        <time>2022-09-26T14:19:32.898+02:00[Europe/Madrid]</time>
      </trkpt>
      <trkpt lat="37.226946" lon="-5.304965">
        <ele>196.0</ele>
        <time>2022-09-26T14:19:33.898+02:00[Europe/Madrid]</time>
      </trkpt>
      <trkpt lat="37.226964" lon="-5.304828">
        <ele>196.0</ele>
        <time>2022-09-26T14:19:34.898+02:00[Europe/Madrid]</time>
      </trkpt>
      <trkpt lat="37.226985" lon="-5.304689">
        <ele>196.0</ele>
        <time>2022-09-26T14:19:35.898+02:00[Europe/Madrid]</time>
      </trkpt>
      <trkpt lat="37.227004" lon="-5.304557">
        <ele>197.0</ele>
        <time>2022-09-26T14:19:36.900+02:00[Europe/Madrid]</time>
      </trkpt>
      <trkpt lat="37.227026" lon="-5.304429">
        <ele>197.0</ele>
        <time>2022-09-26T14:19:37.900+02:00[Europe/Madrid]</time>
      </trkpt>
      <trkpt lat="37.227044" lon="-5.304309">
        <ele>197.0</ele>
        <time>2022-09-26T14:19:38.900+02:00[Europe/Madrid]</time>
      </trkpt>
      <trkpt lat="37.227063" lon="-5.304195">
        <ele>197.0</ele>
        <time>2022-09-26T14:19:39.900+02:00[Europe/Madrid]</time>
      </trkpt>
      <trkpt lat="37.227092" lon="-5.303989">
        <ele>197.0</ele>
        <time>2022-09-26T14:19:41.888+02:00[Europe/Madrid]</time>
      </trkpt>
      <trkpt lat="37.227121" lon="-5.303808">
        <ele>198.0</ele>
        <time>2022-09-26T14:19:43.880+02:00[Europe/Madrid]</time>
      </trkpt>
      <trkpt lat="37.227147" lon="-5.303645">
        <ele>197.0</ele>
        <time>2022-09-26T14:19:45.885+02:00[Europe/Madrid]</time>
      </trkpt>
      <trkpt lat="37.227163" lon="-5.303503">
        <ele>197.0</ele>
        <time>2022-09-26T14:19:47.885+02:00[Europe/Madrid]</time>
      </trkpt>
      <trkpt lat="37.227174" lon="-5.30338">
        <ele>198.0</ele>
        <time>2022-09-26T14:19:49.889+02:00[Europe/Madrid]</time>
      </trkpt>
      <trkpt lat="37.227187" lon="-5.303254">
        <ele>198.0</ele>
        <time>2022-09-26T14:19:51.913+02:00[Europe/Madrid]</time>
      </trkpt>
      <trkpt lat="37.227188" lon="-5.30314">
        <ele>198.0</ele>
        <time>2022-09-26T14:19:53.872+02:00[Europe/Madrid]</time>
      </trkpt>
      <trkpt lat="37.227171" lon="-5.303011">
        <ele>197.0</ele>
        <time>2022-09-26T14:19:55.888+02:00[Europe/Madrid]</time>
      </trkpt>
      <trkpt lat="37.227166" lon="-5.302891">
        <ele>196.0</ele>
        <time>2022-09-26T14:19:57.885+02:00[Europe/Madrid]</time>
      </trkpt>
      <trkpt lat="37.227202" lon="-5.302744">
        <ele>196.0</ele>
        <time>2022-09-26T14:19:59.883+02:00[Europe/Madrid]</time>
      </trkpt>
      <trkpt lat="37.227246" lon="-5.302537">
        <ele>196.0</ele>
        <time>2022-09-26T14:20:01.892+02:00[Europe/Madrid]</time>
      </trkpt>
      <trkpt lat="37.227253" lon="-5.302398">
        <ele>196.0</ele>
        <time>2022-09-26T14:20:02.892+02:00[Europe/Madrid]</time>
      </trkpt>
      <trkpt lat="37.227249" lon="-5.302259">
        <ele>196.0</ele>
        <time>2022-09-26T14:20:03.892+02:00[Europe/Madrid]</time>
      </trkpt>
      <trkpt lat="37.22725" lon="-5.302108">
        <ele>196.0</ele>
        <time>2022-09-26T14:20:04.893+02:00[Europe/Madrid]</time>
      </trkpt>
      <trkpt lat="37.227252" lon="-5.301952">
        <ele>195.0</ele>
        <time>2022-09-26T14:20:05.893+02:00[Europe/Madrid]</time>
      </trkpt>
      <trkpt lat="37.227253" lon="-5.301786">
        <ele>195.0</ele>
        <time>2022-09-26T14:20:06.893+02:00[Europe/Madrid]</time>
      </trkpt>
      <trkpt lat="37.227251" lon="-5.301611">
        <ele>195.0</ele>
        <time>2022-09-26T14:20:07.893+02:00[Europe/Madrid]</time>
      </trkpt>
      <trkpt lat="37.227246" lon="-5.301421">
        <ele>195.0</ele>
        <time>2022-09-26T14:20:08.893+02:00[Europe/Madrid]</time>
      </trkpt>
      <trkpt lat="37.227241" lon="-5.301228">
        <ele>195.0</ele>
        <time>2022-09-26T14:20:09.893+02:00[Europe/Madrid]</time>
      </trkpt>
      <trkpt lat="37.227228" lon="-5.30103">
        <ele>195.0</ele>
        <time>2022-09-26T14:20:10.893+02:00[Europe/Madrid]</time>
      </trkpt>
      <trkpt lat="37.227208" lon="-5.300823">
        <ele>195.0</ele>
        <time>2022-09-26T14:20:11.893+02:00[Europe/Madrid]</time>
      </trkpt>
      <trkpt lat="37.227185" lon="-5.300619">
        <ele>195.0</ele>
        <time>2022-09-26T14:20:12.894+02:00[Europe/Madrid]</time>
      </trkpt>
      <trkpt lat="37.227159" lon="-5.300425">
        <ele>196.0</ele>
        <time>2022-09-26T14:20:13.894+02:00[Europe/Madrid]</time>
      </trkpt>
      <trkpt lat="37.227129" lon="-5.300222">
        <ele>196.0</ele>
        <time>2022-09-26T14:20:14.894+02:00[Europe/Madrid]</time>
      </trkpt>
      <trkpt lat="37.227094" lon="-5.300006">
        <ele>196.0</ele>
        <time>2022-09-26T14:20:15.894+02:00[Europe/Madrid]</time>
      </trkpt>
      <trkpt lat="37.227049" lon="-5.299774">
        <ele>196.0</ele>
        <time>2022-09-26T14:20:16.894+02:00[Europe/Madrid]</time>
      </trkpt>
      <trkpt lat="37.226995" lon="-5.299526">
        <ele>197.0</ele>
        <time>2022-09-26T14:20:17.898+02:00[Europe/Madrid]</time>
      </trkpt>
      <trkpt lat="37.226934" lon="-5.299282">
        <ele>197.0</ele>
        <time>2022-09-26T14:20:18.898+02:00[Europe/Madrid]</time>
      </trkpt>
      <trkpt lat="37.226868" lon="-5.299044">
        <ele>197.0</ele>
        <time>2022-09-26T14:20:19.903+02:00[Europe/Madrid]</time>
      </trkpt>
      <trkpt lat="37.226801" lon="-5.298811">
        <ele>198.0</ele>
        <time>2022-09-26T14:20:20.903+02:00[Europe/Madrid]</time>
      </trkpt>
      <trkpt lat="37.226732" lon="-5.298588">
        <ele>198.0</ele>
        <time>2022-09-26T14:20:21.903+02:00[Europe/Madrid]</time>
      </trkpt>
      <trkpt lat="37.226664" lon="-5.298365">
        <ele>198.0</ele>
        <time>2022-09-26T14:20:22.905+02:00[Europe/Madrid]</time>
      </trkpt>
      <trkpt lat="37.226595" lon="-5.298143">
        <ele>198.0</ele>
        <time>2022-09-26T14:20:23.905+02:00[Europe/Madrid]</time>
      </trkpt>
      <trkpt lat="37.22652" lon="-5.297917">
        <ele>199.0</ele>
        <time>2022-09-26T14:20:24.905+02:00[Europe/Madrid]</time>
      </trkpt>
      <trkpt lat="37.22644" lon="-5.297692">
        <ele>199.0</ele>
        <time>2022-09-26T14:20:25.905+02:00[Europe/Madrid]</time>
      </trkpt>
      <trkpt lat="37.226355" lon="-5.297468">
        <ele>199.0</ele>
        <time>2022-09-26T14:20:26.905+02:00[Europe/Madrid]</time>
      </trkpt>
      <trkpt lat="37.226263" lon="-5.297244">
        <ele>200.0</ele>
        <time>2022-09-26T14:20:27.905+02:00[Europe/Madrid]</time>
      </trkpt>
      <trkpt lat="37.226165" lon="-5.297032">
        <ele>201.0</ele>
        <time>2022-09-26T14:20:28.905+02:00[Europe/Madrid]</time>
      </trkpt>
      <trkpt lat="37.226067" lon="-5.296819">
        <ele>201.0</ele>
        <time>2022-09-26T14:20:29.905+02:00[Europe/Madrid]</time>
      </trkpt>
      <trkpt lat="37.22597" lon="-5.296597">
        <ele>201.0</ele>
        <time>2022-09-26T14:20:30.905+02:00[Europe/Madrid]</time>
      </trkpt>
      <trkpt lat="37.225872" lon="-5.296366">
        <ele>202.0</ele>
        <time>2022-09-26T14:20:31.905+02:00[Europe/Madrid]</time>
      </trkpt>
      <trkpt lat="37.225776" lon="-5.296118">
        <ele>202.0</ele>
        <time>2022-09-26T14:20:32.905+02:00[Europe/Madrid]</time>
      </trkpt>
      <trkpt lat="37.225675" lon="-5.295851">
        <ele>203.0</ele>
        <time>2022-09-26T14:20:33.905+02:00[Europe/Madrid]</time>
      </trkpt>
      <trkpt lat="37.225572" lon="-5.295559">
        <ele>203.0</ele>
        <time>2022-09-26T14:20:34.905+02:00[Europe/Madrid]</time>
      </trkpt>
      <trkpt lat="37.225465" lon="-5.29525">
        <ele>204.0</ele>
        <time>2022-09-26T14:20:35.905+02:00[Europe/Madrid]</time>
      </trkpt>
      <trkpt lat="37.22536" lon="-5.294932">
        <ele>204.0</ele>
        <time>2022-09-26T14:20:36.905+02:00[Europe/Madrid]</time>
      </trkpt>
      <trkpt lat="37.225256" lon="-5.294601">
        <ele>205.0</ele>
        <time>2022-09-26T14:20:37.905+02:00[Europe/Madrid]</time>
      </trkpt>
      <trkpt lat="37.225163" lon="-5.294257">
        <ele>206.0</ele>
        <time>2022-09-26T14:20:38.905+02:00[Europe/Madrid]</time>
      </trkpt>
      <trkpt lat="37.225089" lon="-5.293898">
        <ele>207.0</ele>
        <time>2022-09-26T14:20:39.905+02:00[Europe/Madrid]</time>
      </trkpt>
      <trkpt lat="37.225033" lon="-5.293527">
        <ele>208.0</ele>
        <time>2022-09-26T14:20:40.905+02:00[Europe/Madrid]</time>
      </trkpt>
      <trkpt lat="37.224999" lon="-5.293149">
        <ele>209.0</ele>
        <time>2022-09-26T14:20:41.922+02:00[Europe/Madrid]</time>
      </trkpt>
      <trkpt lat="37.224985" lon="-5.292767">
        <ele>210.0</ele>
        <time>2022-09-26T14:20:42.922+02:00[Europe/Madrid]</time>
      </trkpt>
      <trkpt lat="37.224989" lon="-5.292383">
        <ele>210.0</ele>
        <time>2022-09-26T14:20:43.922+02:00[Europe/Madrid]</time>
      </trkpt>
      <trkpt lat="37.225018" lon="-5.292006">
        <ele>211.0</ele>
        <time>2022-09-26T14:20:44.922+02:00[Europe/Madrid]</time>
      </trkpt>
      <trkpt lat="37.22507" lon="-5.29163">
        <ele>211.0</ele>
        <time>2022-09-26T14:20:45.922+02:00[Europe/Madrid]</time>
      </trkpt>
      <trkpt lat="37.225142" lon="-5.291263">
        <ele>212.0</ele>
        <time>2022-09-26T14:20:46.922+02:00[Europe/Madrid]</time>
      </trkpt>
      <trkpt lat="37.225229" lon="-5.2909">
        <ele>213.0</ele>
        <time>2022-09-26T14:20:47.922+02:00[Europe/Madrid]</time>
      </trkpt>
      <trkpt lat="37.225325" lon="-5.290531">
        <ele>213.0</ele>
        <time>2022-09-26T14:20:48.922+02:00[Europe/Madrid]</time>
      </trkpt>
      <trkpt lat="37.225421" lon="-5.290166">
        <ele>214.0</ele>
        <time>2022-09-26T14:20:49.922+02:00[Europe/Madrid]</time>
      </trkpt>
      <trkpt lat="37.225519" lon="-5.289797">
        <ele>214.0</ele>
        <time>2022-09-26T14:20:50.922+02:00[Europe/Madrid]</time>
      </trkpt>
      <trkpt lat="37.225619" lon="-5.289431">
        <ele>215.0</ele>
        <time>2022-09-26T14:20:51.924+02:00[Europe/Madrid]</time>
      </trkpt>
      <trkpt lat="37.225715" lon="-5.289067">
        <ele>216.0</ele>
        <time>2022-09-26T14:20:52.924+02:00[Europe/Madrid]</time>
      </trkpt>
      <trkpt lat="37.225813" lon="-5.288707">
        <ele>217.0</ele>
        <time>2022-09-26T14:20:53.924+02:00[Europe/Madrid]</time>
      </trkpt>
      <trkpt lat="37.225904" lon="-5.288349">
        <ele>218.0</ele>
        <time>2022-09-26T14:20:54.924+02:00[Europe/Madrid]</time>
      </trkpt>
      <trkpt lat="37.225987" lon="-5.287999">
        <ele>219.0</ele>
        <time>2022-09-26T14:20:55.924+02:00[Europe/Madrid]</time>
      </trkpt>
      <trkpt lat="37.226056" lon="-5.287654">
        <ele>220.0</ele>
        <time>2022-09-26T14:20:56.924+02:00[Europe/Madrid]</time>
      </trkpt>
      <trkpt lat="37.226112" lon="-5.287304">
        <ele>221.0</ele>
        <time>2022-09-26T14:20:57.924+02:00[Europe/Madrid]</time>
      </trkpt>
      <trkpt lat="37.226154" lon="-5.286946">
        <ele>222.0</ele>
        <time>2022-09-26T14:20:58.924+02:00[Europe/Madrid]</time>
      </trkpt>
      <trkpt lat="37.22618" lon="-5.286573">
        <ele>223.0</ele>
        <time>2022-09-26T14:20:59.924+02:00[Europe/Madrid]</time>
      </trkpt>
      <trkpt lat="37.226198" lon="-5.286189">
        <ele>224.0</ele>
        <time>2022-09-26T14:21:00.924+02:00[Europe/Madrid]</time>
      </trkpt>
      <trkpt lat="37.226213" lon="-5.285795">
        <ele>224.0</ele>
        <time>2022-09-26T14:21:01.924+02:00[Europe/Madrid]</time>
      </trkpt>
      <trkpt lat="37.226224" lon="-5.285394">
        <ele>225.0</ele>
        <time>2022-09-26T14:21:02.924+02:00[Europe/Madrid]</time>
      </trkpt>
      <trkpt lat="37.226232" lon="-5.285002">
        <ele>224.0</ele>
        <time>2022-09-26T14:21:03.924+02:00[Europe/Madrid]</time>
      </trkpt>
      <trkpt lat="37.226241" lon="-5.284614">
        <ele>224.0</ele>
        <time>2022-09-26T14:21:04.924+02:00[Europe/Madrid]</time>
      </trkpt>
      <trkpt lat="37.226244" lon="-5.284232">
        <ele>224.0</ele>
        <time>2022-09-26T14:21:05.924+02:00[Europe/Madrid]</time>
      </trkpt>
      <trkpt lat="37.226234" lon="-5.28385">
        <ele>224.0</ele>
        <time>2022-09-26T14:21:06.924+02:00[Europe/Madrid]</time>
      </trkpt>
      <trkpt lat="37.226209" lon="-5.283474">
        <ele>224.0</ele>
        <time>2022-09-26T14:21:07.924+02:00[Europe/Madrid]</time>
      </trkpt>
      <trkpt lat="37.226178" lon="-5.283097">
        <ele>224.0</ele>
        <time>2022-09-26T14:21:08.924+02:00[Europe/Madrid]</time>
      </trkpt>
      <trkpt lat="37.226147" lon="-5.282722">
        <ele>224.0</ele>
        <time>2022-09-26T14:21:09.924+02:00[Europe/Madrid]</time>
      </trkpt>
      <trkpt lat="37.226118" lon="-5.282345">
        <ele>224.0</ele>
        <time>2022-09-26T14:21:10.924+02:00[Europe/Madrid]</time>
      </trkpt>
      <trkpt lat="37.226101" lon="-5.281967">
        <ele>224.0</ele>
        <time>2022-09-26T14:21:11.924+02:00[Europe/Madrid]</time>
      </trkpt>
      <trkpt lat="37.226096" lon="-5.281591">
        <ele>224.0</ele>
        <time>2022-09-26T14:21:12.924+02:00[Europe/Madrid]</time>
      </trkpt>
      <trkpt lat="37.226107" lon="-5.281212">
        <ele>225.0</ele>
        <time>2022-09-26T14:21:13.924+02:00[Europe/Madrid]</time>
      </trkpt>
      <trkpt lat="37.226138" lon="-5.280832">
        <ele>225.0</ele>
        <time>2022-09-26T14:21:14.924+02:00[Europe/Madrid]</time>
      </trkpt>
      <trkpt lat="37.226184" lon="-5.280457">
        <ele>225.0</ele>
        <time>2022-09-26T14:21:15.924+02:00[Europe/Madrid]</time>
      </trkpt>
      <trkpt lat="37.226234" lon="-5.28008">
        <ele>225.0</ele>
        <time>2022-09-26T14:21:16.924+02:00[Europe/Madrid]</time>
      </trkpt>
      <trkpt lat="37.226288" lon="-5.279703">
        <ele>226.0</ele>
        <time>2022-09-26T14:21:17.924+02:00[Europe/Madrid]</time>
      </trkpt>
      <trkpt lat="37.226347" lon="-5.279325">
        <ele>226.0</ele>
        <time>2022-09-26T14:21:18.924+02:00[Europe/Madrid]</time>
      </trkpt>
      <trkpt lat="37.226406" lon="-5.278952">
        <ele>227.0</ele>
        <time>2022-09-26T14:21:19.924+02:00[Europe/Madrid]</time>
      </trkpt>
      <trkpt lat="37.226465" lon="-5.278577">
        <ele>228.0</ele>
        <time>2022-09-26T14:21:20.924+02:00[Europe/Madrid]</time>
      </trkpt>
      <trkpt lat="37.226523" lon="-5.278201">
        <ele>228.0</ele>
        <time>2022-09-26T14:21:21.924+02:00[Europe/Madrid]</time>
      </trkpt>
      <trkpt lat="37.226583" lon="-5.277826">
        <ele>229.0</ele>
        <time>2022-09-26T14:21:22.924+02:00[Europe/Madrid]</time>
      </trkpt>
      <trkpt lat="37.22664" lon="-5.277449">
        <ele>230.0</ele>
        <time>2022-09-26T14:21:23.924+02:00[Europe/Madrid]</time>
      </trkpt>
      <trkpt lat="37.226697" lon="-5.277075">
        <ele>230.0</ele>
        <time>2022-09-26T14:21:24.924+02:00[Europe/Madrid]</time>
      </trkpt>
      <trkpt lat="37.226757" lon="-5.276698">
        <ele>231.0</ele>
        <time>2022-09-26T14:21:25.924+02:00[Europe/Madrid]</time>
      </trkpt>
      <trkpt lat="37.226814" lon="-5.276317">
        <ele>231.0</ele>
        <time>2022-09-26T14:21:26.924+02:00[Europe/Madrid]</time>
      </trkpt>
      <trkpt lat="37.226876" lon="-5.275938">
        <ele>231.0</ele>
        <time>2022-09-26T14:21:27.924+02:00[Europe/Madrid]</time>
      </trkpt>
      <trkpt lat="37.226941" lon="-5.275558">
        <ele>231.0</ele>
        <time>2022-09-26T14:21:28.924+02:00[Europe/Madrid]</time>
      </trkpt>
      <trkpt lat="37.227012" lon="-5.275168">
        <ele>232.0</ele>
        <time>2022-09-26T14:21:29.924+02:00[Europe/Madrid]</time>
      </trkpt>
      <trkpt lat="37.227084" lon="-5.274769">
        <ele>232.0</ele>
        <time>2022-09-26T14:21:30.924+02:00[Europe/Madrid]</time>
      </trkpt>
      <trkpt lat="37.227153" lon="-5.274365">
        <ele>232.0</ele>
        <time>2022-09-26T14:21:31.924+02:00[Europe/Madrid]</time>
      </trkpt>
      <trkpt lat="37.227222" lon="-5.273963">
        <ele>233.0</ele>
        <time>2022-09-26T14:21:32.924+02:00[Europe/Madrid]</time>
      </trkpt>
      <trkpt lat="37.227286" lon="-5.273563">
        <ele>234.0</ele>
        <time>2022-09-26T14:21:33.924+02:00[Europe/Madrid]</time>
      </trkpt>
      <trkpt lat="37.22735" lon="-5.273167">
        <ele>234.0</ele>
        <time>2022-09-26T14:21:34.924+02:00[Europe/Madrid]</time>
      </trkpt>
      <trkpt lat="37.227411" lon="-5.272777">
        <ele>235.0</ele>
        <time>2022-09-26T14:21:35.924+02:00[Europe/Madrid]</time>
      </trkpt>
      <trkpt lat="37.227475" lon="-5.272396">
        <ele>236.0</ele>
        <time>2022-09-26T14:21:36.924+02:00[Europe/Madrid]</time>
      </trkpt>
      <trkpt lat="37.227534" lon="-5.272014">
        <ele>236.0</ele>
        <time>2022-09-26T14:21:37.924+02:00[Europe/Madrid]</time>
      </trkpt>
      <trkpt lat="37.227592" lon="-5.271637">
        <ele>237.0</ele>
        <time>2022-09-26T14:21:38.924+02:00[Europe/Madrid]</time>
      </trkpt>
      <trkpt lat="37.227653" lon="-5.271261">
        <ele>238.0</ele>
        <time>2022-09-26T14:21:39.924+02:00[Europe/Madrid]</time>
      </trkpt>
      <trkpt lat="37.227714" lon="-5.270882">
        <ele>238.0</ele>
        <time>2022-09-26T14:21:40.924+02:00[Europe/Madrid]</time>
      </trkpt>
      <trkpt lat="37.227779" lon="-5.270507">
        <ele>239.0</ele>
        <time>2022-09-26T14:21:41.924+02:00[Europe/Madrid]</time>
      </trkpt>
      <trkpt lat="37.227842" lon="-5.270132">
        <ele>239.0</ele>
        <time>2022-09-26T14:21:42.924+02:00[Europe/Madrid]</time>
      </trkpt>
      <trkpt lat="37.227904" lon="-5.269762">
        <ele>239.0</ele>
        <time>2022-09-26T14:21:43.924+02:00[Europe/Madrid]</time>
      </trkpt>
      <trkpt lat="37.227968" lon="-5.269389">
        <ele>240.0</ele>
        <time>2022-09-26T14:21:44.924+02:00[Europe/Madrid]</time>
      </trkpt>
      <trkpt lat="37.228027" lon="-5.269017">
        <ele>240.0</ele>
        <time>2022-09-26T14:21:45.924+02:00[Europe/Madrid]</time>
      </trkpt>
      <trkpt lat="37.228087" lon="-5.268645">
        <ele>240.0</ele>
        <time>2022-09-26T14:21:46.924+02:00[Europe/Madrid]</time>
      </trkpt>
      <trkpt lat="37.228148" lon="-5.268274">
        <ele>241.0</ele>
        <time>2022-09-26T14:21:47.924+02:00[Europe/Madrid]</time>
      </trkpt>
      <trkpt lat="37.228205" lon="-5.267903">
        <ele>241.0</ele>
        <time>2022-09-26T14:21:48.924+02:00[Europe/Madrid]</time>
      </trkpt>
      <trkpt lat="37.228266" lon="-5.267529">
        <ele>241.0</ele>
        <time>2022-09-26T14:21:49.924+02:00[Europe/Madrid]</time>
      </trkpt>
      <trkpt lat="37.228326" lon="-5.267155">
        <ele>241.0</ele>
        <time>2022-09-26T14:21:50.924+02:00[Europe/Madrid]</time>
      </trkpt>
      <trkpt lat="37.228388" lon="-5.266778">
        <ele>241.0</ele>
        <time>2022-09-26T14:21:51.924+02:00[Europe/Madrid]</time>
      </trkpt>
      <trkpt lat="37.228448" lon="-5.266397">
        <ele>240.0</ele>
        <time>2022-09-26T14:21:52.924+02:00[Europe/Madrid]</time>
      </trkpt>
      <trkpt lat="37.22851" lon="-5.266011">
        <ele>239.0</ele>
        <time>2022-09-26T14:21:53.924+02:00[Europe/Madrid]</time>
      </trkpt>
      <trkpt lat="37.22857" lon="-5.265618">
        <ele>238.0</ele>
        <time>2022-09-26T14:21:54.924+02:00[Europe/Madrid]</time>
      </trkpt>
      <trkpt lat="37.228632" lon="-5.265216">
        <ele>238.0</ele>
        <time>2022-09-26T14:21:55.924+02:00[Europe/Madrid]</time>
      </trkpt>
      <trkpt lat="37.228695" lon="-5.264808">
        <ele>237.0</ele>
        <time>2022-09-26T14:21:56.924+02:00[Europe/Madrid]</time>
      </trkpt>
      <trkpt lat="37.22876" lon="-5.264398">
        <ele>236.0</ele>
        <time>2022-09-26T14:21:57.924+02:00[Europe/Madrid]</time>
      </trkpt>
      <trkpt lat="37.228827" lon="-5.263996">
        <ele>236.0</ele>
        <time>2022-09-26T14:21:58.924+02:00[Europe/Madrid]</time>
      </trkpt>
      <trkpt lat="37.228889" lon="-5.263604">
        <ele>235.0</ele>
        <time>2022-09-26T14:21:59.924+02:00[Europe/Madrid]</time>
      </trkpt>
      <trkpt lat="37.228947" lon="-5.263218">
        <ele>235.0</ele>
        <time>2022-09-26T14:22:00.924+02:00[Europe/Madrid]</time>
      </trkpt>
      <trkpt lat="37.229005" lon="-5.262838">
        <ele>235.0</ele>
        <time>2022-09-26T14:22:01.924+02:00[Europe/Madrid]</time>
      </trkpt>
      <trkpt lat="37.22906" lon="-5.262462">
        <ele>234.0</ele>
        <time>2022-09-26T14:22:02.924+02:00[Europe/Madrid]</time>
      </trkpt>
      <trkpt lat="37.229122" lon="-5.262088">
        <ele>235.0</ele>
        <time>2022-09-26T14:22:03.924+02:00[Europe/Madrid]</time>
      </trkpt>
      <trkpt lat="37.229189" lon="-5.261721">
        <ele>234.0</ele>
        <time>2022-09-26T14:22:04.924+02:00[Europe/Madrid]</time>
      </trkpt>
      <trkpt lat="37.229266" lon="-5.261361">
        <ele>234.0</ele>
        <time>2022-09-26T14:22:05.924+02:00[Europe/Madrid]</time>
      </trkpt>
      <trkpt lat="37.229344" lon="-5.261003">
        <ele>235.0</ele>
        <time>2022-09-26T14:22:06.924+02:00[Europe/Madrid]</time>
      </trkpt>
      <trkpt lat="37.229436" lon="-5.260651">
        <ele>235.0</ele>
        <time>2022-09-26T14:22:07.924+02:00[Europe/Madrid]</time>
      </trkpt>
      <trkpt lat="37.229542" lon="-5.2603">
        <ele>235.0</ele>
        <time>2022-09-26T14:22:08.924+02:00[Europe/Madrid]</time>
      </trkpt>
      <trkpt lat="37.229655" lon="-5.25995">
        <ele>236.0</ele>
        <time>2022-09-26T14:22:09.924+02:00[Europe/Madrid]</time>
      </trkpt>
      <trkpt lat="37.22977" lon="-5.259597">
        <ele>236.0</ele>
        <time>2022-09-26T14:22:10.924+02:00[Europe/Madrid]</time>
      </trkpt>
      <trkpt lat="37.229881" lon="-5.25924">
        <ele>236.0</ele>
        <time>2022-09-26T14:22:11.924+02:00[Europe/Madrid]</time>
      </trkpt>
      <trkpt lat="37.229992" lon="-5.258876">
        <ele>236.0</ele>
        <time>2022-09-26T14:22:12.924+02:00[Europe/Madrid]</time>
      </trkpt>
      <trkpt lat="37.230107" lon="-5.258509">
        <ele>237.0</ele>
        <time>2022-09-26T14:22:13.924+02:00[Europe/Madrid]</time>
      </trkpt>
      <trkpt lat="37.23022" lon="-5.258147">
        <ele>237.0</ele>
        <time>2022-09-26T14:22:14.924+02:00[Europe/Madrid]</time>
      </trkpt>
      <trkpt lat="37.230335" lon="-5.257788">
        <ele>237.0</ele>
        <time>2022-09-26T14:22:15.924+02:00[Europe/Madrid]</time>
      </trkpt>
      <trkpt lat="37.230447" lon="-5.257432">
        <ele>236.0</ele>
        <time>2022-09-26T14:22:16.924+02:00[Europe/Madrid]</time>
      </trkpt>
      <trkpt lat="37.230555" lon="-5.257076">
        <ele>237.0</ele>
        <time>2022-09-26T14:22:17.924+02:00[Europe/Madrid]</time>
      </trkpt>
      <trkpt lat="37.230642" lon="-5.256713">
        <ele>236.0</ele>
        <time>2022-09-26T14:22:18.924+02:00[Europe/Madrid]</time>
      </trkpt>
      <trkpt lat="37.23072" lon="-5.256345">
        <ele>236.0</ele>
        <time>2022-09-26T14:22:19.924+02:00[Europe/Madrid]</time>
      </trkpt>
      <trkpt lat="37.230789" lon="-5.25597">
        <ele>236.0</ele>
        <time>2022-09-26T14:22:20.924+02:00[Europe/Madrid]</time>
      </trkpt>
      <trkpt lat="37.23085" lon="-5.255593">
        <ele>236.0</ele>
        <time>2022-09-26T14:22:21.924+02:00[Europe/Madrid]</time>
      </trkpt>
      <trkpt lat="37.23091" lon="-5.255213">
        <ele>236.0</ele>
        <time>2022-09-26T14:22:22.924+02:00[Europe/Madrid]</time>
      </trkpt>
      <trkpt lat="37.230966" lon="-5.254829">
        <ele>235.0</ele>
        <time>2022-09-26T14:22:23.924+02:00[Europe/Madrid]</time>
      </trkpt>
      <trkpt lat="37.231021" lon="-5.254447">
        <ele>235.0</ele>
        <time>2022-09-26T14:22:24.924+02:00[Europe/Madrid]</time>
      </trkpt>
      <trkpt lat="37.231073" lon="-5.254069">
        <ele>235.0</ele>
        <time>2022-09-26T14:22:25.924+02:00[Europe/Madrid]</time>
      </trkpt>
      <trkpt lat="37.231122" lon="-5.253698">
        <ele>234.0</ele>
        <time>2022-09-26T14:22:26.924+02:00[Europe/Madrid]</time>
      </trkpt>
      <trkpt lat="37.231167" lon="-5.253325">
        <ele>234.0</ele>
        <time>2022-09-26T14:22:27.924+02:00[Europe/Madrid]</time>
      </trkpt>
      <trkpt lat="37.231206" lon="-5.252948">
        <ele>233.0</ele>
        <time>2022-09-26T14:22:28.924+02:00[Europe/Madrid]</time>
      </trkpt>
      <trkpt lat="37.231235" lon="-5.252566">
        <ele>233.0</ele>
        <time>2022-09-26T14:22:29.924+02:00[Europe/Madrid]</time>
      </trkpt>
      <trkpt lat="37.231259" lon="-5.252183">
        <ele>232.0</ele>
        <time>2022-09-26T14:22:30.924+02:00[Europe/Madrid]</time>
      </trkpt>
      <trkpt lat="37.231277" lon="-5.251791">
        <ele>231.0</ele>
        <time>2022-09-26T14:22:31.924+02:00[Europe/Madrid]</time>
      </trkpt>
      <trkpt lat="37.231292" lon="-5.2514">
        <ele>230.0</ele>
        <time>2022-09-26T14:22:32.924+02:00[Europe/Madrid]</time>
      </trkpt>
      <trkpt lat="37.231301" lon="-5.25101">
        <ele>229.0</ele>
        <time>2022-09-26T14:22:33.924+02:00[Europe/Madrid]</time>
      </trkpt>
      <trkpt lat="37.231311" lon="-5.250623">
        <ele>228.0</ele>
        <time>2022-09-26T14:22:34.924+02:00[Europe/Madrid]</time>
      </trkpt>
      <trkpt lat="37.231323" lon="-5.250237">
        <ele>227.0</ele>
        <time>2022-09-26T14:22:35.924+02:00[Europe/Madrid]</time>
      </trkpt>
      <trkpt lat="37.231335" lon="-5.24985">
        <ele>226.0</ele>
        <time>2022-09-26T14:22:36.924+02:00[Europe/Madrid]</time>
      </trkpt>
      <trkpt lat="37.231344" lon="-5.249463">
        <ele>224.0</ele>
        <time>2022-09-26T14:22:37.924+02:00[Europe/Madrid]</time>
      </trkpt>
      <trkpt lat="37.231354" lon="-5.249074">
        <ele>223.0</ele>
        <time>2022-09-26T14:22:38.924+02:00[Europe/Madrid]</time>
      </trkpt>
      <trkpt lat="37.231363" lon="-5.248686">
        <ele>222.0</ele>
        <time>2022-09-26T14:22:39.924+02:00[Europe/Madrid]</time>
      </trkpt>
      <trkpt lat="37.231373" lon="-5.248295">
        <ele>221.0</ele>
        <time>2022-09-26T14:22:40.924+02:00[Europe/Madrid]</time>
      </trkpt>
      <trkpt lat="37.231385" lon="-5.247901">
        <ele>220.0</ele>
        <time>2022-09-26T14:22:41.924+02:00[Europe/Madrid]</time>
      </trkpt>
      <trkpt lat="37.231398" lon="-5.247504">
        <ele>219.0</ele>
        <time>2022-09-26T14:22:42.924+02:00[Europe/Madrid]</time>
      </trkpt>
      <trkpt lat="37.231408" lon="-5.247104">
        <ele>218.0</ele>
        <time>2022-09-26T14:22:43.924+02:00[Europe/Madrid]</time>
      </trkpt>
      <trkpt lat="37.231416" lon="-5.246706">
        <ele>217.0</ele>
        <time>2022-09-26T14:22:44.924+02:00[Europe/Madrid]</time>
      </trkpt>
      <trkpt lat="37.231415" lon="-5.246309">
        <ele>216.0</ele>
        <time>2022-09-26T14:22:45.924+02:00[Europe/Madrid]</time>
      </trkpt>
      <trkpt lat="37.231405" lon="-5.245916">
        <ele>216.0</ele>
        <time>2022-09-26T14:22:46.924+02:00[Europe/Madrid]</time>
      </trkpt>
      <trkpt lat="37.231391" lon="-5.245525">
        <ele>216.0</ele>
        <time>2022-09-26T14:22:47.924+02:00[Europe/Madrid]</time>
      </trkpt>
      <trkpt lat="37.231369" lon="-5.245136">
        <ele>216.0</ele>
        <time>2022-09-26T14:22:48.924+02:00[Europe/Madrid]</time>
      </trkpt>
      <trkpt lat="37.231339" lon="-5.244752">
        <ele>216.0</ele>
        <time>2022-09-26T14:22:49.924+02:00[Europe/Madrid]</time>
      </trkpt>
      <trkpt lat="37.231309" lon="-5.24437">
        <ele>217.0</ele>
        <time>2022-09-26T14:22:50.924+02:00[Europe/Madrid]</time>
      </trkpt>
      <trkpt lat="37.231282" lon="-5.243986">
        <ele>216.0</ele>
        <time>2022-09-26T14:22:51.924+02:00[Europe/Madrid]</time>
      </trkpt>
      <trkpt lat="37.231247" lon="-5.243603">
        <ele>217.0</ele>
        <time>2022-09-26T14:22:52.924+02:00[Europe/Madrid]</time>
      </trkpt>
      <trkpt lat="37.231216" lon="-5.243223">
        <ele>217.0</ele>
        <time>2022-09-26T14:22:53.924+02:00[Europe/Madrid]</time>
      </trkpt>
      <trkpt lat="37.231191" lon="-5.242848">
        <ele>218.0</ele>
        <time>2022-09-26T14:22:54.924+02:00[Europe/Madrid]</time>
      </trkpt>
      <trkpt lat="37.231167" lon="-5.242476">
        <ele>219.0</ele>
        <time>2022-09-26T14:22:55.924+02:00[Europe/Madrid]</time>
      </trkpt>
      <trkpt lat="37.231154" lon="-5.242107">
        <ele>220.0</ele>
        <time>2022-09-26T14:22:56.924+02:00[Europe/Madrid]</time>
      </trkpt>
      <trkpt lat="37.231151" lon="-5.241739">
        <ele>222.0</ele>
        <time>2022-09-26T14:22:57.924+02:00[Europe/Madrid]</time>
      </trkpt>
      <trkpt lat="37.231166" lon="-5.241378">
        <ele>223.0</ele>
        <time>2022-09-26T14:22:58.924+02:00[Europe/Madrid]</time>
      </trkpt>
      <trkpt lat="37.231197" lon="-5.241019">
        <ele>224.0</ele>
        <time>2022-09-26T14:22:59.924+02:00[Europe/Madrid]</time>
      </trkpt>
      <trkpt lat="37.231248" lon="-5.240658">
        <ele>226.0</ele>
        <time>2022-09-26T14:23:00.924+02:00[Europe/Madrid]</time>
      </trkpt>
      <trkpt lat="37.231309" lon="-5.240285">
        <ele>227.0</ele>
        <time>2022-09-26T14:23:01.924+02:00[Europe/Madrid]</time>
      </trkpt>
      <trkpt lat="37.231377" lon="-5.239917">
        <ele>229.0</ele>
        <time>2022-09-26T14:23:02.924+02:00[Europe/Madrid]</time>
      </trkpt>
      <trkpt lat="37.231446" lon="-5.23955">
        <ele>231.0</ele>
        <time>2022-09-26T14:23:03.924+02:00[Europe/Madrid]</time>
      </trkpt>
      <trkpt lat="37.231513" lon="-5.239184">
        <ele>233.0</ele>
        <time>2022-09-26T14:23:04.924+02:00[Europe/Madrid]</time>
      </trkpt>
      <trkpt lat="37.231584" lon="-5.238812">
        <ele>235.0</ele>
        <time>2022-09-26T14:23:05.924+02:00[Europe/Madrid]</time>
      </trkpt>
      <trkpt lat="37.231652" lon="-5.238433">
        <ele>236.0</ele>
        <time>2022-09-26T14:23:06.924+02:00[Europe/Madrid]</time>
      </trkpt>
      <trkpt lat="37.231711" lon="-5.238048">
        <ele>237.0</ele>
        <time>2022-09-26T14:23:07.924+02:00[Europe/Madrid]</time>
      </trkpt>
      <trkpt lat="37.23176" lon="-5.237652">
        <ele>239.0</ele>
        <time>2022-09-26T14:23:08.924+02:00[Europe/Madrid]</time>
      </trkpt>
      <trkpt lat="37.231801" lon="-5.237249">
        <ele>240.0</ele>
        <time>2022-09-26T14:23:09.924+02:00[Europe/Madrid]</time>
      </trkpt>
      <trkpt lat="37.231833" lon="-5.236839">
        <ele>240.0</ele>
        <time>2022-09-26T14:23:10.924+02:00[Europe/Madrid]</time>
      </trkpt>
      <trkpt lat="37.231854" lon="-5.23644">
        <ele>241.0</ele>
        <time>2022-09-26T14:23:11.924+02:00[Europe/Madrid]</time>
      </trkpt>
      <trkpt lat="37.231875" lon="-5.236052">
        <ele>241.0</ele>
        <time>2022-09-26T14:23:12.924+02:00[Europe/Madrid]</time>
      </trkpt>
      <trkpt lat="37.231891" lon="-5.235669">
        <ele>241.0</ele>
        <time>2022-09-26T14:23:13.924+02:00[Europe/Madrid]</time>
      </trkpt>
      <trkpt lat="37.231908" lon="-5.23529">
        <ele>241.0</ele>
        <time>2022-09-26T14:23:14.924+02:00[Europe/Madrid]</time>
      </trkpt>
      <trkpt lat="37.231925" lon="-5.234911">
        <ele>242.0</ele>
        <time>2022-09-26T14:23:15.924+02:00[Europe/Madrid]</time>
      </trkpt>
      <trkpt lat="37.231941" lon="-5.234531">
        <ele>241.0</ele>
        <time>2022-09-26T14:23:16.924+02:00[Europe/Madrid]</time>
      </trkpt>
      <trkpt lat="37.231956" lon="-5.234151">
        <ele>242.0</ele>
        <time>2022-09-26T14:23:17.924+02:00[Europe/Madrid]</time>
      </trkpt>
      <trkpt lat="37.231973" lon="-5.233766">
        <ele>242.0</ele>
        <time>2022-09-26T14:23:18.924+02:00[Europe/Madrid]</time>
      </trkpt>
      <trkpt lat="37.231987" lon="-5.23338">
        <ele>242.0</ele>
        <time>2022-09-26T14:23:19.924+02:00[Europe/Madrid]</time>
      </trkpt>
      <trkpt lat="37.232007" lon="-5.232992">
        <ele>242.0</ele>
        <time>2022-09-26T14:23:20.924+02:00[Europe/Madrid]</time>
      </trkpt>
      <trkpt lat="37.232026" lon="-5.232609">
        <ele>243.0</ele>
        <time>2022-09-26T14:23:21.924+02:00[Europe/Madrid]</time>
      </trkpt>
      <trkpt lat="37.232048" lon="-5.232224">
        <ele>244.0</ele>
        <time>2022-09-26T14:23:22.924+02:00[Europe/Madrid]</time>
      </trkpt>
      <trkpt lat="37.232066" lon="-5.231844">
        <ele>245.0</ele>
        <time>2022-09-26T14:23:23.924+02:00[Europe/Madrid]</time>
      </trkpt>
      <trkpt lat="37.232086" lon="-5.231462">
        <ele>246.0</ele>
        <time>2022-09-26T14:23:24.924+02:00[Europe/Madrid]</time>
      </trkpt>
      <trkpt lat="37.232099" lon="-5.231084">
        <ele>247.0</ele>
        <time>2022-09-26T14:23:25.924+02:00[Europe/Madrid]</time>
      </trkpt>
      <trkpt lat="37.232115" lon="-5.230701">
        <ele>247.0</ele>
        <time>2022-09-26T14:23:26.924+02:00[Europe/Madrid]</time>
      </trkpt>
      <trkpt lat="37.232133" lon="-5.230323">
        <ele>248.0</ele>
        <time>2022-09-26T14:23:27.924+02:00[Europe/Madrid]</time>
      </trkpt>
      <trkpt lat="37.23215" lon="-5.229949">
        <ele>249.0</ele>
        <time>2022-09-26T14:23:28.924+02:00[Europe/Madrid]</time>
      </trkpt>
      <trkpt lat="37.232165" lon="-5.229571">
        <ele>249.0</ele>
        <time>2022-09-26T14:23:29.924+02:00[Europe/Madrid]</time>
      </trkpt>
      <trkpt lat="37.232179" lon="-5.229194">
        <ele>249.0</ele>
        <time>2022-09-26T14:23:30.924+02:00[Europe/Madrid]</time>
      </trkpt>
      <trkpt lat="37.232191" lon="-5.228821">
        <ele>250.0</ele>
        <time>2022-09-26T14:23:31.924+02:00[Europe/Madrid]</time>
      </trkpt>
      <trkpt lat="37.232202" lon="-5.228452">
        <ele>250.0</ele>
        <time>2022-09-26T14:23:32.924+02:00[Europe/Madrid]</time>
      </trkpt>
      <trkpt lat="37.232213" lon="-5.228078">
        <ele>251.0</ele>
        <time>2022-09-26T14:23:33.924+02:00[Europe/Madrid]</time>
      </trkpt>
      <trkpt lat="37.232227" lon="-5.227702">
        <ele>251.0</ele>
        <time>2022-09-26T14:23:34.924+02:00[Europe/Madrid]</time>
      </trkpt>
      <trkpt lat="37.232239" lon="-5.227327">
        <ele>252.0</ele>
        <time>2022-09-26T14:23:35.924+02:00[Europe/Madrid]</time>
      </trkpt>
      <trkpt lat="37.232254" lon="-5.226958">
        <ele>253.0</ele>
        <time>2022-09-26T14:23:36.924+02:00[Europe/Madrid]</time>
      </trkpt>
      <trkpt lat="37.23226" lon="-5.226593">
        <ele>254.0</ele>
        <time>2022-09-26T14:23:37.924+02:00[Europe/Madrid]</time>
      </trkpt>
      <trkpt lat="37.232262" lon="-5.226223">
        <ele>254.0</ele>
        <time>2022-09-26T14:23:38.924+02:00[Europe/Madrid]</time>
      </trkpt>
      <trkpt lat="37.232252" lon="-5.225851">
        <ele>255.0</ele>
        <time>2022-09-26T14:23:39.924+02:00[Europe/Madrid]</time>
      </trkpt>
      <trkpt lat="37.23224" lon="-5.225477">
        <ele>255.0</ele>
        <time>2022-09-26T14:23:40.924+02:00[Europe/Madrid]</time>
      </trkpt>
      <trkpt lat="37.232226" lon="-5.225101">
        <ele>256.0</ele>
        <time>2022-09-26T14:23:41.924+02:00[Europe/Madrid]</time>
      </trkpt>
      <trkpt lat="37.232208" lon="-5.224719">
        <ele>257.0</ele>
        <time>2022-09-26T14:23:42.924+02:00[Europe/Madrid]</time>
      </trkpt>
      <trkpt lat="37.232186" lon="-5.224331">
        <ele>258.0</ele>
        <time>2022-09-26T14:23:43.924+02:00[Europe/Madrid]</time>
      </trkpt>
      <trkpt lat="37.232165" lon="-5.223941">
        <ele>259.0</ele>
        <time>2022-09-26T14:23:44.924+02:00[Europe/Madrid]</time>
      </trkpt>
      <trkpt lat="37.232143" lon="-5.223554">
        <ele>260.0</ele>
        <time>2022-09-26T14:23:45.924+02:00[Europe/Madrid]</time>
      </trkpt>
      <trkpt lat="37.232119" lon="-5.223173">
        <ele>261.0</ele>
        <time>2022-09-26T14:23:46.924+02:00[Europe/Madrid]</time>
      </trkpt>
      <trkpt lat="37.232096" lon="-5.222799">
        <ele>262.0</ele>
        <time>2022-09-26T14:23:47.924+02:00[Europe/Madrid]</time>
      </trkpt>
      <trkpt lat="37.232072" lon="-5.222427">
        <ele>263.0</ele>
        <time>2022-09-26T14:23:48.924+02:00[Europe/Madrid]</time>
      </trkpt>
      <trkpt lat="37.23205" lon="-5.222065">
        <ele>264.0</ele>
        <time>2022-09-26T14:23:49.924+02:00[Europe/Madrid]</time>
      </trkpt>
      <trkpt lat="37.232024" lon="-5.221705">
        <ele>265.0</ele>
        <time>2022-09-26T14:23:50.924+02:00[Europe/Madrid]</time>
      </trkpt>
      <trkpt lat="37.232008" lon="-5.221346">
        <ele>266.0</ele>
        <time>2022-09-26T14:23:51.924+02:00[Europe/Madrid]</time>
      </trkpt>
      <trkpt lat="37.232005" lon="-5.22099">
        <ele>266.0</ele>
        <time>2022-09-26T14:23:52.924+02:00[Europe/Madrid]</time>
      </trkpt>
      <trkpt lat="37.232028" lon="-5.22064">
        <ele>267.0</ele>
        <time>2022-09-26T14:23:53.924+02:00[Europe/Madrid]</time>
      </trkpt>
      <trkpt lat="37.232067" lon="-5.220289">
        <ele>267.0</ele>
        <time>2022-09-26T14:23:54.924+02:00[Europe/Madrid]</time>
      </trkpt>
      <trkpt lat="37.23212" lon="-5.219935">
        <ele>268.0</ele>
        <time>2022-09-26T14:23:55.924+02:00[Europe/Madrid]</time>
      </trkpt>
      <trkpt lat="37.232175" lon="-5.219574">
        <ele>269.0</ele>
        <time>2022-09-26T14:23:56.924+02:00[Europe/Madrid]</time>
      </trkpt>
      <trkpt lat="37.232225" lon="-5.219213">
        <ele>270.0</ele>
        <time>2022-09-26T14:23:57.924+02:00[Europe/Madrid]</time>
      </trkpt>
      <trkpt lat="37.232275" lon="-5.218847">
        <ele>270.0</ele>
        <time>2022-09-26T14:23:58.924+02:00[Europe/Madrid]</time>
      </trkpt>
      <trkpt lat="37.232328" lon="-5.218476">
        <ele>271.0</ele>
        <time>2022-09-26T14:23:59.924+02:00[Europe/Madrid]</time>
      </trkpt>
      <trkpt lat="37.232382" lon="-5.218098">
        <ele>272.0</ele>
        <time>2022-09-26T14:24:00.924+02:00[Europe/Madrid]</time>
      </trkpt>
      <trkpt lat="37.232438" lon="-5.217726">
        <ele>273.0</ele>
        <time>2022-09-26T14:24:01.924+02:00[Europe/Madrid]</time>
      </trkpt>
      <trkpt lat="37.232494" lon="-5.217365">
        <ele>274.0</ele>
        <time>2022-09-26T14:24:02.924+02:00[Europe/Madrid]</time>
      </trkpt>
      <trkpt lat="37.232545" lon="-5.217007">
        <ele>274.0</ele>
        <time>2022-09-26T14:24:03.924+02:00[Europe/Madrid]</time>
      </trkpt>
      <trkpt lat="37.23259" lon="-5.216648">
        <ele>274.0</ele>
        <time>2022-09-26T14:24:04.924+02:00[Europe/Madrid]</time>
      </trkpt>
      <trkpt lat="37.23263" lon="-5.216282">
        <ele>275.0</ele>
        <time>2022-09-26T14:24:05.924+02:00[Europe/Madrid]</time>
      </trkpt>
      <trkpt lat="37.232662" lon="-5.215908">
        <ele>276.0</ele>
        <time>2022-09-26T14:24:06.924+02:00[Europe/Madrid]</time>
      </trkpt>
      <trkpt lat="37.232691" lon="-5.215528">
        <ele>276.0</ele>
        <time>2022-09-26T14:24:07.924+02:00[Europe/Madrid]</time>
      </trkpt>
      <trkpt lat="37.232719" lon="-5.215146">
        <ele>277.0</ele>
        <time>2022-09-26T14:24:08.924+02:00[Europe/Madrid]</time>
      </trkpt>
      <trkpt lat="37.232745" lon="-5.214772">
        <ele>277.0</ele>
        <time>2022-09-26T14:24:09.924+02:00[Europe/Madrid]</time>
      </trkpt>
      <trkpt lat="37.232766" lon="-5.214406">
        <ele>277.0</ele>
        <time>2022-09-26T14:24:10.924+02:00[Europe/Madrid]</time>
      </trkpt>
      <trkpt lat="37.23279" lon="-5.21404">
        <ele>278.0</ele>
        <time>2022-09-26T14:24:11.924+02:00[Europe/Madrid]</time>
      </trkpt>
      <trkpt lat="37.232817" lon="-5.213673">
        <ele>278.0</ele>
        <time>2022-09-26T14:24:12.924+02:00[Europe/Madrid]</time>
      </trkpt>
      <trkpt lat="37.232843" lon="-5.213298">
        <ele>279.0</ele>
        <time>2022-09-26T14:24:13.924+02:00[Europe/Madrid]</time>
      </trkpt>
      <trkpt lat="37.232871" lon="-5.212912">
        <ele>279.0</ele>
        <time>2022-09-26T14:24:14.924+02:00[Europe/Madrid]</time>
      </trkpt>
      <trkpt lat="37.2329" lon="-5.212526">
        <ele>279.0</ele>
        <time>2022-09-26T14:24:15.924+02:00[Europe/Madrid]</time>
      </trkpt>
      <trkpt lat="37.232927" lon="-5.212144">
        <ele>280.0</ele>
        <time>2022-09-26T14:24:16.924+02:00[Europe/Madrid]</time>
      </trkpt>
      <trkpt lat="37.232953" lon="-5.211754">
        <ele>280.0</ele>
        <time>2022-09-26T14:24:17.924+02:00[Europe/Madrid]</time>
      </trkpt>
      <trkpt lat="37.232975" lon="-5.211371">
        <ele>279.0</ele>
        <time>2022-09-26T14:24:18.924+02:00[Europe/Madrid]</time>
      </trkpt>
      <trkpt lat="37.232996" lon="-5.210999">
        <ele>279.0</ele>
        <time>2022-09-26T14:24:19.924+02:00[Europe/Madrid]</time>
      </trkpt>
      <trkpt lat="37.233005" lon="-5.210631">
        <ele>278.0</ele>
        <time>2022-09-26T14:24:20.924+02:00[Europe/Madrid]</time>
      </trkpt>
      <trkpt lat="37.232999" lon="-5.210262">
        <ele>277.0</ele>
        <time>2022-09-26T14:24:21.924+02:00[Europe/Madrid]</time>
      </trkpt>
      <trkpt lat="37.232984" lon="-5.209887">
        <ele>276.0</ele>
        <time>2022-09-26T14:24:22.924+02:00[Europe/Madrid]</time>
      </trkpt>
      <trkpt lat="37.232964" lon="-5.209513">
        <ele>275.0</ele>
        <time>2022-09-26T14:24:23.924+02:00[Europe/Madrid]</time>
      </trkpt>
      <trkpt lat="37.232942" lon="-5.209136">
        <ele>274.0</ele>
        <time>2022-09-26T14:24:24.924+02:00[Europe/Madrid]</time>
      </trkpt>
      <trkpt lat="37.232915" lon="-5.208753">
        <ele>272.0</ele>
        <time>2022-09-26T14:24:25.924+02:00[Europe/Madrid]</time>
      </trkpt>
      <trkpt lat="37.232887" lon="-5.208371">
        <ele>270.0</ele>
        <time>2022-09-26T14:24:26.924+02:00[Europe/Madrid]</time>
      </trkpt>
      <trkpt lat="37.232862" lon="-5.207985">
        <ele>268.0</ele>
        <time>2022-09-26T14:24:27.924+02:00[Europe/Madrid]</time>
      </trkpt>
      <trkpt lat="37.232834" lon="-5.207595">
        <ele>267.0</ele>
        <time>2022-09-26T14:24:28.924+02:00[Europe/Madrid]</time>
      </trkpt>
      <trkpt lat="37.232808" lon="-5.207208">
        <ele>266.0</ele>
        <time>2022-09-26T14:24:29.924+02:00[Europe/Madrid]</time>
      </trkpt>
      <trkpt lat="37.23278" lon="-5.206828">
        <ele>264.0</ele>
        <time>2022-09-26T14:24:30.924+02:00[Europe/Madrid]</time>
      </trkpt>
      <trkpt lat="37.232755" lon="-5.206453">
        <ele>263.0</ele>
        <time>2022-09-26T14:24:31.924+02:00[Europe/Madrid]</time>
      </trkpt>
      <trkpt lat="37.232731" lon="-5.206078">
        <ele>262.0</ele>
        <time>2022-09-26T14:24:32.924+02:00[Europe/Madrid]</time>
      </trkpt>
      <trkpt lat="37.232704" lon="-5.205703">
        <ele>261.0</ele>
        <time>2022-09-26T14:24:33.924+02:00[Europe/Madrid]</time>
      </trkpt>
      <trkpt lat="37.232675" lon="-5.205328">
        <ele>260.0</ele>
        <time>2022-09-26T14:24:34.924+02:00[Europe/Madrid]</time>
      </trkpt>
      <trkpt lat="37.232646" lon="-5.204957">
        <ele>259.0</ele>
        <time>2022-09-26T14:24:35.924+02:00[Europe/Madrid]</time>
      </trkpt>
      <trkpt lat="37.232624" lon="-5.204591">
        <ele>258.0</ele>
        <time>2022-09-26T14:24:36.924+02:00[Europe/Madrid]</time>
      </trkpt>
      <trkpt lat="37.23262" lon="-5.204226">
        <ele>257.0</ele>
        <time>2022-09-26T14:24:37.924+02:00[Europe/Madrid]</time>
      </trkpt>
      <trkpt lat="37.23263" lon="-5.203856">
        <ele>257.0</ele>
        <time>2022-09-26T14:24:38.924+02:00[Europe/Madrid]</time>
      </trkpt>
      <trkpt lat="37.232653" lon="-5.203488">
        <ele>255.0</ele>
        <time>2022-09-26T14:24:39.924+02:00[Europe/Madrid]</time>
      </trkpt>
      <trkpt lat="37.232682" lon="-5.203116">
        <ele>254.0</ele>
        <time>2022-09-26T14:24:40.924+02:00[Europe/Madrid]</time>
      </trkpt>
      <trkpt lat="37.23271" lon="-5.202741">
        <ele>252.0</ele>
        <time>2022-09-26T14:24:41.924+02:00[Europe/Madrid]</time>
      </trkpt>
      <trkpt lat="37.232738" lon="-5.202362">
        <ele>251.0</ele>
        <time>2022-09-26T14:24:42.924+02:00[Europe/Madrid]</time>
      </trkpt>
      <trkpt lat="37.232771" lon="-5.201979">
        <ele>249.0</ele>
        <time>2022-09-26T14:24:43.924+02:00[Europe/Madrid]</time>
      </trkpt>
      <trkpt lat="37.232806" lon="-5.201599">
        <ele>248.0</ele>
        <time>2022-09-26T14:24:44.924+02:00[Europe/Madrid]</time>
      </trkpt>
      <trkpt lat="37.232842" lon="-5.201216">
        <ele>247.0</ele>
        <time>2022-09-26T14:24:45.924+02:00[Europe/Madrid]</time>
      </trkpt>
      <trkpt lat="37.232877" lon="-5.200832">
        <ele>245.0</ele>
        <time>2022-09-26T14:24:46.924+02:00[Europe/Madrid]</time>
      </trkpt>
      <trkpt lat="37.232916" lon="-5.200449">
        <ele>245.0</ele>
        <time>2022-09-26T14:24:47.924+02:00[Europe/Madrid]</time>
      </trkpt>
      <trkpt lat="37.232952" lon="-5.200068">
        <ele>244.0</ele>
        <time>2022-09-26T14:24:48.924+02:00[Europe/Madrid]</time>
      </trkpt>
      <trkpt lat="37.232988" lon="-5.199685">
        <ele>244.0</ele>
        <time>2022-09-26T14:24:49.924+02:00[Europe/Madrid]</time>
      </trkpt>
      <trkpt lat="37.233025" lon="-5.199297">
        <ele>244.0</ele>
        <time>2022-09-26T14:24:50.924+02:00[Europe/Madrid]</time>
      </trkpt>
      <trkpt lat="37.233069" lon="-5.198895">
        <ele>244.0</ele>
        <time>2022-09-26T14:24:51.924+02:00[Europe/Madrid]</time>
      </trkpt>
      <trkpt lat="37.233117" lon="-5.198477">
        <ele>243.0</ele>
        <time>2022-09-26T14:24:52.924+02:00[Europe/Madrid]</time>
      </trkpt>
      <trkpt lat="37.233163" lon="-5.198048">
        <ele>243.0</ele>
        <time>2022-09-26T14:24:53.924+02:00[Europe/Madrid]</time>
      </trkpt>
      <trkpt lat="37.233209" lon="-5.197609">
        <ele>243.0</ele>
        <time>2022-09-26T14:24:54.924+02:00[Europe/Madrid]</time>
      </trkpt>
      <trkpt lat="37.233254" lon="-5.197165">
        <ele>243.0</ele>
        <time>2022-09-26T14:24:55.924+02:00[Europe/Madrid]</time>
      </trkpt>
      <trkpt lat="37.233295" lon="-5.196708">
        <ele>243.0</ele>
        <time>2022-09-26T14:24:56.924+02:00[Europe/Madrid]</time>
      </trkpt>
      <trkpt lat="37.233337" lon="-5.196247">
        <ele>242.0</ele>
        <time>2022-09-26T14:24:57.924+02:00[Europe/Madrid]</time>
      </trkpt>
      <trkpt lat="37.233376" lon="-5.195791">
        <ele>242.0</ele>
        <time>2022-09-26T14:24:58.924+02:00[Europe/Madrid]</time>
      </trkpt>
      <trkpt lat="37.233411" lon="-5.195336">
        <ele>242.0</ele>
        <time>2022-09-26T14:24:59.924+02:00[Europe/Madrid]</time>
      </trkpt>
      <trkpt lat="37.23345" lon="-5.194881">
        <ele>243.0</ele>
        <time>2022-09-26T14:25:00.924+02:00[Europe/Madrid]</time>
      </trkpt>
      <trkpt lat="37.233487" lon="-5.19443">
        <ele>244.0</ele>
        <time>2022-09-26T14:25:01.924+02:00[Europe/Madrid]</time>
      </trkpt>
      <trkpt lat="37.233524" lon="-5.193994">
        <ele>245.0</ele>
        <time>2022-09-26T14:25:02.924+02:00[Europe/Madrid]</time>
      </trkpt>
      <trkpt lat="37.233557" lon="-5.193575">
        <ele>246.0</ele>
        <time>2022-09-26T14:25:03.924+02:00[Europe/Madrid]</time>
      </trkpt>
      <trkpt lat="37.233583" lon="-5.193165">
        <ele>247.0</ele>
        <time>2022-09-26T14:25:04.924+02:00[Europe/Madrid]</time>
      </trkpt>
      <trkpt lat="37.233597" lon="-5.192761">
        <ele>249.0</ele>
        <time>2022-09-26T14:25:05.924+02:00[Europe/Madrid]</time>
      </trkpt>
      <trkpt lat="37.233596" lon="-5.19235">
        <ele>250.0</ele>
        <time>2022-09-26T14:25:06.924+02:00[Europe/Madrid]</time>
      </trkpt>
      <trkpt lat="37.233573" lon="-5.191933">
        <ele>250.0</ele>
        <time>2022-09-26T14:25:07.924+02:00[Europe/Madrid]</time>
      </trkpt>
      <trkpt lat="37.233534" lon="-5.191514">
        <ele>251.0</ele>
        <time>2022-09-26T14:25:08.924+02:00[Europe/Madrid]</time>
      </trkpt>
      <trkpt lat="37.233491" lon="-5.191095">
        <ele>251.0</ele>
        <time>2022-09-26T14:25:09.924+02:00[Europe/Madrid]</time>
      </trkpt>
      <trkpt lat="37.233444" lon="-5.190679">
        <ele>252.0</ele>
        <time>2022-09-26T14:25:10.924+02:00[Europe/Madrid]</time>
      </trkpt>
      <trkpt lat="37.233395" lon="-5.190264">
        <ele>252.0</ele>
        <time>2022-09-26T14:25:11.924+02:00[Europe/Madrid]</time>
      </trkpt>
      <trkpt lat="37.233348" lon="-5.189853">
        <ele>252.0</ele>
        <time>2022-09-26T14:25:12.924+02:00[Europe/Madrid]</time>
      </trkpt>
      <trkpt lat="37.233301" lon="-5.189446">
        <ele>252.0</ele>
        <time>2022-09-26T14:25:13.924+02:00[Europe/Madrid]</time>
      </trkpt>
      <trkpt lat="37.233259" lon="-5.189042">
        <ele>252.0</ele>
        <time>2022-09-26T14:25:14.924+02:00[Europe/Madrid]</time>
      </trkpt>
      <trkpt lat="37.233213" lon="-5.188642">
        <ele>252.0</ele>
        <time>2022-09-26T14:25:15.924+02:00[Europe/Madrid]</time>
      </trkpt>
      <trkpt lat="37.23317" lon="-5.188242">
        <ele>251.0</ele>
        <time>2022-09-26T14:25:16.924+02:00[Europe/Madrid]</time>
      </trkpt>
      <trkpt lat="37.233126" lon="-5.187846">
        <ele>251.0</ele>
        <time>2022-09-26T14:25:17.924+02:00[Europe/Madrid]</time>
      </trkpt>
      <trkpt lat="37.233086" lon="-5.187449">
        <ele>251.0</ele>
        <time>2022-09-26T14:25:18.924+02:00[Europe/Madrid]</time>
      </trkpt>
      <trkpt lat="37.233061" lon="-5.187057">
        <ele>251.0</ele>
        <time>2022-09-26T14:25:19.924+02:00[Europe/Madrid]</time>
      </trkpt>
      <trkpt lat="37.233064" lon="-5.186661">
        <ele>252.0</ele>
        <time>2022-09-26T14:25:20.924+02:00[Europe/Madrid]</time>
      </trkpt>
      <trkpt lat="37.23308" lon="-5.186253">
        <ele>253.0</ele>
        <time>2022-09-26T14:25:21.924+02:00[Europe/Madrid]</time>
      </trkpt>
      <trkpt lat="37.233098" lon="-5.185833">
        <ele>254.0</ele>
        <time>2022-09-26T14:25:22.924+02:00[Europe/Madrid]</time>
      </trkpt>
      <trkpt lat="37.233116" lon="-5.185405">
        <ele>256.0</ele>
        <time>2022-09-26T14:25:23.924+02:00[Europe/Madrid]</time>
      </trkpt>
      <trkpt lat="37.233131" lon="-5.184978">
        <ele>257.0</ele>
        <time>2022-09-26T14:25:24.924+02:00[Europe/Madrid]</time>
      </trkpt>
      <trkpt lat="37.233147" lon="-5.184569">
        <ele>258.0</ele>
        <time>2022-09-26T14:25:25.924+02:00[Europe/Madrid]</time>
      </trkpt>
      <trkpt lat="37.23316" lon="-5.184168">
        <ele>259.0</ele>
        <time>2022-09-26T14:25:26.924+02:00[Europe/Madrid]</time>
      </trkpt>
      <trkpt lat="37.233177" lon="-5.183774">
        <ele>260.0</ele>
        <time>2022-09-26T14:25:27.924+02:00[Europe/Madrid]</time>
      </trkpt>
      <trkpt lat="37.233196" lon="-5.183378">
        <ele>261.0</ele>
        <time>2022-09-26T14:25:28.924+02:00[Europe/Madrid]</time>
      </trkpt>
      <trkpt lat="37.233218" lon="-5.182972">
        <ele>261.0</ele>
        <time>2022-09-26T14:25:29.924+02:00[Europe/Madrid]</time>
      </trkpt>
      <trkpt lat="37.233242" lon="-5.182556">
        <ele>262.0</ele>
        <time>2022-09-26T14:25:30.924+02:00[Europe/Madrid]</time>
      </trkpt>
      <trkpt lat="37.233268" lon="-5.18213">
        <ele>262.0</ele>
        <time>2022-09-26T14:25:31.924+02:00[Europe/Madrid]</time>
      </trkpt>
      <trkpt lat="37.233299" lon="-5.181711">
        <ele>262.0</ele>
        <time>2022-09-26T14:25:32.924+02:00[Europe/Madrid]</time>
      </trkpt>
      <trkpt lat="37.233326" lon="-5.18131">
        <ele>263.0</ele>
        <time>2022-09-26T14:25:33.924+02:00[Europe/Madrid]</time>
      </trkpt>
      <trkpt lat="37.23335" lon="-5.180917">
        <ele>263.0</ele>
        <time>2022-09-26T14:25:34.924+02:00[Europe/Madrid]</time>
      </trkpt>
      <trkpt lat="37.233366" lon="-5.18053">
        <ele>264.0</ele>
        <time>2022-09-26T14:25:35.924+02:00[Europe/Madrid]</time>
      </trkpt>
      <trkpt lat="37.233376" lon="-5.180149">
        <ele>264.0</ele>
        <time>2022-09-26T14:25:36.924+02:00[Europe/Madrid]</time>
      </trkpt>
      <trkpt lat="37.233367" lon="-5.179765">
        <ele>265.0</ele>
        <time>2022-09-26T14:25:37.924+02:00[Europe/Madrid]</time>
      </trkpt>
      <trkpt lat="37.233348" lon="-5.179388">
        <ele>265.0</ele>
        <time>2022-09-26T14:25:38.924+02:00[Europe/Madrid]</time>
      </trkpt>
      <trkpt lat="37.233317" lon="-5.179012">
        <ele>266.0</ele>
        <time>2022-09-26T14:25:39.924+02:00[Europe/Madrid]</time>
      </trkpt>
      <trkpt lat="37.233284" lon="-5.178637">
        <ele>266.0</ele>
        <time>2022-09-26T14:25:40.924+02:00[Europe/Madrid]</time>
      </trkpt>
      <trkpt lat="37.233244" lon="-5.17826">
        <ele>265.0</ele>
        <time>2022-09-26T14:25:41.924+02:00[Europe/Madrid]</time>
      </trkpt>
      <trkpt lat="37.233201" lon="-5.177886">
        <ele>265.0</ele>
        <time>2022-09-26T14:25:42.924+02:00[Europe/Madrid]</time>
      </trkpt>
      <trkpt lat="37.233149" lon="-5.177517">
        <ele>265.0</ele>
        <time>2022-09-26T14:25:43.924+02:00[Europe/Madrid]</time>
      </trkpt>
      <trkpt lat="37.233093" lon="-5.177153">
        <ele>265.0</ele>
        <time>2022-09-26T14:25:44.924+02:00[Europe/Madrid]</time>
      </trkpt>
      <trkpt lat="37.233027" lon="-5.17679">
        <ele>264.0</ele>
        <time>2022-09-26T14:25:45.924+02:00[Europe/Madrid]</time>
      </trkpt>
      <trkpt lat="37.232953" lon="-5.176429">
        <ele>264.0</ele>
        <time>2022-09-26T14:25:46.924+02:00[Europe/Madrid]</time>
      </trkpt>
      <trkpt lat="37.232871" lon="-5.176069">
        <ele>263.0</ele>
        <time>2022-09-26T14:25:47.924+02:00[Europe/Madrid]</time>
      </trkpt>
      <trkpt lat="37.232788" lon="-5.175709">
        <ele>263.0</ele>
        <time>2022-09-26T14:25:48.924+02:00[Europe/Madrid]</time>
      </trkpt>
      <trkpt lat="37.2327" lon="-5.17535">
        <ele>262.0</ele>
        <time>2022-09-26T14:25:49.924+02:00[Europe/Madrid]</time>
      </trkpt>
      <trkpt lat="37.23261" lon="-5.174991">
        <ele>262.0</ele>
        <time>2022-09-26T14:25:50.924+02:00[Europe/Madrid]</time>
      </trkpt>
      <trkpt lat="37.232519" lon="-5.174633">
        <ele>261.0</ele>
        <time>2022-09-26T14:25:51.924+02:00[Europe/Madrid]</time>
      </trkpt>
      <trkpt lat="37.232435" lon="-5.17428">
        <ele>261.0</ele>
        <time>2022-09-26T14:25:52.924+02:00[Europe/Madrid]</time>
      </trkpt>
      <trkpt lat="37.232357" lon="-5.173933">
        <ele>261.0</ele>
        <time>2022-09-26T14:25:53.924+02:00[Europe/Madrid]</time>
      </trkpt>
      <trkpt lat="37.23229" lon="-5.173585">
        <ele>261.0</ele>
        <time>2022-09-26T14:25:54.924+02:00[Europe/Madrid]</time>
      </trkpt>
      <trkpt lat="37.232241" lon="-5.17323">
        <ele>261.0</ele>
        <time>2022-09-26T14:25:55.924+02:00[Europe/Madrid]</time>
      </trkpt>
      <trkpt lat="37.232207" lon="-5.17287">
        <ele>262.0</ele>
        <time>2022-09-26T14:25:56.924+02:00[Europe/Madrid]</time>
      </trkpt>
      <trkpt lat="37.232189" lon="-5.172509">
        <ele>262.0</ele>
        <time>2022-09-26T14:25:57.924+02:00[Europe/Madrid]</time>
      </trkpt>
      <trkpt lat="37.23218" lon="-5.17214">
        <ele>261.0</ele>
        <time>2022-09-26T14:25:58.924+02:00[Europe/Madrid]</time>
      </trkpt>
      <trkpt lat="37.232182" lon="-5.171777">
        <ele>262.0</ele>
        <time>2022-09-26T14:25:59.924+02:00[Europe/Madrid]</time>
      </trkpt>
      <trkpt lat="37.232191" lon="-5.171425">
        <ele>262.0</ele>
        <time>2022-09-26T14:26:00.924+02:00[Europe/Madrid]</time>
      </trkpt>
      <trkpt lat="37.232199" lon="-5.171071">
        <ele>262.0</ele>
        <time>2022-09-26T14:26:01.924+02:00[Europe/Madrid]</time>
      </trkpt>
      <trkpt lat="37.232205" lon="-5.17072">
        <ele>262.0</ele>
        <time>2022-09-26T14:26:02.924+02:00[Europe/Madrid]</time>
      </trkpt>
      <trkpt lat="37.232211" lon="-5.170369">
        <ele>262.0</ele>
        <time>2022-09-26T14:26:03.924+02:00[Europe/Madrid]</time>
      </trkpt>
      <trkpt lat="37.232218" lon="-5.170022">
        <ele>262.0</ele>
        <time>2022-09-26T14:26:04.924+02:00[Europe/Madrid]</time>
      </trkpt>
      <trkpt lat="37.232228" lon="-5.169676">
        <ele>262.0</ele>
        <time>2022-09-26T14:26:05.924+02:00[Europe/Madrid]</time>
      </trkpt>
      <trkpt lat="37.232236" lon="-5.169325">
        <ele>262.0</ele>
        <time>2022-09-26T14:26:06.924+02:00[Europe/Madrid]</time>
      </trkpt>
      <trkpt lat="37.232248" lon="-5.16897">
        <ele>263.0</ele>
        <time>2022-09-26T14:26:07.924+02:00[Europe/Madrid]</time>
      </trkpt>
      <trkpt lat="37.232263" lon="-5.168617">
        <ele>262.0</ele>
        <time>2022-09-26T14:26:08.924+02:00[Europe/Madrid]</time>
      </trkpt>
      <trkpt lat="37.232295" lon="-5.168259">
        <ele>263.0</ele>
        <time>2022-09-26T14:26:09.924+02:00[Europe/Madrid]</time>
      </trkpt>
      <trkpt lat="37.232338" lon="-5.167902">
        <ele>263.0</ele>
        <time>2022-09-26T14:26:10.924+02:00[Europe/Madrid]</time>
      </trkpt>
      <trkpt lat="37.232389" lon="-5.167547">
        <ele>263.0</ele>
        <time>2022-09-26T14:26:11.924+02:00[Europe/Madrid]</time>
      </trkpt>
      <trkpt lat="37.232455" lon="-5.167192">
        <ele>263.0</ele>
        <time>2022-09-26T14:26:12.924+02:00[Europe/Madrid]</time>
      </trkpt>
      <trkpt lat="37.23253" lon="-5.166841">
        <ele>263.0</ele>
        <time>2022-09-26T14:26:13.924+02:00[Europe/Madrid]</time>
      </trkpt>
      <trkpt lat="37.232617" lon="-5.16649">
        <ele>263.0</ele>
        <time>2022-09-26T14:26:14.924+02:00[Europe/Madrid]</time>
      </trkpt>
      <trkpt lat="37.232705" lon="-5.166139">
        <ele>263.0</ele>
        <time>2022-09-26T14:26:15.924+02:00[Europe/Madrid]</time>
      </trkpt>
      <trkpt lat="37.232797" lon="-5.165789">
        <ele>263.0</ele>
        <time>2022-09-26T14:26:16.924+02:00[Europe/Madrid]</time>
      </trkpt>
      <trkpt lat="37.232886" lon="-5.16544">
        <ele>263.0</ele>
        <time>2022-09-26T14:26:17.924+02:00[Europe/Madrid]</time>
      </trkpt>
      <trkpt lat="37.232971" lon="-5.165093">
        <ele>262.0</ele>
        <time>2022-09-26T14:26:18.924+02:00[Europe/Madrid]</time>
      </trkpt>
      <trkpt lat="37.23306" lon="-5.164745">
        <ele>262.0</ele>
        <time>2022-09-26T14:26:19.924+02:00[Europe/Madrid]</time>
      </trkpt>
      <trkpt lat="37.233147" lon="-5.164395">
        <ele>262.0</ele>
        <time>2022-09-26T14:26:20.924+02:00[Europe/Madrid]</time>
      </trkpt>
      <trkpt lat="37.233223" lon="-5.164049">
        <ele>262.0</ele>
        <time>2022-09-26T14:26:21.924+02:00[Europe/Madrid]</time>
      </trkpt>
      <trkpt lat="37.233297" lon="-5.163694">
        <ele>263.0</ele>
        <time>2022-09-26T14:26:22.924+02:00[Europe/Madrid]</time>
      </trkpt>
      <trkpt lat="37.233364" lon="-5.163339">
        <ele>263.0</ele>
        <time>2022-09-26T14:26:23.924+02:00[Europe/Madrid]</time>
      </trkpt>
      <trkpt lat="37.233431" lon="-5.16299">
        <ele>263.0</ele>
        <time>2022-09-26T14:26:24.924+02:00[Europe/Madrid]</time>
      </trkpt>
      <trkpt lat="37.233503" lon="-5.162634">
        <ele>263.0</ele>
        <time>2022-09-26T14:26:25.924+02:00[Europe/Madrid]</time>
      </trkpt>
      <trkpt lat="37.233577" lon="-5.162282">
        <ele>262.0</ele>
        <time>2022-09-26T14:26:26.924+02:00[Europe/Madrid]</time>
      </trkpt>
      <trkpt lat="37.233647" lon="-5.161928">
        <ele>262.0</ele>
        <time>2022-09-26T14:26:27.924+02:00[Europe/Madrid]</time>
      </trkpt>
      <trkpt lat="37.233712" lon="-5.161582">
        <ele>262.0</ele>
        <time>2022-09-26T14:26:28.924+02:00[Europe/Madrid]</time>
      </trkpt>
      <trkpt lat="37.233774" lon="-5.161241">
        <ele>262.0</ele>
        <time>2022-09-26T14:26:29.924+02:00[Europe/Madrid]</time>
      </trkpt>
      <trkpt lat="37.233829" lon="-5.160904">
        <ele>262.0</ele>
        <time>2022-09-26T14:26:30.924+02:00[Europe/Madrid]</time>
      </trkpt>
      <trkpt lat="37.233868" lon="-5.160573">
        <ele>262.0</ele>
        <time>2022-09-26T14:26:31.924+02:00[Europe/Madrid]</time>
      </trkpt>
      <trkpt lat="37.233898" lon="-5.160244">
        <ele>262.0</ele>
        <time>2022-09-26T14:26:32.924+02:00[Europe/Madrid]</time>
      </trkpt>
      <trkpt lat="37.233926" lon="-5.159923">
        <ele>262.0</ele>
        <time>2022-09-26T14:26:33.924+02:00[Europe/Madrid]</time>
      </trkpt>
      <trkpt lat="37.233951" lon="-5.1596">
        <ele>262.0</ele>
        <time>2022-09-26T14:26:34.924+02:00[Europe/Madrid]</time>
      </trkpt>
      <trkpt lat="37.233979" lon="-5.159272">
        <ele>261.0</ele>
        <time>2022-09-26T14:26:35.924+02:00[Europe/Madrid]</time>
      </trkpt>
      <trkpt lat="37.234002" lon="-5.158939">
        <ele>261.0</ele>
        <time>2022-09-26T14:26:36.924+02:00[Europe/Madrid]</time>
      </trkpt>
      <trkpt lat="37.234029" lon="-5.158603">
        <ele>261.0</ele>
        <time>2022-09-26T14:26:37.924+02:00[Europe/Madrid]</time>
      </trkpt>
      <trkpt lat="37.234056" lon="-5.158261">
        <ele>262.0</ele>
        <time>2022-09-26T14:26:38.924+02:00[Europe/Madrid]</time>
      </trkpt>
      <trkpt lat="37.234085" lon="-5.157916">
        <ele>261.0</ele>
        <time>2022-09-26T14:26:39.924+02:00[Europe/Madrid]</time>
      </trkpt>
      <trkpt lat="37.234113" lon="-5.157565">
        <ele>261.0</ele>
        <time>2022-09-26T14:26:40.924+02:00[Europe/Madrid]</time>
      </trkpt>
      <trkpt lat="37.234143" lon="-5.157212">
        <ele>261.0</ele>
        <time>2022-09-26T14:26:41.924+02:00[Europe/Madrid]</time>
      </trkpt>
      <trkpt lat="37.234175" lon="-5.156853">
        <ele>261.0</ele>
        <time>2022-09-26T14:26:42.924+02:00[Europe/Madrid]</time>
      </trkpt>
      <trkpt lat="37.234211" lon="-5.15649">
        <ele>261.0</ele>
        <time>2022-09-26T14:26:43.924+02:00[Europe/Madrid]</time>
      </trkpt>
      <trkpt lat="37.234254" lon="-5.156123">
        <ele>261.0</ele>
        <time>2022-09-26T14:26:44.924+02:00[Europe/Madrid]</time>
      </trkpt>
      <trkpt lat="37.234303" lon="-5.15576">
        <ele>261.0</ele>
        <time>2022-09-26T14:26:45.924+02:00[Europe/Madrid]</time>
      </trkpt>
      <trkpt lat="37.234364" lon="-5.1554">
        <ele>261.0</ele>
        <time>2022-09-26T14:26:46.924+02:00[Europe/Madrid]</time>
      </trkpt>
      <trkpt lat="37.234428" lon="-5.155039">
        <ele>261.0</ele>
        <time>2022-09-26T14:26:47.924+02:00[Europe/Madrid]</time>
      </trkpt>
      <trkpt lat="37.234494" lon="-5.154682">
        <ele>261.0</ele>
        <time>2022-09-26T14:26:48.924+02:00[Europe/Madrid]</time>
      </trkpt>
      <trkpt lat="37.234562" lon="-5.154324">
        <ele>262.0</ele>
        <time>2022-09-26T14:26:49.924+02:00[Europe/Madrid]</time>
      </trkpt>
      <trkpt lat="37.234627" lon="-5.153966">
        <ele>261.0</ele>
        <time>2022-09-26T14:26:50.924+02:00[Europe/Madrid]</time>
      </trkpt>
      <trkpt lat="37.234695" lon="-5.153611">
        <ele>261.0</ele>
        <time>2022-09-26T14:26:51.924+02:00[Europe/Madrid]</time>
      </trkpt>
      <trkpt lat="37.234756" lon="-5.153254">
        <ele>261.0</ele>
        <time>2022-09-26T14:26:52.924+02:00[Europe/Madrid]</time>
      </trkpt>
      <trkpt lat="37.234818" lon="-5.152899">
        <ele>261.0</ele>
        <time>2022-09-26T14:26:53.924+02:00[Europe/Madrid]</time>
      </trkpt>
      <trkpt lat="37.234884" lon="-5.15254">
        <ele>261.0</ele>
        <time>2022-09-26T14:26:54.924+02:00[Europe/Madrid]</time>
      </trkpt>
      <trkpt lat="37.234952" lon="-5.152182">
        <ele>260.0</ele>
        <time>2022-09-26T14:26:55.924+02:00[Europe/Madrid]</time>
      </trkpt>
      <trkpt lat="37.235017" lon="-5.151827">
        <ele>260.0</ele>
        <time>2022-09-26T14:26:56.924+02:00[Europe/Madrid]</time>
      </trkpt>
      <trkpt lat="37.235081" lon="-5.151467">
        <ele>260.0</ele>
        <time>2022-09-26T14:26:57.924+02:00[Europe/Madrid]</time>
      </trkpt>
      <trkpt lat="37.235145" lon="-5.151107">
        <ele>260.0</ele>
        <time>2022-09-26T14:26:58.924+02:00[Europe/Madrid]</time>
      </trkpt>
      <trkpt lat="37.23521" lon="-5.150749">
        <ele>260.0</ele>
        <time>2022-09-26T14:26:59.924+02:00[Europe/Madrid]</time>
      </trkpt>
      <trkpt lat="37.235277" lon="-5.150389">
        <ele>260.0</ele>
        <time>2022-09-26T14:27:00.924+02:00[Europe/Madrid]</time>
      </trkpt>
      <trkpt lat="37.235344" lon="-5.150034">
        <ele>260.0</ele>
        <time>2022-09-26T14:27:01.924+02:00[Europe/Madrid]</time>
      </trkpt>
      <trkpt lat="37.235406" lon="-5.149674">
        <ele>260.0</ele>
        <time>2022-09-26T14:27:02.924+02:00[Europe/Madrid]</time>
      </trkpt>
      <trkpt lat="37.235473" lon="-5.149316">
        <ele>260.0</ele>
        <time>2022-09-26T14:27:03.924+02:00[Europe/Madrid]</time>
      </trkpt>
      <trkpt lat="37.235537" lon="-5.148962">
        <ele>259.0</ele>
        <time>2022-09-26T14:27:04.924+02:00[Europe/Madrid]</time>
      </trkpt>
      <trkpt lat="37.2356" lon="-5.1486">
        <ele>259.0</ele>
        <time>2022-09-26T14:27:05.924+02:00[Europe/Madrid]</time>
      </trkpt>
      <trkpt lat="37.235665" lon="-5.14824">
        <ele>259.0</ele>
        <time>2022-09-26T14:27:06.924+02:00[Europe/Madrid]</time>
      </trkpt>
      <trkpt lat="37.235729" lon="-5.147879">
        <ele>258.0</ele>
        <time>2022-09-26T14:27:07.924+02:00[Europe/Madrid]</time>
      </trkpt>
      <trkpt lat="37.235799" lon="-5.147521">
        <ele>258.0</ele>
        <time>2022-09-26T14:27:08.924+02:00[Europe/Madrid]</time>
      </trkpt>
      <trkpt lat="37.235867" lon="-5.147166">
        <ele>258.0</ele>
        <time>2022-09-26T14:27:09.924+02:00[Europe/Madrid]</time>
      </trkpt>
      <trkpt lat="37.235934" lon="-5.146821">
        <ele>258.0</ele>
        <time>2022-09-26T14:27:10.924+02:00[Europe/Madrid]</time>
      </trkpt>
      <trkpt lat="37.235995" lon="-5.146484">
        <ele>258.0</ele>
        <time>2022-09-26T14:27:11.924+02:00[Europe/Madrid]</time>
      </trkpt>
      <trkpt lat="37.236055" lon="-5.146167">
        <ele>258.0</ele>
        <time>2022-09-26T14:27:12.924+02:00[Europe/Madrid]</time>
      </trkpt>
      <trkpt lat="37.236109" lon="-5.145846">
        <ele>258.0</ele>
        <time>2022-09-26T14:27:13.924+02:00[Europe/Madrid]</time>
      </trkpt>
      <trkpt lat="37.236167" lon="-5.145528">
        <ele>258.0</ele>
        <time>2022-09-26T14:27:14.924+02:00[Europe/Madrid]</time>
      </trkpt>
      <trkpt lat="37.236225" lon="-5.145209">
        <ele>258.0</ele>
        <time>2022-09-26T14:27:15.924+02:00[Europe/Madrid]</time>
      </trkpt>
      <trkpt lat="37.236281" lon="-5.144894">
        <ele>258.0</ele>
        <time>2022-09-26T14:27:16.924+02:00[Europe/Madrid]</time>
      </trkpt>
      <trkpt lat="37.236341" lon="-5.144575">
        <ele>258.0</ele>
        <time>2022-09-26T14:27:17.924+02:00[Europe/Madrid]</time>
      </trkpt>
      <trkpt lat="37.236402" lon="-5.144245">
        <ele>258.0</ele>
        <time>2022-09-26T14:27:18.924+02:00[Europe/Madrid]</time>
      </trkpt>
      <trkpt lat="37.236466" lon="-5.143905">
        <ele>257.0</ele>
        <time>2022-09-26T14:27:19.924+02:00[Europe/Madrid]</time>
      </trkpt>
      <trkpt lat="37.236526" lon="-5.143561">
        <ele>258.0</ele>
        <time>2022-09-26T14:27:20.924+02:00[Europe/Madrid]</time>
      </trkpt>
      <trkpt lat="37.236588" lon="-5.143208">
        <ele>258.0</ele>
        <time>2022-09-26T14:27:21.924+02:00[Europe/Madrid]</time>
      </trkpt>
      <trkpt lat="37.23664" lon="-5.142858">
        <ele>258.0</ele>
        <time>2022-09-26T14:27:22.924+02:00[Europe/Madrid]</time>
      </trkpt>
      <trkpt lat="37.236678" lon="-5.142523">
        <ele>257.0</ele>
        <time>2022-09-26T14:27:23.924+02:00[Europe/Madrid]</time>
      </trkpt>
      <trkpt lat="37.236708" lon="-5.142191">
        <ele>257.0</ele>
        <time>2022-09-26T14:27:24.924+02:00[Europe/Madrid]</time>
      </trkpt>
      <trkpt lat="37.236726" lon="-5.141843">
        <ele>258.0</ele>
        <time>2022-09-26T14:27:25.924+02:00[Europe/Madrid]</time>
      </trkpt>
      <trkpt lat="37.236731" lon="-5.141484">
        <ele>258.0</ele>
        <time>2022-09-26T14:27:26.924+02:00[Europe/Madrid]</time>
      </trkpt>
      <trkpt lat="37.236724" lon="-5.141122">
        <ele>258.0</ele>
        <time>2022-09-26T14:27:27.924+02:00[Europe/Madrid]</time>
      </trkpt>
      <trkpt lat="37.236715" lon="-5.140769">
        <ele>259.0</ele>
        <time>2022-09-26T14:27:28.924+02:00[Europe/Madrid]</time>
      </trkpt>
      <trkpt lat="37.236704" lon="-5.140428">
        <ele>258.0</ele>
        <time>2022-09-26T14:27:29.924+02:00[Europe/Madrid]</time>
      </trkpt>
      <trkpt lat="37.236695" lon="-5.14008">
        <ele>258.0</ele>
        <time>2022-09-26T14:27:30.924+02:00[Europe/Madrid]</time>
      </trkpt>
      <trkpt lat="37.236685" lon="-5.139731">
        <ele>258.0</ele>
        <time>2022-09-26T14:27:31.924+02:00[Europe/Madrid]</time>
      </trkpt>
      <trkpt lat="37.236678" lon="-5.139379">
        <ele>258.0</ele>
        <time>2022-09-26T14:27:32.924+02:00[Europe/Madrid]</time>
      </trkpt>
      <trkpt lat="37.236668" lon="-5.139028">
        <ele>258.0</ele>
        <time>2022-09-26T14:27:33.924+02:00[Europe/Madrid]</time>
      </trkpt>
      <trkpt lat="37.236654" lon="-5.138695">
        <ele>259.0</ele>
        <time>2022-09-26T14:27:34.924+02:00[Europe/Madrid]</time>
      </trkpt>
      <trkpt lat="37.236645" lon="-5.138374">
        <ele>259.0</ele>
        <time>2022-09-26T14:27:35.924+02:00[Europe/Madrid]</time>
      </trkpt>
      <trkpt lat="37.236636" lon="-5.138061">
        <ele>259.0</ele>
        <time>2022-09-26T14:27:36.924+02:00[Europe/Madrid]</time>
      </trkpt>
      <trkpt lat="37.236628" lon="-5.13775">
        <ele>259.0</ele>
        <time>2022-09-26T14:27:37.924+02:00[Europe/Madrid]</time>
      </trkpt>
      <trkpt lat="37.236615" lon="-5.137447">
        <ele>259.0</ele>
        <time>2022-09-26T14:27:38.924+02:00[Europe/Madrid]</time>
      </trkpt>
      <trkpt lat="37.236605" lon="-5.137134">
        <ele>259.0</ele>
        <time>2022-09-26T14:27:39.924+02:00[Europe/Madrid]</time>
      </trkpt>
      <trkpt lat="37.236596" lon="-5.136815">
        <ele>260.0</ele>
        <time>2022-09-26T14:27:40.924+02:00[Europe/Madrid]</time>
      </trkpt>
      <trkpt lat="37.236589" lon="-5.13649">
        <ele>260.0</ele>
        <time>2022-09-26T14:27:41.924+02:00[Europe/Madrid]</time>
      </trkpt>
      <trkpt lat="37.236577" lon="-5.136156">
        <ele>260.0</ele>
        <time>2022-09-26T14:27:42.924+02:00[Europe/Madrid]</time>
      </trkpt>
      <trkpt lat="37.236566" lon="-5.135819">
        <ele>261.0</ele>
        <time>2022-09-26T14:27:43.924+02:00[Europe/Madrid]</time>
      </trkpt>
      <trkpt lat="37.236552" lon="-5.135475">
        <ele>261.0</ele>
        <time>2022-09-26T14:27:44.924+02:00[Europe/Madrid]</time>
      </trkpt>
      <trkpt lat="37.236535" lon="-5.135135">
        <ele>261.0</ele>
        <time>2022-09-26T14:27:45.924+02:00[Europe/Madrid]</time>
      </trkpt>
      <trkpt lat="37.23652" lon="-5.134802">
        <ele>261.0</ele>
        <time>2022-09-26T14:27:46.924+02:00[Europe/Madrid]</time>
      </trkpt>
      <trkpt lat="37.236511" lon="-5.134464">
        <ele>262.0</ele>
        <time>2022-09-26T14:27:47.924+02:00[Europe/Madrid]</time>
      </trkpt>
      <trkpt lat="37.236504" lon="-5.134115">
        <ele>263.0</ele>
        <time>2022-09-26T14:27:48.924+02:00[Europe/Madrid]</time>
      </trkpt>
      <trkpt lat="37.236497" lon="-5.133779">
        <ele>263.0</ele>
        <time>2022-09-26T14:27:49.924+02:00[Europe/Madrid]</time>
      </trkpt>
      <trkpt lat="37.236486" lon="-5.133468">
        <ele>264.0</ele>
        <time>2022-09-26T14:27:50.924+02:00[Europe/Madrid]</time>
      </trkpt>
      <trkpt lat="37.236478" lon="-5.133164">
        <ele>264.0</ele>
        <time>2022-09-26T14:27:51.924+02:00[Europe/Madrid]</time>
      </trkpt>
      <trkpt lat="37.236473" lon="-5.132871">
        <ele>264.0</ele>
        <time>2022-09-26T14:27:52.924+02:00[Europe/Madrid]</time>
      </trkpt>
      <trkpt lat="37.236462" lon="-5.132582">
        <ele>265.0</ele>
        <time>2022-09-26T14:27:53.924+02:00[Europe/Madrid]</time>
      </trkpt>
      <trkpt lat="37.236436" lon="-5.132306">
        <ele>265.0</ele>
        <time>2022-09-26T14:27:54.924+02:00[Europe/Madrid]</time>
      </trkpt>
      <trkpt lat="37.236402" lon="-5.132034">
        <ele>265.0</ele>
        <time>2022-09-26T14:27:55.924+02:00[Europe/Madrid]</time>
      </trkpt>
      <trkpt lat="37.23636" lon="-5.131775">
        <ele>266.0</ele>
        <time>2022-09-26T14:27:56.924+02:00[Europe/Madrid]</time>
      </trkpt>
      <trkpt lat="37.236316" lon="-5.131531">
        <ele>266.0</ele>
        <time>2022-09-26T14:27:57.924+02:00[Europe/Madrid]</time>
      </trkpt>
      <trkpt lat="37.236272" lon="-5.131302">
        <ele>267.0</ele>
        <time>2022-09-26T14:27:58.924+02:00[Europe/Madrid]</time>
      </trkpt>
      <trkpt lat="37.236217" lon="-5.131086">
        <ele>267.0</ele>
        <time>2022-09-26T14:27:59.924+02:00[Europe/Madrid]</time>
      </trkpt>
      <trkpt lat="37.236151" lon="-5.130888">
        <ele>267.0</ele>
        <time>2022-09-26T14:28:00.924+02:00[Europe/Madrid]</time>
      </trkpt>
      <trkpt lat="37.236071" lon="-5.130709">
        <ele>267.0</ele>
        <time>2022-09-26T14:28:01.924+02:00[Europe/Madrid]</time>
      </trkpt>
      <trkpt lat="37.235975" lon="-5.130554">
        <ele>267.0</ele>
        <time>2022-09-26T14:28:02.924+02:00[Europe/Madrid]</time>
      </trkpt>
      <trkpt lat="37.235869" lon="-5.130425">
        <ele>267.0</ele>
        <time>2022-09-26T14:28:03.924+02:00[Europe/Madrid]</time>
      </trkpt>
      <trkpt lat="37.235753" lon="-5.13032">
        <ele>267.0</ele>
        <time>2022-09-26T14:28:04.924+02:00[Europe/Madrid]</time>
      </trkpt>
      <trkpt lat="37.235627" lon="-5.130235">
        <ele>267.0</ele>
        <time>2022-09-26T14:28:05.924+02:00[Europe/Madrid]</time>
      </trkpt>
      <trkpt lat="37.235493" lon="-5.130165">
        <ele>268.0</ele>
        <time>2022-09-26T14:28:06.924+02:00[Europe/Madrid]</time>
      </trkpt>
      <trkpt lat="37.235349" lon="-5.130114">
        <ele>268.0</ele>
        <time>2022-09-26T14:28:07.924+02:00[Europe/Madrid]</time>
      </trkpt>
      <trkpt lat="37.235207" lon="-5.130074">
        <ele>268.0</ele>
        <time>2022-09-26T14:28:08.924+02:00[Europe/Madrid]</time>
      </trkpt>
      <trkpt lat="37.235073" lon="-5.130031">
        <ele>269.0</ele>
        <time>2022-09-26T14:28:09.924+02:00[Europe/Madrid]</time>
      </trkpt>
      <trkpt lat="37.234938" lon="-5.12998">
        <ele>269.0</ele>
        <time>2022-09-26T14:28:10.924+02:00[Europe/Madrid]</time>
      </trkpt>
      <trkpt lat="37.234813" lon="-5.129901">
        <ele>269.0</ele>
        <time>2022-09-26T14:28:11.924+02:00[Europe/Madrid]</time>
      </trkpt>
      <trkpt lat="37.234693" lon="-5.129801">
        <ele>269.0</ele>
        <time>2022-09-26T14:28:12.924+02:00[Europe/Madrid]</time>
      </trkpt>
      <trkpt lat="37.234587" lon="-5.129669">
        <ele>269.0</ele>
        <time>2022-09-26T14:28:13.924+02:00[Europe/Madrid]</time>
      </trkpt>
      <trkpt lat="37.2345" lon="-5.129514">
        <ele>269.0</ele>
        <time>2022-09-26T14:28:14.924+02:00[Europe/Madrid]</time>
      </trkpt>
      <trkpt lat="37.234422" lon="-5.129333">
        <ele>269.0</ele>
        <time>2022-09-26T14:28:15.924+02:00[Europe/Madrid]</time>
      </trkpt>
      <trkpt lat="37.234346" lon="-5.129133">
        <ele>269.0</ele>
        <time>2022-09-26T14:28:16.924+02:00[Europe/Madrid]</time>
      </trkpt>
      <trkpt lat="37.234268" lon="-5.128934">
        <ele>270.0</ele>
        <time>2022-09-26T14:28:17.924+02:00[Europe/Madrid]</time>
      </trkpt>
      <trkpt lat="37.234195" lon="-5.12875">
        <ele>272.0</ele>
        <time>2022-09-26T14:28:18.924+02:00[Europe/Madrid]</time>
      </trkpt>
      <trkpt lat="37.234138" lon="-5.128579">
        <ele>272.0</ele>
        <time>2022-09-26T14:28:19.924+02:00[Europe/Madrid]</time>
      </trkpt>
      <trkpt lat="37.234101" lon="-5.128416">
        <ele>273.0</ele>
        <time>2022-09-26T14:28:20.924+02:00[Europe/Madrid]</time>
      </trkpt>
      <trkpt lat="37.23409" lon="-5.128266">
        <ele>274.0</ele>
        <time>2022-09-26T14:28:21.924+02:00[Europe/Madrid]</time>
      </trkpt>
      <trkpt lat="37.234102" lon="-5.128123">
        <ele>275.0</ele>
        <time>2022-09-26T14:28:22.924+02:00[Europe/Madrid]</time>
      </trkpt>
      <trkpt lat="37.234139" lon="-5.127993">
        <ele>275.0</ele>
        <time>2022-09-26T14:28:23.924+02:00[Europe/Madrid]</time>
      </trkpt>
      <trkpt lat="37.234194" lon="-5.127868">
        <ele>276.0</ele>
        <time>2022-09-26T14:28:24.924+02:00[Europe/Madrid]</time>
      </trkpt>
      <trkpt lat="37.234279" lon="-5.127748">
        <ele>276.0</ele>
        <time>2022-09-26T14:28:25.924+02:00[Europe/Madrid]</time>
      </trkpt>
      <trkpt lat="37.234378" lon="-5.12763">
        <ele>276.0</ele>
        <time>2022-09-26T14:28:26.924+02:00[Europe/Madrid]</time>
      </trkpt>
      <trkpt lat="37.23448" lon="-5.127516">
        <ele>276.0</ele>
        <time>2022-09-26T14:28:27.924+02:00[Europe/Madrid]</time>
      </trkpt>
      <trkpt lat="37.23458" lon="-5.127412">
        <ele>276.0</ele>
        <time>2022-09-26T14:28:28.924+02:00[Europe/Madrid]</time>
      </trkpt>
      <trkpt lat="37.234684" lon="-5.1273">
        <ele>276.0</ele>
        <time>2022-09-26T14:28:29.924+02:00[Europe/Madrid]</time>
      </trkpt>
      <trkpt lat="37.23479" lon="-5.127187">
        <ele>276.0</ele>
        <time>2022-09-26T14:28:30.924+02:00[Europe/Madrid]</time>
      </trkpt>
      <trkpt lat="37.234898" lon="-5.127086">
        <ele>276.0</ele>
        <time>2022-09-26T14:28:31.932+02:00[Europe/Madrid]</time>
      </trkpt>
      <trkpt lat="37.235002" lon="-5.126993">
        <ele>276.0</ele>
        <time>2022-09-26T14:28:32.932+02:00[Europe/Madrid]</time>
      </trkpt>
      <trkpt lat="37.235115" lon="-5.126935">
        <ele>276.0</ele>
        <time>2022-09-26T14:28:33.932+02:00[Europe/Madrid]</time>
      </trkpt>
      <trkpt lat="37.235238" lon="-5.126891">
        <ele>275.0</ele>
        <time>2022-09-26T14:28:34.932+02:00[Europe/Madrid]</time>
      </trkpt>
      <trkpt lat="37.235364" lon="-5.126874">
        <ele>274.0</ele>
        <time>2022-09-26T14:28:35.932+02:00[Europe/Madrid]</time>
      </trkpt>
      <trkpt lat="37.235482" lon="-5.126883">
        <ele>274.0</ele>
        <time>2022-09-26T14:28:36.932+02:00[Europe/Madrid]</time>
      </trkpt>
      <trkpt lat="37.235604" lon="-5.126919">
        <ele>273.0</ele>
        <time>2022-09-26T14:28:37.932+02:00[Europe/Madrid]</time>
      </trkpt>
      <trkpt lat="37.235727" lon="-5.126987">
        <ele>272.0</ele>
        <time>2022-09-26T14:28:38.932+02:00[Europe/Madrid]</time>
      </trkpt>
      <trkpt lat="37.235835" lon="-5.127076">
        <ele>271.0</ele>
        <time>2022-09-26T14:28:39.932+02:00[Europe/Madrid]</time>
      </trkpt>
      <trkpt lat="37.235943" lon="-5.127157">
        <ele>271.0</ele>
        <time>2022-09-26T14:28:40.932+02:00[Europe/Madrid]</time>
      </trkpt>
      <trkpt lat="37.23606" lon="-5.127213">
        <ele>271.0</ele>
        <time>2022-09-26T14:28:41.932+02:00[Europe/Madrid]</time>
      </trkpt>
      <trkpt lat="37.236182" lon="-5.127248">
        <ele>270.0</ele>
        <time>2022-09-26T14:28:42.932+02:00[Europe/Madrid]</time>
      </trkpt>
      <trkpt lat="37.236308" lon="-5.127255">
        <ele>269.0</ele>
        <time>2022-09-26T14:28:43.932+02:00[Europe/Madrid]</time>
      </trkpt>
      <trkpt lat="37.236435" lon="-5.127231">
        <ele>268.0</ele>
        <time>2022-09-26T14:28:44.932+02:00[Europe/Madrid]</time>
      </trkpt>
      <trkpt lat="37.236552" lon="-5.127177">
        <ele>268.0</ele>
        <time>2022-09-26T14:28:45.932+02:00[Europe/Madrid]</time>
      </trkpt>
      <trkpt lat="37.236667" lon="-5.127096">
        <ele>268.0</ele>
        <time>2022-09-26T14:28:46.932+02:00[Europe/Madrid]</time>
      </trkpt>
      <trkpt lat="37.236766" lon="-5.127">
        <ele>267.0</ele>
        <time>2022-09-26T14:28:47.932+02:00[Europe/Madrid]</time>
      </trkpt>
      <trkpt lat="37.236847" lon="-5.126888">
        <ele>268.0</ele>
        <time>2022-09-26T14:28:48.932+02:00[Europe/Madrid]</time>
      </trkpt>
      <trkpt lat="37.236906" lon="-5.126758">
        <ele>268.0</ele>
        <time>2022-09-26T14:28:49.932+02:00[Europe/Madrid]</time>
      </trkpt>
      <trkpt lat="37.236949" lon="-5.126609">
        <ele>269.0</ele>
        <time>2022-09-26T14:28:50.932+02:00[Europe/Madrid]</time>
      </trkpt>
      <trkpt lat="37.236983" lon="-5.126433">
        <ele>269.0</ele>
        <time>2022-09-26T14:28:51.932+02:00[Europe/Madrid]</time>
      </trkpt>
      <trkpt lat="37.237015" lon="-5.126233">
        <ele>269.0</ele>
        <time>2022-09-26T14:28:52.932+02:00[Europe/Madrid]</time>
      </trkpt>
      <trkpt lat="37.237043" lon="-5.126015">
        <ele>270.0</ele>
        <time>2022-09-26T14:28:53.932+02:00[Europe/Madrid]</time>
      </trkpt>
      <trkpt lat="37.237076" lon="-5.125794">
        <ele>271.0</ele>
        <time>2022-09-26T14:28:54.932+02:00[Europe/Madrid]</time>
      </trkpt>
      <trkpt lat="37.237111" lon="-5.125568">
        <ele>271.0</ele>
        <time>2022-09-26T14:28:55.932+02:00[Europe/Madrid]</time>
      </trkpt>
      <trkpt lat="37.237146" lon="-5.125338">
        <ele>273.0</ele>
        <time>2022-09-26T14:28:56.932+02:00[Europe/Madrid]</time>
      </trkpt>
      <trkpt lat="37.237181" lon="-5.125115">
        <ele>274.0</ele>
        <time>2022-09-26T14:28:57.932+02:00[Europe/Madrid]</time>
      </trkpt>
      <trkpt lat="37.237221" lon="-5.124893">
        <ele>275.0</ele>
        <time>2022-09-26T14:28:58.932+02:00[Europe/Madrid]</time>
      </trkpt>
      <trkpt lat="37.237266" lon="-5.12467">
        <ele>277.0</ele>
        <time>2022-09-26T14:28:59.932+02:00[Europe/Madrid]</time>
      </trkpt>
      <trkpt lat="37.237317" lon="-5.124434">
        <ele>277.0</ele>
        <time>2022-09-26T14:29:00.932+02:00[Europe/Madrid]</time>
      </trkpt>
      <trkpt lat="37.237375" lon="-5.124195">
        <ele>278.0</ele>
        <time>2022-09-26T14:29:01.932+02:00[Europe/Madrid]</time>
      </trkpt>
      <trkpt lat="37.237437" lon="-5.123953">
        <ele>278.0</ele>
        <time>2022-09-26T14:29:02.932+02:00[Europe/Madrid]</time>
      </trkpt>
      <trkpt lat="37.237498" lon="-5.123704">
        <ele>279.0</ele>
        <time>2022-09-26T14:29:03.932+02:00[Europe/Madrid]</time>
      </trkpt>
      <trkpt lat="37.237562" lon="-5.123441">
        <ele>279.0</ele>
        <time>2022-09-26T14:29:04.932+02:00[Europe/Madrid]</time>
      </trkpt>
      <trkpt lat="37.237631" lon="-5.123158">
        <ele>280.0</ele>
        <time>2022-09-26T14:29:05.932+02:00[Europe/Madrid]</time>
      </trkpt>
      <trkpt lat="37.237703" lon="-5.122864">
        <ele>280.0</ele>
        <time>2022-09-26T14:29:06.932+02:00[Europe/Madrid]</time>
      </trkpt>
      <trkpt lat="37.237778" lon="-5.122567">
        <ele>281.0</ele>
        <time>2022-09-26T14:29:07.932+02:00[Europe/Madrid]</time>
      </trkpt>
      <trkpt lat="37.237855" lon="-5.12226">
        <ele>282.0</ele>
        <time>2022-09-26T14:29:08.932+02:00[Europe/Madrid]</time>
      </trkpt>
      <trkpt lat="37.237932" lon="-5.121942">
        <ele>282.0</ele>
        <time>2022-09-26T14:29:09.932+02:00[Europe/Madrid]</time>
      </trkpt>
      <trkpt lat="37.238012" lon="-5.121637">
        <ele>282.0</ele>
        <time>2022-09-26T14:29:10.932+02:00[Europe/Madrid]</time>
      </trkpt>
      <trkpt lat="37.238084" lon="-5.121348">
        <ele>283.0</ele>
        <time>2022-09-26T14:29:11.932+02:00[Europe/Madrid]</time>
      </trkpt>
      <trkpt lat="37.238156" lon="-5.121047">
        <ele>283.0</ele>
        <time>2022-09-26T14:29:12.932+02:00[Europe/Madrid]</time>
      </trkpt>
      <trkpt lat="37.238231" lon="-5.120762">
        <ele>284.0</ele>
        <time>2022-09-26T14:29:13.932+02:00[Europe/Madrid]</time>
      </trkpt>
      <trkpt lat="37.238294" lon="-5.12049">
        <ele>285.0</ele>
        <time>2022-09-26T14:29:14.932+02:00[Europe/Madrid]</time>
      </trkpt>
      <trkpt lat="37.238353" lon="-5.120235">
        <ele>286.0</ele>
        <time>2022-09-26T14:29:15.932+02:00[Europe/Madrid]</time>
      </trkpt>
      <trkpt lat="37.238404" lon="-5.119993">
        <ele>287.0</ele>
        <time>2022-09-26T14:29:16.932+02:00[Europe/Madrid]</time>
      </trkpt>
      <trkpt lat="37.238439" lon="-5.119754">
        <ele>288.0</ele>
        <time>2022-09-26T14:29:17.932+02:00[Europe/Madrid]</time>
      </trkpt>
      <trkpt lat="37.23846" lon="-5.119518">
        <ele>289.0</ele>
        <time>2022-09-26T14:29:18.932+02:00[Europe/Madrid]</time>
      </trkpt>
      <trkpt lat="37.238454" lon="-5.119284">
        <ele>289.0</ele>
        <time>2022-09-26T14:29:19.932+02:00[Europe/Madrid]</time>
      </trkpt>
      <trkpt lat="37.238434" lon="-5.11904">
        <ele>290.0</ele>
        <time>2022-09-26T14:29:20.932+02:00[Europe/Madrid]</time>
      </trkpt>
      <trkpt lat="37.238403" lon="-5.118786">
        <ele>291.0</ele>
        <time>2022-09-26T14:29:21.932+02:00[Europe/Madrid]</time>
      </trkpt>
      <trkpt lat="37.238372" lon="-5.118521">
        <ele>292.0</ele>
        <time>2022-09-26T14:29:22.932+02:00[Europe/Madrid]</time>
      </trkpt>
      <trkpt lat="37.238341" lon="-5.118263">
        <ele>293.0</ele>
        <time>2022-09-26T14:29:23.932+02:00[Europe/Madrid]</time>
      </trkpt>
      <trkpt lat="37.238314" lon="-5.118024">
        <ele>294.0</ele>
        <time>2022-09-26T14:29:24.932+02:00[Europe/Madrid]</time>
      </trkpt>
      <trkpt lat="37.238287" lon="-5.117803">
        <ele>295.0</ele>
        <time>2022-09-26T14:29:25.932+02:00[Europe/Madrid]</time>
      </trkpt>
      <trkpt lat="37.238258" lon="-5.11759">
        <ele>295.0</ele>
        <time>2022-09-26T14:29:26.932+02:00[Europe/Madrid]</time>
      </trkpt>
      <trkpt lat="37.238234" lon="-5.117387">
        <ele>294.0</ele>
        <time>2022-09-26T14:29:27.932+02:00[Europe/Madrid]</time>
      </trkpt>
      <trkpt lat="37.238209" lon="-5.117187">
        <ele>294.0</ele>
        <time>2022-09-26T14:29:28.932+02:00[Europe/Madrid]</time>
      </trkpt>
      <trkpt lat="37.238186" lon="-5.116993">
        <ele>293.0</ele>
        <time>2022-09-26T14:29:29.932+02:00[Europe/Madrid]</time>
      </trkpt>
      <trkpt lat="37.238161" lon="-5.116806">
        <ele>293.0</ele>
        <time>2022-09-26T14:29:30.932+02:00[Europe/Madrid]</time>
      </trkpt>
      <trkpt lat="37.238142" lon="-5.116626">
        <ele>293.0</ele>
        <time>2022-09-26T14:29:31.932+02:00[Europe/Madrid]</time>
      </trkpt>
      <trkpt lat="37.238122" lon="-5.116449">
        <ele>293.0</ele>
        <time>2022-09-26T14:29:32.932+02:00[Europe/Madrid]</time>
      </trkpt>
      <trkpt lat="37.238104" lon="-5.116276">
        <ele>293.0</ele>
        <time>2022-09-26T14:29:33.932+02:00[Europe/Madrid]</time>
      </trkpt>
      <trkpt lat="37.238092" lon="-5.116112">
        <ele>293.0</ele>
        <time>2022-09-26T14:29:34.932+02:00[Europe/Madrid]</time>
      </trkpt>
      <trkpt lat="37.238086" lon="-5.115957">
        <ele>293.0</ele>
        <time>2022-09-26T14:29:35.932+02:00[Europe/Madrid]</time>
      </trkpt>
      <trkpt lat="37.238083" lon="-5.115816">
        <ele>293.0</ele>
        <time>2022-09-26T14:29:36.932+02:00[Europe/Madrid]</time>
      </trkpt>
      <trkpt lat="37.238082" lon="-5.11569">
        <ele>293.0</ele>
        <time>2022-09-26T14:29:37.932+02:00[Europe/Madrid]</time>
      </trkpt>
      <trkpt lat="37.238079" lon="-5.115478">
        <ele>293.0</ele>
        <time>2022-09-26T14:29:39.885+02:00[Europe/Madrid]</time>
      </trkpt>
      <trkpt lat="37.23807" lon="-5.115282">
        <ele>293.0</ele>
        <time>2022-09-26T14:29:41.885+02:00[Europe/Madrid]</time>
      </trkpt>
      <trkpt lat="37.238055" lon="-5.11506">
        <ele>293.0</ele>
        <time>2022-09-26T14:29:43.882+02:00[Europe/Madrid]</time>
      </trkpt>
      <trkpt lat="37.23805" lon="-5.114937">
        <ele>293.0</ele>
        <time>2022-09-26T14:29:44.886+02:00[Europe/Madrid]</time>
      </trkpt>
      <trkpt lat="37.238048" lon="-5.11481">
        <ele>294.0</ele>
        <time>2022-09-26T14:29:45.886+02:00[Europe/Madrid]</time>
      </trkpt>
      <trkpt lat="37.238047" lon="-5.114687">
        <ele>294.0</ele>
        <time>2022-09-26T14:29:46.893+02:00[Europe/Madrid]</time>
      </trkpt>
      <trkpt lat="37.238046" lon="-5.114571">
        <ele>294.0</ele>
        <time>2022-09-26T14:29:47.893+02:00[Europe/Madrid]</time>
      </trkpt>
      <trkpt lat="37.238041" lon="-5.114341">
        <ele>295.0</ele>
        <time>2022-09-26T14:29:49.892+02:00[Europe/Madrid]</time>
      </trkpt>
      <trkpt lat="37.238037" lon="-5.114205">
        <ele>295.0</ele>
        <time>2022-09-26T14:29:50.892+02:00[Europe/Madrid]</time>
      </trkpt>
      <trkpt lat="37.238036" lon="-5.114056">
        <ele>296.0</ele>
        <time>2022-09-26T14:29:51.910+02:00[Europe/Madrid]</time>
      </trkpt>
      <trkpt lat="37.238032" lon="-5.113909">
        <ele>296.0</ele>
        <time>2022-09-26T14:29:52.910+02:00[Europe/Madrid]</time>
      </trkpt>
      <trkpt lat="37.23803" lon="-5.113778">
        <ele>296.0</ele>
        <time>2022-09-26T14:29:53.910+02:00[Europe/Madrid]</time>
      </trkpt>
      <trkpt lat="37.23803" lon="-5.11366">
        <ele>296.0</ele>
        <time>2022-09-26T14:29:54.910+02:00[Europe/Madrid]</time>
      </trkpt>
      <trkpt lat="37.238029" lon="-5.113547">
        <ele>297.0</ele>
        <time>2022-09-26T14:29:55.910+02:00[Europe/Madrid]</time>
      </trkpt>
      <trkpt lat="37.238014" lon="-5.113375">
        <ele>297.0</ele>
        <time>2022-09-26T14:29:57.884+02:00[Europe/Madrid]</time>
      </trkpt>
      <trkpt lat="37.237952" lon="-5.11327">
        <ele>298.0</ele>
        <time>2022-09-26T14:29:59.888+02:00[Europe/Madrid]</time>
      </trkpt>
      <trkpt lat="37.23782" lon="-5.113221">
        <ele>298.0</ele>
        <time>2022-09-26T14:30:01.887+02:00[Europe/Madrid]</time>
      </trkpt>
      <trkpt lat="37.237731" lon="-5.113179">
        <ele>297.0</ele>
        <time>2022-09-26T14:30:02.887+02:00[Europe/Madrid]</time>
      </trkpt>
      <trkpt lat="37.23763" lon="-5.113111">
        <ele>298.0</ele>
        <time>2022-09-26T14:30:03.887+02:00[Europe/Madrid]</time>
      </trkpt>
      <trkpt lat="37.237534" lon="-5.113015">
        <ele>298.0</ele>
        <time>2022-09-26T14:30:04.887+02:00[Europe/Madrid]</time>
      </trkpt>
      <trkpt lat="37.237428" lon="-5.1129">
        <ele>299.0</ele>
        <time>2022-09-26T14:30:05.887+02:00[Europe/Madrid]</time>
      </trkpt>
      <trkpt lat="37.237326" lon="-5.11279">
        <ele>299.0</ele>
        <time>2022-09-26T14:30:06.887+02:00[Europe/Madrid]</time>
      </trkpt>
      <trkpt lat="37.237237" lon="-5.112688">
        <ele>299.0</ele>
        <time>2022-09-26T14:30:07.887+02:00[Europe/Madrid]</time>
      </trkpt>
      <trkpt lat="37.237153" lon="-5.112591">
        <ele>299.0</ele>
        <time>2022-09-26T14:30:08.887+02:00[Europe/Madrid]</time>
      </trkpt>
      <trkpt lat="37.237086" lon="-5.112504">
        <ele>300.0</ele>
        <time>2022-09-26T14:30:09.887+02:00[Europe/Madrid]</time>
      </trkpt>
      <trkpt lat="37.237022" lon="-5.112417">
        <ele>300.0</ele>
        <time>2022-09-26T14:30:10.887+02:00[Europe/Madrid]</time>
      </trkpt>
      <trkpt lat="37.236892" lon="-5.112282">
        <ele>301.0</ele>
        <time>2022-09-26T14:30:12.882+02:00[Europe/Madrid]</time>
      </trkpt>
      <trkpt lat="37.236731" lon="-5.112228">
        <ele>302.0</ele>
        <time>2022-09-26T14:30:14.901+02:00[Europe/Madrid]</time>
      </trkpt>
      <trkpt lat="37.236636" lon="-5.112236">
        <ele>302.0</ele>
        <time>2022-09-26T14:30:15.901+02:00[Europe/Madrid]</time>
      </trkpt>
      <trkpt lat="37.236521" lon="-5.112249">
        <ele>301.0</ele>
        <time>2022-09-26T14:30:16.901+02:00[Europe/Madrid]</time>
      </trkpt>
      <trkpt lat="37.236388" lon="-5.112267">
        <ele>301.0</ele>
        <time>2022-09-26T14:30:17.901+02:00[Europe/Madrid]</time>
      </trkpt>
      <trkpt lat="37.236249" lon="-5.112286">
        <ele>301.0</ele>
        <time>2022-09-26T14:30:18.901+02:00[Europe/Madrid]</time>
      </trkpt>
      <trkpt lat="37.236122" lon="-5.112298">
        <ele>301.0</ele>
        <time>2022-09-26T14:30:19.901+02:00[Europe/Madrid]</time>
      </trkpt>
      <trkpt lat="37.236004" lon="-5.112312">
        <ele>301.0</ele>
        <time>2022-09-26T14:30:20.901+02:00[Europe/Madrid]</time>
      </trkpt>
      <trkpt lat="37.235892" lon="-5.112323">
        <ele>301.0</ele>
        <time>2022-09-26T14:30:21.915+02:00[Europe/Madrid]</time>
      </trkpt>
      <trkpt lat="37.235786" lon="-5.112332">
        <ele>301.0</ele>
        <time>2022-09-26T14:30:22.915+02:00[Europe/Madrid]</time>
      </trkpt>
      <trkpt lat="37.235693" lon="-5.112344">
        <ele>301.0</ele>
        <time>2022-09-26T14:30:23.915+02:00[Europe/Madrid]</time>
      </trkpt>
      <trkpt lat="37.235551" lon="-5.112362">
        <ele>301.0</ele>
        <time>2022-09-26T14:30:25.890+02:00[Europe/Madrid]</time>
      </trkpt>
      <trkpt lat="37.235459" lon="-5.11236">
        <ele>300.0</ele>
        <time>2022-09-26T14:30:27.892+02:00[Europe/Madrid]</time>
      </trkpt>
      <trkpt lat="37.235355" lon="-5.112345">
        <ele>300.0</ele>
        <time>2022-09-26T14:30:29.878+02:00[Europe/Madrid]</time>
      </trkpt>
      <trkpt lat="37.235288" lon="-5.112235">
        <ele>301.0</ele>
        <time>2022-09-26T14:30:31.896+02:00[Europe/Madrid]</time>
      </trkpt>
      <trkpt lat="37.235173" lon="-5.112033">
        <ele>301.0</ele>
        <time>2022-09-26T14:30:33.887+02:00[Europe/Madrid]</time>
      </trkpt>
      <trkpt lat="37.235094" lon="-5.111897">
        <ele>301.0</ele>
        <time>2022-09-26T14:30:34.887+02:00[Europe/Madrid]</time>
      </trkpt>
      <trkpt lat="37.235031" lon="-5.111758">
        <ele>301.0</ele>
        <time>2022-09-26T14:30:35.887+02:00[Europe/Madrid]</time>
      </trkpt>
      <trkpt lat="37.234988" lon="-5.111615">
        <ele>301.0</ele>
        <time>2022-09-26T14:30:36.887+02:00[Europe/Madrid]</time>
      </trkpt>
      <trkpt lat="37.234956" lon="-5.11146">
        <ele>301.0</ele>
        <time>2022-09-26T14:30:37.899+02:00[Europe/Madrid]</time>
      </trkpt>
      <trkpt lat="37.234938" lon="-5.111297">
        <ele>301.0</ele>
        <time>2022-09-26T14:30:38.899+02:00[Europe/Madrid]</time>
      </trkpt>
      <trkpt lat="37.23492" lon="-5.111129">
        <ele>302.0</ele>
        <time>2022-09-26T14:30:39.899+02:00[Europe/Madrid]</time>
      </trkpt>
      <trkpt lat="37.234902" lon="-5.11096">
        <ele>302.0</ele>
        <time>2022-09-26T14:30:40.899+02:00[Europe/Madrid]</time>
      </trkpt>
      <trkpt lat="37.234889" lon="-5.110806">
        <ele>302.0</ele>
        <time>2022-09-26T14:30:41.899+02:00[Europe/Madrid]</time>
      </trkpt>
      <trkpt lat="37.234879" lon="-5.110654">
        <ele>303.0</ele>
        <time>2022-09-26T14:30:42.899+02:00[Europe/Madrid]</time>
      </trkpt>
      <trkpt lat="37.23487" lon="-5.1105">
        <ele>303.0</ele>
        <time>2022-09-26T14:30:43.899+02:00[Europe/Madrid]</time>
      </trkpt>
      <trkpt lat="37.234856" lon="-5.110351">
        <ele>303.0</ele>
        <time>2022-09-26T14:30:44.899+02:00[Europe/Madrid]</time>
      </trkpt>
      <trkpt lat="37.234843" lon="-5.110202">
        <ele>304.0</ele>
        <time>2022-09-26T14:30:45.899+02:00[Europe/Madrid]</time>
      </trkpt>
      <trkpt lat="37.234832" lon="-5.110044">
        <ele>304.0</ele>
        <time>2022-09-26T14:30:46.899+02:00[Europe/Madrid]</time>
      </trkpt>
      <trkpt lat="37.234811" lon="-5.109892">
        <ele>304.0</ele>
        <time>2022-09-26T14:30:47.899+02:00[Europe/Madrid]</time>
      </trkpt>
      <trkpt lat="37.23478" lon="-5.109734">
        <ele>304.0</ele>
        <time>2022-09-26T14:30:48.899+02:00[Europe/Madrid]</time>
      </trkpt>
      <trkpt lat="37.234737" lon="-5.109598">
        <ele>305.0</ele>
        <time>2022-09-26T14:30:49.899+02:00[Europe/Madrid]</time>
      </trkpt>
      <trkpt lat="37.234695" lon="-5.109465">
        <ele>306.0</ele>
        <time>2022-09-26T14:30:50.899+02:00[Europe/Madrid]</time>
      </trkpt>
      <trkpt lat="37.234654" lon="-5.10935">
        <ele>306.0</ele>
        <time>2022-09-26T14:30:51.899+02:00[Europe/Madrid]</time>
      </trkpt>
      <trkpt lat="37.234618" lon="-5.109239">
        <ele>306.0</ele>
        <time>2022-09-26T14:30:52.899+02:00[Europe/Madrid]</time>
      </trkpt>
      <trkpt lat="37.23458" lon="-5.109137">
        <ele>307.0</ele>
        <time>2022-09-26T14:30:53.899+02:00[Europe/Madrid]</time>
      </trkpt>
      <trkpt lat="37.234536" lon="-5.109029">
        <ele>306.0</ele>
        <time>2022-09-26T14:30:54.899+02:00[Europe/Madrid]</time>
      </trkpt>
      <trkpt lat="37.234493" lon="-5.108909">
        <ele>307.0</ele>
        <time>2022-09-26T14:30:55.899+02:00[Europe/Madrid]</time>
      </trkpt>
      <trkpt lat="37.234452" lon="-5.108771">
        <ele>307.0</ele>
        <time>2022-09-26T14:30:56.987+02:00[Europe/Madrid]</time>
      </trkpt>
      <trkpt lat="37.234402" lon="-5.108611">
        <ele>308.0</ele>
        <time>2022-09-26T14:30:57.987+02:00[Europe/Madrid]</time>
      </trkpt>
      <trkpt lat="37.234363" lon="-5.10847">
        <ele>309.0</ele>
        <time>2022-09-26T14:30:58.987+02:00[Europe/Madrid]</time>
      </trkpt>
      <trkpt lat="37.234336" lon="-5.108359">
        <ele>309.0</ele>
        <time>2022-09-26T14:30:59.987+02:00[Europe/Madrid]</time>
      </trkpt>
      <trkpt lat="37.234309" lon="-5.108249">
        <ele>310.0</ele>
        <time>2022-09-26T14:31:00.987+02:00[Europe/Madrid]</time>
      </trkpt>
      <trkpt lat="37.234251" lon="-5.108077">
        <ele>310.0</ele>
        <time>2022-09-26T14:31:02.887+02:00[Europe/Madrid]</time>
      </trkpt>
      <trkpt lat="37.234171" lon="-5.107922">
        <ele>311.0</ele>
        <time>2022-09-26T14:31:04.888+02:00[Europe/Madrid]</time>
      </trkpt>
      <trkpt lat="37.234064" lon="-5.107804">
        <ele>311.0</ele>
        <time>2022-09-26T14:31:06.886+02:00[Europe/Madrid]</time>
      </trkpt>
      <trkpt lat="37.233934" lon="-5.107704">
        <ele>310.0</ele>
        <time>2022-09-26T14:31:08.884+02:00[Europe/Madrid]</time>
      </trkpt>
      <trkpt lat="37.233786" lon="-5.107587">
        <ele>310.0</ele>
        <time>2022-09-26T14:31:10.886+02:00[Europe/Madrid]</time>
      </trkpt>
      <trkpt lat="37.233632" lon="-5.107468">
        <ele>309.0</ele>
        <time>2022-09-26T14:31:12.884+02:00[Europe/Madrid]</time>
      </trkpt>
      <trkpt lat="37.23349" lon="-5.107351">
        <ele>309.0</ele>
        <time>2022-09-26T14:31:14.882+02:00[Europe/Madrid]</time>
      </trkpt>
      <trkpt lat="37.23336" lon="-5.107217">
        <ele>308.0</ele>
        <time>2022-09-26T14:31:16.879+02:00[Europe/Madrid]</time>
      </trkpt>
      <trkpt lat="37.233237" lon="-5.107056">
        <ele>308.0</ele>
        <time>2022-09-26T14:31:18.885+02:00[Europe/Madrid]</time>
      </trkpt>
      <trkpt lat="37.233124" lon="-5.106889">
        <ele>308.0</ele>
        <time>2022-09-26T14:31:20.889+02:00[Europe/Madrid]</time>
      </trkpt>
      <trkpt lat="37.233007" lon="-5.106729">
        <ele>308.0</ele>
        <time>2022-09-26T14:31:22.882+02:00[Europe/Madrid]</time>
      </trkpt>
      <trkpt lat="37.232878" lon="-5.106594">
        <ele>308.0</ele>
        <time>2022-09-26T14:31:24.881+02:00[Europe/Madrid]</time>
      </trkpt>
      <trkpt lat="37.232729" lon="-5.106469">
        <ele>309.0</ele>
        <time>2022-09-26T14:31:26.892+02:00[Europe/Madrid]</time>
      </trkpt>
      <trkpt lat="37.232641" lon="-5.106419">
        <ele>309.0</ele>
        <time>2022-09-26T14:31:27.892+02:00[Europe/Madrid]</time>
      </trkpt>
      <trkpt lat="37.232551" lon="-5.106386">
        <ele>310.0</ele>
        <time>2022-09-26T14:31:28.892+02:00[Europe/Madrid]</time>
      </trkpt>
      <trkpt lat="37.232462" lon="-5.106355">
        <ele>310.0</ele>
        <time>2022-09-26T14:31:29.892+02:00[Europe/Madrid]</time>
      </trkpt>
      <trkpt lat="37.232369" lon="-5.106324">
        <ele>310.0</ele>
        <time>2022-09-26T14:31:30.892+02:00[Europe/Madrid]</time>
      </trkpt>
      <trkpt lat="37.232278" lon="-5.106285">
        <ele>310.0</ele>
        <time>2022-09-26T14:31:31.892+02:00[Europe/Madrid]</time>
      </trkpt>
      <trkpt lat="37.232178" lon="-5.106242">
        <ele>310.0</ele>
        <time>2022-09-26T14:31:32.892+02:00[Europe/Madrid]</time>
      </trkpt>
      <trkpt lat="37.232084" lon="-5.106195">
        <ele>309.0</ele>
        <time>2022-09-26T14:31:33.892+02:00[Europe/Madrid]</time>
      </trkpt>
      <trkpt lat="37.231997" lon="-5.106136">
        <ele>309.0</ele>
        <time>2022-09-26T14:31:34.892+02:00[Europe/Madrid]</time>
      </trkpt>
      <trkpt lat="37.231843" lon="-5.106023">
        <ele>309.0</ele>
        <time>2022-09-26T14:31:36.886+02:00[Europe/Madrid]</time>
      </trkpt>
      <trkpt lat="37.231736" lon="-5.105944">
        <ele>308.0</ele>
        <time>2022-09-26T14:31:38.886+02:00[Europe/Madrid]</time>
      </trkpt>
      <trkpt lat="37.231677" lon="-5.105838">
        <ele>308.0</ele>
        <time>2022-09-26T14:31:41.886+02:00[Europe/Madrid]</time>
      </trkpt>
      <trkpt lat="37.231723" lon="-5.105693">
        <ele>310.0</ele>
        <time>2022-09-26T14:31:43.875+02:00[Europe/Madrid]</time>
      </trkpt>
      <trkpt lat="37.231804" lon="-5.105522">
        <ele>311.0</ele>
        <time>2022-09-26T14:31:45.886+02:00[Europe/Madrid]</time>
      </trkpt>
      <trkpt lat="37.231863" lon="-5.105369">
        <ele>311.0</ele>
        <time>2022-09-26T14:31:47.892+02:00[Europe/Madrid]</time>
      </trkpt>
      <trkpt lat="37.231925" lon="-5.105213">
        <ele>312.0</ele>
        <time>2022-09-26T14:31:49.882+02:00[Europe/Madrid]</time>
      </trkpt>
      <trkpt lat="37.231906" lon="-5.105044">
        <ele>312.0</ele>
        <time>2022-09-26T14:31:51.882+02:00[Europe/Madrid]</time>
      </trkpt>
      <trkpt lat="37.231872" lon="-5.104937">
        <ele>312.0</ele>
        <time>2022-09-26T14:31:52.885+02:00[Europe/Madrid]</time>
      </trkpt>
      <trkpt lat="37.231828" lon="-5.104808">
        <ele>313.0</ele>
        <time>2022-09-26T14:31:53.885+02:00[Europe/Madrid]</time>
      </trkpt>
      <trkpt lat="37.231784" lon="-5.104687">
        <ele>312.0</ele>
        <time>2022-09-26T14:31:54.890+02:00[Europe/Madrid]</time>
      </trkpt>
      <trkpt lat="37.231746" lon="-5.10457">
        <ele>313.0</ele>
        <time>2022-09-26T14:31:55.890+02:00[Europe/Madrid]</time>
      </trkpt>
      <trkpt lat="37.231707" lon="-5.104454">
        <ele>313.0</ele>
        <time>2022-09-26T14:31:56.890+02:00[Europe/Madrid]</time>
      </trkpt>
      <trkpt lat="37.231668" lon="-5.104341">
        <ele>313.0</ele>
        <time>2022-09-26T14:31:57.890+02:00[Europe/Madrid]</time>
      </trkpt>
      <trkpt lat="37.231631" lon="-5.104219">
        <ele>314.0</ele>
        <time>2022-09-26T14:31:58.890+02:00[Europe/Madrid]</time>
      </trkpt>
      <trkpt lat="37.231594" lon="-5.104095">
        <ele>314.0</ele>
        <time>2022-09-26T14:31:59.890+02:00[Europe/Madrid]</time>
      </trkpt>
      <trkpt lat="37.231558" lon="-5.103984">
        <ele>314.0</ele>
        <time>2022-09-26T14:32:00.890+02:00[Europe/Madrid]</time>
      </trkpt>
      <trkpt lat="37.23149" lon="-5.103779">
        <ele>315.0</ele>
        <time>2022-09-26T14:32:02.890+02:00[Europe/Madrid]</time>
      </trkpt>
      <trkpt lat="37.231439" lon="-5.10361">
        <ele>315.0</ele>
        <time>2022-09-26T14:32:04.892+02:00[Europe/Madrid]</time>
      </trkpt>
      <trkpt lat="37.231449" lon="-5.103489">
        <ele>315.0</ele>
        <time>2022-09-26T14:32:06.886+02:00[Europe/Madrid]</time>
      </trkpt>
      <trkpt lat="37.231526" lon="-5.10343">
        <ele>316.0</ele>
        <time>2022-09-26T14:32:08.894+02:00[Europe/Madrid]</time>
      </trkpt>
      <trkpt lat="37.231662" lon="-5.103376">
        <ele>317.0</ele>
        <time>2022-09-26T14:32:10.885+02:00[Europe/Madrid]</time>
      </trkpt>
      <trkpt lat="37.231812" lon="-5.1033">
        <ele>317.0</ele>
        <time>2022-09-26T14:32:12.891+02:00[Europe/Madrid]</time>
      </trkpt>
      <trkpt lat="37.231947" lon="-5.103235">
        <ele>317.0</ele>
        <time>2022-09-26T14:32:14.885+02:00[Europe/Madrid]</time>
      </trkpt>
      <trkpt lat="37.232048" lon="-5.103178">
        <ele>318.0</ele>
        <time>2022-09-26T14:32:17.883+02:00[Europe/Madrid]</time>
      </trkpt>
      <trkpt lat="37.232162" lon="-5.103133">
        <ele>318.0</ele>
        <time>2022-09-26T14:32:23.877+02:00[Europe/Madrid]</time>
      </trkpt>
      <trkpt lat="37.232283" lon="-5.103076">
        <ele>319.0</ele>
        <time>2022-09-26T14:32:25.899+02:00[Europe/Madrid]</time>
      </trkpt>
      <trkpt lat="37.23239" lon="-5.10302">
        <ele>321.0</ele>
        <time>2022-09-26T14:32:28.880+02:00[Europe/Madrid]</time>
      </trkpt>
      <trkpt lat="37.232403" lon="-5.102898">
        <ele>320.0</ele>
        <time>2022-09-26T14:32:31.890+02:00[Europe/Madrid]</time>
      </trkpt>
      <trkpt lat="37.232367" lon="-5.102741">
        <ele>320.0</ele>
        <time>2022-09-26T14:32:33.880+02:00[Europe/Madrid]</time>
      </trkpt>
      <trkpt lat="37.232344" lon="-5.102598">
        <ele>319.0</ele>
        <time>2022-09-26T14:32:36.894+02:00[Europe/Madrid]</time>
      </trkpt>
      <trkpt lat="37.23243" lon="-5.102554">
        <ele>321.0</ele>
        <time>2022-09-26T14:32:39.883+02:00[Europe/Madrid]</time>
      </trkpt>
      <trkpt lat="37.236904" lon="-5.127922">
        <ele>266.0</ele>
        <time>2022-09-26T11:01:35.913+02:00[Europe/Madrid]</time>
      </trkpt>
      <trkpt lat="37.23681" lon="-5.12801">
        <ele>265.0</ele>
        <time>2022-09-26T11:01:38.919+02:00[Europe/Madrid]</time>
      </trkpt>
      <trkpt lat="37.236774" lon="-5.128206">
        <ele>266.0</ele>
        <time>2022-09-26T11:01:40.906+02:00[Europe/Madrid]</time>
      </trkpt>
      <trkpt lat="37.236756" lon="-5.128325">
        <ele>266.0</ele>
        <time>2022-09-26T11:01:41.906+02:00[Europe/Madrid]</time>
      </trkpt>
      <trkpt lat="37.236736" lon="-5.128458">
        <ele>266.0</ele>
        <time>2022-09-26T11:01:42.906+02:00[Europe/Madrid]</time>
      </trkpt>
      <trkpt lat="37.236714" lon="-5.128611">
        <ele>266.0</ele>
        <time>2022-09-26T11:01:43.909+02:00[Europe/Madrid]</time>
      </trkpt>
      <trkpt lat="37.23669" lon="-5.128775">
        <ele>266.0</ele>
        <time>2022-09-26T11:01:44.909+02:00[Europe/Madrid]</time>
      </trkpt>
      <trkpt lat="37.236667" lon="-5.128951">
        <ele>267.0</ele>
        <time>2022-09-26T11:01:45.909+02:00[Europe/Madrid]</time>
      </trkpt>
      <trkpt lat="37.236642" lon="-5.129136">
        <ele>267.0</ele>
        <time>2022-09-26T11:01:46.920+02:00[Europe/Madrid]</time>
      </trkpt>
      <trkpt lat="37.236615" lon="-5.129328">
        <ele>266.0</ele>
        <time>2022-09-26T11:01:47.920+02:00[Europe/Madrid]</time>
      </trkpt>
      <trkpt lat="37.236589" lon="-5.129521">
        <ele>266.0</ele>
        <time>2022-09-26T11:01:48.920+02:00[Europe/Madrid]</time>
      </trkpt>
      <trkpt lat="37.236565" lon="-5.129715">
        <ele>267.0</ele>
        <time>2022-09-26T11:01:49.920+02:00[Europe/Madrid]</time>
      </trkpt>
      <trkpt lat="37.236547" lon="-5.129911">
        <ele>267.0</ele>
        <time>2022-09-26T11:01:50.920+02:00[Europe/Madrid]</time>
      </trkpt>
      <trkpt lat="37.236533" lon="-5.130111">
        <ele>266.0</ele>
        <time>2022-09-26T11:01:51.920+02:00[Europe/Madrid]</time>
      </trkpt>
      <trkpt lat="37.23653" lon="-5.130312">
        <ele>266.0</ele>
        <time>2022-09-26T11:01:52.920+02:00[Europe/Madrid]</time>
      </trkpt>
      <trkpt lat="37.236536" lon="-5.13051">
        <ele>266.0</ele>
        <time>2022-09-26T11:01:53.920+02:00[Europe/Madrid]</time>
      </trkpt>
      <trkpt lat="37.236539" lon="-5.130696">
        <ele>266.0</ele>
        <time>2022-09-26T11:01:54.920+02:00[Europe/Madrid]</time>
      </trkpt>
      <trkpt lat="37.236546" lon="-5.130869">
        <ele>266.0</ele>
        <time>2022-09-26T11:01:55.920+02:00[Europe/Madrid]</time>
      </trkpt>
      <trkpt lat="37.236551" lon="-5.131029">
        <ele>266.0</ele>
        <time>2022-09-26T11:01:56.920+02:00[Europe/Madrid]</time>
      </trkpt>
      <trkpt lat="37.236558" lon="-5.131178">
        <ele>266.0</ele>
        <time>2022-09-26T11:01:57.920+02:00[Europe/Madrid]</time>
      </trkpt>
      <trkpt lat="37.236568" lon="-5.131323">
        <ele>266.0</ele>
        <time>2022-09-26T11:01:58.920+02:00[Europe/Madrid]</time>
      </trkpt>
      <trkpt lat="37.236575" lon="-5.131485">
        <ele>266.0</ele>
        <time>2022-09-26T11:01:59.920+02:00[Europe/Madrid]</time>
      </trkpt>
      <trkpt lat="37.236585" lon="-5.131679">
        <ele>265.0</ele>
        <time>2022-09-26T11:02:00.920+02:00[Europe/Madrid]</time>
      </trkpt>
      <trkpt lat="37.236593" lon="-5.131904">
        <ele>265.0</ele>
        <time>2022-09-26T11:02:01.920+02:00[Europe/Madrid]</time>
      </trkpt>
      <trkpt lat="37.236602" lon="-5.132157">
        <ele>265.0</ele>
        <time>2022-09-26T11:02:02.920+02:00[Europe/Madrid]</time>
      </trkpt>
      <trkpt lat="37.236612" lon="-5.132436">
        <ele>265.0</ele>
        <time>2022-09-26T11:02:03.920+02:00[Europe/Madrid]</time>
      </trkpt>
      <trkpt lat="37.236617" lon="-5.132732">
        <ele>264.0</ele>
        <time>2022-09-26T11:02:04.920+02:00[Europe/Madrid]</time>
      </trkpt>
      <trkpt lat="37.236624" lon="-5.133049">
        <ele>264.0</ele>
        <time>2022-09-26T11:02:05.920+02:00[Europe/Madrid]</time>
      </trkpt>
      <trkpt lat="37.236635" lon="-5.13338">
        <ele>263.0</ele>
        <time>2022-09-26T11:02:06.920+02:00[Europe/Madrid]</time>
      </trkpt>
      <trkpt lat="37.236644" lon="-5.133716">
        <ele>263.0</ele>
        <time>2022-09-26T11:02:07.920+02:00[Europe/Madrid]</time>
      </trkpt>
      <trkpt lat="37.236653" lon="-5.134043">
        <ele>263.0</ele>
        <time>2022-09-26T11:02:08.920+02:00[Europe/Madrid]</time>
      </trkpt>
      <trkpt lat="37.236666" lon="-5.13438">
        <ele>262.0</ele>
        <time>2022-09-26T11:02:09.920+02:00[Europe/Madrid]</time>
      </trkpt>
      <trkpt lat="37.236678" lon="-5.134724">
        <ele>262.0</ele>
        <time>2022-09-26T11:02:10.920+02:00[Europe/Madrid]</time>
      </trkpt>
      <trkpt lat="37.236689" lon="-5.135073">
        <ele>261.0</ele>
        <time>2022-09-26T11:02:11.920+02:00[Europe/Madrid]</time>
      </trkpt>
      <trkpt lat="37.236704" lon="-5.135427">
        <ele>261.0</ele>
        <time>2022-09-26T11:02:12.920+02:00[Europe/Madrid]</time>
      </trkpt>
      <trkpt lat="37.236716" lon="-5.135783">
        <ele>260.0</ele>
        <time>2022-09-26T11:02:13.920+02:00[Europe/Madrid]</time>
      </trkpt>
      <trkpt lat="37.236726" lon="-5.136143">
        <ele>260.0</ele>
        <time>2022-09-26T11:02:14.920+02:00[Europe/Madrid]</time>
      </trkpt>
      <trkpt lat="37.236737" lon="-5.136499">
        <ele>260.0</ele>
        <time>2022-09-26T11:02:15.920+02:00[Europe/Madrid]</time>
      </trkpt>
      <trkpt lat="37.23675" lon="-5.136855">
        <ele>260.0</ele>
        <time>2022-09-26T11:02:16.920+02:00[Europe/Madrid]</time>
      </trkpt>
      <trkpt lat="37.23676" lon="-5.137204">
        <ele>259.0</ele>
        <time>2022-09-26T11:02:17.920+02:00[Europe/Madrid]</time>
      </trkpt>
      <trkpt lat="37.236772" lon="-5.137548">
        <ele>259.0</ele>
        <time>2022-09-26T11:02:18.920+02:00[Europe/Madrid]</time>
      </trkpt>
      <trkpt lat="37.236785" lon="-5.137885">
        <ele>259.0</ele>
        <time>2022-09-26T11:02:19.920+02:00[Europe/Madrid]</time>
      </trkpt>
      <trkpt lat="37.236799" lon="-5.138221">
        <ele>258.0</ele>
        <time>2022-09-26T11:02:20.951+02:00[Europe/Madrid]</time>
      </trkpt>
      <trkpt lat="37.236808" lon="-5.138558">
        <ele>258.0</ele>
        <time>2022-09-26T11:02:21.951+02:00[Europe/Madrid]</time>
      </trkpt>
      <trkpt lat="37.236817" lon="-5.13889">
        <ele>258.0</ele>
        <time>2022-09-26T11:02:22.951+02:00[Europe/Madrid]</time>
      </trkpt>
      <trkpt lat="37.236823" lon="-5.13922">
        <ele>258.0</ele>
        <time>2022-09-26T11:02:23.951+02:00[Europe/Madrid]</time>
      </trkpt>
      <trkpt lat="37.236828" lon="-5.13956">
        <ele>258.0</ele>
        <time>2022-09-26T11:02:24.951+02:00[Europe/Madrid]</time>
      </trkpt>
      <trkpt lat="37.236831" lon="-5.139911">
        <ele>257.0</ele>
        <time>2022-09-26T11:02:25.951+02:00[Europe/Madrid]</time>
      </trkpt>
      <trkpt lat="37.236838" lon="-5.140272">
        <ele>257.0</ele>
        <time>2022-09-26T11:02:26.951+02:00[Europe/Madrid]</time>
      </trkpt>
      <trkpt lat="37.236849" lon="-5.140638">
        <ele>257.0</ele>
        <time>2022-09-26T11:02:27.951+02:00[Europe/Madrid]</time>
      </trkpt>
      <trkpt lat="37.236864" lon="-5.140989">
        <ele>257.0</ele>
        <time>2022-09-26T11:02:28.951+02:00[Europe/Madrid]</time>
      </trkpt>
      <trkpt lat="37.236873" lon="-5.141336">
        <ele>257.0</ele>
        <time>2022-09-26T11:02:29.951+02:00[Europe/Madrid]</time>
      </trkpt>
      <trkpt lat="37.236876" lon="-5.141689">
        <ele>257.0</ele>
        <time>2022-09-26T11:02:30.951+02:00[Europe/Madrid]</time>
      </trkpt>
      <trkpt lat="37.236868" lon="-5.142041">
        <ele>258.0</ele>
        <time>2022-09-26T11:02:31.951+02:00[Europe/Madrid]</time>
      </trkpt>
      <trkpt lat="37.236844" lon="-5.1424">
        <ele>257.0</ele>
        <time>2022-09-26T11:02:32.951+02:00[Europe/Madrid]</time>
      </trkpt>
      <trkpt lat="37.236801" lon="-5.142767">
        <ele>257.0</ele>
        <time>2022-09-26T11:02:33.951+02:00[Europe/Madrid]</time>
      </trkpt>
      <trkpt lat="37.236744" lon="-5.143137">
        <ele>257.0</ele>
        <time>2022-09-26T11:02:34.951+02:00[Europe/Madrid]</time>
      </trkpt>
      <trkpt lat="37.236678" lon="-5.143514">
        <ele>257.0</ele>
        <time>2022-09-26T11:02:35.951+02:00[Europe/Madrid]</time>
      </trkpt>
      <trkpt lat="37.236612" lon="-5.143893">
        <ele>258.0</ele>
        <time>2022-09-26T11:02:36.951+02:00[Europe/Madrid]</time>
      </trkpt>
      <trkpt lat="37.236543" lon="-5.144274">
        <ele>258.0</ele>
        <time>2022-09-26T11:02:37.951+02:00[Europe/Madrid]</time>
      </trkpt>
      <trkpt lat="37.236472" lon="-5.144655">
        <ele>258.0</ele>
        <time>2022-09-26T11:02:38.951+02:00[Europe/Madrid]</time>
      </trkpt>
      <trkpt lat="37.236403" lon="-5.145037">
        <ele>258.0</ele>
        <time>2022-09-26T11:02:39.951+02:00[Europe/Madrid]</time>
      </trkpt>
      <trkpt lat="37.236332" lon="-5.145416">
        <ele>258.0</ele>
        <time>2022-09-26T11:02:40.951+02:00[Europe/Madrid]</time>
      </trkpt>
      <trkpt lat="37.236266" lon="-5.145795">
        <ele>258.0</ele>
        <time>2022-09-26T11:02:41.951+02:00[Europe/Madrid]</time>
      </trkpt>
      <trkpt lat="37.236198" lon="-5.146173">
        <ele>258.0</ele>
        <time>2022-09-26T11:02:42.951+02:00[Europe/Madrid]</time>
      </trkpt>
      <trkpt lat="37.236129" lon="-5.146549">
        <ele>258.0</ele>
        <time>2022-09-26T11:02:43.951+02:00[Europe/Madrid]</time>
      </trkpt>
      <trkpt lat="37.23606" lon="-5.146922">
        <ele>258.0</ele>
        <time>2022-09-26T11:02:44.951+02:00[Europe/Madrid]</time>
      </trkpt>
      <trkpt lat="37.235991" lon="-5.147298">
        <ele>258.0</ele>
        <time>2022-09-26T11:02:45.951+02:00[Europe/Madrid]</time>
      </trkpt>
      <trkpt lat="37.235922" lon="-5.147674">
        <ele>258.0</ele>
        <time>2022-09-26T11:02:46.951+02:00[Europe/Madrid]</time>
      </trkpt>
      <trkpt lat="37.235853" lon="-5.148044">
        <ele>259.0</ele>
        <time>2022-09-26T11:02:47.951+02:00[Europe/Madrid]</time>
      </trkpt>
      <trkpt lat="37.235783" lon="-5.148416">
        <ele>259.0</ele>
        <time>2022-09-26T11:02:48.951+02:00[Europe/Madrid]</time>
      </trkpt>
      <trkpt lat="37.235716" lon="-5.148786">
        <ele>259.0</ele>
        <time>2022-09-26T11:02:49.951+02:00[Europe/Madrid]</time>
      </trkpt>
      <trkpt lat="37.23565" lon="-5.149154">
        <ele>259.0</ele>
        <time>2022-09-26T11:02:50.951+02:00[Europe/Madrid]</time>
      </trkpt>
      <trkpt lat="37.235578" lon="-5.149523">
        <ele>259.0</ele>
        <time>2022-09-26T11:02:51.951+02:00[Europe/Madrid]</time>
      </trkpt>
      <trkpt lat="37.23551" lon="-5.149893">
        <ele>259.0</ele>
        <time>2022-09-26T11:02:52.951+02:00[Europe/Madrid]</time>
      </trkpt>
      <trkpt lat="37.235443" lon="-5.150259">
        <ele>259.0</ele>
        <time>2022-09-26T11:02:53.951+02:00[Europe/Madrid]</time>
      </trkpt>
      <trkpt lat="37.235378" lon="-5.150623">
        <ele>259.0</ele>
        <time>2022-09-26T11:02:54.951+02:00[Europe/Madrid]</time>
      </trkpt>
      <trkpt lat="37.235312" lon="-5.150989">
        <ele>259.0</ele>
        <time>2022-09-26T11:02:55.951+02:00[Europe/Madrid]</time>
      </trkpt>
      <trkpt lat="37.235256" lon="-5.151357">
        <ele>259.0</ele>
        <time>2022-09-26T11:02:56.951+02:00[Europe/Madrid]</time>
      </trkpt>
      <trkpt lat="37.2352" lon="-5.151722">
        <ele>260.0</ele>
        <time>2022-09-26T11:02:57.951+02:00[Europe/Madrid]</time>
      </trkpt>
      <trkpt lat="37.235141" lon="-5.152086">
        <ele>260.0</ele>
        <time>2022-09-26T11:02:58.951+02:00[Europe/Madrid]</time>
      </trkpt>
      <trkpt lat="37.235078" lon="-5.152447">
        <ele>260.0</ele>
        <time>2022-09-26T11:02:59.951+02:00[Europe/Madrid]</time>
      </trkpt>
      <trkpt lat="37.235014" lon="-5.152805">
        <ele>260.0</ele>
        <time>2022-09-26T11:03:00.951+02:00[Europe/Madrid]</time>
      </trkpt>
      <trkpt lat="37.234949" lon="-5.153163">
        <ele>260.0</ele>
        <time>2022-09-26T11:03:01.951+02:00[Europe/Madrid]</time>
      </trkpt>
      <trkpt lat="37.234889" lon="-5.153516">
        <ele>261.0</ele>
        <time>2022-09-26T11:03:02.951+02:00[Europe/Madrid]</time>
      </trkpt>
      <trkpt lat="37.234826" lon="-5.153868">
        <ele>261.0</ele>
        <time>2022-09-26T11:03:03.951+02:00[Europe/Madrid]</time>
      </trkpt>
      <trkpt lat="37.23476" lon="-5.154215">
        <ele>261.0</ele>
        <time>2022-09-26T11:03:04.951+02:00[Europe/Madrid]</time>
      </trkpt>
      <trkpt lat="37.234692" lon="-5.154566">
        <ele>260.0</ele>
        <time>2022-09-26T11:03:05.951+02:00[Europe/Madrid]</time>
      </trkpt>
      <trkpt lat="37.234628" lon="-5.154915">
        <ele>261.0</ele>
        <time>2022-09-26T11:03:06.951+02:00[Europe/Madrid]</time>
      </trkpt>
      <trkpt lat="37.234565" lon="-5.155261">
        <ele>260.0</ele>
        <time>2022-09-26T11:03:07.951+02:00[Europe/Madrid]</time>
      </trkpt>
      <trkpt lat="37.234505" lon="-5.155606">
        <ele>260.0</ele>
        <time>2022-09-26T11:03:08.951+02:00[Europe/Madrid]</time>
      </trkpt>
      <trkpt lat="37.23445" lon="-5.155953">
        <ele>260.0</ele>
        <time>2022-09-26T11:03:09.951+02:00[Europe/Madrid]</time>
      </trkpt>
      <trkpt lat="37.234397" lon="-5.156303">
        <ele>260.0</ele>
        <time>2022-09-26T11:03:10.951+02:00[Europe/Madrid]</time>
      </trkpt>
      <trkpt lat="37.234361" lon="-5.156657">
        <ele>261.0</ele>
        <time>2022-09-26T11:03:11.951+02:00[Europe/Madrid]</time>
      </trkpt>
      <trkpt lat="37.234335" lon="-5.157014">
        <ele>261.0</ele>
        <time>2022-09-26T11:03:12.951+02:00[Europe/Madrid]</time>
      </trkpt>
      <trkpt lat="37.234306" lon="-5.157369">
        <ele>260.0</ele>
        <time>2022-09-26T11:03:13.951+02:00[Europe/Madrid]</time>
      </trkpt>
      <trkpt lat="37.234275" lon="-5.157722">
        <ele>260.0</ele>
        <time>2022-09-26T11:03:14.951+02:00[Europe/Madrid]</time>
      </trkpt>
      <trkpt lat="37.234248" lon="-5.158078">
        <ele>260.0</ele>
        <time>2022-09-26T11:03:15.951+02:00[Europe/Madrid]</time>
      </trkpt>
      <trkpt lat="37.23422" lon="-5.158428">
        <ele>261.0</ele>
        <time>2022-09-26T11:03:16.951+02:00[Europe/Madrid]</time>
      </trkpt>
      <trkpt lat="37.234196" lon="-5.158775">
        <ele>261.0</ele>
        <time>2022-09-26T11:03:17.951+02:00[Europe/Madrid]</time>
      </trkpt>
      <trkpt lat="37.234169" lon="-5.159116">
        <ele>261.0</ele>
        <time>2022-09-26T11:03:18.951+02:00[Europe/Madrid]</time>
      </trkpt>
      <trkpt lat="37.234141" lon="-5.159457">
        <ele>261.0</ele>
        <time>2022-09-26T11:03:19.951+02:00[Europe/Madrid]</time>
      </trkpt>
      <trkpt lat="37.234112" lon="-5.159795">
        <ele>261.0</ele>
        <time>2022-09-26T11:03:20.951+02:00[Europe/Madrid]</time>
      </trkpt>
      <trkpt lat="37.234085" lon="-5.160131">
        <ele>261.0</ele>
        <time>2022-09-26T11:03:21.951+02:00[Europe/Madrid]</time>
      </trkpt>
      <trkpt lat="37.234054" lon="-5.160468">
        <ele>261.0</ele>
        <time>2022-09-26T11:03:22.951+02:00[Europe/Madrid]</time>
      </trkpt>
      <trkpt lat="37.234019" lon="-5.160803">
        <ele>261.0</ele>
        <time>2022-09-26T11:03:23.951+02:00[Europe/Madrid]</time>
      </trkpt>
      <trkpt lat="37.233976" lon="-5.161139">
        <ele>261.0</ele>
        <time>2022-09-26T11:03:24.951+02:00[Europe/Madrid]</time>
      </trkpt>
      <trkpt lat="37.233921" lon="-5.161473">
        <ele>262.0</ele>
        <time>2022-09-26T11:03:25.951+02:00[Europe/Madrid]</time>
      </trkpt>
      <trkpt lat="37.233853" lon="-5.161807">
        <ele>261.0</ele>
        <time>2022-09-26T11:03:26.951+02:00[Europe/Madrid]</time>
      </trkpt>
      <trkpt lat="37.233785" lon="-5.162144">
        <ele>262.0</ele>
        <time>2022-09-26T11:03:27.951+02:00[Europe/Madrid]</time>
      </trkpt>
      <trkpt lat="37.233716" lon="-5.162486">
        <ele>262.0</ele>
        <time>2022-09-26T11:03:28.951+02:00[Europe/Madrid]</time>
      </trkpt>
      <trkpt lat="37.233647" lon="-5.162826">
        <ele>262.0</ele>
        <time>2022-09-26T11:03:29.951+02:00[Europe/Madrid]</time>
      </trkpt>
      <trkpt lat="37.233577" lon="-5.163167">
        <ele>262.0</ele>
        <time>2022-09-26T11:03:30.951+02:00[Europe/Madrid]</time>
      </trkpt>
      <trkpt lat="37.233508" lon="-5.163507">
        <ele>261.0</ele>
        <time>2022-09-26T11:03:31.951+02:00[Europe/Madrid]</time>
      </trkpt>
      <trkpt lat="37.233439" lon="-5.163854">
        <ele>262.0</ele>
        <time>2022-09-26T11:03:32.951+02:00[Europe/Madrid]</time>
      </trkpt>
      <trkpt lat="37.233367" lon="-5.164201">
        <ele>262.0</ele>
        <time>2022-09-26T11:03:33.951+02:00[Europe/Madrid]</time>
      </trkpt>
      <trkpt lat="37.233291" lon="-5.164552">
        <ele>263.0</ele>
        <time>2022-09-26T11:03:34.951+02:00[Europe/Madrid]</time>
      </trkpt>
      <trkpt lat="37.233207" lon="-5.164898">
        <ele>263.0</ele>
        <time>2022-09-26T11:03:35.951+02:00[Europe/Madrid]</time>
      </trkpt>
      <trkpt lat="37.233113" lon="-5.165243">
        <ele>262.0</ele>
        <time>2022-09-26T11:03:36.951+02:00[Europe/Madrid]</time>
      </trkpt>
      <trkpt lat="37.233023" lon="-5.165586">
        <ele>262.0</ele>
        <time>2022-09-26T11:03:37.951+02:00[Europe/Madrid]</time>
      </trkpt>
      <trkpt lat="37.232932" lon="-5.16593">
        <ele>262.0</ele>
        <time>2022-09-26T11:03:38.951+02:00[Europe/Madrid]</time>
      </trkpt>
      <trkpt lat="37.23284" lon="-5.166275">
        <ele>262.0</ele>
        <time>2022-09-26T11:03:39.951+02:00[Europe/Madrid]</time>
      </trkpt>
      <trkpt lat="37.232749" lon="-5.16662">
        <ele>262.0</ele>
        <time>2022-09-26T11:03:40.951+02:00[Europe/Madrid]</time>
      </trkpt>
      <trkpt lat="37.232662" lon="-5.166966">
        <ele>261.0</ele>
        <time>2022-09-26T11:03:41.951+02:00[Europe/Madrid]</time>
      </trkpt>
      <trkpt lat="37.232584" lon="-5.167314">
        <ele>261.0</ele>
        <time>2022-09-26T11:03:42.951+02:00[Europe/Madrid]</time>
      </trkpt>
      <trkpt lat="37.232516" lon="-5.167666">
        <ele>261.0</ele>
        <time>2022-09-26T11:03:43.951+02:00[Europe/Madrid]</time>
      </trkpt>
      <trkpt lat="37.232465" lon="-5.168024">
        <ele>261.0</ele>
        <time>2022-09-26T11:03:44.951+02:00[Europe/Madrid]</time>
      </trkpt>
      <trkpt lat="37.232428" lon="-5.168386">
        <ele>261.0</ele>
        <time>2022-09-26T11:03:45.951+02:00[Europe/Madrid]</time>
      </trkpt>
      <trkpt lat="37.232406" lon="-5.168751">
        <ele>261.0</ele>
        <time>2022-09-26T11:03:46.951+02:00[Europe/Madrid]</time>
      </trkpt>
      <trkpt lat="37.232392" lon="-5.169119">
        <ele>261.0</ele>
        <time>2022-09-26T11:03:47.951+02:00[Europe/Madrid]</time>
      </trkpt>
      <trkpt lat="37.232383" lon="-5.169487">
        <ele>261.0</ele>
        <time>2022-09-26T11:03:48.951+02:00[Europe/Madrid]</time>
      </trkpt>
      <trkpt lat="37.232377" lon="-5.169856">
        <ele>261.0</ele>
        <time>2022-09-26T11:03:49.951+02:00[Europe/Madrid]</time>
      </trkpt>
      <trkpt lat="37.232369" lon="-5.170221">
        <ele>261.0</ele>
        <time>2022-09-26T11:03:50.951+02:00[Europe/Madrid]</time>
      </trkpt>
      <trkpt lat="37.232359" lon="-5.170589">
        <ele>261.0</ele>
        <time>2022-09-26T11:03:51.951+02:00[Europe/Madrid]</time>
      </trkpt>
      <trkpt lat="37.232353" lon="-5.170954">
        <ele>261.0</ele>
        <time>2022-09-26T11:03:52.951+02:00[Europe/Madrid]</time>
      </trkpt>
      <trkpt lat="37.232349" lon="-5.171318">
        <ele>262.0</ele>
        <time>2022-09-26T11:03:53.951+02:00[Europe/Madrid]</time>
      </trkpt>
      <trkpt lat="37.232342" lon="-5.171683">
        <ele>262.0</ele>
        <time>2022-09-26T11:03:54.951+02:00[Europe/Madrid]</time>
      </trkpt>
      <trkpt lat="37.232338" lon="-5.17204">
        <ele>262.0</ele>
        <time>2022-09-26T11:03:55.951+02:00[Europe/Madrid]</time>
      </trkpt>
      <trkpt lat="37.232336" lon="-5.172397">
        <ele>262.0</ele>
        <time>2022-09-26T11:03:57.009+02:00[Europe/Madrid]</time>
      </trkpt>
      <trkpt lat="37.232344" lon="-5.172751">
        <ele>261.0</ele>
        <time>2022-09-26T11:03:58.009+02:00[Europe/Madrid]</time>
      </trkpt>
      <trkpt lat="37.232369" lon="-5.173103">
        <ele>261.0</ele>
        <time>2022-09-26T11:03:59.009+02:00[Europe/Madrid]</time>
      </trkpt>
      <trkpt lat="37.232417" lon="-5.173455">
        <ele>261.0</ele>
        <time>2022-09-26T11:04:00.009+02:00[Europe/Madrid]</time>
      </trkpt>
      <trkpt lat="37.232483" lon="-5.173805">
        <ele>260.0</ele>
        <time>2022-09-26T11:04:01.009+02:00[Europe/Madrid]</time>
      </trkpt>
      <trkpt lat="37.232563" lon="-5.17415">
        <ele>261.0</ele>
        <time>2022-09-26T11:04:02.009+02:00[Europe/Madrid]</time>
      </trkpt>
      <trkpt lat="37.23265" lon="-5.174495">
        <ele>261.0</ele>
        <time>2022-09-26T11:04:03.009+02:00[Europe/Madrid]</time>
      </trkpt>
      <trkpt lat="37.232741" lon="-5.174837">
        <ele>261.0</ele>
        <time>2022-09-26T11:04:04.009+02:00[Europe/Madrid]</time>
      </trkpt>
      <trkpt lat="37.232832" lon="-5.175184">
        <ele>261.0</ele>
        <time>2022-09-26T11:04:05.009+02:00[Europe/Madrid]</time>
      </trkpt>
      <trkpt lat="37.232922" lon="-5.175528">
        <ele>262.0</ele>
        <time>2022-09-26T11:04:06.009+02:00[Europe/Madrid]</time>
      </trkpt>
      <trkpt lat="37.233005" lon="-5.175874">
        <ele>262.0</ele>
        <time>2022-09-26T11:04:07.009+02:00[Europe/Madrid]</time>
      </trkpt>
      <trkpt lat="37.233087" lon="-5.176219">
        <ele>263.0</ele>
        <time>2022-09-26T11:04:08.009+02:00[Europe/Madrid]</time>
      </trkpt>
      <trkpt lat="37.233161" lon="-5.176565">
        <ele>264.0</ele>
        <time>2022-09-26T11:04:09.009+02:00[Europe/Madrid]</time>
      </trkpt>
      <trkpt lat="37.233223" lon="-5.176917">
        <ele>264.0</ele>
        <time>2022-09-26T11:04:10.009+02:00[Europe/Madrid]</time>
      </trkpt>
      <trkpt lat="37.233275" lon="-5.177282">
        <ele>265.0</ele>
        <time>2022-09-26T11:04:11.009+02:00[Europe/Madrid]</time>
      </trkpt>
      <trkpt lat="37.233315" lon="-5.177655">
        <ele>265.0</ele>
        <time>2022-09-26T11:04:12.009+02:00[Europe/Madrid]</time>
      </trkpt>
      <trkpt lat="37.233355" lon="-5.178031">
        <ele>265.0</ele>
        <time>2022-09-26T11:04:13.009+02:00[Europe/Madrid]</time>
      </trkpt>
      <trkpt lat="37.233395" lon="-5.178405">
        <ele>266.0</ele>
        <time>2022-09-26T11:04:14.009+02:00[Europe/Madrid]</time>
      </trkpt>
      <trkpt lat="37.233435" lon="-5.178782">
        <ele>265.0</ele>
        <time>2022-09-26T11:04:15.009+02:00[Europe/Madrid]</time>
      </trkpt>
      <trkpt lat="37.233476" lon="-5.179157">
        <ele>265.0</ele>
        <time>2022-09-26T11:04:16.009+02:00[Europe/Madrid]</time>
      </trkpt>
      <trkpt lat="37.233506" lon="-5.179527">
        <ele>265.0</ele>
        <time>2022-09-26T11:04:17.009+02:00[Europe/Madrid]</time>
      </trkpt>
      <trkpt lat="37.23352" lon="-5.179897">
        <ele>265.0</ele>
        <time>2022-09-26T11:04:18.009+02:00[Europe/Madrid]</time>
      </trkpt>
      <trkpt lat="37.233521" lon="-5.180264">
        <ele>264.0</ele>
        <time>2022-09-26T11:04:19.009+02:00[Europe/Madrid]</time>
      </trkpt>
      <trkpt lat="37.233505" lon="-5.180632">
        <ele>263.0</ele>
        <time>2022-09-26T11:04:20.009+02:00[Europe/Madrid]</time>
      </trkpt>
      <trkpt lat="37.233479" lon="-5.180999">
        <ele>263.0</ele>
        <time>2022-09-26T11:04:21.009+02:00[Europe/Madrid]</time>
      </trkpt>
      <trkpt lat="37.23345" lon="-5.181365">
        <ele>262.0</ele>
        <time>2022-09-26T11:04:22.009+02:00[Europe/Madrid]</time>
      </trkpt>
      <trkpt lat="37.233421" lon="-5.181733">
        <ele>262.0</ele>
        <time>2022-09-26T11:04:23.009+02:00[Europe/Madrid]</time>
      </trkpt>
      <trkpt lat="37.233393" lon="-5.182094">
        <ele>262.0</ele>
        <time>2022-09-26T11:04:24.009+02:00[Europe/Madrid]</time>
      </trkpt>
      <trkpt lat="37.233372" lon="-5.182462">
        <ele>262.0</ele>
        <time>2022-09-26T11:04:25.009+02:00[Europe/Madrid]</time>
      </trkpt>
      <trkpt lat="37.233355" lon="-5.18283">
        <ele>262.0</ele>
        <time>2022-09-26T11:04:26.009+02:00[Europe/Madrid]</time>
      </trkpt>
      <trkpt lat="37.233335" lon="-5.183192">
        <ele>261.0</ele>
        <time>2022-09-26T11:04:27.009+02:00[Europe/Madrid]</time>
      </trkpt>
      <trkpt lat="37.233317" lon="-5.183555">
        <ele>261.0</ele>
        <time>2022-09-26T11:04:28.009+02:00[Europe/Madrid]</time>
      </trkpt>
      <trkpt lat="37.2333" lon="-5.183918">
        <ele>260.0</ele>
        <time>2022-09-26T11:04:29.009+02:00[Europe/Madrid]</time>
      </trkpt>
      <trkpt lat="37.233287" lon="-5.184281">
        <ele>259.0</ele>
        <time>2022-09-26T11:04:30.009+02:00[Europe/Madrid]</time>
      </trkpt>
      <trkpt lat="37.233274" lon="-5.184649">
        <ele>258.0</ele>
        <time>2022-09-26T11:04:31.009+02:00[Europe/Madrid]</time>
      </trkpt>
      <trkpt lat="37.233259" lon="-5.185016">
        <ele>257.0</ele>
        <time>2022-09-26T11:04:32.009+02:00[Europe/Madrid]</time>
      </trkpt>
      <trkpt lat="37.233244" lon="-5.185385">
        <ele>256.0</ele>
        <time>2022-09-26T11:04:33.009+02:00[Europe/Madrid]</time>
      </trkpt>
      <trkpt lat="37.233224" lon="-5.185755">
        <ele>255.0</ele>
        <time>2022-09-26T11:04:34.009+02:00[Europe/Madrid]</time>
      </trkpt>
      <trkpt lat="37.23321" lon="-5.186124">
        <ele>254.0</ele>
        <time>2022-09-26T11:04:35.009+02:00[Europe/Madrid]</time>
      </trkpt>
      <trkpt lat="37.233198" lon="-5.186496">
        <ele>253.0</ele>
        <time>2022-09-26T11:04:36.009+02:00[Europe/Madrid]</time>
      </trkpt>
      <trkpt lat="37.233191" lon="-5.186864">
        <ele>252.0</ele>
        <time>2022-09-26T11:04:37.009+02:00[Europe/Madrid]</time>
      </trkpt>
      <trkpt lat="37.233194" lon="-5.187239">
        <ele>251.0</ele>
        <time>2022-09-26T11:04:38.009+02:00[Europe/Madrid]</time>
      </trkpt>
      <trkpt lat="37.23322" lon="-5.187607">
        <ele>250.0</ele>
        <time>2022-09-26T11:04:39.009+02:00[Europe/Madrid]</time>
      </trkpt>
      <trkpt lat="37.233267" lon="-5.187972">
        <ele>250.0</ele>
        <time>2022-09-26T11:04:40.009+02:00[Europe/Madrid]</time>
      </trkpt>
      <trkpt lat="37.233316" lon="-5.18833">
        <ele>250.0</ele>
        <time>2022-09-26T11:04:41.009+02:00[Europe/Madrid]</time>
      </trkpt>
      <trkpt lat="37.233359" lon="-5.188692">
        <ele>251.0</ele>
        <time>2022-09-26T11:04:42.009+02:00[Europe/Madrid]</time>
      </trkpt>
      <trkpt lat="37.233403" lon="-5.189049">
        <ele>251.0</ele>
        <time>2022-09-26T11:04:43.009+02:00[Europe/Madrid]</time>
      </trkpt>
      <trkpt lat="37.233449" lon="-5.189404">
        <ele>251.0</ele>
        <time>2022-09-26T11:04:44.009+02:00[Europe/Madrid]</time>
      </trkpt>
      <trkpt lat="37.233491" lon="-5.189761">
        <ele>251.0</ele>
        <time>2022-09-26T11:04:45.009+02:00[Europe/Madrid]</time>
      </trkpt>
      <trkpt lat="37.233534" lon="-5.190115">
        <ele>251.0</ele>
        <time>2022-09-26T11:04:46.009+02:00[Europe/Madrid]</time>
      </trkpt>
      <trkpt lat="37.233579" lon="-5.190471">
        <ele>251.0</ele>
        <time>2022-09-26T11:04:47.009+02:00[Europe/Madrid]</time>
      </trkpt>
      <trkpt lat="37.233624" lon="-5.190824">
        <ele>251.0</ele>
        <time>2022-09-26T11:04:48.009+02:00[Europe/Madrid]</time>
      </trkpt>
      <trkpt lat="37.233667" lon="-5.191174">
        <ele>251.0</ele>
        <time>2022-09-26T11:04:49.009+02:00[Europe/Madrid]</time>
      </trkpt>
      <trkpt lat="37.233706" lon="-5.191526">
        <ele>251.0</ele>
        <time>2022-09-26T11:04:50.009+02:00[Europe/Madrid]</time>
      </trkpt>
      <trkpt lat="37.233741" lon="-5.19188">
        <ele>251.0</ele>
        <time>2022-09-26T11:04:51.009+02:00[Europe/Madrid]</time>
      </trkpt>
      <trkpt lat="37.233761" lon="-5.19223">
        <ele>250.0</ele>
        <time>2022-09-26T11:04:52.009+02:00[Europe/Madrid]</time>
      </trkpt>
      <trkpt lat="37.23377" lon="-5.192581">
        <ele>250.0</ele>
        <time>2022-09-26T11:04:53.009+02:00[Europe/Madrid]</time>
      </trkpt>
      <trkpt lat="37.233763" lon="-5.192935">
        <ele>249.0</ele>
        <time>2022-09-26T11:04:54.009+02:00[Europe/Madrid]</time>
      </trkpt>
      <trkpt lat="37.233743" lon="-5.193291">
        <ele>248.0</ele>
        <time>2022-09-26T11:04:55.009+02:00[Europe/Madrid]</time>
      </trkpt>
      <trkpt lat="37.23371" lon="-5.193647">
        <ele>246.0</ele>
        <time>2022-09-26T11:04:56.009+02:00[Europe/Madrid]</time>
      </trkpt>
      <trkpt lat="37.233675" lon="-5.194004">
        <ele>245.0</ele>
        <time>2022-09-26T11:04:57.009+02:00[Europe/Madrid]</time>
      </trkpt>
      <trkpt lat="37.23364" lon="-5.194362">
        <ele>244.0</ele>
        <time>2022-09-26T11:04:58.009+02:00[Europe/Madrid]</time>
      </trkpt>
      <trkpt lat="37.233607" lon="-5.19472">
        <ele>243.0</ele>
        <time>2022-09-26T11:04:59.009+02:00[Europe/Madrid]</time>
      </trkpt>
      <trkpt lat="37.233574" lon="-5.195077">
        <ele>243.0</ele>
        <time>2022-09-26T11:05:00.009+02:00[Europe/Madrid]</time>
      </trkpt>
      <trkpt lat="37.233537" lon="-5.195439">
        <ele>243.0</ele>
        <time>2022-09-26T11:05:01.009+02:00[Europe/Madrid]</time>
      </trkpt>
      <trkpt lat="37.233495" lon="-5.195799">
        <ele>243.0</ele>
        <time>2022-09-26T11:05:02.009+02:00[Europe/Madrid]</time>
      </trkpt>
      <trkpt lat="37.233457" lon="-5.19616">
        <ele>243.0</ele>
        <time>2022-09-26T11:05:03.009+02:00[Europe/Madrid]</time>
      </trkpt>
      <trkpt lat="37.233421" lon="-5.19652">
        <ele>244.0</ele>
        <time>2022-09-26T11:05:04.009+02:00[Europe/Madrid]</time>
      </trkpt>
      <trkpt lat="37.233389" lon="-5.19688">
        <ele>244.0</ele>
        <time>2022-09-26T11:05:05.009+02:00[Europe/Madrid]</time>
      </trkpt>
      <trkpt lat="37.233354" lon="-5.197238">
        <ele>244.0</ele>
        <time>2022-09-26T11:05:06.009+02:00[Europe/Madrid]</time>
      </trkpt>
      <trkpt lat="37.233321" lon="-5.197597">
        <ele>244.0</ele>
        <time>2022-09-26T11:05:07.009+02:00[Europe/Madrid]</time>
      </trkpt>
      <trkpt lat="37.23329" lon="-5.197953">
        <ele>245.0</ele>
        <time>2022-09-26T11:05:08.009+02:00[Europe/Madrid]</time>
      </trkpt>
      <trkpt lat="37.233256" lon="-5.198309">
        <ele>245.0</ele>
        <time>2022-09-26T11:05:09.009+02:00[Europe/Madrid]</time>
      </trkpt>
      <trkpt lat="37.233224" lon="-5.198667">
        <ele>245.0</ele>
        <time>2022-09-26T11:05:10.009+02:00[Europe/Madrid]</time>
      </trkpt>
      <trkpt lat="37.233191" lon="-5.199027">
        <ele>245.0</ele>
        <time>2022-09-26T11:05:11.009+02:00[Europe/Madrid]</time>
      </trkpt>
      <trkpt lat="37.233155" lon="-5.199385">
        <ele>246.0</ele>
        <time>2022-09-26T11:05:12.009+02:00[Europe/Madrid]</time>
      </trkpt>
      <trkpt lat="37.233121" lon="-5.199745">
        <ele>246.0</ele>
        <time>2022-09-26T11:05:13.009+02:00[Europe/Madrid]</time>
      </trkpt>
      <trkpt lat="37.233086" lon="-5.200109">
        <ele>246.0</ele>
        <time>2022-09-26T11:05:14.009+02:00[Europe/Madrid]</time>
      </trkpt>
      <trkpt lat="37.233052" lon="-5.20047">
        <ele>247.0</ele>
        <time>2022-09-26T11:05:15.009+02:00[Europe/Madrid]</time>
      </trkpt>
      <trkpt lat="37.233018" lon="-5.200835">
        <ele>247.0</ele>
        <time>2022-09-26T11:05:16.009+02:00[Europe/Madrid]</time>
      </trkpt>
      <trkpt lat="37.232985" lon="-5.201196">
        <ele>248.0</ele>
        <time>2022-09-26T11:05:17.009+02:00[Europe/Madrid]</time>
      </trkpt>
      <trkpt lat="37.232952" lon="-5.201554">
        <ele>249.0</ele>
        <time>2022-09-26T11:05:18.009+02:00[Europe/Madrid]</time>
      </trkpt>
      <trkpt lat="37.232915" lon="-5.201913">
        <ele>250.0</ele>
        <time>2022-09-26T11:05:19.009+02:00[Europe/Madrid]</time>
      </trkpt>
      <trkpt lat="37.232885" lon="-5.20227">
        <ele>252.0</ele>
        <time>2022-09-26T11:05:20.009+02:00[Europe/Madrid]</time>
      </trkpt>
      <trkpt lat="37.232851" lon="-5.202627">
        <ele>253.0</ele>
        <time>2022-09-26T11:05:21.009+02:00[Europe/Madrid]</time>
      </trkpt>
      <trkpt lat="37.232818" lon="-5.20298">
        <ele>254.0</ele>
        <time>2022-09-26T11:05:22.009+02:00[Europe/Madrid]</time>
      </trkpt>
      <trkpt lat="37.232791" lon="-5.203328">
        <ele>256.0</ele>
        <time>2022-09-26T11:05:23.009+02:00[Europe/Madrid]</time>
      </trkpt>
      <trkpt lat="37.232762" lon="-5.203677">
        <ele>257.0</ele>
        <time>2022-09-26T11:05:24.009+02:00[Europe/Madrid]</time>
      </trkpt>
      <trkpt lat="37.232745" lon="-5.204025">
        <ele>258.0</ele>
        <time>2022-09-26T11:05:25.009+02:00[Europe/Madrid]</time>
      </trkpt>
      <trkpt lat="37.232742" lon="-5.204376">
        <ele>259.0</ele>
        <time>2022-09-26T11:05:26.009+02:00[Europe/Madrid]</time>
      </trkpt>
      <trkpt lat="37.232756" lon="-5.204731">
        <ele>260.0</ele>
        <time>2022-09-26T11:05:27.009+02:00[Europe/Madrid]</time>
      </trkpt>
      <trkpt lat="37.23278" lon="-5.205093">
        <ele>260.0</ele>
        <time>2022-09-26T11:05:28.009+02:00[Europe/Madrid]</time>
      </trkpt>
      <trkpt lat="37.232809" lon="-5.205456">
        <ele>261.0</ele>
        <time>2022-09-26T11:05:29.009+02:00[Europe/Madrid]</time>
      </trkpt>
      <trkpt lat="37.232837" lon="-5.20582">
        <ele>262.0</ele>
        <time>2022-09-26T11:05:30.009+02:00[Europe/Madrid]</time>
      </trkpt>
      <trkpt lat="37.232865" lon="-5.206189">
        <ele>263.0</ele>
        <time>2022-09-26T11:05:31.009+02:00[Europe/Madrid]</time>
      </trkpt>
      <trkpt lat="37.232894" lon="-5.20656">
        <ele>264.0</ele>
        <time>2022-09-26T11:05:32.009+02:00[Europe/Madrid]</time>
      </trkpt>
      <trkpt lat="37.232924" lon="-5.206925">
        <ele>265.0</ele>
        <time>2022-09-26T11:05:33.009+02:00[Europe/Madrid]</time>
      </trkpt>
      <trkpt lat="37.232963" lon="-5.207295">
        <ele>266.0</ele>
        <time>2022-09-26T11:05:34.009+02:00[Europe/Madrid]</time>
      </trkpt>
      <trkpt lat="37.232994" lon="-5.207663">
        <ele>267.0</ele>
        <time>2022-09-26T11:05:35.009+02:00[Europe/Madrid]</time>
      </trkpt>
      <trkpt lat="37.233025" lon="-5.208026">
        <ele>269.0</ele>
        <time>2022-09-26T11:05:36.009+02:00[Europe/Madrid]</time>
      </trkpt>
      <trkpt lat="37.233051" lon="-5.208387">
        <ele>271.0</ele>
        <time>2022-09-26T11:05:37.009+02:00[Europe/Madrid]</time>
      </trkpt>
      <trkpt lat="37.233077" lon="-5.208746">
        <ele>272.0</ele>
        <time>2022-09-26T11:05:38.009+02:00[Europe/Madrid]</time>
      </trkpt>
      <trkpt lat="37.233103" lon="-5.209102">
        <ele>274.0</ele>
        <time>2022-09-26T11:05:39.009+02:00[Europe/Madrid]</time>
      </trkpt>
      <trkpt lat="37.233132" lon="-5.209457">
        <ele>275.0</ele>
        <time>2022-09-26T11:05:40.009+02:00[Europe/Madrid]</time>
      </trkpt>
      <trkpt lat="37.233151" lon="-5.209808">
        <ele>276.0</ele>
        <time>2022-09-26T11:05:41.009+02:00[Europe/Madrid]</time>
      </trkpt>
      <trkpt lat="37.233165" lon="-5.210153">
        <ele>277.0</ele>
        <time>2022-09-26T11:05:42.009+02:00[Europe/Madrid]</time>
      </trkpt>
      <trkpt lat="37.233165" lon="-5.210499">
        <ele>278.0</ele>
        <time>2022-09-26T11:05:43.009+02:00[Europe/Madrid]</time>
      </trkpt>
      <trkpt lat="37.233156" lon="-5.210845">
        <ele>278.0</ele>
        <time>2022-09-26T11:05:44.009+02:00[Europe/Madrid]</time>
      </trkpt>
      <trkpt lat="37.233136" lon="-5.211193">
        <ele>279.0</ele>
        <time>2022-09-26T11:05:45.009+02:00[Europe/Madrid]</time>
      </trkpt>
      <trkpt lat="37.233113" lon="-5.211544">
        <ele>279.0</ele>
        <time>2022-09-26T11:05:46.009+02:00[Europe/Madrid]</time>
      </trkpt>
      <trkpt lat="37.233089" lon="-5.211898">
        <ele>279.0</ele>
        <time>2022-09-26T11:05:47.009+02:00[Europe/Madrid]</time>
      </trkpt>
      <trkpt lat="37.233065" lon="-5.212257">
        <ele>279.0</ele>
        <time>2022-09-26T11:05:48.009+02:00[Europe/Madrid]</time>
      </trkpt>
      <trkpt lat="37.233041" lon="-5.212617">
        <ele>279.0</ele>
        <time>2022-09-26T11:05:49.009+02:00[Europe/Madrid]</time>
      </trkpt>
      <trkpt lat="37.233018" lon="-5.212981">
        <ele>278.0</ele>
        <time>2022-09-26T11:05:50.009+02:00[Europe/Madrid]</time>
      </trkpt>
      <trkpt lat="37.232991" lon="-5.213347">
        <ele>278.0</ele>
        <time>2022-09-26T11:05:51.034+02:00[Europe/Madrid]</time>
      </trkpt>
      <trkpt lat="37.232965" lon="-5.213713">
        <ele>278.0</ele>
        <time>2022-09-26T11:05:52.034+02:00[Europe/Madrid]</time>
      </trkpt>
      <trkpt lat="37.232939" lon="-5.214082">
        <ele>277.0</ele>
        <time>2022-09-26T11:05:53.034+02:00[Europe/Madrid]</time>
      </trkpt>
      <trkpt lat="37.232917" lon="-5.214453">
        <ele>277.0</ele>
        <time>2022-09-26T11:05:54.034+02:00[Europe/Madrid]</time>
      </trkpt>
      <trkpt lat="37.232895" lon="-5.214828">
        <ele>277.0</ele>
        <time>2022-09-26T11:05:55.034+02:00[Europe/Madrid]</time>
      </trkpt>
      <trkpt lat="37.232869" lon="-5.215196">
        <ele>276.0</ele>
        <time>2022-09-26T11:05:56.034+02:00[Europe/Madrid]</time>
      </trkpt>
      <trkpt lat="37.232845" lon="-5.215568">
        <ele>276.0</ele>
        <time>2022-09-26T11:05:57.034+02:00[Europe/Madrid]</time>
      </trkpt>
      <trkpt lat="37.232817" lon="-5.215941">
        <ele>276.0</ele>
        <time>2022-09-26T11:05:58.034+02:00[Europe/Madrid]</time>
      </trkpt>
      <trkpt lat="37.232792" lon="-5.216309">
        <ele>275.0</ele>
        <time>2022-09-26T11:05:59.034+02:00[Europe/Madrid]</time>
      </trkpt>
      <trkpt lat="37.232755" lon="-5.216678">
        <ele>275.0</ele>
        <time>2022-09-26T11:06:00.034+02:00[Europe/Madrid]</time>
      </trkpt>
      <trkpt lat="37.232705" lon="-5.217048">
        <ele>274.0</ele>
        <time>2022-09-26T11:06:01.034+02:00[Europe/Madrid]</time>
      </trkpt>
      <trkpt lat="37.232649" lon="-5.217414">
        <ele>273.0</ele>
        <time>2022-09-26T11:06:02.034+02:00[Europe/Madrid]</time>
      </trkpt>
      <trkpt lat="37.232595" lon="-5.217775">
        <ele>272.0</ele>
        <time>2022-09-26T11:06:03.034+02:00[Europe/Madrid]</time>
      </trkpt>
      <trkpt lat="37.232539" lon="-5.21814">
        <ele>272.0</ele>
        <time>2022-09-26T11:06:04.034+02:00[Europe/Madrid]</time>
      </trkpt>
      <trkpt lat="37.232486" lon="-5.218498">
        <ele>271.0</ele>
        <time>2022-09-26T11:06:05.034+02:00[Europe/Madrid]</time>
      </trkpt>
      <trkpt lat="37.232429" lon="-5.218854">
        <ele>271.0</ele>
        <time>2022-09-26T11:06:06.034+02:00[Europe/Madrid]</time>
      </trkpt>
      <trkpt lat="37.232373" lon="-5.219204">
        <ele>270.0</ele>
        <time>2022-09-26T11:06:07.034+02:00[Europe/Madrid]</time>
      </trkpt>
      <trkpt lat="37.232316" lon="-5.219555">
        <ele>270.0</ele>
        <time>2022-09-26T11:06:08.034+02:00[Europe/Madrid]</time>
      </trkpt>
      <trkpt lat="37.232263" lon="-5.219908">
        <ele>269.0</ele>
        <time>2022-09-26T11:06:09.034+02:00[Europe/Madrid]</time>
      </trkpt>
      <trkpt lat="37.232209" lon="-5.220256">
        <ele>269.0</ele>
        <time>2022-09-26T11:06:10.034+02:00[Europe/Madrid]</time>
      </trkpt>
      <trkpt lat="37.23216" lon="-5.220608">
        <ele>268.0</ele>
        <time>2022-09-26T11:06:11.034+02:00[Europe/Madrid]</time>
      </trkpt>
      <trkpt lat="37.232133" lon="-5.220967">
        <ele>267.0</ele>
        <time>2022-09-26T11:06:12.034+02:00[Europe/Madrid]</time>
      </trkpt>
      <trkpt lat="37.23213" lon="-5.221325">
        <ele>266.0</ele>
        <time>2022-09-26T11:06:13.034+02:00[Europe/Madrid]</time>
      </trkpt>
      <trkpt lat="37.232148" lon="-5.221681">
        <ele>264.0</ele>
        <time>2022-09-26T11:06:14.034+02:00[Europe/Madrid]</time>
      </trkpt>
      <trkpt lat="37.232169" lon="-5.22204">
        <ele>264.0</ele>
        <time>2022-09-26T11:06:15.034+02:00[Europe/Madrid]</time>
      </trkpt>
      <trkpt lat="37.232188" lon="-5.222399">
        <ele>262.0</ele>
        <time>2022-09-26T11:06:16.034+02:00[Europe/Madrid]</time>
      </trkpt>
      <trkpt lat="37.232208" lon="-5.222761">
        <ele>262.0</ele>
        <time>2022-09-26T11:06:17.034+02:00[Europe/Madrid]</time>
      </trkpt>
      <trkpt lat="37.232232" lon="-5.223122">
        <ele>261.0</ele>
        <time>2022-09-26T11:06:18.034+02:00[Europe/Madrid]</time>
      </trkpt>
      <trkpt lat="37.232252" lon="-5.223483">
        <ele>260.0</ele>
        <time>2022-09-26T11:06:19.034+02:00[Europe/Madrid]</time>
      </trkpt>
      <trkpt lat="37.232273" lon="-5.223848">
        <ele>259.0</ele>
        <time>2022-09-26T11:06:20.034+02:00[Europe/Madrid]</time>
      </trkpt>
      <trkpt lat="37.232294" lon="-5.224211">
        <ele>258.0</ele>
        <time>2022-09-26T11:06:21.034+02:00[Europe/Madrid]</time>
      </trkpt>
      <trkpt lat="37.232312" lon="-5.224574">
        <ele>257.0</ele>
        <time>2022-09-26T11:06:22.034+02:00[Europe/Madrid]</time>
      </trkpt>
      <trkpt lat="37.23233" lon="-5.224935">
        <ele>256.0</ele>
        <time>2022-09-26T11:06:23.034+02:00[Europe/Madrid]</time>
      </trkpt>
      <trkpt lat="37.232348" lon="-5.225299">
        <ele>256.0</ele>
        <time>2022-09-26T11:06:24.034+02:00[Europe/Madrid]</time>
      </trkpt>
      <trkpt lat="37.232365" lon="-5.225662">
        <ele>255.0</ele>
        <time>2022-09-26T11:06:25.034+02:00[Europe/Madrid]</time>
      </trkpt>
      <trkpt lat="37.232378" lon="-5.226028">
        <ele>254.0</ele>
        <time>2022-09-26T11:06:26.034+02:00[Europe/Madrid]</time>
      </trkpt>
      <trkpt lat="37.232383" lon="-5.226394">
        <ele>254.0</ele>
        <time>2022-09-26T11:06:27.034+02:00[Europe/Madrid]</time>
      </trkpt>
      <trkpt lat="37.232376" lon="-5.226755">
        <ele>253.0</ele>
        <time>2022-09-26T11:06:28.034+02:00[Europe/Madrid]</time>
      </trkpt>
      <trkpt lat="37.232363" lon="-5.227118">
        <ele>252.0</ele>
        <time>2022-09-26T11:06:29.034+02:00[Europe/Madrid]</time>
      </trkpt>
      <trkpt lat="37.232349" lon="-5.227486">
        <ele>251.0</ele>
        <time>2022-09-26T11:06:30.034+02:00[Europe/Madrid]</time>
      </trkpt>
      <trkpt lat="37.232337" lon="-5.227853">
        <ele>251.0</ele>
        <time>2022-09-26T11:06:31.034+02:00[Europe/Madrid]</time>
      </trkpt>
      <trkpt lat="37.232323" lon="-5.228221">
        <ele>250.0</ele>
        <time>2022-09-26T11:06:32.034+02:00[Europe/Madrid]</time>
      </trkpt>
      <trkpt lat="37.232311" lon="-5.228589">
        <ele>250.0</ele>
        <time>2022-09-26T11:06:33.034+02:00[Europe/Madrid]</time>
      </trkpt>
      <trkpt lat="37.232295" lon="-5.228955">
        <ele>249.0</ele>
        <time>2022-09-26T11:06:34.034+02:00[Europe/Madrid]</time>
      </trkpt>
      <trkpt lat="37.232283" lon="-5.22932">
        <ele>249.0</ele>
        <time>2022-09-26T11:06:35.034+02:00[Europe/Madrid]</time>
      </trkpt>
      <trkpt lat="37.23227" lon="-5.229686">
        <ele>248.0</ele>
        <time>2022-09-26T11:06:36.034+02:00[Europe/Madrid]</time>
      </trkpt>
      <trkpt lat="37.232257" lon="-5.230053">
        <ele>247.0</ele>
        <time>2022-09-26T11:06:37.034+02:00[Europe/Madrid]</time>
      </trkpt>
      <trkpt lat="37.232245" lon="-5.230419">
        <ele>247.0</ele>
        <time>2022-09-26T11:06:38.034+02:00[Europe/Madrid]</time>
      </trkpt>
      <trkpt lat="37.232234" lon="-5.230783">
        <ele>246.0</ele>
        <time>2022-09-26T11:06:39.034+02:00[Europe/Madrid]</time>
      </trkpt>
      <trkpt lat="37.232216" lon="-5.231149">
        <ele>245.0</ele>
        <time>2022-09-26T11:06:40.034+02:00[Europe/Madrid]</time>
      </trkpt>
      <trkpt lat="37.2322" lon="-5.231515">
        <ele>245.0</ele>
        <time>2022-09-26T11:06:41.034+02:00[Europe/Madrid]</time>
      </trkpt>
      <trkpt lat="37.232185" lon="-5.231879">
        <ele>244.0</ele>
        <time>2022-09-26T11:06:42.034+02:00[Europe/Madrid]</time>
      </trkpt>
      <trkpt lat="37.232173" lon="-5.232249">
        <ele>243.0</ele>
        <time>2022-09-26T11:06:43.034+02:00[Europe/Madrid]</time>
      </trkpt>
      <trkpt lat="37.232161" lon="-5.232615">
        <ele>243.0</ele>
        <time>2022-09-26T11:06:44.034+02:00[Europe/Madrid]</time>
      </trkpt>
      <trkpt lat="37.23215" lon="-5.232984">
        <ele>242.0</ele>
        <time>2022-09-26T11:06:45.034+02:00[Europe/Madrid]</time>
      </trkpt>
      <trkpt lat="37.232138" lon="-5.233353">
        <ele>241.0</ele>
        <time>2022-09-26T11:06:46.034+02:00[Europe/Madrid]</time>
      </trkpt>
      <trkpt lat="37.232125" lon="-5.233721">
        <ele>241.0</ele>
        <time>2022-09-26T11:06:47.034+02:00[Europe/Madrid]</time>
      </trkpt>
      <trkpt lat="37.23211" lon="-5.234086">
        <ele>241.0</ele>
        <time>2022-09-26T11:06:48.034+02:00[Europe/Madrid]</time>
      </trkpt>
      <trkpt lat="37.232097" lon="-5.234451">
        <ele>241.0</ele>
        <time>2022-09-26T11:06:49.034+02:00[Europe/Madrid]</time>
      </trkpt>
      <trkpt lat="37.23208" lon="-5.234818">
        <ele>241.0</ele>
        <time>2022-09-26T11:06:50.034+02:00[Europe/Madrid]</time>
      </trkpt>
      <trkpt lat="37.232065" lon="-5.23518">
        <ele>241.0</ele>
        <time>2022-09-26T11:06:51.034+02:00[Europe/Madrid]</time>
      </trkpt>
      <trkpt lat="37.232051" lon="-5.235543">
        <ele>241.0</ele>
        <time>2022-09-26T11:06:52.034+02:00[Europe/Madrid]</time>
      </trkpt>
      <trkpt lat="37.232037" lon="-5.235905">
        <ele>241.0</ele>
        <time>2022-09-26T11:06:53.034+02:00[Europe/Madrid]</time>
      </trkpt>
      <trkpt lat="37.232021" lon="-5.236263">
        <ele>241.0</ele>
        <time>2022-09-26T11:06:54.034+02:00[Europe/Madrid]</time>
      </trkpt>
      <trkpt lat="37.232004" lon="-5.236623">
        <ele>241.0</ele>
        <time>2022-09-26T11:06:55.034+02:00[Europe/Madrid]</time>
      </trkpt>
      <trkpt lat="37.23198" lon="-5.23698">
        <ele>240.0</ele>
        <time>2022-09-26T11:06:56.034+02:00[Europe/Madrid]</time>
      </trkpt>
      <trkpt lat="37.231944" lon="-5.237334">
        <ele>239.0</ele>
        <time>2022-09-26T11:06:57.034+02:00[Europe/Madrid]</time>
      </trkpt>
      <trkpt lat="37.231898" lon="-5.23769">
        <ele>238.0</ele>
        <time>2022-09-26T11:06:58.034+02:00[Europe/Madrid]</time>
      </trkpt>
      <trkpt lat="37.231844" lon="-5.238043">
        <ele>238.0</ele>
        <time>2022-09-26T11:06:59.034+02:00[Europe/Madrid]</time>
      </trkpt>
      <trkpt lat="37.231785" lon="-5.238399">
        <ele>237.0</ele>
        <time>2022-09-26T11:07:00.034+02:00[Europe/Madrid]</time>
      </trkpt>
      <trkpt lat="37.231721" lon="-5.238753">
        <ele>235.0</ele>
        <time>2022-09-26T11:07:01.034+02:00[Europe/Madrid]</time>
      </trkpt>
      <trkpt lat="37.231658" lon="-5.239109">
        <ele>233.0</ele>
        <time>2022-09-26T11:07:02.034+02:00[Europe/Madrid]</time>
      </trkpt>
      <trkpt lat="37.231594" lon="-5.239469">
        <ele>232.0</ele>
        <time>2022-09-26T11:07:03.034+02:00[Europe/Madrid]</time>
      </trkpt>
      <trkpt lat="37.231532" lon="-5.239826">
        <ele>230.0</ele>
        <time>2022-09-26T11:07:04.034+02:00[Europe/Madrid]</time>
      </trkpt>
      <trkpt lat="37.231468" lon="-5.240187">
        <ele>229.0</ele>
        <time>2022-09-26T11:07:05.034+02:00[Europe/Madrid]</time>
      </trkpt>
      <trkpt lat="37.231406" lon="-5.240545">
        <ele>228.0</ele>
        <time>2022-09-26T11:07:06.034+02:00[Europe/Madrid]</time>
      </trkpt>
      <trkpt lat="37.23135" lon="-5.240906">
        <ele>226.0</ele>
        <time>2022-09-26T11:07:07.034+02:00[Europe/Madrid]</time>
      </trkpt>
      <trkpt lat="37.231307" lon="-5.241271">
        <ele>224.0</ele>
        <time>2022-09-26T11:07:08.034+02:00[Europe/Madrid]</time>
      </trkpt>
      <trkpt lat="37.231282" lon="-5.241639">
        <ele>223.0</ele>
        <time>2022-09-26T11:07:09.034+02:00[Europe/Madrid]</time>
      </trkpt>
      <trkpt lat="37.231273" lon="-5.24201">
        <ele>221.0</ele>
        <time>2022-09-26T11:07:10.034+02:00[Europe/Madrid]</time>
      </trkpt>
      <trkpt lat="37.231285" lon="-5.242379">
        <ele>220.0</ele>
        <time>2022-09-26T11:07:11.034+02:00[Europe/Madrid]</time>
      </trkpt>
      <trkpt lat="37.231307" lon="-5.242749">
        <ele>219.0</ele>
        <time>2022-09-26T11:07:12.034+02:00[Europe/Madrid]</time>
      </trkpt>
      <trkpt lat="37.231334" lon="-5.243113">
        <ele>218.0</ele>
        <time>2022-09-26T11:07:13.034+02:00[Europe/Madrid]</time>
      </trkpt>
      <trkpt lat="37.231364" lon="-5.243478">
        <ele>217.0</ele>
        <time>2022-09-26T11:07:14.034+02:00[Europe/Madrid]</time>
      </trkpt>
      <trkpt lat="37.231394" lon="-5.243843">
        <ele>217.0</ele>
        <time>2022-09-26T11:07:15.034+02:00[Europe/Madrid]</time>
      </trkpt>
      <trkpt lat="37.231423" lon="-5.244206">
        <ele>217.0</ele>
        <time>2022-09-26T11:07:16.034+02:00[Europe/Madrid]</time>
      </trkpt>
      <trkpt lat="37.23145" lon="-5.244567">
        <ele>217.0</ele>
        <time>2022-09-26T11:07:17.034+02:00[Europe/Madrid]</time>
      </trkpt>
      <trkpt lat="37.231478" lon="-5.244925">
        <ele>217.0</ele>
        <time>2022-09-26T11:07:18.034+02:00[Europe/Madrid]</time>
      </trkpt>
      <trkpt lat="37.231499" lon="-5.245285">
        <ele>216.0</ele>
        <time>2022-09-26T11:07:19.034+02:00[Europe/Madrid]</time>
      </trkpt>
      <trkpt lat="37.231519" lon="-5.245644">
        <ele>216.0</ele>
        <time>2022-09-26T11:07:20.034+02:00[Europe/Madrid]</time>
      </trkpt>
      <trkpt lat="37.231537" lon="-5.246004">
        <ele>217.0</ele>
        <time>2022-09-26T11:07:21.034+02:00[Europe/Madrid]</time>
      </trkpt>
      <trkpt lat="37.231548" lon="-5.246362">
        <ele>217.0</ele>
        <time>2022-09-26T11:07:22.034+02:00[Europe/Madrid]</time>
      </trkpt>
      <trkpt lat="37.231555" lon="-5.246719">
        <ele>217.0</ele>
        <time>2022-09-26T11:07:23.034+02:00[Europe/Madrid]</time>
      </trkpt>
      <trkpt lat="37.231554" lon="-5.247074">
        <ele>218.0</ele>
        <time>2022-09-26T11:07:24.034+02:00[Europe/Madrid]</time>
      </trkpt>
      <trkpt lat="37.231547" lon="-5.247424">
        <ele>219.0</ele>
        <time>2022-09-26T11:07:25.034+02:00[Europe/Madrid]</time>
      </trkpt>
      <trkpt lat="37.23154" lon="-5.247776">
        <ele>220.0</ele>
        <time>2022-09-26T11:07:26.034+02:00[Europe/Madrid]</time>
      </trkpt>
      <trkpt lat="37.231531" lon="-5.248126">
        <ele>221.0</ele>
        <time>2022-09-26T11:07:27.034+02:00[Europe/Madrid]</time>
      </trkpt>
      <trkpt lat="37.231517" lon="-5.248481">
        <ele>222.0</ele>
        <time>2022-09-26T11:07:28.034+02:00[Europe/Madrid]</time>
      </trkpt>
      <trkpt lat="37.231501" lon="-5.248845">
        <ele>223.0</ele>
        <time>2022-09-26T11:07:29.034+02:00[Europe/Madrid]</time>
      </trkpt>
      <trkpt lat="37.231486" lon="-5.249214">
        <ele>224.0</ele>
        <time>2022-09-26T11:07:30.034+02:00[Europe/Madrid]</time>
      </trkpt>
      <trkpt lat="37.231475" lon="-5.249586">
        <ele>225.0</ele>
        <time>2022-09-26T11:07:31.034+02:00[Europe/Madrid]</time>
      </trkpt>
      <trkpt lat="37.231466" lon="-5.249956">
        <ele>226.0</ele>
        <time>2022-09-26T11:07:32.034+02:00[Europe/Madrid]</time>
      </trkpt>
      <trkpt lat="37.231456" lon="-5.250326">
        <ele>227.0</ele>
        <time>2022-09-26T11:07:33.034+02:00[Europe/Madrid]</time>
      </trkpt>
      <trkpt lat="37.231449" lon="-5.250693">
        <ele>228.0</ele>
        <time>2022-09-26T11:07:34.034+02:00[Europe/Madrid]</time>
      </trkpt>
      <trkpt lat="37.231439" lon="-5.251064">
        <ele>229.0</ele>
        <time>2022-09-26T11:07:35.034+02:00[Europe/Madrid]</time>
      </trkpt>
      <trkpt lat="37.231433" lon="-5.251429">
        <ele>230.0</ele>
        <time>2022-09-26T11:07:36.034+02:00[Europe/Madrid]</time>
      </trkpt>
      <trkpt lat="37.231422" lon="-5.251794">
        <ele>231.0</ele>
        <time>2022-09-26T11:07:37.034+02:00[Europe/Madrid]</time>
      </trkpt>
      <trkpt lat="37.231406" lon="-5.252154">
        <ele>232.0</ele>
        <time>2022-09-26T11:07:38.034+02:00[Europe/Madrid]</time>
      </trkpt>
      <trkpt lat="37.231383" lon="-5.252513">
        <ele>232.0</ele>
        <time>2022-09-26T11:07:39.034+02:00[Europe/Madrid]</time>
      </trkpt>
      <trkpt lat="37.231351" lon="-5.252868">
        <ele>233.0</ele>
        <time>2022-09-26T11:07:40.034+02:00[Europe/Madrid]</time>
      </trkpt>
      <trkpt lat="37.231315" lon="-5.253222">
        <ele>233.0</ele>
        <time>2022-09-26T11:07:41.034+02:00[Europe/Madrid]</time>
      </trkpt>
      <trkpt lat="37.231278" lon="-5.253575">
        <ele>233.0</ele>
        <time>2022-09-26T11:07:42.034+02:00[Europe/Madrid]</time>
      </trkpt>
      <trkpt lat="37.231235" lon="-5.253929">
        <ele>234.0</ele>
        <time>2022-09-26T11:07:43.034+02:00[Europe/Madrid]</time>
      </trkpt>
      <trkpt lat="37.231187" lon="-5.254282">
        <ele>234.0</ele>
        <time>2022-09-26T11:07:44.034+02:00[Europe/Madrid]</time>
      </trkpt>
      <trkpt lat="37.231138" lon="-5.254638">
        <ele>235.0</ele>
        <time>2022-09-26T11:07:45.034+02:00[Europe/Madrid]</time>
      </trkpt>
      <trkpt lat="37.231088" lon="-5.254994">
        <ele>235.0</ele>
        <time>2022-09-26T11:07:46.034+02:00[Europe/Madrid]</time>
      </trkpt>
      <trkpt lat="37.231035" lon="-5.255353">
        <ele>236.0</ele>
        <time>2022-09-26T11:07:47.034+02:00[Europe/Madrid]</time>
      </trkpt>
      <trkpt lat="37.23098" lon="-5.255707">
        <ele>236.0</ele>
        <time>2022-09-26T11:07:48.034+02:00[Europe/Madrid]</time>
      </trkpt>
      <trkpt lat="37.230924" lon="-5.25606">
        <ele>236.0</ele>
        <time>2022-09-26T11:07:49.034+02:00[Europe/Madrid]</time>
      </trkpt>
      <trkpt lat="37.230859" lon="-5.256407">
        <ele>237.0</ele>
        <time>2022-09-26T11:07:50.034+02:00[Europe/Madrid]</time>
      </trkpt>
      <trkpt lat="37.230783" lon="-5.256757">
        <ele>237.0</ele>
        <time>2022-09-26T11:07:51.034+02:00[Europe/Madrid]</time>
      </trkpt>
      <trkpt lat="37.230691" lon="-5.257101">
        <ele>237.0</ele>
        <time>2022-09-26T11:07:52.034+02:00[Europe/Madrid]</time>
      </trkpt>
      <trkpt lat="37.230591" lon="-5.257441">
        <ele>238.0</ele>
        <time>2022-09-26T11:07:53.034+02:00[Europe/Madrid]</time>
      </trkpt>
      <trkpt lat="37.230494" lon="-5.257786">
        <ele>237.0</ele>
        <time>2022-09-26T11:07:54.034+02:00[Europe/Madrid]</time>
      </trkpt>
      <trkpt lat="37.230399" lon="-5.258132">
        <ele>237.0</ele>
        <time>2022-09-26T11:07:55.034+02:00[Europe/Madrid]</time>
      </trkpt>
      <trkpt lat="37.230295" lon="-5.25847">
        <ele>237.0</ele>
        <time>2022-09-26T11:07:56.034+02:00[Europe/Madrid]</time>
      </trkpt>
      <trkpt lat="37.230191" lon="-5.258816">
        <ele>237.0</ele>
        <time>2022-09-26T11:07:57.034+02:00[Europe/Madrid]</time>
      </trkpt>
      <trkpt lat="37.230074" lon="-5.259152">
        <ele>237.0</ele>
        <time>2022-09-26T11:07:58.034+02:00[Europe/Madrid]</time>
      </trkpt>
      <trkpt lat="37.229959" lon="-5.259491">
        <ele>236.0</ele>
        <time>2022-09-26T11:07:59.034+02:00[Europe/Madrid]</time>
      </trkpt>
      <trkpt lat="37.229841" lon="-5.259828">
        <ele>235.0</ele>
        <time>2022-09-26T11:08:00.034+02:00[Europe/Madrid]</time>
      </trkpt>
      <trkpt lat="37.229731" lon="-5.260168">
        <ele>235.0</ele>
        <time>2022-09-26T11:08:01.034+02:00[Europe/Madrid]</time>
      </trkpt>
      <trkpt lat="37.229627" lon="-5.26051">
        <ele>235.0</ele>
        <time>2022-09-26T11:08:02.034+02:00[Europe/Madrid]</time>
      </trkpt>
      <trkpt lat="37.229529" lon="-5.260857">
        <ele>234.0</ele>
        <time>2022-09-26T11:08:03.034+02:00[Europe/Madrid]</time>
      </trkpt>
      <trkpt lat="37.229439" lon="-5.261208">
        <ele>234.0</ele>
        <time>2022-09-26T11:08:04.034+02:00[Europe/Madrid]</time>
      </trkpt>
      <trkpt lat="37.229359" lon="-5.261563">
        <ele>233.0</ele>
        <time>2022-09-26T11:08:05.034+02:00[Europe/Madrid]</time>
      </trkpt>
      <trkpt lat="37.229295" lon="-5.261924">
        <ele>233.0</ele>
        <time>2022-09-26T11:08:06.034+02:00[Europe/Madrid]</time>
      </trkpt>
      <trkpt lat="37.229242" lon="-5.262287">
        <ele>234.0</ele>
        <time>2022-09-26T11:08:07.034+02:00[Europe/Madrid]</time>
      </trkpt>
      <trkpt lat="37.22919" lon="-5.26265">
        <ele>234.0</ele>
        <time>2022-09-26T11:08:08.034+02:00[Europe/Madrid]</time>
      </trkpt>
      <trkpt lat="37.229134" lon="-5.26301">
        <ele>235.0</ele>
        <time>2022-09-26T11:08:09.034+02:00[Europe/Madrid]</time>
      </trkpt>
      <trkpt lat="37.229078" lon="-5.263369">
        <ele>235.0</ele>
        <time>2022-09-26T11:08:10.034+02:00[Europe/Madrid]</time>
      </trkpt>
      <trkpt lat="37.229021" lon="-5.263726">
        <ele>236.0</ele>
        <time>2022-09-26T11:08:11.034+02:00[Europe/Madrid]</time>
      </trkpt>
      <trkpt lat="37.228963" lon="-5.264084">
        <ele>236.0</ele>
        <time>2022-09-26T11:08:12.034+02:00[Europe/Madrid]</time>
      </trkpt>
      <trkpt lat="37.228906" lon="-5.26444">
        <ele>237.0</ele>
        <time>2022-09-26T11:08:13.034+02:00[Europe/Madrid]</time>
      </trkpt>
      <trkpt lat="37.228847" lon="-5.264793">
        <ele>237.0</ele>
        <time>2022-09-26T11:08:14.034+02:00[Europe/Madrid]</time>
      </trkpt>
      <trkpt lat="37.22879" lon="-5.265145">
        <ele>237.0</ele>
        <time>2022-09-26T11:08:15.034+02:00[Europe/Madrid]</time>
      </trkpt>
      <trkpt lat="37.228731" lon="-5.265502">
        <ele>238.0</ele>
        <time>2022-09-26T11:08:16.034+02:00[Europe/Madrid]</time>
      </trkpt>
      <trkpt lat="37.228673" lon="-5.265856">
        <ele>239.0</ele>
        <time>2022-09-26T11:08:17.034+02:00[Europe/Madrid]</time>
      </trkpt>
      <trkpt lat="37.228617" lon="-5.266209">
        <ele>240.0</ele>
        <time>2022-09-26T11:08:18.034+02:00[Europe/Madrid]</time>
      </trkpt>
      <trkpt lat="37.228559" lon="-5.266563">
        <ele>241.0</ele>
        <time>2022-09-26T11:08:19.034+02:00[Europe/Madrid]</time>
      </trkpt>
      <trkpt lat="37.228501" lon="-5.266913">
        <ele>241.0</ele>
        <time>2022-09-26T11:08:20.034+02:00[Europe/Madrid]</time>
      </trkpt>
      <trkpt lat="37.228442" lon="-5.267262">
        <ele>242.0</ele>
        <time>2022-09-26T11:08:21.034+02:00[Europe/Madrid]</time>
      </trkpt>
      <trkpt lat="37.228387" lon="-5.267608">
        <ele>242.0</ele>
        <time>2022-09-26T11:08:22.034+02:00[Europe/Madrid]</time>
      </trkpt>
      <trkpt lat="37.228329" lon="-5.267956">
        <ele>241.0</ele>
        <time>2022-09-26T11:08:23.034+02:00[Europe/Madrid]</time>
      </trkpt>
      <trkpt lat="37.228271" lon="-5.268304">
        <ele>241.0</ele>
        <time>2022-09-26T11:08:24.034+02:00[Europe/Madrid]</time>
      </trkpt>
      <trkpt lat="37.228212" lon="-5.268651">
        <ele>241.0</ele>
        <time>2022-09-26T11:08:25.034+02:00[Europe/Madrid]</time>
      </trkpt>
      <trkpt lat="37.228157" lon="-5.269002">
        <ele>240.0</ele>
        <time>2022-09-26T11:08:26.034+02:00[Europe/Madrid]</time>
      </trkpt>
      <trkpt lat="37.228103" lon="-5.269356">
        <ele>240.0</ele>
        <time>2022-09-26T11:08:27.034+02:00[Europe/Madrid]</time>
      </trkpt>
      <trkpt lat="37.22805" lon="-5.269708">
        <ele>240.0</ele>
        <time>2022-09-26T11:08:28.034+02:00[Europe/Madrid]</time>
      </trkpt>
      <trkpt lat="37.227997" lon="-5.270063">
        <ele>240.0</ele>
        <time>2022-09-26T11:08:29.034+02:00[Europe/Madrid]</time>
      </trkpt>
      <trkpt lat="37.227942" lon="-5.270413">
        <ele>239.0</ele>
        <time>2022-09-26T11:08:30.034+02:00[Europe/Madrid]</time>
      </trkpt>
      <trkpt lat="37.227884" lon="-5.270765">
        <ele>239.0</ele>
        <time>2022-09-26T11:08:31.034+02:00[Europe/Madrid]</time>
      </trkpt>
      <trkpt lat="37.227827" lon="-5.271117">
        <ele>238.0</ele>
        <time>2022-09-26T11:08:32.034+02:00[Europe/Madrid]</time>
      </trkpt>
      <trkpt lat="37.227769" lon="-5.271472">
        <ele>238.0</ele>
        <time>2022-09-26T11:08:33.034+02:00[Europe/Madrid]</time>
      </trkpt>
      <trkpt lat="37.227714" lon="-5.271827">
        <ele>237.0</ele>
        <time>2022-09-26T11:08:34.034+02:00[Europe/Madrid]</time>
      </trkpt>
      <trkpt lat="37.227659" lon="-5.272187">
        <ele>237.0</ele>
        <time>2022-09-26T11:08:35.034+02:00[Europe/Madrid]</time>
      </trkpt>
      <trkpt lat="37.2276" lon="-5.272541">
        <ele>236.0</ele>
        <time>2022-09-26T11:08:36.034+02:00[Europe/Madrid]</time>
      </trkpt>
      <trkpt lat="37.227541" lon="-5.272897">
        <ele>236.0</ele>
        <time>2022-09-26T11:08:37.034+02:00[Europe/Madrid]</time>
      </trkpt>
      <trkpt lat="37.227483" lon="-5.273252">
        <ele>236.0</ele>
        <time>2022-09-26T11:08:38.034+02:00[Europe/Madrid]</time>
      </trkpt>
      <trkpt lat="37.227426" lon="-5.273607">
        <ele>235.0</ele>
        <time>2022-09-26T11:08:39.034+02:00[Europe/Madrid]</time>
      </trkpt>
      <trkpt lat="37.227367" lon="-5.273963">
        <ele>235.0</ele>
        <time>2022-09-26T11:08:40.034+02:00[Europe/Madrid]</time>
      </trkpt>
      <trkpt lat="37.22731" lon="-5.274315">
        <ele>235.0</ele>
        <time>2022-09-26T11:08:41.034+02:00[Europe/Madrid]</time>
      </trkpt>
      <trkpt lat="37.227256" lon="-5.274668">
        <ele>234.0</ele>
        <time>2022-09-26T11:08:42.034+02:00[Europe/Madrid]</time>
      </trkpt>
      <trkpt lat="37.227203" lon="-5.275022">
        <ele>234.0</ele>
        <time>2022-09-26T11:08:43.034+02:00[Europe/Madrid]</time>
      </trkpt>
      <trkpt lat="37.22715" lon="-5.275373">
        <ele>233.0</ele>
        <time>2022-09-26T11:08:44.034+02:00[Europe/Madrid]</time>
      </trkpt>
      <trkpt lat="37.227094" lon="-5.275722">
        <ele>233.0</ele>
        <time>2022-09-26T11:08:45.034+02:00[Europe/Madrid]</time>
      </trkpt>
      <trkpt lat="37.227036" lon="-5.276074">
        <ele>233.0</ele>
        <time>2022-09-26T11:08:46.034+02:00[Europe/Madrid]</time>
      </trkpt>
      <trkpt lat="37.226978" lon="-5.276422">
        <ele>232.0</ele>
        <time>2022-09-26T11:08:47.034+02:00[Europe/Madrid]</time>
      </trkpt>
      <trkpt lat="37.226921" lon="-5.276773">
        <ele>232.0</ele>
        <time>2022-09-26T11:08:48.034+02:00[Europe/Madrid]</time>
      </trkpt>
      <trkpt lat="37.226863" lon="-5.277123">
        <ele>232.0</ele>
        <time>2022-09-26T11:08:49.034+02:00[Europe/Madrid]</time>
      </trkpt>
      <trkpt lat="37.226806" lon="-5.27747">
        <ele>232.0</ele>
        <time>2022-09-26T11:08:50.034+02:00[Europe/Madrid]</time>
      </trkpt>
      <trkpt lat="37.226752" lon="-5.277818">
        <ele>232.0</ele>
        <time>2022-09-26T11:08:51.034+02:00[Europe/Madrid]</time>
      </trkpt>
      <trkpt lat="37.226696" lon="-5.278168">
        <ele>231.0</ele>
        <time>2022-09-26T11:08:52.034+02:00[Europe/Madrid]</time>
      </trkpt>
      <trkpt lat="37.226635" lon="-5.278522">
        <ele>230.0</ele>
        <time>2022-09-26T11:08:53.034+02:00[Europe/Madrid]</time>
      </trkpt>
      <trkpt lat="37.22658" lon="-5.278879">
        <ele>229.0</ele>
        <time>2022-09-26T11:08:54.034+02:00[Europe/Madrid]</time>
      </trkpt>
      <trkpt lat="37.226526" lon="-5.279235">
        <ele>229.0</ele>
        <time>2022-09-26T11:08:55.034+02:00[Europe/Madrid]</time>
      </trkpt>
      <trkpt lat="37.226469" lon="-5.279587">
        <ele>229.0</ele>
        <time>2022-09-26T11:08:56.034+02:00[Europe/Madrid]</time>
      </trkpt>
      <trkpt lat="37.226408" lon="-5.27994">
        <ele>228.0</ele>
        <time>2022-09-26T11:08:57.034+02:00[Europe/Madrid]</time>
      </trkpt>
      <trkpt lat="37.22635" lon="-5.280293">
        <ele>227.0</ele>
        <time>2022-09-26T11:08:58.034+02:00[Europe/Madrid]</time>
      </trkpt>
      <trkpt lat="37.226301" lon="-5.280651">
        <ele>226.0</ele>
        <time>2022-09-26T11:08:59.034+02:00[Europe/Madrid]</time>
      </trkpt>
      <trkpt lat="37.226263" lon="-5.281008">
        <ele>226.0</ele>
        <time>2022-09-26T11:09:00.034+02:00[Europe/Madrid]</time>
      </trkpt>
      <trkpt lat="37.226246" lon="-5.281367">
        <ele>225.0</ele>
        <time>2022-09-26T11:09:01.034+02:00[Europe/Madrid]</time>
      </trkpt>
      <trkpt lat="37.226245" lon="-5.281724">
        <ele>225.0</ele>
        <time>2022-09-26T11:09:02.034+02:00[Europe/Madrid]</time>
      </trkpt>
      <trkpt lat="37.226257" lon="-5.28208">
        <ele>225.0</ele>
        <time>2022-09-26T11:09:03.034+02:00[Europe/Madrid]</time>
      </trkpt>
      <trkpt lat="37.226283" lon="-5.282435">
        <ele>225.0</ele>
        <time>2022-09-26T11:09:04.034+02:00[Europe/Madrid]</time>
      </trkpt>
      <trkpt lat="37.226308" lon="-5.282782">
        <ele>224.0</ele>
        <time>2022-09-26T11:09:05.034+02:00[Europe/Madrid]</time>
      </trkpt>
      <trkpt lat="37.226336" lon="-5.283129">
        <ele>224.0</ele>
        <time>2022-09-26T11:09:06.034+02:00[Europe/Madrid]</time>
      </trkpt>
      <trkpt lat="37.226361" lon="-5.283468">
        <ele>224.0</ele>
        <time>2022-09-26T11:09:07.034+02:00[Europe/Madrid]</time>
      </trkpt>
      <trkpt lat="37.226381" lon="-5.283812">
        <ele>224.0</ele>
        <time>2022-09-26T11:09:08.034+02:00[Europe/Madrid]</time>
      </trkpt>
      <trkpt lat="37.226397" lon="-5.284153">
        <ele>224.0</ele>
        <time>2022-09-26T11:09:09.034+02:00[Europe/Madrid]</time>
      </trkpt>
      <trkpt lat="37.226403" lon="-5.284494">
        <ele>223.0</ele>
        <time>2022-09-26T11:09:10.034+02:00[Europe/Madrid]</time>
      </trkpt>
      <trkpt lat="37.2264" lon="-5.284831">
        <ele>223.0</ele>
        <time>2022-09-26T11:09:11.034+02:00[Europe/Madrid]</time>
      </trkpt>
      <trkpt lat="37.22639" lon="-5.285171">
        <ele>223.0</ele>
        <time>2022-09-26T11:09:12.034+02:00[Europe/Madrid]</time>
      </trkpt>
      <trkpt lat="37.226382" lon="-5.285511">
        <ele>223.0</ele>
        <time>2022-09-26T11:09:13.034+02:00[Europe/Madrid]</time>
      </trkpt>
      <trkpt lat="37.226378" lon="-5.285853">
        <ele>223.0</ele>
        <time>2022-09-26T11:09:14.034+02:00[Europe/Madrid]</time>
      </trkpt>
      <trkpt lat="37.226372" lon="-5.28619">
        <ele>223.0</ele>
        <time>2022-09-26T11:09:15.034+02:00[Europe/Madrid]</time>
      </trkpt>
      <trkpt lat="37.226358" lon="-5.286524">
        <ele>223.0</ele>
        <time>2022-09-26T11:09:16.034+02:00[Europe/Madrid]</time>
      </trkpt>
      <trkpt lat="37.226333" lon="-5.286855">
        <ele>222.0</ele>
        <time>2022-09-26T11:09:17.034+02:00[Europe/Madrid]</time>
      </trkpt>
      <trkpt lat="37.226297" lon="-5.287181">
        <ele>222.0</ele>
        <time>2022-09-26T11:09:18.034+02:00[Europe/Madrid]</time>
      </trkpt>
      <trkpt lat="37.226249" lon="-5.287506">
        <ele>221.0</ele>
        <time>2022-09-26T11:09:19.034+02:00[Europe/Madrid]</time>
      </trkpt>
      <trkpt lat="37.226188" lon="-5.287833">
        <ele>220.0</ele>
        <time>2022-09-26T11:09:20.034+02:00[Europe/Madrid]</time>
      </trkpt>
      <trkpt lat="37.226117" lon="-5.288156">
        <ele>219.0</ele>
        <time>2022-09-26T11:09:21.034+02:00[Europe/Madrid]</time>
      </trkpt>
      <trkpt lat="37.226038" lon="-5.288483">
        <ele>218.0</ele>
        <time>2022-09-26T11:09:22.034+02:00[Europe/Madrid]</time>
      </trkpt>
      <trkpt lat="37.225953" lon="-5.288807">
        <ele>217.0</ele>
        <time>2022-09-26T11:09:23.034+02:00[Europe/Madrid]</time>
      </trkpt>
      <trkpt lat="37.225867" lon="-5.289134">
        <ele>216.0</ele>
        <time>2022-09-26T11:09:24.034+02:00[Europe/Madrid]</time>
      </trkpt>
      <trkpt lat="37.225783" lon="-5.289462">
        <ele>215.0</ele>
        <time>2022-09-26T11:09:25.034+02:00[Europe/Madrid]</time>
      </trkpt>
      <trkpt lat="37.225695" lon="-5.289794">
        <ele>215.0</ele>
        <time>2022-09-26T11:09:26.034+02:00[Europe/Madrid]</time>
      </trkpt>
      <trkpt lat="37.225607" lon="-5.290122">
        <ele>214.0</ele>
        <time>2022-09-26T11:09:27.034+02:00[Europe/Madrid]</time>
      </trkpt>
      <trkpt lat="37.225519" lon="-5.290448">
        <ele>214.0</ele>
        <time>2022-09-26T11:09:28.034+02:00[Europe/Madrid]</time>
      </trkpt>
      <trkpt lat="37.225429" lon="-5.290773">
        <ele>213.0</ele>
        <time>2022-09-26T11:09:29.034+02:00[Europe/Madrid]</time>
      </trkpt>
      <trkpt lat="37.225343" lon="-5.291099">
        <ele>213.0</ele>
        <time>2022-09-26T11:09:30.034+02:00[Europe/Madrid]</time>
      </trkpt>
      <trkpt lat="37.225268" lon="-5.291419">
        <ele>212.0</ele>
        <time>2022-09-26T11:09:31.034+02:00[Europe/Madrid]</time>
      </trkpt>
      <trkpt lat="37.225206" lon="-5.291748">
        <ele>212.0</ele>
        <time>2022-09-26T11:09:32.034+02:00[Europe/Madrid]</time>
      </trkpt>
      <trkpt lat="37.22516" lon="-5.292077">
        <ele>211.0</ele>
        <time>2022-09-26T11:09:33.034+02:00[Europe/Madrid]</time>
      </trkpt>
      <trkpt lat="37.225136" lon="-5.29241">
        <ele>211.0</ele>
        <time>2022-09-26T11:09:34.034+02:00[Europe/Madrid]</time>
      </trkpt>
      <trkpt lat="37.22513" lon="-5.292748">
        <ele>210.0</ele>
        <time>2022-09-26T11:09:35.034+02:00[Europe/Madrid]</time>
      </trkpt>
      <trkpt lat="37.225143" lon="-5.293084">
        <ele>210.0</ele>
        <time>2022-09-26T11:09:36.034+02:00[Europe/Madrid]</time>
      </trkpt>
      <trkpt lat="37.225165" lon="-5.293421">
        <ele>209.0</ele>
        <time>2022-09-26T11:09:37.034+02:00[Europe/Madrid]</time>
      </trkpt>
      <trkpt lat="37.225205" lon="-5.293751">
        <ele>208.0</ele>
        <time>2022-09-26T11:09:38.034+02:00[Europe/Madrid]</time>
      </trkpt>
      <trkpt lat="37.225262" lon="-5.29408">
        <ele>207.0</ele>
        <time>2022-09-26T11:09:39.034+02:00[Europe/Madrid]</time>
      </trkpt>
      <trkpt lat="37.225339" lon="-5.294402">
        <ele>206.0</ele>
        <time>2022-09-26T11:09:40.034+02:00[Europe/Madrid]</time>
      </trkpt>
      <trkpt lat="37.225432" lon="-5.294719">
        <ele>205.0</ele>
        <time>2022-09-26T11:09:41.034+02:00[Europe/Madrid]</time>
      </trkpt>
      <trkpt lat="37.225536" lon="-5.295034">
        <ele>205.0</ele>
        <time>2022-09-26T11:09:42.034+02:00[Europe/Madrid]</time>
      </trkpt>
      <trkpt lat="37.22565" lon="-5.295338">
        <ele>204.0</ele>
        <time>2022-09-26T11:09:43.034+02:00[Europe/Madrid]</time>
      </trkpt>
      <trkpt lat="37.22577" lon="-5.295645">
        <ele>203.0</ele>
        <time>2022-09-26T11:09:44.034+02:00[Europe/Madrid]</time>
      </trkpt>
      <trkpt lat="37.225889" lon="-5.295947">
        <ele>203.0</ele>
        <time>2022-09-26T11:09:45.034+02:00[Europe/Madrid]</time>
      </trkpt>
      <trkpt lat="37.226014" lon="-5.296248">
        <ele>202.0</ele>
        <time>2022-09-26T11:09:46.034+02:00[Europe/Madrid]</time>
      </trkpt>
      <trkpt lat="37.226153" lon="-5.296536">
        <ele>202.0</ele>
        <time>2022-09-26T11:09:47.034+02:00[Europe/Madrid]</time>
      </trkpt>
      <trkpt lat="37.226311" lon="-5.296812">
        <ele>201.0</ele>
        <time>2022-09-26T11:09:48.034+02:00[Europe/Madrid]</time>
      </trkpt>
      <trkpt lat="37.226483" lon="-5.297078">
        <ele>201.0</ele>
        <time>2022-09-26T11:09:49.034+02:00[Europe/Madrid]</time>
      </trkpt>
      <trkpt lat="37.226669" lon="-5.297333">
        <ele>200.0</ele>
        <time>2022-09-26T11:09:50.034+02:00[Europe/Madrid]</time>
      </trkpt>
      <trkpt lat="37.226866" lon="-5.29757">
        <ele>200.0</ele>
        <time>2022-09-26T11:09:51.034+02:00[Europe/Madrid]</time>
      </trkpt>
      <trkpt lat="37.227077" lon="-5.29779">
        <ele>200.0</ele>
        <time>2022-09-26T11:09:52.034+02:00[Europe/Madrid]</time>
      </trkpt>
      <trkpt lat="37.227298" lon="-5.297996">
        <ele>200.0</ele>
        <time>2022-09-26T11:09:53.034+02:00[Europe/Madrid]</time>
      </trkpt>
      <trkpt lat="37.227528" lon="-5.298187">
        <ele>200.0</ele>
        <time>2022-09-26T11:09:54.034+02:00[Europe/Madrid]</time>
      </trkpt>
      <trkpt lat="37.227769" lon="-5.29836">
        <ele>200.0</ele>
        <time>2022-09-26T11:09:55.034+02:00[Europe/Madrid]</time>
      </trkpt>
      <trkpt lat="37.228016" lon="-5.298521">
        <ele>200.0</ele>
        <time>2022-09-26T11:09:56.034+02:00[Europe/Madrid]</time>
      </trkpt>
      <trkpt lat="37.228269" lon="-5.298669">
        <ele>200.0</ele>
        <time>2022-09-26T11:09:57.034+02:00[Europe/Madrid]</time>
      </trkpt>
      <trkpt lat="37.228523" lon="-5.298814">
        <ele>200.0</ele>
        <time>2022-09-26T11:09:58.034+02:00[Europe/Madrid]</time>
      </trkpt>
      <trkpt lat="37.228777" lon="-5.298957">
        <ele>200.0</ele>
        <time>2022-09-26T11:09:59.034+02:00[Europe/Madrid]</time>
      </trkpt>
      <trkpt lat="37.22903" lon="-5.2991">
        <ele>201.0</ele>
        <time>2022-09-26T11:10:00.034+02:00[Europe/Madrid]</time>
      </trkpt>
      <trkpt lat="37.22928" lon="-5.299246">
        <ele>201.0</ele>
        <time>2022-09-26T11:10:01.034+02:00[Europe/Madrid]</time>
      </trkpt>
      <trkpt lat="37.229526" lon="-5.299392">
        <ele>202.0</ele>
        <time>2022-09-26T11:10:02.034+02:00[Europe/Madrid]</time>
      </trkpt>
      <trkpt lat="37.229768" lon="-5.299539">
        <ele>202.0</ele>
        <time>2022-09-26T11:10:03.034+02:00[Europe/Madrid]</time>
      </trkpt>
      <trkpt lat="37.230004" lon="-5.299692">
        <ele>203.0</ele>
        <time>2022-09-26T11:10:04.034+02:00[Europe/Madrid]</time>
      </trkpt>
      <trkpt lat="37.230235" lon="-5.29986">
        <ele>203.0</ele>
        <time>2022-09-26T11:10:05.034+02:00[Europe/Madrid]</time>
      </trkpt>
      <trkpt lat="37.230456" lon="-5.300045">
        <ele>204.0</ele>
        <time>2022-09-26T11:10:06.034+02:00[Europe/Madrid]</time>
      </trkpt>
      <trkpt lat="37.230668" lon="-5.300245">
        <ele>204.0</ele>
        <time>2022-09-26T11:10:07.034+02:00[Europe/Madrid]</time>
      </trkpt>
      <trkpt lat="37.230868" lon="-5.300455">
        <ele>204.0</ele>
        <time>2022-09-26T11:10:08.034+02:00[Europe/Madrid]</time>
      </trkpt>
      <trkpt lat="37.231063" lon="-5.30068">
        <ele>204.0</ele>
        <time>2022-09-26T11:10:09.034+02:00[Europe/Madrid]</time>
      </trkpt>
      <trkpt lat="37.231248" lon="-5.300918">
        <ele>205.0</ele>
        <time>2022-09-26T11:10:10.034+02:00[Europe/Madrid]</time>
      </trkpt>
      <trkpt lat="37.231418" lon="-5.301168">
        <ele>206.0</ele>
        <time>2022-09-26T11:10:11.034+02:00[Europe/Madrid]</time>
      </trkpt>
      <trkpt lat="37.231576" lon="-5.301435">
        <ele>206.0</ele>
        <time>2022-09-26T11:10:12.034+02:00[Europe/Madrid]</time>
      </trkpt>
      <trkpt lat="37.231721" lon="-5.301708">
        <ele>206.0</ele>
        <time>2022-09-26T11:10:13.034+02:00[Europe/Madrid]</time>
      </trkpt>
      <trkpt lat="37.231855" lon="-5.301996">
        <ele>207.0</ele>
        <time>2022-09-26T11:10:14.034+02:00[Europe/Madrid]</time>
      </trkpt>
      <trkpt lat="37.231978" lon="-5.302287">
        <ele>207.0</ele>
        <time>2022-09-26T11:10:15.034+02:00[Europe/Madrid]</time>
      </trkpt>
      <trkpt lat="37.232094" lon="-5.302589">
        <ele>208.0</ele>
        <time>2022-09-26T11:10:16.034+02:00[Europe/Madrid]</time>
      </trkpt>
      <trkpt lat="37.232193" lon="-5.302893">
        <ele>208.0</ele>
        <time>2022-09-26T11:10:17.034+02:00[Europe/Madrid]</time>
      </trkpt>
      <trkpt lat="37.23229" lon="-5.303209">
        <ele>208.0</ele>
        <time>2022-09-26T11:10:18.034+02:00[Europe/Madrid]</time>
      </trkpt>
      <trkpt lat="37.232385" lon="-5.303523">
        <ele>209.0</ele>
        <time>2022-09-26T11:10:19.034+02:00[Europe/Madrid]</time>
      </trkpt>
      <trkpt lat="37.232484" lon="-5.303837">
        <ele>209.0</ele>
        <time>2022-09-26T11:10:20.034+02:00[Europe/Madrid]</time>
      </trkpt>
      <trkpt lat="37.232581" lon="-5.304154">
        <ele>210.0</ele>
        <time>2022-09-26T11:10:21.034+02:00[Europe/Madrid]</time>
      </trkpt>
      <trkpt lat="37.232679" lon="-5.304474">
        <ele>210.0</ele>
        <time>2022-09-26T11:10:22.034+02:00[Europe/Madrid]</time>
      </trkpt>
      <trkpt lat="37.232776" lon="-5.304792">
        <ele>210.0</ele>
        <time>2022-09-26T11:10:23.034+02:00[Europe/Madrid]</time>
      </trkpt>
      <trkpt lat="37.232875" lon="-5.305111">
        <ele>211.0</ele>
        <time>2022-09-26T11:10:24.034+02:00[Europe/Madrid]</time>
      </trkpt>
      <trkpt lat="37.232974" lon="-5.305433">
        <ele>211.0</ele>
        <time>2022-09-26T11:10:25.034+02:00[Europe/Madrid]</time>
      </trkpt>
      <trkpt lat="37.233071" lon="-5.305757">
        <ele>212.0</ele>
        <time>2022-09-26T11:10:26.034+02:00[Europe/Madrid]</time>
      </trkpt>
      <trkpt lat="37.233168" lon="-5.306084">
        <ele>212.0</ele>
        <time>2022-09-26T11:10:27.034+02:00[Europe/Madrid]</time>
      </trkpt>
      <trkpt lat="37.23327" lon="-5.30641">
        <ele>213.0</ele>
        <time>2022-09-26T11:10:28.034+02:00[Europe/Madrid]</time>
      </trkpt>
      <trkpt lat="37.233367" lon="-5.306722">
        <ele>213.0</ele>
        <time>2022-09-26T11:10:29.034+02:00[Europe/Madrid]</time>
      </trkpt>
      <trkpt lat="37.233462" lon="-5.307032">
        <ele>214.0</ele>
        <time>2022-09-26T11:10:30.034+02:00[Europe/Madrid]</time>
      </trkpt>
      <trkpt lat="37.233552" lon="-5.307331">
        <ele>214.0</ele>
        <time>2022-09-26T11:10:31.034+02:00[Europe/Madrid]</time>
      </trkpt>
      <trkpt lat="37.233641" lon="-5.307624">
        <ele>215.0</ele>
        <time>2022-09-26T11:10:32.034+02:00[Europe/Madrid]</time>
      </trkpt>
      <trkpt lat="37.233728" lon="-5.307917">
        <ele>215.0</ele>
        <time>2022-09-26T11:10:33.034+02:00[Europe/Madrid]</time>
      </trkpt>
      <trkpt lat="37.233809" lon="-5.308206">
        <ele>215.0</ele>
        <time>2022-09-26T11:10:34.034+02:00[Europe/Madrid]</time>
      </trkpt>
      <trkpt lat="37.233877" lon="-5.308493">
        <ele>215.0</ele>
        <time>2022-09-26T11:10:35.034+02:00[Europe/Madrid]</time>
      </trkpt>
      <trkpt lat="37.233931" lon="-5.308784">
        <ele>215.0</ele>
        <time>2022-09-26T11:10:36.034+02:00[Europe/Madrid]</time>
      </trkpt>
      <trkpt lat="37.233966" lon="-5.309079">
        <ele>215.0</ele>
        <time>2022-09-26T11:10:37.034+02:00[Europe/Madrid]</time>
      </trkpt>
      <trkpt lat="37.233993" lon="-5.309373">
        <ele>214.0</ele>
        <time>2022-09-26T11:10:38.034+02:00[Europe/Madrid]</time>
      </trkpt>
      <trkpt lat="37.23401" lon="-5.309673">
        <ele>214.0</ele>
        <time>2022-09-26T11:10:39.034+02:00[Europe/Madrid]</time>
      </trkpt>
      <trkpt lat="37.234024" lon="-5.309979">
        <ele>214.0</ele>
        <time>2022-09-26T11:10:40.034+02:00[Europe/Madrid]</time>
      </trkpt>
      <trkpt lat="37.234039" lon="-5.310291">
        <ele>214.0</ele>
        <time>2022-09-26T11:10:41.034+02:00[Europe/Madrid]</time>
      </trkpt>
      <trkpt lat="37.234056" lon="-5.310603">
        <ele>214.0</ele>
        <time>2022-09-26T11:10:42.034+02:00[Europe/Madrid]</time>
      </trkpt>
      <trkpt lat="37.234071" lon="-5.310911">
        <ele>214.0</ele>
        <time>2022-09-26T11:10:43.034+02:00[Europe/Madrid]</time>
      </trkpt>
      <trkpt lat="37.234086" lon="-5.311215">
        <ele>213.0</ele>
        <time>2022-09-26T11:10:44.034+02:00[Europe/Madrid]</time>
      </trkpt>
      <trkpt lat="37.234097" lon="-5.311525">
        <ele>213.0</ele>
        <time>2022-09-26T11:10:45.034+02:00[Europe/Madrid]</time>
      </trkpt>
      <trkpt lat="37.234106" lon="-5.311831">
        <ele>213.0</ele>
        <time>2022-09-26T11:10:46.034+02:00[Europe/Madrid]</time>
      </trkpt>
      <trkpt lat="37.234113" lon="-5.312138">
        <ele>212.0</ele>
        <time>2022-09-26T11:10:47.034+02:00[Europe/Madrid]</time>
      </trkpt>
      <trkpt lat="37.234114" lon="-5.312442">
        <ele>211.0</ele>
        <time>2022-09-26T11:10:48.034+02:00[Europe/Madrid]</time>
      </trkpt>
      <trkpt lat="37.234102" lon="-5.312748">
        <ele>210.0</ele>
        <time>2022-09-26T11:10:49.034+02:00[Europe/Madrid]</time>
      </trkpt>
      <trkpt lat="37.234073" lon="-5.313052">
        <ele>210.0</ele>
        <time>2022-09-26T11:10:50.034+02:00[Europe/Madrid]</time>
      </trkpt>
      <trkpt lat="37.234036" lon="-5.313353">
        <ele>209.0</ele>
        <time>2022-09-26T11:10:51.034+02:00[Europe/Madrid]</time>
      </trkpt>
      <trkpt lat="37.233993" lon="-5.313658">
        <ele>208.0</ele>
        <time>2022-09-26T11:10:52.034+02:00[Europe/Madrid]</time>
      </trkpt>
      <trkpt lat="37.233942" lon="-5.313963">
        <ele>207.0</ele>
        <time>2022-09-26T11:10:53.034+02:00[Europe/Madrid]</time>
      </trkpt>
      <trkpt lat="37.233878" lon="-5.314263">
        <ele>206.0</ele>
        <time>2022-09-26T11:10:54.034+02:00[Europe/Madrid]</time>
      </trkpt>
      <trkpt lat="37.233804" lon="-5.314565">
        <ele>205.0</ele>
        <time>2022-09-26T11:10:55.034+02:00[Europe/Madrid]</time>
      </trkpt>
      <trkpt lat="37.233718" lon="-5.314865">
        <ele>204.0</ele>
        <time>2022-09-26T11:10:56.034+02:00[Europe/Madrid]</time>
      </trkpt>
      <trkpt lat="37.233627" lon="-5.315164">
        <ele>202.0</ele>
        <time>2022-09-26T11:10:57.034+02:00[Europe/Madrid]</time>
      </trkpt>
      <trkpt lat="37.233527" lon="-5.315466">
        <ele>201.0</ele>
        <time>2022-09-26T11:10:58.034+02:00[Europe/Madrid]</time>
      </trkpt>
      <trkpt lat="37.233426" lon="-5.315767">
        <ele>200.0</ele>
        <time>2022-09-26T11:10:59.034+02:00[Europe/Madrid]</time>
      </trkpt>
      <trkpt lat="37.23332" lon="-5.316068">
        <ele>198.0</ele>
        <time>2022-09-26T11:11:00.034+02:00[Europe/Madrid]</time>
      </trkpt>
      <trkpt lat="37.233211" lon="-5.31637">
        <ele>197.0</ele>
        <time>2022-09-26T11:11:01.034+02:00[Europe/Madrid]</time>
      </trkpt>
      <trkpt lat="37.233104" lon="-5.316666">
        <ele>196.0</ele>
        <time>2022-09-26T11:11:02.034+02:00[Europe/Madrid]</time>
      </trkpt>
      <trkpt lat="37.233002" lon="-5.316967">
        <ele>195.0</ele>
        <time>2022-09-26T11:11:03.034+02:00[Europe/Madrid]</time>
      </trkpt>
      <trkpt lat="37.2329" lon="-5.317271">
        <ele>194.0</ele>
        <time>2022-09-26T11:11:04.034+02:00[Europe/Madrid]</time>
      </trkpt>
      <trkpt lat="37.232798" lon="-5.317577">
        <ele>194.0</ele>
        <time>2022-09-26T11:11:05.034+02:00[Europe/Madrid]</time>
      </trkpt>
      <trkpt lat="37.232696" lon="-5.317883">
        <ele>194.0</ele>
        <time>2022-09-26T11:11:06.034+02:00[Europe/Madrid]</time>
      </trkpt>
      <trkpt lat="37.232594" lon="-5.318181">
        <ele>194.0</ele>
        <time>2022-09-26T11:11:07.034+02:00[Europe/Madrid]</time>
      </trkpt>
      <trkpt lat="37.232498" lon="-5.318467">
        <ele>194.0</ele>
        <time>2022-09-26T11:11:08.034+02:00[Europe/Madrid]</time>
      </trkpt>
      <trkpt lat="37.232406" lon="-5.318735">
        <ele>194.0</ele>
        <time>2022-09-26T11:11:09.034+02:00[Europe/Madrid]</time>
      </trkpt>
      <trkpt lat="37.232319" lon="-5.318987">
        <ele>194.0</ele>
        <time>2022-09-26T11:11:10.034+02:00[Europe/Madrid]</time>
      </trkpt>
      <trkpt lat="37.232241" lon="-5.319223">
        <ele>194.0</ele>
        <time>2022-09-26T11:11:11.034+02:00[Europe/Madrid]</time>
      </trkpt>
      <trkpt lat="37.232171" lon="-5.319447">
        <ele>194.0</ele>
        <time>2022-09-26T11:11:12.034+02:00[Europe/Madrid]</time>
      </trkpt>
      <trkpt lat="37.232108" lon="-5.31966">
        <ele>194.0</ele>
        <time>2022-09-26T11:11:13.034+02:00[Europe/Madrid]</time>
      </trkpt>
      <trkpt lat="37.232051" lon="-5.319846">
        <ele>194.0</ele>
        <time>2022-09-26T11:11:14.034+02:00[Europe/Madrid]</time>
      </trkpt>
      <trkpt lat="37.232004" lon="-5.320004">
        <ele>195.0</ele>
        <time>2022-09-26T11:11:15.034+02:00[Europe/Madrid]</time>
      </trkpt>
      <trkpt lat="37.231962" lon="-5.320144">
        <ele>195.0</ele>
        <time>2022-09-26T11:11:16.034+02:00[Europe/Madrid]</time>
      </trkpt>
      <trkpt lat="37.231931" lon="-5.320267">
        <ele>196.0</ele>
        <time>2022-09-26T11:11:17.034+02:00[Europe/Madrid]</time>
      </trkpt>
      <trkpt lat="37.231907" lon="-5.320376">
        <ele>196.0</ele>
        <time>2022-09-26T11:11:18.034+02:00[Europe/Madrid]</time>
      </trkpt>
      <trkpt lat="37.231879" lon="-5.320568">
        <ele>196.0</ele>
        <time>2022-09-26T11:11:19.899+02:00[Europe/Madrid]</time>
      </trkpt>
      <trkpt lat="37.231869" lon="-5.320718">
        <ele>197.0</ele>
        <time>2022-09-26T11:11:21.902+02:00[Europe/Madrid]</time>
      </trkpt>
      <trkpt lat="37.231865" lon="-5.320841">
        <ele>198.0</ele>
        <time>2022-09-26T11:11:23.906+02:00[Europe/Madrid]</time>
      </trkpt>
      <trkpt lat="37.231898" lon="-5.320981">
        <ele>198.0</ele>
        <time>2022-09-26T11:11:25.906+02:00[Europe/Madrid]</time>
      </trkpt>
      <trkpt lat="37.231948" lon="-5.32113">
        <ele>199.0</ele>
        <time>2022-09-26T11:11:27.909+02:00[Europe/Madrid]</time>
      </trkpt>
      <trkpt lat="37.232018" lon="-5.321237">
        <ele>200.0</ele>
        <time>2022-09-26T11:11:29.911+02:00[Europe/Madrid]</time>
      </trkpt>
      <trkpt lat="37.232129" lon="-5.32133">
        <ele>200.0</ele>
        <time>2022-09-26T11:11:32.908+02:00[Europe/Madrid]</time>
      </trkpt>
      <trkpt lat="37.232227" lon="-5.321399">
        <ele>201.0</ele>
        <time>2022-09-26T11:11:34.908+02:00[Europe/Madrid]</time>
      </trkpt>
      <trkpt lat="37.232316" lon="-5.321445">
        <ele>201.0</ele>
        <time>2022-09-26T11:11:36.914+02:00[Europe/Madrid]</time>
      </trkpt>
      <trkpt lat="37.232402" lon="-5.321483">
        <ele>201.0</ele>
        <time>2022-09-26T11:11:38.901+02:00[Europe/Madrid]</time>
      </trkpt>
      <trkpt lat="37.232528" lon="-5.321533">
        <ele>201.0</ele>
        <time>2022-09-26T11:11:41.907+02:00[Europe/Madrid]</time>
      </trkpt>
      <trkpt lat="37.232654" lon="-5.321588">
        <ele>200.0</ele>
        <time>2022-09-26T11:11:44.906+02:00[Europe/Madrid]</time>
      </trkpt>
      <trkpt lat="37.23278" lon="-5.321626">
        <ele>199.0</ele>
        <time>2022-09-26T11:11:47.925+02:00[Europe/Madrid]</time>
      </trkpt>
      <trkpt lat="37.232892" lon="-5.321646">
        <ele>198.0</ele>
        <time>2022-09-26T11:11:49.914+02:00[Europe/Madrid]</time>
      </trkpt>
      <trkpt lat="37.232976" lon="-5.321728">
        <ele>197.0</ele>
        <time>2022-09-26T11:11:51.900+02:00[Europe/Madrid]</time>
      </trkpt>
      <trkpt lat="37.233012" lon="-5.321853">
        <ele>196.0</ele>
        <time>2022-09-26T11:11:53.896+02:00[Europe/Madrid]</time>
      </trkpt>
      <trkpt lat="37.232987" lon="-5.321986">
        <ele>196.0</ele>
        <time>2022-09-26T11:11:55.898+02:00[Europe/Madrid]</time>
      </trkpt>
      <trkpt lat="37.232911" lon="-5.322076">
        <ele>196.0</ele>
        <time>2022-09-26T11:11:57.897+02:00[Europe/Madrid]</time>
      </trkpt>
      <trkpt lat="37.2328" lon="-5.322088">
        <ele>197.0</ele>
        <time>2022-09-26T11:11:59.898+02:00[Europe/Madrid]</time>
      </trkpt>
      <trkpt lat="37.232693" lon="-5.322015">
        <ele>199.0</ele>
        <time>2022-09-26T11:12:01.918+02:00[Europe/Madrid]</time>
      </trkpt>
      <trkpt lat="37.232627" lon="-5.321903">
        <ele>199.0</ele>
        <time>2022-09-26T11:12:03.903+02:00[Europe/Madrid]</time>
      </trkpt>
      <trkpt lat="37.232559" lon="-5.321804">
        <ele>200.0</ele>
        <time>2022-09-26T11:12:05.906+02:00[Europe/Madrid]</time>
      </trkpt>
      <trkpt lat="37.232465" lon="-5.321712">
        <ele>201.0</ele>
        <time>2022-09-26T11:12:07.914+02:00[Europe/Madrid]</time>
      </trkpt>
      <trkpt lat="37.232319" lon="-5.321641">
        <ele>202.0</ele>
        <time>2022-09-26T11:12:09.906+02:00[Europe/Madrid]</time>
      </trkpt>
      <trkpt lat="37.232172" lon="-5.321588">
        <ele>203.0</ele>
        <time>2022-09-26T11:12:11.911+02:00[Europe/Madrid]</time>
      </trkpt>
      <trkpt lat="37.232023" lon="-5.321518">
        <ele>204.0</ele>
        <time>2022-09-26T11:12:13.918+02:00[Europe/Madrid]</time>
      </trkpt>
      <trkpt lat="37.231879" lon="-5.321446">
        <ele>204.0</ele>
        <time>2022-09-26T11:12:15.902+02:00[Europe/Madrid]</time>
      </trkpt>
      <trkpt lat="37.231732" lon="-5.32137">
        <ele>205.0</ele>
        <time>2022-09-26T11:12:17.913+02:00[Europe/Madrid]</time>
      </trkpt>
      <trkpt lat="37.23159" lon="-5.321293">
        <ele>205.0</ele>
        <time>2022-09-26T11:12:19.912+02:00[Europe/Madrid]</time>
      </trkpt>
      <trkpt lat="37.231437" lon="-5.321215">
        <ele>206.0</ele>
        <time>2022-09-26T11:12:21.916+02:00[Europe/Madrid]</time>
      </trkpt>
      <trkpt lat="37.231273" lon="-5.321125">
        <ele>206.0</ele>
        <time>2022-09-26T11:12:23.894+02:00[Europe/Madrid]</time>
      </trkpt>
      <trkpt lat="37.231177" lon="-5.321074">
        <ele>206.0</ele>
        <time>2022-09-26T11:12:24.904+02:00[Europe/Madrid]</time>
      </trkpt>
      <trkpt lat="37.231079" lon="-5.321014">
        <ele>207.0</ele>
        <time>2022-09-26T11:12:25.919+02:00[Europe/Madrid]</time>
      </trkpt>
      <trkpt lat="37.230981" lon="-5.320956">
        <ele>207.0</ele>
        <time>2022-09-26T11:12:26.919+02:00[Europe/Madrid]</time>
      </trkpt>
      <trkpt lat="37.230885" lon="-5.320891">
        <ele>207.0</ele>
        <time>2022-09-26T11:12:27.919+02:00[Europe/Madrid]</time>
      </trkpt>
      <trkpt lat="37.230795" lon="-5.320814">
        <ele>207.0</ele>
        <time>2022-09-26T11:12:28.919+02:00[Europe/Madrid]</time>
      </trkpt>
      <trkpt lat="37.230708" lon="-5.320736">
        <ele>207.0</ele>
        <time>2022-09-26T11:12:29.919+02:00[Europe/Madrid]</time>
      </trkpt>
      <trkpt lat="37.230626" lon="-5.320659">
        <ele>207.0</ele>
        <time>2022-09-26T11:12:30.919+02:00[Europe/Madrid]</time>
      </trkpt>
      <trkpt lat="37.23055" lon="-5.320581">
        <ele>208.0</ele>
        <time>2022-09-26T11:12:31.919+02:00[Europe/Madrid]</time>
      </trkpt>
      <trkpt lat="37.230477" lon="-5.320497">
        <ele>208.0</ele>
        <time>2022-09-26T11:12:32.919+02:00[Europe/Madrid]</time>
      </trkpt>
      <trkpt lat="37.230408" lon="-5.320413">
        <ele>208.0</ele>
        <time>2022-09-26T11:12:33.919+02:00[Europe/Madrid]</time>
      </trkpt>
      <trkpt lat="37.230338" lon="-5.320325">
        <ele>208.0</ele>
        <time>2022-09-26T11:12:34.919+02:00[Europe/Madrid]</time>
      </trkpt>
      <trkpt lat="37.230267" lon="-5.320234">
        <ele>208.0</ele>
        <time>2022-09-26T11:12:35.919+02:00[Europe/Madrid]</time>
      </trkpt>
      <trkpt lat="37.230195" lon="-5.320142">
        <ele>208.0</ele>
        <time>2022-09-26T11:12:36.919+02:00[Europe/Madrid]</time>
      </trkpt>
      <trkpt lat="37.230122" lon="-5.320048">
        <ele>208.0</ele>
        <time>2022-09-26T11:12:37.919+02:00[Europe/Madrid]</time>
      </trkpt>
      <trkpt lat="37.230048" lon="-5.319954">
        <ele>209.0</ele>
        <time>2022-09-26T11:12:38.919+02:00[Europe/Madrid]</time>
      </trkpt>
      <trkpt lat="37.22997" lon="-5.319866">
        <ele>209.0</ele>
        <time>2022-09-26T11:12:39.919+02:00[Europe/Madrid]</time>
      </trkpt>
      <trkpt lat="37.229881" lon="-5.31978">
        <ele>209.0</ele>
        <time>2022-09-26T11:12:40.919+02:00[Europe/Madrid]</time>
      </trkpt>
      <trkpt lat="37.22979" lon="-5.319695">
        <ele>209.0</ele>
        <time>2022-09-26T11:12:41.919+02:00[Europe/Madrid]</time>
      </trkpt>
      <trkpt lat="37.229697" lon="-5.319614">
        <ele>210.0</ele>
        <time>2022-09-26T11:12:42.919+02:00[Europe/Madrid]</time>
      </trkpt>
      <trkpt lat="37.229602" lon="-5.319534">
        <ele>210.0</ele>
        <time>2022-09-26T11:12:43.919+02:00[Europe/Madrid]</time>
      </trkpt>
      <trkpt lat="37.229507" lon="-5.319458">
        <ele>210.0</ele>
        <time>2022-09-26T11:12:44.923+02:00[Europe/Madrid]</time>
      </trkpt>
      <trkpt lat="37.229414" lon="-5.319376">
        <ele>211.0</ele>
        <time>2022-09-26T11:12:45.923+02:00[Europe/Madrid]</time>
      </trkpt>
      <trkpt lat="37.229316" lon="-5.319293">
        <ele>211.0</ele>
        <time>2022-09-26T11:12:46.923+02:00[Europe/Madrid]</time>
      </trkpt>
      <trkpt lat="37.229219" lon="-5.319209">
        <ele>212.0</ele>
        <time>2022-09-26T11:12:47.923+02:00[Europe/Madrid]</time>
      </trkpt>
      <trkpt lat="37.229118" lon="-5.319123">
        <ele>212.0</ele>
        <time>2022-09-26T11:12:48.923+02:00[Europe/Madrid]</time>
      </trkpt>
      <trkpt lat="37.229014" lon="-5.319032">
        <ele>212.0</ele>
        <time>2022-09-26T11:12:49.923+02:00[Europe/Madrid]</time>
      </trkpt>
      <trkpt lat="37.228907" lon="-5.318948">
        <ele>212.0</ele>
        <time>2022-09-26T11:12:50.923+02:00[Europe/Madrid]</time>
      </trkpt>
      <trkpt lat="37.228798" lon="-5.318861">
        <ele>212.0</ele>
        <time>2022-09-26T11:12:51.923+02:00[Europe/Madrid]</time>
      </trkpt>
      <trkpt lat="37.228684" lon="-5.318768">
        <ele>212.0</ele>
        <time>2022-09-26T11:12:52.931+02:00[Europe/Madrid]</time>
      </trkpt>
      <trkpt lat="37.22857" lon="-5.318678">
        <ele>212.0</ele>
        <time>2022-09-26T11:12:53.931+02:00[Europe/Madrid]</time>
      </trkpt>
      <trkpt lat="37.228453" lon="-5.318582">
        <ele>213.0</ele>
        <time>2022-09-26T11:12:54.931+02:00[Europe/Madrid]</time>
      </trkpt>
      <trkpt lat="37.228335" lon="-5.318485">
        <ele>213.0</ele>
        <time>2022-09-26T11:12:55.931+02:00[Europe/Madrid]</time>
      </trkpt>
      <trkpt lat="37.228227" lon="-5.318395">
        <ele>212.0</ele>
        <time>2022-09-26T11:12:56.931+02:00[Europe/Madrid]</time>
      </trkpt>
      <trkpt lat="37.228122" lon="-5.318312">
        <ele>213.0</ele>
        <time>2022-09-26T11:12:57.931+02:00[Europe/Madrid]</time>
      </trkpt>
      <trkpt lat="37.228031" lon="-5.318235">
        <ele>213.0</ele>
        <time>2022-09-26T11:12:58.931+02:00[Europe/Madrid]</time>
      </trkpt>
      <trkpt lat="37.227946" lon="-5.318168">
        <ele>213.0</ele>
        <time>2022-09-26T11:12:59.931+02:00[Europe/Madrid]</time>
      </trkpt>
      <trkpt lat="37.227805" lon="-5.31806">
        <ele>213.0</ele>
        <time>2022-09-26T11:13:01.910+02:00[Europe/Madrid]</time>
      </trkpt>
      <trkpt lat="37.227705" lon="-5.317976">
        <ele>214.0</ele>
        <time>2022-09-26T11:13:03.899+02:00[Europe/Madrid]</time>
      </trkpt>
      <trkpt lat="37.227629" lon="-5.317913">
        <ele>214.0</ele>
        <time>2022-09-26T11:13:05.918+02:00[Europe/Madrid]</time>
      </trkpt>
      <trkpt lat="37.227545" lon="-5.317869">
        <ele>213.0</ele>
        <time>2022-09-26T11:13:10.920+02:00[Europe/Madrid]</time>
      </trkpt>
      <trkpt lat="37.227435" lon="-5.317851">
        <ele>213.0</ele>
        <time>2022-09-26T11:13:17.915+02:00[Europe/Madrid]</time>
      </trkpt>
      <trkpt lat="37.22734" lon="-5.317843">
        <ele>213.0</ele>
        <time>2022-09-26T11:13:20.911+02:00[Europe/Madrid]</time>
      </trkpt>
      <trkpt lat="37.227217" lon="-5.317802">
        <ele>214.0</ele>
        <time>2022-09-26T11:13:23.917+02:00[Europe/Madrid]</time>
      </trkpt>
      <trkpt lat="37.227123" lon="-5.317708">
        <ele>214.0</ele>
        <time>2022-09-26T11:13:26.915+02:00[Europe/Madrid]</time>
      </trkpt>
      <trkpt lat="37.227042" lon="-5.317617">
        <ele>214.0</ele>
        <time>2022-09-26T11:13:29.915+02:00[Europe/Madrid]</time>
      </trkpt>
      <trkpt lat="37.226917" lon="-5.317583">
        <ele>214.0</ele>
        <time>2022-09-26T11:13:31.908+02:00[Europe/Madrid]</time>
      </trkpt>
      <trkpt lat="37.226819" lon="-5.31757">
        <ele>215.0</ele>
        <time>2022-09-26T11:13:33.910+02:00[Europe/Madrid]</time>
      </trkpt>
      <trkpt lat="37.226725" lon="-5.317593">
        <ele>215.0</ele>
        <time>2022-09-26T11:13:36.906+02:00[Europe/Madrid]</time>
      </trkpt>
      <trkpt lat="37.226658" lon="-5.317722">
        <ele>216.0</ele>
        <time>2022-09-26T11:13:40.907+02:00[Europe/Madrid]</time>
      </trkpt>
      <trkpt lat="37.226606" lon="-5.317836">
        <ele>218.0</ele>
        <time>2022-09-26T11:13:43.907+02:00[Europe/Madrid]</time>
      </trkpt>
      <trkpt lat="37.226545" lon="-5.317995">
        <ele>219.0</ele>
        <time>2022-09-26T11:13:46.904+02:00[Europe/Madrid]</time>
      </trkpt>
      <trkpt lat="37.2265" lon="-5.318126">
        <ele>220.0</ele>
        <time>2022-09-26T11:13:48.908+02:00[Europe/Madrid]</time>
      </trkpt>
      <trkpt lat="37.226458" lon="-5.318245">
        <ele>220.0</ele>
        <time>2022-09-26T11:13:50.905+02:00[Europe/Madrid]</time>
      </trkpt>
      <trkpt lat="37.226398" lon="-5.318406">
        <ele>220.0</ele>
        <time>2022-09-26T11:13:52.908+02:00[Europe/Madrid]</time>
      </trkpt>
      <trkpt lat="37.226336" lon="-5.31857">
        <ele>220.0</ele>
        <time>2022-09-26T11:13:54.907+02:00[Europe/Madrid]</time>
      </trkpt>
      <trkpt lat="37.226278" lon="-5.318737">
        <ele>220.0</ele>
        <time>2022-09-26T11:13:56.984+02:00[Europe/Madrid]</time>
      </trkpt>
      <trkpt lat="37.226213" lon="-5.318885">
        <ele>220.0</ele>
        <time>2022-09-26T11:13:58.896+02:00[Europe/Madrid]</time>
      </trkpt>
      <trkpt lat="37.226157" lon="-5.319037">
        <ele>220.0</ele>
        <time>2022-09-26T11:14:00.909+02:00[Europe/Madrid]</time>
      </trkpt>
      <trkpt lat="37.226102" lon="-5.319198">
        <ele>219.0</ele>
        <time>2022-09-26T11:14:02.905+02:00[Europe/Madrid]</time>
      </trkpt>
      <trkpt lat="37.226044" lon="-5.319365">
        <ele>219.0</ele>
        <time>2022-09-26T11:14:04.919+02:00[Europe/Madrid]</time>
      </trkpt>
      <trkpt lat="37.225985" lon="-5.319518">
        <ele>219.0</ele>
        <time>2022-09-26T11:14:06.903+02:00[Europe/Madrid]</time>
      </trkpt>
      <trkpt lat="37.22593" lon="-5.319669">
        <ele>220.0</ele>
        <time>2022-09-26T11:14:08.913+02:00[Europe/Madrid]</time>
      </trkpt>
      <trkpt lat="37.225866" lon="-5.319836">
        <ele>220.0</ele>
        <time>2022-09-26T11:14:10.909+02:00[Europe/Madrid]</time>
      </trkpt>
      <trkpt lat="37.225795" lon="-5.320006">
        <ele>220.0</ele>
        <time>2022-09-26T11:14:12.913+02:00[Europe/Madrid]</time>
      </trkpt>
      <trkpt lat="37.225727" lon="-5.320174">
        <ele>220.0</ele>
        <time>2022-09-26T11:14:14.904+02:00[Europe/Madrid]</time>
      </trkpt>
      <trkpt lat="37.225658" lon="-5.32034">
        <ele>220.0</ele>
        <time>2022-09-26T11:14:16.920+02:00[Europe/Madrid]</time>
      </trkpt>
      <trkpt lat="37.225589" lon="-5.320516">
        <ele>220.0</ele>
        <time>2022-09-26T11:14:18.919+02:00[Europe/Madrid]</time>
      </trkpt>
      <trkpt lat="37.22553" lon="-5.320703">
        <ele>219.0</ele>
        <time>2022-09-26T11:14:20.916+02:00[Europe/Madrid]</time>
      </trkpt>
      <trkpt lat="37.225488" lon="-5.320909">
        <ele>219.0</ele>
        <time>2022-09-26T11:14:22.899+02:00[Europe/Madrid]</time>
      </trkpt>
      <trkpt lat="37.22547" lon="-5.321109">
        <ele>218.0</ele>
        <time>2022-09-26T11:14:24.907+02:00[Europe/Madrid]</time>
      </trkpt>
      <trkpt lat="37.225435" lon="-5.321288">
        <ele>218.0</ele>
        <time>2022-09-26T11:14:26.906+02:00[Europe/Madrid]</time>
      </trkpt>
      <trkpt lat="37.225408" lon="-5.321486">
        <ele>218.0</ele>
        <time>2022-09-26T11:14:28.906+02:00[Europe/Madrid]</time>
      </trkpt>
      <trkpt lat="37.225395" lon="-5.321601">
        <ele>219.0</ele>
        <time>2022-09-26T11:14:29.915+02:00[Europe/Madrid]</time>
      </trkpt>
      <trkpt lat="37.225373" lon="-5.321732">
        <ele>219.0</ele>
        <time>2022-09-26T11:14:30.915+02:00[Europe/Madrid]</time>
      </trkpt>
      <trkpt lat="37.225347" lon="-5.321863">
        <ele>219.0</ele>
        <time>2022-09-26T11:14:31.915+02:00[Europe/Madrid]</time>
      </trkpt>
      <trkpt lat="37.225319" lon="-5.321981">
        <ele>219.0</ele>
        <time>2022-09-26T11:14:32.920+02:00[Europe/Madrid]</time>
      </trkpt>
      <trkpt lat="37.225283" lon="-5.322089">
        <ele>219.0</ele>
        <time>2022-09-26T11:14:33.920+02:00[Europe/Madrid]</time>
      </trkpt>
      <trkpt lat="37.225232" lon="-5.322264">
        <ele>219.0</ele>
        <time>2022-09-26T11:14:35.915+02:00[Europe/Madrid]</time>
      </trkpt>
      <trkpt lat="37.225206" lon="-5.32242">
        <ele>219.0</ele>
        <time>2022-09-26T11:14:37.917+02:00[Europe/Madrid]</time>
      </trkpt>
      <trkpt lat="37.225173" lon="-5.322581">
        <ele>220.0</ele>
        <time>2022-09-26T11:14:39.909+02:00[Europe/Madrid]</time>
      </trkpt>
      <trkpt lat="37.225127" lon="-5.322712">
        <ele>220.0</ele>
        <time>2022-09-26T11:14:41.912+02:00[Europe/Madrid]</time>
      </trkpt>
      <trkpt lat="37.22504" lon="-5.322773">
        <ele>220.0</ele>
        <time>2022-09-26T11:14:43.907+02:00[Europe/Madrid]</time>
      </trkpt>
      <trkpt lat="37.224921" lon="-5.322759">
        <ele>220.0</ele>
        <time>2022-09-26T11:14:45.906+02:00[Europe/Madrid]</time>
      </trkpt>
      <trkpt lat="37.224768" lon="-5.32269">
        <ele>220.0</ele>
        <time>2022-09-26T11:14:47.910+02:00[Europe/Madrid]</time>
      </trkpt>
      <trkpt lat="37.22468" lon="-5.322654">
        <ele>220.0</ele>
        <time>2022-09-26T11:14:48.921+02:00[Europe/Madrid]</time>
      </trkpt>
      <trkpt lat="37.224588" lon="-5.322613">
        <ele>220.0</ele>
        <time>2022-09-26T11:14:49.921+02:00[Europe/Madrid]</time>
      </trkpt>
      <trkpt lat="37.224484" lon="-5.322571">
        <ele>220.0</ele>
        <time>2022-09-26T11:14:50.921+02:00[Europe/Madrid]</time>
      </trkpt>
      <trkpt lat="37.224372" lon="-5.322528">
        <ele>220.0</ele>
        <time>2022-09-26T11:14:51.921+02:00[Europe/Madrid]</time>
      </trkpt>
      <trkpt lat="37.224267" lon="-5.322489">
        <ele>220.0</ele>
        <time>2022-09-26T11:14:52.921+02:00[Europe/Madrid]</time>
      </trkpt>
      <trkpt lat="37.22417" lon="-5.32245">
        <ele>220.0</ele>
        <time>2022-09-26T11:14:53.921+02:00[Europe/Madrid]</time>
      </trkpt>
      <trkpt lat="37.224075" lon="-5.322417">
        <ele>221.0</ele>
        <time>2022-09-26T11:14:54.921+02:00[Europe/Madrid]</time>
      </trkpt>
      <trkpt lat="37.223982" lon="-5.322384">
        <ele>221.0</ele>
        <time>2022-09-26T11:14:55.921+02:00[Europe/Madrid]</time>
      </trkpt>
      <trkpt lat="37.223886" lon="-5.322345">
        <ele>221.0</ele>
        <time>2022-09-26T11:14:56.921+02:00[Europe/Madrid]</time>
      </trkpt>
      <trkpt lat="37.22379" lon="-5.322306">
        <ele>221.0</ele>
        <time>2022-09-26T11:14:57.921+02:00[Europe/Madrid]</time>
      </trkpt>
      <trkpt lat="37.223689" lon="-5.322268">
        <ele>221.0</ele>
        <time>2022-09-26T11:14:58.921+02:00[Europe/Madrid]</time>
      </trkpt>
      <trkpt lat="37.223585" lon="-5.322229">
        <ele>221.0</ele>
        <time>2022-09-26T11:14:59.921+02:00[Europe/Madrid]</time>
      </trkpt>
      <trkpt lat="37.223473" lon="-5.322188">
        <ele>222.0</ele>
        <time>2022-09-26T11:15:00.921+02:00[Europe/Madrid]</time>
      </trkpt>
      <trkpt lat="37.223357" lon="-5.322144">
        <ele>222.0</ele>
        <time>2022-09-26T11:15:01.921+02:00[Europe/Madrid]</time>
      </trkpt>
      <trkpt lat="37.223234" lon="-5.322096">
        <ele>223.0</ele>
        <time>2022-09-26T11:15:02.921+02:00[Europe/Madrid]</time>
      </trkpt>
      <trkpt lat="37.223098" lon="-5.322046">
        <ele>223.0</ele>
        <time>2022-09-26T11:15:03.921+02:00[Europe/Madrid]</time>
      </trkpt>
      <trkpt lat="37.222965" lon="-5.321994">
        <ele>224.0</ele>
        <time>2022-09-26T11:15:04.921+02:00[Europe/Madrid]</time>
      </trkpt>
      <trkpt lat="37.222846" lon="-5.321948">
        <ele>224.0</ele>
        <time>2022-09-26T11:15:05.921+02:00[Europe/Madrid]</time>
      </trkpt>
      <trkpt lat="37.222737" lon="-5.321907">
        <ele>224.0</ele>
        <time>2022-09-26T11:15:06.921+02:00[Europe/Madrid]</time>
      </trkpt>
      <trkpt lat="37.222636" lon="-5.321866">
        <ele>225.0</ele>
        <time>2022-09-26T11:15:07.921+02:00[Europe/Madrid]</time>
      </trkpt>
      <trkpt lat="37.22253" lon="-5.321828">
        <ele>225.0</ele>
        <time>2022-09-26T11:15:08.921+02:00[Europe/Madrid]</time>
      </trkpt>
      <trkpt lat="37.222423" lon="-5.321787">
        <ele>226.0</ele>
        <time>2022-09-26T11:15:09.921+02:00[Europe/Madrid]</time>
      </trkpt>
      <trkpt lat="37.222312" lon="-5.321745">
        <ele>226.0</ele>
        <time>2022-09-26T11:15:10.921+02:00[Europe/Madrid]</time>
      </trkpt>
      <trkpt lat="37.222195" lon="-5.3217">
        <ele>227.0</ele>
        <time>2022-09-26T11:15:11.921+02:00[Europe/Madrid]</time>
      </trkpt>
      <trkpt lat="37.222087" lon="-5.321659">
        <ele>228.0</ele>
        <time>2022-09-26T11:15:12.921+02:00[Europe/Madrid]</time>
      </trkpt>
      <trkpt lat="37.221989" lon="-5.32162">
        <ele>228.0</ele>
        <time>2022-09-26T11:15:13.921+02:00[Europe/Madrid]</time>
      </trkpt>
      <trkpt lat="37.221903" lon="-5.321585">
        <ele>229.0</ele>
        <time>2022-09-26T11:15:14.921+02:00[Europe/Madrid]</time>
      </trkpt>
      <trkpt lat="37.221753" lon="-5.321527">
        <ele>230.0</ele>
        <time>2022-09-26T11:15:16.909+02:00[Europe/Madrid]</time>
      </trkpt>
      <trkpt lat="37.221608" lon="-5.321469">
        <ele>231.0</ele>
        <time>2022-09-26T11:15:18.918+02:00[Europe/Madrid]</time>
      </trkpt>
      <trkpt lat="37.221498" lon="-5.321428">
        <ele>231.0</ele>
        <time>2022-09-26T11:15:20.920+02:00[Europe/Madrid]</time>
      </trkpt>
      <trkpt lat="37.221404" lon="-5.321428">
        <ele>232.0</ele>
        <time>2022-09-26T11:15:22.907+02:00[Europe/Madrid]</time>
      </trkpt>
      <trkpt lat="37.221312" lon="-5.321515">
        <ele>232.0</ele>
        <time>2022-09-26T11:15:24.916+02:00[Europe/Madrid]</time>
      </trkpt>
      <trkpt lat="37.22125" lon="-5.3217">
        <ele>232.0</ele>
        <time>2022-09-26T11:15:26.908+02:00[Europe/Madrid]</time>
      </trkpt>
      <trkpt lat="37.221248" lon="-5.321915">
        <ele>232.0</ele>
        <time>2022-09-26T11:15:28.911+02:00[Europe/Madrid]</time>
      </trkpt>
      <trkpt lat="37.221245" lon="-5.32204">
        <ele>232.0</ele>
        <time>2022-09-26T11:15:29.911+02:00[Europe/Madrid]</time>
      </trkpt>
      <trkpt lat="37.221242" lon="-5.322182">
        <ele>232.0</ele>
        <time>2022-09-26T11:15:30.911+02:00[Europe/Madrid]</time>
      </trkpt>
      <trkpt lat="37.221236" lon="-5.322335">
        <ele>232.0</ele>
        <time>2022-09-26T11:15:31.911+02:00[Europe/Madrid]</time>
      </trkpt>
      <trkpt lat="37.221229" lon="-5.322497">
        <ele>232.0</ele>
        <time>2022-09-26T11:15:32.911+02:00[Europe/Madrid]</time>
      </trkpt>
      <trkpt lat="37.22122" lon="-5.322676">
        <ele>233.0</ele>
        <time>2022-09-26T11:15:33.911+02:00[Europe/Madrid]</time>
      </trkpt>
      <trkpt lat="37.221211" lon="-5.322867">
        <ele>233.0</ele>
        <time>2022-09-26T11:15:34.912+02:00[Europe/Madrid]</time>
      </trkpt>
      <trkpt lat="37.221205" lon="-5.323067">
        <ele>234.0</ele>
        <time>2022-09-26T11:15:35.912+02:00[Europe/Madrid]</time>
      </trkpt>
      <trkpt lat="37.2212" lon="-5.323267">
        <ele>234.0</ele>
        <time>2022-09-26T11:15:36.912+02:00[Europe/Madrid]</time>
      </trkpt>
      <trkpt lat="37.221194" lon="-5.323471">
        <ele>234.0</ele>
        <time>2022-09-26T11:15:37.917+02:00[Europe/Madrid]</time>
      </trkpt>
      <trkpt lat="37.221187" lon="-5.32367">
        <ele>235.0</ele>
        <time>2022-09-26T11:15:38.919+02:00[Europe/Madrid]</time>
      </trkpt>
      <trkpt lat="37.221181" lon="-5.323858">
        <ele>235.0</ele>
        <time>2022-09-26T11:15:39.919+02:00[Europe/Madrid]</time>
      </trkpt>
      <trkpt lat="37.221175" lon="-5.324043">
        <ele>236.0</ele>
        <time>2022-09-26T11:15:40.919+02:00[Europe/Madrid]</time>
      </trkpt>
      <trkpt lat="37.221166" lon="-5.324221">
        <ele>237.0</ele>
        <time>2022-09-26T11:15:41.919+02:00[Europe/Madrid]</time>
      </trkpt>
      <trkpt lat="37.221159" lon="-5.324401">
        <ele>237.0</ele>
        <time>2022-09-26T11:15:42.920+02:00[Europe/Madrid]</time>
      </trkpt>
      <trkpt lat="37.22115" lon="-5.324593">
        <ele>237.0</ele>
        <time>2022-09-26T11:15:43.920+02:00[Europe/Madrid]</time>
      </trkpt>
      <trkpt lat="37.221144" lon="-5.324793">
        <ele>237.0</ele>
        <time>2022-09-26T11:15:44.920+02:00[Europe/Madrid]</time>
      </trkpt>
      <trkpt lat="37.221125" lon="-5.325009">
        <ele>238.0</ele>
        <time>2022-09-26T11:15:45.920+02:00[Europe/Madrid]</time>
      </trkpt>
      <trkpt lat="37.221101" lon="-5.325232">
        <ele>238.0</ele>
        <time>2022-09-26T11:15:46.920+02:00[Europe/Madrid]</time>
      </trkpt>
      <trkpt lat="37.221077" lon="-5.325447">
        <ele>238.0</ele>
        <time>2022-09-26T11:15:47.921+02:00[Europe/Madrid]</time>
      </trkpt>
      <trkpt lat="37.221047" lon="-5.325666">
        <ele>238.0</ele>
        <time>2022-09-26T11:15:48.921+02:00[Europe/Madrid]</time>
      </trkpt>
      <trkpt lat="37.22101" lon="-5.325884">
        <ele>238.0</ele>
        <time>2022-09-26T11:15:49.921+02:00[Europe/Madrid]</time>
      </trkpt>
      <trkpt lat="37.22097" lon="-5.326099">
        <ele>237.0</ele>
        <time>2022-09-26T11:15:50.921+02:00[Europe/Madrid]</time>
      </trkpt>
      <trkpt lat="37.220919" lon="-5.326306">
        <ele>237.0</ele>
        <time>2022-09-26T11:15:51.921+02:00[Europe/Madrid]</time>
      </trkpt>
      <trkpt lat="37.220864" lon="-5.326514">
        <ele>236.0</ele>
        <time>2022-09-26T11:15:52.921+02:00[Europe/Madrid]</time>
      </trkpt>
      <trkpt lat="37.220798" lon="-5.326714">
        <ele>236.0</ele>
        <time>2022-09-26T11:15:53.921+02:00[Europe/Madrid]</time>
      </trkpt>
      <trkpt lat="37.220721" lon="-5.326911">
        <ele>235.0</ele>
        <time>2022-09-26T11:15:54.921+02:00[Europe/Madrid]</time>
      </trkpt>
      <trkpt lat="37.220631" lon="-5.327097">
        <ele>235.0</ele>
        <time>2022-09-26T11:15:55.921+02:00[Europe/Madrid]</time>
      </trkpt>
      <trkpt lat="37.22053" lon="-5.327285">
        <ele>235.0</ele>
        <time>2022-09-26T11:15:56.921+02:00[Europe/Madrid]</time>
      </trkpt>
      <trkpt lat="37.220417" lon="-5.327476">
        <ele>234.0</ele>
        <time>2022-09-26T11:15:57.921+02:00[Europe/Madrid]</time>
      </trkpt>
      <trkpt lat="37.220293" lon="-5.327667">
        <ele>233.0</ele>
        <time>2022-09-26T11:15:58.921+02:00[Europe/Madrid]</time>
      </trkpt>
      <trkpt lat="37.220161" lon="-5.327864">
        <ele>233.0</ele>
        <time>2022-09-26T11:15:59.921+02:00[Europe/Madrid]</time>
      </trkpt>
      <trkpt lat="37.220025" lon="-5.328063">
        <ele>232.0</ele>
        <time>2022-09-26T11:16:00.921+02:00[Europe/Madrid]</time>
      </trkpt>
      <trkpt lat="37.219889" lon="-5.328263">
        <ele>231.0</ele>
        <time>2022-09-26T11:16:01.921+02:00[Europe/Madrid]</time>
      </trkpt>
      <trkpt lat="37.219755" lon="-5.328458">
        <ele>230.0</ele>
        <time>2022-09-26T11:16:02.921+02:00[Europe/Madrid]</time>
      </trkpt>
      <trkpt lat="37.219623" lon="-5.328645">
        <ele>230.0</ele>
        <time>2022-09-26T11:16:03.921+02:00[Europe/Madrid]</time>
      </trkpt>
      <trkpt lat="37.219494" lon="-5.328831">
        <ele>229.0</ele>
        <time>2022-09-26T11:16:04.921+02:00[Europe/Madrid]</time>
      </trkpt>
      <trkpt lat="37.219365" lon="-5.329019">
        <ele>229.0</ele>
        <time>2022-09-26T11:16:05.921+02:00[Europe/Madrid]</time>
      </trkpt>
      <trkpt lat="37.219232" lon="-5.329206">
        <ele>229.0</ele>
        <time>2022-09-26T11:16:06.921+02:00[Europe/Madrid]</time>
      </trkpt>
      <trkpt lat="37.219095" lon="-5.329395">
        <ele>228.0</ele>
        <time>2022-09-26T11:16:07.921+02:00[Europe/Madrid]</time>
      </trkpt>
      <trkpt lat="37.21896" lon="-5.32959">
        <ele>228.0</ele>
        <time>2022-09-26T11:16:08.921+02:00[Europe/Madrid]</time>
      </trkpt>
      <trkpt lat="37.218821" lon="-5.329783">
        <ele>228.0</ele>
        <time>2022-09-26T11:16:09.921+02:00[Europe/Madrid]</time>
      </trkpt>
      <trkpt lat="37.218686" lon="-5.329974">
        <ele>228.0</ele>
        <time>2022-09-26T11:16:10.921+02:00[Europe/Madrid]</time>
      </trkpt>
      <trkpt lat="37.218553" lon="-5.330156">
        <ele>227.0</ele>
        <time>2022-09-26T11:16:11.921+02:00[Europe/Madrid]</time>
      </trkpt>
      <trkpt lat="37.218424" lon="-5.330344">
        <ele>227.0</ele>
        <time>2022-09-26T11:16:12.921+02:00[Europe/Madrid]</time>
      </trkpt>
      <trkpt lat="37.218305" lon="-5.330539">
        <ele>227.0</ele>
        <time>2022-09-26T11:16:13.921+02:00[Europe/Madrid]</time>
      </trkpt>
      <trkpt lat="37.2182" lon="-5.330747">
        <ele>227.0</ele>
        <time>2022-09-26T11:16:14.921+02:00[Europe/Madrid]</time>
      </trkpt>
      <trkpt lat="37.218108" lon="-5.330966">
        <ele>227.0</ele>
        <time>2022-09-26T11:16:15.921+02:00[Europe/Madrid]</time>
      </trkpt>
      <trkpt lat="37.218033" lon="-5.33119">
        <ele>226.0</ele>
        <time>2022-09-26T11:16:16.921+02:00[Europe/Madrid]</time>
      </trkpt>
      <trkpt lat="37.217964" lon="-5.331422">
        <ele>226.0</ele>
        <time>2022-09-26T11:16:17.921+02:00[Europe/Madrid]</time>
      </trkpt>
      <trkpt lat="37.217891" lon="-5.331657">
        <ele>225.0</ele>
        <time>2022-09-26T11:16:18.921+02:00[Europe/Madrid]</time>
      </trkpt>
      <trkpt lat="37.217816" lon="-5.331896">
        <ele>225.0</ele>
        <time>2022-09-26T11:16:19.921+02:00[Europe/Madrid]</time>
      </trkpt>
      <trkpt lat="37.217742" lon="-5.332134">
        <ele>225.0</ele>
        <time>2022-09-26T11:16:21.004+02:00[Europe/Madrid]</time>
      </trkpt>
      <trkpt lat="37.217668" lon="-5.332374">
        <ele>225.0</ele>
        <time>2022-09-26T11:16:22.004+02:00[Europe/Madrid]</time>
      </trkpt>
      <trkpt lat="37.217596" lon="-5.332615">
        <ele>225.0</ele>
        <time>2022-09-26T11:16:23.004+02:00[Europe/Madrid]</time>
      </trkpt>
      <trkpt lat="37.217522" lon="-5.332855">
        <ele>225.0</ele>
        <time>2022-09-26T11:16:24.004+02:00[Europe/Madrid]</time>
      </trkpt>
      <trkpt lat="37.217443" lon="-5.333091">
        <ele>225.0</ele>
        <time>2022-09-26T11:16:25.004+02:00[Europe/Madrid]</time>
      </trkpt>
      <trkpt lat="37.21736" lon="-5.333321">
        <ele>225.0</ele>
        <time>2022-09-26T11:16:26.004+02:00[Europe/Madrid]</time>
      </trkpt>
      <trkpt lat="37.217264" lon="-5.333546">
        <ele>225.0</ele>
        <time>2022-09-26T11:16:27.004+02:00[Europe/Madrid]</time>
      </trkpt>
      <trkpt lat="37.217155" lon="-5.333764">
        <ele>226.0</ele>
        <time>2022-09-26T11:16:28.004+02:00[Europe/Madrid]</time>
      </trkpt>
      <trkpt lat="37.217029" lon="-5.333973">
        <ele>227.0</ele>
        <time>2022-09-26T11:16:29.004+02:00[Europe/Madrid]</time>
      </trkpt>
      <trkpt lat="37.216902" lon="-5.334181">
        <ele>227.0</ele>
        <time>2022-09-26T11:16:30.004+02:00[Europe/Madrid]</time>
      </trkpt>
      <trkpt lat="37.216774" lon="-5.334397">
        <ele>228.0</ele>
        <time>2022-09-26T11:16:31.004+02:00[Europe/Madrid]</time>
      </trkpt>
      <trkpt lat="37.216644" lon="-5.334614">
        <ele>229.0</ele>
        <time>2022-09-26T11:16:32.004+02:00[Europe/Madrid]</time>
      </trkpt>
      <trkpt lat="37.216514" lon="-5.334827">
        <ele>229.0</ele>
        <time>2022-09-26T11:16:33.004+02:00[Europe/Madrid]</time>
      </trkpt>
      <trkpt lat="37.216379" lon="-5.335043">
        <ele>230.0</ele>
        <time>2022-09-26T11:16:34.004+02:00[Europe/Madrid]</time>
      </trkpt>
      <trkpt lat="37.216242" lon="-5.335266">
        <ele>231.0</ele>
        <time>2022-09-26T11:16:35.004+02:00[Europe/Madrid]</time>
      </trkpt>
      <trkpt lat="37.216103" lon="-5.335487">
        <ele>231.0</ele>
        <time>2022-09-26T11:16:36.004+02:00[Europe/Madrid]</time>
      </trkpt>
      <trkpt lat="37.215965" lon="-5.335708">
        <ele>232.0</ele>
        <time>2022-09-26T11:16:37.004+02:00[Europe/Madrid]</time>
      </trkpt>
      <trkpt lat="37.215825" lon="-5.335932">
        <ele>232.0</ele>
        <time>2022-09-26T11:16:38.004+02:00[Europe/Madrid]</time>
      </trkpt>
      <trkpt lat="37.215689" lon="-5.33616">
        <ele>233.0</ele>
        <time>2022-09-26T11:16:39.004+02:00[Europe/Madrid]</time>
      </trkpt>
      <trkpt lat="37.215545" lon="-5.336372">
        <ele>233.0</ele>
        <time>2022-09-26T11:16:40.004+02:00[Europe/Madrid]</time>
      </trkpt>
      <trkpt lat="37.215408" lon="-5.336589">
        <ele>233.0</ele>
        <time>2022-09-26T11:16:41.004+02:00[Europe/Madrid]</time>
      </trkpt>
      <trkpt lat="37.215273" lon="-5.336804">
        <ele>233.0</ele>
        <time>2022-09-26T11:16:42.004+02:00[Europe/Madrid]</time>
      </trkpt>
      <trkpt lat="37.215144" lon="-5.337014">
        <ele>234.0</ele>
        <time>2022-09-26T11:16:43.004+02:00[Europe/Madrid]</time>
      </trkpt>
      <trkpt lat="37.215026" lon="-5.33721">
        <ele>234.0</ele>
        <time>2022-09-26T11:16:44.004+02:00[Europe/Madrid]</time>
      </trkpt>
      <trkpt lat="37.214914" lon="-5.337405">
        <ele>235.0</ele>
        <time>2022-09-26T11:16:45.004+02:00[Europe/Madrid]</time>
      </trkpt>
      <trkpt lat="37.214814" lon="-5.337606">
        <ele>235.0</ele>
        <time>2022-09-26T11:16:46.004+02:00[Europe/Madrid]</time>
      </trkpt>
      <trkpt lat="37.214729" lon="-5.337815">
        <ele>235.0</ele>
        <time>2022-09-26T11:16:47.004+02:00[Europe/Madrid]</time>
      </trkpt>
      <trkpt lat="37.214659" lon="-5.338037">
        <ele>235.0</ele>
        <time>2022-09-26T11:16:48.004+02:00[Europe/Madrid]</time>
      </trkpt>
      <trkpt lat="37.214601" lon="-5.33827">
        <ele>235.0</ele>
        <time>2022-09-26T11:16:49.004+02:00[Europe/Madrid]</time>
      </trkpt>
      <trkpt lat="37.214549" lon="-5.338514">
        <ele>235.0</ele>
        <time>2022-09-26T11:16:50.004+02:00[Europe/Madrid]</time>
      </trkpt>
      <trkpt lat="37.214496" lon="-5.338759">
        <ele>235.0</ele>
        <time>2022-09-26T11:16:51.004+02:00[Europe/Madrid]</time>
      </trkpt>
      <trkpt lat="37.214438" lon="-5.339012">
        <ele>235.0</ele>
        <time>2022-09-26T11:16:52.004+02:00[Europe/Madrid]</time>
      </trkpt>
      <trkpt lat="37.214382" lon="-5.339264">
        <ele>234.0</ele>
        <time>2022-09-26T11:16:53.004+02:00[Europe/Madrid]</time>
      </trkpt>
      <trkpt lat="37.214327" lon="-5.339509">
        <ele>234.0</ele>
        <time>2022-09-26T11:16:54.004+02:00[Europe/Madrid]</time>
      </trkpt>
      <trkpt lat="37.214274" lon="-5.339749">
        <ele>234.0</ele>
        <time>2022-09-26T11:16:55.004+02:00[Europe/Madrid]</time>
      </trkpt>
      <trkpt lat="37.21422" lon="-5.339989">
        <ele>234.0</ele>
        <time>2022-09-26T11:16:56.004+02:00[Europe/Madrid]</time>
      </trkpt>
      <trkpt lat="37.21417" lon="-5.340229">
        <ele>233.0</ele>
        <time>2022-09-26T11:16:57.004+02:00[Europe/Madrid]</time>
      </trkpt>
      <trkpt lat="37.214122" lon="-5.340469">
        <ele>233.0</ele>
        <time>2022-09-26T11:16:58.004+02:00[Europe/Madrid]</time>
      </trkpt>
      <trkpt lat="37.214068" lon="-5.340703">
        <ele>232.0</ele>
        <time>2022-09-26T11:16:59.004+02:00[Europe/Madrid]</time>
      </trkpt>
      <trkpt lat="37.214013" lon="-5.340937">
        <ele>231.0</ele>
        <time>2022-09-26T11:17:00.004+02:00[Europe/Madrid]</time>
      </trkpt>
      <trkpt lat="37.213948" lon="-5.341163">
        <ele>231.0</ele>
        <time>2022-09-26T11:17:01.004+02:00[Europe/Madrid]</time>
      </trkpt>
      <trkpt lat="37.213874" lon="-5.341381">
        <ele>230.0</ele>
        <time>2022-09-26T11:17:02.004+02:00[Europe/Madrid]</time>
      </trkpt>
      <trkpt lat="37.213788" lon="-5.341592">
        <ele>230.0</ele>
        <time>2022-09-26T11:17:03.004+02:00[Europe/Madrid]</time>
      </trkpt>
      <trkpt lat="37.213689" lon="-5.341799">
        <ele>229.0</ele>
        <time>2022-09-26T11:17:04.004+02:00[Europe/Madrid]</time>
      </trkpt>
      <trkpt lat="37.213583" lon="-5.342005">
        <ele>229.0</ele>
        <time>2022-09-26T11:17:05.004+02:00[Europe/Madrid]</time>
      </trkpt>
      <trkpt lat="37.213465" lon="-5.342211">
        <ele>228.0</ele>
        <time>2022-09-26T11:17:06.004+02:00[Europe/Madrid]</time>
      </trkpt>
      <trkpt lat="37.213342" lon="-5.342417">
        <ele>228.0</ele>
        <time>2022-09-26T11:17:07.004+02:00[Europe/Madrid]</time>
      </trkpt>
      <trkpt lat="37.213213" lon="-5.342624">
        <ele>227.0</ele>
        <time>2022-09-26T11:17:08.004+02:00[Europe/Madrid]</time>
      </trkpt>
      <trkpt lat="37.213082" lon="-5.342835">
        <ele>226.0</ele>
        <time>2022-09-26T11:17:09.004+02:00[Europe/Madrid]</time>
      </trkpt>
      <trkpt lat="37.212953" lon="-5.343048">
        <ele>226.0</ele>
        <time>2022-09-26T11:17:10.004+02:00[Europe/Madrid]</time>
      </trkpt>
      <trkpt lat="37.212821" lon="-5.34326">
        <ele>226.0</ele>
        <time>2022-09-26T11:17:11.004+02:00[Europe/Madrid]</time>
      </trkpt>
      <trkpt lat="37.212688" lon="-5.343468">
        <ele>227.0</ele>
        <time>2022-09-26T11:17:12.004+02:00[Europe/Madrid]</time>
      </trkpt>
      <trkpt lat="37.212559" lon="-5.34367">
        <ele>227.0</ele>
        <time>2022-09-26T11:17:13.004+02:00[Europe/Madrid]</time>
      </trkpt>
      <trkpt lat="37.212436" lon="-5.343867">
        <ele>229.0</ele>
        <time>2022-09-26T11:17:14.004+02:00[Europe/Madrid]</time>
      </trkpt>
      <trkpt lat="37.21232" lon="-5.344056">
        <ele>230.0</ele>
        <time>2022-09-26T11:17:15.004+02:00[Europe/Madrid]</time>
      </trkpt>
      <trkpt lat="37.212208" lon="-5.34424">
        <ele>231.0</ele>
        <time>2022-09-26T11:17:16.004+02:00[Europe/Madrid]</time>
      </trkpt>
      <trkpt lat="37.212101" lon="-5.34442">
        <ele>231.0</ele>
        <time>2022-09-26T11:17:17.004+02:00[Europe/Madrid]</time>
      </trkpt>
      <trkpt lat="37.211992" lon="-5.344601">
        <ele>231.0</ele>
        <time>2022-09-26T11:17:18.004+02:00[Europe/Madrid]</time>
      </trkpt>
      <trkpt lat="37.211885" lon="-5.344785">
        <ele>231.0</ele>
        <time>2022-09-26T11:17:19.004+02:00[Europe/Madrid]</time>
      </trkpt>
      <trkpt lat="37.211768" lon="-5.34497">
        <ele>231.0</ele>
        <time>2022-09-26T11:17:20.004+02:00[Europe/Madrid]</time>
      </trkpt>
      <trkpt lat="37.211649" lon="-5.345159">
        <ele>231.0</ele>
        <time>2022-09-26T11:17:21.004+02:00[Europe/Madrid]</time>
      </trkpt>
      <trkpt lat="37.211533" lon="-5.345351">
        <ele>230.0</ele>
        <time>2022-09-26T11:17:22.004+02:00[Europe/Madrid]</time>
      </trkpt>
      <trkpt lat="37.211414" lon="-5.345546">
        <ele>230.0</ele>
        <time>2022-09-26T11:17:23.004+02:00[Europe/Madrid]</time>
      </trkpt>
      <trkpt lat="37.211298" lon="-5.34575">
        <ele>230.0</ele>
        <time>2022-09-26T11:17:24.004+02:00[Europe/Madrid]</time>
      </trkpt>
      <trkpt lat="37.211188" lon="-5.345962">
        <ele>231.0</ele>
        <time>2022-09-26T11:17:25.004+02:00[Europe/Madrid]</time>
      </trkpt>
      <trkpt lat="37.211081" lon="-5.346176">
        <ele>230.0</ele>
        <time>2022-09-26T11:17:26.004+02:00[Europe/Madrid]</time>
      </trkpt>
      <trkpt lat="37.210977" lon="-5.346397">
        <ele>229.0</ele>
        <time>2022-09-26T11:17:27.004+02:00[Europe/Madrid]</time>
      </trkpt>
      <trkpt lat="37.210877" lon="-5.346618">
        <ele>229.0</ele>
        <time>2022-09-26T11:17:28.004+02:00[Europe/Madrid]</time>
      </trkpt>
      <trkpt lat="37.210776" lon="-5.346848">
        <ele>228.0</ele>
        <time>2022-09-26T11:17:29.004+02:00[Europe/Madrid]</time>
      </trkpt>
      <trkpt lat="37.210676" lon="-5.347076">
        <ele>228.0</ele>
        <time>2022-09-26T11:17:30.004+02:00[Europe/Madrid]</time>
      </trkpt>
      <trkpt lat="37.210577" lon="-5.347303">
        <ele>228.0</ele>
        <time>2022-09-26T11:17:31.004+02:00[Europe/Madrid]</time>
      </trkpt>
      <trkpt lat="37.210473" lon="-5.347529">
        <ele>228.0</ele>
        <time>2022-09-26T11:17:32.004+02:00[Europe/Madrid]</time>
      </trkpt>
      <trkpt lat="37.210373" lon="-5.347757">
        <ele>228.0</ele>
        <time>2022-09-26T11:17:33.004+02:00[Europe/Madrid]</time>
      </trkpt>
      <trkpt lat="37.210276" lon="-5.347981">
        <ele>228.0</ele>
        <time>2022-09-26T11:17:34.004+02:00[Europe/Madrid]</time>
      </trkpt>
      <trkpt lat="37.210181" lon="-5.348203">
        <ele>228.0</ele>
        <time>2022-09-26T11:17:35.004+02:00[Europe/Madrid]</time>
      </trkpt>
      <trkpt lat="37.210088" lon="-5.348426">
        <ele>228.0</ele>
        <time>2022-09-26T11:17:36.004+02:00[Europe/Madrid]</time>
      </trkpt>
      <trkpt lat="37.209993" lon="-5.348646">
        <ele>228.0</ele>
        <time>2022-09-26T11:17:37.004+02:00[Europe/Madrid]</time>
      </trkpt>
      <trkpt lat="37.2099" lon="-5.34887">
        <ele>228.0</ele>
        <time>2022-09-26T11:17:38.004+02:00[Europe/Madrid]</time>
      </trkpt>
      <trkpt lat="37.209817" lon="-5.349097">
        <ele>228.0</ele>
        <time>2022-09-26T11:17:39.004+02:00[Europe/Madrid]</time>
      </trkpt>
      <trkpt lat="37.209742" lon="-5.349336">
        <ele>228.0</ele>
        <time>2022-09-26T11:17:40.004+02:00[Europe/Madrid]</time>
      </trkpt>
      <trkpt lat="37.209675" lon="-5.349581">
        <ele>228.0</ele>
        <time>2022-09-26T11:17:41.004+02:00[Europe/Madrid]</time>
      </trkpt>
      <trkpt lat="37.209618" lon="-5.349834">
        <ele>228.0</ele>
        <time>2022-09-26T11:17:42.004+02:00[Europe/Madrid]</time>
      </trkpt>
      <trkpt lat="37.209578" lon="-5.350099">
        <ele>228.0</ele>
        <time>2022-09-26T11:17:43.004+02:00[Europe/Madrid]</time>
      </trkpt>
      <trkpt lat="37.209545" lon="-5.350362">
        <ele>229.0</ele>
        <time>2022-09-26T11:17:44.004+02:00[Europe/Madrid]</time>
      </trkpt>
      <trkpt lat="37.209512" lon="-5.350624">
        <ele>229.0</ele>
        <time>2022-09-26T11:17:45.004+02:00[Europe/Madrid]</time>
      </trkpt>
      <trkpt lat="37.209479" lon="-5.350888">
        <ele>230.0</ele>
        <time>2022-09-26T11:17:46.004+02:00[Europe/Madrid]</time>
      </trkpt>
      <trkpt lat="37.209447" lon="-5.351148">
        <ele>231.0</ele>
        <time>2022-09-26T11:17:47.004+02:00[Europe/Madrid]</time>
      </trkpt>
      <trkpt lat="37.209416" lon="-5.351407">
        <ele>231.0</ele>
        <time>2022-09-26T11:17:48.004+02:00[Europe/Madrid]</time>
      </trkpt>
      <trkpt lat="37.209382" lon="-5.351665">
        <ele>232.0</ele>
        <time>2022-09-26T11:17:49.004+02:00[Europe/Madrid]</time>
      </trkpt>
      <trkpt lat="37.209354" lon="-5.35192">
        <ele>232.0</ele>
        <time>2022-09-26T11:17:50.004+02:00[Europe/Madrid]</time>
      </trkpt>
      <trkpt lat="37.20932" lon="-5.352178">
        <ele>232.0</ele>
        <time>2022-09-26T11:17:51.004+02:00[Europe/Madrid]</time>
      </trkpt>
      <trkpt lat="37.209288" lon="-5.352436">
        <ele>232.0</ele>
        <time>2022-09-26T11:17:52.004+02:00[Europe/Madrid]</time>
      </trkpt>
      <trkpt lat="37.209259" lon="-5.35267">
        <ele>232.0</ele>
        <time>2022-09-26T11:17:53.004+02:00[Europe/Madrid]</time>
      </trkpt>
      <trkpt lat="37.209234" lon="-5.352883">
        <ele>232.0</ele>
        <time>2022-09-26T11:17:54.004+02:00[Europe/Madrid]</time>
      </trkpt>
      <trkpt lat="37.209213" lon="-5.353076">
        <ele>232.0</ele>
        <time>2022-09-26T11:17:55.004+02:00[Europe/Madrid]</time>
      </trkpt>
      <trkpt lat="37.20919" lon="-5.35326">
        <ele>233.0</ele>
        <time>2022-09-26T11:17:56.004+02:00[Europe/Madrid]</time>
      </trkpt>
      <trkpt lat="37.20916" lon="-5.353443">
        <ele>234.0</ele>
        <time>2022-09-26T11:17:57.004+02:00[Europe/Madrid]</time>
      </trkpt>
      <trkpt lat="37.209124" lon="-5.353638">
        <ele>235.0</ele>
        <time>2022-09-26T11:17:58.004+02:00[Europe/Madrid]</time>
      </trkpt>
      <trkpt lat="37.209092" lon="-5.353852">
        <ele>235.0</ele>
        <time>2022-09-26T11:17:59.004+02:00[Europe/Madrid]</time>
      </trkpt>
      <trkpt lat="37.209073" lon="-5.354081">
        <ele>236.0</ele>
        <time>2022-09-26T11:18:00.004+02:00[Europe/Madrid]</time>
      </trkpt>
      <trkpt lat="37.209054" lon="-5.354323">
        <ele>237.0</ele>
        <time>2022-09-26T11:18:01.004+02:00[Europe/Madrid]</time>
      </trkpt>
      <trkpt lat="37.209025" lon="-5.354577">
        <ele>238.0</ele>
        <time>2022-09-26T11:18:02.004+02:00[Europe/Madrid]</time>
      </trkpt>
      <trkpt lat="37.208993" lon="-5.354843">
        <ele>239.0</ele>
        <time>2022-09-26T11:18:03.004+02:00[Europe/Madrid]</time>
      </trkpt>
      <trkpt lat="37.208964" lon="-5.355109">
        <ele>240.0</ele>
        <time>2022-09-26T11:18:04.004+02:00[Europe/Madrid]</time>
      </trkpt>
      <trkpt lat="37.208931" lon="-5.355376">
        <ele>240.0</ele>
        <time>2022-09-26T11:18:05.004+02:00[Europe/Madrid]</time>
      </trkpt>
      <trkpt lat="37.208899" lon="-5.355637">
        <ele>241.0</ele>
        <time>2022-09-26T11:18:06.004+02:00[Europe/Madrid]</time>
      </trkpt>
      <trkpt lat="37.208868" lon="-5.355894">
        <ele>242.0</ele>
        <time>2022-09-26T11:18:07.004+02:00[Europe/Madrid]</time>
      </trkpt>
      <trkpt lat="37.208837" lon="-5.356149">
        <ele>243.0</ele>
        <time>2022-09-26T11:18:08.004+02:00[Europe/Madrid]</time>
      </trkpt>
      <trkpt lat="37.208809" lon="-5.356401">
        <ele>244.0</ele>
        <time>2022-09-26T11:18:09.004+02:00[Europe/Madrid]</time>
      </trkpt>
      <trkpt lat="37.208777" lon="-5.356651">
        <ele>245.0</ele>
        <time>2022-09-26T11:18:10.004+02:00[Europe/Madrid]</time>
      </trkpt>
      <trkpt lat="37.208736" lon="-5.356903">
        <ele>246.0</ele>
        <time>2022-09-26T11:18:11.004+02:00[Europe/Madrid]</time>
      </trkpt>
      <trkpt lat="37.208687" lon="-5.35715">
        <ele>247.0</ele>
        <time>2022-09-26T11:18:12.004+02:00[Europe/Madrid]</time>
      </trkpt>
      <trkpt lat="37.208624" lon="-5.357396">
        <ele>248.0</ele>
        <time>2022-09-26T11:18:13.004+02:00[Europe/Madrid]</time>
      </trkpt>
      <trkpt lat="37.208552" lon="-5.357638">
        <ele>249.0</ele>
        <time>2022-09-26T11:18:14.004+02:00[Europe/Madrid]</time>
      </trkpt>
      <trkpt lat="37.208471" lon="-5.357879">
        <ele>250.0</ele>
        <time>2022-09-26T11:18:15.004+02:00[Europe/Madrid]</time>
      </trkpt>
      <trkpt lat="37.20839" lon="-5.35811">
        <ele>250.0</ele>
        <time>2022-09-26T11:18:16.004+02:00[Europe/Madrid]</time>
      </trkpt>
      <trkpt lat="37.20831" lon="-5.358336">
        <ele>251.0</ele>
        <time>2022-09-26T11:18:17.004+02:00[Europe/Madrid]</time>
      </trkpt>
      <trkpt lat="37.208229" lon="-5.358559">
        <ele>251.0</ele>
        <time>2022-09-26T11:18:18.004+02:00[Europe/Madrid]</time>
      </trkpt>
      <trkpt lat="37.208151" lon="-5.358785">
        <ele>252.0</ele>
        <time>2022-09-26T11:18:19.004+02:00[Europe/Madrid]</time>
      </trkpt>
      <trkpt lat="37.208077" lon="-5.359013">
        <ele>252.0</ele>
        <time>2022-09-26T11:18:20.004+02:00[Europe/Madrid]</time>
      </trkpt>
      <trkpt lat="37.208007" lon="-5.359248">
        <ele>252.0</ele>
        <time>2022-09-26T11:18:21.004+02:00[Europe/Madrid]</time>
      </trkpt>
      <trkpt lat="37.207941" lon="-5.359486">
        <ele>252.0</ele>
        <time>2022-09-26T11:18:22.004+02:00[Europe/Madrid]</time>
      </trkpt>
      <trkpt lat="37.207874" lon="-5.359733">
        <ele>252.0</ele>
        <time>2022-09-26T11:18:23.004+02:00[Europe/Madrid]</time>
      </trkpt>
      <trkpt lat="37.207808" lon="-5.359987">
        <ele>251.0</ele>
        <time>2022-09-26T11:18:24.004+02:00[Europe/Madrid]</time>
      </trkpt>
      <trkpt lat="37.207743" lon="-5.360246">
        <ele>251.0</ele>
        <time>2022-09-26T11:18:25.004+02:00[Europe/Madrid]</time>
      </trkpt>
      <trkpt lat="37.207678" lon="-5.360515">
        <ele>250.0</ele>
        <time>2022-09-26T11:18:26.004+02:00[Europe/Madrid]</time>
      </trkpt>
      <trkpt lat="37.207615" lon="-5.360789">
        <ele>250.0</ele>
        <time>2022-09-26T11:18:27.004+02:00[Europe/Madrid]</time>
      </trkpt>
      <trkpt lat="37.207552" lon="-5.361063">
        <ele>250.0</ele>
        <time>2022-09-26T11:18:28.004+02:00[Europe/Madrid]</time>
      </trkpt>
      <trkpt lat="37.207486" lon="-5.361338">
        <ele>250.0</ele>
        <time>2022-09-26T11:18:29.004+02:00[Europe/Madrid]</time>
      </trkpt>
      <trkpt lat="37.207425" lon="-5.361608">
        <ele>250.0</ele>
        <time>2022-09-26T11:18:30.004+02:00[Europe/Madrid]</time>
      </trkpt>
      <trkpt lat="37.207366" lon="-5.36187">
        <ele>249.0</ele>
        <time>2022-09-26T11:18:31.004+02:00[Europe/Madrid]</time>
      </trkpt>
      <trkpt lat="37.207309" lon="-5.362127">
        <ele>249.0</ele>
        <time>2022-09-26T11:18:32.004+02:00[Europe/Madrid]</time>
      </trkpt>
      <trkpt lat="37.207254" lon="-5.362376">
        <ele>249.0</ele>
        <time>2022-09-26T11:18:33.004+02:00[Europe/Madrid]</time>
      </trkpt>
      <trkpt lat="37.207199" lon="-5.362616">
        <ele>249.0</ele>
        <time>2022-09-26T11:18:34.004+02:00[Europe/Madrid]</time>
      </trkpt>
      <trkpt lat="37.207146" lon="-5.362848">
        <ele>249.0</ele>
        <time>2022-09-26T11:18:35.004+02:00[Europe/Madrid]</time>
      </trkpt>
      <trkpt lat="37.207096" lon="-5.363075">
        <ele>249.0</ele>
        <time>2022-09-26T11:18:36.004+02:00[Europe/Madrid]</time>
      </trkpt>
      <trkpt lat="37.20705" lon="-5.363296">
        <ele>248.0</ele>
        <time>2022-09-26T11:18:37.004+02:00[Europe/Madrid]</time>
      </trkpt>
      <trkpt lat="37.207" lon="-5.363511">
        <ele>248.0</ele>
        <time>2022-09-26T11:18:38.004+02:00[Europe/Madrid]</time>
      </trkpt>
      <trkpt lat="37.206951" lon="-5.363725">
        <ele>248.0</ele>
        <time>2022-09-26T11:18:39.004+02:00[Europe/Madrid]</time>
      </trkpt>
      <trkpt lat="37.206898" lon="-5.363949">
        <ele>248.0</ele>
        <time>2022-09-26T11:18:40.004+02:00[Europe/Madrid]</time>
      </trkpt>
      <trkpt lat="37.206846" lon="-5.364177">
        <ele>248.0</ele>
        <time>2022-09-26T11:18:41.004+02:00[Europe/Madrid]</time>
      </trkpt>
      <trkpt lat="37.206794" lon="-5.364412">
        <ele>249.0</ele>
        <time>2022-09-26T11:18:42.004+02:00[Europe/Madrid]</time>
      </trkpt>
      <trkpt lat="37.206739" lon="-5.36465">
        <ele>249.0</ele>
        <time>2022-09-26T11:18:43.004+02:00[Europe/Madrid]</time>
      </trkpt>
      <trkpt lat="37.206684" lon="-5.364895">
        <ele>249.0</ele>
        <time>2022-09-26T11:18:44.004+02:00[Europe/Madrid]</time>
      </trkpt>
      <trkpt lat="37.206626" lon="-5.365142">
        <ele>250.0</ele>
        <time>2022-09-26T11:18:45.004+02:00[Europe/Madrid]</time>
      </trkpt>
      <trkpt lat="37.206564" lon="-5.365386">
        <ele>251.0</ele>
        <time>2022-09-26T11:18:46.004+02:00[Europe/Madrid]</time>
      </trkpt>
      <trkpt lat="37.206501" lon="-5.365631">
        <ele>252.0</ele>
        <time>2022-09-26T11:18:47.004+02:00[Europe/Madrid]</time>
      </trkpt>
      <trkpt lat="37.206436" lon="-5.365874">
        <ele>252.0</ele>
        <time>2022-09-26T11:18:48.004+02:00[Europe/Madrid]</time>
      </trkpt>
      <trkpt lat="37.206365" lon="-5.366117">
        <ele>252.0</ele>
        <time>2022-09-26T11:18:49.004+02:00[Europe/Madrid]</time>
      </trkpt>
      <trkpt lat="37.206293" lon="-5.366366">
        <ele>253.0</ele>
        <time>2022-09-26T11:18:50.004+02:00[Europe/Madrid]</time>
      </trkpt>
      <trkpt lat="37.206214" lon="-5.366613">
        <ele>253.0</ele>
        <time>2022-09-26T11:18:51.004+02:00[Europe/Madrid]</time>
      </trkpt>
      <trkpt lat="37.206132" lon="-5.366862">
        <ele>254.0</ele>
        <time>2022-09-26T11:18:52.004+02:00[Europe/Madrid]</time>
      </trkpt>
      <trkpt lat="37.206045" lon="-5.36711">
        <ele>255.0</ele>
        <time>2022-09-26T11:18:53.004+02:00[Europe/Madrid]</time>
      </trkpt>
      <trkpt lat="37.205955" lon="-5.367363">
        <ele>256.0</ele>
        <time>2022-09-26T11:18:54.004+02:00[Europe/Madrid]</time>
      </trkpt>
      <trkpt lat="37.205863" lon="-5.36761">
        <ele>256.0</ele>
        <time>2022-09-26T11:18:55.004+02:00[Europe/Madrid]</time>
      </trkpt>
      <trkpt lat="37.20576" lon="-5.367859">
        <ele>257.0</ele>
        <time>2022-09-26T11:18:56.004+02:00[Europe/Madrid]</time>
      </trkpt>
      <trkpt lat="37.205646" lon="-5.3681">
        <ele>258.0</ele>
        <time>2022-09-26T11:18:57.005+02:00[Europe/Madrid]</time>
      </trkpt>
      <trkpt lat="37.205524" lon="-5.368335">
        <ele>259.0</ele>
        <time>2022-09-26T11:18:58.005+02:00[Europe/Madrid]</time>
      </trkpt>
      <trkpt lat="37.205396" lon="-5.368573">
        <ele>260.0</ele>
        <time>2022-09-26T11:18:59.005+02:00[Europe/Madrid]</time>
      </trkpt>
      <trkpt lat="37.205262" lon="-5.368812">
        <ele>261.0</ele>
        <time>2022-09-26T11:19:00.005+02:00[Europe/Madrid]</time>
      </trkpt>
      <trkpt lat="37.205129" lon="-5.369049">
        <ele>262.0</ele>
        <time>2022-09-26T11:19:01.005+02:00[Europe/Madrid]</time>
      </trkpt>
      <trkpt lat="37.204999" lon="-5.36928">
        <ele>263.0</ele>
        <time>2022-09-26T11:19:02.005+02:00[Europe/Madrid]</time>
      </trkpt>
      <trkpt lat="37.204878" lon="-5.369492">
        <ele>263.0</ele>
        <time>2022-09-26T11:19:03.005+02:00[Europe/Madrid]</time>
      </trkpt>
      <trkpt lat="37.204758" lon="-5.369688">
        <ele>264.0</ele>
        <time>2022-09-26T11:19:04.005+02:00[Europe/Madrid]</time>
      </trkpt>
      <trkpt lat="37.204646" lon="-5.369874">
        <ele>265.0</ele>
        <time>2022-09-26T11:19:05.005+02:00[Europe/Madrid]</time>
      </trkpt>
      <trkpt lat="37.204531" lon="-5.370058">
        <ele>265.0</ele>
        <time>2022-09-26T11:19:06.005+02:00[Europe/Madrid]</time>
      </trkpt>
      <trkpt lat="37.204414" lon="-5.370241">
        <ele>265.0</ele>
        <time>2022-09-26T11:19:07.005+02:00[Europe/Madrid]</time>
      </trkpt>
      <trkpt lat="37.204291" lon="-5.370428">
        <ele>264.0</ele>
        <time>2022-09-26T11:19:08.005+02:00[Europe/Madrid]</time>
      </trkpt>
      <trkpt lat="37.204167" lon="-5.370626">
        <ele>264.0</ele>
        <time>2022-09-26T11:19:09.005+02:00[Europe/Madrid]</time>
      </trkpt>
      <trkpt lat="37.204036" lon="-5.370824">
        <ele>263.0</ele>
        <time>2022-09-26T11:19:10.005+02:00[Europe/Madrid]</time>
      </trkpt>
      <trkpt lat="37.203901" lon="-5.371025">
        <ele>262.0</ele>
        <time>2022-09-26T11:19:11.005+02:00[Europe/Madrid]</time>
      </trkpt>
      <trkpt lat="37.203767" lon="-5.371235">
        <ele>262.0</ele>
        <time>2022-09-26T11:19:12.005+02:00[Europe/Madrid]</time>
      </trkpt>
      <trkpt lat="37.203625" lon="-5.371447">
        <ele>261.0</ele>
        <time>2022-09-26T11:19:13.005+02:00[Europe/Madrid]</time>
      </trkpt>
      <trkpt lat="37.203482" lon="-5.371664">
        <ele>260.0</ele>
        <time>2022-09-26T11:19:14.005+02:00[Europe/Madrid]</time>
      </trkpt>
      <trkpt lat="37.203331" lon="-5.37188">
        <ele>259.0</ele>
        <time>2022-09-26T11:19:15.005+02:00[Europe/Madrid]</time>
      </trkpt>
      <trkpt lat="37.203183" lon="-5.372105">
        <ele>259.0</ele>
        <time>2022-09-26T11:19:16.005+02:00[Europe/Madrid]</time>
      </trkpt>
      <trkpt lat="37.20303" lon="-5.372334">
        <ele>258.0</ele>
        <time>2022-09-26T11:19:17.005+02:00[Europe/Madrid]</time>
      </trkpt>
      <trkpt lat="37.202875" lon="-5.372565">
        <ele>258.0</ele>
        <time>2022-09-26T11:19:18.005+02:00[Europe/Madrid]</time>
      </trkpt>
      <trkpt lat="37.202719" lon="-5.372799">
        <ele>257.0</ele>
        <time>2022-09-26T11:19:19.005+02:00[Europe/Madrid]</time>
      </trkpt>
      <trkpt lat="37.202563" lon="-5.373033">
        <ele>257.0</ele>
        <time>2022-09-26T11:19:20.005+02:00[Europe/Madrid]</time>
      </trkpt>
      <trkpt lat="37.202406" lon="-5.373268">
        <ele>256.0</ele>
        <time>2022-09-26T11:19:21.005+02:00[Europe/Madrid]</time>
      </trkpt>
      <trkpt lat="37.202247" lon="-5.373508">
        <ele>256.0</ele>
        <time>2022-09-26T11:19:22.005+02:00[Europe/Madrid]</time>
      </trkpt>
      <trkpt lat="37.202084" lon="-5.373743">
        <ele>255.0</ele>
        <time>2022-09-26T11:19:23.005+02:00[Europe/Madrid]</time>
      </trkpt>
      <trkpt lat="37.201921" lon="-5.373986">
        <ele>255.0</ele>
        <time>2022-09-26T11:19:24.005+02:00[Europe/Madrid]</time>
      </trkpt>
      <trkpt lat="37.20176" lon="-5.374227">
        <ele>254.0</ele>
        <time>2022-09-26T11:19:25.005+02:00[Europe/Madrid]</time>
      </trkpt>
      <trkpt lat="37.201597" lon="-5.374469">
        <ele>253.0</ele>
        <time>2022-09-26T11:19:26.005+02:00[Europe/Madrid]</time>
      </trkpt>
      <trkpt lat="37.201435" lon="-5.37471">
        <ele>253.0</ele>
        <time>2022-09-26T11:19:27.005+02:00[Europe/Madrid]</time>
      </trkpt>
      <trkpt lat="37.201273" lon="-5.374949">
        <ele>252.0</ele>
        <time>2022-09-26T11:19:28.005+02:00[Europe/Madrid]</time>
      </trkpt>
      <trkpt lat="37.201114" lon="-5.375187">
        <ele>252.0</ele>
        <time>2022-09-26T11:19:29.005+02:00[Europe/Madrid]</time>
      </trkpt>
      <trkpt lat="37.200958" lon="-5.37542">
        <ele>252.0</ele>
        <time>2022-09-26T11:19:30.005+02:00[Europe/Madrid]</time>
      </trkpt>
      <trkpt lat="37.200804" lon="-5.37565">
        <ele>252.0</ele>
        <time>2022-09-26T11:19:31.005+02:00[Europe/Madrid]</time>
      </trkpt>
      <trkpt lat="37.200653" lon="-5.375877">
        <ele>252.0</ele>
        <time>2022-09-26T11:19:32.005+02:00[Europe/Madrid]</time>
      </trkpt>
      <trkpt lat="37.200504" lon="-5.376097">
        <ele>252.0</ele>
        <time>2022-09-26T11:19:33.005+02:00[Europe/Madrid]</time>
      </trkpt>
      <trkpt lat="37.200356" lon="-5.376318">
        <ele>251.0</ele>
        <time>2022-09-26T11:19:34.005+02:00[Europe/Madrid]</time>
      </trkpt>
      <trkpt lat="37.20021" lon="-5.376533">
        <ele>250.0</ele>
        <time>2022-09-26T11:19:35.005+02:00[Europe/Madrid]</time>
      </trkpt>
      <trkpt lat="37.200062" lon="-5.37675">
        <ele>249.0</ele>
        <time>2022-09-26T11:19:36.005+02:00[Europe/Madrid]</time>
      </trkpt>
      <trkpt lat="37.199918" lon="-5.376968">
        <ele>249.0</ele>
        <time>2022-09-26T11:19:37.005+02:00[Europe/Madrid]</time>
      </trkpt>
      <trkpt lat="37.19977" lon="-5.377185">
        <ele>248.0</ele>
        <time>2022-09-26T11:19:38.005+02:00[Europe/Madrid]</time>
      </trkpt>
      <trkpt lat="37.199622" lon="-5.377401">
        <ele>247.0</ele>
        <time>2022-09-26T11:19:39.005+02:00[Europe/Madrid]</time>
      </trkpt>
      <trkpt lat="37.199478" lon="-5.377616">
        <ele>247.0</ele>
        <time>2022-09-26T11:19:40.005+02:00[Europe/Madrid]</time>
      </trkpt>
      <trkpt lat="37.199333" lon="-5.377829">
        <ele>246.0</ele>
        <time>2022-09-26T11:19:41.005+02:00[Europe/Madrid]</time>
      </trkpt>
      <trkpt lat="37.199191" lon="-5.37804">
        <ele>246.0</ele>
        <time>2022-09-26T11:19:42.005+02:00[Europe/Madrid]</time>
      </trkpt>
      <trkpt lat="37.199052" lon="-5.378248">
        <ele>246.0</ele>
        <time>2022-09-26T11:19:43.005+02:00[Europe/Madrid]</time>
      </trkpt>
      <trkpt lat="37.198911" lon="-5.378457">
        <ele>246.0</ele>
        <time>2022-09-26T11:19:44.005+02:00[Europe/Madrid]</time>
      </trkpt>
      <trkpt lat="37.198767" lon="-5.378667">
        <ele>246.0</ele>
        <time>2022-09-26T11:19:45.005+02:00[Europe/Madrid]</time>
      </trkpt>
      <trkpt lat="37.198625" lon="-5.378882">
        <ele>247.0</ele>
        <time>2022-09-26T11:19:46.005+02:00[Europe/Madrid]</time>
      </trkpt>
      <trkpt lat="37.198481" lon="-5.379092">
        <ele>247.0</ele>
        <time>2022-09-26T11:19:47.005+02:00[Europe/Madrid]</time>
      </trkpt>
      <trkpt lat="37.198337" lon="-5.379307">
        <ele>247.0</ele>
        <time>2022-09-26T11:19:48.005+02:00[Europe/Madrid]</time>
      </trkpt>
      <trkpt lat="37.19819" lon="-5.379524">
        <ele>248.0</ele>
        <time>2022-09-26T11:19:49.005+02:00[Europe/Madrid]</time>
      </trkpt>
      <trkpt lat="37.198044" lon="-5.379741">
        <ele>249.0</ele>
        <time>2022-09-26T11:19:50.005+02:00[Europe/Madrid]</time>
      </trkpt>
      <trkpt lat="37.197897" lon="-5.379958">
        <ele>250.0</ele>
        <time>2022-09-26T11:19:51.005+02:00[Europe/Madrid]</time>
      </trkpt>
      <trkpt lat="37.197746" lon="-5.380176">
        <ele>250.0</ele>
        <time>2022-09-26T11:19:52.005+02:00[Europe/Madrid]</time>
      </trkpt>
      <trkpt lat="37.197597" lon="-5.380397">
        <ele>251.0</ele>
        <time>2022-09-26T11:19:53.005+02:00[Europe/Madrid]</time>
      </trkpt>
      <trkpt lat="37.197441" lon="-5.380625">
        <ele>252.0</ele>
        <time>2022-09-26T11:19:54.005+02:00[Europe/Madrid]</time>
      </trkpt>
      <trkpt lat="37.197286" lon="-5.380855">
        <ele>253.0</ele>
        <time>2022-09-26T11:19:55.005+02:00[Europe/Madrid]</time>
      </trkpt>
      <trkpt lat="37.197139" lon="-5.381075">
        <ele>254.0</ele>
        <time>2022-09-26T11:19:56.005+02:00[Europe/Madrid]</time>
      </trkpt>
      <trkpt lat="37.197001" lon="-5.381297">
        <ele>254.0</ele>
        <time>2022-09-26T11:19:57.005+02:00[Europe/Madrid]</time>
      </trkpt>
      <trkpt lat="37.196874" lon="-5.381503">
        <ele>255.0</ele>
        <time>2022-09-26T11:19:58.005+02:00[Europe/Madrid]</time>
      </trkpt>
      <trkpt lat="37.196752" lon="-5.381695">
        <ele>256.0</ele>
        <time>2022-09-26T11:19:59.005+02:00[Europe/Madrid]</time>
      </trkpt>
      <trkpt lat="37.196634" lon="-5.381883">
        <ele>256.0</ele>
        <time>2022-09-26T11:20:00.005+02:00[Europe/Madrid]</time>
      </trkpt>
      <trkpt lat="37.196513" lon="-5.382079">
        <ele>256.0</ele>
        <time>2022-09-26T11:20:01.005+02:00[Europe/Madrid]</time>
      </trkpt>
      <trkpt lat="37.196388" lon="-5.382289">
        <ele>255.0</ele>
        <time>2022-09-26T11:20:02.005+02:00[Europe/Madrid]</time>
      </trkpt>
      <trkpt lat="37.196265" lon="-5.38251">
        <ele>254.0</ele>
        <time>2022-09-26T11:20:03.005+02:00[Europe/Madrid]</time>
      </trkpt>
      <trkpt lat="37.196138" lon="-5.382733">
        <ele>254.0</ele>
        <time>2022-09-26T11:20:04.005+02:00[Europe/Madrid]</time>
      </trkpt>
      <trkpt lat="37.196008" lon="-5.382962">
        <ele>253.0</ele>
        <time>2022-09-26T11:20:05.005+02:00[Europe/Madrid]</time>
      </trkpt>
      <trkpt lat="37.195875" lon="-5.383199">
        <ele>253.0</ele>
        <time>2022-09-26T11:20:06.005+02:00[Europe/Madrid]</time>
      </trkpt>
      <trkpt lat="37.195743" lon="-5.38344">
        <ele>252.0</ele>
        <time>2022-09-26T11:20:07.005+02:00[Europe/Madrid]</time>
      </trkpt>
      <trkpt lat="37.195607" lon="-5.383686">
        <ele>251.0</ele>
        <time>2022-09-26T11:20:08.005+02:00[Europe/Madrid]</time>
      </trkpt>
      <trkpt lat="37.195468" lon="-5.383939">
        <ele>251.0</ele>
        <time>2022-09-26T11:20:09.005+02:00[Europe/Madrid]</time>
      </trkpt>
      <trkpt lat="37.195327" lon="-5.384191">
        <ele>250.0</ele>
        <time>2022-09-26T11:20:10.005+02:00[Europe/Madrid]</time>
      </trkpt>
      <trkpt lat="37.195182" lon="-5.384448">
        <ele>249.0</ele>
        <time>2022-09-26T11:20:11.005+02:00[Europe/Madrid]</time>
      </trkpt>
      <trkpt lat="37.19504" lon="-5.384704">
        <ele>249.0</ele>
        <time>2022-09-26T11:20:12.005+02:00[Europe/Madrid]</time>
      </trkpt>
      <trkpt lat="37.194896" lon="-5.384962">
        <ele>249.0</ele>
        <time>2022-09-26T11:20:13.005+02:00[Europe/Madrid]</time>
      </trkpt>
      <trkpt lat="37.19475" lon="-5.38522">
        <ele>249.0</ele>
        <time>2022-09-26T11:20:14.005+02:00[Europe/Madrid]</time>
      </trkpt>
      <trkpt lat="37.194603" lon="-5.385474">
        <ele>249.0</ele>
        <time>2022-09-26T11:20:15.005+02:00[Europe/Madrid]</time>
      </trkpt>
      <trkpt lat="37.194456" lon="-5.385733">
        <ele>249.0</ele>
        <time>2022-09-26T11:20:16.005+02:00[Europe/Madrid]</time>
      </trkpt>
      <trkpt lat="37.194312" lon="-5.385995">
        <ele>249.0</ele>
        <time>2022-09-26T11:20:17.005+02:00[Europe/Madrid]</time>
      </trkpt>
      <trkpt lat="37.194171" lon="-5.386257">
        <ele>248.0</ele>
        <time>2022-09-26T11:20:18.005+02:00[Europe/Madrid]</time>
      </trkpt>
      <trkpt lat="37.19403" lon="-5.386516">
        <ele>248.0</ele>
        <time>2022-09-26T11:20:19.005+02:00[Europe/Madrid]</time>
      </trkpt>
      <trkpt lat="37.193891" lon="-5.386766">
        <ele>248.0</ele>
        <time>2022-09-26T11:20:20.005+02:00[Europe/Madrid]</time>
      </trkpt>
      <trkpt lat="37.193753" lon="-5.387012">
        <ele>248.0</ele>
        <time>2022-09-26T11:20:21.005+02:00[Europe/Madrid]</time>
      </trkpt>
      <trkpt lat="37.193617" lon="-5.387256">
        <ele>248.0</ele>
        <time>2022-09-26T11:20:22.005+02:00[Europe/Madrid]</time>
      </trkpt>
      <trkpt lat="37.19348" lon="-5.387499">
        <ele>248.0</ele>
        <time>2022-09-26T11:20:23.005+02:00[Europe/Madrid]</time>
      </trkpt>
      <trkpt lat="37.193343" lon="-5.387744">
        <ele>248.0</ele>
        <time>2022-09-26T11:20:24.005+02:00[Europe/Madrid]</time>
      </trkpt>
      <trkpt lat="37.193207" lon="-5.387984">
        <ele>248.0</ele>
        <time>2022-09-26T11:20:25.005+02:00[Europe/Madrid]</time>
      </trkpt>
      <trkpt lat="37.193074" lon="-5.388219">
        <ele>247.0</ele>
        <time>2022-09-26T11:20:26.005+02:00[Europe/Madrid]</time>
      </trkpt>
      <trkpt lat="37.192944" lon="-5.388455">
        <ele>247.0</ele>
        <time>2022-09-26T11:20:27.005+02:00[Europe/Madrid]</time>
      </trkpt>
      <trkpt lat="37.192814" lon="-5.388692">
        <ele>247.0</ele>
        <time>2022-09-26T11:20:28.005+02:00[Europe/Madrid]</time>
      </trkpt>
      <trkpt lat="37.192681" lon="-5.388925">
        <ele>247.0</ele>
        <time>2022-09-26T11:20:29.005+02:00[Europe/Madrid]</time>
      </trkpt>
      <trkpt lat="37.19255" lon="-5.389159">
        <ele>247.0</ele>
        <time>2022-09-26T11:20:30.005+02:00[Europe/Madrid]</time>
      </trkpt>
      <trkpt lat="37.192414" lon="-5.389393">
        <ele>246.0</ele>
        <time>2022-09-26T11:20:31.005+02:00[Europe/Madrid]</time>
      </trkpt>
      <trkpt lat="37.192278" lon="-5.389637">
        <ele>246.0</ele>
        <time>2022-09-26T11:20:32.005+02:00[Europe/Madrid]</time>
      </trkpt>
      <trkpt lat="37.192142" lon="-5.389885">
        <ele>246.0</ele>
        <time>2022-09-26T11:20:33.005+02:00[Europe/Madrid]</time>
      </trkpt>
      <trkpt lat="37.192004" lon="-5.390135">
        <ele>246.0</ele>
        <time>2022-09-26T11:20:34.005+02:00[Europe/Madrid]</time>
      </trkpt>
      <trkpt lat="37.191865" lon="-5.390384">
        <ele>245.0</ele>
        <time>2022-09-26T11:20:35.005+02:00[Europe/Madrid]</time>
      </trkpt>
      <trkpt lat="37.191726" lon="-5.390633">
        <ele>245.0</ele>
        <time>2022-09-26T11:20:36.005+02:00[Europe/Madrid]</time>
      </trkpt>
      <trkpt lat="37.191592" lon="-5.39088">
        <ele>245.0</ele>
        <time>2022-09-26T11:20:37.005+02:00[Europe/Madrid]</time>
      </trkpt>
      <trkpt lat="37.191465" lon="-5.391115">
        <ele>245.0</ele>
        <time>2022-09-26T11:20:38.005+02:00[Europe/Madrid]</time>
      </trkpt>
      <trkpt lat="37.191339" lon="-5.391347">
        <ele>246.0</ele>
        <time>2022-09-26T11:20:39.005+02:00[Europe/Madrid]</time>
      </trkpt>
      <trkpt lat="37.191214" lon="-5.391575">
        <ele>246.0</ele>
        <time>2022-09-26T11:20:40.005+02:00[Europe/Madrid]</time>
      </trkpt>
      <trkpt lat="37.191091" lon="-5.391796">
        <ele>246.0</ele>
        <time>2022-09-26T11:20:41.005+02:00[Europe/Madrid]</time>
      </trkpt>
      <trkpt lat="37.190968" lon="-5.392012">
        <ele>246.0</ele>
        <time>2022-09-26T11:20:42.005+02:00[Europe/Madrid]</time>
      </trkpt>
      <trkpt lat="37.19084" lon="-5.392219">
        <ele>246.0</ele>
        <time>2022-09-26T11:20:43.005+02:00[Europe/Madrid]</time>
      </trkpt>
      <trkpt lat="37.190708" lon="-5.392422">
        <ele>247.0</ele>
        <time>2022-09-26T11:20:44.005+02:00[Europe/Madrid]</time>
      </trkpt>
      <trkpt lat="37.190567" lon="-5.392611">
        <ele>247.0</ele>
        <time>2022-09-26T11:20:45.005+02:00[Europe/Madrid]</time>
      </trkpt>
      <trkpt lat="37.190415" lon="-5.392788">
        <ele>247.0</ele>
        <time>2022-09-26T11:20:46.005+02:00[Europe/Madrid]</time>
      </trkpt>
      <trkpt lat="37.190249" lon="-5.392959">
        <ele>247.0</ele>
        <time>2022-09-26T11:20:47.005+02:00[Europe/Madrid]</time>
      </trkpt>
      <trkpt lat="37.190077" lon="-5.393124">
        <ele>247.0</ele>
        <time>2022-09-26T11:20:48.005+02:00[Europe/Madrid]</time>
      </trkpt>
      <trkpt lat="37.189894" lon="-5.393292">
        <ele>247.0</ele>
        <time>2022-09-26T11:20:49.005+02:00[Europe/Madrid]</time>
      </trkpt>
      <trkpt lat="37.189709" lon="-5.393461">
        <ele>247.0</ele>
        <time>2022-09-26T11:20:50.005+02:00[Europe/Madrid]</time>
      </trkpt>
      <trkpt lat="37.18952" lon="-5.393634">
        <ele>248.0</ele>
        <time>2022-09-26T11:20:51.005+02:00[Europe/Madrid]</time>
      </trkpt>
      <trkpt lat="37.189326" lon="-5.393812">
        <ele>248.0</ele>
        <time>2022-09-26T11:20:52.005+02:00[Europe/Madrid]</time>
      </trkpt>
      <trkpt lat="37.189127" lon="-5.39399">
        <ele>249.0</ele>
        <time>2022-09-26T11:20:53.005+02:00[Europe/Madrid]</time>
      </trkpt>
      <trkpt lat="37.188924" lon="-5.394171">
        <ele>249.0</ele>
        <time>2022-09-26T11:20:54.005+02:00[Europe/Madrid]</time>
      </trkpt>
      <trkpt lat="37.188718" lon="-5.394354">
        <ele>250.0</ele>
        <time>2022-09-26T11:20:55.005+02:00[Europe/Madrid]</time>
      </trkpt>
      <trkpt lat="37.188515" lon="-5.394539">
        <ele>251.0</ele>
        <time>2022-09-26T11:20:56.005+02:00[Europe/Madrid]</time>
      </trkpt>
      <trkpt lat="37.188309" lon="-5.394728">
        <ele>252.0</ele>
        <time>2022-09-26T11:20:57.005+02:00[Europe/Madrid]</time>
      </trkpt>
      <trkpt lat="37.188097" lon="-5.39492">
        <ele>252.0</ele>
        <time>2022-09-26T11:20:58.005+02:00[Europe/Madrid]</time>
      </trkpt>
      <trkpt lat="37.187883" lon="-5.39511">
        <ele>253.0</ele>
        <time>2022-09-26T11:20:59.005+02:00[Europe/Madrid]</time>
      </trkpt>
      <trkpt lat="37.187668" lon="-5.395301">
        <ele>254.0</ele>
        <time>2022-09-26T11:21:00.005+02:00[Europe/Madrid]</time>
      </trkpt>
      <trkpt lat="37.187461" lon="-5.395489">
        <ele>254.0</ele>
        <time>2022-09-26T11:21:01.005+02:00[Europe/Madrid]</time>
      </trkpt>
      <trkpt lat="37.187261" lon="-5.395671">
        <ele>255.0</ele>
        <time>2022-09-26T11:21:02.005+02:00[Europe/Madrid]</time>
      </trkpt>
      <trkpt lat="37.187061" lon="-5.395853">
        <ele>256.0</ele>
        <time>2022-09-26T11:21:03.005+02:00[Europe/Madrid]</time>
      </trkpt>
      <trkpt lat="37.186861" lon="-5.396032">
        <ele>257.0</ele>
        <time>2022-09-26T11:21:04.005+02:00[Europe/Madrid]</time>
      </trkpt>
      <trkpt lat="37.186664" lon="-5.396209">
        <ele>258.0</ele>
        <time>2022-09-26T11:21:05.005+02:00[Europe/Madrid]</time>
      </trkpt>
      <trkpt lat="37.18648" lon="-5.396373">
        <ele>258.0</ele>
        <time>2022-09-26T11:21:06.005+02:00[Europe/Madrid]</time>
      </trkpt>
      <trkpt lat="37.186306" lon="-5.396531">
        <ele>259.0</ele>
        <time>2022-09-26T11:21:07.005+02:00[Europe/Madrid]</time>
      </trkpt>
      <trkpt lat="37.186143" lon="-5.396672">
        <ele>260.0</ele>
        <time>2022-09-26T11:21:08.005+02:00[Europe/Madrid]</time>
      </trkpt>
      <trkpt lat="37.185989" lon="-5.396806">
        <ele>260.0</ele>
        <time>2022-09-26T11:21:09.005+02:00[Europe/Madrid]</time>
      </trkpt>
      <trkpt lat="37.185832" lon="-5.396936">
        <ele>260.0</ele>
        <time>2022-09-26T11:21:10.005+02:00[Europe/Madrid]</time>
      </trkpt>
      <trkpt lat="37.185666" lon="-5.397072">
        <ele>259.0</ele>
        <time>2022-09-26T11:21:11.005+02:00[Europe/Madrid]</time>
      </trkpt>
      <trkpt lat="37.185495" lon="-5.397204">
        <ele>258.0</ele>
        <time>2022-09-26T11:21:12.005+02:00[Europe/Madrid]</time>
      </trkpt>
      <trkpt lat="37.185314" lon="-5.397343">
        <ele>258.0</ele>
        <time>2022-09-26T11:21:13.005+02:00[Europe/Madrid]</time>
      </trkpt>
      <trkpt lat="37.185129" lon="-5.397485">
        <ele>257.0</ele>
        <time>2022-09-26T11:21:14.005+02:00[Europe/Madrid]</time>
      </trkpt>
      <trkpt lat="37.184939" lon="-5.397628">
        <ele>255.0</ele>
        <time>2022-09-26T11:21:15.005+02:00[Europe/Madrid]</time>
      </trkpt>
      <trkpt lat="37.184743" lon="-5.397773">
        <ele>254.0</ele>
        <time>2022-09-26T11:21:16.005+02:00[Europe/Madrid]</time>
      </trkpt>
      <trkpt lat="37.184538" lon="-5.397917">
        <ele>253.0</ele>
        <time>2022-09-26T11:21:17.005+02:00[Europe/Madrid]</time>
      </trkpt>
      <trkpt lat="37.184327" lon="-5.398069">
        <ele>252.0</ele>
        <time>2022-09-26T11:21:18.005+02:00[Europe/Madrid]</time>
      </trkpt>
      <trkpt lat="37.184117" lon="-5.398224">
        <ele>251.0</ele>
        <time>2022-09-26T11:21:19.005+02:00[Europe/Madrid]</time>
      </trkpt>
      <trkpt lat="37.183905" lon="-5.39838">
        <ele>250.0</ele>
        <time>2022-09-26T11:21:20.005+02:00[Europe/Madrid]</time>
      </trkpt>
      <trkpt lat="37.183698" lon="-5.398531">
        <ele>250.0</ele>
        <time>2022-09-26T11:21:21.005+02:00[Europe/Madrid]</time>
      </trkpt>
      <trkpt lat="37.183499" lon="-5.398676">
        <ele>249.0</ele>
        <time>2022-09-26T11:21:22.005+02:00[Europe/Madrid]</time>
      </trkpt>
      <trkpt lat="37.18331" lon="-5.398812">
        <ele>249.0</ele>
        <time>2022-09-26T11:21:23.005+02:00[Europe/Madrid]</time>
      </trkpt>
      <trkpt lat="37.18313" lon="-5.398943">
        <ele>248.0</ele>
        <time>2022-09-26T11:21:24.005+02:00[Europe/Madrid]</time>
      </trkpt>
      <trkpt lat="37.182946" lon="-5.399065">
        <ele>248.0</ele>
        <time>2022-09-26T11:21:25.005+02:00[Europe/Madrid]</time>
      </trkpt>
      <trkpt lat="37.182757" lon="-5.399175">
        <ele>248.0</ele>
        <time>2022-09-26T11:21:26.005+02:00[Europe/Madrid]</time>
      </trkpt>
      <trkpt lat="37.182563" lon="-5.399277">
        <ele>248.0</ele>
        <time>2022-09-26T11:21:27.005+02:00[Europe/Madrid]</time>
      </trkpt>
      <trkpt lat="37.18237" lon="-5.399367">
        <ele>247.0</ele>
        <time>2022-09-26T11:21:28.005+02:00[Europe/Madrid]</time>
      </trkpt>
      <trkpt lat="37.182169" lon="-5.399446">
        <ele>247.0</ele>
        <time>2022-09-26T11:21:29.005+02:00[Europe/Madrid]</time>
      </trkpt>
      <trkpt lat="37.181962" lon="-5.399517">
        <ele>246.0</ele>
        <time>2022-09-26T11:21:30.005+02:00[Europe/Madrid]</time>
      </trkpt>
      <trkpt lat="37.181745" lon="-5.399576">
        <ele>246.0</ele>
        <time>2022-09-26T11:21:31.005+02:00[Europe/Madrid]</time>
      </trkpt>
      <trkpt lat="37.181526" lon="-5.399623">
        <ele>246.0</ele>
        <time>2022-09-26T11:21:32.005+02:00[Europe/Madrid]</time>
      </trkpt>
      <trkpt lat="37.181299" lon="-5.399665">
        <ele>245.0</ele>
        <time>2022-09-26T11:21:33.005+02:00[Europe/Madrid]</time>
      </trkpt>
      <trkpt lat="37.181072" lon="-5.399706">
        <ele>245.0</ele>
        <time>2022-09-26T11:21:34.005+02:00[Europe/Madrid]</time>
      </trkpt>
      <trkpt lat="37.18084" lon="-5.399748">
        <ele>246.0</ele>
        <time>2022-09-26T11:21:35.005+02:00[Europe/Madrid]</time>
      </trkpt>
      <trkpt lat="37.18061" lon="-5.399786">
        <ele>246.0</ele>
        <time>2022-09-26T11:21:36.005+02:00[Europe/Madrid]</time>
      </trkpt>
      <trkpt lat="37.180382" lon="-5.39982">
        <ele>247.0</ele>
        <time>2022-09-26T11:21:37.005+02:00[Europe/Madrid]</time>
      </trkpt>
      <trkpt lat="37.180154" lon="-5.399854">
        <ele>248.0</ele>
        <time>2022-09-26T11:21:38.005+02:00[Europe/Madrid]</time>
      </trkpt>
      <trkpt lat="37.179926" lon="-5.399886">
        <ele>248.0</ele>
        <time>2022-09-26T11:21:39.005+02:00[Europe/Madrid]</time>
      </trkpt>
      <trkpt lat="37.179701" lon="-5.399922">
        <ele>249.0</ele>
        <time>2022-09-26T11:21:40.005+02:00[Europe/Madrid]</time>
      </trkpt>
      <trkpt lat="37.17948" lon="-5.399957">
        <ele>249.0</ele>
        <time>2022-09-26T11:21:41.005+02:00[Europe/Madrid]</time>
      </trkpt>
      <trkpt lat="37.179262" lon="-5.399992">
        <ele>250.0</ele>
        <time>2022-09-26T11:21:42.005+02:00[Europe/Madrid]</time>
      </trkpt>
      <trkpt lat="37.179052" lon="-5.400026">
        <ele>250.0</ele>
        <time>2022-09-26T11:21:43.005+02:00[Europe/Madrid]</time>
      </trkpt>
      <trkpt lat="37.178841" lon="-5.400058">
        <ele>250.0</ele>
        <time>2022-09-26T11:21:44.005+02:00[Europe/Madrid]</time>
      </trkpt>
      <trkpt lat="37.178631" lon="-5.400091">
        <ele>251.0</ele>
        <time>2022-09-26T11:21:45.005+02:00[Europe/Madrid]</time>
      </trkpt>
      <trkpt lat="37.178423" lon="-5.40013">
        <ele>251.0</ele>
        <time>2022-09-26T11:21:46.005+02:00[Europe/Madrid]</time>
      </trkpt>
      <trkpt lat="37.178216" lon="-5.400168">
        <ele>252.0</ele>
        <time>2022-09-26T11:21:47.005+02:00[Europe/Madrid]</time>
      </trkpt>
      <trkpt lat="37.178012" lon="-5.400206">
        <ele>253.0</ele>
        <time>2022-09-26T11:21:48.005+02:00[Europe/Madrid]</time>
      </trkpt>
      <trkpt lat="37.177806" lon="-5.400243">
        <ele>253.0</ele>
        <time>2022-09-26T11:21:49.005+02:00[Europe/Madrid]</time>
      </trkpt>
      <trkpt lat="37.177601" lon="-5.400293">
        <ele>254.0</ele>
        <time>2022-09-26T11:21:50.005+02:00[Europe/Madrid]</time>
      </trkpt>
      <trkpt lat="37.177395" lon="-5.400347">
        <ele>254.0</ele>
        <time>2022-09-26T11:21:51.005+02:00[Europe/Madrid]</time>
      </trkpt>
      <trkpt lat="37.177186" lon="-5.400402">
        <ele>254.0</ele>
        <time>2022-09-26T11:21:52.005+02:00[Europe/Madrid]</time>
      </trkpt>
      <trkpt lat="37.17697" lon="-5.400457">
        <ele>254.0</ele>
        <time>2022-09-26T11:21:53.005+02:00[Europe/Madrid]</time>
      </trkpt>
      <trkpt lat="37.176752" lon="-5.400514">
        <ele>253.0</ele>
        <time>2022-09-26T11:21:54.005+02:00[Europe/Madrid]</time>
      </trkpt>
      <trkpt lat="37.17653" lon="-5.400582">
        <ele>252.0</ele>
        <time>2022-09-26T11:21:55.005+02:00[Europe/Madrid]</time>
      </trkpt>
      <trkpt lat="37.176306" lon="-5.400649">
        <ele>251.0</ele>
        <time>2022-09-26T11:21:56.005+02:00[Europe/Madrid]</time>
      </trkpt>
      <trkpt lat="37.176078" lon="-5.400717">
        <ele>251.0</ele>
        <time>2022-09-26T11:21:57.005+02:00[Europe/Madrid]</time>
      </trkpt>
      <trkpt lat="37.175845" lon="-5.400786">
        <ele>250.0</ele>
        <time>2022-09-26T11:21:58.005+02:00[Europe/Madrid]</time>
      </trkpt>
      <trkpt lat="37.175613" lon="-5.400857">
        <ele>250.0</ele>
        <time>2022-09-26T11:21:59.005+02:00[Europe/Madrid]</time>
      </trkpt>
      <trkpt lat="37.175381" lon="-5.400929">
        <ele>249.0</ele>
        <time>2022-09-26T11:22:00.005+02:00[Europe/Madrid]</time>
      </trkpt>
      <trkpt lat="37.175147" lon="-5.401001">
        <ele>249.0</ele>
        <time>2022-09-26T11:22:01.005+02:00[Europe/Madrid]</time>
      </trkpt>
      <trkpt lat="37.174917" lon="-5.401073">
        <ele>248.0</ele>
        <time>2022-09-26T11:22:02.005+02:00[Europe/Madrid]</time>
      </trkpt>
      <trkpt lat="37.174682" lon="-5.401145">
        <ele>248.0</ele>
        <time>2022-09-26T11:22:03.005+02:00[Europe/Madrid]</time>
      </trkpt>
      <trkpt lat="37.174452" lon="-5.401217">
        <ele>248.0</ele>
        <time>2022-09-26T11:22:04.005+02:00[Europe/Madrid]</time>
      </trkpt>
      <trkpt lat="37.174227" lon="-5.401285">
        <ele>247.0</ele>
        <time>2022-09-26T11:22:05.005+02:00[Europe/Madrid]</time>
      </trkpt>
      <trkpt lat="37.174007" lon="-5.40135">
        <ele>247.0</ele>
        <time>2022-09-26T11:22:06.005+02:00[Europe/Madrid]</time>
      </trkpt>
      <trkpt lat="37.173797" lon="-5.401419">
        <ele>247.0</ele>
        <time>2022-09-26T11:22:07.005+02:00[Europe/Madrid]</time>
      </trkpt>
      <trkpt lat="37.173586" lon="-5.401503">
        <ele>246.0</ele>
        <time>2022-09-26T11:22:08.005+02:00[Europe/Madrid]</time>
      </trkpt>
      <trkpt lat="37.173376" lon="-5.401607">
        <ele>246.0</ele>
        <time>2022-09-26T11:22:09.005+02:00[Europe/Madrid]</time>
      </trkpt>
      <trkpt lat="37.173167" lon="-5.401728">
        <ele>245.0</ele>
        <time>2022-09-26T11:22:10.005+02:00[Europe/Madrid]</time>
      </trkpt>
      <trkpt lat="37.172958" lon="-5.401867">
        <ele>243.0</ele>
        <time>2022-09-26T11:22:11.005+02:00[Europe/Madrid]</time>
      </trkpt>
      <trkpt lat="37.172751" lon="-5.402016">
        <ele>242.0</ele>
        <time>2022-09-26T11:22:12.005+02:00[Europe/Madrid]</time>
      </trkpt>
      <trkpt lat="37.172541" lon="-5.402176">
        <ele>241.0</ele>
        <time>2022-09-26T11:22:13.005+02:00[Europe/Madrid]</time>
      </trkpt>
      <trkpt lat="37.172328" lon="-5.402344">
        <ele>240.0</ele>
        <time>2022-09-26T11:22:14.005+02:00[Europe/Madrid]</time>
      </trkpt>
      <trkpt lat="37.172113" lon="-5.402515">
        <ele>239.0</ele>
        <time>2022-09-26T11:22:15.005+02:00[Europe/Madrid]</time>
      </trkpt>
      <trkpt lat="37.171899" lon="-5.402686">
        <ele>239.0</ele>
        <time>2022-09-26T11:22:16.005+02:00[Europe/Madrid]</time>
      </trkpt>
      <trkpt lat="37.171688" lon="-5.402857">
        <ele>239.0</ele>
        <time>2022-09-26T11:22:17.005+02:00[Europe/Madrid]</time>
      </trkpt>
      <trkpt lat="37.171479" lon="-5.403018">
        <ele>239.0</ele>
        <time>2022-09-26T11:22:18.005+02:00[Europe/Madrid]</time>
      </trkpt>
      <trkpt lat="37.171285" lon="-5.403175">
        <ele>239.0</ele>
        <time>2022-09-26T11:22:19.005+02:00[Europe/Madrid]</time>
      </trkpt>
      <trkpt lat="37.171093" lon="-5.403326">
        <ele>239.0</ele>
        <time>2022-09-26T11:22:20.005+02:00[Europe/Madrid]</time>
      </trkpt>
      <trkpt lat="37.170905" lon="-5.403472">
        <ele>240.0</ele>
        <time>2022-09-26T11:22:21.005+02:00[Europe/Madrid]</time>
      </trkpt>
      <trkpt lat="37.170719" lon="-5.403618">
        <ele>240.0</ele>
        <time>2022-09-26T11:22:22.005+02:00[Europe/Madrid]</time>
      </trkpt>
      <trkpt lat="37.170529" lon="-5.403769">
        <ele>241.0</ele>
        <time>2022-09-26T11:22:23.005+02:00[Europe/Madrid]</time>
      </trkpt>
      <trkpt lat="37.170337" lon="-5.403922">
        <ele>241.0</ele>
        <time>2022-09-26T11:22:24.005+02:00[Europe/Madrid]</time>
      </trkpt>
      <trkpt lat="37.170157" lon="-5.404069">
        <ele>242.0</ele>
        <time>2022-09-26T11:22:25.005+02:00[Europe/Madrid]</time>
      </trkpt>
      <trkpt lat="37.169987" lon="-5.404209">
        <ele>243.0</ele>
        <time>2022-09-26T11:22:26.005+02:00[Europe/Madrid]</time>
      </trkpt>
      <trkpt lat="37.169823" lon="-5.404342">
        <ele>244.0</ele>
        <time>2022-09-26T11:22:27.005+02:00[Europe/Madrid]</time>
      </trkpt>
      <trkpt lat="37.169654" lon="-5.404472">
        <ele>245.0</ele>
        <time>2022-09-26T11:22:28.005+02:00[Europe/Madrid]</time>
      </trkpt>
      <trkpt lat="37.169493" lon="-5.404595">
        <ele>245.0</ele>
        <time>2022-09-26T11:22:29.005+02:00[Europe/Madrid]</time>
      </trkpt>
      <trkpt lat="37.169332" lon="-5.40471">
        <ele>246.0</ele>
        <time>2022-09-26T11:22:30.005+02:00[Europe/Madrid]</time>
      </trkpt>
      <trkpt lat="37.169171" lon="-5.4048">
        <ele>247.0</ele>
        <time>2022-09-26T11:22:31.005+02:00[Europe/Madrid]</time>
      </trkpt>
      <trkpt lat="37.168998" lon="-5.404874">
        <ele>247.0</ele>
        <time>2022-09-26T11:22:32.005+02:00[Europe/Madrid]</time>
      </trkpt>
      <trkpt lat="37.16882" lon="-5.404935">
        <ele>247.0</ele>
        <time>2022-09-26T11:22:33.005+02:00[Europe/Madrid]</time>
      </trkpt>
      <trkpt lat="37.168633" lon="-5.40499">
        <ele>247.0</ele>
        <time>2022-09-26T11:22:34.005+02:00[Europe/Madrid]</time>
      </trkpt>
      <trkpt lat="37.168436" lon="-5.405045">
        <ele>247.0</ele>
        <time>2022-09-26T11:22:35.005+02:00[Europe/Madrid]</time>
      </trkpt>
      <trkpt lat="37.168238" lon="-5.405103">
        <ele>246.0</ele>
        <time>2022-09-26T11:22:36.005+02:00[Europe/Madrid]</time>
      </trkpt>
      <trkpt lat="37.168038" lon="-5.405158">
        <ele>246.0</ele>
        <time>2022-09-26T11:22:37.005+02:00[Europe/Madrid]</time>
      </trkpt>
      <trkpt lat="37.167837" lon="-5.405216">
        <ele>246.0</ele>
        <time>2022-09-26T11:22:38.005+02:00[Europe/Madrid]</time>
      </trkpt>
      <trkpt lat="37.167635" lon="-5.40527">
        <ele>246.0</ele>
        <time>2022-09-26T11:22:39.005+02:00[Europe/Madrid]</time>
      </trkpt>
      <trkpt lat="37.167435" lon="-5.405325">
        <ele>246.0</ele>
        <time>2022-09-26T11:22:40.005+02:00[Europe/Madrid]</time>
      </trkpt>
      <trkpt lat="37.167237" lon="-5.40538">
        <ele>246.0</ele>
        <time>2022-09-26T11:22:41.005+02:00[Europe/Madrid]</time>
      </trkpt>
      <trkpt lat="37.167041" lon="-5.405436">
        <ele>246.0</ele>
        <time>2022-09-26T11:22:42.005+02:00[Europe/Madrid]</time>
      </trkpt>
      <trkpt lat="37.166846" lon="-5.405493">
        <ele>245.0</ele>
        <time>2022-09-26T11:22:43.005+02:00[Europe/Madrid]</time>
      </trkpt>
      <trkpt lat="37.166655" lon="-5.405557">
        <ele>245.0</ele>
        <time>2022-09-26T11:22:44.005+02:00[Europe/Madrid]</time>
      </trkpt>
      <trkpt lat="37.166465" lon="-5.40563">
        <ele>245.0</ele>
        <time>2022-09-26T11:22:45.005+02:00[Europe/Madrid]</time>
      </trkpt>
      <trkpt lat="37.166283" lon="-5.40572">
        <ele>245.0</ele>
        <time>2022-09-26T11:22:46.005+02:00[Europe/Madrid]</time>
      </trkpt>
      <trkpt lat="37.166103" lon="-5.405831">
        <ele>245.0</ele>
        <time>2022-09-26T11:22:47.005+02:00[Europe/Madrid]</time>
      </trkpt>
      <trkpt lat="37.165928" lon="-5.405958">
        <ele>245.0</ele>
        <time>2022-09-26T11:22:48.005+02:00[Europe/Madrid]</time>
      </trkpt>
      <trkpt lat="37.165762" lon="-5.406108">
        <ele>245.0</ele>
        <time>2022-09-26T11:22:49.005+02:00[Europe/Madrid]</time>
      </trkpt>
      <trkpt lat="37.165587" lon="-5.406267">
        <ele>244.0</ele>
        <time>2022-09-26T11:22:50.005+02:00[Europe/Madrid]</time>
      </trkpt>
      <trkpt lat="37.165414" lon="-5.406423">
        <ele>244.0</ele>
        <time>2022-09-26T11:22:51.005+02:00[Europe/Madrid]</time>
      </trkpt>
      <trkpt lat="37.165242" lon="-5.406581">
        <ele>245.0</ele>
        <time>2022-09-26T11:22:52.005+02:00[Europe/Madrid]</time>
      </trkpt>
      <trkpt lat="37.165072" lon="-5.406738">
        <ele>245.0</ele>
        <time>2022-09-26T11:22:53.005+02:00[Europe/Madrid]</time>
      </trkpt>
      <trkpt lat="37.164901" lon="-5.406892">
        <ele>244.0</ele>
        <time>2022-09-26T11:22:54.005+02:00[Europe/Madrid]</time>
      </trkpt>
      <trkpt lat="37.164736" lon="-5.407045">
        <ele>244.0</ele>
        <time>2022-09-26T11:22:55.005+02:00[Europe/Madrid]</time>
      </trkpt>
      <trkpt lat="37.164566" lon="-5.407198">
        <ele>244.0</ele>
        <time>2022-09-26T11:22:56.005+02:00[Europe/Madrid]</time>
      </trkpt>
      <trkpt lat="37.164401" lon="-5.407352">
        <ele>244.0</ele>
        <time>2022-09-26T11:22:57.005+02:00[Europe/Madrid]</time>
      </trkpt>
      <trkpt lat="37.164235" lon="-5.407506">
        <ele>244.0</ele>
        <time>2022-09-26T11:22:58.005+02:00[Europe/Madrid]</time>
      </trkpt>
      <trkpt lat="37.16407" lon="-5.407655">
        <ele>245.0</ele>
        <time>2022-09-26T11:22:59.005+02:00[Europe/Madrid]</time>
      </trkpt>
      <trkpt lat="37.163901" lon="-5.407809">
        <ele>245.0</ele>
        <time>2022-09-26T11:23:00.005+02:00[Europe/Madrid]</time>
      </trkpt>
      <trkpt lat="37.163734" lon="-5.407964">
        <ele>245.0</ele>
        <time>2022-09-26T11:23:01.005+02:00[Europe/Madrid]</time>
      </trkpt>
      <trkpt lat="37.163565" lon="-5.40812">
        <ele>245.0</ele>
        <time>2022-09-26T11:23:02.005+02:00[Europe/Madrid]</time>
      </trkpt>
      <trkpt lat="37.163389" lon="-5.408276">
        <ele>245.0</ele>
        <time>2022-09-26T11:23:03.005+02:00[Europe/Madrid]</time>
      </trkpt>
      <trkpt lat="37.163211" lon="-5.408431">
        <ele>246.0</ele>
        <time>2022-09-26T11:23:04.005+02:00[Europe/Madrid]</time>
      </trkpt>
      <trkpt lat="37.163034" lon="-5.408588">
        <ele>246.0</ele>
        <time>2022-09-26T11:23:05.005+02:00[Europe/Madrid]</time>
      </trkpt>
      <trkpt lat="37.162854" lon="-5.408746">
        <ele>246.0</ele>
        <time>2022-09-26T11:23:06.005+02:00[Europe/Madrid]</time>
      </trkpt>
      <trkpt lat="37.162679" lon="-5.408908">
        <ele>246.0</ele>
        <time>2022-09-26T11:23:07.005+02:00[Europe/Madrid]</time>
      </trkpt>
      <trkpt lat="37.162508" lon="-5.409069">
        <ele>246.0</ele>
        <time>2022-09-26T11:23:08.005+02:00[Europe/Madrid]</time>
      </trkpt>
      <trkpt lat="37.162335" lon="-5.409228">
        <ele>247.0</ele>
        <time>2022-09-26T11:23:09.005+02:00[Europe/Madrid]</time>
      </trkpt>
      <trkpt lat="37.162162" lon="-5.40939">
        <ele>247.0</ele>
        <time>2022-09-26T11:23:10.005+02:00[Europe/Madrid]</time>
      </trkpt>
      <trkpt lat="37.161991" lon="-5.409556">
        <ele>247.0</ele>
        <time>2022-09-26T11:23:11.005+02:00[Europe/Madrid]</time>
      </trkpt>
      <trkpt lat="37.161817" lon="-5.409725">
        <ele>247.0</ele>
        <time>2022-09-26T11:23:12.005+02:00[Europe/Madrid]</time>
      </trkpt>
      <trkpt lat="37.161648" lon="-5.409895">
        <ele>247.0</ele>
        <time>2022-09-26T11:23:13.005+02:00[Europe/Madrid]</time>
      </trkpt>
      <trkpt lat="37.16148" lon="-5.410069">
        <ele>247.0</ele>
        <time>2022-09-26T11:23:14.005+02:00[Europe/Madrid]</time>
      </trkpt>
      <trkpt lat="37.161309" lon="-5.410245">
        <ele>247.0</ele>
        <time>2022-09-26T11:23:15.005+02:00[Europe/Madrid]</time>
      </trkpt>
      <trkpt lat="37.161139" lon="-5.410418">
        <ele>246.0</ele>
        <time>2022-09-26T11:23:16.005+02:00[Europe/Madrid]</time>
      </trkpt>
      <trkpt lat="37.160969" lon="-5.410594">
        <ele>246.0</ele>
        <time>2022-09-26T11:23:17.005+02:00[Europe/Madrid]</time>
      </trkpt>
      <trkpt lat="37.160797" lon="-5.410771">
        <ele>246.0</ele>
        <time>2022-09-26T11:23:18.005+02:00[Europe/Madrid]</time>
      </trkpt>
      <trkpt lat="37.160629" lon="-5.410943">
        <ele>246.0</ele>
        <time>2022-09-26T11:23:19.005+02:00[Europe/Madrid]</time>
      </trkpt>
      <trkpt lat="37.160469" lon="-5.411109">
        <ele>246.0</ele>
        <time>2022-09-26T11:23:20.005+02:00[Europe/Madrid]</time>
      </trkpt>
      <trkpt lat="37.160308" lon="-5.411272">
        <ele>246.0</ele>
        <time>2022-09-26T11:23:21.005+02:00[Europe/Madrid]</time>
      </trkpt>
      <trkpt lat="37.160152" lon="-5.411433">
        <ele>246.0</ele>
        <time>2022-09-26T11:23:22.005+02:00[Europe/Madrid]</time>
      </trkpt>
      <trkpt lat="37.159998" lon="-5.411596">
        <ele>246.0</ele>
        <time>2022-09-26T11:23:23.005+02:00[Europe/Madrid]</time>
      </trkpt>
      <trkpt lat="37.159843" lon="-5.411754">
        <ele>246.0</ele>
        <time>2022-09-26T11:23:24.005+02:00[Europe/Madrid]</time>
      </trkpt>
      <trkpt lat="37.159693" lon="-5.411911">
        <ele>246.0</ele>
        <time>2022-09-26T11:23:25.005+02:00[Europe/Madrid]</time>
      </trkpt>
      <trkpt lat="37.15954" lon="-5.412061">
        <ele>246.0</ele>
        <time>2022-09-26T11:23:26.005+02:00[Europe/Madrid]</time>
      </trkpt>
      <trkpt lat="37.159384" lon="-5.41221">
        <ele>246.0</ele>
        <time>2022-09-26T11:23:27.005+02:00[Europe/Madrid]</time>
      </trkpt>
      <trkpt lat="37.159222" lon="-5.41235">
        <ele>245.0</ele>
        <time>2022-09-26T11:23:28.005+02:00[Europe/Madrid]</time>
      </trkpt>
      <trkpt lat="37.159053" lon="-5.412485">
        <ele>245.0</ele>
        <time>2022-09-26T11:23:29.005+02:00[Europe/Madrid]</time>
      </trkpt>
      <trkpt lat="37.158882" lon="-5.41261">
        <ele>245.0</ele>
        <time>2022-09-26T11:23:30.005+02:00[Europe/Madrid]</time>
      </trkpt>
      <trkpt lat="37.158703" lon="-5.412729">
        <ele>245.0</ele>
        <time>2022-09-26T11:23:31.005+02:00[Europe/Madrid]</time>
      </trkpt>
      <trkpt lat="37.158529" lon="-5.412844">
        <ele>244.0</ele>
        <time>2022-09-26T11:23:32.005+02:00[Europe/Madrid]</time>
      </trkpt>
      <trkpt lat="37.158363" lon="-5.412954">
        <ele>244.0</ele>
        <time>2022-09-26T11:23:33.005+02:00[Europe/Madrid]</time>
      </trkpt>
      <trkpt lat="37.158206" lon="-5.413059">
        <ele>244.0</ele>
        <time>2022-09-26T11:23:34.005+02:00[Europe/Madrid]</time>
      </trkpt>
      <trkpt lat="37.158062" lon="-5.413159">
        <ele>244.0</ele>
        <time>2022-09-26T11:23:35.005+02:00[Europe/Madrid]</time>
      </trkpt>
      <trkpt lat="37.157921" lon="-5.413258">
        <ele>244.0</ele>
        <time>2022-09-26T11:23:36.005+02:00[Europe/Madrid]</time>
      </trkpt>
      <trkpt lat="37.157785" lon="-5.413355">
        <ele>244.0</ele>
        <time>2022-09-26T11:23:37.005+02:00[Europe/Madrid]</time>
      </trkpt>
      <trkpt lat="37.157648" lon="-5.413458">
        <ele>244.0</ele>
        <time>2022-09-26T11:23:38.005+02:00[Europe/Madrid]</time>
      </trkpt>
      <trkpt lat="37.15751" lon="-5.413573">
        <ele>243.0</ele>
        <time>2022-09-26T11:23:39.005+02:00[Europe/Madrid]</time>
      </trkpt>
      <trkpt lat="37.157374" lon="-5.413699">
        <ele>243.0</ele>
        <time>2022-09-26T11:23:40.005+02:00[Europe/Madrid]</time>
      </trkpt>
      <trkpt lat="37.157241" lon="-5.413838">
        <ele>243.0</ele>
        <time>2022-09-26T11:23:41.005+02:00[Europe/Madrid]</time>
      </trkpt>
      <trkpt lat="37.157104" lon="-5.413989">
        <ele>243.0</ele>
        <time>2022-09-26T11:23:42.005+02:00[Europe/Madrid]</time>
      </trkpt>
      <trkpt lat="37.156971" lon="-5.414148">
        <ele>242.0</ele>
        <time>2022-09-26T11:23:43.005+02:00[Europe/Madrid]</time>
      </trkpt>
      <trkpt lat="37.156832" lon="-5.414308">
        <ele>242.0</ele>
        <time>2022-09-26T11:23:44.005+02:00[Europe/Madrid]</time>
      </trkpt>
      <trkpt lat="37.15669" lon="-5.414468">
        <ele>241.0</ele>
        <time>2022-09-26T11:23:45.005+02:00[Europe/Madrid]</time>
      </trkpt>
      <trkpt lat="37.156544" lon="-5.41463">
        <ele>241.0</ele>
        <time>2022-09-26T11:23:46.005+02:00[Europe/Madrid]</time>
      </trkpt>
      <trkpt lat="37.156398" lon="-5.414796">
        <ele>240.0</ele>
        <time>2022-09-26T11:23:47.005+02:00[Europe/Madrid]</time>
      </trkpt>
      <trkpt lat="37.15625" lon="-5.41497">
        <ele>240.0</ele>
        <time>2022-09-26T11:23:48.005+02:00[Europe/Madrid]</time>
      </trkpt>
      <trkpt lat="37.156111" lon="-5.415153">
        <ele>239.0</ele>
        <time>2022-09-26T11:23:49.005+02:00[Europe/Madrid]</time>
      </trkpt>
      <trkpt lat="37.155984" lon="-5.415346">
        <ele>239.0</ele>
        <time>2022-09-26T11:23:50.005+02:00[Europe/Madrid]</time>
      </trkpt>
      <trkpt lat="37.155862" lon="-5.415551">
        <ele>239.0</ele>
        <time>2022-09-26T11:23:51.005+02:00[Europe/Madrid]</time>
      </trkpt>
      <trkpt lat="37.155753" lon="-5.415764">
        <ele>238.0</ele>
        <time>2022-09-26T11:23:52.005+02:00[Europe/Madrid]</time>
      </trkpt>
      <trkpt lat="37.155655" lon="-5.415968">
        <ele>238.0</ele>
        <time>2022-09-26T11:23:53.005+02:00[Europe/Madrid]</time>
      </trkpt>
      <trkpt lat="37.155561" lon="-5.416163">
        <ele>238.0</ele>
        <time>2022-09-26T11:23:54.005+02:00[Europe/Madrid]</time>
      </trkpt>
      <trkpt lat="37.155473" lon="-5.416347">
        <ele>238.0</ele>
        <time>2022-09-26T11:23:55.005+02:00[Europe/Madrid]</time>
      </trkpt>
      <trkpt lat="37.155385" lon="-5.416526">
        <ele>238.0</ele>
        <time>2022-09-26T11:23:56.005+02:00[Europe/Madrid]</time>
      </trkpt>
      <trkpt lat="37.155299" lon="-5.416711">
        <ele>237.0</ele>
        <time>2022-09-26T11:23:57.005+02:00[Europe/Madrid]</time>
      </trkpt>
      <trkpt lat="37.155209" lon="-5.416897">
        <ele>237.0</ele>
        <time>2022-09-26T11:23:58.005+02:00[Europe/Madrid]</time>
      </trkpt>
      <trkpt lat="37.155113" lon="-5.417087">
        <ele>237.0</ele>
        <time>2022-09-26T11:23:59.005+02:00[Europe/Madrid]</time>
      </trkpt>
      <trkpt lat="37.155017" lon="-5.41728">
        <ele>236.0</ele>
        <time>2022-09-26T11:24:00.005+02:00[Europe/Madrid]</time>
      </trkpt>
      <trkpt lat="37.154923" lon="-5.417479">
        <ele>236.0</ele>
        <time>2022-09-26T11:24:01.005+02:00[Europe/Madrid]</time>
      </trkpt>
      <trkpt lat="37.154829" lon="-5.417681">
        <ele>236.0</ele>
        <time>2022-09-26T11:24:02.005+02:00[Europe/Madrid]</time>
      </trkpt>
      <trkpt lat="37.154735" lon="-5.417884">
        <ele>236.0</ele>
        <time>2022-09-26T11:24:03.005+02:00[Europe/Madrid]</time>
      </trkpt>
      <trkpt lat="37.154641" lon="-5.418094">
        <ele>235.0</ele>
        <time>2022-09-26T11:24:04.005+02:00[Europe/Madrid]</time>
      </trkpt>
      <trkpt lat="37.154547" lon="-5.41831">
        <ele>235.0</ele>
        <time>2022-09-26T11:24:05.005+02:00[Europe/Madrid]</time>
      </trkpt>
      <trkpt lat="37.154453" lon="-5.418532">
        <ele>235.0</ele>
        <time>2022-09-26T11:24:06.005+02:00[Europe/Madrid]</time>
      </trkpt>
      <trkpt lat="37.154356" lon="-5.418757">
        <ele>234.0</ele>
        <time>2022-09-26T11:24:07.005+02:00[Europe/Madrid]</time>
      </trkpt>
      <trkpt lat="37.154264" lon="-5.41898">
        <ele>234.0</ele>
        <time>2022-09-26T11:24:08.005+02:00[Europe/Madrid]</time>
      </trkpt>
      <trkpt lat="37.154168" lon="-5.419202">
        <ele>234.0</ele>
        <time>2022-09-26T11:24:09.005+02:00[Europe/Madrid]</time>
      </trkpt>
      <trkpt lat="37.154076" lon="-5.419417">
        <ele>234.0</ele>
        <time>2022-09-26T11:24:10.005+02:00[Europe/Madrid]</time>
      </trkpt>
      <trkpt lat="37.153987" lon="-5.41963">
        <ele>234.0</ele>
        <time>2022-09-26T11:24:11.005+02:00[Europe/Madrid]</time>
      </trkpt>
      <trkpt lat="37.153897" lon="-5.419835">
        <ele>234.0</ele>
        <time>2022-09-26T11:24:12.005+02:00[Europe/Madrid]</time>
      </trkpt>
      <trkpt lat="37.153804" lon="-5.420036">
        <ele>235.0</ele>
        <time>2022-09-26T11:24:13.005+02:00[Europe/Madrid]</time>
      </trkpt>
      <trkpt lat="37.153703" lon="-5.42023">
        <ele>234.0</ele>
        <time>2022-09-26T11:24:14.005+02:00[Europe/Madrid]</time>
      </trkpt>
      <trkpt lat="37.153598" lon="-5.420416">
        <ele>234.0</ele>
        <time>2022-09-26T11:24:15.005+02:00[Europe/Madrid]</time>
      </trkpt>
      <trkpt lat="37.153476" lon="-5.420588">
        <ele>233.0</ele>
        <time>2022-09-26T11:24:16.005+02:00[Europe/Madrid]</time>
      </trkpt>
      <trkpt lat="37.153345" lon="-5.42074">
        <ele>233.0</ele>
        <time>2022-09-26T11:24:17.005+02:00[Europe/Madrid]</time>
      </trkpt>
      <trkpt lat="37.1532" lon="-5.420873">
        <ele>233.0</ele>
        <time>2022-09-26T11:24:18.005+02:00[Europe/Madrid]</time>
      </trkpt>
      <trkpt lat="37.153039" lon="-5.420995">
        <ele>233.0</ele>
        <time>2022-09-26T11:24:19.005+02:00[Europe/Madrid]</time>
      </trkpt>
      <trkpt lat="37.152861" lon="-5.421108">
        <ele>233.0</ele>
        <time>2022-09-26T11:24:20.005+02:00[Europe/Madrid]</time>
      </trkpt>
      <trkpt lat="37.152671" lon="-5.421211">
        <ele>233.0</ele>
        <time>2022-09-26T11:24:21.005+02:00[Europe/Madrid]</time>
      </trkpt>
      <trkpt lat="37.15247" lon="-5.421314">
        <ele>233.0</ele>
        <time>2022-09-26T11:24:22.005+02:00[Europe/Madrid]</time>
      </trkpt>
      <trkpt lat="37.152261" lon="-5.421416">
        <ele>233.0</ele>
        <time>2022-09-26T11:24:23.005+02:00[Europe/Madrid]</time>
      </trkpt>
      <trkpt lat="37.152054" lon="-5.421518">
        <ele>234.0</ele>
        <time>2022-09-26T11:24:24.005+02:00[Europe/Madrid]</time>
      </trkpt>
      <trkpt lat="37.151855" lon="-5.421617">
        <ele>234.0</ele>
        <time>2022-09-26T11:24:25.005+02:00[Europe/Madrid]</time>
      </trkpt>
      <trkpt lat="37.15166" lon="-5.421722">
        <ele>234.0</ele>
        <time>2022-09-26T11:24:26.005+02:00[Europe/Madrid]</time>
      </trkpt>
      <trkpt lat="37.151471" lon="-5.421843">
        <ele>235.0</ele>
        <time>2022-09-26T11:24:27.005+02:00[Europe/Madrid]</time>
      </trkpt>
      <trkpt lat="37.151286" lon="-5.421984">
        <ele>235.0</ele>
        <time>2022-09-26T11:24:28.005+02:00[Europe/Madrid]</time>
      </trkpt>
      <trkpt lat="37.151105" lon="-5.422146">
        <ele>235.0</ele>
        <time>2022-09-26T11:24:29.005+02:00[Europe/Madrid]</time>
      </trkpt>
      <trkpt lat="37.150921" lon="-5.422316">
        <ele>235.0</ele>
        <time>2022-09-26T11:24:30.005+02:00[Europe/Madrid]</time>
      </trkpt>
      <trkpt lat="37.150729" lon="-5.422481">
        <ele>236.0</ele>
        <time>2022-09-26T11:24:31.005+02:00[Europe/Madrid]</time>
      </trkpt>
      <trkpt lat="37.150542" lon="-5.422649">
        <ele>237.0</ele>
        <time>2022-09-26T11:24:32.005+02:00[Europe/Madrid]</time>
      </trkpt>
      <trkpt lat="37.150359" lon="-5.422825">
        <ele>237.0</ele>
        <time>2022-09-26T11:24:33.005+02:00[Europe/Madrid]</time>
      </trkpt>
      <trkpt lat="37.150186" lon="-5.42302">
        <ele>238.0</ele>
        <time>2022-09-26T11:24:34.005+02:00[Europe/Madrid]</time>
      </trkpt>
      <trkpt lat="37.150036" lon="-5.423236">
        <ele>240.0</ele>
        <time>2022-09-26T11:24:35.005+02:00[Europe/Madrid]</time>
      </trkpt>
      <trkpt lat="37.1499" lon="-5.423476">
        <ele>241.0</ele>
        <time>2022-09-26T11:24:36.005+02:00[Europe/Madrid]</time>
      </trkpt>
      <trkpt lat="37.149769" lon="-5.423721">
        <ele>242.0</ele>
        <time>2022-09-26T11:24:37.005+02:00[Europe/Madrid]</time>
      </trkpt>
      <trkpt lat="37.149631" lon="-5.423964">
        <ele>244.0</ele>
        <time>2022-09-26T11:24:38.005+02:00[Europe/Madrid]</time>
      </trkpt>
      <trkpt lat="37.149499" lon="-5.424198">
        <ele>245.0</ele>
        <time>2022-09-26T11:24:39.005+02:00[Europe/Madrid]</time>
      </trkpt>
      <trkpt lat="37.149374" lon="-5.424417">
        <ele>246.0</ele>
        <time>2022-09-26T11:24:40.005+02:00[Europe/Madrid]</time>
      </trkpt>
      <trkpt lat="37.149255" lon="-5.424628">
        <ele>247.0</ele>
        <time>2022-09-26T11:24:41.005+02:00[Europe/Madrid]</time>
      </trkpt>
      <trkpt lat="37.149148" lon="-5.424831">
        <ele>248.0</ele>
        <time>2022-09-26T11:24:42.005+02:00[Europe/Madrid]</time>
      </trkpt>
      <trkpt lat="37.149059" lon="-5.425036">
        <ele>249.0</ele>
        <time>2022-09-26T11:24:43.005+02:00[Europe/Madrid]</time>
      </trkpt>
      <trkpt lat="37.148986" lon="-5.425266">
        <ele>250.0</ele>
        <time>2022-09-26T11:24:44.005+02:00[Europe/Madrid]</time>
      </trkpt>
      <trkpt lat="37.148935" lon="-5.425512">
        <ele>251.0</ele>
        <time>2022-09-26T11:24:45.005+02:00[Europe/Madrid]</time>
      </trkpt>
      <trkpt lat="37.148887" lon="-5.425769">
        <ele>252.0</ele>
        <time>2022-09-26T11:24:46.005+02:00[Europe/Madrid]</time>
      </trkpt>
      <trkpt lat="37.148842" lon="-5.42603">
        <ele>253.0</ele>
        <time>2022-09-26T11:24:47.005+02:00[Europe/Madrid]</time>
      </trkpt>
      <trkpt lat="37.148794" lon="-5.426288">
        <ele>255.0</ele>
        <time>2022-09-26T11:24:48.005+02:00[Europe/Madrid]</time>
      </trkpt>
      <trkpt lat="37.148752" lon="-5.426537">
        <ele>256.0</ele>
        <time>2022-09-26T11:24:49.005+02:00[Europe/Madrid]</time>
      </trkpt>
      <trkpt lat="37.148715" lon="-5.426763">
        <ele>256.0</ele>
        <time>2022-09-26T11:24:50.005+02:00[Europe/Madrid]</time>
      </trkpt>
      <trkpt lat="37.148671" lon="-5.426978">
        <ele>258.0</ele>
        <time>2022-09-26T11:24:51.005+02:00[Europe/Madrid]</time>
      </trkpt>
      <trkpt lat="37.148621" lon="-5.427172">
        <ele>259.0</ele>
        <time>2022-09-26T11:24:52.005+02:00[Europe/Madrid]</time>
      </trkpt>
      <trkpt lat="37.148554" lon="-5.427348">
        <ele>260.0</ele>
        <time>2022-09-26T11:24:53.005+02:00[Europe/Madrid]</time>
      </trkpt>
      <trkpt lat="37.148474" lon="-5.427511">
        <ele>261.0</ele>
        <time>2022-09-26T11:24:54.005+02:00[Europe/Madrid]</time>
      </trkpt>
      <trkpt lat="37.148378" lon="-5.427657">
        <ele>262.0</ele>
        <time>2022-09-26T11:24:55.005+02:00[Europe/Madrid]</time>
      </trkpt>
      <trkpt lat="37.148262" lon="-5.427784">
        <ele>263.0</ele>
        <time>2022-09-26T11:24:56.005+02:00[Europe/Madrid]</time>
      </trkpt>
      <trkpt lat="37.148134" lon="-5.427898">
        <ele>264.0</ele>
        <time>2022-09-26T11:24:57.005+02:00[Europe/Madrid]</time>
      </trkpt>
      <trkpt lat="37.147994" lon="-5.428007">
        <ele>265.0</ele>
        <time>2022-09-26T11:24:58.005+02:00[Europe/Madrid]</time>
      </trkpt>
      <trkpt lat="37.147844" lon="-5.428102">
        <ele>266.0</ele>
        <time>2022-09-26T11:24:59.005+02:00[Europe/Madrid]</time>
      </trkpt>
      <trkpt lat="37.14769" lon="-5.428176">
        <ele>266.0</ele>
        <time>2022-09-26T11:25:00.005+02:00[Europe/Madrid]</time>
      </trkpt>
      <trkpt lat="37.147528" lon="-5.428226">
        <ele>267.0</ele>
        <time>2022-09-26T11:25:01.005+02:00[Europe/Madrid]</time>
      </trkpt>
      <trkpt lat="37.147356" lon="-5.428259">
        <ele>268.0</ele>
        <time>2022-09-26T11:25:02.005+02:00[Europe/Madrid]</time>
      </trkpt>
      <trkpt lat="37.147174" lon="-5.428288">
        <ele>268.0</ele>
        <time>2022-09-26T11:25:03.005+02:00[Europe/Madrid]</time>
      </trkpt>
      <trkpt lat="37.146996" lon="-5.428327">
        <ele>269.0</ele>
        <time>2022-09-26T11:25:04.005+02:00[Europe/Madrid]</time>
      </trkpt>
      <trkpt lat="37.146823" lon="-5.42838">
        <ele>270.0</ele>
        <time>2022-09-26T11:25:05.005+02:00[Europe/Madrid]</time>
      </trkpt>
      <trkpt lat="37.146648" lon="-5.42846">
        <ele>270.0</ele>
        <time>2022-09-26T11:25:06.005+02:00[Europe/Madrid]</time>
      </trkpt>
      <trkpt lat="37.14647" lon="-5.428561">
        <ele>270.0</ele>
        <time>2022-09-26T11:25:07.005+02:00[Europe/Madrid]</time>
      </trkpt>
      <trkpt lat="37.146286" lon="-5.428669">
        <ele>271.0</ele>
        <time>2022-09-26T11:25:08.005+02:00[Europe/Madrid]</time>
      </trkpt>
      <trkpt lat="37.14609" lon="-5.428782">
        <ele>271.0</ele>
        <time>2022-09-26T11:25:09.005+02:00[Europe/Madrid]</time>
      </trkpt>
      <trkpt lat="37.14589" lon="-5.4289">
        <ele>272.0</ele>
        <time>2022-09-26T11:25:10.005+02:00[Europe/Madrid]</time>
      </trkpt>
      <trkpt lat="37.14569" lon="-5.429017">
        <ele>273.0</ele>
        <time>2022-09-26T11:25:11.005+02:00[Europe/Madrid]</time>
      </trkpt>
      <trkpt lat="37.145497" lon="-5.429137">
        <ele>274.0</ele>
        <time>2022-09-26T11:25:12.005+02:00[Europe/Madrid]</time>
      </trkpt>
      <trkpt lat="37.145309" lon="-5.429247">
        <ele>275.0</ele>
        <time>2022-09-26T11:25:13.005+02:00[Europe/Madrid]</time>
      </trkpt>
      <trkpt lat="37.145131" lon="-5.429353">
        <ele>276.0</ele>
        <time>2022-09-26T11:25:14.005+02:00[Europe/Madrid]</time>
      </trkpt>
      <trkpt lat="37.144963" lon="-5.429448">
        <ele>276.0</ele>
        <time>2022-09-26T11:25:15.005+02:00[Europe/Madrid]</time>
      </trkpt>
      <trkpt lat="37.1448" lon="-5.429526">
        <ele>277.0</ele>
        <time>2022-09-26T11:25:16.005+02:00[Europe/Madrid]</time>
      </trkpt>
      <trkpt lat="37.144634" lon="-5.429586">
        <ele>278.0</ele>
        <time>2022-09-26T11:25:17.005+02:00[Europe/Madrid]</time>
      </trkpt>
      <trkpt lat="37.144468" lon="-5.429627">
        <ele>278.0</ele>
        <time>2022-09-26T11:25:18.005+02:00[Europe/Madrid]</time>
      </trkpt>
      <trkpt lat="37.144295" lon="-5.429645">
        <ele>279.0</ele>
        <time>2022-09-26T11:25:19.005+02:00[Europe/Madrid]</time>
      </trkpt>
      <trkpt lat="37.144117" lon="-5.429646">
        <ele>279.0</ele>
        <time>2022-09-26T11:25:20.005+02:00[Europe/Madrid]</time>
      </trkpt>
      <trkpt lat="37.143927" lon="-5.429645">
        <ele>280.0</ele>
        <time>2022-09-26T11:25:21.005+02:00[Europe/Madrid]</time>
      </trkpt>
      <trkpt lat="37.14373" lon="-5.429644">
        <ele>280.0</ele>
        <time>2022-09-26T11:25:22.005+02:00[Europe/Madrid]</time>
      </trkpt>
      <trkpt lat="37.143525" lon="-5.429641">
        <ele>280.0</ele>
        <time>2022-09-26T11:25:23.005+02:00[Europe/Madrid]</time>
      </trkpt>
      <trkpt lat="37.14331" lon="-5.429641">
        <ele>281.0</ele>
        <time>2022-09-26T11:25:24.005+02:00[Europe/Madrid]</time>
      </trkpt>
      <trkpt lat="37.143094" lon="-5.429641">
        <ele>281.0</ele>
        <time>2022-09-26T11:25:25.005+02:00[Europe/Madrid]</time>
      </trkpt>
      <trkpt lat="37.142883" lon="-5.429639">
        <ele>281.0</ele>
        <time>2022-09-26T11:25:26.005+02:00[Europe/Madrid]</time>
      </trkpt>
      <trkpt lat="37.142675" lon="-5.429637">
        <ele>282.0</ele>
        <time>2022-09-26T11:25:27.005+02:00[Europe/Madrid]</time>
      </trkpt>
      <trkpt lat="37.142473" lon="-5.429654">
        <ele>282.0</ele>
        <time>2022-09-26T11:25:28.005+02:00[Europe/Madrid]</time>
      </trkpt>
      <trkpt lat="37.142273" lon="-5.42969">
        <ele>282.0</ele>
        <time>2022-09-26T11:25:29.005+02:00[Europe/Madrid]</time>
      </trkpt>
      <trkpt lat="37.142073" lon="-5.429754">
        <ele>283.0</ele>
        <time>2022-09-26T11:25:30.005+02:00[Europe/Madrid]</time>
      </trkpt>
      <trkpt lat="37.141872" lon="-5.429843">
        <ele>284.0</ele>
        <time>2022-09-26T11:25:31.005+02:00[Europe/Madrid]</time>
      </trkpt>
      <trkpt lat="37.141668" lon="-5.429939">
        <ele>285.0</ele>
        <time>2022-09-26T11:25:32.005+02:00[Europe/Madrid]</time>
      </trkpt>
      <trkpt lat="37.141455" lon="-5.430035">
        <ele>286.0</ele>
        <time>2022-09-26T11:25:33.005+02:00[Europe/Madrid]</time>
      </trkpt>
      <trkpt lat="37.14124" lon="-5.430131">
        <ele>287.0</ele>
        <time>2022-09-26T11:25:34.005+02:00[Europe/Madrid]</time>
      </trkpt>
      <trkpt lat="37.141018" lon="-5.430231">
        <ele>288.0</ele>
        <time>2022-09-26T11:25:35.005+02:00[Europe/Madrid]</time>
      </trkpt>
      <trkpt lat="37.140791" lon="-5.430335">
        <ele>289.0</ele>
        <time>2022-09-26T11:25:36.005+02:00[Europe/Madrid]</time>
      </trkpt>
      <trkpt lat="37.140557" lon="-5.430442">
        <ele>290.0</ele>
        <time>2022-09-26T11:25:37.005+02:00[Europe/Madrid]</time>
      </trkpt>
      <trkpt lat="37.140311" lon="-5.430552">
        <ele>291.0</ele>
        <time>2022-09-26T11:25:38.005+02:00[Europe/Madrid]</time>
      </trkpt>
      <trkpt lat="37.140062" lon="-5.430663">
        <ele>292.0</ele>
        <time>2022-09-26T11:25:39.005+02:00[Europe/Madrid]</time>
      </trkpt>
      <trkpt lat="37.139818" lon="-5.430774">
        <ele>293.0</ele>
        <time>2022-09-26T11:25:40.005+02:00[Europe/Madrid]</time>
      </trkpt>
      <trkpt lat="37.139591" lon="-5.430881">
        <ele>294.0</ele>
        <time>2022-09-26T11:25:41.005+02:00[Europe/Madrid]</time>
      </trkpt>
      <trkpt lat="37.139373" lon="-5.430982">
        <ele>295.0</ele>
        <time>2022-09-26T11:25:42.005+02:00[Europe/Madrid]</time>
      </trkpt>
      <trkpt lat="37.139168" lon="-5.431071">
        <ele>296.0</ele>
        <time>2022-09-26T11:25:43.005+02:00[Europe/Madrid]</time>
      </trkpt>
      <trkpt lat="37.138977" lon="-5.431153">
        <ele>297.0</ele>
        <time>2022-09-26T11:25:44.005+02:00[Europe/Madrid]</time>
      </trkpt>
      <trkpt lat="37.138795" lon="-5.431232">
        <ele>298.0</ele>
        <time>2022-09-26T11:25:45.005+02:00[Europe/Madrid]</time>
      </trkpt>
      <trkpt lat="37.138631" lon="-5.431308">
        <ele>299.0</ele>
        <time>2022-09-26T11:25:46.005+02:00[Europe/Madrid]</time>
      </trkpt>
      <trkpt lat="37.138481" lon="-5.431383">
        <ele>299.0</ele>
        <time>2022-09-26T11:25:47.005+02:00[Europe/Madrid]</time>
      </trkpt>
      <trkpt lat="37.138341" lon="-5.431462">
        <ele>299.0</ele>
        <time>2022-09-26T11:25:48.005+02:00[Europe/Madrid]</time>
      </trkpt>
      <trkpt lat="37.138217" lon="-5.431552">
        <ele>299.0</ele>
        <time>2022-09-26T11:25:49.005+02:00[Europe/Madrid]</time>
      </trkpt>
      <trkpt lat="37.138105" lon="-5.431662">
        <ele>299.0</ele>
        <time>2022-09-26T11:25:50.005+02:00[Europe/Madrid]</time>
      </trkpt>
      <trkpt lat="37.137996" lon="-5.431784">
        <ele>298.0</ele>
        <time>2022-09-26T11:25:51.005+02:00[Europe/Madrid]</time>
      </trkpt>
      <trkpt lat="37.137884" lon="-5.431901">
        <ele>298.0</ele>
        <time>2022-09-26T11:25:52.005+02:00[Europe/Madrid]</time>
      </trkpt>
      <trkpt lat="37.137772" lon="-5.432016">
        <ele>298.0</ele>
        <time>2022-09-26T11:25:53.005+02:00[Europe/Madrid]</time>
      </trkpt>
      <trkpt lat="37.137658" lon="-5.432129">
        <ele>297.0</ele>
        <time>2022-09-26T11:25:54.005+02:00[Europe/Madrid]</time>
      </trkpt>
      <trkpt lat="37.137546" lon="-5.432235">
        <ele>297.0</ele>
        <time>2022-09-26T11:25:55.005+02:00[Europe/Madrid]</time>
      </trkpt>
      <trkpt lat="37.137446" lon="-5.432346">
        <ele>296.0</ele>
        <time>2022-09-26T11:25:56.005+02:00[Europe/Madrid]</time>
      </trkpt>
      <trkpt lat="37.137356" lon="-5.432467">
        <ele>295.0</ele>
        <time>2022-09-26T11:25:57.005+02:00[Europe/Madrid]</time>
      </trkpt>
      <trkpt lat="37.137283" lon="-5.432609">
        <ele>294.0</ele>
        <time>2022-09-26T11:25:58.005+02:00[Europe/Madrid]</time>
      </trkpt>
      <trkpt lat="37.137224" lon="-5.432777">
        <ele>293.0</ele>
        <time>2022-09-26T11:25:59.005+02:00[Europe/Madrid]</time>
      </trkpt>
      <trkpt lat="37.13718" lon="-5.432963">
        <ele>292.0</ele>
        <time>2022-09-26T11:26:00.005+02:00[Europe/Madrid]</time>
      </trkpt>
      <trkpt lat="37.137146" lon="-5.433156">
        <ele>291.0</ele>
        <time>2022-09-26T11:26:01.005+02:00[Europe/Madrid]</time>
      </trkpt>
      <trkpt lat="37.137108" lon="-5.433359">
        <ele>290.0</ele>
        <time>2022-09-26T11:26:02.005+02:00[Europe/Madrid]</time>
      </trkpt>
      <trkpt lat="37.13707" lon="-5.433558">
        <ele>289.0</ele>
        <time>2022-09-26T11:26:03.005+02:00[Europe/Madrid]</time>
      </trkpt>
      <trkpt lat="37.137031" lon="-5.433757">
        <ele>288.0</ele>
        <time>2022-09-26T11:26:04.005+02:00[Europe/Madrid]</time>
      </trkpt>
      <trkpt lat="37.136992" lon="-5.433951">
        <ele>287.0</ele>
        <time>2022-09-26T11:26:05.005+02:00[Europe/Madrid]</time>
      </trkpt>
      <trkpt lat="37.136942" lon="-5.43414">
        <ele>286.0</ele>
        <time>2022-09-26T11:26:06.005+02:00[Europe/Madrid]</time>
      </trkpt>
      <trkpt lat="37.136881" lon="-5.434314">
        <ele>285.0</ele>
        <time>2022-09-26T11:26:07.005+02:00[Europe/Madrid]</time>
      </trkpt>
      <trkpt lat="37.136801" lon="-5.434478">
        <ele>285.0</ele>
        <time>2022-09-26T11:26:08.005+02:00[Europe/Madrid]</time>
      </trkpt>
      <trkpt lat="37.136702" lon="-5.434617">
        <ele>284.0</ele>
        <time>2022-09-26T11:26:09.005+02:00[Europe/Madrid]</time>
      </trkpt>
      <trkpt lat="37.136581" lon="-5.434737">
        <ele>284.0</ele>
        <time>2022-09-26T11:26:10.005+02:00[Europe/Madrid]</time>
      </trkpt>
      <trkpt lat="37.136446" lon="-5.434842">
        <ele>283.0</ele>
        <time>2022-09-26T11:26:11.005+02:00[Europe/Madrid]</time>
      </trkpt>
      <trkpt lat="37.136298" lon="-5.434948">
        <ele>282.0</ele>
        <time>2022-09-26T11:26:12.005+02:00[Europe/Madrid]</time>
      </trkpt>
      <trkpt lat="37.136141" lon="-5.435059">
        <ele>282.0</ele>
        <time>2022-09-26T11:26:13.005+02:00[Europe/Madrid]</time>
      </trkpt>
      <trkpt lat="37.135975" lon="-5.435175">
        <ele>281.0</ele>
        <time>2022-09-26T11:26:14.005+02:00[Europe/Madrid]</time>
      </trkpt>
      <trkpt lat="37.135802" lon="-5.435298">
        <ele>281.0</ele>
        <time>2022-09-26T11:26:15.005+02:00[Europe/Madrid]</time>
      </trkpt>
      <trkpt lat="37.135621" lon="-5.435431">
        <ele>281.0</ele>
        <time>2022-09-26T11:26:16.005+02:00[Europe/Madrid]</time>
      </trkpt>
      <trkpt lat="37.135428" lon="-5.435575">
        <ele>281.0</ele>
        <time>2022-09-26T11:26:17.005+02:00[Europe/Madrid]</time>
      </trkpt>
      <trkpt lat="37.135223" lon="-5.435729">
        <ele>280.0</ele>
        <time>2022-09-26T11:26:18.005+02:00[Europe/Madrid]</time>
      </trkpt>
      <trkpt lat="37.13501" lon="-5.435887">
        <ele>280.0</ele>
        <time>2022-09-26T11:26:19.005+02:00[Europe/Madrid]</time>
      </trkpt>
      <trkpt lat="37.134805" lon="-5.436041">
        <ele>280.0</ele>
        <time>2022-09-26T11:26:20.005+02:00[Europe/Madrid]</time>
      </trkpt>
      <trkpt lat="37.134608" lon="-5.436196">
        <ele>280.0</ele>
        <time>2022-09-26T11:26:21.005+02:00[Europe/Madrid]</time>
      </trkpt>
      <trkpt lat="37.134427" lon="-5.436347">
        <ele>279.0</ele>
        <time>2022-09-26T11:26:22.005+02:00[Europe/Madrid]</time>
      </trkpt>
      <trkpt lat="37.134255" lon="-5.436493">
        <ele>279.0</ele>
        <time>2022-09-26T11:26:23.005+02:00[Europe/Madrid]</time>
      </trkpt>
      <trkpt lat="37.134095" lon="-5.436628">
        <ele>279.0</ele>
        <time>2022-09-26T11:26:24.005+02:00[Europe/Madrid]</time>
      </trkpt>
      <trkpt lat="37.133945" lon="-5.436751">
        <ele>279.0</ele>
        <time>2022-09-26T11:26:25.005+02:00[Europe/Madrid]</time>
      </trkpt>
      <trkpt lat="37.133795" lon="-5.436871">
        <ele>280.0</ele>
        <time>2022-09-26T11:26:26.005+02:00[Europe/Madrid]</time>
      </trkpt>
      <trkpt lat="37.133655" lon="-5.436985">
        <ele>280.0</ele>
        <time>2022-09-26T11:26:27.005+02:00[Europe/Madrid]</time>
      </trkpt>
      <trkpt lat="37.13352" lon="-5.437079">
        <ele>280.0</ele>
        <time>2022-09-26T11:26:28.005+02:00[Europe/Madrid]</time>
      </trkpt>
      <trkpt lat="37.133384" lon="-5.437153">
        <ele>279.0</ele>
        <time>2022-09-26T11:26:29.005+02:00[Europe/Madrid]</time>
      </trkpt>
      <trkpt lat="37.133242" lon="-5.437205">
        <ele>280.0</ele>
        <time>2022-09-26T11:26:30.005+02:00[Europe/Madrid]</time>
      </trkpt>
      <trkpt lat="37.13309" lon="-5.437238">
        <ele>279.0</ele>
        <time>2022-09-26T11:26:31.005+02:00[Europe/Madrid]</time>
      </trkpt>
      <trkpt lat="37.132927" lon="-5.437262">
        <ele>280.0</ele>
        <time>2022-09-26T11:26:32.005+02:00[Europe/Madrid]</time>
      </trkpt>
      <trkpt lat="37.132751" lon="-5.437285">
        <ele>280.0</ele>
        <time>2022-09-26T11:26:33.005+02:00[Europe/Madrid]</time>
      </trkpt>
      <trkpt lat="37.132563" lon="-5.437313">
        <ele>280.0</ele>
        <time>2022-09-26T11:26:34.005+02:00[Europe/Madrid]</time>
      </trkpt>
      <trkpt lat="37.132385" lon="-5.437338">
        <ele>280.0</ele>
        <time>2022-09-26T11:26:35.005+02:00[Europe/Madrid]</time>
      </trkpt>
      <trkpt lat="37.13222" lon="-5.437361">
        <ele>280.0</ele>
        <time>2022-09-26T11:26:36.005+02:00[Europe/Madrid]</time>
      </trkpt>
      <trkpt lat="37.132064" lon="-5.437385">
        <ele>280.0</ele>
        <time>2022-09-26T11:26:37.005+02:00[Europe/Madrid]</time>
      </trkpt>
      <trkpt lat="37.131909" lon="-5.437424">
        <ele>279.0</ele>
        <time>2022-09-26T11:26:38.005+02:00[Europe/Madrid]</time>
      </trkpt>
      <trkpt lat="37.131757" lon="-5.437484">
        <ele>279.0</ele>
        <time>2022-09-26T11:26:39.005+02:00[Europe/Madrid]</time>
      </trkpt>
      <trkpt lat="37.131614" lon="-5.43757">
        <ele>278.0</ele>
        <time>2022-09-26T11:26:40.005+02:00[Europe/Madrid]</time>
      </trkpt>
      <trkpt lat="37.131474" lon="-5.437678">
        <ele>277.0</ele>
        <time>2022-09-26T11:26:41.005+02:00[Europe/Madrid]</time>
      </trkpt>
      <trkpt lat="37.131329" lon="-5.437799">
        <ele>276.0</ele>
        <time>2022-09-26T11:26:42.005+02:00[Europe/Madrid]</time>
      </trkpt>
      <trkpt lat="37.131185" lon="-5.437915">
        <ele>276.0</ele>
        <time>2022-09-26T11:26:43.005+02:00[Europe/Madrid]</time>
      </trkpt>
      <trkpt lat="37.131044" lon="-5.438033">
        <ele>275.0</ele>
        <time>2022-09-26T11:26:44.005+02:00[Europe/Madrid]</time>
      </trkpt>
      <trkpt lat="37.130903" lon="-5.438154">
        <ele>274.0</ele>
        <time>2022-09-26T11:26:45.005+02:00[Europe/Madrid]</time>
      </trkpt>
      <trkpt lat="37.130763" lon="-5.438285">
        <ele>273.0</ele>
        <time>2022-09-26T11:26:46.005+02:00[Europe/Madrid]</time>
      </trkpt>
      <trkpt lat="37.130625" lon="-5.438436">
        <ele>272.0</ele>
        <time>2022-09-26T11:26:47.005+02:00[Europe/Madrid]</time>
      </trkpt>
      <trkpt lat="37.130493" lon="-5.438598">
        <ele>271.0</ele>
        <time>2022-09-26T11:26:48.005+02:00[Europe/Madrid]</time>
      </trkpt>
      <trkpt lat="37.130364" lon="-5.438763">
        <ele>270.0</ele>
        <time>2022-09-26T11:26:49.005+02:00[Europe/Madrid]</time>
      </trkpt>
      <trkpt lat="37.130243" lon="-5.438927">
        <ele>269.0</ele>
        <time>2022-09-26T11:26:50.005+02:00[Europe/Madrid]</time>
      </trkpt>
      <trkpt lat="37.130124" lon="-5.439082">
        <ele>268.0</ele>
        <time>2022-09-26T11:26:51.005+02:00[Europe/Madrid]</time>
      </trkpt>
      <trkpt lat="37.13001" lon="-5.439233">
        <ele>268.0</ele>
        <time>2022-09-26T11:26:52.005+02:00[Europe/Madrid]</time>
      </trkpt>
      <trkpt lat="37.129895" lon="-5.439384">
        <ele>267.0</ele>
        <time>2022-09-26T11:26:53.005+02:00[Europe/Madrid]</time>
      </trkpt>
      <trkpt lat="37.12978" lon="-5.439531">
        <ele>267.0</ele>
        <time>2022-09-26T11:26:54.005+02:00[Europe/Madrid]</time>
      </trkpt>
      <trkpt lat="37.129668" lon="-5.439679">
        <ele>267.0</ele>
        <time>2022-09-26T11:26:55.005+02:00[Europe/Madrid]</time>
      </trkpt>
      <trkpt lat="37.129556" lon="-5.439822">
        <ele>266.0</ele>
        <time>2022-09-26T11:26:56.005+02:00[Europe/Madrid]</time>
      </trkpt>
      <trkpt lat="37.129446" lon="-5.439962">
        <ele>266.0</ele>
        <time>2022-09-26T11:26:57.005+02:00[Europe/Madrid]</time>
      </trkpt>
      <trkpt lat="37.129338" lon="-5.440097">
        <ele>265.0</ele>
        <time>2022-09-26T11:26:58.005+02:00[Europe/Madrid]</time>
      </trkpt>
      <trkpt lat="37.129234" lon="-5.440236">
        <ele>265.0</ele>
        <time>2022-09-26T11:26:59.005+02:00[Europe/Madrid]</time>
      </trkpt>
      <trkpt lat="37.129134" lon="-5.440368">
        <ele>265.0</ele>
        <time>2022-09-26T11:27:00.005+02:00[Europe/Madrid]</time>
      </trkpt>
      <trkpt lat="37.12904" lon="-5.440494">
        <ele>264.0</ele>
        <time>2022-09-26T11:27:01.005+02:00[Europe/Madrid]</time>
      </trkpt>
      <trkpt lat="37.128948" lon="-5.44062">
        <ele>264.0</ele>
        <time>2022-09-26T11:27:02.005+02:00[Europe/Madrid]</time>
      </trkpt>
      <trkpt lat="37.12886" lon="-5.440742">
        <ele>263.0</ele>
        <time>2022-09-26T11:27:03.005+02:00[Europe/Madrid]</time>
      </trkpt>
      <trkpt lat="37.128775" lon="-5.440865">
        <ele>263.0</ele>
        <time>2022-09-26T11:27:04.005+02:00[Europe/Madrid]</time>
      </trkpt>
      <trkpt lat="37.128694" lon="-5.440977">
        <ele>263.0</ele>
        <time>2022-09-26T11:27:05.005+02:00[Europe/Madrid]</time>
      </trkpt>
      <trkpt lat="37.128619" lon="-5.441087">
        <ele>262.0</ele>
        <time>2022-09-26T11:27:06.005+02:00[Europe/Madrid]</time>
      </trkpt>
      <trkpt lat="37.128547" lon="-5.441196">
        <ele>262.0</ele>
        <time>2022-09-26T11:27:07.005+02:00[Europe/Madrid]</time>
      </trkpt>
      <trkpt lat="37.128478" lon="-5.441304">
        <ele>262.0</ele>
        <time>2022-09-26T11:27:08.005+02:00[Europe/Madrid]</time>
      </trkpt>
      <trkpt lat="37.128409" lon="-5.441413">
        <ele>262.0</ele>
        <time>2022-09-26T11:27:09.005+02:00[Europe/Madrid]</time>
      </trkpt>
      <trkpt lat="37.128343" lon="-5.441517">
        <ele>261.0</ele>
        <time>2022-09-26T11:27:10.005+02:00[Europe/Madrid]</time>
      </trkpt>
      <trkpt lat="37.128278" lon="-5.441618">
        <ele>261.0</ele>
        <time>2022-09-26T11:27:11.005+02:00[Europe/Madrid]</time>
      </trkpt>
      <trkpt lat="37.128214" lon="-5.441716">
        <ele>261.0</ele>
        <time>2022-09-26T11:27:12.005+02:00[Europe/Madrid]</time>
      </trkpt>
      <trkpt lat="37.128151" lon="-5.441813">
        <ele>260.0</ele>
        <time>2022-09-26T11:27:13.005+02:00[Europe/Madrid]</time>
      </trkpt>
      <trkpt lat="37.128093" lon="-5.441912">
        <ele>260.0</ele>
        <time>2022-09-26T11:27:14.005+02:00[Europe/Madrid]</time>
      </trkpt>
      <trkpt lat="37.128041" lon="-5.442008">
        <ele>260.0</ele>
        <time>2022-09-26T11:27:15.005+02:00[Europe/Madrid]</time>
      </trkpt>
      <trkpt lat="37.127954" lon="-5.442184">
        <ele>260.0</ele>
        <time>2022-09-26T11:27:16.902+02:00[Europe/Madrid]</time>
      </trkpt>
      <trkpt lat="37.127902" lon="-5.442347">
        <ele>259.0</ele>
        <time>2022-09-26T11:27:18.902+02:00[Europe/Madrid]</time>
      </trkpt>
      <trkpt lat="37.127832" lon="-5.442481">
        <ele>259.0</ele>
        <time>2022-09-26T11:27:20.899+02:00[Europe/Madrid]</time>
      </trkpt>
      <trkpt lat="37.127738" lon="-5.442557">
        <ele>259.0</ele>
        <time>2022-09-26T11:27:22.903+02:00[Europe/Madrid]</time>
      </trkpt>
      <trkpt lat="37.127664" lon="-5.442639">
        <ele>259.0</ele>
        <time>2022-09-26T11:27:24.905+02:00[Europe/Madrid]</time>
      </trkpt>
      <trkpt lat="37.127585" lon="-5.44277">
        <ele>259.0</ele>
        <time>2022-09-26T11:27:27.905+02:00[Europe/Madrid]</time>
      </trkpt>
      <trkpt lat="37.127533" lon="-5.442866">
        <ele>259.0</ele>
        <time>2022-09-26T11:27:29.901+02:00[Europe/Madrid]</time>
      </trkpt>
      <trkpt lat="37.127479" lon="-5.442969">
        <ele>259.0</ele>
        <time>2022-09-26T11:27:31.899+02:00[Europe/Madrid]</time>
      </trkpt>
      <trkpt lat="37.127428" lon="-5.443077">
        <ele>258.0</ele>
        <time>2022-09-26T11:27:33.897+02:00[Europe/Madrid]</time>
      </trkpt>
      <trkpt lat="37.127368" lon="-5.443198">
        <ele>258.0</ele>
        <time>2022-09-26T11:27:35.895+02:00[Europe/Madrid]</time>
      </trkpt>
      <trkpt lat="37.127302" lon="-5.443347">
        <ele>258.0</ele>
        <time>2022-09-26T11:27:37.904+02:00[Europe/Madrid]</time>
      </trkpt>
      <trkpt lat="37.127241" lon="-5.44352">
        <ele>257.0</ele>
        <time>2022-09-26T11:27:39.897+02:00[Europe/Madrid]</time>
      </trkpt>
      <trkpt lat="37.127182" lon="-5.44369">
        <ele>256.0</ele>
        <time>2022-09-26T11:27:41.901+02:00[Europe/Madrid]</time>
      </trkpt>
      <trkpt lat="37.12712" lon="-5.443873">
        <ele>256.0</ele>
        <time>2022-09-26T11:27:43.900+02:00[Europe/Madrid]</time>
      </trkpt>
      <trkpt lat="37.127054" lon="-5.444068">
        <ele>256.0</ele>
        <time>2022-09-26T11:27:45.899+02:00[Europe/Madrid]</time>
      </trkpt>
      <trkpt lat="37.126992" lon="-5.44426">
        <ele>255.0</ele>
        <time>2022-09-26T11:27:47.906+02:00[Europe/Madrid]</time>
      </trkpt>
      <trkpt lat="37.126931" lon="-5.444448">
        <ele>255.0</ele>
        <time>2022-09-26T11:27:49.913+02:00[Europe/Madrid]</time>
      </trkpt>
      <trkpt lat="37.126863" lon="-5.444635">
        <ele>254.0</ele>
        <time>2022-09-26T11:27:51.903+02:00[Europe/Madrid]</time>
      </trkpt>
      <trkpt lat="37.1268" lon="-5.444827">
        <ele>254.0</ele>
        <time>2022-09-26T11:27:53.900+02:00[Europe/Madrid]</time>
      </trkpt>
      <trkpt lat="37.126734" lon="-5.445018">
        <ele>254.0</ele>
        <time>2022-09-26T11:27:55.895+02:00[Europe/Madrid]</time>
      </trkpt>
      <trkpt lat="37.126667" lon="-5.445203">
        <ele>254.0</ele>
        <time>2022-09-26T11:27:57.897+02:00[Europe/Madrid]</time>
      </trkpt>
      <trkpt lat="37.126602" lon="-5.445393">
        <ele>253.0</ele>
        <time>2022-09-26T11:27:59.906+02:00[Europe/Madrid]</time>
      </trkpt>
      <trkpt lat="37.126536" lon="-5.445587">
        <ele>253.0</ele>
        <time>2022-09-26T11:28:01.900+02:00[Europe/Madrid]</time>
      </trkpt>
      <trkpt lat="37.126466" lon="-5.445793">
        <ele>252.0</ele>
        <time>2022-09-26T11:28:03.896+02:00[Europe/Madrid]</time>
      </trkpt>
      <trkpt lat="37.126427" lon="-5.445895">
        <ele>252.0</ele>
        <time>2022-09-26T11:28:04.907+02:00[Europe/Madrid]</time>
      </trkpt>
      <trkpt lat="37.12635" lon="-5.446103">
        <ele>251.0</ele>
        <time>2022-09-26T11:28:06.905+02:00[Europe/Madrid]</time>
      </trkpt>
      <trkpt lat="37.126284" lon="-5.446301">
        <ele>251.0</ele>
        <time>2022-09-26T11:28:08.907+02:00[Europe/Madrid]</time>
      </trkpt>
      <trkpt lat="37.126222" lon="-5.446495">
        <ele>251.0</ele>
        <time>2022-09-26T11:28:10.896+02:00[Europe/Madrid]</time>
      </trkpt>
      <trkpt lat="37.126155" lon="-5.446691">
        <ele>251.0</ele>
        <time>2022-09-26T11:28:12.914+02:00[Europe/Madrid]</time>
      </trkpt>
      <trkpt lat="37.126088" lon="-5.446884">
        <ele>251.0</ele>
        <time>2022-09-26T11:28:14.906+02:00[Europe/Madrid]</time>
      </trkpt>
      <trkpt lat="37.126031" lon="-5.447061">
        <ele>251.0</ele>
        <time>2022-09-26T11:28:16.895+02:00[Europe/Madrid]</time>
      </trkpt>
      <trkpt lat="37.125982" lon="-5.447237">
        <ele>252.0</ele>
        <time>2022-09-26T11:28:18.903+02:00[Europe/Madrid]</time>
      </trkpt>
      <trkpt lat="37.125955" lon="-5.447413">
        <ele>253.0</ele>
        <time>2022-09-26T11:28:20.904+02:00[Europe/Madrid]</time>
      </trkpt>
      <trkpt lat="37.125941" lon="-5.447595">
        <ele>253.0</ele>
        <time>2022-09-26T11:28:22.901+02:00[Europe/Madrid]</time>
      </trkpt>
      <trkpt lat="37.125935" lon="-5.447793">
        <ele>253.0</ele>
        <time>2022-09-26T11:28:24.905+02:00[Europe/Madrid]</time>
      </trkpt>
      <trkpt lat="37.125929" lon="-5.447993">
        <ele>253.0</ele>
        <time>2022-09-26T11:28:26.905+02:00[Europe/Madrid]</time>
      </trkpt>
      <trkpt lat="37.125927" lon="-5.448207">
        <ele>252.0</ele>
        <time>2022-09-26T11:28:28.904+02:00[Europe/Madrid]</time>
      </trkpt>
      <trkpt lat="37.125976" lon="-5.448416">
        <ele>251.0</ele>
        <time>2022-09-26T11:28:30.912+02:00[Europe/Madrid]</time>
      </trkpt>
      <trkpt lat="37.126056" lon="-5.448617">
        <ele>250.0</ele>
        <time>2022-09-26T11:28:32.899+02:00[Europe/Madrid]</time>
      </trkpt>
      <trkpt lat="37.126134" lon="-5.448796">
        <ele>249.0</ele>
        <time>2022-09-26T11:28:34.898+02:00[Europe/Madrid]</time>
      </trkpt>
      <trkpt lat="37.126192" lon="-5.448921">
        <ele>249.0</ele>
        <time>2022-09-26T11:28:36.904+02:00[Europe/Madrid]</time>
      </trkpt>
      <trkpt lat="37.126263" lon="-5.449059">
        <ele>249.0</ele>
        <time>2022-09-26T11:28:40.897+02:00[Europe/Madrid]</time>
      </trkpt>
      <trkpt lat="37.126344" lon="-5.449203">
        <ele>248.0</ele>
        <time>2022-09-26T11:28:43.897+02:00[Europe/Madrid]</time>
      </trkpt>
      <trkpt lat="37.126402" lon="-5.449326">
        <ele>247.0</ele>
        <time>2022-09-26T11:28:45.900+02:00[Europe/Madrid]</time>
      </trkpt>
      <trkpt lat="37.12648" lon="-5.449475">
        <ele>247.0</ele>
        <time>2022-09-26T11:28:47.900+02:00[Europe/Madrid]</time>
      </trkpt>
      <trkpt lat="37.126578" lon="-5.449651">
        <ele>246.0</ele>
        <time>2022-09-26T11:28:49.901+02:00[Europe/Madrid]</time>
      </trkpt>
      <trkpt lat="37.126638" lon="-5.449747">
        <ele>245.0</ele>
        <time>2022-09-26T11:28:50.918+02:00[Europe/Madrid]</time>
      </trkpt>
      <trkpt lat="37.126703" lon="-5.449835">
        <ele>245.0</ele>
        <time>2022-09-26T11:28:51.918+02:00[Europe/Madrid]</time>
      </trkpt>
      <trkpt lat="37.126773" lon="-5.449918">
        <ele>245.0</ele>
        <time>2022-09-26T11:28:52.918+02:00[Europe/Madrid]</time>
      </trkpt>
      <trkpt lat="37.126844" lon="-5.450002">
        <ele>244.0</ele>
        <time>2022-09-26T11:28:53.918+02:00[Europe/Madrid]</time>
      </trkpt>
      <trkpt lat="37.126916" lon="-5.450077">
        <ele>244.0</ele>
        <time>2022-09-26T11:28:54.918+02:00[Europe/Madrid]</time>
      </trkpt>
      <trkpt lat="37.12699" lon="-5.450157">
        <ele>243.0</ele>
        <time>2022-09-26T11:28:55.918+02:00[Europe/Madrid]</time>
      </trkpt>
      <trkpt lat="37.127063" lon="-5.450232">
        <ele>243.0</ele>
        <time>2022-09-26T11:28:56.918+02:00[Europe/Madrid]</time>
      </trkpt>
      <trkpt lat="37.127138" lon="-5.450308">
        <ele>243.0</ele>
        <time>2022-09-26T11:28:57.918+02:00[Europe/Madrid]</time>
      </trkpt>
      <trkpt lat="37.127212" lon="-5.450379">
        <ele>244.0</ele>
        <time>2022-09-26T11:28:58.918+02:00[Europe/Madrid]</time>
      </trkpt>
      <trkpt lat="37.127285" lon="-5.450448">
        <ele>244.0</ele>
        <time>2022-09-26T11:28:59.918+02:00[Europe/Madrid]</time>
      </trkpt>
      <trkpt lat="37.127361" lon="-5.450516">
        <ele>244.0</ele>
        <time>2022-09-26T11:29:00.918+02:00[Europe/Madrid]</time>
      </trkpt>
      <trkpt lat="37.127439" lon="-5.45059">
        <ele>244.0</ele>
        <time>2022-09-26T11:29:01.918+02:00[Europe/Madrid]</time>
      </trkpt>
      <trkpt lat="37.127515" lon="-5.45067">
        <ele>243.0</ele>
        <time>2022-09-26T11:29:02.918+02:00[Europe/Madrid]</time>
      </trkpt>
      <trkpt lat="37.127594" lon="-5.450744">
        <ele>243.0</ele>
        <time>2022-09-26T11:29:03.918+02:00[Europe/Madrid]</time>
      </trkpt>
      <trkpt lat="37.127674" lon="-5.450819">
        <ele>243.0</ele>
        <time>2022-09-26T11:29:04.918+02:00[Europe/Madrid]</time>
      </trkpt>
      <trkpt lat="37.127752" lon="-5.450895">
        <ele>243.0</ele>
        <time>2022-09-26T11:29:05.918+02:00[Europe/Madrid]</time>
      </trkpt>
      <trkpt lat="37.127833" lon="-5.450968">
        <ele>243.0</ele>
        <time>2022-09-26T11:29:06.918+02:00[Europe/Madrid]</time>
      </trkpt>
      <trkpt lat="37.127914" lon="-5.451042">
        <ele>243.0</ele>
        <time>2022-09-26T11:29:07.918+02:00[Europe/Madrid]</time>
      </trkpt>
      <trkpt lat="37.127998" lon="-5.451124">
        <ele>242.0</ele>
        <time>2022-09-26T11:29:08.918+02:00[Europe/Madrid]</time>
      </trkpt>
      <trkpt lat="37.128078" lon="-5.451204">
        <ele>242.0</ele>
        <time>2022-09-26T11:29:09.918+02:00[Europe/Madrid]</time>
      </trkpt>
      <trkpt lat="37.12816" lon="-5.451285">
        <ele>242.0</ele>
        <time>2022-09-26T11:29:10.918+02:00[Europe/Madrid]</time>
      </trkpt>
      <trkpt lat="37.128242" lon="-5.451364">
        <ele>241.0</ele>
        <time>2022-09-26T11:29:11.918+02:00[Europe/Madrid]</time>
      </trkpt>
      <trkpt lat="37.128325" lon="-5.451439">
        <ele>241.0</ele>
        <time>2022-09-26T11:29:12.918+02:00[Europe/Madrid]</time>
      </trkpt>
      <trkpt lat="37.128408" lon="-5.451516">
        <ele>241.0</ele>
        <time>2022-09-26T11:29:13.918+02:00[Europe/Madrid]</time>
      </trkpt>
      <trkpt lat="37.128489" lon="-5.451597">
        <ele>241.0</ele>
        <time>2022-09-26T11:29:14.918+02:00[Europe/Madrid]</time>
      </trkpt>
      <trkpt lat="37.128569" lon="-5.451676">
        <ele>241.0</ele>
        <time>2022-09-26T11:29:15.926+02:00[Europe/Madrid]</time>
      </trkpt>
      <trkpt lat="37.128655" lon="-5.451755">
        <ele>241.0</ele>
        <time>2022-09-26T11:29:16.926+02:00[Europe/Madrid]</time>
      </trkpt>
      <trkpt lat="37.128735" lon="-5.45184">
        <ele>240.0</ele>
        <time>2022-09-26T11:29:17.926+02:00[Europe/Madrid]</time>
      </trkpt>
      <trkpt lat="37.128815" lon="-5.451928">
        <ele>240.0</ele>
        <time>2022-09-26T11:29:18.926+02:00[Europe/Madrid]</time>
      </trkpt>
      <trkpt lat="37.128895" lon="-5.452015">
        <ele>240.0</ele>
        <time>2022-09-26T11:29:19.926+02:00[Europe/Madrid]</time>
      </trkpt>
      <trkpt lat="37.128973" lon="-5.452109">
        <ele>239.0</ele>
        <time>2022-09-26T11:29:20.926+02:00[Europe/Madrid]</time>
      </trkpt>
      <trkpt lat="37.12905" lon="-5.45221">
        <ele>240.0</ele>
        <time>2022-09-26T11:29:21.926+02:00[Europe/Madrid]</time>
      </trkpt>
      <trkpt lat="37.129122" lon="-5.452313">
        <ele>239.0</ele>
        <time>2022-09-26T11:29:22.926+02:00[Europe/Madrid]</time>
      </trkpt>
      <trkpt lat="37.129193" lon="-5.452419">
        <ele>239.0</ele>
        <time>2022-09-26T11:29:23.926+02:00[Europe/Madrid]</time>
      </trkpt>
      <trkpt lat="37.129261" lon="-5.452528">
        <ele>238.0</ele>
        <time>2022-09-26T11:29:24.926+02:00[Europe/Madrid]</time>
      </trkpt>
      <trkpt lat="37.129326" lon="-5.452628">
        <ele>238.0</ele>
        <time>2022-09-26T11:29:25.926+02:00[Europe/Madrid]</time>
      </trkpt>
      <trkpt lat="37.129385" lon="-5.452733">
        <ele>238.0</ele>
        <time>2022-09-26T11:29:26.926+02:00[Europe/Madrid]</time>
      </trkpt>
      <trkpt lat="37.129442" lon="-5.452833">
        <ele>238.0</ele>
        <time>2022-09-26T11:29:27.926+02:00[Europe/Madrid]</time>
      </trkpt>
      <trkpt lat="37.129493" lon="-5.452934">
        <ele>238.0</ele>
        <time>2022-09-26T11:29:28.926+02:00[Europe/Madrid]</time>
      </trkpt>
      <trkpt lat="37.12959" lon="-5.453116">
        <ele>237.0</ele>
        <time>2022-09-26T11:29:30.907+02:00[Europe/Madrid]</time>
      </trkpt>
      <trkpt lat="37.129669" lon="-5.453289">
        <ele>237.0</ele>
        <time>2022-09-26T11:29:32.908+02:00[Europe/Madrid]</time>
      </trkpt>
      <trkpt lat="37.129743" lon="-5.453444">
        <ele>237.0</ele>
        <time>2022-09-26T11:29:34.908+02:00[Europe/Madrid]</time>
      </trkpt>
      <trkpt lat="37.12981" lon="-5.453584">
        <ele>237.0</ele>
        <time>2022-09-26T11:29:36.904+02:00[Europe/Madrid]</time>
      </trkpt>
      <trkpt lat="37.129863" lon="-5.453689">
        <ele>238.0</ele>
        <time>2022-09-26T11:29:38.899+02:00[Europe/Madrid]</time>
      </trkpt>
      <trkpt lat="37.129925" lon="-5.453793">
        <ele>238.0</ele>
        <time>2022-09-26T11:29:42.908+02:00[Europe/Madrid]</time>
      </trkpt>
      <trkpt lat="37.12999" lon="-5.453905">
        <ele>237.0</ele>
        <time>2022-09-26T11:29:46.899+02:00[Europe/Madrid]</time>
      </trkpt>
      <trkpt lat="37.129991" lon="-5.454027">
        <ele>238.0</ele>
        <time>2022-09-26T11:29:48.898+02:00[Europe/Madrid]</time>
      </trkpt>
      <trkpt lat="37.129921" lon="-5.454123">
        <ele>238.0</ele>
        <time>2022-09-26T11:29:50.900+02:00[Europe/Madrid]</time>
      </trkpt>
      <trkpt lat="37.129818" lon="-5.454226">
        <ele>239.0</ele>
        <time>2022-09-26T11:29:52.909+02:00[Europe/Madrid]</time>
      </trkpt>
      <trkpt lat="37.129705" lon="-5.454396">
        <ele>240.0</ele>
        <time>2022-09-26T11:29:54.899+02:00[Europe/Madrid]</time>
      </trkpt>
      <trkpt lat="37.129635" lon="-5.454498">
        <ele>240.0</ele>
        <time>2022-09-26T11:29:55.899+02:00[Europe/Madrid]</time>
      </trkpt>
      <trkpt lat="37.129561" lon="-5.454608">
        <ele>240.0</ele>
        <time>2022-09-26T11:29:56.899+02:00[Europe/Madrid]</time>
      </trkpt>
      <trkpt lat="37.129493" lon="-5.454719">
        <ele>240.0</ele>
        <time>2022-09-26T11:29:57.899+02:00[Europe/Madrid]</time>
      </trkpt>
      <trkpt lat="37.129421" lon="-5.454831">
        <ele>240.0</ele>
        <time>2022-09-26T11:29:58.905+02:00[Europe/Madrid]</time>
      </trkpt>
      <trkpt lat="37.129355" lon="-5.454934">
        <ele>241.0</ele>
        <time>2022-09-26T11:29:59.905+02:00[Europe/Madrid]</time>
      </trkpt>
      <trkpt lat="37.12929" lon="-5.455035">
        <ele>240.0</ele>
        <time>2022-09-26T11:30:00.905+02:00[Europe/Madrid]</time>
      </trkpt>
      <trkpt lat="37.129224" lon="-5.455136">
        <ele>240.0</ele>
        <time>2022-09-26T11:30:01.905+02:00[Europe/Madrid]</time>
      </trkpt>
      <trkpt lat="37.129166" lon="-5.455236">
        <ele>240.0</ele>
        <time>2022-09-26T11:30:02.906+02:00[Europe/Madrid]</time>
      </trkpt>
      <trkpt lat="37.129106" lon="-5.455332">
        <ele>240.0</ele>
        <time>2022-09-26T11:30:03.906+02:00[Europe/Madrid]</time>
      </trkpt>
      <trkpt lat="37.129044" lon="-5.455429">
        <ele>240.0</ele>
        <time>2022-09-26T11:30:04.906+02:00[Europe/Madrid]</time>
      </trkpt>
      <trkpt lat="37.128985" lon="-5.455529">
        <ele>240.0</ele>
        <time>2022-09-26T11:30:05.912+02:00[Europe/Madrid]</time>
      </trkpt>
      <trkpt lat="37.128925" lon="-5.455632">
        <ele>240.0</ele>
        <time>2022-09-26T11:30:06.912+02:00[Europe/Madrid]</time>
      </trkpt>
      <trkpt lat="37.128861" lon="-5.455734">
        <ele>240.0</ele>
        <time>2022-09-26T11:30:07.912+02:00[Europe/Madrid]</time>
      </trkpt>
      <trkpt lat="37.128796" lon="-5.455837">
        <ele>241.0</ele>
        <time>2022-09-26T11:30:08.919+02:00[Europe/Madrid]</time>
      </trkpt>
      <trkpt lat="37.12873" lon="-5.455935">
        <ele>241.0</ele>
        <time>2022-09-26T11:30:09.919+02:00[Europe/Madrid]</time>
      </trkpt>
      <trkpt lat="37.128637" lon="-5.456084">
        <ele>242.0</ele>
        <time>2022-09-26T11:30:11.905+02:00[Europe/Madrid]</time>
      </trkpt>
      <trkpt lat="37.128575" lon="-5.456182">
        <ele>242.0</ele>
        <time>2022-09-26T11:30:18.896+02:00[Europe/Madrid]</time>
      </trkpt>
      <trkpt lat="37.128507" lon="-5.456285">
        <ele>242.0</ele>
        <time>2022-09-26T11:30:20.909+02:00[Europe/Madrid]</time>
      </trkpt>
      <trkpt lat="37.128428" lon="-5.456419">
        <ele>243.0</ele>
        <time>2022-09-26T11:30:22.906+02:00[Europe/Madrid]</time>
      </trkpt>
      <trkpt lat="37.128327" lon="-5.456572">
        <ele>243.0</ele>
        <time>2022-09-26T11:30:24.901+02:00[Europe/Madrid]</time>
      </trkpt>
      <trkpt lat="37.128271" lon="-5.456661">
        <ele>244.0</ele>
        <time>2022-09-26T11:30:25.907+02:00[Europe/Madrid]</time>
      </trkpt>
      <trkpt lat="37.128209" lon="-5.45676">
        <ele>244.0</ele>
        <time>2022-09-26T11:30:26.917+02:00[Europe/Madrid]</time>
      </trkpt>
      <trkpt lat="37.128143" lon="-5.456859">
        <ele>244.0</ele>
        <time>2022-09-26T11:30:27.917+02:00[Europe/Madrid]</time>
      </trkpt>
      <trkpt lat="37.128083" lon="-5.456949">
        <ele>245.0</ele>
        <time>2022-09-26T11:30:28.917+02:00[Europe/Madrid]</time>
      </trkpt>
      <trkpt lat="37.127976" lon="-5.457113">
        <ele>246.0</ele>
        <time>2022-09-26T11:30:30.904+02:00[Europe/Madrid]</time>
      </trkpt>
      <trkpt lat="37.127881" lon="-5.457269">
        <ele>247.0</ele>
        <time>2022-09-26T11:30:32.905+02:00[Europe/Madrid]</time>
      </trkpt>
      <trkpt lat="37.12779" lon="-5.457433">
        <ele>248.0</ele>
        <time>2022-09-26T11:30:34.902+02:00[Europe/Madrid]</time>
      </trkpt>
      <trkpt lat="37.12771" lon="-5.457598">
        <ele>249.0</ele>
        <time>2022-09-26T11:30:36.921+02:00[Europe/Madrid]</time>
      </trkpt>
      <trkpt lat="37.12765" lon="-5.457731">
        <ele>250.0</ele>
        <time>2022-09-26T11:30:38.902+02:00[Europe/Madrid]</time>
      </trkpt>
      <trkpt lat="37.127607" lon="-5.457882">
        <ele>251.0</ele>
        <time>2022-09-26T11:30:40.899+02:00[Europe/Madrid]</time>
      </trkpt>
      <trkpt lat="37.127595" lon="-5.458035">
        <ele>253.0</ele>
        <time>2022-09-26T11:30:42.898+02:00[Europe/Madrid]</time>
      </trkpt>
      <trkpt lat="37.12758" lon="-5.458208">
        <ele>253.0</ele>
        <time>2022-09-26T11:30:44.900+02:00[Europe/Madrid]</time>
      </trkpt>
      <trkpt lat="37.127495" lon="-5.458369">
        <ele>254.0</ele>
        <time>2022-09-26T11:30:46.903+02:00[Europe/Madrid]</time>
      </trkpt>
      <trkpt lat="37.127445" lon="-5.458473">
        <ele>255.0</ele>
        <time>2022-09-26T11:30:47.917+02:00[Europe/Madrid]</time>
      </trkpt>
      <trkpt lat="37.127402" lon="-5.458596">
        <ele>255.0</ele>
        <time>2022-09-26T11:30:48.917+02:00[Europe/Madrid]</time>
      </trkpt>
      <trkpt lat="37.127363" lon="-5.458735">
        <ele>256.0</ele>
        <time>2022-09-26T11:30:49.917+02:00[Europe/Madrid]</time>
      </trkpt>
      <trkpt lat="37.127326" lon="-5.458872">
        <ele>256.0</ele>
        <time>2022-09-26T11:30:50.917+02:00[Europe/Madrid]</time>
      </trkpt>
      <trkpt lat="37.12729" lon="-5.458998">
        <ele>257.0</ele>
        <time>2022-09-26T11:30:51.917+02:00[Europe/Madrid]</time>
      </trkpt>
      <trkpt lat="37.127256" lon="-5.45911">
        <ele>257.0</ele>
        <time>2022-09-26T11:30:52.917+02:00[Europe/Madrid]</time>
      </trkpt>
      <trkpt lat="37.127173" lon="-5.4593">
        <ele>258.0</ele>
        <time>2022-09-26T11:30:54.904+02:00[Europe/Madrid]</time>
      </trkpt>
      <trkpt lat="37.127078" lon="-5.459477">
        <ele>258.0</ele>
        <time>2022-09-26T11:30:57.015+02:00[Europe/Madrid]</time>
      </trkpt>
      <trkpt lat="37.126979" lon="-5.459651">
        <ele>258.0</ele>
        <time>2022-09-26T11:30:58.900+02:00[Europe/Madrid]</time>
      </trkpt>
      <trkpt lat="37.126868" lon="-5.459826">
        <ele>258.0</ele>
        <time>2022-09-26T11:31:00.905+02:00[Europe/Madrid]</time>
      </trkpt>
      <trkpt lat="37.126752" lon="-5.459982">
        <ele>258.0</ele>
        <time>2022-09-26T11:31:02.912+02:00[Europe/Madrid]</time>
      </trkpt>
      <trkpt lat="37.126629" lon="-5.460132">
        <ele>259.0</ele>
        <time>2022-09-26T11:31:04.905+02:00[Europe/Madrid]</time>
      </trkpt>
      <trkpt lat="37.126474" lon="-5.46026">
        <ele>259.0</ele>
        <time>2022-09-26T11:31:06.906+02:00[Europe/Madrid]</time>
      </trkpt>
      <trkpt lat="37.126379" lon="-5.46031">
        <ele>259.0</ele>
        <time>2022-09-26T11:31:07.906+02:00[Europe/Madrid]</time>
      </trkpt>
      <trkpt lat="37.126271" lon="-5.460343">
        <ele>259.0</ele>
        <time>2022-09-26T11:31:08.906+02:00[Europe/Madrid]</time>
      </trkpt>
      <trkpt lat="37.126151" lon="-5.460364">
        <ele>259.0</ele>
        <time>2022-09-26T11:31:09.906+02:00[Europe/Madrid]</time>
      </trkpt>
      <trkpt lat="37.126027" lon="-5.460382">
        <ele>260.0</ele>
        <time>2022-09-26T11:31:10.906+02:00[Europe/Madrid]</time>
      </trkpt>
      <trkpt lat="37.125903" lon="-5.460398">
        <ele>260.0</ele>
        <time>2022-09-26T11:31:11.906+02:00[Europe/Madrid]</time>
      </trkpt>
      <trkpt lat="37.125783" lon="-5.460415">
        <ele>260.0</ele>
        <time>2022-09-26T11:31:12.908+02:00[Europe/Madrid]</time>
      </trkpt>
      <trkpt lat="37.125664" lon="-5.460431">
        <ele>261.0</ele>
        <time>2022-09-26T11:31:13.908+02:00[Europe/Madrid]</time>
      </trkpt>
      <trkpt lat="37.125553" lon="-5.460446">
        <ele>261.0</ele>
        <time>2022-09-26T11:31:14.908+02:00[Europe/Madrid]</time>
      </trkpt>
      <trkpt lat="37.125455" lon="-5.46046">
        <ele>262.0</ele>
        <time>2022-09-26T11:31:15.908+02:00[Europe/Madrid]</time>
      </trkpt>
      <trkpt lat="37.125362" lon="-5.460473">
        <ele>262.0</ele>
        <time>2022-09-26T11:31:16.908+02:00[Europe/Madrid]</time>
      </trkpt>
      <trkpt lat="37.125197" lon="-5.460497">
        <ele>262.0</ele>
        <time>2022-09-26T11:31:18.898+02:00[Europe/Madrid]</time>
      </trkpt>
      <trkpt lat="37.125029" lon="-5.460529">
        <ele>262.0</ele>
        <time>2022-09-26T11:31:20.901+02:00[Europe/Madrid]</time>
      </trkpt>
      <trkpt lat="37.124871" lon="-5.460567">
        <ele>263.0</ele>
        <time>2022-09-26T11:31:22.904+02:00[Europe/Madrid]</time>
      </trkpt>
      <trkpt lat="37.12474" lon="-5.460602">
        <ele>263.0</ele>
        <time>2022-09-26T11:31:24.900+02:00[Europe/Madrid]</time>
      </trkpt>
      <trkpt lat="37.124618" lon="-5.460645">
        <ele>263.0</ele>
        <time>2022-09-26T11:31:26.915+02:00[Europe/Madrid]</time>
      </trkpt>
      <trkpt lat="37.124491" lon="-5.460682">
        <ele>264.0</ele>
        <time>2022-09-26T11:31:28.901+02:00[Europe/Madrid]</time>
      </trkpt>
      <trkpt lat="37.124331" lon="-5.460676">
        <ele>264.0</ele>
        <time>2022-09-26T11:31:30.901+02:00[Europe/Madrid]</time>
      </trkpt>
      <trkpt lat="37.124161" lon="-5.460656">
        <ele>264.0</ele>
        <time>2022-09-26T11:31:32.898+02:00[Europe/Madrid]</time>
      </trkpt>
      <trkpt lat="37.124003" lon="-5.460665">
        <ele>264.0</ele>
        <time>2022-09-26T11:31:34.910+02:00[Europe/Madrid]</time>
      </trkpt>
      <trkpt lat="37.123862" lon="-5.460723">
        <ele>263.0</ele>
        <time>2022-09-26T11:31:36.903+02:00[Europe/Madrid]</time>
      </trkpt>
      <trkpt lat="37.123736" lon="-5.46081">
        <ele>264.0</ele>
        <time>2022-09-26T11:31:38.903+02:00[Europe/Madrid]</time>
      </trkpt>
      <trkpt lat="37.123623" lon="-5.460911">
        <ele>264.0</ele>
        <time>2022-09-26T11:31:40.901+02:00[Europe/Madrid]</time>
      </trkpt>
      <trkpt lat="37.123519" lon="-5.46102">
        <ele>264.0</ele>
        <time>2022-09-26T11:31:42.895+02:00[Europe/Madrid]</time>
      </trkpt>
      <trkpt lat="37.123433" lon="-5.461109">
        <ele>265.0</ele>
        <time>2022-09-26T11:31:44.899+02:00[Europe/Madrid]</time>
      </trkpt>
      <trkpt lat="37.123362" lon="-5.461189">
        <ele>265.0</ele>
        <time>2022-09-26T11:31:46.905+02:00[Europe/Madrid]</time>
      </trkpt>
      <trkpt lat="37.123298" lon="-5.461271">
        <ele>266.0</ele>
        <time>2022-09-26T11:31:49.917+02:00[Europe/Madrid]</time>
      </trkpt>
      <trkpt lat="37.123208" lon="-5.461369">
        <ele>267.0</ele>
        <time>2022-09-26T11:31:53.903+02:00[Europe/Madrid]</time>
      </trkpt>
      <trkpt lat="37.123128" lon="-5.461449">
        <ele>267.0</ele>
        <time>2022-09-26T11:31:55.897+02:00[Europe/Madrid]</time>
      </trkpt>
      <trkpt lat="37.123054" lon="-5.461536">
        <ele>267.0</ele>
        <time>2022-09-26T11:31:57.897+02:00[Europe/Madrid]</time>
      </trkpt>
      <trkpt lat="37.122948" lon="-5.461644">
        <ele>267.0</ele>
        <time>2022-09-26T11:31:59.912+02:00[Europe/Madrid]</time>
      </trkpt>
      <trkpt lat="37.122845" lon="-5.46175">
        <ele>268.0</ele>
        <time>2022-09-26T11:32:01.906+02:00[Europe/Madrid]</time>
      </trkpt>
      <trkpt lat="37.122705" lon="-5.461895">
        <ele>268.0</ele>
        <time>2022-09-26T11:32:03.896+02:00[Europe/Madrid]</time>
      </trkpt>
      <trkpt lat="37.12263" lon="-5.461978">
        <ele>268.0</ele>
        <time>2022-09-26T11:32:04.910+02:00[Europe/Madrid]</time>
      </trkpt>
      <trkpt lat="37.122545" lon="-5.462067">
        <ele>268.0</ele>
        <time>2022-09-26T11:32:05.912+02:00[Europe/Madrid]</time>
      </trkpt>
      <trkpt lat="37.122455" lon="-5.462157">
        <ele>268.0</ele>
        <time>2022-09-26T11:32:06.912+02:00[Europe/Madrid]</time>
      </trkpt>
      <trkpt lat="37.122372" lon="-5.462244">
        <ele>268.0</ele>
        <time>2022-09-26T11:32:07.912+02:00[Europe/Madrid]</time>
      </trkpt>
      <trkpt lat="37.122285" lon="-5.462322">
        <ele>268.0</ele>
        <time>2022-09-26T11:32:08.912+02:00[Europe/Madrid]</time>
      </trkpt>
      <trkpt lat="37.122193" lon="-5.462414">
        <ele>268.0</ele>
        <time>2022-09-26T11:32:09.912+02:00[Europe/Madrid]</time>
      </trkpt>
      <trkpt lat="37.1221" lon="-5.462518">
        <ele>269.0</ele>
        <time>2022-09-26T11:32:10.912+02:00[Europe/Madrid]</time>
      </trkpt>
      <trkpt lat="37.121997" lon="-5.462622">
        <ele>268.0</ele>
        <time>2022-09-26T11:32:11.912+02:00[Europe/Madrid]</time>
      </trkpt>
      <trkpt lat="37.121898" lon="-5.462721">
        <ele>269.0</ele>
        <time>2022-09-26T11:32:12.912+02:00[Europe/Madrid]</time>
      </trkpt>
      <trkpt lat="37.121807" lon="-5.46281">
        <ele>268.0</ele>
        <time>2022-09-26T11:32:13.912+02:00[Europe/Madrid]</time>
      </trkpt>
      <trkpt lat="37.121722" lon="-5.462898">
        <ele>268.0</ele>
        <time>2022-09-26T11:32:14.912+02:00[Europe/Madrid]</time>
      </trkpt>
      <trkpt lat="37.121645" lon="-5.462972">
        <ele>268.0</ele>
        <time>2022-09-26T11:32:15.912+02:00[Europe/Madrid]</time>
      </trkpt>
      <trkpt lat="37.121577" lon="-5.463048">
        <ele>268.0</ele>
        <time>2022-09-26T11:32:16.912+02:00[Europe/Madrid]</time>
      </trkpt>
      <trkpt lat="37.121461" lon="-5.463189">
        <ele>267.0</ele>
        <time>2022-09-26T11:32:18.910+02:00[Europe/Madrid]</time>
      </trkpt>
      <trkpt lat="37.12137" lon="-5.463322">
        <ele>267.0</ele>
        <time>2022-09-26T11:32:20.900+02:00[Europe/Madrid]</time>
      </trkpt>
      <trkpt lat="37.121226" lon="-5.463458">
        <ele>266.0</ele>
        <time>2022-09-26T11:32:22.905+02:00[Europe/Madrid]</time>
      </trkpt>
      <trkpt lat="37.121134" lon="-5.463539">
        <ele>265.0</ele>
        <time>2022-09-26T11:32:23.905+02:00[Europe/Madrid]</time>
      </trkpt>
      <trkpt lat="37.121037" lon="-5.46363">
        <ele>264.0</ele>
        <time>2022-09-26T11:32:24.905+02:00[Europe/Madrid]</time>
      </trkpt>
      <trkpt lat="37.120933" lon="-5.463731">
        <ele>264.0</ele>
        <time>2022-09-26T11:32:25.905+02:00[Europe/Madrid]</time>
      </trkpt>
      <trkpt lat="37.120827" lon="-5.463837">
        <ele>263.0</ele>
        <time>2022-09-26T11:32:26.905+02:00[Europe/Madrid]</time>
      </trkpt>
      <trkpt lat="37.120722" lon="-5.46395">
        <ele>263.0</ele>
        <time>2022-09-26T11:32:27.905+02:00[Europe/Madrid]</time>
      </trkpt>
      <trkpt lat="37.120618" lon="-5.464056">
        <ele>263.0</ele>
        <time>2022-09-26T11:32:28.907+02:00[Europe/Madrid]</time>
      </trkpt>
      <trkpt lat="37.120518" lon="-5.464162">
        <ele>262.0</ele>
        <time>2022-09-26T11:32:29.907+02:00[Europe/Madrid]</time>
      </trkpt>
      <trkpt lat="37.120414" lon="-5.464265">
        <ele>262.0</ele>
        <time>2022-09-26T11:32:30.907+02:00[Europe/Madrid]</time>
      </trkpt>
      <trkpt lat="37.120315" lon="-5.464366">
        <ele>262.0</ele>
        <time>2022-09-26T11:32:31.907+02:00[Europe/Madrid]</time>
      </trkpt>
      <trkpt lat="37.120214" lon="-5.464467">
        <ele>262.0</ele>
        <time>2022-09-26T11:32:32.907+02:00[Europe/Madrid]</time>
      </trkpt>
      <trkpt lat="37.120116" lon="-5.464553">
        <ele>263.0</ele>
        <time>2022-09-26T11:32:33.908+02:00[Europe/Madrid]</time>
      </trkpt>
      <trkpt lat="37.120013" lon="-5.464631">
        <ele>263.0</ele>
        <time>2022-09-26T11:32:34.910+02:00[Europe/Madrid]</time>
      </trkpt>
      <trkpt lat="37.119904" lon="-5.464704">
        <ele>263.0</ele>
        <time>2022-09-26T11:32:35.910+02:00[Europe/Madrid]</time>
      </trkpt>
      <trkpt lat="37.119784" lon="-5.464764">
        <ele>263.0</ele>
        <time>2022-09-26T11:32:36.910+02:00[Europe/Madrid]</time>
      </trkpt>
      <trkpt lat="37.119661" lon="-5.464816">
        <ele>263.0</ele>
        <time>2022-09-26T11:32:37.910+02:00[Europe/Madrid]</time>
      </trkpt>
      <trkpt lat="37.11954" lon="-5.464853">
        <ele>262.0</ele>
        <time>2022-09-26T11:32:38.910+02:00[Europe/Madrid]</time>
      </trkpt>
      <trkpt lat="37.119428" lon="-5.464885">
        <ele>261.0</ele>
        <time>2022-09-26T11:32:39.910+02:00[Europe/Madrid]</time>
      </trkpt>
      <trkpt lat="37.119316" lon="-5.46491">
        <ele>261.0</ele>
        <time>2022-09-26T11:32:40.910+02:00[Europe/Madrid]</time>
      </trkpt>
      <trkpt lat="37.119207" lon="-5.464922">
        <ele>260.0</ele>
        <time>2022-09-26T11:32:41.910+02:00[Europe/Madrid]</time>
      </trkpt>
      <trkpt lat="37.119102" lon="-5.464933">
        <ele>260.0</ele>
        <time>2022-09-26T11:32:42.910+02:00[Europe/Madrid]</time>
      </trkpt>
      <trkpt lat="37.11901" lon="-5.464953">
        <ele>260.0</ele>
        <time>2022-09-26T11:32:43.910+02:00[Europe/Madrid]</time>
      </trkpt>
      <trkpt lat="37.118853" lon="-5.464999">
        <ele>260.0</ele>
        <time>2022-09-26T11:32:45.904+02:00[Europe/Madrid]</time>
      </trkpt>
      <trkpt lat="37.118715" lon="-5.464953">
        <ele>260.0</ele>
        <time>2022-09-26T11:32:47.901+02:00[Europe/Madrid]</time>
      </trkpt>
      <trkpt lat="37.118578" lon="-5.46483">
        <ele>260.0</ele>
        <time>2022-09-26T11:32:49.899+02:00[Europe/Madrid]</time>
      </trkpt>
      <trkpt lat="37.118493" lon="-5.464775">
        <ele>259.0</ele>
        <time>2022-09-26T11:32:50.901+02:00[Europe/Madrid]</time>
      </trkpt>
      <trkpt lat="37.118395" lon="-5.46472">
        <ele>259.0</ele>
        <time>2022-09-26T11:32:51.903+02:00[Europe/Madrid]</time>
      </trkpt>
      <trkpt lat="37.118287" lon="-5.464662">
        <ele>259.0</ele>
        <time>2022-09-26T11:32:52.909+02:00[Europe/Madrid]</time>
      </trkpt>
      <trkpt lat="37.118177" lon="-5.464581">
        <ele>259.0</ele>
        <time>2022-09-26T11:32:53.909+02:00[Europe/Madrid]</time>
      </trkpt>
      <trkpt lat="37.118063" lon="-5.464488">
        <ele>258.0</ele>
        <time>2022-09-26T11:32:54.909+02:00[Europe/Madrid]</time>
      </trkpt>
      <trkpt lat="37.11795" lon="-5.464381">
        <ele>258.0</ele>
        <time>2022-09-26T11:32:55.909+02:00[Europe/Madrid]</time>
      </trkpt>
      <trkpt lat="37.117844" lon="-5.464266">
        <ele>257.0</ele>
        <time>2022-09-26T11:32:56.909+02:00[Europe/Madrid]</time>
      </trkpt>
      <trkpt lat="37.117748" lon="-5.464154">
        <ele>256.0</ele>
        <time>2022-09-26T11:32:57.909+02:00[Europe/Madrid]</time>
      </trkpt>
      <trkpt lat="37.117653" lon="-5.464041">
        <ele>256.0</ele>
        <time>2022-09-26T11:32:58.910+02:00[Europe/Madrid]</time>
      </trkpt>
      <trkpt lat="37.117555" lon="-5.463922">
        <ele>255.0</ele>
        <time>2022-09-26T11:32:59.910+02:00[Europe/Madrid]</time>
      </trkpt>
      <trkpt lat="37.117453" lon="-5.463796">
        <ele>255.0</ele>
        <time>2022-09-26T11:33:00.910+02:00[Europe/Madrid]</time>
      </trkpt>
      <trkpt lat="37.117345" lon="-5.463667">
        <ele>254.0</ele>
        <time>2022-09-26T11:33:01.910+02:00[Europe/Madrid]</time>
      </trkpt>
      <trkpt lat="37.117236" lon="-5.463544">
        <ele>253.0</ele>
        <time>2022-09-26T11:33:02.910+02:00[Europe/Madrid]</time>
      </trkpt>
      <trkpt lat="37.117134" lon="-5.463424">
        <ele>252.0</ele>
        <time>2022-09-26T11:33:03.910+02:00[Europe/Madrid]</time>
      </trkpt>
      <trkpt lat="37.117033" lon="-5.463307">
        <ele>252.0</ele>
        <time>2022-09-26T11:33:04.910+02:00[Europe/Madrid]</time>
      </trkpt>
      <trkpt lat="37.116928" lon="-5.463196">
        <ele>251.0</ele>
        <time>2022-09-26T11:33:05.910+02:00[Europe/Madrid]</time>
      </trkpt>
      <trkpt lat="37.116822" lon="-5.463099">
        <ele>251.0</ele>
        <time>2022-09-26T11:33:06.910+02:00[Europe/Madrid]</time>
      </trkpt>
      <trkpt lat="37.116702" lon="-5.463012">
        <ele>250.0</ele>
        <time>2022-09-26T11:33:07.910+02:00[Europe/Madrid]</time>
      </trkpt>
      <trkpt lat="37.116581" lon="-5.462934">
        <ele>250.0</ele>
        <time>2022-09-26T11:33:08.910+02:00[Europe/Madrid]</time>
      </trkpt>
      <trkpt lat="37.116462" lon="-5.462869">
        <ele>249.0</ele>
        <time>2022-09-26T11:33:09.910+02:00[Europe/Madrid]</time>
      </trkpt>
      <trkpt lat="37.116341" lon="-5.462816">
        <ele>248.0</ele>
        <time>2022-09-26T11:33:10.910+02:00[Europe/Madrid]</time>
      </trkpt>
      <trkpt lat="37.116222" lon="-5.462781">
        <ele>248.0</ele>
        <time>2022-09-26T11:33:11.910+02:00[Europe/Madrid]</time>
      </trkpt>
      <trkpt lat="37.116112" lon="-5.462764">
        <ele>247.0</ele>
        <time>2022-09-26T11:33:12.910+02:00[Europe/Madrid]</time>
      </trkpt>
      <trkpt lat="37.116014" lon="-5.46276">
        <ele>246.0</ele>
        <time>2022-09-26T11:33:13.910+02:00[Europe/Madrid]</time>
      </trkpt>
      <trkpt lat="37.115858" lon="-5.462808">
        <ele>246.0</ele>
        <time>2022-09-26T11:33:15.907+02:00[Europe/Madrid]</time>
      </trkpt>
      <trkpt lat="37.11572" lon="-5.46291">
        <ele>246.0</ele>
        <time>2022-09-26T11:33:17.904+02:00[Europe/Madrid]</time>
      </trkpt>
      <trkpt lat="37.115554" lon="-5.462937">
        <ele>245.0</ele>
        <time>2022-09-26T11:33:19.898+02:00[Europe/Madrid]</time>
      </trkpt>
      <trkpt lat="37.115458" lon="-5.462956">
        <ele>245.0</ele>
        <time>2022-09-26T11:33:20.910+02:00[Europe/Madrid]</time>
      </trkpt>
      <trkpt lat="37.115362" lon="-5.463008">
        <ele>244.0</ele>
        <time>2022-09-26T11:33:21.910+02:00[Europe/Madrid]</time>
      </trkpt>
      <trkpt lat="37.115266" lon="-5.463082">
        <ele>244.0</ele>
        <time>2022-09-26T11:33:22.910+02:00[Europe/Madrid]</time>
      </trkpt>
      <trkpt lat="37.115164" lon="-5.463178">
        <ele>243.0</ele>
        <time>2022-09-26T11:33:23.910+02:00[Europe/Madrid]</time>
      </trkpt>
      <trkpt lat="37.115071" lon="-5.463291">
        <ele>243.0</ele>
        <time>2022-09-26T11:33:24.910+02:00[Europe/Madrid]</time>
      </trkpt>
      <trkpt lat="37.114972" lon="-5.463418">
        <ele>243.0</ele>
        <time>2022-09-26T11:33:25.910+02:00[Europe/Madrid]</time>
      </trkpt>
      <trkpt lat="37.114874" lon="-5.463554">
        <ele>243.0</ele>
        <time>2022-09-26T11:33:26.910+02:00[Europe/Madrid]</time>
      </trkpt>
      <trkpt lat="37.114776" lon="-5.463696">
        <ele>243.0</ele>
        <time>2022-09-26T11:33:27.910+02:00[Europe/Madrid]</time>
      </trkpt>
      <trkpt lat="37.114674" lon="-5.46385">
        <ele>243.0</ele>
        <time>2022-09-26T11:33:28.910+02:00[Europe/Madrid]</time>
      </trkpt>
      <trkpt lat="37.114556" lon="-5.464011">
        <ele>243.0</ele>
        <time>2022-09-26T11:33:29.910+02:00[Europe/Madrid]</time>
      </trkpt>
      <trkpt lat="37.114431" lon="-5.46418">
        <ele>242.0</ele>
        <time>2022-09-26T11:33:30.910+02:00[Europe/Madrid]</time>
      </trkpt>
      <trkpt lat="37.114292" lon="-5.464352">
        <ele>242.0</ele>
        <time>2022-09-26T11:33:31.910+02:00[Europe/Madrid]</time>
      </trkpt>
      <trkpt lat="37.114138" lon="-5.46452">
        <ele>241.0</ele>
        <time>2022-09-26T11:33:32.910+02:00[Europe/Madrid]</time>
      </trkpt>
      <trkpt lat="37.113979" lon="-5.464674">
        <ele>242.0</ele>
        <time>2022-09-26T11:33:33.910+02:00[Europe/Madrid]</time>
      </trkpt>
      <trkpt lat="37.113826" lon="-5.464817">
        <ele>242.0</ele>
        <time>2022-09-26T11:33:34.910+02:00[Europe/Madrid]</time>
      </trkpt>
      <trkpt lat="37.11368" lon="-5.464955">
        <ele>243.0</ele>
        <time>2022-09-26T11:33:35.910+02:00[Europe/Madrid]</time>
      </trkpt>
      <trkpt lat="37.113533" lon="-5.465088">
        <ele>244.0</ele>
        <time>2022-09-26T11:33:36.910+02:00[Europe/Madrid]</time>
      </trkpt>
      <trkpt lat="37.113394" lon="-5.465213">
        <ele>245.0</ele>
        <time>2022-09-26T11:33:37.910+02:00[Europe/Madrid]</time>
      </trkpt>
      <trkpt lat="37.113257" lon="-5.465332">
        <ele>246.0</ele>
        <time>2022-09-26T11:33:38.914+02:00[Europe/Madrid]</time>
      </trkpt>
      <trkpt lat="37.113123" lon="-5.465454">
        <ele>247.0</ele>
        <time>2022-09-26T11:33:39.914+02:00[Europe/Madrid]</time>
      </trkpt>
      <trkpt lat="37.113001" lon="-5.465589">
        <ele>247.0</ele>
        <time>2022-09-26T11:33:40.914+02:00[Europe/Madrid]</time>
      </trkpt>
      <trkpt lat="37.112887" lon="-5.465744">
        <ele>247.0</ele>
        <time>2022-09-26T11:33:41.914+02:00[Europe/Madrid]</time>
      </trkpt>
      <trkpt lat="37.112779" lon="-5.465923">
        <ele>247.0</ele>
        <time>2022-09-26T11:33:42.914+02:00[Europe/Madrid]</time>
      </trkpt>
      <trkpt lat="37.112687" lon="-5.466119">
        <ele>247.0</ele>
        <time>2022-09-26T11:33:43.914+02:00[Europe/Madrid]</time>
      </trkpt>
      <trkpt lat="37.112605" lon="-5.466326">
        <ele>248.0</ele>
        <time>2022-09-26T11:33:44.914+02:00[Europe/Madrid]</time>
      </trkpt>
      <trkpt lat="37.11253" lon="-5.466531">
        <ele>248.0</ele>
        <time>2022-09-26T11:33:45.914+02:00[Europe/Madrid]</time>
      </trkpt>
      <trkpt lat="37.112438" lon="-5.466725">
        <ele>249.0</ele>
        <time>2022-09-26T11:33:46.914+02:00[Europe/Madrid]</time>
      </trkpt>
      <trkpt lat="37.112336" lon="-5.466914">
        <ele>250.0</ele>
        <time>2022-09-26T11:33:47.914+02:00[Europe/Madrid]</time>
      </trkpt>
      <trkpt lat="37.112238" lon="-5.467096">
        <ele>251.0</ele>
        <time>2022-09-26T11:33:48.914+02:00[Europe/Madrid]</time>
      </trkpt>
      <trkpt lat="37.112147" lon="-5.467285">
        <ele>251.0</ele>
        <time>2022-09-26T11:33:49.914+02:00[Europe/Madrid]</time>
      </trkpt>
      <trkpt lat="37.11207" lon="-5.467478">
        <ele>252.0</ele>
        <time>2022-09-26T11:33:50.914+02:00[Europe/Madrid]</time>
      </trkpt>
      <trkpt lat="37.112007" lon="-5.467678">
        <ele>253.0</ele>
        <time>2022-09-26T11:33:51.914+02:00[Europe/Madrid]</time>
      </trkpt>
      <trkpt lat="37.111954" lon="-5.467863">
        <ele>254.0</ele>
        <time>2022-09-26T11:33:52.914+02:00[Europe/Madrid]</time>
      </trkpt>
      <trkpt lat="37.111907" lon="-5.468037">
        <ele>254.0</ele>
        <time>2022-09-26T11:33:53.914+02:00[Europe/Madrid]</time>
      </trkpt>
      <trkpt lat="37.111855" lon="-5.468205">
        <ele>254.0</ele>
        <time>2022-09-26T11:33:54.914+02:00[Europe/Madrid]</time>
      </trkpt>
      <trkpt lat="37.111796" lon="-5.468369">
        <ele>254.0</ele>
        <time>2022-09-26T11:33:55.914+02:00[Europe/Madrid]</time>
      </trkpt>
      <trkpt lat="37.111729" lon="-5.468528">
        <ele>253.0</ele>
        <time>2022-09-26T11:33:56.914+02:00[Europe/Madrid]</time>
      </trkpt>
      <trkpt lat="37.111641" lon="-5.468665">
        <ele>253.0</ele>
        <time>2022-09-26T11:33:57.914+02:00[Europe/Madrid]</time>
      </trkpt>
      <trkpt lat="37.111534" lon="-5.468782">
        <ele>253.0</ele>
        <time>2022-09-26T11:33:58.914+02:00[Europe/Madrid]</time>
      </trkpt>
      <trkpt lat="37.111409" lon="-5.468889">
        <ele>253.0</ele>
        <time>2022-09-26T11:33:59.914+02:00[Europe/Madrid]</time>
      </trkpt>
      <trkpt lat="37.111275" lon="-5.468997">
        <ele>253.0</ele>
        <time>2022-09-26T11:34:00.914+02:00[Europe/Madrid]</time>
      </trkpt>
      <trkpt lat="37.111126" lon="-5.469105">
        <ele>253.0</ele>
        <time>2022-09-26T11:34:01.914+02:00[Europe/Madrid]</time>
      </trkpt>
      <trkpt lat="37.110977" lon="-5.469208">
        <ele>253.0</ele>
        <time>2022-09-26T11:34:02.914+02:00[Europe/Madrid]</time>
      </trkpt>
      <trkpt lat="37.110822" lon="-5.469297">
        <ele>253.0</ele>
        <time>2022-09-26T11:34:03.914+02:00[Europe/Madrid]</time>
      </trkpt>
      <trkpt lat="37.110653" lon="-5.469369">
        <ele>253.0</ele>
        <time>2022-09-26T11:34:04.914+02:00[Europe/Madrid]</time>
      </trkpt>
      <trkpt lat="37.11048" lon="-5.469418">
        <ele>253.0</ele>
        <time>2022-09-26T11:34:05.914+02:00[Europe/Madrid]</time>
      </trkpt>
      <trkpt lat="37.110305" lon="-5.469459">
        <ele>254.0</ele>
        <time>2022-09-26T11:34:06.914+02:00[Europe/Madrid]</time>
      </trkpt>
      <trkpt lat="37.110137" lon="-5.469502">
        <ele>255.0</ele>
        <time>2022-09-26T11:34:07.914+02:00[Europe/Madrid]</time>
      </trkpt>
      <trkpt lat="37.109978" lon="-5.469561">
        <ele>256.0</ele>
        <time>2022-09-26T11:34:08.914+02:00[Europe/Madrid]</time>
      </trkpt>
      <trkpt lat="37.109826" lon="-5.469649">
        <ele>257.0</ele>
        <time>2022-09-26T11:34:09.914+02:00[Europe/Madrid]</time>
      </trkpt>
      <trkpt lat="37.109677" lon="-5.469767">
        <ele>257.0</ele>
        <time>2022-09-26T11:34:10.914+02:00[Europe/Madrid]</time>
      </trkpt>
      <trkpt lat="37.109528" lon="-5.469901">
        <ele>258.0</ele>
        <time>2022-09-26T11:34:11.914+02:00[Europe/Madrid]</time>
      </trkpt>
      <trkpt lat="37.109379" lon="-5.470033">
        <ele>259.0</ele>
        <time>2022-09-26T11:34:12.914+02:00[Europe/Madrid]</time>
      </trkpt>
      <trkpt lat="37.109232" lon="-5.470157">
        <ele>260.0</ele>
        <time>2022-09-26T11:34:13.914+02:00[Europe/Madrid]</time>
      </trkpt>
      <trkpt lat="37.109098" lon="-5.470274">
        <ele>261.0</ele>
        <time>2022-09-26T11:34:14.914+02:00[Europe/Madrid]</time>
      </trkpt>
      <trkpt lat="37.108978" lon="-5.470389">
        <ele>262.0</ele>
        <time>2022-09-26T11:34:15.914+02:00[Europe/Madrid]</time>
      </trkpt>
      <trkpt lat="37.108868" lon="-5.470511">
        <ele>262.0</ele>
        <time>2022-09-26T11:34:16.914+02:00[Europe/Madrid]</time>
      </trkpt>
      <trkpt lat="37.108762" lon="-5.470646">
        <ele>262.0</ele>
        <time>2022-09-26T11:34:17.914+02:00[Europe/Madrid]</time>
      </trkpt>
      <trkpt lat="37.108652" lon="-5.470797">
        <ele>261.0</ele>
        <time>2022-09-26T11:34:18.914+02:00[Europe/Madrid]</time>
      </trkpt>
      <trkpt lat="37.108534" lon="-5.470952">
        <ele>260.0</ele>
        <time>2022-09-26T11:34:19.914+02:00[Europe/Madrid]</time>
      </trkpt>
      <trkpt lat="37.10841" lon="-5.471112">
        <ele>259.0</ele>
        <time>2022-09-26T11:34:20.914+02:00[Europe/Madrid]</time>
      </trkpt>
      <trkpt lat="37.10828" lon="-5.471267">
        <ele>259.0</ele>
        <time>2022-09-26T11:34:21.914+02:00[Europe/Madrid]</time>
      </trkpt>
      <trkpt lat="37.108147" lon="-5.471409">
        <ele>260.0</ele>
        <time>2022-09-26T11:34:22.914+02:00[Europe/Madrid]</time>
      </trkpt>
      <trkpt lat="37.108007" lon="-5.471537">
        <ele>260.0</ele>
        <time>2022-09-26T11:34:23.915+02:00[Europe/Madrid]</time>
      </trkpt>
      <trkpt lat="37.107861" lon="-5.471649">
        <ele>261.0</ele>
        <time>2022-09-26T11:34:24.915+02:00[Europe/Madrid]</time>
      </trkpt>
      <trkpt lat="37.10771" lon="-5.471749">
        <ele>262.0</ele>
        <time>2022-09-26T11:34:25.915+02:00[Europe/Madrid]</time>
      </trkpt>
      <trkpt lat="37.107559" lon="-5.47183">
        <ele>262.0</ele>
        <time>2022-09-26T11:34:26.915+02:00[Europe/Madrid]</time>
      </trkpt>
      <trkpt lat="37.10741" lon="-5.471909">
        <ele>263.0</ele>
        <time>2022-09-26T11:34:27.915+02:00[Europe/Madrid]</time>
      </trkpt>
      <trkpt lat="37.107261" lon="-5.471981">
        <ele>263.0</ele>
        <time>2022-09-26T11:34:28.915+02:00[Europe/Madrid]</time>
      </trkpt>
      <trkpt lat="37.107106" lon="-5.472053">
        <ele>263.0</ele>
        <time>2022-09-26T11:34:29.915+02:00[Europe/Madrid]</time>
      </trkpt>
      <trkpt lat="37.106949" lon="-5.472123">
        <ele>263.0</ele>
        <time>2022-09-26T11:34:30.915+02:00[Europe/Madrid]</time>
      </trkpt>
      <trkpt lat="37.106796" lon="-5.472182">
        <ele>262.0</ele>
        <time>2022-09-26T11:34:31.915+02:00[Europe/Madrid]</time>
      </trkpt>
      <trkpt lat="37.106646" lon="-5.472226">
        <ele>262.0</ele>
        <time>2022-09-26T11:34:32.915+02:00[Europe/Madrid]</time>
      </trkpt>
      <trkpt lat="37.106493" lon="-5.472254">
        <ele>261.0</ele>
        <time>2022-09-26T11:34:33.915+02:00[Europe/Madrid]</time>
      </trkpt>
      <trkpt lat="37.106339" lon="-5.472258">
        <ele>260.0</ele>
        <time>2022-09-26T11:34:34.915+02:00[Europe/Madrid]</time>
      </trkpt>
      <trkpt lat="37.106183" lon="-5.472251">
        <ele>260.0</ele>
        <time>2022-09-26T11:34:35.915+02:00[Europe/Madrid]</time>
      </trkpt>
      <trkpt lat="37.106029" lon="-5.472243">
        <ele>259.0</ele>
        <time>2022-09-26T11:34:36.915+02:00[Europe/Madrid]</time>
      </trkpt>
      <trkpt lat="37.105879" lon="-5.472261">
        <ele>259.0</ele>
        <time>2022-09-26T11:34:37.915+02:00[Europe/Madrid]</time>
      </trkpt>
      <trkpt lat="37.105733" lon="-5.472304">
        <ele>258.0</ele>
        <time>2022-09-26T11:34:38.915+02:00[Europe/Madrid]</time>
      </trkpt>
      <trkpt lat="37.105578" lon="-5.472374">
        <ele>257.0</ele>
        <time>2022-09-26T11:34:39.915+02:00[Europe/Madrid]</time>
      </trkpt>
      <trkpt lat="37.105419" lon="-5.472453">
        <ele>257.0</ele>
        <time>2022-09-26T11:34:40.915+02:00[Europe/Madrid]</time>
      </trkpt>
      <trkpt lat="37.10525" lon="-5.472547">
        <ele>256.0</ele>
        <time>2022-09-26T11:34:41.915+02:00[Europe/Madrid]</time>
      </trkpt>
      <trkpt lat="37.105078" lon="-5.47266">
        <ele>256.0</ele>
        <time>2022-09-26T11:34:42.915+02:00[Europe/Madrid]</time>
      </trkpt>
      <trkpt lat="37.104902" lon="-5.472797">
        <ele>255.0</ele>
        <time>2022-09-26T11:34:43.915+02:00[Europe/Madrid]</time>
      </trkpt>
      <trkpt lat="37.104726" lon="-5.472939">
        <ele>254.0</ele>
        <time>2022-09-26T11:34:44.915+02:00[Europe/Madrid]</time>
      </trkpt>
      <trkpt lat="37.104553" lon="-5.473073">
        <ele>253.0</ele>
        <time>2022-09-26T11:34:45.915+02:00[Europe/Madrid]</time>
      </trkpt>
      <trkpt lat="37.104386" lon="-5.473201">
        <ele>253.0</ele>
        <time>2022-09-26T11:34:46.915+02:00[Europe/Madrid]</time>
      </trkpt>
      <trkpt lat="37.104231" lon="-5.473326">
        <ele>252.0</ele>
        <time>2022-09-26T11:34:47.915+02:00[Europe/Madrid]</time>
      </trkpt>
      <trkpt lat="37.104086" lon="-5.473458">
        <ele>251.0</ele>
        <time>2022-09-26T11:34:48.915+02:00[Europe/Madrid]</time>
      </trkpt>
      <trkpt lat="37.103951" lon="-5.473587">
        <ele>250.0</ele>
        <time>2022-09-26T11:34:49.915+02:00[Europe/Madrid]</time>
      </trkpt>
      <trkpt lat="37.103823" lon="-5.473724">
        <ele>249.0</ele>
        <time>2022-09-26T11:34:50.915+02:00[Europe/Madrid]</time>
      </trkpt>
      <trkpt lat="37.103701" lon="-5.473854">
        <ele>248.0</ele>
        <time>2022-09-26T11:34:51.915+02:00[Europe/Madrid]</time>
      </trkpt>
      <trkpt lat="37.10358" lon="-5.473974">
        <ele>247.0</ele>
        <time>2022-09-26T11:34:52.915+02:00[Europe/Madrid]</time>
      </trkpt>
      <trkpt lat="37.103451" lon="-5.474089">
        <ele>246.0</ele>
        <time>2022-09-26T11:34:53.915+02:00[Europe/Madrid]</time>
      </trkpt>
      <trkpt lat="37.103311" lon="-5.474193">
        <ele>245.0</ele>
        <time>2022-09-26T11:34:54.915+02:00[Europe/Madrid]</time>
      </trkpt>
      <trkpt lat="37.103166" lon="-5.474278">
        <ele>244.0</ele>
        <time>2022-09-26T11:34:55.915+02:00[Europe/Madrid]</time>
      </trkpt>
      <trkpt lat="37.103013" lon="-5.47436">
        <ele>243.0</ele>
        <time>2022-09-26T11:34:56.915+02:00[Europe/Madrid]</time>
      </trkpt>
      <trkpt lat="37.102858" lon="-5.474442">
        <ele>242.0</ele>
        <time>2022-09-26T11:34:57.915+02:00[Europe/Madrid]</time>
      </trkpt>
      <trkpt lat="37.102703" lon="-5.474523">
        <ele>241.0</ele>
        <time>2022-09-26T11:34:58.915+02:00[Europe/Madrid]</time>
      </trkpt>
      <trkpt lat="37.102549" lon="-5.474609">
        <ele>240.0</ele>
        <time>2022-09-26T11:34:59.915+02:00[Europe/Madrid]</time>
      </trkpt>
      <trkpt lat="37.102396" lon="-5.474691">
        <ele>240.0</ele>
        <time>2022-09-26T11:35:00.916+02:00[Europe/Madrid]</time>
      </trkpt>
      <trkpt lat="37.102246" lon="-5.474768">
        <ele>238.0</ele>
        <time>2022-09-26T11:35:01.916+02:00[Europe/Madrid]</time>
      </trkpt>
      <trkpt lat="37.102101" lon="-5.474851">
        <ele>237.0</ele>
        <time>2022-09-26T11:35:02.916+02:00[Europe/Madrid]</time>
      </trkpt>
      <trkpt lat="37.101958" lon="-5.474951">
        <ele>236.0</ele>
        <time>2022-09-26T11:35:03.916+02:00[Europe/Madrid]</time>
      </trkpt>
      <trkpt lat="37.101827" lon="-5.475075">
        <ele>235.0</ele>
        <time>2022-09-26T11:35:04.916+02:00[Europe/Madrid]</time>
      </trkpt>
      <trkpt lat="37.10171" lon="-5.475228">
        <ele>233.0</ele>
        <time>2022-09-26T11:35:05.920+02:00[Europe/Madrid]</time>
      </trkpt>
      <trkpt lat="37.101597" lon="-5.475401">
        <ele>232.0</ele>
        <time>2022-09-26T11:35:06.920+02:00[Europe/Madrid]</time>
      </trkpt>
      <trkpt lat="37.101478" lon="-5.475584">
        <ele>231.0</ele>
        <time>2022-09-26T11:35:07.920+02:00[Europe/Madrid]</time>
      </trkpt>
      <trkpt lat="37.101351" lon="-5.475763">
        <ele>229.0</ele>
        <time>2022-09-26T11:35:08.920+02:00[Europe/Madrid]</time>
      </trkpt>
      <trkpt lat="37.101228" lon="-5.475943">
        <ele>228.0</ele>
        <time>2022-09-26T11:35:09.920+02:00[Europe/Madrid]</time>
      </trkpt>
      <trkpt lat="37.101106" lon="-5.476123">
        <ele>226.0</ele>
        <time>2022-09-26T11:35:10.920+02:00[Europe/Madrid]</time>
      </trkpt>
      <trkpt lat="37.100987" lon="-5.476305">
        <ele>225.0</ele>
        <time>2022-09-26T11:35:11.920+02:00[Europe/Madrid]</time>
      </trkpt>
      <trkpt lat="37.100866" lon="-5.476488">
        <ele>224.0</ele>
        <time>2022-09-26T11:35:12.920+02:00[Europe/Madrid]</time>
      </trkpt>
      <trkpt lat="37.100746" lon="-5.476664">
        <ele>223.0</ele>
        <time>2022-09-26T11:35:13.920+02:00[Europe/Madrid]</time>
      </trkpt>
      <trkpt lat="37.100624" lon="-5.476843">
        <ele>222.0</ele>
        <time>2022-09-26T11:35:14.920+02:00[Europe/Madrid]</time>
      </trkpt>
      <trkpt lat="37.100505" lon="-5.477025">
        <ele>221.0</ele>
        <time>2022-09-26T11:35:15.920+02:00[Europe/Madrid]</time>
      </trkpt>
      <trkpt lat="37.10038" lon="-5.477201">
        <ele>221.0</ele>
        <time>2022-09-26T11:35:16.920+02:00[Europe/Madrid]</time>
      </trkpt>
      <trkpt lat="37.100255" lon="-5.477379">
        <ele>220.0</ele>
        <time>2022-09-26T11:35:17.920+02:00[Europe/Madrid]</time>
      </trkpt>
      <trkpt lat="37.10013" lon="-5.477557">
        <ele>220.0</ele>
        <time>2022-09-26T11:35:18.920+02:00[Europe/Madrid]</time>
      </trkpt>
      <trkpt lat="37.100008" lon="-5.477739">
        <ele>219.0</ele>
        <time>2022-09-26T11:35:19.920+02:00[Europe/Madrid]</time>
      </trkpt>
      <trkpt lat="37.099886" lon="-5.477919">
        <ele>219.0</ele>
        <time>2022-09-26T11:35:20.920+02:00[Europe/Madrid]</time>
      </trkpt>
      <trkpt lat="37.099757" lon="-5.478105">
        <ele>219.0</ele>
        <time>2022-09-26T11:35:21.920+02:00[Europe/Madrid]</time>
      </trkpt>
      <trkpt lat="37.099628" lon="-5.478291">
        <ele>218.0</ele>
        <time>2022-09-26T11:35:22.920+02:00[Europe/Madrid]</time>
      </trkpt>
      <trkpt lat="37.0995" lon="-5.478478">
        <ele>217.0</ele>
        <time>2022-09-26T11:35:23.920+02:00[Europe/Madrid]</time>
      </trkpt>
      <trkpt lat="37.09937" lon="-5.47866">
        <ele>216.0</ele>
        <time>2022-09-26T11:35:24.920+02:00[Europe/Madrid]</time>
      </trkpt>
      <trkpt lat="37.099235" lon="-5.478828">
        <ele>215.0</ele>
        <time>2022-09-26T11:35:25.920+02:00[Europe/Madrid]</time>
      </trkpt>
      <trkpt lat="37.099097" lon="-5.478984">
        <ele>215.0</ele>
        <time>2022-09-26T11:35:26.920+02:00[Europe/Madrid]</time>
      </trkpt>
      <trkpt lat="37.098941" lon="-5.479134">
        <ele>215.0</ele>
        <time>2022-09-26T11:35:27.920+02:00[Europe/Madrid]</time>
      </trkpt>
      <trkpt lat="37.09877" lon="-5.479284">
        <ele>215.0</ele>
        <time>2022-09-26T11:35:28.920+02:00[Europe/Madrid]</time>
      </trkpt>
      <trkpt lat="37.098598" lon="-5.479443">
        <ele>215.0</ele>
        <time>2022-09-26T11:35:29.920+02:00[Europe/Madrid]</time>
      </trkpt>
      <trkpt lat="37.098433" lon="-5.479594">
        <ele>215.0</ele>
        <time>2022-09-26T11:35:30.920+02:00[Europe/Madrid]</time>
      </trkpt>
      <trkpt lat="37.098276" lon="-5.47974">
        <ele>214.0</ele>
        <time>2022-09-26T11:35:31.920+02:00[Europe/Madrid]</time>
      </trkpt>
      <trkpt lat="37.098117" lon="-5.479889">
        <ele>214.0</ele>
        <time>2022-09-26T11:35:32.920+02:00[Europe/Madrid]</time>
      </trkpt>
      <trkpt lat="37.097968" lon="-5.480034">
        <ele>214.0</ele>
        <time>2022-09-26T11:35:33.920+02:00[Europe/Madrid]</time>
      </trkpt>
      <trkpt lat="37.097827" lon="-5.480172">
        <ele>215.0</ele>
        <time>2022-09-26T11:35:34.920+02:00[Europe/Madrid]</time>
      </trkpt>
      <trkpt lat="37.097695" lon="-5.480314">
        <ele>215.0</ele>
        <time>2022-09-26T11:35:35.920+02:00[Europe/Madrid]</time>
      </trkpt>
      <trkpt lat="37.097578" lon="-5.480462">
        <ele>215.0</ele>
        <time>2022-09-26T11:35:36.920+02:00[Europe/Madrid]</time>
      </trkpt>
      <trkpt lat="37.097479" lon="-5.480615">
        <ele>215.0</ele>
        <time>2022-09-26T11:35:37.920+02:00[Europe/Madrid]</time>
      </trkpt>
      <trkpt lat="37.097389" lon="-5.480785">
        <ele>214.0</ele>
        <time>2022-09-26T11:35:38.920+02:00[Europe/Madrid]</time>
      </trkpt>
      <trkpt lat="37.097308" lon="-5.480969">
        <ele>214.0</ele>
        <time>2022-09-26T11:35:39.920+02:00[Europe/Madrid]</time>
      </trkpt>
      <trkpt lat="37.097228" lon="-5.481159">
        <ele>213.0</ele>
        <time>2022-09-26T11:35:40.920+02:00[Europe/Madrid]</time>
      </trkpt>
      <trkpt lat="37.097148" lon="-5.481354">
        <ele>212.0</ele>
        <time>2022-09-26T11:35:41.920+02:00[Europe/Madrid]</time>
      </trkpt>
      <trkpt lat="37.097067" lon="-5.481555">
        <ele>212.0</ele>
        <time>2022-09-26T11:35:42.920+02:00[Europe/Madrid]</time>
      </trkpt>
      <trkpt lat="37.096981" lon="-5.481752">
        <ele>211.0</ele>
        <time>2022-09-26T11:35:43.920+02:00[Europe/Madrid]</time>
      </trkpt>
      <trkpt lat="37.096894" lon="-5.481949">
        <ele>210.0</ele>
        <time>2022-09-26T11:35:44.920+02:00[Europe/Madrid]</time>
      </trkpt>
      <trkpt lat="37.096803" lon="-5.482133">
        <ele>210.0</ele>
        <time>2022-09-26T11:35:45.920+02:00[Europe/Madrid]</time>
      </trkpt>
      <trkpt lat="37.096699" lon="-5.482314">
        <ele>209.0</ele>
        <time>2022-09-26T11:35:46.920+02:00[Europe/Madrid]</time>
      </trkpt>
      <trkpt lat="37.096589" lon="-5.48249">
        <ele>209.0</ele>
        <time>2022-09-26T11:35:47.920+02:00[Europe/Madrid]</time>
      </trkpt>
      <trkpt lat="37.096478" lon="-5.482667">
        <ele>208.0</ele>
        <time>2022-09-26T11:35:48.920+02:00[Europe/Madrid]</time>
      </trkpt>
      <trkpt lat="37.096361" lon="-5.482839">
        <ele>208.0</ele>
        <time>2022-09-26T11:35:49.920+02:00[Europe/Madrid]</time>
      </trkpt>
      <trkpt lat="37.096242" lon="-5.483011">
        <ele>207.0</ele>
        <time>2022-09-26T11:35:50.920+02:00[Europe/Madrid]</time>
      </trkpt>
      <trkpt lat="37.096119" lon="-5.483188">
        <ele>207.0</ele>
        <time>2022-09-26T11:35:51.920+02:00[Europe/Madrid]</time>
      </trkpt>
      <trkpt lat="37.095993" lon="-5.483363">
        <ele>206.0</ele>
        <time>2022-09-26T11:35:52.920+02:00[Europe/Madrid]</time>
      </trkpt>
      <trkpt lat="37.095864" lon="-5.483541">
        <ele>206.0</ele>
        <time>2022-09-26T11:35:53.920+02:00[Europe/Madrid]</time>
      </trkpt>
      <trkpt lat="37.095722" lon="-5.483727">
        <ele>206.0</ele>
        <time>2022-09-26T11:35:54.920+02:00[Europe/Madrid]</time>
      </trkpt>
      <trkpt lat="37.095588" lon="-5.483909">
        <ele>206.0</ele>
        <time>2022-09-26T11:35:55.920+02:00[Europe/Madrid]</time>
      </trkpt>
      <trkpt lat="37.095466" lon="-5.484082">
        <ele>206.0</ele>
        <time>2022-09-26T11:35:56.920+02:00[Europe/Madrid]</time>
      </trkpt>
      <trkpt lat="37.095361" lon="-5.48425">
        <ele>207.0</ele>
        <time>2022-09-26T11:35:57.920+02:00[Europe/Madrid]</time>
      </trkpt>
      <trkpt lat="37.095271" lon="-5.484422">
        <ele>207.0</ele>
        <time>2022-09-26T11:35:58.920+02:00[Europe/Madrid]</time>
      </trkpt>
      <trkpt lat="37.095196" lon="-5.484608">
        <ele>208.0</ele>
        <time>2022-09-26T11:35:59.920+02:00[Europe/Madrid]</time>
      </trkpt>
      <trkpt lat="37.095133" lon="-5.484804">
        <ele>209.0</ele>
        <time>2022-09-26T11:36:00.920+02:00[Europe/Madrid]</time>
      </trkpt>
      <trkpt lat="37.095079" lon="-5.485014">
        <ele>210.0</ele>
        <time>2022-09-26T11:36:01.920+02:00[Europe/Madrid]</time>
      </trkpt>
      <trkpt lat="37.09503" lon="-5.48524">
        <ele>211.0</ele>
        <time>2022-09-26T11:36:02.920+02:00[Europe/Madrid]</time>
      </trkpt>
      <trkpt lat="37.094983" lon="-5.485476">
        <ele>211.0</ele>
        <time>2022-09-26T11:36:03.920+02:00[Europe/Madrid]</time>
      </trkpt>
      <trkpt lat="37.094937" lon="-5.485706">
        <ele>211.0</ele>
        <time>2022-09-26T11:36:04.920+02:00[Europe/Madrid]</time>
      </trkpt>
      <trkpt lat="37.094892" lon="-5.485926">
        <ele>211.0</ele>
        <time>2022-09-26T11:36:05.920+02:00[Europe/Madrid]</time>
      </trkpt>
      <trkpt lat="37.094844" lon="-5.486143">
        <ele>211.0</ele>
        <time>2022-09-26T11:36:06.920+02:00[Europe/Madrid]</time>
      </trkpt>
      <trkpt lat="37.0948" lon="-5.486347">
        <ele>211.0</ele>
        <time>2022-09-26T11:36:07.920+02:00[Europe/Madrid]</time>
      </trkpt>
      <trkpt lat="37.094767" lon="-5.486547">
        <ele>211.0</ele>
        <time>2022-09-26T11:36:08.920+02:00[Europe/Madrid]</time>
      </trkpt>
      <trkpt lat="37.09474" lon="-5.486744">
        <ele>211.0</ele>
        <time>2022-09-26T11:36:09.920+02:00[Europe/Madrid]</time>
      </trkpt>
      <trkpt lat="37.09473" lon="-5.486945">
        <ele>212.0</ele>
        <time>2022-09-26T11:36:10.920+02:00[Europe/Madrid]</time>
      </trkpt>
      <trkpt lat="37.094739" lon="-5.487143">
        <ele>212.0</ele>
        <time>2022-09-26T11:36:11.920+02:00[Europe/Madrid]</time>
      </trkpt>
      <trkpt lat="37.094763" lon="-5.487336">
        <ele>213.0</ele>
        <time>2022-09-26T11:36:12.920+02:00[Europe/Madrid]</time>
      </trkpt>
      <trkpt lat="37.094795" lon="-5.48754">
        <ele>214.0</ele>
        <time>2022-09-26T11:36:13.920+02:00[Europe/Madrid]</time>
      </trkpt>
      <trkpt lat="37.094829" lon="-5.48774">
        <ele>214.0</ele>
        <time>2022-09-26T11:36:14.920+02:00[Europe/Madrid]</time>
      </trkpt>
      <trkpt lat="37.094863" lon="-5.487941">
        <ele>214.0</ele>
        <time>2022-09-26T11:36:15.920+02:00[Europe/Madrid]</time>
      </trkpt>
      <trkpt lat="37.094895" lon="-5.488151">
        <ele>214.0</ele>
        <time>2022-09-26T11:36:16.920+02:00[Europe/Madrid]</time>
      </trkpt>
      <trkpt lat="37.094924" lon="-5.488359">
        <ele>214.0</ele>
        <time>2022-09-26T11:36:17.920+02:00[Europe/Madrid]</time>
      </trkpt>
      <trkpt lat="37.094944" lon="-5.488559">
        <ele>214.0</ele>
        <time>2022-09-26T11:36:18.920+02:00[Europe/Madrid]</time>
      </trkpt>
      <trkpt lat="37.094958" lon="-5.488762">
        <ele>214.0</ele>
        <time>2022-09-26T11:36:19.920+02:00[Europe/Madrid]</time>
      </trkpt>
      <trkpt lat="37.094961" lon="-5.488967">
        <ele>215.0</ele>
        <time>2022-09-26T11:36:20.920+02:00[Europe/Madrid]</time>
      </trkpt>
      <trkpt lat="37.094949" lon="-5.489172">
        <ele>216.0</ele>
        <time>2022-09-26T11:36:21.920+02:00[Europe/Madrid]</time>
      </trkpt>
      <trkpt lat="37.094922" lon="-5.489377">
        <ele>217.0</ele>
        <time>2022-09-26T11:36:22.920+02:00[Europe/Madrid]</time>
      </trkpt>
      <trkpt lat="37.094895" lon="-5.489569">
        <ele>218.0</ele>
        <time>2022-09-26T11:36:23.920+02:00[Europe/Madrid]</time>
      </trkpt>
      <trkpt lat="37.094889" lon="-5.489752">
        <ele>220.0</ele>
        <time>2022-09-26T11:36:24.920+02:00[Europe/Madrid]</time>
      </trkpt>
      <trkpt lat="37.094897" lon="-5.489933">
        <ele>221.0</ele>
        <time>2022-09-26T11:36:25.920+02:00[Europe/Madrid]</time>
      </trkpt>
      <trkpt lat="37.094928" lon="-5.490116">
        <ele>221.0</ele>
        <time>2022-09-26T11:36:26.920+02:00[Europe/Madrid]</time>
      </trkpt>
      <trkpt lat="37.094979" lon="-5.490285">
        <ele>221.0</ele>
        <time>2022-09-26T11:36:27.920+02:00[Europe/Madrid]</time>
      </trkpt>
      <trkpt lat="37.095046" lon="-5.490442">
        <ele>222.0</ele>
        <time>2022-09-26T11:36:28.920+02:00[Europe/Madrid]</time>
      </trkpt>
      <trkpt lat="37.095115" lon="-5.490589">
        <ele>222.0</ele>
        <time>2022-09-26T11:36:29.920+02:00[Europe/Madrid]</time>
      </trkpt>
      <trkpt lat="37.095173" lon="-5.490732">
        <ele>222.0</ele>
        <time>2022-09-26T11:36:30.920+02:00[Europe/Madrid]</time>
      </trkpt>
      <trkpt lat="37.09522" lon="-5.490882">
        <ele>222.0</ele>
        <time>2022-09-26T11:36:31.920+02:00[Europe/Madrid]</time>
      </trkpt>
      <trkpt lat="37.095241" lon="-5.491033">
        <ele>222.0</ele>
        <time>2022-09-26T11:36:32.920+02:00[Europe/Madrid]</time>
      </trkpt>
      <trkpt lat="37.095239" lon="-5.491184">
        <ele>222.0</ele>
        <time>2022-09-26T11:36:33.920+02:00[Europe/Madrid]</time>
      </trkpt>
      <trkpt lat="37.095221" lon="-5.491335">
        <ele>223.0</ele>
        <time>2022-09-26T11:36:34.920+02:00[Europe/Madrid]</time>
      </trkpt>
      <trkpt lat="37.09518" lon="-5.491493">
        <ele>223.0</ele>
        <time>2022-09-26T11:36:35.920+02:00[Europe/Madrid]</time>
      </trkpt>
      <trkpt lat="37.095131" lon="-5.491647">
        <ele>223.0</ele>
        <time>2022-09-26T11:36:36.920+02:00[Europe/Madrid]</time>
      </trkpt>
      <trkpt lat="37.095066" lon="-5.491802">
        <ele>223.0</ele>
        <time>2022-09-26T11:36:37.920+02:00[Europe/Madrid]</time>
      </trkpt>
      <trkpt lat="37.094984" lon="-5.491951">
        <ele>223.0</ele>
        <time>2022-09-26T11:36:38.920+02:00[Europe/Madrid]</time>
      </trkpt>
      <trkpt lat="37.094883" lon="-5.492086">
        <ele>222.0</ele>
        <time>2022-09-26T11:36:39.920+02:00[Europe/Madrid]</time>
      </trkpt>
      <trkpt lat="37.094763" lon="-5.492223">
        <ele>223.0</ele>
        <time>2022-09-26T11:36:40.920+02:00[Europe/Madrid]</time>
      </trkpt>
      <trkpt lat="37.09463" lon="-5.492369">
        <ele>223.0</ele>
        <time>2022-09-26T11:36:41.920+02:00[Europe/Madrid]</time>
      </trkpt>
      <trkpt lat="37.094486" lon="-5.492527">
        <ele>223.0</ele>
        <time>2022-09-26T11:36:42.920+02:00[Europe/Madrid]</time>
      </trkpt>
      <trkpt lat="37.094338" lon="-5.492686">
        <ele>223.0</ele>
        <time>2022-09-26T11:36:43.920+02:00[Europe/Madrid]</time>
      </trkpt>
      <trkpt lat="37.094189" lon="-5.492854">
        <ele>224.0</ele>
        <time>2022-09-26T11:36:44.920+02:00[Europe/Madrid]</time>
      </trkpt>
      <trkpt lat="37.094036" lon="-5.493026">
        <ele>224.0</ele>
        <time>2022-09-26T11:36:45.920+02:00[Europe/Madrid]</time>
      </trkpt>
      <trkpt lat="37.093878" lon="-5.493203">
        <ele>225.0</ele>
        <time>2022-09-26T11:36:46.920+02:00[Europe/Madrid]</time>
      </trkpt>
      <trkpt lat="37.093717" lon="-5.493381">
        <ele>225.0</ele>
        <time>2022-09-26T11:36:47.920+02:00[Europe/Madrid]</time>
      </trkpt>
      <trkpt lat="37.093547" lon="-5.493568">
        <ele>226.0</ele>
        <time>2022-09-26T11:36:48.920+02:00[Europe/Madrid]</time>
      </trkpt>
      <trkpt lat="37.093373" lon="-5.493756">
        <ele>226.0</ele>
        <time>2022-09-26T11:36:49.920+02:00[Europe/Madrid]</time>
      </trkpt>
      <trkpt lat="37.093216" lon="-5.493939">
        <ele>227.0</ele>
        <time>2022-09-26T11:36:50.920+02:00[Europe/Madrid]</time>
      </trkpt>
      <trkpt lat="37.093065" lon="-5.494109">
        <ele>227.0</ele>
        <time>2022-09-26T11:36:51.920+02:00[Europe/Madrid]</time>
      </trkpt>
      <trkpt lat="37.09292" lon="-5.494264">
        <ele>228.0</ele>
        <time>2022-09-26T11:36:52.920+02:00[Europe/Madrid]</time>
      </trkpt>
      <trkpt lat="37.092782" lon="-5.494416">
        <ele>229.0</ele>
        <time>2022-09-26T11:36:53.920+02:00[Europe/Madrid]</time>
      </trkpt>
      <trkpt lat="37.09265" lon="-5.494563">
        <ele>230.0</ele>
        <time>2022-09-26T11:36:54.920+02:00[Europe/Madrid]</time>
      </trkpt>
      <trkpt lat="37.092531" lon="-5.494702">
        <ele>231.0</ele>
        <time>2022-09-26T11:36:55.920+02:00[Europe/Madrid]</time>
      </trkpt>
      <trkpt lat="37.09242" lon="-5.494837">
        <ele>231.0</ele>
        <time>2022-09-26T11:36:56.920+02:00[Europe/Madrid]</time>
      </trkpt>
      <trkpt lat="37.092322" lon="-5.494981">
        <ele>232.0</ele>
        <time>2022-09-26T11:36:57.920+02:00[Europe/Madrid]</time>
      </trkpt>
      <trkpt lat="37.092242" lon="-5.495133">
        <ele>233.0</ele>
        <time>2022-09-26T11:36:58.920+02:00[Europe/Madrid]</time>
      </trkpt>
      <trkpt lat="37.092174" lon="-5.495295">
        <ele>234.0</ele>
        <time>2022-09-26T11:36:59.920+02:00[Europe/Madrid]</time>
      </trkpt>
      <trkpt lat="37.092108" lon="-5.495461">
        <ele>235.0</ele>
        <time>2022-09-26T11:37:00.920+02:00[Europe/Madrid]</time>
      </trkpt>
      <trkpt lat="37.09204" lon="-5.495626">
        <ele>235.0</ele>
        <time>2022-09-26T11:37:01.920+02:00[Europe/Madrid]</time>
      </trkpt>
      <trkpt lat="37.091973" lon="-5.495796">
        <ele>236.0</ele>
        <time>2022-09-26T11:37:02.920+02:00[Europe/Madrid]</time>
      </trkpt>
      <trkpt lat="37.091905" lon="-5.495976">
        <ele>237.0</ele>
        <time>2022-09-26T11:37:03.920+02:00[Europe/Madrid]</time>
      </trkpt>
      <trkpt lat="37.091831" lon="-5.49616">
        <ele>237.0</ele>
        <time>2022-09-26T11:37:04.920+02:00[Europe/Madrid]</time>
      </trkpt>
      <trkpt lat="37.091758" lon="-5.496354">
        <ele>238.0</ele>
        <time>2022-09-26T11:37:05.920+02:00[Europe/Madrid]</time>
      </trkpt>
      <trkpt lat="37.091683" lon="-5.496555">
        <ele>238.0</ele>
        <time>2022-09-26T11:37:06.920+02:00[Europe/Madrid]</time>
      </trkpt>
      <trkpt lat="37.091605" lon="-5.496763">
        <ele>238.0</ele>
        <time>2022-09-26T11:37:07.920+02:00[Europe/Madrid]</time>
      </trkpt>
      <trkpt lat="37.091524" lon="-5.496975">
        <ele>238.0</ele>
        <time>2022-09-26T11:37:08.920+02:00[Europe/Madrid]</time>
      </trkpt>
      <trkpt lat="37.091439" lon="-5.49719">
        <ele>238.0</ele>
        <time>2022-09-26T11:37:09.920+02:00[Europe/Madrid]</time>
      </trkpt>
      <trkpt lat="37.091353" lon="-5.497413">
        <ele>238.0</ele>
        <time>2022-09-26T11:37:10.920+02:00[Europe/Madrid]</time>
      </trkpt>
      <trkpt lat="37.091268" lon="-5.497644">
        <ele>238.0</ele>
        <time>2022-09-26T11:37:11.920+02:00[Europe/Madrid]</time>
      </trkpt>
      <trkpt lat="37.091183" lon="-5.497875">
        <ele>238.0</ele>
        <time>2022-09-26T11:37:12.920+02:00[Europe/Madrid]</time>
      </trkpt>
      <trkpt lat="37.091092" lon="-5.498114">
        <ele>237.0</ele>
        <time>2022-09-26T11:37:13.920+02:00[Europe/Madrid]</time>
      </trkpt>
      <trkpt lat="37.091002" lon="-5.498356">
        <ele>237.0</ele>
        <time>2022-09-26T11:37:14.920+02:00[Europe/Madrid]</time>
      </trkpt>
      <trkpt lat="37.090908" lon="-5.498606">
        <ele>238.0</ele>
        <time>2022-09-26T11:37:15.920+02:00[Europe/Madrid]</time>
      </trkpt>
      <trkpt lat="37.09081" lon="-5.498857">
        <ele>238.0</ele>
        <time>2022-09-26T11:37:16.920+02:00[Europe/Madrid]</time>
      </trkpt>
      <trkpt lat="37.090711" lon="-5.499112">
        <ele>238.0</ele>
        <time>2022-09-26T11:37:17.920+02:00[Europe/Madrid]</time>
      </trkpt>
      <trkpt lat="37.090611" lon="-5.499374">
        <ele>238.0</ele>
        <time>2022-09-26T11:37:18.920+02:00[Europe/Madrid]</time>
      </trkpt>
      <trkpt lat="37.090513" lon="-5.499638">
        <ele>238.0</ele>
        <time>2022-09-26T11:37:19.920+02:00[Europe/Madrid]</time>
      </trkpt>
      <trkpt lat="37.090414" lon="-5.499902">
        <ele>238.0</ele>
        <time>2022-09-26T11:37:20.920+02:00[Europe/Madrid]</time>
      </trkpt>
      <trkpt lat="37.090317" lon="-5.500163">
        <ele>238.0</ele>
        <time>2022-09-26T11:37:21.920+02:00[Europe/Madrid]</time>
      </trkpt>
      <trkpt lat="37.090218" lon="-5.500427">
        <ele>238.0</ele>
        <time>2022-09-26T11:37:22.920+02:00[Europe/Madrid]</time>
      </trkpt>
      <trkpt lat="37.090117" lon="-5.500693">
        <ele>238.0</ele>
        <time>2022-09-26T11:37:23.920+02:00[Europe/Madrid]</time>
      </trkpt>
      <trkpt lat="37.090018" lon="-5.500958">
        <ele>239.0</ele>
        <time>2022-09-26T11:37:24.920+02:00[Europe/Madrid]</time>
      </trkpt>
      <trkpt lat="37.089914" lon="-5.501223">
        <ele>239.0</ele>
        <time>2022-09-26T11:37:25.920+02:00[Europe/Madrid]</time>
      </trkpt>
      <trkpt lat="37.089812" lon="-5.501487">
        <ele>240.0</ele>
        <time>2022-09-26T11:37:26.920+02:00[Europe/Madrid]</time>
      </trkpt>
      <trkpt lat="37.089715" lon="-5.501746">
        <ele>240.0</ele>
        <time>2022-09-26T11:37:27.920+02:00[Europe/Madrid]</time>
      </trkpt>
      <trkpt lat="37.089622" lon="-5.501992">
        <ele>241.0</ele>
        <time>2022-09-26T11:37:28.920+02:00[Europe/Madrid]</time>
      </trkpt>
      <trkpt lat="37.089534" lon="-5.502222">
        <ele>241.0</ele>
        <time>2022-09-26T11:37:29.920+02:00[Europe/Madrid]</time>
      </trkpt>
      <trkpt lat="37.089451" lon="-5.502437">
        <ele>242.0</ele>
        <time>2022-09-26T11:37:30.920+02:00[Europe/Madrid]</time>
      </trkpt>
      <trkpt lat="37.08937" lon="-5.502634">
        <ele>243.0</ele>
        <time>2022-09-26T11:37:31.920+02:00[Europe/Madrid]</time>
      </trkpt>
      <trkpt lat="37.089293" lon="-5.502825">
        <ele>243.0</ele>
        <time>2022-09-26T11:37:32.920+02:00[Europe/Madrid]</time>
      </trkpt>
      <trkpt lat="37.089214" lon="-5.503016">
        <ele>244.0</ele>
        <time>2022-09-26T11:37:33.920+02:00[Europe/Madrid]</time>
      </trkpt>
      <trkpt lat="37.089142" lon="-5.503204">
        <ele>245.0</ele>
        <time>2022-09-26T11:37:34.920+02:00[Europe/Madrid]</time>
      </trkpt>
      <trkpt lat="37.089065" lon="-5.503391">
        <ele>245.0</ele>
        <time>2022-09-26T11:37:35.920+02:00[Europe/Madrid]</time>
      </trkpt>
      <trkpt lat="37.088989" lon="-5.503583">
        <ele>246.0</ele>
        <time>2022-09-26T11:37:36.920+02:00[Europe/Madrid]</time>
      </trkpt>
      <trkpt lat="37.088915" lon="-5.50378">
        <ele>247.0</ele>
        <time>2022-09-26T11:37:37.920+02:00[Europe/Madrid]</time>
      </trkpt>
      <trkpt lat="37.088837" lon="-5.503983">
        <ele>247.0</ele>
        <time>2022-09-26T11:37:38.920+02:00[Europe/Madrid]</time>
      </trkpt>
      <trkpt lat="37.088758" lon="-5.504193">
        <ele>248.0</ele>
        <time>2022-09-26T11:37:39.920+02:00[Europe/Madrid]</time>
      </trkpt>
      <trkpt lat="37.088671" lon="-5.504416">
        <ele>248.0</ele>
        <time>2022-09-26T11:37:40.920+02:00[Europe/Madrid]</time>
      </trkpt>
      <trkpt lat="37.088579" lon="-5.504645">
        <ele>249.0</ele>
        <time>2022-09-26T11:37:41.920+02:00[Europe/Madrid]</time>
      </trkpt>
      <trkpt lat="37.088492" lon="-5.504872">
        <ele>249.0</ele>
        <time>2022-09-26T11:37:42.920+02:00[Europe/Madrid]</time>
      </trkpt>
      <trkpt lat="37.088405" lon="-5.505096">
        <ele>249.0</ele>
        <time>2022-09-26T11:37:43.920+02:00[Europe/Madrid]</time>
      </trkpt>
      <trkpt lat="37.088319" lon="-5.505309">
        <ele>249.0</ele>
        <time>2022-09-26T11:37:44.920+02:00[Europe/Madrid]</time>
      </trkpt>
      <trkpt lat="37.088232" lon="-5.505523">
        <ele>250.0</ele>
        <time>2022-09-26T11:37:45.920+02:00[Europe/Madrid]</time>
      </trkpt>
      <trkpt lat="37.088147" lon="-5.505734">
        <ele>250.0</ele>
        <time>2022-09-26T11:37:46.920+02:00[Europe/Madrid]</time>
      </trkpt>
      <trkpt lat="37.088055" lon="-5.50594">
        <ele>250.0</ele>
        <time>2022-09-26T11:37:47.920+02:00[Europe/Madrid]</time>
      </trkpt>
      <trkpt lat="37.087951" lon="-5.506139">
        <ele>250.0</ele>
        <time>2022-09-26T11:37:48.920+02:00[Europe/Madrid]</time>
      </trkpt>
      <trkpt lat="37.087838" lon="-5.506332">
        <ele>250.0</ele>
        <time>2022-09-26T11:37:49.920+02:00[Europe/Madrid]</time>
      </trkpt>
      <trkpt lat="37.087726" lon="-5.506526">
        <ele>250.0</ele>
        <time>2022-09-26T11:37:50.920+02:00[Europe/Madrid]</time>
      </trkpt>
      <trkpt lat="37.087612" lon="-5.506727">
        <ele>250.0</ele>
        <time>2022-09-26T11:37:51.920+02:00[Europe/Madrid]</time>
      </trkpt>
      <trkpt lat="37.087494" lon="-5.506925">
        <ele>249.0</ele>
        <time>2022-09-26T11:37:52.920+02:00[Europe/Madrid]</time>
      </trkpt>
      <trkpt lat="37.087371" lon="-5.507121">
        <ele>249.0</ele>
        <time>2022-09-26T11:37:53.920+02:00[Europe/Madrid]</time>
      </trkpt>
      <trkpt lat="37.087245" lon="-5.507322">
        <ele>249.0</ele>
        <time>2022-09-26T11:37:54.920+02:00[Europe/Madrid]</time>
      </trkpt>
      <trkpt lat="37.087124" lon="-5.507529">
        <ele>248.0</ele>
        <time>2022-09-26T11:37:55.920+02:00[Europe/Madrid]</time>
      </trkpt>
      <trkpt lat="37.087004" lon="-5.507738">
        <ele>248.0</ele>
        <time>2022-09-26T11:37:56.920+02:00[Europe/Madrid]</time>
      </trkpt>
      <trkpt lat="37.086881" lon="-5.50795">
        <ele>248.0</ele>
        <time>2022-09-26T11:37:57.920+02:00[Europe/Madrid]</time>
      </trkpt>
      <trkpt lat="37.086758" lon="-5.508163">
        <ele>248.0</ele>
        <time>2022-09-26T11:37:58.920+02:00[Europe/Madrid]</time>
      </trkpt>
      <trkpt lat="37.08664" lon="-5.508378">
        <ele>248.0</ele>
        <time>2022-09-26T11:37:59.920+02:00[Europe/Madrid]</time>
      </trkpt>
      <trkpt lat="37.086529" lon="-5.508599">
        <ele>247.0</ele>
        <time>2022-09-26T11:38:00.920+02:00[Europe/Madrid]</time>
      </trkpt>
      <trkpt lat="37.086416" lon="-5.508826">
        <ele>247.0</ele>
        <time>2022-09-26T11:38:01.920+02:00[Europe/Madrid]</time>
      </trkpt>
      <trkpt lat="37.086304" lon="-5.509052">
        <ele>247.0</ele>
        <time>2022-09-26T11:38:02.920+02:00[Europe/Madrid]</time>
      </trkpt>
      <trkpt lat="37.086189" lon="-5.509281">
        <ele>247.0</ele>
        <time>2022-09-26T11:38:03.920+02:00[Europe/Madrid]</time>
      </trkpt>
      <trkpt lat="37.086073" lon="-5.509503">
        <ele>247.0</ele>
        <time>2022-09-26T11:38:04.920+02:00[Europe/Madrid]</time>
      </trkpt>
      <trkpt lat="37.085955" lon="-5.509725">
        <ele>246.0</ele>
        <time>2022-09-26T11:38:05.920+02:00[Europe/Madrid]</time>
      </trkpt>
      <trkpt lat="37.085833" lon="-5.509948">
        <ele>246.0</ele>
        <time>2022-09-26T11:38:06.920+02:00[Europe/Madrid]</time>
      </trkpt>
      <trkpt lat="37.085708" lon="-5.510166">
        <ele>246.0</ele>
        <time>2022-09-26T11:38:07.920+02:00[Europe/Madrid]</time>
      </trkpt>
      <trkpt lat="37.085573" lon="-5.510381">
        <ele>246.0</ele>
        <time>2022-09-26T11:38:08.920+02:00[Europe/Madrid]</time>
      </trkpt>
      <trkpt lat="37.085432" lon="-5.510584">
        <ele>246.0</ele>
        <time>2022-09-26T11:38:09.920+02:00[Europe/Madrid]</time>
      </trkpt>
      <trkpt lat="37.085299" lon="-5.510775">
        <ele>246.0</ele>
        <time>2022-09-26T11:38:10.920+02:00[Europe/Madrid]</time>
      </trkpt>
      <trkpt lat="37.085173" lon="-5.510966">
        <ele>246.0</ele>
        <time>2022-09-26T11:38:11.920+02:00[Europe/Madrid]</time>
      </trkpt>
      <trkpt lat="37.085053" lon="-5.511161">
        <ele>246.0</ele>
        <time>2022-09-26T11:38:12.920+02:00[Europe/Madrid]</time>
      </trkpt>
      <trkpt lat="37.084938" lon="-5.511361">
        <ele>245.0</ele>
        <time>2022-09-26T11:38:13.920+02:00[Europe/Madrid]</time>
      </trkpt>
      <trkpt lat="37.084827" lon="-5.511564">
        <ele>245.0</ele>
        <time>2022-09-26T11:38:14.920+02:00[Europe/Madrid]</time>
      </trkpt>
      <trkpt lat="37.084715" lon="-5.511767">
        <ele>244.0</ele>
        <time>2022-09-26T11:38:15.920+02:00[Europe/Madrid]</time>
      </trkpt>
      <trkpt lat="37.084603" lon="-5.511964">
        <ele>244.0</ele>
        <time>2022-09-26T11:38:16.920+02:00[Europe/Madrid]</time>
      </trkpt>
      <trkpt lat="37.08449" lon="-5.512156">
        <ele>243.0</ele>
        <time>2022-09-26T11:38:17.920+02:00[Europe/Madrid]</time>
      </trkpt>
      <trkpt lat="37.084366" lon="-5.512342">
        <ele>243.0</ele>
        <time>2022-09-26T11:38:18.920+02:00[Europe/Madrid]</time>
      </trkpt>
      <trkpt lat="37.084229" lon="-5.512517">
        <ele>242.0</ele>
        <time>2022-09-26T11:38:19.920+02:00[Europe/Madrid]</time>
      </trkpt>
      <trkpt lat="37.084079" lon="-5.512683">
        <ele>242.0</ele>
        <time>2022-09-26T11:38:20.920+02:00[Europe/Madrid]</time>
      </trkpt>
      <trkpt lat="37.083921" lon="-5.512839">
        <ele>241.0</ele>
        <time>2022-09-26T11:38:21.920+02:00[Europe/Madrid]</time>
      </trkpt>
      <trkpt lat="37.083755" lon="-5.512994">
        <ele>241.0</ele>
        <time>2022-09-26T11:38:22.920+02:00[Europe/Madrid]</time>
      </trkpt>
      <trkpt lat="37.083592" lon="-5.513143">
        <ele>242.0</ele>
        <time>2022-09-26T11:38:23.920+02:00[Europe/Madrid]</time>
      </trkpt>
      <trkpt lat="37.083431" lon="-5.513285">
        <ele>243.0</ele>
        <time>2022-09-26T11:38:24.920+02:00[Europe/Madrid]</time>
      </trkpt>
      <trkpt lat="37.083264" lon="-5.513412">
        <ele>243.0</ele>
        <time>2022-09-26T11:38:25.920+02:00[Europe/Madrid]</time>
      </trkpt>
      <trkpt lat="37.083092" lon="-5.513528">
        <ele>243.0</ele>
        <time>2022-09-26T11:38:26.920+02:00[Europe/Madrid]</time>
      </trkpt>
      <trkpt lat="37.082919" lon="-5.513643">
        <ele>244.0</ele>
        <time>2022-09-26T11:38:27.920+02:00[Europe/Madrid]</time>
      </trkpt>
      <trkpt lat="37.082746" lon="-5.513762">
        <ele>245.0</ele>
        <time>2022-09-26T11:38:28.920+02:00[Europe/Madrid]</time>
      </trkpt>
      <trkpt lat="37.082572" lon="-5.513882">
        <ele>246.0</ele>
        <time>2022-09-26T11:38:29.920+02:00[Europe/Madrid]</time>
      </trkpt>
      <trkpt lat="37.082401" lon="-5.513999">
        <ele>247.0</ele>
        <time>2022-09-26T11:38:30.920+02:00[Europe/Madrid]</time>
      </trkpt>
      <trkpt lat="37.082234" lon="-5.514111">
        <ele>248.0</ele>
        <time>2022-09-26T11:38:31.920+02:00[Europe/Madrid]</time>
      </trkpt>
      <trkpt lat="37.082067" lon="-5.514219">
        <ele>249.0</ele>
        <time>2022-09-26T11:38:32.920+02:00[Europe/Madrid]</time>
      </trkpt>
      <trkpt lat="37.081903" lon="-5.51432">
        <ele>250.0</ele>
        <time>2022-09-26T11:38:33.920+02:00[Europe/Madrid]</time>
      </trkpt>
      <trkpt lat="37.081733" lon="-5.51441">
        <ele>251.0</ele>
        <time>2022-09-26T11:38:34.920+02:00[Europe/Madrid]</time>
      </trkpt>
      <trkpt lat="37.08155" lon="-5.514479">
        <ele>252.0</ele>
        <time>2022-09-26T11:38:35.920+02:00[Europe/Madrid]</time>
      </trkpt>
      <trkpt lat="37.081362" lon="-5.514535">
        <ele>253.0</ele>
        <time>2022-09-26T11:38:36.920+02:00[Europe/Madrid]</time>
      </trkpt>
      <trkpt lat="37.08117" lon="-5.514582">
        <ele>253.0</ele>
        <time>2022-09-26T11:38:37.920+02:00[Europe/Madrid]</time>
      </trkpt>
      <trkpt lat="37.080969" lon="-5.514631">
        <ele>254.0</ele>
        <time>2022-09-26T11:38:38.920+02:00[Europe/Madrid]</time>
      </trkpt>
      <trkpt lat="37.080766" lon="-5.514681">
        <ele>254.0</ele>
        <time>2022-09-26T11:38:39.920+02:00[Europe/Madrid]</time>
      </trkpt>
      <trkpt lat="37.080562" lon="-5.514718">
        <ele>255.0</ele>
        <time>2022-09-26T11:38:40.920+02:00[Europe/Madrid]</time>
      </trkpt>
      <trkpt lat="37.080355" lon="-5.514745">
        <ele>256.0</ele>
        <time>2022-09-26T11:38:41.920+02:00[Europe/Madrid]</time>
      </trkpt>
      <trkpt lat="37.080147" lon="-5.514761">
        <ele>257.0</ele>
        <time>2022-09-26T11:38:42.920+02:00[Europe/Madrid]</time>
      </trkpt>
      <trkpt lat="37.079941" lon="-5.51478">
        <ele>257.0</ele>
        <time>2022-09-26T11:38:43.920+02:00[Europe/Madrid]</time>
      </trkpt>
      <trkpt lat="37.079734" lon="-5.514806">
        <ele>257.0</ele>
        <time>2022-09-26T11:38:44.920+02:00[Europe/Madrid]</time>
      </trkpt>
      <trkpt lat="37.079532" lon="-5.514836">
        <ele>258.0</ele>
        <time>2022-09-26T11:38:45.920+02:00[Europe/Madrid]</time>
      </trkpt>
      <trkpt lat="37.079328" lon="-5.514858">
        <ele>258.0</ele>
        <time>2022-09-26T11:38:46.920+02:00[Europe/Madrid]</time>
      </trkpt>
      <trkpt lat="37.079126" lon="-5.514887">
        <ele>258.0</ele>
        <time>2022-09-26T11:38:47.920+02:00[Europe/Madrid]</time>
      </trkpt>
      <trkpt lat="37.078926" lon="-5.514929">
        <ele>258.0</ele>
        <time>2022-09-26T11:38:48.920+02:00[Europe/Madrid]</time>
      </trkpt>
      <trkpt lat="37.078729" lon="-5.514983">
        <ele>258.0</ele>
        <time>2022-09-26T11:38:49.920+02:00[Europe/Madrid]</time>
      </trkpt>
      <trkpt lat="37.078532" lon="-5.515054">
        <ele>258.0</ele>
        <time>2022-09-26T11:38:50.920+02:00[Europe/Madrid]</time>
      </trkpt>
      <trkpt lat="37.078345" lon="-5.515145">
        <ele>258.0</ele>
        <time>2022-09-26T11:38:51.920+02:00[Europe/Madrid]</time>
      </trkpt>
      <trkpt lat="37.078161" lon="-5.515259">
        <ele>258.0</ele>
        <time>2022-09-26T11:38:52.920+02:00[Europe/Madrid]</time>
      </trkpt>
      <trkpt lat="37.077985" lon="-5.515383">
        <ele>257.0</ele>
        <time>2022-09-26T11:38:53.920+02:00[Europe/Madrid]</time>
      </trkpt>
      <trkpt lat="37.07782" lon="-5.51552">
        <ele>257.0</ele>
        <time>2022-09-26T11:38:54.920+02:00[Europe/Madrid]</time>
      </trkpt>
      <trkpt lat="37.077663" lon="-5.515667">
        <ele>257.0</ele>
        <time>2022-09-26T11:38:55.920+02:00[Europe/Madrid]</time>
      </trkpt>
      <trkpt lat="37.07751" lon="-5.515828">
        <ele>257.0</ele>
        <time>2022-09-26T11:38:56.920+02:00[Europe/Madrid]</time>
      </trkpt>
      <trkpt lat="37.07736" lon="-5.515996">
        <ele>257.0</ele>
        <time>2022-09-26T11:38:57.920+02:00[Europe/Madrid]</time>
      </trkpt>
      <trkpt lat="37.077209" lon="-5.516172">
        <ele>256.0</ele>
        <time>2022-09-26T11:38:58.920+02:00[Europe/Madrid]</time>
      </trkpt>
      <trkpt lat="37.077055" lon="-5.516358">
        <ele>255.0</ele>
        <time>2022-09-26T11:38:59.920+02:00[Europe/Madrid]</time>
      </trkpt>
      <trkpt lat="37.076902" lon="-5.516551">
        <ele>255.0</ele>
        <time>2022-09-26T11:39:00.920+02:00[Europe/Madrid]</time>
      </trkpt>
      <trkpt lat="37.076761" lon="-5.516761">
        <ele>255.0</ele>
        <time>2022-09-26T11:39:01.920+02:00[Europe/Madrid]</time>
      </trkpt>
      <trkpt lat="37.076611" lon="-5.51697">
        <ele>253.0</ele>
        <time>2022-09-26T11:39:02.921+02:00[Europe/Madrid]</time>
      </trkpt>
      <trkpt lat="37.076449" lon="-5.517181">
        <ele>252.0</ele>
        <time>2022-09-26T11:39:03.921+02:00[Europe/Madrid]</time>
      </trkpt>
      <trkpt lat="37.076287" lon="-5.517393">
        <ele>252.0</ele>
        <time>2022-09-26T11:39:04.921+02:00[Europe/Madrid]</time>
      </trkpt>
      <trkpt lat="37.076133" lon="-5.517595">
        <ele>251.0</ele>
        <time>2022-09-26T11:39:05.921+02:00[Europe/Madrid]</time>
      </trkpt>
      <trkpt lat="37.075974" lon="-5.517795">
        <ele>250.0</ele>
        <time>2022-09-26T11:39:06.921+02:00[Europe/Madrid]</time>
      </trkpt>
      <trkpt lat="37.075821" lon="-5.518">
        <ele>249.0</ele>
        <time>2022-09-26T11:39:07.921+02:00[Europe/Madrid]</time>
      </trkpt>
      <trkpt lat="37.075665" lon="-5.518206">
        <ele>248.0</ele>
        <time>2022-09-26T11:39:08.921+02:00[Europe/Madrid]</time>
      </trkpt>
      <trkpt lat="37.075505" lon="-5.518411">
        <ele>247.0</ele>
        <time>2022-09-26T11:39:09.921+02:00[Europe/Madrid]</time>
      </trkpt>
      <trkpt lat="37.075349" lon="-5.518622">
        <ele>245.0</ele>
        <time>2022-09-26T11:39:10.921+02:00[Europe/Madrid]</time>
      </trkpt>
      <trkpt lat="37.075193" lon="-5.518835">
        <ele>244.0</ele>
        <time>2022-09-26T11:39:11.921+02:00[Europe/Madrid]</time>
      </trkpt>
      <trkpt lat="37.075038" lon="-5.519049">
        <ele>242.0</ele>
        <time>2022-09-26T11:39:12.921+02:00[Europe/Madrid]</time>
      </trkpt>
      <trkpt lat="37.074877" lon="-5.519267">
        <ele>240.0</ele>
        <time>2022-09-26T11:39:13.921+02:00[Europe/Madrid]</time>
      </trkpt>
      <trkpt lat="37.074713" lon="-5.519479">
        <ele>238.0</ele>
        <time>2022-09-26T11:39:14.921+02:00[Europe/Madrid]</time>
      </trkpt>
      <trkpt lat="37.074546" lon="-5.519692">
        <ele>237.0</ele>
        <time>2022-09-26T11:39:15.921+02:00[Europe/Madrid]</time>
      </trkpt>
      <trkpt lat="37.074374" lon="-5.519907">
        <ele>237.0</ele>
        <time>2022-09-26T11:39:16.921+02:00[Europe/Madrid]</time>
      </trkpt>
      <trkpt lat="37.0742" lon="-5.520116">
        <ele>236.0</ele>
        <time>2022-09-26T11:39:17.921+02:00[Europe/Madrid]</time>
      </trkpt>
      <trkpt lat="37.074023" lon="-5.520325">
        <ele>236.0</ele>
        <time>2022-09-26T11:39:18.921+02:00[Europe/Madrid]</time>
      </trkpt>
      <trkpt lat="37.073859" lon="-5.520529">
        <ele>237.0</ele>
        <time>2022-09-26T11:39:19.921+02:00[Europe/Madrid]</time>
      </trkpt>
      <trkpt lat="37.073712" lon="-5.520722">
        <ele>237.0</ele>
        <time>2022-09-26T11:39:20.921+02:00[Europe/Madrid]</time>
      </trkpt>
      <trkpt lat="37.073583" lon="-5.520896">
        <ele>238.0</ele>
        <time>2022-09-26T11:39:21.921+02:00[Europe/Madrid]</time>
      </trkpt>
      <trkpt lat="37.073467" lon="-5.521048">
        <ele>240.0</ele>
        <time>2022-09-26T11:39:22.921+02:00[Europe/Madrid]</time>
      </trkpt>
      <trkpt lat="37.073365" lon="-5.521185">
        <ele>241.0</ele>
        <time>2022-09-26T11:39:23.921+02:00[Europe/Madrid]</time>
      </trkpt>
      <trkpt lat="37.073266" lon="-5.521318">
        <ele>241.0</ele>
        <time>2022-09-26T11:39:24.921+02:00[Europe/Madrid]</time>
      </trkpt>
      <trkpt lat="37.073171" lon="-5.521447">
        <ele>241.0</ele>
        <time>2022-09-26T11:39:25.921+02:00[Europe/Madrid]</time>
      </trkpt>
      <trkpt lat="37.073074" lon="-5.521572">
        <ele>241.0</ele>
        <time>2022-09-26T11:39:26.921+02:00[Europe/Madrid]</time>
      </trkpt>
      <trkpt lat="37.072978" lon="-5.521696">
        <ele>241.0</ele>
        <time>2022-09-26T11:39:27.921+02:00[Europe/Madrid]</time>
      </trkpt>
      <trkpt lat="37.072882" lon="-5.521818">
        <ele>242.0</ele>
        <time>2022-09-26T11:39:28.921+02:00[Europe/Madrid]</time>
      </trkpt>
      <trkpt lat="37.072781" lon="-5.52193">
        <ele>241.0</ele>
        <time>2022-09-26T11:39:29.921+02:00[Europe/Madrid]</time>
      </trkpt>
      <trkpt lat="37.072672" lon="-5.522042">
        <ele>241.0</ele>
        <time>2022-09-26T11:39:30.921+02:00[Europe/Madrid]</time>
      </trkpt>
      <trkpt lat="37.072554" lon="-5.522154">
        <ele>239.0</ele>
        <time>2022-09-26T11:39:31.921+02:00[Europe/Madrid]</time>
      </trkpt>
      <trkpt lat="37.072428" lon="-5.52227">
        <ele>238.0</ele>
        <time>2022-09-26T11:39:32.921+02:00[Europe/Madrid]</time>
      </trkpt>
      <trkpt lat="37.072298" lon="-5.522392">
        <ele>237.0</ele>
        <time>2022-09-26T11:39:33.921+02:00[Europe/Madrid]</time>
      </trkpt>
      <trkpt lat="37.072159" lon="-5.522527">
        <ele>235.0</ele>
        <time>2022-09-26T11:39:34.921+02:00[Europe/Madrid]</time>
      </trkpt>
      <trkpt lat="37.072015" lon="-5.522667">
        <ele>234.0</ele>
        <time>2022-09-26T11:39:35.921+02:00[Europe/Madrid]</time>
      </trkpt>
      <trkpt lat="37.071863" lon="-5.522811">
        <ele>233.0</ele>
        <time>2022-09-26T11:39:36.921+02:00[Europe/Madrid]</time>
      </trkpt>
      <trkpt lat="37.071704" lon="-5.522961">
        <ele>232.0</ele>
        <time>2022-09-26T11:39:37.921+02:00[Europe/Madrid]</time>
      </trkpt>
      <trkpt lat="37.071542" lon="-5.523114">
        <ele>231.0</ele>
        <time>2022-09-26T11:39:38.921+02:00[Europe/Madrid]</time>
      </trkpt>
      <trkpt lat="37.07138" lon="-5.523272">
        <ele>230.0</ele>
        <time>2022-09-26T11:39:39.921+02:00[Europe/Madrid]</time>
      </trkpt>
      <trkpt lat="37.071215" lon="-5.523433">
        <ele>229.0</ele>
        <time>2022-09-26T11:39:40.921+02:00[Europe/Madrid]</time>
      </trkpt>
      <trkpt lat="37.071044" lon="-5.523594">
        <ele>228.0</ele>
        <time>2022-09-26T11:39:41.921+02:00[Europe/Madrid]</time>
      </trkpt>
      <trkpt lat="37.070886" lon="-5.523745">
        <ele>228.0</ele>
        <time>2022-09-26T11:39:42.921+02:00[Europe/Madrid]</time>
      </trkpt>
      <trkpt lat="37.070732" lon="-5.523886">
        <ele>227.0</ele>
        <time>2022-09-26T11:39:43.921+02:00[Europe/Madrid]</time>
      </trkpt>
      <trkpt lat="37.070583" lon="-5.524026">
        <ele>227.0</ele>
        <time>2022-09-26T11:39:44.921+02:00[Europe/Madrid]</time>
      </trkpt>
      <trkpt lat="37.070445" lon="-5.52416">
        <ele>226.0</ele>
        <time>2022-09-26T11:39:45.921+02:00[Europe/Madrid]</time>
      </trkpt>
      <trkpt lat="37.070306" lon="-5.524296">
        <ele>225.0</ele>
        <time>2022-09-26T11:39:46.921+02:00[Europe/Madrid]</time>
      </trkpt>
      <trkpt lat="37.070177" lon="-5.524436">
        <ele>224.0</ele>
        <time>2022-09-26T11:39:47.921+02:00[Europe/Madrid]</time>
      </trkpt>
      <trkpt lat="37.07006" lon="-5.524592">
        <ele>223.0</ele>
        <time>2022-09-26T11:39:48.921+02:00[Europe/Madrid]</time>
      </trkpt>
      <trkpt lat="37.069962" lon="-5.524772">
        <ele>223.0</ele>
        <time>2022-09-26T11:39:49.921+02:00[Europe/Madrid]</time>
      </trkpt>
      <trkpt lat="37.069885" lon="-5.524972">
        <ele>223.0</ele>
        <time>2022-09-26T11:39:50.921+02:00[Europe/Madrid]</time>
      </trkpt>
      <trkpt lat="37.069821" lon="-5.525185">
        <ele>222.0</ele>
        <time>2022-09-26T11:39:51.921+02:00[Europe/Madrid]</time>
      </trkpt>
      <trkpt lat="37.069758" lon="-5.525409">
        <ele>222.0</ele>
        <time>2022-09-26T11:39:52.921+02:00[Europe/Madrid]</time>
      </trkpt>
      <trkpt lat="37.069698" lon="-5.525641">
        <ele>221.0</ele>
        <time>2022-09-26T11:39:53.921+02:00[Europe/Madrid]</time>
      </trkpt>
      <trkpt lat="37.069633" lon="-5.525882">
        <ele>221.0</ele>
        <time>2022-09-26T11:39:54.921+02:00[Europe/Madrid]</time>
      </trkpt>
      <trkpt lat="37.069566" lon="-5.52612">
        <ele>221.0</ele>
        <time>2022-09-26T11:39:55.921+02:00[Europe/Madrid]</time>
      </trkpt>
      <trkpt lat="37.069499" lon="-5.526353">
        <ele>220.0</ele>
        <time>2022-09-26T11:39:56.921+02:00[Europe/Madrid]</time>
      </trkpt>
      <trkpt lat="37.069429" lon="-5.526569">
        <ele>220.0</ele>
        <time>2022-09-26T11:39:57.921+02:00[Europe/Madrid]</time>
      </trkpt>
      <trkpt lat="37.06935" lon="-5.52678">
        <ele>220.0</ele>
        <time>2022-09-26T11:39:58.921+02:00[Europe/Madrid]</time>
      </trkpt>
      <trkpt lat="37.069263" lon="-5.526983">
        <ele>219.0</ele>
        <time>2022-09-26T11:39:59.921+02:00[Europe/Madrid]</time>
      </trkpt>
      <trkpt lat="37.069179" lon="-5.527172">
        <ele>219.0</ele>
        <time>2022-09-26T11:40:00.921+02:00[Europe/Madrid]</time>
      </trkpt>
      <trkpt lat="37.069095" lon="-5.527349">
        <ele>219.0</ele>
        <time>2022-09-26T11:40:01.921+02:00[Europe/Madrid]</time>
      </trkpt>
      <trkpt lat="37.069016" lon="-5.527516">
        <ele>219.0</ele>
        <time>2022-09-26T11:40:02.923+02:00[Europe/Madrid]</time>
      </trkpt>
      <trkpt lat="37.068927" lon="-5.527668">
        <ele>219.0</ele>
        <time>2022-09-26T11:40:03.923+02:00[Europe/Madrid]</time>
      </trkpt>
      <trkpt lat="37.068825" lon="-5.527796">
        <ele>218.0</ele>
        <time>2022-09-26T11:40:04.923+02:00[Europe/Madrid]</time>
      </trkpt>
      <trkpt lat="37.06871" lon="-5.527899">
        <ele>219.0</ele>
        <time>2022-09-26T11:40:05.923+02:00[Europe/Madrid]</time>
      </trkpt>
      <trkpt lat="37.068577" lon="-5.52798">
        <ele>219.0</ele>
        <time>2022-09-26T11:40:06.923+02:00[Europe/Madrid]</time>
      </trkpt>
      <trkpt lat="37.068428" lon="-5.528041">
        <ele>218.0</ele>
        <time>2022-09-26T11:40:07.923+02:00[Europe/Madrid]</time>
      </trkpt>
      <trkpt lat="37.068274" lon="-5.528093">
        <ele>218.0</ele>
        <time>2022-09-26T11:40:08.923+02:00[Europe/Madrid]</time>
      </trkpt>
      <trkpt lat="37.068118" lon="-5.528147">
        <ele>218.0</ele>
        <time>2022-09-26T11:40:09.923+02:00[Europe/Madrid]</time>
      </trkpt>
      <trkpt lat="37.067972" lon="-5.528214">
        <ele>218.0</ele>
        <time>2022-09-26T11:40:10.923+02:00[Europe/Madrid]</time>
      </trkpt>
      <trkpt lat="37.067838" lon="-5.52831">
        <ele>219.0</ele>
        <time>2022-09-26T11:40:11.923+02:00[Europe/Madrid]</time>
      </trkpt>
      <trkpt lat="37.06772" lon="-5.528437">
        <ele>220.0</ele>
        <time>2022-09-26T11:40:12.923+02:00[Europe/Madrid]</time>
      </trkpt>
      <trkpt lat="37.067618" lon="-5.528587">
        <ele>220.0</ele>
        <time>2022-09-26T11:40:13.923+02:00[Europe/Madrid]</time>
      </trkpt>
      <trkpt lat="37.06752" lon="-5.52875">
        <ele>221.0</ele>
        <time>2022-09-26T11:40:14.923+02:00[Europe/Madrid]</time>
      </trkpt>
      <trkpt lat="37.06742" lon="-5.528917">
        <ele>221.0</ele>
        <time>2022-09-26T11:40:15.923+02:00[Europe/Madrid]</time>
      </trkpt>
      <trkpt lat="37.067314" lon="-5.529085">
        <ele>221.0</ele>
        <time>2022-09-26T11:40:16.923+02:00[Europe/Madrid]</time>
      </trkpt>
      <trkpt lat="37.067191" lon="-5.52925">
        <ele>219.0</ele>
        <time>2022-09-26T11:40:17.923+02:00[Europe/Madrid]</time>
      </trkpt>
      <trkpt lat="37.067055" lon="-5.529417">
        <ele>218.0</ele>
        <time>2022-09-26T11:40:18.923+02:00[Europe/Madrid]</time>
      </trkpt>
      <trkpt lat="37.066908" lon="-5.529595">
        <ele>217.0</ele>
        <time>2022-09-26T11:40:19.923+02:00[Europe/Madrid]</time>
      </trkpt>
      <trkpt lat="37.066758" lon="-5.529775">
        <ele>216.0</ele>
        <time>2022-09-26T11:40:20.923+02:00[Europe/Madrid]</time>
      </trkpt>
      <trkpt lat="37.06661" lon="-5.529953">
        <ele>215.0</ele>
        <time>2022-09-26T11:40:21.923+02:00[Europe/Madrid]</time>
      </trkpt>
      <trkpt lat="37.066459" lon="-5.530134">
        <ele>215.0</ele>
        <time>2022-09-26T11:40:22.923+02:00[Europe/Madrid]</time>
      </trkpt>
      <trkpt lat="37.066311" lon="-5.530318">
        <ele>215.0</ele>
        <time>2022-09-26T11:40:23.923+02:00[Europe/Madrid]</time>
      </trkpt>
      <trkpt lat="37.066164" lon="-5.530493">
        <ele>215.0</ele>
        <time>2022-09-26T11:40:24.923+02:00[Europe/Madrid]</time>
      </trkpt>
      <trkpt lat="37.066019" lon="-5.530662">
        <ele>215.0</ele>
        <time>2022-09-26T11:40:25.923+02:00[Europe/Madrid]</time>
      </trkpt>
      <trkpt lat="37.065877" lon="-5.530823">
        <ele>216.0</ele>
        <time>2022-09-26T11:40:26.923+02:00[Europe/Madrid]</time>
      </trkpt>
      <trkpt lat="37.065746" lon="-5.530983">
        <ele>216.0</ele>
        <time>2022-09-26T11:40:27.923+02:00[Europe/Madrid]</time>
      </trkpt>
      <trkpt lat="37.065622" lon="-5.531139">
        <ele>215.0</ele>
        <time>2022-09-26T11:40:28.923+02:00[Europe/Madrid]</time>
      </trkpt>
      <trkpt lat="37.065494" lon="-5.531297">
        <ele>216.0</ele>
        <time>2022-09-26T11:40:29.923+02:00[Europe/Madrid]</time>
      </trkpt>
      <trkpt lat="37.065365" lon="-5.531455">
        <ele>216.0</ele>
        <time>2022-09-26T11:40:30.923+02:00[Europe/Madrid]</time>
      </trkpt>
      <trkpt lat="37.065236" lon="-5.53161">
        <ele>216.0</ele>
        <time>2022-09-26T11:40:31.923+02:00[Europe/Madrid]</time>
      </trkpt>
      <trkpt lat="37.0651" lon="-5.531771">
        <ele>216.0</ele>
        <time>2022-09-26T11:40:32.923+02:00[Europe/Madrid]</time>
      </trkpt>
      <trkpt lat="37.064961" lon="-5.531931">
        <ele>216.0</ele>
        <time>2022-09-26T11:40:33.923+02:00[Europe/Madrid]</time>
      </trkpt>
      <trkpt lat="37.064829" lon="-5.532083">
        <ele>217.0</ele>
        <time>2022-09-26T11:40:34.923+02:00[Europe/Madrid]</time>
      </trkpt>
      <trkpt lat="37.064704" lon="-5.532235">
        <ele>217.0</ele>
        <time>2022-09-26T11:40:35.923+02:00[Europe/Madrid]</time>
      </trkpt>
      <trkpt lat="37.0646" lon="-5.532404">
        <ele>217.0</ele>
        <time>2022-09-26T11:40:36.923+02:00[Europe/Madrid]</time>
      </trkpt>
      <trkpt lat="37.064517" lon="-5.532603">
        <ele>217.0</ele>
        <time>2022-09-26T11:40:37.923+02:00[Europe/Madrid]</time>
      </trkpt>
      <trkpt lat="37.064459" lon="-5.532825">
        <ele>218.0</ele>
        <time>2022-09-26T11:40:38.923+02:00[Europe/Madrid]</time>
      </trkpt>
      <trkpt lat="37.064421" lon="-5.533064">
        <ele>219.0</ele>
        <time>2022-09-26T11:40:39.923+02:00[Europe/Madrid]</time>
      </trkpt>
      <trkpt lat="37.064384" lon="-5.533313">
        <ele>219.0</ele>
        <time>2022-09-26T11:40:40.923+02:00[Europe/Madrid]</time>
      </trkpt>
      <trkpt lat="37.064345" lon="-5.533568">
        <ele>219.0</ele>
        <time>2022-09-26T11:40:41.923+02:00[Europe/Madrid]</time>
      </trkpt>
      <trkpt lat="37.064306" lon="-5.533826">
        <ele>220.0</ele>
        <time>2022-09-26T11:40:42.923+02:00[Europe/Madrid]</time>
      </trkpt>
      <trkpt lat="37.064267" lon="-5.534085">
        <ele>220.0</ele>
        <time>2022-09-26T11:40:43.923+02:00[Europe/Madrid]</time>
      </trkpt>
      <trkpt lat="37.064229" lon="-5.534343">
        <ele>220.0</ele>
        <time>2022-09-26T11:40:44.923+02:00[Europe/Madrid]</time>
      </trkpt>
      <trkpt lat="37.064188" lon="-5.534599">
        <ele>220.0</ele>
        <time>2022-09-26T11:40:45.923+02:00[Europe/Madrid]</time>
      </trkpt>
      <trkpt lat="37.064148" lon="-5.534852">
        <ele>221.0</ele>
        <time>2022-09-26T11:40:46.923+02:00[Europe/Madrid]</time>
      </trkpt>
      <trkpt lat="37.06411" lon="-5.535104">
        <ele>221.0</ele>
        <time>2022-09-26T11:40:47.923+02:00[Europe/Madrid]</time>
      </trkpt>
      <trkpt lat="37.064072" lon="-5.535351">
        <ele>221.0</ele>
        <time>2022-09-26T11:40:48.923+02:00[Europe/Madrid]</time>
      </trkpt>
      <trkpt lat="37.064031" lon="-5.5356">
        <ele>222.0</ele>
        <time>2022-09-26T11:40:49.923+02:00[Europe/Madrid]</time>
      </trkpt>
      <trkpt lat="37.063999" lon="-5.535834">
        <ele>222.0</ele>
        <time>2022-09-26T11:40:50.923+02:00[Europe/Madrid]</time>
      </trkpt>
      <trkpt lat="37.063963" lon="-5.536056">
        <ele>222.0</ele>
        <time>2022-09-26T11:40:51.923+02:00[Europe/Madrid]</time>
      </trkpt>
      <trkpt lat="37.063934" lon="-5.536267">
        <ele>222.0</ele>
        <time>2022-09-26T11:40:52.923+02:00[Europe/Madrid]</time>
      </trkpt>
      <trkpt lat="37.063901" lon="-5.536474">
        <ele>223.0</ele>
        <time>2022-09-26T11:40:53.923+02:00[Europe/Madrid]</time>
      </trkpt>
      <trkpt lat="37.063865" lon="-5.536672">
        <ele>223.0</ele>
        <time>2022-09-26T11:40:55.016+02:00[Europe/Madrid]</time>
      </trkpt>
      <trkpt lat="37.063815" lon="-5.536871">
        <ele>223.0</ele>
        <time>2022-09-26T11:40:56.016+02:00[Europe/Madrid]</time>
      </trkpt>
      <trkpt lat="37.063751" lon="-5.537071">
        <ele>223.0</ele>
        <time>2022-09-26T11:40:57.016+02:00[Europe/Madrid]</time>
      </trkpt>
      <trkpt lat="37.06367" lon="-5.537274">
        <ele>224.0</ele>
        <time>2022-09-26T11:40:58.016+02:00[Europe/Madrid]</time>
      </trkpt>
      <trkpt lat="37.063578" lon="-5.537486">
        <ele>224.0</ele>
        <time>2022-09-26T11:40:59.016+02:00[Europe/Madrid]</time>
      </trkpt>
      <trkpt lat="37.063476" lon="-5.537705">
        <ele>225.0</ele>
        <time>2022-09-26T11:41:00.016+02:00[Europe/Madrid]</time>
      </trkpt>
      <trkpt lat="37.063373" lon="-5.537938">
        <ele>225.0</ele>
        <time>2022-09-26T11:41:01.016+02:00[Europe/Madrid]</time>
      </trkpt>
      <trkpt lat="37.063261" lon="-5.538174">
        <ele>226.0</ele>
        <time>2022-09-26T11:41:02.016+02:00[Europe/Madrid]</time>
      </trkpt>
      <trkpt lat="37.063146" lon="-5.538409">
        <ele>226.0</ele>
        <time>2022-09-26T11:41:03.016+02:00[Europe/Madrid]</time>
      </trkpt>
      <trkpt lat="37.063038" lon="-5.538636">
        <ele>227.0</ele>
        <time>2022-09-26T11:41:04.016+02:00[Europe/Madrid]</time>
      </trkpt>
      <trkpt lat="37.062939" lon="-5.538842">
        <ele>227.0</ele>
        <time>2022-09-26T11:41:05.016+02:00[Europe/Madrid]</time>
      </trkpt>
      <trkpt lat="37.062842" lon="-5.539043">
        <ele>228.0</ele>
        <time>2022-09-26T11:41:06.016+02:00[Europe/Madrid]</time>
      </trkpt>
      <trkpt lat="37.062733" lon="-5.539235">
        <ele>229.0</ele>
        <time>2022-09-26T11:41:07.016+02:00[Europe/Madrid]</time>
      </trkpt>
      <trkpt lat="37.062612" lon="-5.539414">
        <ele>229.0</ele>
        <time>2022-09-26T11:41:08.016+02:00[Europe/Madrid]</time>
      </trkpt>
      <trkpt lat="37.062477" lon="-5.539587">
        <ele>230.0</ele>
        <time>2022-09-26T11:41:09.016+02:00[Europe/Madrid]</time>
      </trkpt>
      <trkpt lat="37.062324" lon="-5.539751">
        <ele>231.0</ele>
        <time>2022-09-26T11:41:10.016+02:00[Europe/Madrid]</time>
      </trkpt>
      <trkpt lat="37.062167" lon="-5.539911">
        <ele>232.0</ele>
        <time>2022-09-26T11:41:11.016+02:00[Europe/Madrid]</time>
      </trkpt>
      <trkpt lat="37.062014" lon="-5.540064">
        <ele>232.0</ele>
        <time>2022-09-26T11:41:12.016+02:00[Europe/Madrid]</time>
      </trkpt>
      <trkpt lat="37.061864" lon="-5.540205">
        <ele>233.0</ele>
        <time>2022-09-26T11:41:13.016+02:00[Europe/Madrid]</time>
      </trkpt>
      <trkpt lat="37.061712" lon="-5.540339">
        <ele>234.0</ele>
        <time>2022-09-26T11:41:14.016+02:00[Europe/Madrid]</time>
      </trkpt>
      <trkpt lat="37.061548" lon="-5.540452">
        <ele>235.0</ele>
        <time>2022-09-26T11:41:15.016+02:00[Europe/Madrid]</time>
      </trkpt>
      <trkpt lat="37.061373" lon="-5.540546">
        <ele>236.0</ele>
        <time>2022-09-26T11:41:16.016+02:00[Europe/Madrid]</time>
      </trkpt>
      <trkpt lat="37.061192" lon="-5.540627">
        <ele>236.0</ele>
        <time>2022-09-26T11:41:17.016+02:00[Europe/Madrid]</time>
      </trkpt>
      <trkpt lat="37.061011" lon="-5.540701">
        <ele>237.0</ele>
        <time>2022-09-26T11:41:18.016+02:00[Europe/Madrid]</time>
      </trkpt>
      <trkpt lat="37.060833" lon="-5.540779">
        <ele>238.0</ele>
        <time>2022-09-26T11:41:19.016+02:00[Europe/Madrid]</time>
      </trkpt>
      <trkpt lat="37.060651" lon="-5.54086">
        <ele>238.0</ele>
        <time>2022-09-26T11:41:20.016+02:00[Europe/Madrid]</time>
      </trkpt>
      <trkpt lat="37.060464" lon="-5.540938">
        <ele>239.0</ele>
        <time>2022-09-26T11:41:21.016+02:00[Europe/Madrid]</time>
      </trkpt>
      <trkpt lat="37.060268" lon="-5.54102">
        <ele>239.0</ele>
        <time>2022-09-26T11:41:22.016+02:00[Europe/Madrid]</time>
      </trkpt>
      <trkpt lat="37.060063" lon="-5.541094">
        <ele>240.0</ele>
        <time>2022-09-26T11:41:23.016+02:00[Europe/Madrid]</time>
      </trkpt>
      <trkpt lat="37.059847" lon="-5.541154">
        <ele>240.0</ele>
        <time>2022-09-26T11:41:24.016+02:00[Europe/Madrid]</time>
      </trkpt>
      <trkpt lat="37.059625" lon="-5.541209">
        <ele>240.0</ele>
        <time>2022-09-26T11:41:25.016+02:00[Europe/Madrid]</time>
      </trkpt>
      <trkpt lat="37.059397" lon="-5.541268">
        <ele>241.0</ele>
        <time>2022-09-26T11:41:26.016+02:00[Europe/Madrid]</time>
      </trkpt>
      <trkpt lat="37.059163" lon="-5.541324">
        <ele>241.0</ele>
        <time>2022-09-26T11:41:27.016+02:00[Europe/Madrid]</time>
      </trkpt>
      <trkpt lat="37.058927" lon="-5.54138">
        <ele>241.0</ele>
        <time>2022-09-26T11:41:28.016+02:00[Europe/Madrid]</time>
      </trkpt>
      <trkpt lat="37.058686" lon="-5.541436">
        <ele>242.0</ele>
        <time>2022-09-26T11:41:29.016+02:00[Europe/Madrid]</time>
      </trkpt>
      <trkpt lat="37.058444" lon="-5.541495">
        <ele>242.0</ele>
        <time>2022-09-26T11:41:30.016+02:00[Europe/Madrid]</time>
      </trkpt>
      <trkpt lat="37.058199" lon="-5.54155">
        <ele>242.0</ele>
        <time>2022-09-26T11:41:31.016+02:00[Europe/Madrid]</time>
      </trkpt>
      <trkpt lat="37.057958" lon="-5.541595">
        <ele>243.0</ele>
        <time>2022-09-26T11:41:32.016+02:00[Europe/Madrid]</time>
      </trkpt>
      <trkpt lat="37.057725" lon="-5.541638">
        <ele>243.0</ele>
        <time>2022-09-26T11:41:33.016+02:00[Europe/Madrid]</time>
      </trkpt>
      <trkpt lat="37.057503" lon="-5.541676">
        <ele>244.0</ele>
        <time>2022-09-26T11:41:34.016+02:00[Europe/Madrid]</time>
      </trkpt>
      <trkpt lat="37.05728" lon="-5.541709">
        <ele>244.0</ele>
        <time>2022-09-26T11:41:35.016+02:00[Europe/Madrid]</time>
      </trkpt>
      <trkpt lat="37.057062" lon="-5.541741">
        <ele>244.0</ele>
        <time>2022-09-26T11:41:36.016+02:00[Europe/Madrid]</time>
      </trkpt>
      <trkpt lat="37.056849" lon="-5.541771">
        <ele>244.0</ele>
        <time>2022-09-26T11:41:37.016+02:00[Europe/Madrid]</time>
      </trkpt>
      <trkpt lat="37.056637" lon="-5.541802">
        <ele>244.0</ele>
        <time>2022-09-26T11:41:38.016+02:00[Europe/Madrid]</time>
      </trkpt>
      <trkpt lat="37.056431" lon="-5.54183">
        <ele>244.0</ele>
        <time>2022-09-26T11:41:39.016+02:00[Europe/Madrid]</time>
      </trkpt>
      <trkpt lat="37.056229" lon="-5.541864">
        <ele>245.0</ele>
        <time>2022-09-26T11:41:40.016+02:00[Europe/Madrid]</time>
      </trkpt>
      <trkpt lat="37.056028" lon="-5.541906">
        <ele>245.0</ele>
        <time>2022-09-26T11:41:41.016+02:00[Europe/Madrid]</time>
      </trkpt>
      <trkpt lat="37.055829" lon="-5.541963">
        <ele>245.0</ele>
        <time>2022-09-26T11:41:42.016+02:00[Europe/Madrid]</time>
      </trkpt>
      <trkpt lat="37.055633" lon="-5.542043">
        <ele>246.0</ele>
        <time>2022-09-26T11:41:43.016+02:00[Europe/Madrid]</time>
      </trkpt>
      <trkpt lat="37.055437" lon="-5.542137">
        <ele>246.0</ele>
        <time>2022-09-26T11:41:44.016+02:00[Europe/Madrid]</time>
      </trkpt>
      <trkpt lat="37.055239" lon="-5.542235">
        <ele>247.0</ele>
        <time>2022-09-26T11:41:45.016+02:00[Europe/Madrid]</time>
      </trkpt>
      <trkpt lat="37.05504" lon="-5.542334">
        <ele>247.0</ele>
        <time>2022-09-26T11:41:46.016+02:00[Europe/Madrid]</time>
      </trkpt>
      <trkpt lat="37.054841" lon="-5.542431">
        <ele>248.0</ele>
        <time>2022-09-26T11:41:47.016+02:00[Europe/Madrid]</time>
      </trkpt>
      <trkpt lat="37.054639" lon="-5.542532">
        <ele>248.0</ele>
        <time>2022-09-26T11:41:48.016+02:00[Europe/Madrid]</time>
      </trkpt>
      <trkpt lat="37.054435" lon="-5.542629">
        <ele>248.0</ele>
        <time>2022-09-26T11:41:49.016+02:00[Europe/Madrid]</time>
      </trkpt>
      <trkpt lat="37.054229" lon="-5.542733">
        <ele>248.0</ele>
        <time>2022-09-26T11:41:50.016+02:00[Europe/Madrid]</time>
      </trkpt>
      <trkpt lat="37.05402" lon="-5.542839">
        <ele>248.0</ele>
        <time>2022-09-26T11:41:51.016+02:00[Europe/Madrid]</time>
      </trkpt>
      <trkpt lat="37.053802" lon="-5.542937">
        <ele>248.0</ele>
        <time>2022-09-26T11:41:52.016+02:00[Europe/Madrid]</time>
      </trkpt>
      <trkpt lat="37.053581" lon="-5.543031">
        <ele>248.0</ele>
        <time>2022-09-26T11:41:53.016+02:00[Europe/Madrid]</time>
      </trkpt>
      <trkpt lat="37.05336" lon="-5.543122">
        <ele>248.0</ele>
        <time>2022-09-26T11:41:54.016+02:00[Europe/Madrid]</time>
      </trkpt>
      <trkpt lat="37.053148" lon="-5.543203">
        <ele>247.0</ele>
        <time>2022-09-26T11:41:55.016+02:00[Europe/Madrid]</time>
      </trkpt>
      <trkpt lat="37.052945" lon="-5.543278">
        <ele>248.0</ele>
        <time>2022-09-26T11:41:56.016+02:00[Europe/Madrid]</time>
      </trkpt>
      <trkpt lat="37.052746" lon="-5.543348">
        <ele>248.0</ele>
        <time>2022-09-26T11:41:57.016+02:00[Europe/Madrid]</time>
      </trkpt>
      <trkpt lat="37.052552" lon="-5.543418">
        <ele>248.0</ele>
        <time>2022-09-26T11:41:58.016+02:00[Europe/Madrid]</time>
      </trkpt>
      <trkpt lat="37.052363" lon="-5.543476">
        <ele>248.0</ele>
        <time>2022-09-26T11:41:59.016+02:00[Europe/Madrid]</time>
      </trkpt>
      <trkpt lat="37.052182" lon="-5.543527">
        <ele>248.0</ele>
        <time>2022-09-26T11:42:00.016+02:00[Europe/Madrid]</time>
      </trkpt>
      <trkpt lat="37.052006" lon="-5.543573">
        <ele>248.0</ele>
        <time>2022-09-26T11:42:01.016+02:00[Europe/Madrid]</time>
      </trkpt>
      <trkpt lat="37.051836" lon="-5.543611">
        <ele>249.0</ele>
        <time>2022-09-26T11:42:02.016+02:00[Europe/Madrid]</time>
      </trkpt>
      <trkpt lat="37.051666" lon="-5.543633">
        <ele>249.0</ele>
        <time>2022-09-26T11:42:03.016+02:00[Europe/Madrid]</time>
      </trkpt>
      <trkpt lat="37.051497" lon="-5.543637">
        <ele>249.0</ele>
        <time>2022-09-26T11:42:04.016+02:00[Europe/Madrid]</time>
      </trkpt>
      <trkpt lat="37.051331" lon="-5.543629">
        <ele>249.0</ele>
        <time>2022-09-26T11:42:05.016+02:00[Europe/Madrid]</time>
      </trkpt>
      <trkpt lat="37.051166" lon="-5.543623">
        <ele>248.0</ele>
        <time>2022-09-26T11:42:06.016+02:00[Europe/Madrid]</time>
      </trkpt>
      <trkpt lat="37.051004" lon="-5.543639">
        <ele>248.0</ele>
        <time>2022-09-26T11:42:07.016+02:00[Europe/Madrid]</time>
      </trkpt>
      <trkpt lat="37.050851" lon="-5.543674">
        <ele>248.0</ele>
        <time>2022-09-26T11:42:08.016+02:00[Europe/Madrid]</time>
      </trkpt>
      <trkpt lat="37.050708" lon="-5.543746">
        <ele>247.0</ele>
        <time>2022-09-26T11:42:09.016+02:00[Europe/Madrid]</time>
      </trkpt>
      <trkpt lat="37.05057" lon="-5.543854">
        <ele>247.0</ele>
        <time>2022-09-26T11:42:10.016+02:00[Europe/Madrid]</time>
      </trkpt>
      <trkpt lat="37.050433" lon="-5.543984">
        <ele>247.0</ele>
        <time>2022-09-26T11:42:11.016+02:00[Europe/Madrid]</time>
      </trkpt>
      <trkpt lat="37.050296" lon="-5.544125">
        <ele>247.0</ele>
        <time>2022-09-26T11:42:12.016+02:00[Europe/Madrid]</time>
      </trkpt>
      <trkpt lat="37.05015" lon="-5.544272">
        <ele>247.0</ele>
        <time>2022-09-26T11:42:13.016+02:00[Europe/Madrid]</time>
      </trkpt>
      <trkpt lat="37.049992" lon="-5.544425">
        <ele>246.0</ele>
        <time>2022-09-26T11:42:14.016+02:00[Europe/Madrid]</time>
      </trkpt>
      <trkpt lat="37.04983" lon="-5.544587">
        <ele>245.0</ele>
        <time>2022-09-26T11:42:15.016+02:00[Europe/Madrid]</time>
      </trkpt>
      <trkpt lat="37.049662" lon="-5.544751">
        <ele>245.0</ele>
        <time>2022-09-26T11:42:16.016+02:00[Europe/Madrid]</time>
      </trkpt>
      <trkpt lat="37.049495" lon="-5.54492">
        <ele>244.0</ele>
        <time>2022-09-26T11:42:17.016+02:00[Europe/Madrid]</time>
      </trkpt>
      <trkpt lat="37.049319" lon="-5.545092">
        <ele>243.0</ele>
        <time>2022-09-26T11:42:18.016+02:00[Europe/Madrid]</time>
      </trkpt>
      <trkpt lat="37.049141" lon="-5.545267">
        <ele>242.0</ele>
        <time>2022-09-26T11:42:19.016+02:00[Europe/Madrid]</time>
      </trkpt>
      <trkpt lat="37.04896" lon="-5.545447">
        <ele>241.0</ele>
        <time>2022-09-26T11:42:20.016+02:00[Europe/Madrid]</time>
      </trkpt>
      <trkpt lat="37.048776" lon="-5.545627">
        <ele>240.0</ele>
        <time>2022-09-26T11:42:21.016+02:00[Europe/Madrid]</time>
      </trkpt>
      <trkpt lat="37.048589" lon="-5.54581">
        <ele>240.0</ele>
        <time>2022-09-26T11:42:22.016+02:00[Europe/Madrid]</time>
      </trkpt>
      <trkpt lat="37.0484" lon="-5.545995">
        <ele>239.0</ele>
        <time>2022-09-26T11:42:23.016+02:00[Europe/Madrid]</time>
      </trkpt>
      <trkpt lat="37.048209" lon="-5.546179">
        <ele>239.0</ele>
        <time>2022-09-26T11:42:24.016+02:00[Europe/Madrid]</time>
      </trkpt>
      <trkpt lat="37.04802" lon="-5.546368">
        <ele>238.0</ele>
        <time>2022-09-26T11:42:25.016+02:00[Europe/Madrid]</time>
      </trkpt>
      <trkpt lat="37.04783" lon="-5.546558">
        <ele>237.0</ele>
        <time>2022-09-26T11:42:26.016+02:00[Europe/Madrid]</time>
      </trkpt>
      <trkpt lat="37.047639" lon="-5.546744">
        <ele>236.0</ele>
        <time>2022-09-26T11:42:27.016+02:00[Europe/Madrid]</time>
      </trkpt>
      <trkpt lat="37.047446" lon="-5.546931">
        <ele>235.0</ele>
        <time>2022-09-26T11:42:28.016+02:00[Europe/Madrid]</time>
      </trkpt>
      <trkpt lat="37.047255" lon="-5.54712">
        <ele>235.0</ele>
        <time>2022-09-26T11:42:29.016+02:00[Europe/Madrid]</time>
      </trkpt>
      <trkpt lat="37.047062" lon="-5.54731">
        <ele>234.0</ele>
        <time>2022-09-26T11:42:30.016+02:00[Europe/Madrid]</time>
      </trkpt>
      <trkpt lat="37.046868" lon="-5.547499">
        <ele>234.0</ele>
        <time>2022-09-26T11:42:31.016+02:00[Europe/Madrid]</time>
      </trkpt>
      <trkpt lat="37.04668" lon="-5.547685">
        <ele>234.0</ele>
        <time>2022-09-26T11:42:32.016+02:00[Europe/Madrid]</time>
      </trkpt>
      <trkpt lat="37.046496" lon="-5.547863">
        <ele>234.0</ele>
        <time>2022-09-26T11:42:33.016+02:00[Europe/Madrid]</time>
      </trkpt>
      <trkpt lat="37.046315" lon="-5.548039">
        <ele>234.0</ele>
        <time>2022-09-26T11:42:34.016+02:00[Europe/Madrid]</time>
      </trkpt>
      <trkpt lat="37.046146" lon="-5.548209">
        <ele>234.0</ele>
        <time>2022-09-26T11:42:35.016+02:00[Europe/Madrid]</time>
      </trkpt>
      <trkpt lat="37.045985" lon="-5.548367">
        <ele>234.0</ele>
        <time>2022-09-26T11:42:36.016+02:00[Europe/Madrid]</time>
      </trkpt>
      <trkpt lat="37.045835" lon="-5.548517">
        <ele>234.0</ele>
        <time>2022-09-26T11:42:37.016+02:00[Europe/Madrid]</time>
      </trkpt>
      <trkpt lat="37.045687" lon="-5.548662">
        <ele>234.0</ele>
        <time>2022-09-26T11:42:38.016+02:00[Europe/Madrid]</time>
      </trkpt>
      <trkpt lat="37.045544" lon="-5.548804">
        <ele>234.0</ele>
        <time>2022-09-26T11:42:39.016+02:00[Europe/Madrid]</time>
      </trkpt>
      <trkpt lat="37.045401" lon="-5.54895">
        <ele>233.0</ele>
        <time>2022-09-26T11:42:40.016+02:00[Europe/Madrid]</time>
      </trkpt>
      <trkpt lat="37.045256" lon="-5.549094">
        <ele>232.0</ele>
        <time>2022-09-26T11:42:41.016+02:00[Europe/Madrid]</time>
      </trkpt>
      <trkpt lat="37.045111" lon="-5.549238">
        <ele>231.0</ele>
        <time>2022-09-26T11:42:42.016+02:00[Europe/Madrid]</time>
      </trkpt>
      <trkpt lat="37.044961" lon="-5.549382">
        <ele>230.0</ele>
        <time>2022-09-26T11:42:43.016+02:00[Europe/Madrid]</time>
      </trkpt>
      <trkpt lat="37.044811" lon="-5.549531">
        <ele>230.0</ele>
        <time>2022-09-26T11:42:44.016+02:00[Europe/Madrid]</time>
      </trkpt>
      <trkpt lat="37.044658" lon="-5.549679">
        <ele>229.0</ele>
        <time>2022-09-26T11:42:45.016+02:00[Europe/Madrid]</time>
      </trkpt>
      <trkpt lat="37.044508" lon="-5.549828">
        <ele>229.0</ele>
        <time>2022-09-26T11:42:46.016+02:00[Europe/Madrid]</time>
      </trkpt>
      <trkpt lat="37.044361" lon="-5.549976">
        <ele>229.0</ele>
        <time>2022-09-26T11:42:47.016+02:00[Europe/Madrid]</time>
      </trkpt>
      <trkpt lat="37.04421" lon="-5.550128">
        <ele>230.0</ele>
        <time>2022-09-26T11:42:48.016+02:00[Europe/Madrid]</time>
      </trkpt>
      <trkpt lat="37.04406" lon="-5.550279">
        <ele>231.0</ele>
        <time>2022-09-26T11:42:49.016+02:00[Europe/Madrid]</time>
      </trkpt>
      <trkpt lat="37.043903" lon="-5.550432">
        <ele>231.0</ele>
        <time>2022-09-26T11:42:50.016+02:00[Europe/Madrid]</time>
      </trkpt>
      <trkpt lat="37.04375" lon="-5.55058">
        <ele>231.0</ele>
        <time>2022-09-26T11:42:51.016+02:00[Europe/Madrid]</time>
      </trkpt>
      <trkpt lat="37.043594" lon="-5.550729">
        <ele>231.0</ele>
        <time>2022-09-26T11:42:52.016+02:00[Europe/Madrid]</time>
      </trkpt>
      <trkpt lat="37.043432" lon="-5.550887">
        <ele>231.0</ele>
        <time>2022-09-26T11:42:53.016+02:00[Europe/Madrid]</time>
      </trkpt>
      <trkpt lat="37.043267" lon="-5.551054">
        <ele>231.0</ele>
        <time>2022-09-26T11:42:54.016+02:00[Europe/Madrid]</time>
      </trkpt>
      <trkpt lat="37.043086" lon="-5.55123">
        <ele>230.0</ele>
        <time>2022-09-26T11:42:55.016+02:00[Europe/Madrid]</time>
      </trkpt>
      <trkpt lat="37.042902" lon="-5.551413">
        <ele>230.0</ele>
        <time>2022-09-26T11:42:56.016+02:00[Europe/Madrid]</time>
      </trkpt>
      <trkpt lat="37.042713" lon="-5.551604">
        <ele>229.0</ele>
        <time>2022-09-26T11:42:57.037+02:00[Europe/Madrid]</time>
      </trkpt>
      <trkpt lat="37.04252" lon="-5.551795">
        <ele>229.0</ele>
        <time>2022-09-26T11:42:58.037+02:00[Europe/Madrid]</time>
      </trkpt>
      <trkpt lat="37.042325" lon="-5.551986">
        <ele>228.0</ele>
        <time>2022-09-26T11:42:59.037+02:00[Europe/Madrid]</time>
      </trkpt>
      <trkpt lat="37.042132" lon="-5.552178">
        <ele>229.0</ele>
        <time>2022-09-26T11:43:00.037+02:00[Europe/Madrid]</time>
      </trkpt>
      <trkpt lat="37.041942" lon="-5.552371">
        <ele>229.0</ele>
        <time>2022-09-26T11:43:01.037+02:00[Europe/Madrid]</time>
      </trkpt>
      <trkpt lat="37.041753" lon="-5.552562">
        <ele>229.0</ele>
        <time>2022-09-26T11:43:02.037+02:00[Europe/Madrid]</time>
      </trkpt>
      <trkpt lat="37.041558" lon="-5.552756">
        <ele>229.0</ele>
        <time>2022-09-26T11:43:03.037+02:00[Europe/Madrid]</time>
      </trkpt>
      <trkpt lat="37.041367" lon="-5.552951">
        <ele>230.0</ele>
        <time>2022-09-26T11:43:04.037+02:00[Europe/Madrid]</time>
      </trkpt>
      <trkpt lat="37.041177" lon="-5.553139">
        <ele>231.0</ele>
        <time>2022-09-26T11:43:05.037+02:00[Europe/Madrid]</time>
      </trkpt>
      <trkpt lat="37.040979" lon="-5.553333">
        <ele>232.0</ele>
        <time>2022-09-26T11:43:06.037+02:00[Europe/Madrid]</time>
      </trkpt>
      <trkpt lat="37.040794" lon="-5.553517">
        <ele>233.0</ele>
        <time>2022-09-26T11:43:07.037+02:00[Europe/Madrid]</time>
      </trkpt>
      <trkpt lat="37.040616" lon="-5.553692">
        <ele>234.0</ele>
        <time>2022-09-26T11:43:08.037+02:00[Europe/Madrid]</time>
      </trkpt>
      <trkpt lat="37.040444" lon="-5.553859">
        <ele>235.0</ele>
        <time>2022-09-26T11:43:09.037+02:00[Europe/Madrid]</time>
      </trkpt>
      <trkpt lat="37.040275" lon="-5.554028">
        <ele>237.0</ele>
        <time>2022-09-26T11:43:10.037+02:00[Europe/Madrid]</time>
      </trkpt>
      <trkpt lat="37.040109" lon="-5.554201">
        <ele>238.0</ele>
        <time>2022-09-26T11:43:11.037+02:00[Europe/Madrid]</time>
      </trkpt>
      <trkpt lat="37.039948" lon="-5.554369">
        <ele>239.0</ele>
        <time>2022-09-26T11:43:12.037+02:00[Europe/Madrid]</time>
      </trkpt>
      <trkpt lat="37.039797" lon="-5.554538">
        <ele>240.0</ele>
        <time>2022-09-26T11:43:13.037+02:00[Europe/Madrid]</time>
      </trkpt>
      <trkpt lat="37.039664" lon="-5.554719">
        <ele>241.0</ele>
        <time>2022-09-26T11:43:14.037+02:00[Europe/Madrid]</time>
      </trkpt>
      <trkpt lat="37.039541" lon="-5.554917">
        <ele>242.0</ele>
        <time>2022-09-26T11:43:15.037+02:00[Europe/Madrid]</time>
      </trkpt>
      <trkpt lat="37.039425" lon="-5.555131">
        <ele>243.0</ele>
        <time>2022-09-26T11:43:16.037+02:00[Europe/Madrid]</time>
      </trkpt>
      <trkpt lat="37.039314" lon="-5.555366">
        <ele>244.0</ele>
        <time>2022-09-26T11:43:17.037+02:00[Europe/Madrid]</time>
      </trkpt>
      <trkpt lat="37.039203" lon="-5.555614">
        <ele>244.0</ele>
        <time>2022-09-26T11:43:18.037+02:00[Europe/Madrid]</time>
      </trkpt>
      <trkpt lat="37.039096" lon="-5.555866">
        <ele>245.0</ele>
        <time>2022-09-26T11:43:19.037+02:00[Europe/Madrid]</time>
      </trkpt>
      <trkpt lat="37.038986" lon="-5.556109">
        <ele>246.0</ele>
        <time>2022-09-26T11:43:20.037+02:00[Europe/Madrid]</time>
      </trkpt>
      <trkpt lat="37.038885" lon="-5.556332">
        <ele>246.0</ele>
        <time>2022-09-26T11:43:21.037+02:00[Europe/Madrid]</time>
      </trkpt>
      <trkpt lat="37.038792" lon="-5.556552">
        <ele>247.0</ele>
        <time>2022-09-26T11:43:22.037+02:00[Europe/Madrid]</time>
      </trkpt>
      <trkpt lat="37.038697" lon="-5.556764">
        <ele>247.0</ele>
        <time>2022-09-26T11:43:23.037+02:00[Europe/Madrid]</time>
      </trkpt>
      <trkpt lat="37.038601" lon="-5.556976">
        <ele>248.0</ele>
        <time>2022-09-26T11:43:24.037+02:00[Europe/Madrid]</time>
      </trkpt>
      <trkpt lat="37.038509" lon="-5.557183">
        <ele>248.0</ele>
        <time>2022-09-26T11:43:25.037+02:00[Europe/Madrid]</time>
      </trkpt>
      <trkpt lat="37.038421" lon="-5.557388">
        <ele>248.0</ele>
        <time>2022-09-26T11:43:26.037+02:00[Europe/Madrid]</time>
      </trkpt>
      <trkpt lat="37.038327" lon="-5.557596">
        <ele>248.0</ele>
        <time>2022-09-26T11:43:27.037+02:00[Europe/Madrid]</time>
      </trkpt>
      <trkpt lat="37.038231" lon="-5.557804">
        <ele>248.0</ele>
        <time>2022-09-26T11:43:28.037+02:00[Europe/Madrid]</time>
      </trkpt>
      <trkpt lat="37.038131" lon="-5.558008">
        <ele>247.0</ele>
        <time>2022-09-26T11:43:29.037+02:00[Europe/Madrid]</time>
      </trkpt>
      <trkpt lat="37.038024" lon="-5.558209">
        <ele>246.0</ele>
        <time>2022-09-26T11:43:30.037+02:00[Europe/Madrid]</time>
      </trkpt>
      <trkpt lat="37.037905" lon="-5.558406">
        <ele>246.0</ele>
        <time>2022-09-26T11:43:31.037+02:00[Europe/Madrid]</time>
      </trkpt>
      <trkpt lat="37.037776" lon="-5.558596">
        <ele>245.0</ele>
        <time>2022-09-26T11:43:32.037+02:00[Europe/Madrid]</time>
      </trkpt>
      <trkpt lat="37.037637" lon="-5.558781">
        <ele>245.0</ele>
        <time>2022-09-26T11:43:33.037+02:00[Europe/Madrid]</time>
      </trkpt>
      <trkpt lat="37.037496" lon="-5.558956">
        <ele>244.0</ele>
        <time>2022-09-26T11:43:34.037+02:00[Europe/Madrid]</time>
      </trkpt>
      <trkpt lat="37.037348" lon="-5.559114">
        <ele>243.0</ele>
        <time>2022-09-26T11:43:35.037+02:00[Europe/Madrid]</time>
      </trkpt>
      <trkpt lat="37.037192" lon="-5.559258">
        <ele>242.0</ele>
        <time>2022-09-26T11:43:36.037+02:00[Europe/Madrid]</time>
      </trkpt>
      <trkpt lat="37.037025" lon="-5.559393">
        <ele>242.0</ele>
        <time>2022-09-26T11:43:37.037+02:00[Europe/Madrid]</time>
      </trkpt>
      <trkpt lat="37.036856" lon="-5.559527">
        <ele>241.0</ele>
        <time>2022-09-26T11:43:38.037+02:00[Europe/Madrid]</time>
      </trkpt>
      <trkpt lat="37.036682" lon="-5.559664">
        <ele>240.0</ele>
        <time>2022-09-26T11:43:39.037+02:00[Europe/Madrid]</time>
      </trkpt>
      <trkpt lat="37.036505" lon="-5.559799">
        <ele>239.0</ele>
        <time>2022-09-26T11:43:40.037+02:00[Europe/Madrid]</time>
      </trkpt>
      <trkpt lat="37.036334" lon="-5.559926">
        <ele>238.0</ele>
        <time>2022-09-26T11:43:41.037+02:00[Europe/Madrid]</time>
      </trkpt>
      <trkpt lat="37.036171" lon="-5.560052">
        <ele>237.0</ele>
        <time>2022-09-26T11:43:42.037+02:00[Europe/Madrid]</time>
      </trkpt>
      <trkpt lat="37.036019" lon="-5.56017">
        <ele>236.0</ele>
        <time>2022-09-26T11:43:43.037+02:00[Europe/Madrid]</time>
      </trkpt>
      <trkpt lat="37.035873" lon="-5.560282">
        <ele>235.0</ele>
        <time>2022-09-26T11:43:44.037+02:00[Europe/Madrid]</time>
      </trkpt>
      <trkpt lat="37.035731" lon="-5.56039">
        <ele>235.0</ele>
        <time>2022-09-26T11:43:45.037+02:00[Europe/Madrid]</time>
      </trkpt>
      <trkpt lat="37.035594" lon="-5.56049">
        <ele>234.0</ele>
        <time>2022-09-26T11:43:46.037+02:00[Europe/Madrid]</time>
      </trkpt>
      <trkpt lat="37.035456" lon="-5.56058">
        <ele>233.0</ele>
        <time>2022-09-26T11:43:47.037+02:00[Europe/Madrid]</time>
      </trkpt>
      <trkpt lat="37.035318" lon="-5.560656">
        <ele>232.0</ele>
        <time>2022-09-26T11:43:48.037+02:00[Europe/Madrid]</time>
      </trkpt>
      <trkpt lat="37.035174" lon="-5.560721">
        <ele>231.0</ele>
        <time>2022-09-26T11:43:49.037+02:00[Europe/Madrid]</time>
      </trkpt>
      <trkpt lat="37.035025" lon="-5.560781">
        <ele>230.0</ele>
        <time>2022-09-26T11:43:50.037+02:00[Europe/Madrid]</time>
      </trkpt>
      <trkpt lat="37.034865" lon="-5.560827">
        <ele>229.0</ele>
        <time>2022-09-26T11:43:51.037+02:00[Europe/Madrid]</time>
      </trkpt>
      <trkpt lat="37.034699" lon="-5.560871">
        <ele>228.0</ele>
        <time>2022-09-26T11:43:52.037+02:00[Europe/Madrid]</time>
      </trkpt>
      <trkpt lat="37.034528" lon="-5.560902">
        <ele>227.0</ele>
        <time>2022-09-26T11:43:53.037+02:00[Europe/Madrid]</time>
      </trkpt>
      <trkpt lat="37.034351" lon="-5.560936">
        <ele>226.0</ele>
        <time>2022-09-26T11:43:54.037+02:00[Europe/Madrid]</time>
      </trkpt>
      <trkpt lat="37.034172" lon="-5.560973">
        <ele>225.0</ele>
        <time>2022-09-26T11:43:55.037+02:00[Europe/Madrid]</time>
      </trkpt>
      <trkpt lat="37.033999" lon="-5.561006">
        <ele>224.0</ele>
        <time>2022-09-26T11:43:56.037+02:00[Europe/Madrid]</time>
      </trkpt>
      <trkpt lat="37.033834" lon="-5.561041">
        <ele>222.0</ele>
        <time>2022-09-26T11:43:57.037+02:00[Europe/Madrid]</time>
      </trkpt>
      <trkpt lat="37.033664" lon="-5.561087">
        <ele>221.0</ele>
        <time>2022-09-26T11:43:58.037+02:00[Europe/Madrid]</time>
      </trkpt>
      <trkpt lat="37.03349" lon="-5.561155">
        <ele>220.0</ele>
        <time>2022-09-26T11:43:59.037+02:00[Europe/Madrid]</time>
      </trkpt>
      <trkpt lat="37.033309" lon="-5.561236">
        <ele>219.0</ele>
        <time>2022-09-26T11:44:00.037+02:00[Europe/Madrid]</time>
      </trkpt>
      <trkpt lat="37.033124" lon="-5.561319">
        <ele>217.0</ele>
        <time>2022-09-26T11:44:01.037+02:00[Europe/Madrid]</time>
      </trkpt>
      <trkpt lat="37.03294" lon="-5.561394">
        <ele>216.0</ele>
        <time>2022-09-26T11:44:02.037+02:00[Europe/Madrid]</time>
      </trkpt>
      <trkpt lat="37.03276" lon="-5.56146">
        <ele>215.0</ele>
        <time>2022-09-26T11:44:03.037+02:00[Europe/Madrid]</time>
      </trkpt>
      <trkpt lat="37.032583" lon="-5.561516">
        <ele>213.0</ele>
        <time>2022-09-26T11:44:04.037+02:00[Europe/Madrid]</time>
      </trkpt>
      <trkpt lat="37.032418" lon="-5.561573">
        <ele>212.0</ele>
        <time>2022-09-26T11:44:05.037+02:00[Europe/Madrid]</time>
      </trkpt>
      <trkpt lat="37.03227" lon="-5.561626">
        <ele>211.0</ele>
        <time>2022-09-26T11:44:06.037+02:00[Europe/Madrid]</time>
      </trkpt>
      <trkpt lat="37.032144" lon="-5.561672">
        <ele>210.0</ele>
        <time>2022-09-26T11:44:07.037+02:00[Europe/Madrid]</time>
      </trkpt>
      <trkpt lat="37.032051" lon="-5.561717">
        <ele>210.0</ele>
        <time>2022-09-26T11:44:08.037+02:00[Europe/Madrid]</time>
      </trkpt>
      <trkpt lat="37.031969" lon="-5.561779">
        <ele>209.0</ele>
        <time>2022-09-26T11:44:09.037+02:00[Europe/Madrid]</time>
      </trkpt>
      <trkpt lat="37.031905" lon="-5.561859">
        <ele>209.0</ele>
        <time>2022-09-26T11:44:10.037+02:00[Europe/Madrid]</time>
      </trkpt>
      <trkpt lat="37.031853" lon="-5.562073">
        <ele>207.0</ele>
        <time>2022-09-26T11:44:11.906+02:00[Europe/Madrid]</time>
      </trkpt>
      <trkpt lat="37.031853" lon="-5.5622">
        <ele>206.0</ele>
        <time>2022-09-26T11:44:12.906+02:00[Europe/Madrid]</time>
      </trkpt>
      <trkpt lat="37.031858" lon="-5.562343">
        <ele>206.0</ele>
        <time>2022-09-26T11:44:13.906+02:00[Europe/Madrid]</time>
      </trkpt>
      <trkpt lat="37.031852" lon="-5.562499">
        <ele>205.0</ele>
        <time>2022-09-26T11:44:14.906+02:00[Europe/Madrid]</time>
      </trkpt>
      <trkpt lat="37.031833" lon="-5.56265">
        <ele>204.0</ele>
        <time>2022-09-26T11:44:15.906+02:00[Europe/Madrid]</time>
      </trkpt>
      <trkpt lat="37.031806" lon="-5.5628">
        <ele>203.0</ele>
        <time>2022-09-26T11:44:16.906+02:00[Europe/Madrid]</time>
      </trkpt>
      <trkpt lat="37.031762" lon="-5.562934">
        <ele>202.0</ele>
        <time>2022-09-26T11:44:17.906+02:00[Europe/Madrid]</time>
      </trkpt>
      <trkpt lat="37.031694" lon="-5.563055">
        <ele>202.0</ele>
        <time>2022-09-26T11:44:18.906+02:00[Europe/Madrid]</time>
      </trkpt>
      <trkpt lat="37.031607" lon="-5.563157">
        <ele>201.0</ele>
        <time>2022-09-26T11:44:19.912+02:00[Europe/Madrid]</time>
      </trkpt>
      <trkpt lat="37.0315" lon="-5.563254">
        <ele>200.0</ele>
        <time>2022-09-26T11:44:20.912+02:00[Europe/Madrid]</time>
      </trkpt>
      <trkpt lat="37.0314" lon="-5.563342">
        <ele>199.0</ele>
        <time>2022-09-26T11:44:21.912+02:00[Europe/Madrid]</time>
      </trkpt>
      <trkpt lat="37.031302" lon="-5.563426">
        <ele>199.0</ele>
        <time>2022-09-26T11:44:22.912+02:00[Europe/Madrid]</time>
      </trkpt>
      <trkpt lat="37.031198" lon="-5.5635">
        <ele>198.0</ele>
        <time>2022-09-26T11:44:23.912+02:00[Europe/Madrid]</time>
      </trkpt>
      <trkpt lat="37.031092" lon="-5.563554">
        <ele>197.0</ele>
        <time>2022-09-26T11:44:24.912+02:00[Europe/Madrid]</time>
      </trkpt>
      <trkpt lat="37.030981" lon="-5.563582">
        <ele>197.0</ele>
        <time>2022-09-26T11:44:25.912+02:00[Europe/Madrid]</time>
      </trkpt>
      <trkpt lat="37.030868" lon="-5.563574">
        <ele>196.0</ele>
        <time>2022-09-26T11:44:26.912+02:00[Europe/Madrid]</time>
      </trkpt>
      <trkpt lat="37.030761" lon="-5.563531">
        <ele>195.0</ele>
        <time>2022-09-26T11:44:27.912+02:00[Europe/Madrid]</time>
      </trkpt>
      <trkpt lat="37.030667" lon="-5.563461">
        <ele>194.0</ele>
        <time>2022-09-26T11:44:28.912+02:00[Europe/Madrid]</time>
      </trkpt>
      <trkpt lat="37.030585" lon="-5.563361">
        <ele>193.0</ele>
        <time>2022-09-26T11:44:29.912+02:00[Europe/Madrid]</time>
      </trkpt>
      <trkpt lat="37.03052" lon="-5.563247">
        <ele>193.0</ele>
        <time>2022-09-26T11:44:30.917+02:00[Europe/Madrid]</time>
      </trkpt>
      <trkpt lat="37.03047" lon="-5.563117">
        <ele>192.0</ele>
        <time>2022-09-26T11:44:31.917+02:00[Europe/Madrid]</time>
      </trkpt>
      <trkpt lat="37.030442" lon="-5.56298">
        <ele>191.0</ele>
        <time>2022-09-26T11:44:32.917+02:00[Europe/Madrid]</time>
      </trkpt>
      <trkpt lat="37.030436" lon="-5.562827">
        <ele>190.0</ele>
        <time>2022-09-26T11:44:33.917+02:00[Europe/Madrid]</time>
      </trkpt>
      <trkpt lat="37.030446" lon="-5.562661">
        <ele>189.0</ele>
        <time>2022-09-26T11:44:34.917+02:00[Europe/Madrid]</time>
      </trkpt>
      <trkpt lat="37.030478" lon="-5.562492">
        <ele>188.0</ele>
        <time>2022-09-26T11:44:35.917+02:00[Europe/Madrid]</time>
      </trkpt>
      <trkpt lat="37.030516" lon="-5.562312">
        <ele>187.0</ele>
        <time>2022-09-26T11:44:36.917+02:00[Europe/Madrid]</time>
      </trkpt>
      <trkpt lat="37.030551" lon="-5.562133">
        <ele>186.0</ele>
        <time>2022-09-26T11:44:37.917+02:00[Europe/Madrid]</time>
      </trkpt>
      <trkpt lat="37.030571" lon="-5.561959">
        <ele>185.0</ele>
        <time>2022-09-26T11:44:38.917+02:00[Europe/Madrid]</time>
      </trkpt>
      <trkpt lat="37.030572" lon="-5.561788">
        <ele>184.0</ele>
        <time>2022-09-26T11:44:39.917+02:00[Europe/Madrid]</time>
      </trkpt>
      <trkpt lat="37.030551" lon="-5.561611">
        <ele>183.0</ele>
        <time>2022-09-26T11:44:40.917+02:00[Europe/Madrid]</time>
      </trkpt>
      <trkpt lat="37.030502" lon="-5.561444">
        <ele>183.0</ele>
        <time>2022-09-26T11:44:41.917+02:00[Europe/Madrid]</time>
      </trkpt>
      <trkpt lat="37.030427" lon="-5.561294">
        <ele>182.0</ele>
        <time>2022-09-26T11:44:42.917+02:00[Europe/Madrid]</time>
      </trkpt>
      <trkpt lat="37.030329" lon="-5.561167">
        <ele>183.0</ele>
        <time>2022-09-26T11:44:43.917+02:00[Europe/Madrid]</time>
      </trkpt>
      <trkpt lat="37.030208" lon="-5.561066">
        <ele>183.0</ele>
        <time>2022-09-26T11:44:44.917+02:00[Europe/Madrid]</time>
      </trkpt>
      <trkpt lat="37.03008" lon="-5.560991">
        <ele>183.0</ele>
        <time>2022-09-26T11:44:45.917+02:00[Europe/Madrid]</time>
      </trkpt>
      <trkpt lat="37.029941" lon="-5.560949">
        <ele>183.0</ele>
        <time>2022-09-26T11:44:46.917+02:00[Europe/Madrid]</time>
      </trkpt>
      <trkpt lat="37.029795" lon="-5.560931">
        <ele>184.0</ele>
        <time>2022-09-26T11:44:47.917+02:00[Europe/Madrid]</time>
      </trkpt>
      <trkpt lat="37.029641" lon="-5.560924">
        <ele>184.0</ele>
        <time>2022-09-26T11:44:48.917+02:00[Europe/Madrid]</time>
      </trkpt>
      <trkpt lat="37.029479" lon="-5.560926">
        <ele>184.0</ele>
        <time>2022-09-26T11:44:49.917+02:00[Europe/Madrid]</time>
      </trkpt>
      <trkpt lat="37.029322" lon="-5.560927">
        <ele>185.0</ele>
        <time>2022-09-26T11:44:50.917+02:00[Europe/Madrid]</time>
      </trkpt>
      <trkpt lat="37.029168" lon="-5.560925">
        <ele>185.0</ele>
        <time>2022-09-26T11:44:51.917+02:00[Europe/Madrid]</time>
      </trkpt>
      <trkpt lat="37.029025" lon="-5.560923">
        <ele>185.0</ele>
        <time>2022-09-26T11:44:52.917+02:00[Europe/Madrid]</time>
      </trkpt>
      <trkpt lat="37.028891" lon="-5.560929">
        <ele>186.0</ele>
        <time>2022-09-26T11:44:53.917+02:00[Europe/Madrid]</time>
      </trkpt>
      <trkpt lat="37.028752" lon="-5.560946">
        <ele>186.0</ele>
        <time>2022-09-26T11:44:54.917+02:00[Europe/Madrid]</time>
      </trkpt>
      <trkpt lat="37.028612" lon="-5.560978">
        <ele>186.0</ele>
        <time>2022-09-26T11:44:55.917+02:00[Europe/Madrid]</time>
      </trkpt>
      <trkpt lat="37.028471" lon="-5.56103">
        <ele>186.0</ele>
        <time>2022-09-26T11:44:56.917+02:00[Europe/Madrid]</time>
      </trkpt>
      <trkpt lat="37.028329" lon="-5.561087">
        <ele>187.0</ele>
        <time>2022-09-26T11:44:57.917+02:00[Europe/Madrid]</time>
      </trkpt>
      <trkpt lat="37.028195" lon="-5.561149">
        <ele>187.0</ele>
        <time>2022-09-26T11:44:58.917+02:00[Europe/Madrid]</time>
      </trkpt>
      <trkpt lat="37.028071" lon="-5.561208">
        <ele>187.0</ele>
        <time>2022-09-26T11:44:59.917+02:00[Europe/Madrid]</time>
      </trkpt>
      <trkpt lat="37.027957" lon="-5.561278">
        <ele>188.0</ele>
        <time>2022-09-26T11:45:00.917+02:00[Europe/Madrid]</time>
      </trkpt>
      <trkpt lat="37.027865" lon="-5.561369">
        <ele>188.0</ele>
        <time>2022-09-26T11:45:01.917+02:00[Europe/Madrid]</time>
      </trkpt>
      <trkpt lat="37.027797" lon="-5.561483">
        <ele>189.0</ele>
        <time>2022-09-26T11:45:02.917+02:00[Europe/Madrid]</time>
      </trkpt>
      <trkpt lat="37.02775" lon="-5.56162">
        <ele>190.0</ele>
        <time>2022-09-26T11:45:03.917+02:00[Europe/Madrid]</time>
      </trkpt>
      <trkpt lat="37.027714" lon="-5.561771">
        <ele>191.0</ele>
        <time>2022-09-26T11:45:04.917+02:00[Europe/Madrid]</time>
      </trkpt>
      <trkpt lat="37.027669" lon="-5.561922">
        <ele>192.0</ele>
        <time>2022-09-26T11:45:05.917+02:00[Europe/Madrid]</time>
      </trkpt>
      <trkpt lat="37.027604" lon="-5.562069">
        <ele>192.0</ele>
        <time>2022-09-26T11:45:06.917+02:00[Europe/Madrid]</time>
      </trkpt>
      <trkpt lat="37.02754" lon="-5.562214">
        <ele>192.0</ele>
        <time>2022-09-26T11:45:07.917+02:00[Europe/Madrid]</time>
      </trkpt>
      <trkpt lat="37.027483" lon="-5.562383">
        <ele>194.0</ele>
        <time>2022-09-26T11:45:08.917+02:00[Europe/Madrid]</time>
      </trkpt>
      <trkpt lat="37.02744" lon="-5.562565">
        <ele>195.0</ele>
        <time>2022-09-26T11:45:09.917+02:00[Europe/Madrid]</time>
      </trkpt>
      <trkpt lat="37.027391" lon="-5.562746">
        <ele>196.0</ele>
        <time>2022-09-26T11:45:10.917+02:00[Europe/Madrid]</time>
      </trkpt>
      <trkpt lat="37.02732" lon="-5.562921">
        <ele>196.0</ele>
        <time>2022-09-26T11:45:11.917+02:00[Europe/Madrid]</time>
      </trkpt>
      <trkpt lat="37.027233" lon="-5.563085">
        <ele>197.0</ele>
        <time>2022-09-26T11:45:12.917+02:00[Europe/Madrid]</time>
      </trkpt>
      <trkpt lat="37.027146" lon="-5.563255">
        <ele>197.0</ele>
        <time>2022-09-26T11:45:13.917+02:00[Europe/Madrid]</time>
      </trkpt>
      <trkpt lat="37.027074" lon="-5.563433">
        <ele>198.0</ele>
        <time>2022-09-26T11:45:14.917+02:00[Europe/Madrid]</time>
      </trkpt>
      <trkpt lat="37.027016" lon="-5.563608">
        <ele>199.0</ele>
        <time>2022-09-26T11:45:15.917+02:00[Europe/Madrid]</time>
      </trkpt>
      <trkpt lat="37.026966" lon="-5.563782">
        <ele>200.0</ele>
        <time>2022-09-26T11:45:16.917+02:00[Europe/Madrid]</time>
      </trkpt>
      <trkpt lat="37.026924" lon="-5.563956">
        <ele>200.0</ele>
        <time>2022-09-26T11:45:17.917+02:00[Europe/Madrid]</time>
      </trkpt>
      <trkpt lat="37.026898" lon="-5.56413">
        <ele>201.0</ele>
        <time>2022-09-26T11:45:18.917+02:00[Europe/Madrid]</time>
      </trkpt>
      <trkpt lat="37.026877" lon="-5.564286">
        <ele>201.0</ele>
        <time>2022-09-26T11:45:19.917+02:00[Europe/Madrid]</time>
      </trkpt>
      <trkpt lat="37.02684" lon="-5.564429">
        <ele>201.0</ele>
        <time>2022-09-26T11:45:20.917+02:00[Europe/Madrid]</time>
      </trkpt>
      <trkpt lat="37.026782" lon="-5.564567">
        <ele>202.0</ele>
        <time>2022-09-26T11:45:21.917+02:00[Europe/Madrid]</time>
      </trkpt>
      <trkpt lat="37.02671" lon="-5.564699">
        <ele>202.0</ele>
        <time>2022-09-26T11:45:22.917+02:00[Europe/Madrid]</time>
      </trkpt>
      <trkpt lat="37.02663" lon="-5.564832">
        <ele>202.0</ele>
        <time>2022-09-26T11:45:23.917+02:00[Europe/Madrid]</time>
      </trkpt>
      <trkpt lat="37.026548" lon="-5.564976">
        <ele>203.0</ele>
        <time>2022-09-26T11:45:24.917+02:00[Europe/Madrid]</time>
      </trkpt>
      <trkpt lat="37.026468" lon="-5.565134">
        <ele>204.0</ele>
        <time>2022-09-26T11:45:25.917+02:00[Europe/Madrid]</time>
      </trkpt>
      <trkpt lat="37.026392" lon="-5.56531">
        <ele>204.0</ele>
        <time>2022-09-26T11:45:26.917+02:00[Europe/Madrid]</time>
      </trkpt>
      <trkpt lat="37.026321" lon="-5.565506">
        <ele>205.0</ele>
        <time>2022-09-26T11:45:27.917+02:00[Europe/Madrid]</time>
      </trkpt>
      <trkpt lat="37.026249" lon="-5.565711">
        <ele>206.0</ele>
        <time>2022-09-26T11:45:28.917+02:00[Europe/Madrid]</time>
      </trkpt>
      <trkpt lat="37.026176" lon="-5.565908">
        <ele>207.0</ele>
        <time>2022-09-26T11:45:29.917+02:00[Europe/Madrid]</time>
      </trkpt>
      <trkpt lat="37.026112" lon="-5.566097">
        <ele>207.0</ele>
        <time>2022-09-26T11:45:30.917+02:00[Europe/Madrid]</time>
      </trkpt>
      <trkpt lat="37.026061" lon="-5.566275">
        <ele>208.0</ele>
        <time>2022-09-26T11:45:31.917+02:00[Europe/Madrid]</time>
      </trkpt>
      <trkpt lat="37.026027" lon="-5.566455">
        <ele>209.0</ele>
        <time>2022-09-26T11:45:32.917+02:00[Europe/Madrid]</time>
      </trkpt>
      <trkpt lat="37.026015" lon="-5.566642">
        <ele>210.0</ele>
        <time>2022-09-26T11:45:33.917+02:00[Europe/Madrid]</time>
      </trkpt>
      <trkpt lat="37.02602" lon="-5.566825">
        <ele>211.0</ele>
        <time>2022-09-26T11:45:34.917+02:00[Europe/Madrid]</time>
      </trkpt>
      <trkpt lat="37.026017" lon="-5.56702">
        <ele>211.0</ele>
        <time>2022-09-26T11:45:35.917+02:00[Europe/Madrid]</time>
      </trkpt>
      <trkpt lat="37.025995" lon="-5.567218">
        <ele>211.0</ele>
        <time>2022-09-26T11:45:36.917+02:00[Europe/Madrid]</time>
      </trkpt>
      <trkpt lat="37.025953" lon="-5.567419">
        <ele>212.0</ele>
        <time>2022-09-26T11:45:37.917+02:00[Europe/Madrid]</time>
      </trkpt>
      <trkpt lat="37.025908" lon="-5.56761">
        <ele>213.0</ele>
        <time>2022-09-26T11:45:38.917+02:00[Europe/Madrid]</time>
      </trkpt>
      <trkpt lat="37.025876" lon="-5.567796">
        <ele>213.0</ele>
        <time>2022-09-26T11:45:39.917+02:00[Europe/Madrid]</time>
      </trkpt>
      <trkpt lat="37.025862" lon="-5.567983">
        <ele>214.0</ele>
        <time>2022-09-26T11:45:40.917+02:00[Europe/Madrid]</time>
      </trkpt>
      <trkpt lat="37.025861" lon="-5.568175">
        <ele>214.0</ele>
        <time>2022-09-26T11:45:41.917+02:00[Europe/Madrid]</time>
      </trkpt>
      <trkpt lat="37.025874" lon="-5.568361">
        <ele>215.0</ele>
        <time>2022-09-26T11:45:42.917+02:00[Europe/Madrid]</time>
      </trkpt>
      <trkpt lat="37.025886" lon="-5.568529">
        <ele>215.0</ele>
        <time>2022-09-26T11:45:43.917+02:00[Europe/Madrid]</time>
      </trkpt>
      <trkpt lat="37.025903" lon="-5.568691">
        <ele>215.0</ele>
        <time>2022-09-26T11:45:44.917+02:00[Europe/Madrid]</time>
      </trkpt>
      <trkpt lat="37.025935" lon="-5.568843">
        <ele>216.0</ele>
        <time>2022-09-26T11:45:45.917+02:00[Europe/Madrid]</time>
      </trkpt>
      <trkpt lat="37.025986" lon="-5.568988">
        <ele>216.0</ele>
        <time>2022-09-26T11:45:46.917+02:00[Europe/Madrid]</time>
      </trkpt>
      <trkpt lat="37.026067" lon="-5.569133">
        <ele>217.0</ele>
        <time>2022-09-26T11:45:47.917+02:00[Europe/Madrid]</time>
      </trkpt>
      <trkpt lat="37.026161" lon="-5.569286">
        <ele>217.0</ele>
        <time>2022-09-26T11:45:48.917+02:00[Europe/Madrid]</time>
      </trkpt>
      <trkpt lat="37.026269" lon="-5.569446">
        <ele>218.0</ele>
        <time>2022-09-26T11:45:49.917+02:00[Europe/Madrid]</time>
      </trkpt>
      <trkpt lat="37.026384" lon="-5.569611">
        <ele>218.0</ele>
        <time>2022-09-26T11:45:50.917+02:00[Europe/Madrid]</time>
      </trkpt>
      <trkpt lat="37.026494" lon="-5.569767">
        <ele>219.0</ele>
        <time>2022-09-26T11:45:51.917+02:00[Europe/Madrid]</time>
      </trkpt>
      <trkpt lat="37.026597" lon="-5.569909">
        <ele>219.0</ele>
        <time>2022-09-26T11:45:52.917+02:00[Europe/Madrid]</time>
      </trkpt>
      <trkpt lat="37.026705" lon="-5.570039">
        <ele>219.0</ele>
        <time>2022-09-26T11:45:53.917+02:00[Europe/Madrid]</time>
      </trkpt>
      <trkpt lat="37.026815" lon="-5.570143">
        <ele>220.0</ele>
        <time>2022-09-26T11:45:54.917+02:00[Europe/Madrid]</time>
      </trkpt>
      <trkpt lat="37.026927" lon="-5.570228">
        <ele>220.0</ele>
        <time>2022-09-26T11:45:55.917+02:00[Europe/Madrid]</time>
      </trkpt>
      <trkpt lat="37.027035" lon="-5.570306">
        <ele>221.0</ele>
        <time>2022-09-26T11:45:56.917+02:00[Europe/Madrid]</time>
      </trkpt>
      <trkpt lat="37.027134" lon="-5.570383">
        <ele>221.0</ele>
        <time>2022-09-26T11:45:57.917+02:00[Europe/Madrid]</time>
      </trkpt>
      <trkpt lat="37.027217" lon="-5.570469">
        <ele>221.0</ele>
        <time>2022-09-26T11:45:58.917+02:00[Europe/Madrid]</time>
      </trkpt>
      <trkpt lat="37.027287" lon="-5.570567">
        <ele>222.0</ele>
        <time>2022-09-26T11:45:59.917+02:00[Europe/Madrid]</time>
      </trkpt>
      <trkpt lat="37.027342" lon="-5.570681">
        <ele>222.0</ele>
        <time>2022-09-26T11:46:00.917+02:00[Europe/Madrid]</time>
      </trkpt>
      <trkpt lat="37.027374" lon="-5.570806">
        <ele>221.0</ele>
        <time>2022-09-26T11:46:01.917+02:00[Europe/Madrid]</time>
      </trkpt>
      <trkpt lat="37.027384" lon="-5.570934">
        <ele>221.0</ele>
        <time>2022-09-26T11:46:02.917+02:00[Europe/Madrid]</time>
      </trkpt>
      <trkpt lat="37.027378" lon="-5.571064">
        <ele>221.0</ele>
        <time>2022-09-26T11:46:03.917+02:00[Europe/Madrid]</time>
      </trkpt>
      <trkpt lat="37.027355" lon="-5.571203">
        <ele>221.0</ele>
        <time>2022-09-26T11:46:04.917+02:00[Europe/Madrid]</time>
      </trkpt>
      <trkpt lat="37.027319" lon="-5.571341">
        <ele>221.0</ele>
        <time>2022-09-26T11:46:05.917+02:00[Europe/Madrid]</time>
      </trkpt>
      <trkpt lat="37.027266" lon="-5.571484">
        <ele>221.0</ele>
        <time>2022-09-26T11:46:06.917+02:00[Europe/Madrid]</time>
      </trkpt>
      <trkpt lat="37.027194" lon="-5.571634">
        <ele>221.0</ele>
        <time>2022-09-26T11:46:07.917+02:00[Europe/Madrid]</time>
      </trkpt>
      <trkpt lat="37.027106" lon="-5.571787">
        <ele>221.0</ele>
        <time>2022-09-26T11:46:08.917+02:00[Europe/Madrid]</time>
      </trkpt>
      <trkpt lat="37.027001" lon="-5.571953">
        <ele>221.0</ele>
        <time>2022-09-26T11:46:09.917+02:00[Europe/Madrid]</time>
      </trkpt>
      <trkpt lat="37.026892" lon="-5.572124">
        <ele>220.0</ele>
        <time>2022-09-26T11:46:10.917+02:00[Europe/Madrid]</time>
      </trkpt>
      <trkpt lat="37.026786" lon="-5.572296">
        <ele>220.0</ele>
        <time>2022-09-26T11:46:11.917+02:00[Europe/Madrid]</time>
      </trkpt>
      <trkpt lat="37.026685" lon="-5.572462">
        <ele>220.0</ele>
        <time>2022-09-26T11:46:12.917+02:00[Europe/Madrid]</time>
      </trkpt>
      <trkpt lat="37.026587" lon="-5.57262">
        <ele>219.0</ele>
        <time>2022-09-26T11:46:13.923+02:00[Europe/Madrid]</time>
      </trkpt>
      <trkpt lat="37.026489" lon="-5.572776">
        <ele>219.0</ele>
        <time>2022-09-26T11:46:14.923+02:00[Europe/Madrid]</time>
      </trkpt>
      <trkpt lat="37.026383" lon="-5.572927">
        <ele>218.0</ele>
        <time>2022-09-26T11:46:15.923+02:00[Europe/Madrid]</time>
      </trkpt>
      <trkpt lat="37.026269" lon="-5.57307">
        <ele>217.0</ele>
        <time>2022-09-26T11:46:16.923+02:00[Europe/Madrid]</time>
      </trkpt>
      <trkpt lat="37.026146" lon="-5.573211">
        <ele>215.0</ele>
        <time>2022-09-26T11:46:17.923+02:00[Europe/Madrid]</time>
      </trkpt>
      <trkpt lat="37.026012" lon="-5.573342">
        <ele>214.0</ele>
        <time>2022-09-26T11:46:18.923+02:00[Europe/Madrid]</time>
      </trkpt>
      <trkpt lat="37.025863" lon="-5.573467">
        <ele>213.0</ele>
        <time>2022-09-26T11:46:19.923+02:00[Europe/Madrid]</time>
      </trkpt>
      <trkpt lat="37.025703" lon="-5.573571">
        <ele>211.0</ele>
        <time>2022-09-26T11:46:20.923+02:00[Europe/Madrid]</time>
      </trkpt>
      <trkpt lat="37.025528" lon="-5.573669">
        <ele>209.0</ele>
        <time>2022-09-26T11:46:21.923+02:00[Europe/Madrid]</time>
      </trkpt>
      <trkpt lat="37.025342" lon="-5.573752">
        <ele>208.0</ele>
        <time>2022-09-26T11:46:22.923+02:00[Europe/Madrid]</time>
      </trkpt>
      <trkpt lat="37.025143" lon="-5.573818">
        <ele>207.0</ele>
        <time>2022-09-26T11:46:23.923+02:00[Europe/Madrid]</time>
      </trkpt>
      <trkpt lat="37.024933" lon="-5.573872">
        <ele>206.0</ele>
        <time>2022-09-26T11:46:24.923+02:00[Europe/Madrid]</time>
      </trkpt>
      <trkpt lat="37.024731" lon="-5.573905">
        <ele>206.0</ele>
        <time>2022-09-26T11:46:25.923+02:00[Europe/Madrid]</time>
      </trkpt>
      <trkpt lat="37.024542" lon="-5.573941">
        <ele>205.0</ele>
        <time>2022-09-26T11:46:26.923+02:00[Europe/Madrid]</time>
      </trkpt>
      <trkpt lat="37.024371" lon="-5.573985">
        <ele>205.0</ele>
        <time>2022-09-26T11:46:27.923+02:00[Europe/Madrid]</time>
      </trkpt>
      <trkpt lat="37.024214" lon="-5.574048">
        <ele>205.0</ele>
        <time>2022-09-26T11:46:28.923+02:00[Europe/Madrid]</time>
      </trkpt>
      <trkpt lat="37.024076" lon="-5.574136">
        <ele>207.0</ele>
        <time>2022-09-26T11:46:29.923+02:00[Europe/Madrid]</time>
      </trkpt>
      <trkpt lat="37.023952" lon="-5.574237">
        <ele>208.0</ele>
        <time>2022-09-26T11:46:30.923+02:00[Europe/Madrid]</time>
      </trkpt>
      <trkpt lat="37.023832" lon="-5.574324">
        <ele>208.0</ele>
        <time>2022-09-26T11:46:31.923+02:00[Europe/Madrid]</time>
      </trkpt>
      <trkpt lat="37.0237" lon="-5.574389">
        <ele>209.0</ele>
        <time>2022-09-26T11:46:32.923+02:00[Europe/Madrid]</time>
      </trkpt>
      <trkpt lat="37.023562" lon="-5.574431">
        <ele>209.0</ele>
        <time>2022-09-26T11:46:33.923+02:00[Europe/Madrid]</time>
      </trkpt>
      <trkpt lat="37.023417" lon="-5.574446">
        <ele>210.0</ele>
        <time>2022-09-26T11:46:34.923+02:00[Europe/Madrid]</time>
      </trkpt>
      <trkpt lat="37.023272" lon="-5.574445">
        <ele>211.0</ele>
        <time>2022-09-26T11:46:35.923+02:00[Europe/Madrid]</time>
      </trkpt>
      <trkpt lat="37.023123" lon="-5.574455">
        <ele>212.0</ele>
        <time>2022-09-26T11:46:36.923+02:00[Europe/Madrid]</time>
      </trkpt>
      <trkpt lat="37.022975" lon="-5.574493">
        <ele>213.0</ele>
        <time>2022-09-26T11:46:37.923+02:00[Europe/Madrid]</time>
      </trkpt>
      <trkpt lat="37.022831" lon="-5.574531">
        <ele>213.0</ele>
        <time>2022-09-26T11:46:38.923+02:00[Europe/Madrid]</time>
      </trkpt>
      <trkpt lat="37.022686" lon="-5.57455">
        <ele>214.0</ele>
        <time>2022-09-26T11:46:39.923+02:00[Europe/Madrid]</time>
      </trkpt>
      <trkpt lat="37.022547" lon="-5.574561">
        <ele>214.0</ele>
        <time>2022-09-26T11:46:40.923+02:00[Europe/Madrid]</time>
      </trkpt>
      <trkpt lat="37.022416" lon="-5.574576">
        <ele>215.0</ele>
        <time>2022-09-26T11:46:41.923+02:00[Europe/Madrid]</time>
      </trkpt>
      <trkpt lat="37.02229" lon="-5.574609">
        <ele>216.0</ele>
        <time>2022-09-26T11:46:42.923+02:00[Europe/Madrid]</time>
      </trkpt>
      <trkpt lat="37.02217" lon="-5.574673">
        <ele>217.0</ele>
        <time>2022-09-26T11:46:43.923+02:00[Europe/Madrid]</time>
      </trkpt>
      <trkpt lat="37.022048" lon="-5.574763">
        <ele>218.0</ele>
        <time>2022-09-26T11:46:44.923+02:00[Europe/Madrid]</time>
      </trkpt>
      <trkpt lat="37.021931" lon="-5.574882">
        <ele>219.0</ele>
        <time>2022-09-26T11:46:45.923+02:00[Europe/Madrid]</time>
      </trkpt>
      <trkpt lat="37.021819" lon="-5.575019">
        <ele>220.0</ele>
        <time>2022-09-26T11:46:46.923+02:00[Europe/Madrid]</time>
      </trkpt>
      <trkpt lat="37.02171" lon="-5.575175">
        <ele>221.0</ele>
        <time>2022-09-26T11:46:47.923+02:00[Europe/Madrid]</time>
      </trkpt>
      <trkpt lat="37.021604" lon="-5.575346">
        <ele>222.0</ele>
        <time>2022-09-26T11:46:48.923+02:00[Europe/Madrid]</time>
      </trkpt>
      <trkpt lat="37.021495" lon="-5.575523">
        <ele>224.0</ele>
        <time>2022-09-26T11:46:49.923+02:00[Europe/Madrid]</time>
      </trkpt>
      <trkpt lat="37.021382" lon="-5.575704">
        <ele>225.0</ele>
        <time>2022-09-26T11:46:50.923+02:00[Europe/Madrid]</time>
      </trkpt>
      <trkpt lat="37.021277" lon="-5.575878">
        <ele>227.0</ele>
        <time>2022-09-26T11:46:51.923+02:00[Europe/Madrid]</time>
      </trkpt>
      <trkpt lat="37.021185" lon="-5.576034">
        <ele>228.0</ele>
        <time>2022-09-26T11:46:52.923+02:00[Europe/Madrid]</time>
      </trkpt>
      <trkpt lat="37.021102" lon="-5.576167">
        <ele>230.0</ele>
        <time>2022-09-26T11:46:53.923+02:00[Europe/Madrid]</time>
      </trkpt>
      <trkpt lat="37.021022" lon="-5.576285">
        <ele>231.0</ele>
        <time>2022-09-26T11:46:54.923+02:00[Europe/Madrid]</time>
      </trkpt>
      <trkpt lat="37.020945" lon="-5.576383">
        <ele>231.0</ele>
        <time>2022-09-26T11:46:55.923+02:00[Europe/Madrid]</time>
      </trkpt>
      <trkpt lat="37.02086" lon="-5.576457">
        <ele>232.0</ele>
        <time>2022-09-26T11:46:56.923+02:00[Europe/Madrid]</time>
      </trkpt>
      <trkpt lat="37.020766" lon="-5.576501">
        <ele>233.0</ele>
        <time>2022-09-26T11:46:57.923+02:00[Europe/Madrid]</time>
      </trkpt>
      <trkpt lat="37.020661" lon="-5.576523">
        <ele>233.0</ele>
        <time>2022-09-26T11:46:58.923+02:00[Europe/Madrid]</time>
      </trkpt>
      <trkpt lat="37.020543" lon="-5.576518">
        <ele>234.0</ele>
        <time>2022-09-26T11:46:59.923+02:00[Europe/Madrid]</time>
      </trkpt>
      <trkpt lat="37.020415" lon="-5.576505">
        <ele>235.0</ele>
        <time>2022-09-26T11:47:00.923+02:00[Europe/Madrid]</time>
      </trkpt>
      <trkpt lat="37.020275" lon="-5.576487">
        <ele>236.0</ele>
        <time>2022-09-26T11:47:01.923+02:00[Europe/Madrid]</time>
      </trkpt>
      <trkpt lat="37.020136" lon="-5.576472">
        <ele>236.0</ele>
        <time>2022-09-26T11:47:02.923+02:00[Europe/Madrid]</time>
      </trkpt>
      <trkpt lat="37.020007" lon="-5.576458">
        <ele>237.0</ele>
        <time>2022-09-26T11:47:03.923+02:00[Europe/Madrid]</time>
      </trkpt>
      <trkpt lat="37.01989" lon="-5.576437">
        <ele>237.0</ele>
        <time>2022-09-26T11:47:04.923+02:00[Europe/Madrid]</time>
      </trkpt>
      <trkpt lat="37.019781" lon="-5.576403">
        <ele>238.0</ele>
        <time>2022-09-26T11:47:05.923+02:00[Europe/Madrid]</time>
      </trkpt>
      <trkpt lat="37.019682" lon="-5.576349">
        <ele>239.0</ele>
        <time>2022-09-26T11:47:06.923+02:00[Europe/Madrid]</time>
      </trkpt>
      <trkpt lat="37.019605" lon="-5.576267">
        <ele>239.0</ele>
        <time>2022-09-26T11:47:07.923+02:00[Europe/Madrid]</time>
      </trkpt>
      <trkpt lat="37.019548" lon="-5.576156">
        <ele>240.0</ele>
        <time>2022-09-26T11:47:08.923+02:00[Europe/Madrid]</time>
      </trkpt>
      <trkpt lat="37.019496" lon="-5.576021">
        <ele>240.0</ele>
        <time>2022-09-26T11:47:09.923+02:00[Europe/Madrid]</time>
      </trkpt>
      <trkpt lat="37.019446" lon="-5.575869">
        <ele>240.0</ele>
        <time>2022-09-26T11:47:10.923+02:00[Europe/Madrid]</time>
      </trkpt>
      <trkpt lat="37.019387" lon="-5.575703">
        <ele>240.0</ele>
        <time>2022-09-26T11:47:11.923+02:00[Europe/Madrid]</time>
      </trkpt>
      <trkpt lat="37.019326" lon="-5.575545">
        <ele>240.0</ele>
        <time>2022-09-26T11:47:12.923+02:00[Europe/Madrid]</time>
      </trkpt>
      <trkpt lat="37.019269" lon="-5.575398">
        <ele>241.0</ele>
        <time>2022-09-26T11:47:13.923+02:00[Europe/Madrid]</time>
      </trkpt>
      <trkpt lat="37.019205" lon="-5.575268">
        <ele>241.0</ele>
        <time>2022-09-26T11:47:14.923+02:00[Europe/Madrid]</time>
      </trkpt>
      <trkpt lat="37.019123" lon="-5.575158">
        <ele>242.0</ele>
        <time>2022-09-26T11:47:15.923+02:00[Europe/Madrid]</time>
      </trkpt>
      <trkpt lat="37.019013" lon="-5.575074">
        <ele>242.0</ele>
        <time>2022-09-26T11:47:16.923+02:00[Europe/Madrid]</time>
      </trkpt>
      <trkpt lat="37.01888" lon="-5.57502">
        <ele>243.0</ele>
        <time>2022-09-26T11:47:17.923+02:00[Europe/Madrid]</time>
      </trkpt>
      <trkpt lat="37.018734" lon="-5.575005">
        <ele>244.0</ele>
        <time>2022-09-26T11:47:18.923+02:00[Europe/Madrid]</time>
      </trkpt>
      <trkpt lat="37.018577" lon="-5.575013">
        <ele>245.0</ele>
        <time>2022-09-26T11:47:19.923+02:00[Europe/Madrid]</time>
      </trkpt>
      <trkpt lat="37.018411" lon="-5.575038">
        <ele>246.0</ele>
        <time>2022-09-26T11:47:20.923+02:00[Europe/Madrid]</time>
      </trkpt>
      <trkpt lat="37.018241" lon="-5.575068">
        <ele>247.0</ele>
        <time>2022-09-26T11:47:21.923+02:00[Europe/Madrid]</time>
      </trkpt>
      <trkpt lat="37.018083" lon="-5.575095">
        <ele>248.0</ele>
        <time>2022-09-26T11:47:22.923+02:00[Europe/Madrid]</time>
      </trkpt>
      <trkpt lat="37.017931" lon="-5.575122">
        <ele>249.0</ele>
        <time>2022-09-26T11:47:23.923+02:00[Europe/Madrid]</time>
      </trkpt>
      <trkpt lat="37.017793" lon="-5.575146">
        <ele>250.0</ele>
        <time>2022-09-26T11:47:24.923+02:00[Europe/Madrid]</time>
      </trkpt>
      <trkpt lat="37.017665" lon="-5.575162">
        <ele>251.0</ele>
        <time>2022-09-26T11:47:25.923+02:00[Europe/Madrid]</time>
      </trkpt>
      <trkpt lat="37.017534" lon="-5.575179">
        <ele>252.0</ele>
        <time>2022-09-26T11:47:26.923+02:00[Europe/Madrid]</time>
      </trkpt>
      <trkpt lat="37.017396" lon="-5.575186">
        <ele>253.0</ele>
        <time>2022-09-26T11:47:27.923+02:00[Europe/Madrid]</time>
      </trkpt>
      <trkpt lat="37.01726" lon="-5.575184">
        <ele>254.0</ele>
        <time>2022-09-26T11:47:28.923+02:00[Europe/Madrid]</time>
      </trkpt>
      <trkpt lat="37.017127" lon="-5.575158">
        <ele>255.0</ele>
        <time>2022-09-26T11:47:29.923+02:00[Europe/Madrid]</time>
      </trkpt>
      <trkpt lat="37.016993" lon="-5.575105">
        <ele>256.0</ele>
        <time>2022-09-26T11:47:30.923+02:00[Europe/Madrid]</time>
      </trkpt>
      <trkpt lat="37.016865" lon="-5.575027">
        <ele>257.0</ele>
        <time>2022-09-26T11:47:31.923+02:00[Europe/Madrid]</time>
      </trkpt>
      <trkpt lat="37.016742" lon="-5.574933">
        <ele>258.0</ele>
        <time>2022-09-26T11:47:32.923+02:00[Europe/Madrid]</time>
      </trkpt>
      <trkpt lat="37.016617" lon="-5.574842">
        <ele>258.0</ele>
        <time>2022-09-26T11:47:33.923+02:00[Europe/Madrid]</time>
      </trkpt>
      <trkpt lat="37.016487" lon="-5.574769">
        <ele>260.0</ele>
        <time>2022-09-26T11:47:34.923+02:00[Europe/Madrid]</time>
      </trkpt>
      <trkpt lat="37.016352" lon="-5.574718">
        <ele>260.0</ele>
        <time>2022-09-26T11:47:35.923+02:00[Europe/Madrid]</time>
      </trkpt>
      <trkpt lat="37.016216" lon="-5.574706">
        <ele>261.0</ele>
        <time>2022-09-26T11:47:36.923+02:00[Europe/Madrid]</time>
      </trkpt>
      <trkpt lat="37.016082" lon="-5.574719">
        <ele>262.0</ele>
        <time>2022-09-26T11:47:37.923+02:00[Europe/Madrid]</time>
      </trkpt>
      <trkpt lat="37.015943" lon="-5.57476">
        <ele>264.0</ele>
        <time>2022-09-26T11:47:38.923+02:00[Europe/Madrid]</time>
      </trkpt>
      <trkpt lat="37.015801" lon="-5.574833">
        <ele>265.0</ele>
        <time>2022-09-26T11:47:39.923+02:00[Europe/Madrid]</time>
      </trkpt>
      <trkpt lat="37.015657" lon="-5.574938">
        <ele>266.0</ele>
        <time>2022-09-26T11:47:40.923+02:00[Europe/Madrid]</time>
      </trkpt>
      <trkpt lat="37.015512" lon="-5.57506">
        <ele>268.0</ele>
        <time>2022-09-26T11:47:41.923+02:00[Europe/Madrid]</time>
      </trkpt>
      <trkpt lat="37.015375" lon="-5.575175">
        <ele>270.0</ele>
        <time>2022-09-26T11:47:42.923+02:00[Europe/Madrid]</time>
      </trkpt>
      <trkpt lat="37.015246" lon="-5.575288">
        <ele>271.0</ele>
        <time>2022-09-26T11:47:43.923+02:00[Europe/Madrid]</time>
      </trkpt>
      <trkpt lat="37.015126" lon="-5.575385">
        <ele>272.0</ele>
        <time>2022-09-26T11:47:44.923+02:00[Europe/Madrid]</time>
      </trkpt>
      <trkpt lat="37.015014" lon="-5.575482">
        <ele>273.0</ele>
        <time>2022-09-26T11:47:45.923+02:00[Europe/Madrid]</time>
      </trkpt>
      <trkpt lat="37.014901" lon="-5.575566">
        <ele>274.0</ele>
        <time>2022-09-26T11:47:46.923+02:00[Europe/Madrid]</time>
      </trkpt>
      <trkpt lat="37.014792" lon="-5.575635">
        <ele>275.0</ele>
        <time>2022-09-26T11:47:47.923+02:00[Europe/Madrid]</time>
      </trkpt>
      <trkpt lat="37.014679" lon="-5.575688">
        <ele>276.0</ele>
        <time>2022-09-26T11:47:48.923+02:00[Europe/Madrid]</time>
      </trkpt>
      <trkpt lat="37.014559" lon="-5.575726">
        <ele>276.0</ele>
        <time>2022-09-26T11:47:49.923+02:00[Europe/Madrid]</time>
      </trkpt>
      <trkpt lat="37.014429" lon="-5.575756">
        <ele>277.0</ele>
        <time>2022-09-26T11:47:50.923+02:00[Europe/Madrid]</time>
      </trkpt>
      <trkpt lat="37.014287" lon="-5.575775">
        <ele>278.0</ele>
        <time>2022-09-26T11:47:51.923+02:00[Europe/Madrid]</time>
      </trkpt>
      <trkpt lat="37.014137" lon="-5.575792">
        <ele>278.0</ele>
        <time>2022-09-26T11:47:52.923+02:00[Europe/Madrid]</time>
      </trkpt>
      <trkpt lat="37.013983" lon="-5.575809">
        <ele>279.0</ele>
        <time>2022-09-26T11:47:53.923+02:00[Europe/Madrid]</time>
      </trkpt>
      <trkpt lat="37.013832" lon="-5.575814">
        <ele>280.0</ele>
        <time>2022-09-26T11:47:54.923+02:00[Europe/Madrid]</time>
      </trkpt>
      <trkpt lat="37.013685" lon="-5.575796">
        <ele>281.0</ele>
        <time>2022-09-26T11:47:55.923+02:00[Europe/Madrid]</time>
      </trkpt>
      <trkpt lat="37.013547" lon="-5.575756">
        <ele>282.0</ele>
        <time>2022-09-26T11:47:56.923+02:00[Europe/Madrid]</time>
      </trkpt>
      <trkpt lat="37.013414" lon="-5.575725">
        <ele>282.0</ele>
        <time>2022-09-26T11:47:57.923+02:00[Europe/Madrid]</time>
      </trkpt>
      <trkpt lat="37.013276" lon="-5.575722">
        <ele>283.0</ele>
        <time>2022-09-26T11:47:58.923+02:00[Europe/Madrid]</time>
      </trkpt>
      <trkpt lat="37.013136" lon="-5.575756">
        <ele>285.0</ele>
        <time>2022-09-26T11:47:59.923+02:00[Europe/Madrid]</time>
      </trkpt>
      <trkpt lat="37.012992" lon="-5.575794">
        <ele>286.0</ele>
        <time>2022-09-26T11:48:00.923+02:00[Europe/Madrid]</time>
      </trkpt>
      <trkpt lat="37.012845" lon="-5.575808">
        <ele>287.0</ele>
        <time>2022-09-26T11:48:01.923+02:00[Europe/Madrid]</time>
      </trkpt>
      <trkpt lat="37.012698" lon="-5.575796">
        <ele>287.0</ele>
        <time>2022-09-26T11:48:02.923+02:00[Europe/Madrid]</time>
      </trkpt>
      <trkpt lat="37.012544" lon="-5.575766">
        <ele>288.0</ele>
        <time>2022-09-26T11:48:03.923+02:00[Europe/Madrid]</time>
      </trkpt>
      <trkpt lat="37.012393" lon="-5.575734">
        <ele>289.0</ele>
        <time>2022-09-26T11:48:04.923+02:00[Europe/Madrid]</time>
      </trkpt>
      <trkpt lat="37.012244" lon="-5.575712">
        <ele>289.0</ele>
        <time>2022-09-26T11:48:05.923+02:00[Europe/Madrid]</time>
      </trkpt>
      <trkpt lat="37.012088" lon="-5.575712">
        <ele>290.0</ele>
        <time>2022-09-26T11:48:06.923+02:00[Europe/Madrid]</time>
      </trkpt>
      <trkpt lat="37.011928" lon="-5.57573">
        <ele>291.0</ele>
        <time>2022-09-26T11:48:07.923+02:00[Europe/Madrid]</time>
      </trkpt>
      <trkpt lat="37.011782" lon="-5.575749">
        <ele>292.0</ele>
        <time>2022-09-26T11:48:08.923+02:00[Europe/Madrid]</time>
      </trkpt>
      <trkpt lat="37.011639" lon="-5.575764">
        <ele>292.0</ele>
        <time>2022-09-26T11:48:09.923+02:00[Europe/Madrid]</time>
      </trkpt>
      <trkpt lat="37.01151" lon="-5.575775">
        <ele>293.0</ele>
        <time>2022-09-26T11:48:10.923+02:00[Europe/Madrid]</time>
      </trkpt>
      <trkpt lat="37.011389" lon="-5.575773">
        <ele>294.0</ele>
        <time>2022-09-26T11:48:11.923+02:00[Europe/Madrid]</time>
      </trkpt>
      <trkpt lat="37.011278" lon="-5.575749">
        <ele>294.0</ele>
        <time>2022-09-26T11:48:12.923+02:00[Europe/Madrid]</time>
      </trkpt>
      <trkpt lat="37.011179" lon="-5.5757">
        <ele>295.0</ele>
        <time>2022-09-26T11:48:13.923+02:00[Europe/Madrid]</time>
      </trkpt>
      <trkpt lat="37.011091" lon="-5.575626">
        <ele>295.0</ele>
        <time>2022-09-26T11:48:14.923+02:00[Europe/Madrid]</time>
      </trkpt>
      <trkpt lat="37.01102" lon="-5.575537">
        <ele>295.0</ele>
        <time>2022-09-26T11:48:15.923+02:00[Europe/Madrid]</time>
      </trkpt>
      <trkpt lat="37.010965" lon="-5.57543">
        <ele>295.0</ele>
        <time>2022-09-26T11:48:16.923+02:00[Europe/Madrid]</time>
      </trkpt>
      <trkpt lat="37.010926" lon="-5.575311">
        <ele>294.0</ele>
        <time>2022-09-26T11:48:17.923+02:00[Europe/Madrid]</time>
      </trkpt>
      <trkpt lat="37.010898" lon="-5.575176">
        <ele>293.0</ele>
        <time>2022-09-26T11:48:18.923+02:00[Europe/Madrid]</time>
      </trkpt>
      <trkpt lat="37.010868" lon="-5.575035">
        <ele>293.0</ele>
        <time>2022-09-26T11:48:19.923+02:00[Europe/Madrid]</time>
      </trkpt>
      <trkpt lat="37.010834" lon="-5.574895">
        <ele>292.0</ele>
        <time>2022-09-26T11:48:20.923+02:00[Europe/Madrid]</time>
      </trkpt>
      <trkpt lat="37.010782" lon="-5.574767">
        <ele>292.0</ele>
        <time>2022-09-26T11:48:21.923+02:00[Europe/Madrid]</time>
      </trkpt>
      <trkpt lat="37.010715" lon="-5.574653">
        <ele>292.0</ele>
        <time>2022-09-26T11:48:22.923+02:00[Europe/Madrid]</time>
      </trkpt>
      <trkpt lat="37.010624" lon="-5.574566">
        <ele>292.0</ele>
        <time>2022-09-26T11:48:23.923+02:00[Europe/Madrid]</time>
      </trkpt>
      <trkpt lat="37.010517" lon="-5.574505">
        <ele>292.0</ele>
        <time>2022-09-26T11:48:24.923+02:00[Europe/Madrid]</time>
      </trkpt>
      <trkpt lat="37.010391" lon="-5.574488">
        <ele>293.0</ele>
        <time>2022-09-26T11:48:25.923+02:00[Europe/Madrid]</time>
      </trkpt>
      <trkpt lat="37.010247" lon="-5.574489">
        <ele>294.0</ele>
        <time>2022-09-26T11:48:26.923+02:00[Europe/Madrid]</time>
      </trkpt>
      <trkpt lat="37.010089" lon="-5.574509">
        <ele>295.0</ele>
        <time>2022-09-26T11:48:27.923+02:00[Europe/Madrid]</time>
      </trkpt>
      <trkpt lat="37.009912" lon="-5.574517">
        <ele>296.0</ele>
        <time>2022-09-26T11:48:28.923+02:00[Europe/Madrid]</time>
      </trkpt>
      <trkpt lat="37.009722" lon="-5.57451">
        <ele>297.0</ele>
        <time>2022-09-26T11:48:29.923+02:00[Europe/Madrid]</time>
      </trkpt>
      <trkpt lat="37.009524" lon="-5.574489">
        <ele>298.0</ele>
        <time>2022-09-26T11:48:30.923+02:00[Europe/Madrid]</time>
      </trkpt>
      <trkpt lat="37.009345" lon="-5.574469">
        <ele>298.0</ele>
        <time>2022-09-26T11:48:31.923+02:00[Europe/Madrid]</time>
      </trkpt>
      <trkpt lat="37.009177" lon="-5.574456">
        <ele>299.0</ele>
        <time>2022-09-26T11:48:32.923+02:00[Europe/Madrid]</time>
      </trkpt>
      <trkpt lat="37.009031" lon="-5.574451">
        <ele>299.0</ele>
        <time>2022-09-26T11:48:33.923+02:00[Europe/Madrid]</time>
      </trkpt>
      <trkpt lat="37.008904" lon="-5.574453">
        <ele>300.0</ele>
        <time>2022-09-26T11:48:34.923+02:00[Europe/Madrid]</time>
      </trkpt>
      <trkpt lat="37.008787" lon="-5.574482">
        <ele>301.0</ele>
        <time>2022-09-26T11:48:35.923+02:00[Europe/Madrid]</time>
      </trkpt>
      <trkpt lat="37.00867" lon="-5.574536">
        <ele>301.0</ele>
        <time>2022-09-26T11:48:36.923+02:00[Europe/Madrid]</time>
      </trkpt>
      <trkpt lat="37.008563" lon="-5.574617">
        <ele>301.0</ele>
        <time>2022-09-26T11:48:37.923+02:00[Europe/Madrid]</time>
      </trkpt>
      <trkpt lat="37.008454" lon="-5.57473">
        <ele>301.0</ele>
        <time>2022-09-26T11:48:38.923+02:00[Europe/Madrid]</time>
      </trkpt>
      <trkpt lat="37.008342" lon="-5.574861">
        <ele>301.0</ele>
        <time>2022-09-26T11:48:39.923+02:00[Europe/Madrid]</time>
      </trkpt>
      <trkpt lat="37.008222" lon="-5.575006">
        <ele>301.0</ele>
        <time>2022-09-26T11:48:40.923+02:00[Europe/Madrid]</time>
      </trkpt>
      <trkpt lat="37.008088" lon="-5.575158">
        <ele>301.0</ele>
        <time>2022-09-26T11:48:41.923+02:00[Europe/Madrid]</time>
      </trkpt>
      <trkpt lat="37.007945" lon="-5.57532">
        <ele>301.0</ele>
        <time>2022-09-26T11:48:42.923+02:00[Europe/Madrid]</time>
      </trkpt>
      <trkpt lat="37.007804" lon="-5.575479">
        <ele>301.0</ele>
        <time>2022-09-26T11:48:43.923+02:00[Europe/Madrid]</time>
      </trkpt>
      <trkpt lat="37.007673" lon="-5.575627">
        <ele>301.0</ele>
        <time>2022-09-26T11:48:44.923+02:00[Europe/Madrid]</time>
      </trkpt>
      <trkpt lat="37.007548" lon="-5.575766">
        <ele>301.0</ele>
        <time>2022-09-26T11:48:45.923+02:00[Europe/Madrid]</time>
      </trkpt>
      <trkpt lat="37.007428" lon="-5.575888">
        <ele>301.0</ele>
        <time>2022-09-26T11:48:46.923+02:00[Europe/Madrid]</time>
      </trkpt>
      <trkpt lat="37.007307" lon="-5.575985">
        <ele>301.0</ele>
        <time>2022-09-26T11:48:47.923+02:00[Europe/Madrid]</time>
      </trkpt>
      <trkpt lat="37.007175" lon="-5.57606">
        <ele>301.0</ele>
        <time>2022-09-26T11:48:48.923+02:00[Europe/Madrid]</time>
      </trkpt>
      <trkpt lat="37.007031" lon="-5.576117">
        <ele>300.0</ele>
        <time>2022-09-26T11:48:49.923+02:00[Europe/Madrid]</time>
      </trkpt>
      <trkpt lat="37.006879" lon="-5.576169">
        <ele>300.0</ele>
        <time>2022-09-26T11:48:50.923+02:00[Europe/Madrid]</time>
      </trkpt>
      <trkpt lat="37.006717" lon="-5.576218">
        <ele>300.0</ele>
        <time>2022-09-26T11:48:51.923+02:00[Europe/Madrid]</time>
      </trkpt>
      <trkpt lat="37.006549" lon="-5.576272">
        <ele>300.0</ele>
        <time>2022-09-26T11:48:52.923+02:00[Europe/Madrid]</time>
      </trkpt>
      <trkpt lat="37.006374" lon="-5.57633">
        <ele>301.0</ele>
        <time>2022-09-26T11:48:53.923+02:00[Europe/Madrid]</time>
      </trkpt>
      <trkpt lat="37.006193" lon="-5.576384">
        <ele>301.0</ele>
        <time>2022-09-26T11:48:54.923+02:00[Europe/Madrid]</time>
      </trkpt>
      <trkpt lat="37.006012" lon="-5.576429">
        <ele>301.0</ele>
        <time>2022-09-26T11:48:55.923+02:00[Europe/Madrid]</time>
      </trkpt>
      <trkpt lat="37.005827" lon="-5.576454">
        <ele>301.0</ele>
        <time>2022-09-26T11:48:56.923+02:00[Europe/Madrid]</time>
      </trkpt>
      <trkpt lat="37.005638" lon="-5.576461">
        <ele>302.0</ele>
        <time>2022-09-26T11:48:57.923+02:00[Europe/Madrid]</time>
      </trkpt>
      <trkpt lat="37.005447" lon="-5.576451">
        <ele>303.0</ele>
        <time>2022-09-26T11:48:58.923+02:00[Europe/Madrid]</time>
      </trkpt>
      <trkpt lat="37.005257" lon="-5.576432">
        <ele>304.0</ele>
        <time>2022-09-26T11:48:59.923+02:00[Europe/Madrid]</time>
      </trkpt>
      <trkpt lat="37.005079" lon="-5.576411">
        <ele>304.0</ele>
        <time>2022-09-26T11:49:00.923+02:00[Europe/Madrid]</time>
      </trkpt>
      <trkpt lat="37.004912" lon="-5.576395">
        <ele>304.0</ele>
        <time>2022-09-26T11:49:01.923+02:00[Europe/Madrid]</time>
      </trkpt>
      <trkpt lat="37.00475" lon="-5.576373">
        <ele>305.0</ele>
        <time>2022-09-26T11:49:02.923+02:00[Europe/Madrid]</time>
      </trkpt>
      <trkpt lat="37.004593" lon="-5.576345">
        <ele>305.0</ele>
        <time>2022-09-26T11:49:03.923+02:00[Europe/Madrid]</time>
      </trkpt>
      <trkpt lat="37.004443" lon="-5.576321">
        <ele>305.0</ele>
        <time>2022-09-26T11:49:04.923+02:00[Europe/Madrid]</time>
      </trkpt>
      <trkpt lat="37.004301" lon="-5.576302">
        <ele>305.0</ele>
        <time>2022-09-26T11:49:05.923+02:00[Europe/Madrid]</time>
      </trkpt>
      <trkpt lat="37.004164" lon="-5.576284">
        <ele>306.0</ele>
        <time>2022-09-26T11:49:06.923+02:00[Europe/Madrid]</time>
      </trkpt>
      <trkpt lat="37.004035" lon="-5.576267">
        <ele>306.0</ele>
        <time>2022-09-26T11:49:07.923+02:00[Europe/Madrid]</time>
      </trkpt>
      <trkpt lat="37.003915" lon="-5.576254">
        <ele>307.0</ele>
        <time>2022-09-26T11:49:08.923+02:00[Europe/Madrid]</time>
      </trkpt>
      <trkpt lat="37.0038" lon="-5.576239">
        <ele>307.0</ele>
        <time>2022-09-26T11:49:09.923+02:00[Europe/Madrid]</time>
      </trkpt>
      <trkpt lat="37.003688" lon="-5.576218">
        <ele>308.0</ele>
        <time>2022-09-26T11:49:10.923+02:00[Europe/Madrid]</time>
      </trkpt>
      <trkpt lat="37.00358" lon="-5.576192">
        <ele>309.0</ele>
        <time>2022-09-26T11:49:11.923+02:00[Europe/Madrid]</time>
      </trkpt>
      <trkpt lat="37.003479" lon="-5.576155">
        <ele>309.0</ele>
        <time>2022-09-26T11:49:12.923+02:00[Europe/Madrid]</time>
      </trkpt>
      <trkpt lat="37.003384" lon="-5.576111">
        <ele>310.0</ele>
        <time>2022-09-26T11:49:13.923+02:00[Europe/Madrid]</time>
      </trkpt>
      <trkpt lat="37.003296" lon="-5.576052">
        <ele>310.0</ele>
        <time>2022-09-26T11:49:14.923+02:00[Europe/Madrid]</time>
      </trkpt>
      <trkpt lat="37.003217" lon="-5.575996">
        <ele>310.0</ele>
        <time>2022-09-26T11:49:15.923+02:00[Europe/Madrid]</time>
      </trkpt>
      <trkpt lat="37.003133" lon="-5.575948">
        <ele>310.0</ele>
        <time>2022-09-26T11:49:16.923+02:00[Europe/Madrid]</time>
      </trkpt>
      <trkpt lat="37.003039" lon="-5.575911">
        <ele>310.0</ele>
        <time>2022-09-26T11:49:17.923+02:00[Europe/Madrid]</time>
      </trkpt>
      <trkpt lat="37.002943" lon="-5.57589">
        <ele>311.0</ele>
        <time>2022-09-26T11:49:18.923+02:00[Europe/Madrid]</time>
      </trkpt>
      <trkpt lat="37.002847" lon="-5.575892">
        <ele>311.0</ele>
        <time>2022-09-26T11:49:19.923+02:00[Europe/Madrid]</time>
      </trkpt>
      <trkpt lat="37.002748" lon="-5.575914">
        <ele>311.0</ele>
        <time>2022-09-26T11:49:20.923+02:00[Europe/Madrid]</time>
      </trkpt>
      <trkpt lat="37.002652" lon="-5.575957">
        <ele>312.0</ele>
        <time>2022-09-26T11:49:21.923+02:00[Europe/Madrid]</time>
      </trkpt>
      <trkpt lat="37.002558" lon="-5.575998">
        <ele>312.0</ele>
        <time>2022-09-26T11:49:22.923+02:00[Europe/Madrid]</time>
      </trkpt>
      <trkpt lat="37.002456" lon="-5.576023">
        <ele>312.0</ele>
        <time>2022-09-26T11:49:23.923+02:00[Europe/Madrid]</time>
      </trkpt>
      <trkpt lat="37.002351" lon="-5.576039">
        <ele>313.0</ele>
        <time>2022-09-26T11:49:24.923+02:00[Europe/Madrid]</time>
      </trkpt>
      <trkpt lat="37.00224" lon="-5.576042">
        <ele>313.0</ele>
        <time>2022-09-26T11:49:25.923+02:00[Europe/Madrid]</time>
      </trkpt>
      <trkpt lat="37.002117" lon="-5.576027">
        <ele>313.0</ele>
        <time>2022-09-26T11:49:26.923+02:00[Europe/Madrid]</time>
      </trkpt>
      <trkpt lat="37.001984" lon="-5.57601">
        <ele>314.0</ele>
        <time>2022-09-26T11:49:27.923+02:00[Europe/Madrid]</time>
      </trkpt>
      <trkpt lat="37.001837" lon="-5.575999">
        <ele>314.0</ele>
        <time>2022-09-26T11:49:28.923+02:00[Europe/Madrid]</time>
      </trkpt>
      <trkpt lat="37.00167" lon="-5.575987">
        <ele>314.0</ele>
        <time>2022-09-26T11:49:29.923+02:00[Europe/Madrid]</time>
      </trkpt>
      <trkpt lat="37.001497" lon="-5.57597">
        <ele>315.0</ele>
        <time>2022-09-26T11:49:30.923+02:00[Europe/Madrid]</time>
      </trkpt>
      <trkpt lat="37.001336" lon="-5.57595">
        <ele>315.0</ele>
        <time>2022-09-26T11:49:31.923+02:00[Europe/Madrid]</time>
      </trkpt>
      <trkpt lat="37.001197" lon="-5.575925">
        <ele>315.0</ele>
        <time>2022-09-26T11:49:32.923+02:00[Europe/Madrid]</time>
      </trkpt>
      <trkpt lat="37.001063" lon="-5.57588">
        <ele>316.0</ele>
        <time>2022-09-26T11:49:33.923+02:00[Europe/Madrid]</time>
      </trkpt>
      <trkpt lat="37.000934" lon="-5.575815">
        <ele>316.0</ele>
        <time>2022-09-26T11:49:34.923+02:00[Europe/Madrid]</time>
      </trkpt>
      <trkpt lat="37.00082" lon="-5.575734">
        <ele>315.0</ele>
        <time>2022-09-26T11:49:35.923+02:00[Europe/Madrid]</time>
      </trkpt>
      <trkpt lat="37.000705" lon="-5.575653">
        <ele>314.0</ele>
        <time>2022-09-26T11:49:36.923+02:00[Europe/Madrid]</time>
      </trkpt>
      <trkpt lat="37.000575" lon="-5.575606">
        <ele>312.0</ele>
        <time>2022-09-26T11:49:37.923+02:00[Europe/Madrid]</time>
      </trkpt>
      <trkpt lat="37.000431" lon="-5.575584">
        <ele>311.0</ele>
        <time>2022-09-26T11:49:38.923+02:00[Europe/Madrid]</time>
      </trkpt>
      <trkpt lat="37.000277" lon="-5.575601">
        <ele>311.0</ele>
        <time>2022-09-26T11:49:39.923+02:00[Europe/Madrid]</time>
      </trkpt>
      <trkpt lat="37.000125" lon="-5.575622">
        <ele>310.0</ele>
        <time>2022-09-26T11:49:40.923+02:00[Europe/Madrid]</time>
      </trkpt>
      <trkpt lat="36.999974" lon="-5.575617">
        <ele>309.0</ele>
        <time>2022-09-26T11:49:41.923+02:00[Europe/Madrid]</time>
      </trkpt>
      <trkpt lat="36.999817" lon="-5.575593">
        <ele>308.0</ele>
        <time>2022-09-26T11:49:42.923+02:00[Europe/Madrid]</time>
      </trkpt>
      <trkpt lat="36.999657" lon="-5.575572">
        <ele>307.0</ele>
        <time>2022-09-26T11:49:43.923+02:00[Europe/Madrid]</time>
      </trkpt>
      <trkpt lat="36.99951" lon="-5.575567">
        <ele>306.0</ele>
        <time>2022-09-26T11:49:44.923+02:00[Europe/Madrid]</time>
      </trkpt>
      <trkpt lat="36.999378" lon="-5.575591">
        <ele>306.0</ele>
        <time>2022-09-26T11:49:45.923+02:00[Europe/Madrid]</time>
      </trkpt>
      <trkpt lat="36.999251" lon="-5.575634">
        <ele>306.0</ele>
        <time>2022-09-26T11:49:46.923+02:00[Europe/Madrid]</time>
      </trkpt>
      <trkpt lat="36.999128" lon="-5.575709">
        <ele>307.0</ele>
        <time>2022-09-26T11:49:47.923+02:00[Europe/Madrid]</time>
      </trkpt>
      <trkpt lat="36.99901" lon="-5.575808">
        <ele>307.0</ele>
        <time>2022-09-26T11:49:48.923+02:00[Europe/Madrid]</time>
      </trkpt>
      <trkpt lat="36.9989" lon="-5.575926">
        <ele>307.0</ele>
        <time>2022-09-26T11:49:49.923+02:00[Europe/Madrid]</time>
      </trkpt>
      <trkpt lat="36.998807" lon="-5.576058">
        <ele>308.0</ele>
        <time>2022-09-26T11:49:50.923+02:00[Europe/Madrid]</time>
      </trkpt>
      <trkpt lat="36.998727" lon="-5.576176">
        <ele>308.0</ele>
        <time>2022-09-26T11:49:51.923+02:00[Europe/Madrid]</time>
      </trkpt>
      <trkpt lat="36.998655" lon="-5.576274">
        <ele>308.0</ele>
        <time>2022-09-26T11:49:52.923+02:00[Europe/Madrid]</time>
      </trkpt>
      <trkpt lat="36.998584" lon="-5.576353">
        <ele>308.0</ele>
        <time>2022-09-26T11:49:53.923+02:00[Europe/Madrid]</time>
      </trkpt>
      <trkpt lat="36.998449" lon="-5.576487">
        <ele>308.0</ele>
        <time>2022-09-26T11:49:55.916+02:00[Europe/Madrid]</time>
      </trkpt>
      <trkpt lat="36.998344" lon="-5.576601">
        <ele>308.0</ele>
        <time>2022-09-26T11:49:57.914+02:00[Europe/Madrid]</time>
      </trkpt>
      <trkpt lat="36.998291" lon="-5.57671">
        <ele>308.0</ele>
        <time>2022-09-26T11:49:59.913+02:00[Europe/Madrid]</time>
      </trkpt>
      <trkpt lat="36.998255" lon="-5.576849">
        <ele>308.0</ele>
        <time>2022-09-26T11:50:01.904+02:00[Europe/Madrid]</time>
      </trkpt>
      <trkpt lat="36.998188" lon="-5.576941">
        <ele>308.0</ele>
        <time>2022-09-26T11:50:03.912+02:00[Europe/Madrid]</time>
      </trkpt>
      <trkpt lat="36.99809" lon="-5.576943">
        <ele>308.0</ele>
        <time>2022-09-26T11:50:05.903+02:00[Europe/Madrid]</time>
      </trkpt>
      <trkpt lat="36.998019" lon="-5.576848">
        <ele>308.0</ele>
        <time>2022-09-26T11:50:07.909+02:00[Europe/Madrid]</time>
      </trkpt>
      <trkpt lat="36.997957" lon="-5.576698">
        <ele>308.0</ele>
        <time>2022-09-26T11:50:09.915+02:00[Europe/Madrid]</time>
      </trkpt>
      <trkpt lat="36.997889" lon="-5.576561">
        <ele>308.0</ele>
        <time>2022-09-26T11:50:11.908+02:00[Europe/Madrid]</time>
      </trkpt>
      <trkpt lat="36.997791" lon="-5.576481">
        <ele>308.0</ele>
        <time>2022-09-26T11:50:13.914+02:00[Europe/Madrid]</time>
      </trkpt>
      <trkpt lat="36.997632" lon="-5.576448">
        <ele>307.0</ele>
        <time>2022-09-26T11:50:15.906+02:00[Europe/Madrid]</time>
      </trkpt>
      <trkpt lat="36.997538" lon="-5.576448">
        <ele>306.0</ele>
        <time>2022-09-26T11:50:16.908+02:00[Europe/Madrid]</time>
      </trkpt>
      <trkpt lat="36.99744" lon="-5.576453">
        <ele>306.0</ele>
        <time>2022-09-26T11:50:17.909+02:00[Europe/Madrid]</time>
      </trkpt>
      <trkpt lat="36.997344" lon="-5.576457">
        <ele>305.0</ele>
        <time>2022-09-26T11:50:18.909+02:00[Europe/Madrid]</time>
      </trkpt>
      <trkpt lat="36.997249" lon="-5.57646">
        <ele>304.0</ele>
        <time>2022-09-26T11:50:19.909+02:00[Europe/Madrid]</time>
      </trkpt>
      <trkpt lat="36.997158" lon="-5.576469">
        <ele>303.0</ele>
        <time>2022-09-26T11:50:20.909+02:00[Europe/Madrid]</time>
      </trkpt>
      <trkpt lat="36.997067" lon="-5.576478">
        <ele>303.0</ele>
        <time>2022-09-26T11:50:21.912+02:00[Europe/Madrid]</time>
      </trkpt>
      <trkpt lat="36.996974" lon="-5.576486">
        <ele>303.0</ele>
        <time>2022-09-26T11:50:22.912+02:00[Europe/Madrid]</time>
      </trkpt>
      <trkpt lat="36.996875" lon="-5.576493">
        <ele>302.0</ele>
        <time>2022-09-26T11:50:23.913+02:00[Europe/Madrid]</time>
      </trkpt>
      <trkpt lat="36.996776" lon="-5.576496">
        <ele>301.0</ele>
        <time>2022-09-26T11:50:24.913+02:00[Europe/Madrid]</time>
      </trkpt>
      <trkpt lat="36.996668" lon="-5.576501">
        <ele>301.0</ele>
        <time>2022-09-26T11:50:25.913+02:00[Europe/Madrid]</time>
      </trkpt>
      <trkpt lat="36.996553" lon="-5.576509">
        <ele>300.0</ele>
        <time>2022-09-26T11:50:26.913+02:00[Europe/Madrid]</time>
      </trkpt>
      <trkpt lat="36.996431" lon="-5.576516">
        <ele>300.0</ele>
        <time>2022-09-26T11:50:27.913+02:00[Europe/Madrid]</time>
      </trkpt>
      <trkpt lat="36.996309" lon="-5.576517">
        <ele>299.0</ele>
        <time>2022-09-26T11:50:28.916+02:00[Europe/Madrid]</time>
      </trkpt>
      <trkpt lat="36.996196" lon="-5.576517">
        <ele>298.0</ele>
        <time>2022-09-26T11:50:29.916+02:00[Europe/Madrid]</time>
      </trkpt>
      <trkpt lat="36.996092" lon="-5.576519">
        <ele>298.0</ele>
        <time>2022-09-26T11:50:30.916+02:00[Europe/Madrid]</time>
      </trkpt>
      <trkpt lat="36.995988" lon="-5.576523">
        <ele>297.0</ele>
        <time>2022-09-26T11:50:31.916+02:00[Europe/Madrid]</time>
      </trkpt>
      <trkpt lat="36.995889" lon="-5.576529">
        <ele>297.0</ele>
        <time>2022-09-26T11:50:32.916+02:00[Europe/Madrid]</time>
      </trkpt>
      <trkpt lat="36.995795" lon="-5.576539">
        <ele>296.0</ele>
        <time>2022-09-26T11:50:33.916+02:00[Europe/Madrid]</time>
      </trkpt>
      <trkpt lat="36.995701" lon="-5.576545">
        <ele>296.0</ele>
        <time>2022-09-26T11:50:34.916+02:00[Europe/Madrid]</time>
      </trkpt>
      <trkpt lat="36.995534" lon="-5.576556">
        <ele>295.0</ele>
        <time>2022-09-26T11:50:36.905+02:00[Europe/Madrid]</time>
      </trkpt>
      <trkpt lat="36.995379" lon="-5.576565">
        <ele>294.0</ele>
        <time>2022-09-26T11:50:38.900+02:00[Europe/Madrid]</time>
      </trkpt>
      <trkpt lat="36.995213" lon="-5.576579">
        <ele>293.0</ele>
        <time>2022-09-26T11:50:40.906+02:00[Europe/Madrid]</time>
      </trkpt>
      <trkpt lat="36.995054" lon="-5.576584">
        <ele>293.0</ele>
        <time>2022-09-26T11:50:42.906+02:00[Europe/Madrid]</time>
      </trkpt>
      <trkpt lat="36.994906" lon="-5.576603">
        <ele>292.0</ele>
        <time>2022-09-26T11:50:44.908+02:00[Europe/Madrid]</time>
      </trkpt>
      <trkpt lat="36.994765" lon="-5.576613">
        <ele>291.0</ele>
        <time>2022-09-26T11:50:46.904+02:00[Europe/Madrid]</time>
      </trkpt>
      <trkpt lat="36.994646" lon="-5.576625">
        <ele>291.0</ele>
        <time>2022-09-26T11:50:48.903+02:00[Europe/Madrid]</time>
      </trkpt>
      <trkpt lat="36.99453" lon="-5.576626">
        <ele>291.0</ele>
        <time>2022-09-26T11:50:50.911+02:00[Europe/Madrid]</time>
      </trkpt>
      <trkpt lat="36.994427" lon="-5.576625">
        <ele>290.0</ele>
        <time>2022-09-26T11:50:52.905+02:00[Europe/Madrid]</time>
      </trkpt>
      <trkpt lat="36.994316" lon="-5.576646">
        <ele>289.0</ele>
        <time>2022-09-26T11:50:54.905+02:00[Europe/Madrid]</time>
      </trkpt>
      <trkpt lat="36.994186" lon="-5.576661">
        <ele>289.0</ele>
        <time>2022-09-26T11:50:56.922+02:00[Europe/Madrid]</time>
      </trkpt>
      <trkpt lat="36.994054" lon="-5.57666">
        <ele>288.0</ele>
        <time>2022-09-26T11:50:58.904+02:00[Europe/Madrid]</time>
      </trkpt>
      <trkpt lat="36.993895" lon="-5.576665">
        <ele>288.0</ele>
        <time>2022-09-26T11:51:00.921+02:00[Europe/Madrid]</time>
      </trkpt>
      <trkpt lat="36.993721" lon="-5.576681">
        <ele>287.0</ele>
        <time>2022-09-26T11:51:02.905+02:00[Europe/Madrid]</time>
      </trkpt>
      <trkpt lat="36.993554" lon="-5.576682">
        <ele>286.0</ele>
        <time>2022-09-26T11:51:04.910+02:00[Europe/Madrid]</time>
      </trkpt>
      <trkpt lat="36.993393" lon="-5.576689">
        <ele>285.0</ele>
        <time>2022-09-26T11:51:06.909+02:00[Europe/Madrid]</time>
      </trkpt>
      <trkpt lat="36.993268" lon="-5.576683">
        <ele>285.0</ele>
        <time>2022-09-26T11:51:08.906+02:00[Europe/Madrid]</time>
      </trkpt>
      <trkpt lat="36.993141" lon="-5.576667">
        <ele>284.0</ele>
        <time>2022-09-26T11:51:15.912+02:00[Europe/Madrid]</time>
      </trkpt>
      <trkpt lat="36.993042" lon="-5.576665">
        <ele>284.0</ele>
        <time>2022-09-26T11:51:17.897+02:00[Europe/Madrid]</time>
      </trkpt>
      <trkpt lat="36.992928" lon="-5.576672">
        <ele>284.0</ele>
        <time>2022-09-26T11:51:20.921+02:00[Europe/Madrid]</time>
      </trkpt>
      <trkpt lat="36.992753" lon="-5.576737">
        <ele>281.0</ele>
        <time>2022-09-26T12:15:05.913+02:00[Europe/Madrid]</time>
      </trkpt>
      <trkpt lat="36.99259" lon="-5.576736">
        <ele>281.0</ele>
        <time>2022-09-26T12:15:07.905+02:00[Europe/Madrid]</time>
      </trkpt>
      <trkpt lat="36.992449" lon="-5.576742">
        <ele>280.0</ele>
        <time>2022-09-26T12:15:09.889+02:00[Europe/Madrid]</time>
      </trkpt>
      <trkpt lat="36.992287" lon="-5.576773">
        <ele>279.0</ele>
        <time>2022-09-26T12:15:11.898+02:00[Europe/Madrid]</time>
      </trkpt>
      <trkpt lat="36.992142" lon="-5.576819">
        <ele>278.0</ele>
        <time>2022-09-26T12:15:13.911+02:00[Europe/Madrid]</time>
      </trkpt>
      <trkpt lat="36.992004" lon="-5.576882">
        <ele>277.0</ele>
        <time>2022-09-26T12:15:15.910+02:00[Europe/Madrid]</time>
      </trkpt>
      <trkpt lat="36.991917" lon="-5.576921">
        <ele>276.0</ele>
        <time>2022-09-26T12:15:16.914+02:00[Europe/Madrid]</time>
      </trkpt>
      <trkpt lat="36.991823" lon="-5.576968">
        <ele>276.0</ele>
        <time>2022-09-26T12:15:17.915+02:00[Europe/Madrid]</time>
      </trkpt>
      <trkpt lat="36.991728" lon="-5.577016">
        <ele>275.0</ele>
        <time>2022-09-26T12:15:18.915+02:00[Europe/Madrid]</time>
      </trkpt>
      <trkpt lat="36.991632" lon="-5.57706">
        <ele>274.0</ele>
        <time>2022-09-26T12:15:19.915+02:00[Europe/Madrid]</time>
      </trkpt>
      <trkpt lat="36.991536" lon="-5.577104">
        <ele>273.0</ele>
        <time>2022-09-26T12:15:20.915+02:00[Europe/Madrid]</time>
      </trkpt>
      <trkpt lat="36.991436" lon="-5.577151">
        <ele>272.0</ele>
        <time>2022-09-26T12:15:21.918+02:00[Europe/Madrid]</time>
      </trkpt>
      <trkpt lat="36.991332" lon="-5.5772">
        <ele>271.0</ele>
        <time>2022-09-26T12:15:22.918+02:00[Europe/Madrid]</time>
      </trkpt>
      <trkpt lat="36.991222" lon="-5.577247">
        <ele>270.0</ele>
        <time>2022-09-26T12:15:23.918+02:00[Europe/Madrid]</time>
      </trkpt>
      <trkpt lat="36.991106" lon="-5.577302">
        <ele>269.0</ele>
        <time>2022-09-26T12:15:24.918+02:00[Europe/Madrid]</time>
      </trkpt>
      <trkpt lat="36.990989" lon="-5.577361">
        <ele>268.0</ele>
        <time>2022-09-26T12:15:25.918+02:00[Europe/Madrid]</time>
      </trkpt>
      <trkpt lat="36.99087" lon="-5.57742">
        <ele>267.0</ele>
        <time>2022-09-26T12:15:26.918+02:00[Europe/Madrid]</time>
      </trkpt>
      <trkpt lat="36.990744" lon="-5.577478">
        <ele>266.0</ele>
        <time>2022-09-26T12:15:27.918+02:00[Europe/Madrid]</time>
      </trkpt>
      <trkpt lat="36.990629" lon="-5.577533">
        <ele>265.0</ele>
        <time>2022-09-26T12:15:28.918+02:00[Europe/Madrid]</time>
      </trkpt>
      <trkpt lat="36.990511" lon="-5.577589">
        <ele>264.0</ele>
        <time>2022-09-26T12:15:29.918+02:00[Europe/Madrid]</time>
      </trkpt>
      <trkpt lat="36.990393" lon="-5.577642">
        <ele>263.0</ele>
        <time>2022-09-26T12:15:30.918+02:00[Europe/Madrid]</time>
      </trkpt>
      <trkpt lat="36.990285" lon="-5.577692">
        <ele>262.0</ele>
        <time>2022-09-26T12:15:31.918+02:00[Europe/Madrid]</time>
      </trkpt>
      <trkpt lat="36.990183" lon="-5.577742">
        <ele>261.0</ele>
        <time>2022-09-26T12:15:32.918+02:00[Europe/Madrid]</time>
      </trkpt>
      <trkpt lat="36.99008" lon="-5.577795">
        <ele>260.0</ele>
        <time>2022-09-26T12:15:33.918+02:00[Europe/Madrid]</time>
      </trkpt>
      <trkpt lat="36.989972" lon="-5.577852">
        <ele>259.0</ele>
        <time>2022-09-26T12:15:34.918+02:00[Europe/Madrid]</time>
      </trkpt>
      <trkpt lat="36.98985" lon="-5.577911">
        <ele>258.0</ele>
        <time>2022-09-26T12:15:35.918+02:00[Europe/Madrid]</time>
      </trkpt>
      <trkpt lat="36.989722" lon="-5.577971">
        <ele>258.0</ele>
        <time>2022-09-26T12:15:36.918+02:00[Europe/Madrid]</time>
      </trkpt>
      <trkpt lat="36.9896" lon="-5.578033">
        <ele>257.0</ele>
        <time>2022-09-26T12:15:37.921+02:00[Europe/Madrid]</time>
      </trkpt>
      <trkpt lat="36.989484" lon="-5.57809">
        <ele>256.0</ele>
        <time>2022-09-26T12:15:38.921+02:00[Europe/Madrid]</time>
      </trkpt>
      <trkpt lat="36.989378" lon="-5.578145">
        <ele>255.0</ele>
        <time>2022-09-26T12:15:39.921+02:00[Europe/Madrid]</time>
      </trkpt>
      <trkpt lat="36.989279" lon="-5.578197">
        <ele>254.0</ele>
        <time>2022-09-26T12:15:40.921+02:00[Europe/Madrid]</time>
      </trkpt>
      <trkpt lat="36.989186" lon="-5.578253">
        <ele>254.0</ele>
        <time>2022-09-26T12:15:41.921+02:00[Europe/Madrid]</time>
      </trkpt>
      <trkpt lat="36.989101" lon="-5.578316">
        <ele>254.0</ele>
        <time>2022-09-26T12:15:42.922+02:00[Europe/Madrid]</time>
      </trkpt>
      <trkpt lat="36.98902" lon="-5.578382">
        <ele>253.0</ele>
        <time>2022-09-26T12:15:43.922+02:00[Europe/Madrid]</time>
      </trkpt>
      <trkpt lat="36.988948" lon="-5.578449">
        <ele>253.0</ele>
        <time>2022-09-26T12:15:44.922+02:00[Europe/Madrid]</time>
      </trkpt>
      <trkpt lat="36.988813" lon="-5.578573">
        <ele>252.0</ele>
        <time>2022-09-26T12:15:46.904+02:00[Europe/Madrid]</time>
      </trkpt>
      <trkpt lat="36.988682" lon="-5.578686">
        <ele>251.0</ele>
        <time>2022-09-26T12:15:48.904+02:00[Europe/Madrid]</time>
      </trkpt>
      <trkpt lat="36.988566" lon="-5.578803">
        <ele>250.0</ele>
        <time>2022-09-26T12:15:50.904+02:00[Europe/Madrid]</time>
      </trkpt>
      <trkpt lat="36.988454" lon="-5.578903">
        <ele>250.0</ele>
        <time>2022-09-26T12:15:52.901+02:00[Europe/Madrid]</time>
      </trkpt>
      <trkpt lat="36.988334" lon="-5.579007">
        <ele>249.0</ele>
        <time>2022-09-26T12:15:54.903+02:00[Europe/Madrid]</time>
      </trkpt>
      <trkpt lat="36.988213" lon="-5.579117">
        <ele>248.0</ele>
        <time>2022-09-26T12:15:56.909+02:00[Europe/Madrid]</time>
      </trkpt>
      <trkpt lat="36.988087" lon="-5.579232">
        <ele>248.0</ele>
        <time>2022-09-26T12:15:58.908+02:00[Europe/Madrid]</time>
      </trkpt>
      <trkpt lat="36.987951" lon="-5.579354">
        <ele>247.0</ele>
        <time>2022-09-26T12:16:00.908+02:00[Europe/Madrid]</time>
      </trkpt>
      <trkpt lat="36.987804" lon="-5.579487">
        <ele>246.0</ele>
        <time>2022-09-26T12:16:02.905+02:00[Europe/Madrid]</time>
      </trkpt>
      <trkpt lat="36.987724" lon="-5.579562">
        <ele>246.0</ele>
        <time>2022-09-26T12:16:03.910+02:00[Europe/Madrid]</time>
      </trkpt>
      <trkpt lat="36.987629" lon="-5.579645">
        <ele>245.0</ele>
        <time>2022-09-26T12:16:04.910+02:00[Europe/Madrid]</time>
      </trkpt>
      <trkpt lat="36.987521" lon="-5.579732">
        <ele>245.0</ele>
        <time>2022-09-26T12:16:05.910+02:00[Europe/Madrid]</time>
      </trkpt>
      <trkpt lat="36.987414" lon="-5.579811">
        <ele>244.0</ele>
        <time>2022-09-26T12:16:06.911+02:00[Europe/Madrid]</time>
      </trkpt>
      <trkpt lat="36.987311" lon="-5.579884">
        <ele>244.0</ele>
        <time>2022-09-26T12:16:07.911+02:00[Europe/Madrid]</time>
      </trkpt>
      <trkpt lat="36.987207" lon="-5.579956">
        <ele>243.0</ele>
        <time>2022-09-26T12:16:08.917+02:00[Europe/Madrid]</time>
      </trkpt>
      <trkpt lat="36.9871" lon="-5.580029">
        <ele>243.0</ele>
        <time>2022-09-26T12:16:09.917+02:00[Europe/Madrid]</time>
      </trkpt>
      <trkpt lat="36.986991" lon="-5.580105">
        <ele>242.0</ele>
        <time>2022-09-26T12:16:10.917+02:00[Europe/Madrid]</time>
      </trkpt>
      <trkpt lat="36.986878" lon="-5.580185">
        <ele>241.0</ele>
        <time>2022-09-26T12:16:11.917+02:00[Europe/Madrid]</time>
      </trkpt>
      <trkpt lat="36.986762" lon="-5.580271">
        <ele>240.0</ele>
        <time>2022-09-26T12:16:12.917+02:00[Europe/Madrid]</time>
      </trkpt>
      <trkpt lat="36.986641" lon="-5.580354">
        <ele>240.0</ele>
        <time>2022-09-26T12:16:13.917+02:00[Europe/Madrid]</time>
      </trkpt>
      <trkpt lat="36.98652" lon="-5.580443">
        <ele>239.0</ele>
        <time>2022-09-26T12:16:14.917+02:00[Europe/Madrid]</time>
      </trkpt>
      <trkpt lat="36.986393" lon="-5.580532">
        <ele>237.0</ele>
        <time>2022-09-26T12:16:15.917+02:00[Europe/Madrid]</time>
      </trkpt>
      <trkpt lat="36.986267" lon="-5.580632">
        <ele>236.0</ele>
        <time>2022-09-26T12:16:16.917+02:00[Europe/Madrid]</time>
      </trkpt>
      <trkpt lat="36.986134" lon="-5.580733">
        <ele>235.0</ele>
        <time>2022-09-26T12:16:17.917+02:00[Europe/Madrid]</time>
      </trkpt>
      <trkpt lat="36.985995" lon="-5.580842">
        <ele>235.0</ele>
        <time>2022-09-26T12:16:18.917+02:00[Europe/Madrid]</time>
      </trkpt>
      <trkpt lat="36.98586" lon="-5.580953">
        <ele>234.0</ele>
        <time>2022-09-26T12:16:19.917+02:00[Europe/Madrid]</time>
      </trkpt>
      <trkpt lat="36.985727" lon="-5.581068">
        <ele>233.0</ele>
        <time>2022-09-26T12:16:20.917+02:00[Europe/Madrid]</time>
      </trkpt>
      <trkpt lat="36.985599" lon="-5.581189">
        <ele>232.0</ele>
        <time>2022-09-26T12:16:21.917+02:00[Europe/Madrid]</time>
      </trkpt>
      <trkpt lat="36.98547" lon="-5.581323">
        <ele>231.0</ele>
        <time>2022-09-26T12:16:22.917+02:00[Europe/Madrid]</time>
      </trkpt>
      <trkpt lat="36.985344" lon="-5.581468">
        <ele>229.0</ele>
        <time>2022-09-26T12:16:23.917+02:00[Europe/Madrid]</time>
      </trkpt>
      <trkpt lat="36.985211" lon="-5.581615">
        <ele>228.0</ele>
        <time>2022-09-26T12:16:24.917+02:00[Europe/Madrid]</time>
      </trkpt>
      <trkpt lat="36.985075" lon="-5.581769">
        <ele>227.0</ele>
        <time>2022-09-26T12:16:25.917+02:00[Europe/Madrid]</time>
      </trkpt>
      <trkpt lat="36.984945" lon="-5.581921">
        <ele>226.0</ele>
        <time>2022-09-26T12:16:26.917+02:00[Europe/Madrid]</time>
      </trkpt>
      <trkpt lat="36.984817" lon="-5.582066">
        <ele>225.0</ele>
        <time>2022-09-26T12:16:27.917+02:00[Europe/Madrid]</time>
      </trkpt>
      <trkpt lat="36.98469" lon="-5.582215">
        <ele>224.0</ele>
        <time>2022-09-26T12:16:28.917+02:00[Europe/Madrid]</time>
      </trkpt>
      <trkpt lat="36.984563" lon="-5.582374">
        <ele>223.0</ele>
        <time>2022-09-26T12:16:29.917+02:00[Europe/Madrid]</time>
      </trkpt>
      <trkpt lat="36.984431" lon="-5.582534">
        <ele>222.0</ele>
        <time>2022-09-26T12:16:30.917+02:00[Europe/Madrid]</time>
      </trkpt>
      <trkpt lat="36.984295" lon="-5.582693">
        <ele>220.0</ele>
        <time>2022-09-26T12:16:31.917+02:00[Europe/Madrid]</time>
      </trkpt>
      <trkpt lat="36.984158" lon="-5.582856">
        <ele>220.0</ele>
        <time>2022-09-26T12:16:32.917+02:00[Europe/Madrid]</time>
      </trkpt>
      <trkpt lat="36.984019" lon="-5.583017">
        <ele>219.0</ele>
        <time>2022-09-26T12:16:33.917+02:00[Europe/Madrid]</time>
      </trkpt>
      <trkpt lat="36.983879" lon="-5.58318">
        <ele>218.0</ele>
        <time>2022-09-26T12:16:34.917+02:00[Europe/Madrid]</time>
      </trkpt>
      <trkpt lat="36.983741" lon="-5.583348">
        <ele>218.0</ele>
        <time>2022-09-26T12:16:35.917+02:00[Europe/Madrid]</time>
      </trkpt>
      <trkpt lat="36.983601" lon="-5.583511">
        <ele>218.0</ele>
        <time>2022-09-26T12:16:36.917+02:00[Europe/Madrid]</time>
      </trkpt>
      <trkpt lat="36.98346" lon="-5.583671">
        <ele>217.0</ele>
        <time>2022-09-26T12:16:37.917+02:00[Europe/Madrid]</time>
      </trkpt>
      <trkpt lat="36.983328" lon="-5.583822">
        <ele>216.0</ele>
        <time>2022-09-26T12:16:38.917+02:00[Europe/Madrid]</time>
      </trkpt>
      <trkpt lat="36.983205" lon="-5.583968">
        <ele>216.0</ele>
        <time>2022-09-26T12:16:39.917+02:00[Europe/Madrid]</time>
      </trkpt>
      <trkpt lat="36.983087" lon="-5.584109">
        <ele>216.0</ele>
        <time>2022-09-26T12:16:40.917+02:00[Europe/Madrid]</time>
      </trkpt>
      <trkpt lat="36.982976" lon="-5.58424">
        <ele>216.0</ele>
        <time>2022-09-26T12:16:41.917+02:00[Europe/Madrid]</time>
      </trkpt>
      <trkpt lat="36.982863" lon="-5.584365">
        <ele>216.0</ele>
        <time>2022-09-26T12:16:42.917+02:00[Europe/Madrid]</time>
      </trkpt>
      <trkpt lat="36.982758" lon="-5.584492">
        <ele>215.0</ele>
        <time>2022-09-26T12:16:43.917+02:00[Europe/Madrid]</time>
      </trkpt>
      <trkpt lat="36.982649" lon="-5.584623">
        <ele>215.0</ele>
        <time>2022-09-26T12:16:44.917+02:00[Europe/Madrid]</time>
      </trkpt>
      <trkpt lat="36.982538" lon="-5.584758">
        <ele>214.0</ele>
        <time>2022-09-26T12:16:45.917+02:00[Europe/Madrid]</time>
      </trkpt>
      <trkpt lat="36.982422" lon="-5.584901">
        <ele>214.0</ele>
        <time>2022-09-26T12:16:46.917+02:00[Europe/Madrid]</time>
      </trkpt>
      <trkpt lat="36.982303" lon="-5.585041">
        <ele>214.0</ele>
        <time>2022-09-26T12:16:47.917+02:00[Europe/Madrid]</time>
      </trkpt>
      <trkpt lat="36.982184" lon="-5.585173">
        <ele>213.0</ele>
        <time>2022-09-26T12:16:48.917+02:00[Europe/Madrid]</time>
      </trkpt>
      <trkpt lat="36.982058" lon="-5.585298">
        <ele>213.0</ele>
        <time>2022-09-26T12:16:49.917+02:00[Europe/Madrid]</time>
      </trkpt>
      <trkpt lat="36.981931" lon="-5.585416">
        <ele>213.0</ele>
        <time>2022-09-26T12:16:50.917+02:00[Europe/Madrid]</time>
      </trkpt>
      <trkpt lat="36.981801" lon="-5.585533">
        <ele>212.0</ele>
        <time>2022-09-26T12:16:51.917+02:00[Europe/Madrid]</time>
      </trkpt>
      <trkpt lat="36.981677" lon="-5.585646">
        <ele>212.0</ele>
        <time>2022-09-26T12:16:52.917+02:00[Europe/Madrid]</time>
      </trkpt>
      <trkpt lat="36.98155" lon="-5.585757">
        <ele>211.0</ele>
        <time>2022-09-26T12:16:53.917+02:00[Europe/Madrid]</time>
      </trkpt>
      <trkpt lat="36.981425" lon="-5.585867">
        <ele>210.0</ele>
        <time>2022-09-26T12:16:54.917+02:00[Europe/Madrid]</time>
      </trkpt>
      <trkpt lat="36.981299" lon="-5.585975">
        <ele>209.0</ele>
        <time>2022-09-26T12:16:55.917+02:00[Europe/Madrid]</time>
      </trkpt>
      <trkpt lat="36.98118" lon="-5.586078">
        <ele>209.0</ele>
        <time>2022-09-26T12:16:56.917+02:00[Europe/Madrid]</time>
      </trkpt>
      <trkpt lat="36.981065" lon="-5.586175">
        <ele>208.0</ele>
        <time>2022-09-26T12:16:57.917+02:00[Europe/Madrid]</time>
      </trkpt>
      <trkpt lat="36.980955" lon="-5.586268">
        <ele>208.0</ele>
        <time>2022-09-26T12:16:58.917+02:00[Europe/Madrid]</time>
      </trkpt>
      <trkpt lat="36.980861" lon="-5.586352">
        <ele>207.0</ele>
        <time>2022-09-26T12:16:59.917+02:00[Europe/Madrid]</time>
      </trkpt>
      <trkpt lat="36.980778" lon="-5.586434">
        <ele>207.0</ele>
        <time>2022-09-26T12:17:00.917+02:00[Europe/Madrid]</time>
      </trkpt>
      <trkpt lat="36.980704" lon="-5.586517">
        <ele>206.0</ele>
        <time>2022-09-26T12:17:01.917+02:00[Europe/Madrid]</time>
      </trkpt>
      <trkpt lat="36.980592" lon="-5.586667">
        <ele>206.0</ele>
        <time>2022-09-26T12:17:03.912+02:00[Europe/Madrid]</time>
      </trkpt>
      <trkpt lat="36.980529" lon="-5.586762">
        <ele>206.0</ele>
        <time>2022-09-26T12:17:05.904+02:00[Europe/Madrid]</time>
      </trkpt>
      <trkpt lat="36.980437" lon="-5.586847">
        <ele>206.0</ele>
        <time>2022-09-26T12:17:18.915+02:00[Europe/Madrid]</time>
      </trkpt>
      <trkpt lat="36.980245" lon="-5.586874">
        <ele>205.0</ele>
        <time>2022-09-26T12:17:20.968+02:00[Europe/Madrid]</time>
      </trkpt>
      <trkpt lat="36.980114" lon="-5.586885">
        <ele>205.0</ele>
        <time>2022-09-26T12:17:21.968+02:00[Europe/Madrid]</time>
      </trkpt>
      <trkpt lat="36.979967" lon="-5.586896">
        <ele>204.0</ele>
        <time>2022-09-26T12:17:22.968+02:00[Europe/Madrid]</time>
      </trkpt>
      <trkpt lat="36.979798" lon="-5.586907">
        <ele>204.0</ele>
        <time>2022-09-26T12:17:23.968+02:00[Europe/Madrid]</time>
      </trkpt>
      <trkpt lat="36.979615" lon="-5.58692">
        <ele>203.0</ele>
        <time>2022-09-26T12:17:24.968+02:00[Europe/Madrid]</time>
      </trkpt>
      <trkpt lat="36.979418" lon="-5.586931">
        <ele>203.0</ele>
        <time>2022-09-26T12:17:25.968+02:00[Europe/Madrid]</time>
      </trkpt>
      <trkpt lat="36.97921" lon="-5.586942">
        <ele>202.0</ele>
        <time>2022-09-26T12:17:26.968+02:00[Europe/Madrid]</time>
      </trkpt>
      <trkpt lat="36.978994" lon="-5.586957">
        <ele>202.0</ele>
        <time>2022-09-26T12:17:27.968+02:00[Europe/Madrid]</time>
      </trkpt>
      <trkpt lat="36.978763" lon="-5.586978">
        <ele>201.0</ele>
        <time>2022-09-26T12:17:28.968+02:00[Europe/Madrid]</time>
      </trkpt>
      <trkpt lat="36.978532" lon="-5.587004">
        <ele>202.0</ele>
        <time>2022-09-26T12:17:29.968+02:00[Europe/Madrid]</time>
      </trkpt>
      <trkpt lat="36.978299" lon="-5.587023">
        <ele>202.0</ele>
        <time>2022-09-26T12:17:30.968+02:00[Europe/Madrid]</time>
      </trkpt>
      <trkpt lat="36.978078" lon="-5.587048">
        <ele>202.0</ele>
        <time>2022-09-26T12:17:31.968+02:00[Europe/Madrid]</time>
      </trkpt>
      <trkpt lat="36.977874" lon="-5.587072">
        <ele>203.0</ele>
        <time>2022-09-26T12:17:32.968+02:00[Europe/Madrid]</time>
      </trkpt>
      <trkpt lat="36.977675" lon="-5.587095">
        <ele>204.0</ele>
        <time>2022-09-26T12:17:33.968+02:00[Europe/Madrid]</time>
      </trkpt>
      <trkpt lat="36.977477" lon="-5.587116">
        <ele>205.0</ele>
        <time>2022-09-26T12:17:34.968+02:00[Europe/Madrid]</time>
      </trkpt>
      <trkpt lat="36.977285" lon="-5.587137">
        <ele>206.0</ele>
        <time>2022-09-26T12:17:35.968+02:00[Europe/Madrid]</time>
      </trkpt>
      <trkpt lat="36.977096" lon="-5.587157">
        <ele>207.0</ele>
        <time>2022-09-26T12:17:36.968+02:00[Europe/Madrid]</time>
      </trkpt>
      <trkpt lat="36.976908" lon="-5.587181">
        <ele>207.0</ele>
        <time>2022-09-26T12:17:37.968+02:00[Europe/Madrid]</time>
      </trkpt>
      <trkpt lat="36.97672" lon="-5.5872">
        <ele>208.0</ele>
        <time>2022-09-26T12:17:38.968+02:00[Europe/Madrid]</time>
      </trkpt>
      <trkpt lat="36.976528" lon="-5.58722">
        <ele>208.0</ele>
        <time>2022-09-26T12:17:39.968+02:00[Europe/Madrid]</time>
      </trkpt>
      <trkpt lat="36.976338" lon="-5.587236">
        <ele>208.0</ele>
        <time>2022-09-26T12:17:40.968+02:00[Europe/Madrid]</time>
      </trkpt>
      <trkpt lat="36.976152" lon="-5.587258">
        <ele>208.0</ele>
        <time>2022-09-26T12:17:41.968+02:00[Europe/Madrid]</time>
      </trkpt>
      <trkpt lat="36.975966" lon="-5.587277">
        <ele>208.0</ele>
        <time>2022-09-26T12:17:42.968+02:00[Europe/Madrid]</time>
      </trkpt>
      <trkpt lat="36.975777" lon="-5.587293">
        <ele>209.0</ele>
        <time>2022-09-26T12:17:43.968+02:00[Europe/Madrid]</time>
      </trkpt>
      <trkpt lat="36.975585" lon="-5.58731">
        <ele>209.0</ele>
        <time>2022-09-26T12:17:44.968+02:00[Europe/Madrid]</time>
      </trkpt>
      <trkpt lat="36.975394" lon="-5.587332">
        <ele>208.0</ele>
        <time>2022-09-26T12:17:45.968+02:00[Europe/Madrid]</time>
      </trkpt>
      <trkpt lat="36.975201" lon="-5.587354">
        <ele>209.0</ele>
        <time>2022-09-26T12:17:46.968+02:00[Europe/Madrid]</time>
      </trkpt>
      <trkpt lat="36.975008" lon="-5.587375">
        <ele>208.0</ele>
        <time>2022-09-26T12:17:47.968+02:00[Europe/Madrid]</time>
      </trkpt>
      <trkpt lat="36.974823" lon="-5.587393">
        <ele>208.0</ele>
        <time>2022-09-26T12:17:48.968+02:00[Europe/Madrid]</time>
      </trkpt>
      <trkpt lat="36.974634" lon="-5.587407">
        <ele>208.0</ele>
        <time>2022-09-26T12:17:49.968+02:00[Europe/Madrid]</time>
      </trkpt>
      <trkpt lat="36.974445" lon="-5.587406">
        <ele>209.0</ele>
        <time>2022-09-26T12:17:50.968+02:00[Europe/Madrid]</time>
      </trkpt>
      <trkpt lat="36.974259" lon="-5.587395">
        <ele>209.0</ele>
        <time>2022-09-26T12:17:51.968+02:00[Europe/Madrid]</time>
      </trkpt>
      <trkpt lat="36.974075" lon="-5.587377">
        <ele>209.0</ele>
        <time>2022-09-26T12:17:52.968+02:00[Europe/Madrid]</time>
      </trkpt>
      <trkpt lat="36.973899" lon="-5.587347">
        <ele>208.0</ele>
        <time>2022-09-26T12:17:53.968+02:00[Europe/Madrid]</time>
      </trkpt>
      <trkpt lat="36.973722" lon="-5.587301">
        <ele>208.0</ele>
        <time>2022-09-26T12:17:54.968+02:00[Europe/Madrid]</time>
      </trkpt>
      <trkpt lat="36.973549" lon="-5.587244">
        <ele>207.0</ele>
        <time>2022-09-26T12:17:55.968+02:00[Europe/Madrid]</time>
      </trkpt>
      <trkpt lat="36.973375" lon="-5.58717">
        <ele>207.0</ele>
        <time>2022-09-26T12:17:56.968+02:00[Europe/Madrid]</time>
      </trkpt>
      <trkpt lat="36.973203" lon="-5.587082">
        <ele>207.0</ele>
        <time>2022-09-26T12:17:57.968+02:00[Europe/Madrid]</time>
      </trkpt>
      <trkpt lat="36.973029" lon="-5.586987">
        <ele>206.0</ele>
        <time>2022-09-26T12:17:58.968+02:00[Europe/Madrid]</time>
      </trkpt>
      <trkpt lat="36.972853" lon="-5.586883">
        <ele>206.0</ele>
        <time>2022-09-26T12:17:59.968+02:00[Europe/Madrid]</time>
      </trkpt>
      <trkpt lat="36.97267" lon="-5.586772">
        <ele>205.0</ele>
        <time>2022-09-26T12:18:00.968+02:00[Europe/Madrid]</time>
      </trkpt>
      <trkpt lat="36.972483" lon="-5.586649">
        <ele>204.0</ele>
        <time>2022-09-26T12:18:01.968+02:00[Europe/Madrid]</time>
      </trkpt>
      <trkpt lat="36.972288" lon="-5.586525">
        <ele>203.0</ele>
        <time>2022-09-26T12:18:02.968+02:00[Europe/Madrid]</time>
      </trkpt>
      <trkpt lat="36.972084" lon="-5.586397">
        <ele>203.0</ele>
        <time>2022-09-26T12:18:03.968+02:00[Europe/Madrid]</time>
      </trkpt>
      <trkpt lat="36.971877" lon="-5.586262">
        <ele>202.0</ele>
        <time>2022-09-26T12:18:04.968+02:00[Europe/Madrid]</time>
      </trkpt>
      <trkpt lat="36.971661" lon="-5.586126">
        <ele>202.0</ele>
        <time>2022-09-26T12:18:05.968+02:00[Europe/Madrid]</time>
      </trkpt>
      <trkpt lat="36.971437" lon="-5.585983">
        <ele>201.0</ele>
        <time>2022-09-26T12:18:06.968+02:00[Europe/Madrid]</time>
      </trkpt>
      <trkpt lat="36.971207" lon="-5.58583">
        <ele>201.0</ele>
        <time>2022-09-26T12:18:07.968+02:00[Europe/Madrid]</time>
      </trkpt>
      <trkpt lat="36.970966" lon="-5.585676">
        <ele>201.0</ele>
        <time>2022-09-26T12:18:08.968+02:00[Europe/Madrid]</time>
      </trkpt>
      <trkpt lat="36.970731" lon="-5.585521">
        <ele>202.0</ele>
        <time>2022-09-26T12:18:09.968+02:00[Europe/Madrid]</time>
      </trkpt>
      <trkpt lat="36.970508" lon="-5.585381">
        <ele>202.0</ele>
        <time>2022-09-26T12:18:10.968+02:00[Europe/Madrid]</time>
      </trkpt>
      <trkpt lat="36.970296" lon="-5.585245">
        <ele>203.0</ele>
        <time>2022-09-26T12:18:11.968+02:00[Europe/Madrid]</time>
      </trkpt>
      <trkpt lat="36.97008" lon="-5.585106">
        <ele>204.0</ele>
        <time>2022-09-26T12:18:12.968+02:00[Europe/Madrid]</time>
      </trkpt>
      <trkpt lat="36.969866" lon="-5.584964">
        <ele>205.0</ele>
        <time>2022-09-26T12:18:13.968+02:00[Europe/Madrid]</time>
      </trkpt>
      <trkpt lat="36.969657" lon="-5.58483">
        <ele>206.0</ele>
        <time>2022-09-26T12:18:14.968+02:00[Europe/Madrid]</time>
      </trkpt>
      <trkpt lat="36.969448" lon="-5.584695">
        <ele>207.0</ele>
        <time>2022-09-26T12:18:15.968+02:00[Europe/Madrid]</time>
      </trkpt>
      <trkpt lat="36.969237" lon="-5.584555">
        <ele>208.0</ele>
        <time>2022-09-26T12:18:16.968+02:00[Europe/Madrid]</time>
      </trkpt>
      <trkpt lat="36.96902" lon="-5.584416">
        <ele>209.0</ele>
        <time>2022-09-26T12:18:17.968+02:00[Europe/Madrid]</time>
      </trkpt>
      <trkpt lat="36.968817" lon="-5.584287">
        <ele>210.0</ele>
        <time>2022-09-26T12:18:18.968+02:00[Europe/Madrid]</time>
      </trkpt>
      <trkpt lat="36.968618" lon="-5.584161">
        <ele>211.0</ele>
        <time>2022-09-26T12:18:19.968+02:00[Europe/Madrid]</time>
      </trkpt>
      <trkpt lat="36.968422" lon="-5.584039">
        <ele>212.0</ele>
        <time>2022-09-26T12:18:20.968+02:00[Europe/Madrid]</time>
      </trkpt>
      <trkpt lat="36.968231" lon="-5.583918">
        <ele>213.0</ele>
        <time>2022-09-26T12:18:21.968+02:00[Europe/Madrid]</time>
      </trkpt>
      <trkpt lat="36.968042" lon="-5.583796">
        <ele>214.0</ele>
        <time>2022-09-26T12:18:22.968+02:00[Europe/Madrid]</time>
      </trkpt>
      <trkpt lat="36.967859" lon="-5.583675">
        <ele>215.0</ele>
        <time>2022-09-26T12:18:23.968+02:00[Europe/Madrid]</time>
      </trkpt>
      <trkpt lat="36.967674" lon="-5.583555">
        <ele>216.0</ele>
        <time>2022-09-26T12:18:24.968+02:00[Europe/Madrid]</time>
      </trkpt>
      <trkpt lat="36.967494" lon="-5.583438">
        <ele>216.0</ele>
        <time>2022-09-26T12:18:25.968+02:00[Europe/Madrid]</time>
      </trkpt>
      <trkpt lat="36.967318" lon="-5.583325">
        <ele>217.0</ele>
        <time>2022-09-26T12:18:26.968+02:00[Europe/Madrid]</time>
      </trkpt>
      <trkpt lat="36.967139" lon="-5.583213">
        <ele>218.0</ele>
        <time>2022-09-26T12:18:27.968+02:00[Europe/Madrid]</time>
      </trkpt>
      <trkpt lat="36.966962" lon="-5.583104">
        <ele>219.0</ele>
        <time>2022-09-26T12:18:28.968+02:00[Europe/Madrid]</time>
      </trkpt>
      <trkpt lat="36.966785" lon="-5.583003">
        <ele>220.0</ele>
        <time>2022-09-26T12:18:29.968+02:00[Europe/Madrid]</time>
      </trkpt>
      <trkpt lat="36.966602" lon="-5.582913">
        <ele>221.0</ele>
        <time>2022-09-26T12:18:30.968+02:00[Europe/Madrid]</time>
      </trkpt>
      <trkpt lat="36.966421" lon="-5.582835">
        <ele>221.0</ele>
        <time>2022-09-26T12:18:31.968+02:00[Europe/Madrid]</time>
      </trkpt>
      <trkpt lat="36.96624" lon="-5.582768">
        <ele>222.0</ele>
        <time>2022-09-26T12:18:32.968+02:00[Europe/Madrid]</time>
      </trkpt>
      <trkpt lat="36.966055" lon="-5.582715">
        <ele>222.0</ele>
        <time>2022-09-26T12:18:33.968+02:00[Europe/Madrid]</time>
      </trkpt>
      <trkpt lat="36.965873" lon="-5.582681">
        <ele>223.0</ele>
        <time>2022-09-26T12:18:34.968+02:00[Europe/Madrid]</time>
      </trkpt>
      <trkpt lat="36.965691" lon="-5.582656">
        <ele>223.0</ele>
        <time>2022-09-26T12:18:35.968+02:00[Europe/Madrid]</time>
      </trkpt>
      <trkpt lat="36.965512" lon="-5.582649">
        <ele>224.0</ele>
        <time>2022-09-26T12:18:36.968+02:00[Europe/Madrid]</time>
      </trkpt>
      <trkpt lat="36.965339" lon="-5.582652">
        <ele>224.0</ele>
        <time>2022-09-26T12:18:37.968+02:00[Europe/Madrid]</time>
      </trkpt>
      <trkpt lat="36.965165" lon="-5.582667">
        <ele>225.0</ele>
        <time>2022-09-26T12:18:38.968+02:00[Europe/Madrid]</time>
      </trkpt>
      <trkpt lat="36.964993" lon="-5.582692">
        <ele>226.0</ele>
        <time>2022-09-26T12:18:39.968+02:00[Europe/Madrid]</time>
      </trkpt>
      <trkpt lat="36.964827" lon="-5.582724">
        <ele>227.0</ele>
        <time>2022-09-26T12:18:40.968+02:00[Europe/Madrid]</time>
      </trkpt>
      <trkpt lat="36.96466" lon="-5.582768">
        <ele>227.0</ele>
        <time>2022-09-26T12:18:41.968+02:00[Europe/Madrid]</time>
      </trkpt>
      <trkpt lat="36.964499" lon="-5.582825">
        <ele>228.0</ele>
        <time>2022-09-26T12:18:42.968+02:00[Europe/Madrid]</time>
      </trkpt>
      <trkpt lat="36.964338" lon="-5.582897">
        <ele>228.0</ele>
        <time>2022-09-26T12:18:43.968+02:00[Europe/Madrid]</time>
      </trkpt>
      <trkpt lat="36.964176" lon="-5.582982">
        <ele>229.0</ele>
        <time>2022-09-26T12:18:44.968+02:00[Europe/Madrid]</time>
      </trkpt>
      <trkpt lat="36.964011" lon="-5.583085">
        <ele>230.0</ele>
        <time>2022-09-26T12:18:45.968+02:00[Europe/Madrid]</time>
      </trkpt>
      <trkpt lat="36.963846" lon="-5.583201">
        <ele>231.0</ele>
        <time>2022-09-26T12:18:46.968+02:00[Europe/Madrid]</time>
      </trkpt>
      <trkpt lat="36.963681" lon="-5.583337">
        <ele>231.0</ele>
        <time>2022-09-26T12:18:47.968+02:00[Europe/Madrid]</time>
      </trkpt>
      <trkpt lat="36.963522" lon="-5.583479">
        <ele>232.0</ele>
        <time>2022-09-26T12:18:48.968+02:00[Europe/Madrid]</time>
      </trkpt>
      <trkpt lat="36.963369" lon="-5.583636">
        <ele>233.0</ele>
        <time>2022-09-26T12:18:49.968+02:00[Europe/Madrid]</time>
      </trkpt>
      <trkpt lat="36.963226" lon="-5.583811">
        <ele>234.0</ele>
        <time>2022-09-26T12:18:50.968+02:00[Europe/Madrid]</time>
      </trkpt>
      <trkpt lat="36.963089" lon="-5.58399">
        <ele>234.0</ele>
        <time>2022-09-26T12:18:51.968+02:00[Europe/Madrid]</time>
      </trkpt>
      <trkpt lat="36.962959" lon="-5.58417">
        <ele>235.0</ele>
        <time>2022-09-26T12:18:52.968+02:00[Europe/Madrid]</time>
      </trkpt>
      <trkpt lat="36.96283" lon="-5.584345">
        <ele>235.0</ele>
        <time>2022-09-26T12:18:53.968+02:00[Europe/Madrid]</time>
      </trkpt>
      <trkpt lat="36.962706" lon="-5.584522">
        <ele>236.0</ele>
        <time>2022-09-26T12:18:54.968+02:00[Europe/Madrid]</time>
      </trkpt>
      <trkpt lat="36.962583" lon="-5.584699">
        <ele>236.0</ele>
        <time>2022-09-26T12:18:55.968+02:00[Europe/Madrid]</time>
      </trkpt>
      <trkpt lat="36.96246" lon="-5.584876">
        <ele>236.0</ele>
        <time>2022-09-26T12:18:57.016+02:00[Europe/Madrid]</time>
      </trkpt>
      <trkpt lat="36.962337" lon="-5.585055">
        <ele>236.0</ele>
        <time>2022-09-26T12:18:58.016+02:00[Europe/Madrid]</time>
      </trkpt>
      <trkpt lat="36.962213" lon="-5.585233">
        <ele>235.0</ele>
        <time>2022-09-26T12:18:59.016+02:00[Europe/Madrid]</time>
      </trkpt>
      <trkpt lat="36.96209" lon="-5.585408">
        <ele>235.0</ele>
        <time>2022-09-26T12:19:00.016+02:00[Europe/Madrid]</time>
      </trkpt>
      <trkpt lat="36.961962" lon="-5.585585">
        <ele>235.0</ele>
        <time>2022-09-26T12:19:01.016+02:00[Europe/Madrid]</time>
      </trkpt>
      <trkpt lat="36.961837" lon="-5.585759">
        <ele>234.0</ele>
        <time>2022-09-26T12:19:02.016+02:00[Europe/Madrid]</time>
      </trkpt>
      <trkpt lat="36.961712" lon="-5.585929">
        <ele>234.0</ele>
        <time>2022-09-26T12:19:03.016+02:00[Europe/Madrid]</time>
      </trkpt>
      <trkpt lat="36.961585" lon="-5.586098">
        <ele>233.0</ele>
        <time>2022-09-26T12:19:04.016+02:00[Europe/Madrid]</time>
      </trkpt>
      <trkpt lat="36.961452" lon="-5.58626">
        <ele>232.0</ele>
        <time>2022-09-26T12:19:05.016+02:00[Europe/Madrid]</time>
      </trkpt>
      <trkpt lat="36.961308" lon="-5.586413">
        <ele>231.0</ele>
        <time>2022-09-26T12:19:06.016+02:00[Europe/Madrid]</time>
      </trkpt>
      <trkpt lat="36.961151" lon="-5.586555">
        <ele>230.0</ele>
        <time>2022-09-26T12:19:07.016+02:00[Europe/Madrid]</time>
      </trkpt>
      <trkpt lat="36.96099" lon="-5.58669">
        <ele>229.0</ele>
        <time>2022-09-26T12:19:08.016+02:00[Europe/Madrid]</time>
      </trkpt>
      <trkpt lat="36.960819" lon="-5.586815">
        <ele>228.0</ele>
        <time>2022-09-26T12:19:09.016+02:00[Europe/Madrid]</time>
      </trkpt>
      <trkpt lat="36.960643" lon="-5.586926">
        <ele>227.0</ele>
        <time>2022-09-26T12:19:10.016+02:00[Europe/Madrid]</time>
      </trkpt>
      <trkpt lat="36.960469" lon="-5.587018">
        <ele>226.0</ele>
        <time>2022-09-26T12:19:11.016+02:00[Europe/Madrid]</time>
      </trkpt>
      <trkpt lat="36.960285" lon="-5.587099">
        <ele>225.0</ele>
        <time>2022-09-26T12:19:12.016+02:00[Europe/Madrid]</time>
      </trkpt>
      <trkpt lat="36.9601" lon="-5.587166">
        <ele>225.0</ele>
        <time>2022-09-26T12:19:13.016+02:00[Europe/Madrid]</time>
      </trkpt>
      <trkpt lat="36.959912" lon="-5.58722">
        <ele>224.0</ele>
        <time>2022-09-26T12:19:14.016+02:00[Europe/Madrid]</time>
      </trkpt>
      <trkpt lat="36.959722" lon="-5.587263">
        <ele>223.0</ele>
        <time>2022-09-26T12:19:15.016+02:00[Europe/Madrid]</time>
      </trkpt>
      <trkpt lat="36.959531" lon="-5.58729">
        <ele>222.0</ele>
        <time>2022-09-26T12:19:16.016+02:00[Europe/Madrid]</time>
      </trkpt>
      <trkpt lat="36.959333" lon="-5.587298">
        <ele>221.0</ele>
        <time>2022-09-26T12:19:17.016+02:00[Europe/Madrid]</time>
      </trkpt>
      <trkpt lat="36.959136" lon="-5.587291">
        <ele>220.0</ele>
        <time>2022-09-26T12:19:18.016+02:00[Europe/Madrid]</time>
      </trkpt>
      <trkpt lat="36.958935" lon="-5.587269">
        <ele>219.0</ele>
        <time>2022-09-26T12:19:19.016+02:00[Europe/Madrid]</time>
      </trkpt>
      <trkpt lat="36.958733" lon="-5.587233">
        <ele>218.0</ele>
        <time>2022-09-26T12:19:20.016+02:00[Europe/Madrid]</time>
      </trkpt>
      <trkpt lat="36.958529" lon="-5.587177">
        <ele>217.0</ele>
        <time>2022-09-26T12:19:21.016+02:00[Europe/Madrid]</time>
      </trkpt>
      <trkpt lat="36.958326" lon="-5.587102">
        <ele>217.0</ele>
        <time>2022-09-26T12:19:22.016+02:00[Europe/Madrid]</time>
      </trkpt>
      <trkpt lat="36.958131" lon="-5.587016">
        <ele>216.0</ele>
        <time>2022-09-26T12:19:23.016+02:00[Europe/Madrid]</time>
      </trkpt>
      <trkpt lat="36.95794" lon="-5.58692">
        <ele>215.0</ele>
        <time>2022-09-26T12:19:24.016+02:00[Europe/Madrid]</time>
      </trkpt>
      <trkpt lat="36.957751" lon="-5.586809">
        <ele>215.0</ele>
        <time>2022-09-26T12:19:25.016+02:00[Europe/Madrid]</time>
      </trkpt>
      <trkpt lat="36.957566" lon="-5.586697">
        <ele>215.0</ele>
        <time>2022-09-26T12:19:26.016+02:00[Europe/Madrid]</time>
      </trkpt>
      <trkpt lat="36.957366" lon="-5.586576">
        <ele>214.0</ele>
        <time>2022-09-26T12:19:27.016+02:00[Europe/Madrid]</time>
      </trkpt>
      <trkpt lat="36.957155" lon="-5.586451">
        <ele>214.0</ele>
        <time>2022-09-26T12:19:28.016+02:00[Europe/Madrid]</time>
      </trkpt>
      <trkpt lat="36.956937" lon="-5.586323">
        <ele>214.0</ele>
        <time>2022-09-26T12:19:29.016+02:00[Europe/Madrid]</time>
      </trkpt>
      <trkpt lat="36.956722" lon="-5.586192">
        <ele>214.0</ele>
        <time>2022-09-26T12:19:30.016+02:00[Europe/Madrid]</time>
      </trkpt>
      <trkpt lat="36.956515" lon="-5.586066">
        <ele>214.0</ele>
        <time>2022-09-26T12:19:31.016+02:00[Europe/Madrid]</time>
      </trkpt>
      <trkpt lat="36.956317" lon="-5.585946">
        <ele>214.0</ele>
        <time>2022-09-26T12:19:32.016+02:00[Europe/Madrid]</time>
      </trkpt>
      <trkpt lat="36.956124" lon="-5.585829">
        <ele>215.0</ele>
        <time>2022-09-26T12:19:33.016+02:00[Europe/Madrid]</time>
      </trkpt>
      <trkpt lat="36.955943" lon="-5.585715">
        <ele>216.0</ele>
        <time>2022-09-26T12:19:34.016+02:00[Europe/Madrid]</time>
      </trkpt>
      <trkpt lat="36.955767" lon="-5.585606">
        <ele>216.0</ele>
        <time>2022-09-26T12:19:35.016+02:00[Europe/Madrid]</time>
      </trkpt>
      <trkpt lat="36.955586" lon="-5.585498">
        <ele>217.0</ele>
        <time>2022-09-26T12:19:36.016+02:00[Europe/Madrid]</time>
      </trkpt>
      <trkpt lat="36.955406" lon="-5.585393">
        <ele>218.0</ele>
        <time>2022-09-26T12:19:37.016+02:00[Europe/Madrid]</time>
      </trkpt>
      <trkpt lat="36.955224" lon="-5.585281">
        <ele>218.0</ele>
        <time>2022-09-26T12:19:38.016+02:00[Europe/Madrid]</time>
      </trkpt>
      <trkpt lat="36.955031" lon="-5.585166">
        <ele>219.0</ele>
        <time>2022-09-26T12:19:39.016+02:00[Europe/Madrid]</time>
      </trkpt>
      <trkpt lat="36.954841" lon="-5.585057">
        <ele>219.0</ele>
        <time>2022-09-26T12:19:40.016+02:00[Europe/Madrid]</time>
      </trkpt>
      <trkpt lat="36.954654" lon="-5.584956">
        <ele>219.0</ele>
        <time>2022-09-26T12:19:41.016+02:00[Europe/Madrid]</time>
      </trkpt>
      <trkpt lat="36.954457" lon="-5.584872">
        <ele>220.0</ele>
        <time>2022-09-26T12:19:42.016+02:00[Europe/Madrid]</time>
      </trkpt>
      <trkpt lat="36.954256" lon="-5.5848">
        <ele>220.0</ele>
        <time>2022-09-26T12:19:43.016+02:00[Europe/Madrid]</time>
      </trkpt>
      <trkpt lat="36.954053" lon="-5.584743">
        <ele>219.0</ele>
        <time>2022-09-26T12:19:44.016+02:00[Europe/Madrid]</time>
      </trkpt>
      <trkpt lat="36.953846" lon="-5.584703">
        <ele>219.0</ele>
        <time>2022-09-26T12:19:45.016+02:00[Europe/Madrid]</time>
      </trkpt>
      <trkpt lat="36.95364" lon="-5.584679">
        <ele>219.0</ele>
        <time>2022-09-26T12:19:46.016+02:00[Europe/Madrid]</time>
      </trkpt>
      <trkpt lat="36.953436" lon="-5.584672">
        <ele>219.0</ele>
        <time>2022-09-26T12:19:47.016+02:00[Europe/Madrid]</time>
      </trkpt>
      <trkpt lat="36.953235" lon="-5.584682">
        <ele>218.0</ele>
        <time>2022-09-26T12:19:48.016+02:00[Europe/Madrid]</time>
      </trkpt>
      <trkpt lat="36.953035" lon="-5.584697">
        <ele>218.0</ele>
        <time>2022-09-26T12:19:49.016+02:00[Europe/Madrid]</time>
      </trkpt>
      <trkpt lat="36.952833" lon="-5.584715">
        <ele>217.0</ele>
        <time>2022-09-26T12:19:50.016+02:00[Europe/Madrid]</time>
      </trkpt>
      <trkpt lat="36.952628" lon="-5.584735">
        <ele>216.0</ele>
        <time>2022-09-26T12:19:51.016+02:00[Europe/Madrid]</time>
      </trkpt>
      <trkpt lat="36.952423" lon="-5.584758">
        <ele>215.0</ele>
        <time>2022-09-26T12:19:52.016+02:00[Europe/Madrid]</time>
      </trkpt>
      <trkpt lat="36.952215" lon="-5.584778">
        <ele>215.0</ele>
        <time>2022-09-26T12:19:53.016+02:00[Europe/Madrid]</time>
      </trkpt>
      <trkpt lat="36.952014" lon="-5.584799">
        <ele>214.0</ele>
        <time>2022-09-26T12:19:54.016+02:00[Europe/Madrid]</time>
      </trkpt>
      <trkpt lat="36.951818" lon="-5.584818">
        <ele>213.0</ele>
        <time>2022-09-26T12:19:55.016+02:00[Europe/Madrid]</time>
      </trkpt>
      <trkpt lat="36.951629" lon="-5.584833">
        <ele>212.0</ele>
        <time>2022-09-26T12:19:56.016+02:00[Europe/Madrid]</time>
      </trkpt>
      <trkpt lat="36.951441" lon="-5.584837">
        <ele>211.0</ele>
        <time>2022-09-26T12:19:57.016+02:00[Europe/Madrid]</time>
      </trkpt>
      <trkpt lat="36.951253" lon="-5.584829">
        <ele>210.0</ele>
        <time>2022-09-26T12:19:58.016+02:00[Europe/Madrid]</time>
      </trkpt>
      <trkpt lat="36.951061" lon="-5.58481">
        <ele>210.0</ele>
        <time>2022-09-26T12:19:59.016+02:00[Europe/Madrid]</time>
      </trkpt>
      <trkpt lat="36.950873" lon="-5.584776">
        <ele>209.0</ele>
        <time>2022-09-26T12:20:00.016+02:00[Europe/Madrid]</time>
      </trkpt>
      <trkpt lat="36.950682" lon="-5.584733">
        <ele>209.0</ele>
        <time>2022-09-26T12:20:01.016+02:00[Europe/Madrid]</time>
      </trkpt>
      <trkpt lat="36.950494" lon="-5.584678">
        <ele>208.0</ele>
        <time>2022-09-26T12:20:02.016+02:00[Europe/Madrid]</time>
      </trkpt>
      <trkpt lat="36.950308" lon="-5.584603">
        <ele>208.0</ele>
        <time>2022-09-26T12:20:03.016+02:00[Europe/Madrid]</time>
      </trkpt>
      <trkpt lat="36.950124" lon="-5.584507">
        <ele>207.0</ele>
        <time>2022-09-26T12:20:04.016+02:00[Europe/Madrid]</time>
      </trkpt>
      <trkpt lat="36.949942" lon="-5.584399">
        <ele>207.0</ele>
        <time>2022-09-26T12:20:05.016+02:00[Europe/Madrid]</time>
      </trkpt>
      <trkpt lat="36.949762" lon="-5.584275">
        <ele>206.0</ele>
        <time>2022-09-26T12:20:06.016+02:00[Europe/Madrid]</time>
      </trkpt>
      <trkpt lat="36.949588" lon="-5.584131">
        <ele>206.0</ele>
        <time>2022-09-26T12:20:07.016+02:00[Europe/Madrid]</time>
      </trkpt>
      <trkpt lat="36.949415" lon="-5.583974">
        <ele>206.0</ele>
        <time>2022-09-26T12:20:08.016+02:00[Europe/Madrid]</time>
      </trkpt>
      <trkpt lat="36.949242" lon="-5.5838">
        <ele>206.0</ele>
        <time>2022-09-26T12:20:09.016+02:00[Europe/Madrid]</time>
      </trkpt>
      <trkpt lat="36.949072" lon="-5.583615">
        <ele>206.0</ele>
        <time>2022-09-26T12:20:10.016+02:00[Europe/Madrid]</time>
      </trkpt>
      <trkpt lat="36.948899" lon="-5.583415">
        <ele>207.0</ele>
        <time>2022-09-26T12:20:11.016+02:00[Europe/Madrid]</time>
      </trkpt>
      <trkpt lat="36.948723" lon="-5.583211">
        <ele>207.0</ele>
        <time>2022-09-26T12:20:12.016+02:00[Europe/Madrid]</time>
      </trkpt>
      <trkpt lat="36.948548" lon="-5.583005">
        <ele>207.0</ele>
        <time>2022-09-26T12:20:13.016+02:00[Europe/Madrid]</time>
      </trkpt>
      <trkpt lat="36.948373" lon="-5.582798">
        <ele>207.0</ele>
        <time>2022-09-26T12:20:14.016+02:00[Europe/Madrid]</time>
      </trkpt>
      <trkpt lat="36.948196" lon="-5.58259">
        <ele>207.0</ele>
        <time>2022-09-26T12:20:15.016+02:00[Europe/Madrid]</time>
      </trkpt>
      <trkpt lat="36.948015" lon="-5.582379">
        <ele>208.0</ele>
        <time>2022-09-26T12:20:16.016+02:00[Europe/Madrid]</time>
      </trkpt>
      <trkpt lat="36.947838" lon="-5.582167">
        <ele>208.0</ele>
        <time>2022-09-26T12:20:17.016+02:00[Europe/Madrid]</time>
      </trkpt>
      <trkpt lat="36.94766" lon="-5.581958">
        <ele>208.0</ele>
        <time>2022-09-26T12:20:18.016+02:00[Europe/Madrid]</time>
      </trkpt>
      <trkpt lat="36.947485" lon="-5.58175">
        <ele>208.0</ele>
        <time>2022-09-26T12:20:19.016+02:00[Europe/Madrid]</time>
      </trkpt>
      <trkpt lat="36.94731" lon="-5.581543">
        <ele>208.0</ele>
        <time>2022-09-26T12:20:20.016+02:00[Europe/Madrid]</time>
      </trkpt>
      <trkpt lat="36.947137" lon="-5.581337">
        <ele>209.0</ele>
        <time>2022-09-26T12:20:21.016+02:00[Europe/Madrid]</time>
      </trkpt>
      <trkpt lat="36.946964" lon="-5.581133">
        <ele>209.0</ele>
        <time>2022-09-26T12:20:22.016+02:00[Europe/Madrid]</time>
      </trkpt>
      <trkpt lat="36.946789" lon="-5.580928">
        <ele>209.0</ele>
        <time>2022-09-26T12:20:23.016+02:00[Europe/Madrid]</time>
      </trkpt>
      <trkpt lat="36.946608" lon="-5.580718">
        <ele>210.0</ele>
        <time>2022-09-26T12:20:24.016+02:00[Europe/Madrid]</time>
      </trkpt>
      <trkpt lat="36.946428" lon="-5.580501">
        <ele>210.0</ele>
        <time>2022-09-26T12:20:25.016+02:00[Europe/Madrid]</time>
      </trkpt>
      <trkpt lat="36.946253" lon="-5.580294">
        <ele>210.0</ele>
        <time>2022-09-26T12:20:26.016+02:00[Europe/Madrid]</time>
      </trkpt>
      <trkpt lat="36.946085" lon="-5.5801">
        <ele>210.0</ele>
        <time>2022-09-26T12:20:27.025+02:00[Europe/Madrid]</time>
      </trkpt>
      <trkpt lat="36.945925" lon="-5.579915">
        <ele>210.0</ele>
        <time>2022-09-26T12:20:28.025+02:00[Europe/Madrid]</time>
      </trkpt>
      <trkpt lat="36.945771" lon="-5.579736">
        <ele>210.0</ele>
        <time>2022-09-26T12:20:29.025+02:00[Europe/Madrid]</time>
      </trkpt>
      <trkpt lat="36.945615" lon="-5.579563">
        <ele>211.0</ele>
        <time>2022-09-26T12:20:30.025+02:00[Europe/Madrid]</time>
      </trkpt>
      <trkpt lat="36.945459" lon="-5.579395">
        <ele>211.0</ele>
        <time>2022-09-26T12:20:31.025+02:00[Europe/Madrid]</time>
      </trkpt>
      <trkpt lat="36.945291" lon="-5.579231">
        <ele>211.0</ele>
        <time>2022-09-26T12:20:32.025+02:00[Europe/Madrid]</time>
      </trkpt>
      <trkpt lat="36.945111" lon="-5.579074">
        <ele>211.0</ele>
        <time>2022-09-26T12:20:33.025+02:00[Europe/Madrid]</time>
      </trkpt>
      <trkpt lat="36.94492" lon="-5.578927">
        <ele>211.0</ele>
        <time>2022-09-26T12:20:34.025+02:00[Europe/Madrid]</time>
      </trkpt>
      <trkpt lat="36.944719" lon="-5.57879">
        <ele>211.0</ele>
        <time>2022-09-26T12:20:35.025+02:00[Europe/Madrid]</time>
      </trkpt>
      <trkpt lat="36.944511" lon="-5.578659">
        <ele>211.0</ele>
        <time>2022-09-26T12:20:36.025+02:00[Europe/Madrid]</time>
      </trkpt>
      <trkpt lat="36.9443" lon="-5.57854">
        <ele>212.0</ele>
        <time>2022-09-26T12:20:37.025+02:00[Europe/Madrid]</time>
      </trkpt>
      <trkpt lat="36.94409" lon="-5.578423">
        <ele>212.0</ele>
        <time>2022-09-26T12:20:38.025+02:00[Europe/Madrid]</time>
      </trkpt>
      <trkpt lat="36.943881" lon="-5.578309">
        <ele>212.0</ele>
        <time>2022-09-26T12:20:39.025+02:00[Europe/Madrid]</time>
      </trkpt>
      <trkpt lat="36.943676" lon="-5.578197">
        <ele>213.0</ele>
        <time>2022-09-26T12:20:40.025+02:00[Europe/Madrid]</time>
      </trkpt>
      <trkpt lat="36.943473" lon="-5.578084">
        <ele>212.0</ele>
        <time>2022-09-26T12:20:41.025+02:00[Europe/Madrid]</time>
      </trkpt>
      <trkpt lat="36.94327" lon="-5.577972">
        <ele>212.0</ele>
        <time>2022-09-26T12:20:42.025+02:00[Europe/Madrid]</time>
      </trkpt>
      <trkpt lat="36.943071" lon="-5.577862">
        <ele>213.0</ele>
        <time>2022-09-26T12:20:43.025+02:00[Europe/Madrid]</time>
      </trkpt>
      <trkpt lat="36.942871" lon="-5.577752">
        <ele>213.0</ele>
        <time>2022-09-26T12:20:44.025+02:00[Europe/Madrid]</time>
      </trkpt>
      <trkpt lat="36.942676" lon="-5.577641">
        <ele>213.0</ele>
        <time>2022-09-26T12:20:45.025+02:00[Europe/Madrid]</time>
      </trkpt>
      <trkpt lat="36.94248" lon="-5.577533">
        <ele>213.0</ele>
        <time>2022-09-26T12:20:46.025+02:00[Europe/Madrid]</time>
      </trkpt>
      <trkpt lat="36.942285" lon="-5.577429">
        <ele>213.0</ele>
        <time>2022-09-26T12:20:47.025+02:00[Europe/Madrid]</time>
      </trkpt>
      <trkpt lat="36.94209" lon="-5.577319">
        <ele>214.0</ele>
        <time>2022-09-26T12:20:48.025+02:00[Europe/Madrid]</time>
      </trkpt>
      <trkpt lat="36.941898" lon="-5.57721">
        <ele>214.0</ele>
        <time>2022-09-26T12:20:49.025+02:00[Europe/Madrid]</time>
      </trkpt>
      <trkpt lat="36.941705" lon="-5.577101">
        <ele>214.0</ele>
        <time>2022-09-26T12:20:50.025+02:00[Europe/Madrid]</time>
      </trkpt>
      <trkpt lat="36.941512" lon="-5.576995">
        <ele>214.0</ele>
        <time>2022-09-26T12:20:51.025+02:00[Europe/Madrid]</time>
      </trkpt>
      <trkpt lat="36.941318" lon="-5.576892">
        <ele>215.0</ele>
        <time>2022-09-26T12:20:52.025+02:00[Europe/Madrid]</time>
      </trkpt>
      <trkpt lat="36.941124" lon="-5.576784">
        <ele>215.0</ele>
        <time>2022-09-26T12:20:53.025+02:00[Europe/Madrid]</time>
      </trkpt>
      <trkpt lat="36.940933" lon="-5.576681">
        <ele>215.0</ele>
        <time>2022-09-26T12:20:54.025+02:00[Europe/Madrid]</time>
      </trkpt>
      <trkpt lat="36.940739" lon="-5.576577">
        <ele>216.0</ele>
        <time>2022-09-26T12:20:55.025+02:00[Europe/Madrid]</time>
      </trkpt>
      <trkpt lat="36.940543" lon="-5.576472">
        <ele>216.0</ele>
        <time>2022-09-26T12:20:56.025+02:00[Europe/Madrid]</time>
      </trkpt>
      <trkpt lat="36.940345" lon="-5.576365">
        <ele>216.0</ele>
        <time>2022-09-26T12:20:57.025+02:00[Europe/Madrid]</time>
      </trkpt>
      <trkpt lat="36.940145" lon="-5.576256">
        <ele>217.0</ele>
        <time>2022-09-26T12:20:58.025+02:00[Europe/Madrid]</time>
      </trkpt>
      <trkpt lat="36.939946" lon="-5.57615">
        <ele>217.0</ele>
        <time>2022-09-26T12:20:59.025+02:00[Europe/Madrid]</time>
      </trkpt>
      <trkpt lat="36.939743" lon="-5.576039">
        <ele>217.0</ele>
        <time>2022-09-26T12:21:00.025+02:00[Europe/Madrid]</time>
      </trkpt>
      <trkpt lat="36.939541" lon="-5.575928">
        <ele>217.0</ele>
        <time>2022-09-26T12:21:01.025+02:00[Europe/Madrid]</time>
      </trkpt>
      <trkpt lat="36.939341" lon="-5.575819">
        <ele>217.0</ele>
        <time>2022-09-26T12:21:02.025+02:00[Europe/Madrid]</time>
      </trkpt>
      <trkpt lat="36.939148" lon="-5.575712">
        <ele>218.0</ele>
        <time>2022-09-26T12:21:03.025+02:00[Europe/Madrid]</time>
      </trkpt>
      <trkpt lat="36.938958" lon="-5.575607">
        <ele>218.0</ele>
        <time>2022-09-26T12:21:04.025+02:00[Europe/Madrid]</time>
      </trkpt>
      <trkpt lat="36.938774" lon="-5.575505">
        <ele>218.0</ele>
        <time>2022-09-26T12:21:05.025+02:00[Europe/Madrid]</time>
      </trkpt>
      <trkpt lat="36.938588" lon="-5.575404">
        <ele>219.0</ele>
        <time>2022-09-26T12:21:06.025+02:00[Europe/Madrid]</time>
      </trkpt>
      <trkpt lat="36.93841" lon="-5.575309">
        <ele>219.0</ele>
        <time>2022-09-26T12:21:07.025+02:00[Europe/Madrid]</time>
      </trkpt>
      <trkpt lat="36.938241" lon="-5.575216">
        <ele>220.0</ele>
        <time>2022-09-26T12:21:08.025+02:00[Europe/Madrid]</time>
      </trkpt>
      <trkpt lat="36.938076" lon="-5.575124">
        <ele>220.0</ele>
        <time>2022-09-26T12:21:09.025+02:00[Europe/Madrid]</time>
      </trkpt>
      <trkpt lat="36.937915" lon="-5.575036">
        <ele>220.0</ele>
        <time>2022-09-26T12:21:10.025+02:00[Europe/Madrid]</time>
      </trkpt>
      <trkpt lat="36.937754" lon="-5.574948">
        <ele>221.0</ele>
        <time>2022-09-26T12:21:11.025+02:00[Europe/Madrid]</time>
      </trkpt>
      <trkpt lat="36.9376" lon="-5.574865">
        <ele>221.0</ele>
        <time>2022-09-26T12:21:12.025+02:00[Europe/Madrid]</time>
      </trkpt>
      <trkpt lat="36.937445" lon="-5.574779">
        <ele>221.0</ele>
        <time>2022-09-26T12:21:13.025+02:00[Europe/Madrid]</time>
      </trkpt>
      <trkpt lat="36.937289" lon="-5.57469">
        <ele>222.0</ele>
        <time>2022-09-26T12:21:14.025+02:00[Europe/Madrid]</time>
      </trkpt>
      <trkpt lat="36.937136" lon="-5.574593">
        <ele>221.0</ele>
        <time>2022-09-26T12:21:15.025+02:00[Europe/Madrid]</time>
      </trkpt>
      <trkpt lat="36.936985" lon="-5.574488">
        <ele>222.0</ele>
        <time>2022-09-26T12:21:16.025+02:00[Europe/Madrid]</time>
      </trkpt>
      <trkpt lat="36.93683" lon="-5.574365">
        <ele>222.0</ele>
        <time>2022-09-26T12:21:17.025+02:00[Europe/Madrid]</time>
      </trkpt>
      <trkpt lat="36.936676" lon="-5.574233">
        <ele>222.0</ele>
        <time>2022-09-26T12:21:18.025+02:00[Europe/Madrid]</time>
      </trkpt>
      <trkpt lat="36.936523" lon="-5.574089">
        <ele>222.0</ele>
        <time>2022-09-26T12:21:19.025+02:00[Europe/Madrid]</time>
      </trkpt>
      <trkpt lat="36.936371" lon="-5.573937">
        <ele>222.0</ele>
        <time>2022-09-26T12:21:20.025+02:00[Europe/Madrid]</time>
      </trkpt>
      <trkpt lat="36.936218" lon="-5.573775">
        <ele>222.0</ele>
        <time>2022-09-26T12:21:21.025+02:00[Europe/Madrid]</time>
      </trkpt>
      <trkpt lat="36.936068" lon="-5.573614">
        <ele>222.0</ele>
        <time>2022-09-26T12:21:22.025+02:00[Europe/Madrid]</time>
      </trkpt>
      <trkpt lat="36.935915" lon="-5.573453">
        <ele>222.0</ele>
        <time>2022-09-26T12:21:23.025+02:00[Europe/Madrid]</time>
      </trkpt>
      <trkpt lat="36.935766" lon="-5.573291">
        <ele>222.0</ele>
        <time>2022-09-26T12:21:24.025+02:00[Europe/Madrid]</time>
      </trkpt>
      <trkpt lat="36.935622" lon="-5.573137">
        <ele>222.0</ele>
        <time>2022-09-26T12:21:25.025+02:00[Europe/Madrid]</time>
      </trkpt>
      <trkpt lat="36.935482" lon="-5.572989">
        <ele>222.0</ele>
        <time>2022-09-26T12:21:26.025+02:00[Europe/Madrid]</time>
      </trkpt>
      <trkpt lat="36.935347" lon="-5.572843">
        <ele>222.0</ele>
        <time>2022-09-26T12:21:27.025+02:00[Europe/Madrid]</time>
      </trkpt>
      <trkpt lat="36.93522" lon="-5.572704">
        <ele>222.0</ele>
        <time>2022-09-26T12:21:28.025+02:00[Europe/Madrid]</time>
      </trkpt>
      <trkpt lat="36.935091" lon="-5.572563">
        <ele>222.0</ele>
        <time>2022-09-26T12:21:29.025+02:00[Europe/Madrid]</time>
      </trkpt>
      <trkpt lat="36.934964" lon="-5.572426">
        <ele>222.0</ele>
        <time>2022-09-26T12:21:30.025+02:00[Europe/Madrid]</time>
      </trkpt>
      <trkpt lat="36.934837" lon="-5.572291">
        <ele>222.0</ele>
        <time>2022-09-26T12:21:31.025+02:00[Europe/Madrid]</time>
      </trkpt>
      <trkpt lat="36.934715" lon="-5.572158">
        <ele>221.0</ele>
        <time>2022-09-26T12:21:32.025+02:00[Europe/Madrid]</time>
      </trkpt>
      <trkpt lat="36.934593" lon="-5.572027">
        <ele>221.0</ele>
        <time>2022-09-26T12:21:33.025+02:00[Europe/Madrid]</time>
      </trkpt>
      <trkpt lat="36.93447" lon="-5.571896">
        <ele>221.0</ele>
        <time>2022-09-26T12:21:34.025+02:00[Europe/Madrid]</time>
      </trkpt>
      <trkpt lat="36.934351" lon="-5.571767">
        <ele>221.0</ele>
        <time>2022-09-26T12:21:35.025+02:00[Europe/Madrid]</time>
      </trkpt>
      <trkpt lat="36.934231" lon="-5.571637">
        <ele>221.0</ele>
        <time>2022-09-26T12:21:36.025+02:00[Europe/Madrid]</time>
      </trkpt>
      <trkpt lat="36.934108" lon="-5.571501">
        <ele>220.0</ele>
        <time>2022-09-26T12:21:37.025+02:00[Europe/Madrid]</time>
      </trkpt>
      <trkpt lat="36.933984" lon="-5.571365">
        <ele>220.0</ele>
        <time>2022-09-26T12:21:38.025+02:00[Europe/Madrid]</time>
      </trkpt>
      <trkpt lat="36.933858" lon="-5.571231">
        <ele>219.0</ele>
        <time>2022-09-26T12:21:39.025+02:00[Europe/Madrid]</time>
      </trkpt>
      <trkpt lat="36.933724" lon="-5.571092">
        <ele>219.0</ele>
        <time>2022-09-26T12:21:40.025+02:00[Europe/Madrid]</time>
      </trkpt>
      <trkpt lat="36.933598" lon="-5.570952">
        <ele>218.0</ele>
        <time>2022-09-26T12:21:41.025+02:00[Europe/Madrid]</time>
      </trkpt>
      <trkpt lat="36.933464" lon="-5.570806">
        <ele>217.0</ele>
        <time>2022-09-26T12:21:42.025+02:00[Europe/Madrid]</time>
      </trkpt>
      <trkpt lat="36.93333" lon="-5.570657">
        <ele>216.0</ele>
        <time>2022-09-26T12:21:43.025+02:00[Europe/Madrid]</time>
      </trkpt>
      <trkpt lat="36.933193" lon="-5.570502">
        <ele>215.0</ele>
        <time>2022-09-26T12:21:44.025+02:00[Europe/Madrid]</time>
      </trkpt>
      <trkpt lat="36.933057" lon="-5.57034">
        <ele>215.0</ele>
        <time>2022-09-26T12:21:45.025+02:00[Europe/Madrid]</time>
      </trkpt>
      <trkpt lat="36.93292" lon="-5.570172">
        <ele>214.0</ele>
        <time>2022-09-26T12:21:46.025+02:00[Europe/Madrid]</time>
      </trkpt>
      <trkpt lat="36.932783" lon="-5.569992">
        <ele>213.0</ele>
        <time>2022-09-26T12:21:47.025+02:00[Europe/Madrid]</time>
      </trkpt>
      <trkpt lat="36.932651" lon="-5.569813">
        <ele>213.0</ele>
        <time>2022-09-26T12:21:48.025+02:00[Europe/Madrid]</time>
      </trkpt>
      <trkpt lat="36.932514" lon="-5.569616">
        <ele>212.0</ele>
        <time>2022-09-26T12:21:49.025+02:00[Europe/Madrid]</time>
      </trkpt>
      <trkpt lat="36.932379" lon="-5.569414">
        <ele>212.0</ele>
        <time>2022-09-26T12:21:50.025+02:00[Europe/Madrid]</time>
      </trkpt>
      <trkpt lat="36.932243" lon="-5.569202">
        <ele>212.0</ele>
        <time>2022-09-26T12:21:51.025+02:00[Europe/Madrid]</time>
      </trkpt>
      <trkpt lat="36.932106" lon="-5.568976">
        <ele>211.0</ele>
        <time>2022-09-26T12:21:52.025+02:00[Europe/Madrid]</time>
      </trkpt>
      <trkpt lat="36.931973" lon="-5.568744">
        <ele>211.0</ele>
        <time>2022-09-26T12:21:53.025+02:00[Europe/Madrid]</time>
      </trkpt>
      <trkpt lat="36.931845" lon="-5.568513">
        <ele>211.0</ele>
        <time>2022-09-26T12:21:54.025+02:00[Europe/Madrid]</time>
      </trkpt>
      <trkpt lat="36.931722" lon="-5.568287">
        <ele>211.0</ele>
        <time>2022-09-26T12:21:55.025+02:00[Europe/Madrid]</time>
      </trkpt>
      <trkpt lat="36.931601" lon="-5.568066">
        <ele>212.0</ele>
        <time>2022-09-26T12:21:56.025+02:00[Europe/Madrid]</time>
      </trkpt>
      <trkpt lat="36.931481" lon="-5.567843">
        <ele>212.0</ele>
        <time>2022-09-26T12:21:57.025+02:00[Europe/Madrid]</time>
      </trkpt>
      <trkpt lat="36.931365" lon="-5.567631">
        <ele>213.0</ele>
        <time>2022-09-26T12:21:58.025+02:00[Europe/Madrid]</time>
      </trkpt>
      <trkpt lat="36.931254" lon="-5.567418">
        <ele>214.0</ele>
        <time>2022-09-26T12:21:59.025+02:00[Europe/Madrid]</time>
      </trkpt>
      <trkpt lat="36.93114" lon="-5.567205">
        <ele>215.0</ele>
        <time>2022-09-26T12:22:00.025+02:00[Europe/Madrid]</time>
      </trkpt>
      <trkpt lat="36.931024" lon="-5.566991">
        <ele>216.0</ele>
        <time>2022-09-26T12:22:01.025+02:00[Europe/Madrid]</time>
      </trkpt>
      <trkpt lat="36.930917" lon="-5.566783">
        <ele>217.0</ele>
        <time>2022-09-26T12:22:02.025+02:00[Europe/Madrid]</time>
      </trkpt>
      <trkpt lat="36.930815" lon="-5.566576">
        <ele>218.0</ele>
        <time>2022-09-26T12:22:03.025+02:00[Europe/Madrid]</time>
      </trkpt>
      <trkpt lat="36.930722" lon="-5.566364">
        <ele>218.0</ele>
        <time>2022-09-26T12:22:04.025+02:00[Europe/Madrid]</time>
      </trkpt>
      <trkpt lat="36.930639" lon="-5.56615">
        <ele>219.0</ele>
        <time>2022-09-26T12:22:05.025+02:00[Europe/Madrid]</time>
      </trkpt>
      <trkpt lat="36.930566" lon="-5.565934">
        <ele>220.0</ele>
        <time>2022-09-26T12:22:06.025+02:00[Europe/Madrid]</time>
      </trkpt>
      <trkpt lat="36.930504" lon="-5.565714">
        <ele>221.0</ele>
        <time>2022-09-26T12:22:07.025+02:00[Europe/Madrid]</time>
      </trkpt>
      <trkpt lat="36.930452" lon="-5.565497">
        <ele>222.0</ele>
        <time>2022-09-26T12:22:08.025+02:00[Europe/Madrid]</time>
      </trkpt>
      <trkpt lat="36.930412" lon="-5.565274">
        <ele>223.0</ele>
        <time>2022-09-26T12:22:09.025+02:00[Europe/Madrid]</time>
      </trkpt>
      <trkpt lat="36.930379" lon="-5.565048">
        <ele>223.0</ele>
        <time>2022-09-26T12:22:10.025+02:00[Europe/Madrid]</time>
      </trkpt>
      <trkpt lat="36.930349" lon="-5.564806">
        <ele>224.0</ele>
        <time>2022-09-26T12:22:11.025+02:00[Europe/Madrid]</time>
      </trkpt>
      <trkpt lat="36.930324" lon="-5.564562">
        <ele>224.0</ele>
        <time>2022-09-26T12:22:12.025+02:00[Europe/Madrid]</time>
      </trkpt>
      <trkpt lat="36.930297" lon="-5.564321">
        <ele>224.0</ele>
        <time>2022-09-26T12:22:13.025+02:00[Europe/Madrid]</time>
      </trkpt>
      <trkpt lat="36.930272" lon="-5.564092">
        <ele>224.0</ele>
        <time>2022-09-26T12:22:14.025+02:00[Europe/Madrid]</time>
      </trkpt>
      <trkpt lat="36.930244" lon="-5.563864">
        <ele>224.0</ele>
        <time>2022-09-26T12:22:15.025+02:00[Europe/Madrid]</time>
      </trkpt>
      <trkpt lat="36.930213" lon="-5.563629">
        <ele>224.0</ele>
        <time>2022-09-26T12:22:16.025+02:00[Europe/Madrid]</time>
      </trkpt>
      <trkpt lat="36.930175" lon="-5.563397">
        <ele>223.0</ele>
        <time>2022-09-26T12:22:17.025+02:00[Europe/Madrid]</time>
      </trkpt>
      <trkpt lat="36.930128" lon="-5.563171">
        <ele>222.0</ele>
        <time>2022-09-26T12:22:18.025+02:00[Europe/Madrid]</time>
      </trkpt>
      <trkpt lat="36.93007" lon="-5.56295">
        <ele>222.0</ele>
        <time>2022-09-26T12:22:19.025+02:00[Europe/Madrid]</time>
      </trkpt>
      <trkpt lat="36.930005" lon="-5.562733">
        <ele>221.0</ele>
        <time>2022-09-26T12:22:20.025+02:00[Europe/Madrid]</time>
      </trkpt>
      <trkpt lat="36.92993" lon="-5.562518">
        <ele>220.0</ele>
        <time>2022-09-26T12:22:21.025+02:00[Europe/Madrid]</time>
      </trkpt>
      <trkpt lat="36.929851" lon="-5.562304">
        <ele>219.0</ele>
        <time>2022-09-26T12:22:22.025+02:00[Europe/Madrid]</time>
      </trkpt>
      <trkpt lat="36.929763" lon="-5.562098">
        <ele>218.0</ele>
        <time>2022-09-26T12:22:23.025+02:00[Europe/Madrid]</time>
      </trkpt>
      <trkpt lat="36.929663" lon="-5.561899">
        <ele>217.0</ele>
        <time>2022-09-26T12:22:24.025+02:00[Europe/Madrid]</time>
      </trkpt>
      <trkpt lat="36.929555" lon="-5.561701">
        <ele>217.0</ele>
        <time>2022-09-26T12:22:25.025+02:00[Europe/Madrid]</time>
      </trkpt>
      <trkpt lat="36.929435" lon="-5.56151">
        <ele>216.0</ele>
        <time>2022-09-26T12:22:26.025+02:00[Europe/Madrid]</time>
      </trkpt>
      <trkpt lat="36.929305" lon="-5.561329">
        <ele>215.0</ele>
        <time>2022-09-26T12:22:27.025+02:00[Europe/Madrid]</time>
      </trkpt>
      <trkpt lat="36.929168" lon="-5.561158">
        <ele>214.0</ele>
        <time>2022-09-26T12:22:28.025+02:00[Europe/Madrid]</time>
      </trkpt>
      <trkpt lat="36.929025" lon="-5.56099">
        <ele>213.0</ele>
        <time>2022-09-26T12:22:29.025+02:00[Europe/Madrid]</time>
      </trkpt>
      <trkpt lat="36.928872" lon="-5.560828">
        <ele>213.0</ele>
        <time>2022-09-26T12:22:30.025+02:00[Europe/Madrid]</time>
      </trkpt>
      <trkpt lat="36.928714" lon="-5.560683">
        <ele>212.0</ele>
        <time>2022-09-26T12:22:31.025+02:00[Europe/Madrid]</time>
      </trkpt>
      <trkpt lat="36.928554" lon="-5.560543">
        <ele>211.0</ele>
        <time>2022-09-26T12:22:32.025+02:00[Europe/Madrid]</time>
      </trkpt>
      <trkpt lat="36.928392" lon="-5.560417">
        <ele>210.0</ele>
        <time>2022-09-26T12:22:33.025+02:00[Europe/Madrid]</time>
      </trkpt>
      <trkpt lat="36.928223" lon="-5.560302">
        <ele>209.0</ele>
        <time>2022-09-26T12:22:34.025+02:00[Europe/Madrid]</time>
      </trkpt>
      <trkpt lat="36.928048" lon="-5.560196">
        <ele>209.0</ele>
        <time>2022-09-26T12:22:35.025+02:00[Europe/Madrid]</time>
      </trkpt>
      <trkpt lat="36.927868" lon="-5.560094">
        <ele>208.0</ele>
        <time>2022-09-26T12:22:36.025+02:00[Europe/Madrid]</time>
      </trkpt>
      <trkpt lat="36.927684" lon="-5.559997">
        <ele>207.0</ele>
        <time>2022-09-26T12:22:37.025+02:00[Europe/Madrid]</time>
      </trkpt>
      <trkpt lat="36.9275" lon="-5.559897">
        <ele>206.0</ele>
        <time>2022-09-26T12:22:38.025+02:00[Europe/Madrid]</time>
      </trkpt>
      <trkpt lat="36.927312" lon="-5.559796">
        <ele>205.0</ele>
        <time>2022-09-26T12:22:39.025+02:00[Europe/Madrid]</time>
      </trkpt>
      <trkpt lat="36.927124" lon="-5.559693">
        <ele>205.0</ele>
        <time>2022-09-26T12:22:40.025+02:00[Europe/Madrid]</time>
      </trkpt>
      <trkpt lat="36.926936" lon="-5.55959">
        <ele>203.0</ele>
        <time>2022-09-26T12:22:41.025+02:00[Europe/Madrid]</time>
      </trkpt>
      <trkpt lat="36.926747" lon="-5.559489">
        <ele>203.0</ele>
        <time>2022-09-26T12:22:42.025+02:00[Europe/Madrid]</time>
      </trkpt>
      <trkpt lat="36.926557" lon="-5.55938">
        <ele>202.0</ele>
        <time>2022-09-26T12:22:43.025+02:00[Europe/Madrid]</time>
      </trkpt>
      <trkpt lat="36.926364" lon="-5.559274">
        <ele>201.0</ele>
        <time>2022-09-26T12:22:44.025+02:00[Europe/Madrid]</time>
      </trkpt>
      <trkpt lat="36.926172" lon="-5.559167">
        <ele>200.0</ele>
        <time>2022-09-26T12:22:45.025+02:00[Europe/Madrid]</time>
      </trkpt>
      <trkpt lat="36.925979" lon="-5.559066">
        <ele>199.0</ele>
        <time>2022-09-26T12:22:46.025+02:00[Europe/Madrid]</time>
      </trkpt>
      <trkpt lat="36.925788" lon="-5.558971">
        <ele>199.0</ele>
        <time>2022-09-26T12:22:47.025+02:00[Europe/Madrid]</time>
      </trkpt>
      <trkpt lat="36.925591" lon="-5.55888">
        <ele>198.0</ele>
        <time>2022-09-26T12:22:48.025+02:00[Europe/Madrid]</time>
      </trkpt>
      <trkpt lat="36.925393" lon="-5.558809">
        <ele>197.0</ele>
        <time>2022-09-26T12:22:49.025+02:00[Europe/Madrid]</time>
      </trkpt>
      <trkpt lat="36.925185" lon="-5.558748">
        <ele>196.0</ele>
        <time>2022-09-26T12:22:50.025+02:00[Europe/Madrid]</time>
      </trkpt>
      <trkpt lat="36.924972" lon="-5.558701">
        <ele>195.0</ele>
        <time>2022-09-26T12:22:51.025+02:00[Europe/Madrid]</time>
      </trkpt>
      <trkpt lat="36.924751" lon="-5.558676">
        <ele>194.0</ele>
        <time>2022-09-26T12:22:52.025+02:00[Europe/Madrid]</time>
      </trkpt>
      <trkpt lat="36.924523" lon="-5.558668">
        <ele>193.0</ele>
        <time>2022-09-26T12:22:53.025+02:00[Europe/Madrid]</time>
      </trkpt>
      <trkpt lat="36.924291" lon="-5.558676">
        <ele>192.0</ele>
        <time>2022-09-26T12:22:54.025+02:00[Europe/Madrid]</time>
      </trkpt>
      <trkpt lat="36.924053" lon="-5.558691">
        <ele>191.0</ele>
        <time>2022-09-26T12:22:55.025+02:00[Europe/Madrid]</time>
      </trkpt>
      <trkpt lat="36.923817" lon="-5.558708">
        <ele>190.0</ele>
        <time>2022-09-26T12:22:56.025+02:00[Europe/Madrid]</time>
      </trkpt>
      <trkpt lat="36.923574" lon="-5.558721">
        <ele>190.0</ele>
        <time>2022-09-26T12:22:57.025+02:00[Europe/Madrid]</time>
      </trkpt>
      <trkpt lat="36.92333" lon="-5.55873">
        <ele>189.0</ele>
        <time>2022-09-26T12:22:58.025+02:00[Europe/Madrid]</time>
      </trkpt>
      <trkpt lat="36.923084" lon="-5.558738">
        <ele>188.0</ele>
        <time>2022-09-26T12:22:59.025+02:00[Europe/Madrid]</time>
      </trkpt>
      <trkpt lat="36.922833" lon="-5.558746">
        <ele>187.0</ele>
        <time>2022-09-26T12:23:00.025+02:00[Europe/Madrid]</time>
      </trkpt>
      <trkpt lat="36.922581" lon="-5.558753">
        <ele>187.0</ele>
        <time>2022-09-26T12:23:01.025+02:00[Europe/Madrid]</time>
      </trkpt>
      <trkpt lat="36.922328" lon="-5.558758">
        <ele>186.0</ele>
        <time>2022-09-26T12:23:02.025+02:00[Europe/Madrid]</time>
      </trkpt>
      <trkpt lat="36.922076" lon="-5.558754">
        <ele>186.0</ele>
        <time>2022-09-26T12:23:03.025+02:00[Europe/Madrid]</time>
      </trkpt>
      <trkpt lat="36.921824" lon="-5.55874">
        <ele>186.0</ele>
        <time>2022-09-26T12:23:04.025+02:00[Europe/Madrid]</time>
      </trkpt>
      <trkpt lat="36.92157" lon="-5.558721">
        <ele>187.0</ele>
        <time>2022-09-26T12:23:05.025+02:00[Europe/Madrid]</time>
      </trkpt>
      <trkpt lat="36.921313" lon="-5.558696">
        <ele>188.0</ele>
        <time>2022-09-26T12:23:06.025+02:00[Europe/Madrid]</time>
      </trkpt>
      <trkpt lat="36.921052" lon="-5.558665">
        <ele>189.0</ele>
        <time>2022-09-26T12:23:07.025+02:00[Europe/Madrid]</time>
      </trkpt>
      <trkpt lat="36.9208" lon="-5.558627">
        <ele>190.0</ele>
        <time>2022-09-26T12:23:08.025+02:00[Europe/Madrid]</time>
      </trkpt>
      <trkpt lat="36.920558" lon="-5.558588">
        <ele>190.0</ele>
        <time>2022-09-26T12:23:09.025+02:00[Europe/Madrid]</time>
      </trkpt>
      <trkpt lat="36.920326" lon="-5.558547">
        <ele>192.0</ele>
        <time>2022-09-26T12:23:10.025+02:00[Europe/Madrid]</time>
      </trkpt>
      <trkpt lat="36.920097" lon="-5.558501">
        <ele>192.0</ele>
        <time>2022-09-26T12:23:11.025+02:00[Europe/Madrid]</time>
      </trkpt>
      <trkpt lat="36.919867" lon="-5.558448">
        <ele>193.0</ele>
        <time>2022-09-26T12:23:12.025+02:00[Europe/Madrid]</time>
      </trkpt>
      <trkpt lat="36.919637" lon="-5.55839">
        <ele>194.0</ele>
        <time>2022-09-26T12:23:13.025+02:00[Europe/Madrid]</time>
      </trkpt>
      <trkpt lat="36.919409" lon="-5.558326">
        <ele>195.0</ele>
        <time>2022-09-26T12:23:14.025+02:00[Europe/Madrid]</time>
      </trkpt>
      <trkpt lat="36.919197" lon="-5.558261">
        <ele>195.0</ele>
        <time>2022-09-26T12:23:15.025+02:00[Europe/Madrid]</time>
      </trkpt>
      <trkpt lat="36.918996" lon="-5.558199">
        <ele>196.0</ele>
        <time>2022-09-26T12:23:16.025+02:00[Europe/Madrid]</time>
      </trkpt>
      <trkpt lat="36.918811" lon="-5.55814">
        <ele>197.0</ele>
        <time>2022-09-26T12:23:17.025+02:00[Europe/Madrid]</time>
      </trkpt>
      <trkpt lat="36.918639" lon="-5.558076">
        <ele>198.0</ele>
        <time>2022-09-26T12:23:18.025+02:00[Europe/Madrid]</time>
      </trkpt>
      <trkpt lat="36.918469" lon="-5.558013">
        <ele>199.0</ele>
        <time>2022-09-26T12:23:19.025+02:00[Europe/Madrid]</time>
      </trkpt>
      <trkpt lat="36.918301" lon="-5.557948">
        <ele>200.0</ele>
        <time>2022-09-26T12:23:20.025+02:00[Europe/Madrid]</time>
      </trkpt>
      <trkpt lat="36.918136" lon="-5.557881">
        <ele>200.0</ele>
        <time>2022-09-26T12:23:21.025+02:00[Europe/Madrid]</time>
      </trkpt>
      <trkpt lat="36.917975" lon="-5.557811">
        <ele>201.0</ele>
        <time>2022-09-26T12:23:22.025+02:00[Europe/Madrid]</time>
      </trkpt>
      <trkpt lat="36.917812" lon="-5.557738">
        <ele>202.0</ele>
        <time>2022-09-26T12:23:23.025+02:00[Europe/Madrid]</time>
      </trkpt>
      <trkpt lat="36.917651" lon="-5.557664">
        <ele>202.0</ele>
        <time>2022-09-26T12:23:24.025+02:00[Europe/Madrid]</time>
      </trkpt>
      <trkpt lat="36.917489" lon="-5.557584">
        <ele>203.0</ele>
        <time>2022-09-26T12:23:25.025+02:00[Europe/Madrid]</time>
      </trkpt>
      <trkpt lat="36.917327" lon="-5.557505">
        <ele>203.0</ele>
        <time>2022-09-26T12:23:26.025+02:00[Europe/Madrid]</time>
      </trkpt>
      <trkpt lat="36.917163" lon="-5.557418">
        <ele>204.0</ele>
        <time>2022-09-26T12:23:27.025+02:00[Europe/Madrid]</time>
      </trkpt>
      <trkpt lat="36.916999" lon="-5.557332">
        <ele>204.0</ele>
        <time>2022-09-26T12:23:28.025+02:00[Europe/Madrid]</time>
      </trkpt>
      <trkpt lat="36.916834" lon="-5.557241">
        <ele>204.0</ele>
        <time>2022-09-26T12:23:29.025+02:00[Europe/Madrid]</time>
      </trkpt>
      <trkpt lat="36.916667" lon="-5.557139">
        <ele>205.0</ele>
        <time>2022-09-26T12:23:30.025+02:00[Europe/Madrid]</time>
      </trkpt>
      <trkpt lat="36.916501" lon="-5.557042">
        <ele>205.0</ele>
        <time>2022-09-26T12:23:31.025+02:00[Europe/Madrid]</time>
      </trkpt>
      <trkpt lat="36.916331" lon="-5.556938">
        <ele>206.0</ele>
        <time>2022-09-26T12:23:32.025+02:00[Europe/Madrid]</time>
      </trkpt>
      <trkpt lat="36.916162" lon="-5.556831">
        <ele>206.0</ele>
        <time>2022-09-26T12:23:33.025+02:00[Europe/Madrid]</time>
      </trkpt>
      <trkpt lat="36.915989" lon="-5.556712">
        <ele>206.0</ele>
        <time>2022-09-26T12:23:34.025+02:00[Europe/Madrid]</time>
      </trkpt>
      <trkpt lat="36.915815" lon="-5.556594">
        <ele>207.0</ele>
        <time>2022-09-26T12:23:35.025+02:00[Europe/Madrid]</time>
      </trkpt>
      <trkpt lat="36.915636" lon="-5.556464">
        <ele>207.0</ele>
        <time>2022-09-26T12:23:36.025+02:00[Europe/Madrid]</time>
      </trkpt>
      <trkpt lat="36.91546" lon="-5.556324">
        <ele>208.0</ele>
        <time>2022-09-26T12:23:37.025+02:00[Europe/Madrid]</time>
      </trkpt>
      <trkpt lat="36.915282" lon="-5.556185">
        <ele>208.0</ele>
        <time>2022-09-26T12:23:38.025+02:00[Europe/Madrid]</time>
      </trkpt>
      <trkpt lat="36.915111" lon="-5.556047">
        <ele>208.0</ele>
        <time>2022-09-26T12:23:39.025+02:00[Europe/Madrid]</time>
      </trkpt>
      <trkpt lat="36.914951" lon="-5.555919">
        <ele>209.0</ele>
        <time>2022-09-26T12:23:40.025+02:00[Europe/Madrid]</time>
      </trkpt>
      <trkpt lat="36.914801" lon="-5.555797">
        <ele>209.0</ele>
        <time>2022-09-26T12:23:41.025+02:00[Europe/Madrid]</time>
      </trkpt>
      <trkpt lat="36.914659" lon="-5.555674">
        <ele>210.0</ele>
        <time>2022-09-26T12:23:42.025+02:00[Europe/Madrid]</time>
      </trkpt>
      <trkpt lat="36.914522" lon="-5.555552">
        <ele>210.0</ele>
        <time>2022-09-26T12:23:43.025+02:00[Europe/Madrid]</time>
      </trkpt>
      <trkpt lat="36.914384" lon="-5.55543">
        <ele>210.0</ele>
        <time>2022-09-26T12:23:44.025+02:00[Europe/Madrid]</time>
      </trkpt>
      <trkpt lat="36.914249" lon="-5.555305">
        <ele>210.0</ele>
        <time>2022-09-26T12:23:45.025+02:00[Europe/Madrid]</time>
      </trkpt>
      <trkpt lat="36.91412" lon="-5.555185">
        <ele>210.0</ele>
        <time>2022-09-26T12:23:46.025+02:00[Europe/Madrid]</time>
      </trkpt>
      <trkpt lat="36.913999" lon="-5.555065">
        <ele>210.0</ele>
        <time>2022-09-26T12:23:47.025+02:00[Europe/Madrid]</time>
      </trkpt>
      <trkpt lat="36.913882" lon="-5.55495">
        <ele>210.0</ele>
        <time>2022-09-26T12:23:48.025+02:00[Europe/Madrid]</time>
      </trkpt>
      <trkpt lat="36.913769" lon="-5.554842">
        <ele>211.0</ele>
        <time>2022-09-26T12:23:49.025+02:00[Europe/Madrid]</time>
      </trkpt>
      <trkpt lat="36.913659" lon="-5.554735">
        <ele>211.0</ele>
        <time>2022-09-26T12:23:50.025+02:00[Europe/Madrid]</time>
      </trkpt>
      <trkpt lat="36.913556" lon="-5.554629">
        <ele>210.0</ele>
        <time>2022-09-26T12:23:51.025+02:00[Europe/Madrid]</time>
      </trkpt>
      <trkpt lat="36.913458" lon="-5.554527">
        <ele>210.0</ele>
        <time>2022-09-26T12:23:52.025+02:00[Europe/Madrid]</time>
      </trkpt>
      <trkpt lat="36.913369" lon="-5.55443">
        <ele>210.0</ele>
        <time>2022-09-26T12:23:53.025+02:00[Europe/Madrid]</time>
      </trkpt>
      <trkpt lat="36.913284" lon="-5.554333">
        <ele>210.0</ele>
        <time>2022-09-26T12:23:54.025+02:00[Europe/Madrid]</time>
      </trkpt>
      <trkpt lat="36.91321" lon="-5.554244">
        <ele>210.0</ele>
        <time>2022-09-26T12:23:55.025+02:00[Europe/Madrid]</time>
      </trkpt>
      <trkpt lat="36.913138" lon="-5.554168">
        <ele>211.0</ele>
        <time>2022-09-26T12:23:56.025+02:00[Europe/Madrid]</time>
      </trkpt>
      <trkpt lat="36.912984" lon="-5.554073">
        <ele>211.0</ele>
        <time>2022-09-26T12:23:57.903+02:00[Europe/Madrid]</time>
      </trkpt>
      <trkpt lat="36.912803" lon="-5.554098">
        <ele>211.0</ele>
        <time>2022-09-26T12:23:59.910+02:00[Europe/Madrid]</time>
      </trkpt>
      <trkpt lat="36.912719" lon="-5.554162">
        <ele>211.0</ele>
        <time>2022-09-26T12:24:00.910+02:00[Europe/Madrid]</time>
      </trkpt>
      <trkpt lat="36.912638" lon="-5.554255">
        <ele>211.0</ele>
        <time>2022-09-26T12:24:01.910+02:00[Europe/Madrid]</time>
      </trkpt>
      <trkpt lat="36.91255" lon="-5.554354">
        <ele>211.0</ele>
        <time>2022-09-26T12:24:02.910+02:00[Europe/Madrid]</time>
      </trkpt>
      <trkpt lat="36.912465" lon="-5.554439">
        <ele>212.0</ele>
        <time>2022-09-26T12:24:03.910+02:00[Europe/Madrid]</time>
      </trkpt>
      <trkpt lat="36.912381" lon="-5.554506">
        <ele>212.0</ele>
        <time>2022-09-26T12:24:04.910+02:00[Europe/Madrid]</time>
      </trkpt>
      <trkpt lat="36.912288" lon="-5.55456">
        <ele>212.0</ele>
        <time>2022-09-26T12:24:05.910+02:00[Europe/Madrid]</time>
      </trkpt>
      <trkpt lat="36.912194" lon="-5.5546">
        <ele>212.0</ele>
        <time>2022-09-26T12:24:06.910+02:00[Europe/Madrid]</time>
      </trkpt>
      <trkpt lat="36.912091" lon="-5.55463">
        <ele>212.0</ele>
        <time>2022-09-26T12:24:07.910+02:00[Europe/Madrid]</time>
      </trkpt>
      <trkpt lat="36.91198" lon="-5.554638">
        <ele>212.0</ele>
        <time>2022-09-26T12:24:08.910+02:00[Europe/Madrid]</time>
      </trkpt>
      <trkpt lat="36.911865" lon="-5.554625">
        <ele>213.0</ele>
        <time>2022-09-26T12:24:09.910+02:00[Europe/Madrid]</time>
      </trkpt>
      <trkpt lat="36.911751" lon="-5.55459">
        <ele>213.0</ele>
        <time>2022-09-26T12:24:10.910+02:00[Europe/Madrid]</time>
      </trkpt>
      <trkpt lat="36.911649" lon="-5.554536">
        <ele>214.0</ele>
        <time>2022-09-26T12:24:11.910+02:00[Europe/Madrid]</time>
      </trkpt>
      <trkpt lat="36.911559" lon="-5.554463">
        <ele>214.0</ele>
        <time>2022-09-26T12:24:12.910+02:00[Europe/Madrid]</time>
      </trkpt>
      <trkpt lat="36.911481" lon="-5.554376">
        <ele>214.0</ele>
        <time>2022-09-26T12:24:13.910+02:00[Europe/Madrid]</time>
      </trkpt>
      <trkpt lat="36.911414" lon="-5.554284">
        <ele>214.0</ele>
        <time>2022-09-26T12:24:14.916+02:00[Europe/Madrid]</time>
      </trkpt>
      <trkpt lat="36.911356" lon="-5.554192">
        <ele>214.0</ele>
        <time>2022-09-26T12:24:15.916+02:00[Europe/Madrid]</time>
      </trkpt>
      <trkpt lat="36.911294" lon="-5.554105">
        <ele>214.0</ele>
        <time>2022-09-26T12:24:16.916+02:00[Europe/Madrid]</time>
      </trkpt>
      <trkpt lat="36.91116" lon="-5.553997">
        <ele>214.0</ele>
        <time>2022-09-26T12:24:18.917+02:00[Europe/Madrid]</time>
      </trkpt>
      <trkpt lat="36.910992" lon="-5.553957">
        <ele>213.0</ele>
        <time>2022-09-26T12:24:20.910+02:00[Europe/Madrid]</time>
      </trkpt>
      <trkpt lat="36.910889" lon="-5.553955">
        <ele>213.0</ele>
        <time>2022-09-26T12:24:21.910+02:00[Europe/Madrid]</time>
      </trkpt>
      <trkpt lat="36.910771" lon="-5.55398">
        <ele>212.0</ele>
        <time>2022-09-26T12:24:22.910+02:00[Europe/Madrid]</time>
      </trkpt>
      <trkpt lat="36.91064" lon="-5.554035">
        <ele>212.0</ele>
        <time>2022-09-26T12:24:23.910+02:00[Europe/Madrid]</time>
      </trkpt>
      <trkpt lat="36.910502" lon="-5.554121">
        <ele>211.0</ele>
        <time>2022-09-26T12:24:24.910+02:00[Europe/Madrid]</time>
      </trkpt>
      <trkpt lat="36.910357" lon="-5.554222">
        <ele>211.0</ele>
        <time>2022-09-26T12:24:25.910+02:00[Europe/Madrid]</time>
      </trkpt>
      <trkpt lat="36.910206" lon="-5.554332">
        <ele>211.0</ele>
        <time>2022-09-26T12:24:26.910+02:00[Europe/Madrid]</time>
      </trkpt>
      <trkpt lat="36.910049" lon="-5.554444">
        <ele>211.0</ele>
        <time>2022-09-26T12:24:27.910+02:00[Europe/Madrid]</time>
      </trkpt>
      <trkpt lat="36.909877" lon="-5.554565">
        <ele>211.0</ele>
        <time>2022-09-26T12:24:28.910+02:00[Europe/Madrid]</time>
      </trkpt>
      <trkpt lat="36.909702" lon="-5.554689">
        <ele>211.0</ele>
        <time>2022-09-26T12:24:29.910+02:00[Europe/Madrid]</time>
      </trkpt>
      <trkpt lat="36.909522" lon="-5.554821">
        <ele>211.0</ele>
        <time>2022-09-26T12:24:30.910+02:00[Europe/Madrid]</time>
      </trkpt>
      <trkpt lat="36.909329" lon="-5.554961">
        <ele>211.0</ele>
        <time>2022-09-26T12:24:31.910+02:00[Europe/Madrid]</time>
      </trkpt>
      <trkpt lat="36.909132" lon="-5.555104">
        <ele>210.0</ele>
        <time>2022-09-26T12:24:32.912+02:00[Europe/Madrid]</time>
      </trkpt>
      <trkpt lat="36.908938" lon="-5.555242">
        <ele>210.0</ele>
        <time>2022-09-26T12:24:33.912+02:00[Europe/Madrid]</time>
      </trkpt>
      <trkpt lat="36.908747" lon="-5.555376">
        <ele>211.0</ele>
        <time>2022-09-26T12:24:34.916+02:00[Europe/Madrid]</time>
      </trkpt>
      <trkpt lat="36.908566" lon="-5.555503">
        <ele>211.0</ele>
        <time>2022-09-26T12:24:35.916+02:00[Europe/Madrid]</time>
      </trkpt>
      <trkpt lat="36.908388" lon="-5.55563">
        <ele>211.0</ele>
        <time>2022-09-26T12:24:36.916+02:00[Europe/Madrid]</time>
      </trkpt>
      <trkpt lat="36.908217" lon="-5.555743">
        <ele>211.0</ele>
        <time>2022-09-26T12:24:37.916+02:00[Europe/Madrid]</time>
      </trkpt>
      <trkpt lat="36.908044" lon="-5.555843">
        <ele>211.0</ele>
        <time>2022-09-26T12:24:38.917+02:00[Europe/Madrid]</time>
      </trkpt>
      <trkpt lat="36.907855" lon="-5.555926">
        <ele>211.0</ele>
        <time>2022-09-26T12:24:39.917+02:00[Europe/Madrid]</time>
      </trkpt>
      <trkpt lat="36.90766" lon="-5.556006">
        <ele>212.0</ele>
        <time>2022-09-26T12:24:40.917+02:00[Europe/Madrid]</time>
      </trkpt>
      <trkpt lat="36.907457" lon="-5.556088">
        <ele>212.0</ele>
        <time>2022-09-26T12:24:41.917+02:00[Europe/Madrid]</time>
      </trkpt>
      <trkpt lat="36.90725" lon="-5.556171">
        <ele>212.0</ele>
        <time>2022-09-26T12:24:42.917+02:00[Europe/Madrid]</time>
      </trkpt>
      <trkpt lat="36.907039" lon="-5.556252">
        <ele>212.0</ele>
        <time>2022-09-26T12:24:43.918+02:00[Europe/Madrid]</time>
      </trkpt>
      <trkpt lat="36.906826" lon="-5.556334">
        <ele>213.0</ele>
        <time>2022-09-26T12:24:44.918+02:00[Europe/Madrid]</time>
      </trkpt>
      <trkpt lat="36.906613" lon="-5.556419">
        <ele>213.0</ele>
        <time>2022-09-26T12:24:45.918+02:00[Europe/Madrid]</time>
      </trkpt>
      <trkpt lat="36.906401" lon="-5.556507">
        <ele>214.0</ele>
        <time>2022-09-26T12:24:46.918+02:00[Europe/Madrid]</time>
      </trkpt>
      <trkpt lat="36.906187" lon="-5.556594">
        <ele>214.0</ele>
        <time>2022-09-26T12:24:47.918+02:00[Europe/Madrid]</time>
      </trkpt>
      <trkpt lat="36.905971" lon="-5.556679">
        <ele>214.0</ele>
        <time>2022-09-26T12:24:48.918+02:00[Europe/Madrid]</time>
      </trkpt>
      <trkpt lat="36.905755" lon="-5.55676">
        <ele>214.0</ele>
        <time>2022-09-26T12:24:49.918+02:00[Europe/Madrid]</time>
      </trkpt>
      <trkpt lat="36.905535" lon="-5.556842">
        <ele>215.0</ele>
        <time>2022-09-26T12:24:50.918+02:00[Europe/Madrid]</time>
      </trkpt>
      <trkpt lat="36.905315" lon="-5.55693">
        <ele>215.0</ele>
        <time>2022-09-26T12:24:51.918+02:00[Europe/Madrid]</time>
      </trkpt>
      <trkpt lat="36.905096" lon="-5.557016">
        <ele>215.0</ele>
        <time>2022-09-26T12:24:52.918+02:00[Europe/Madrid]</time>
      </trkpt>
      <trkpt lat="36.904879" lon="-5.557103">
        <ele>216.0</ele>
        <time>2022-09-26T12:24:53.918+02:00[Europe/Madrid]</time>
      </trkpt>
      <trkpt lat="36.904657" lon="-5.557189">
        <ele>216.0</ele>
        <time>2022-09-26T12:24:54.918+02:00[Europe/Madrid]</time>
      </trkpt>
      <trkpt lat="36.904439" lon="-5.557273">
        <ele>216.0</ele>
        <time>2022-09-26T12:24:55.918+02:00[Europe/Madrid]</time>
      </trkpt>
      <trkpt lat="36.904229" lon="-5.557355">
        <ele>216.0</ele>
        <time>2022-09-26T12:24:56.918+02:00[Europe/Madrid]</time>
      </trkpt>
      <trkpt lat="36.904025" lon="-5.557435">
        <ele>217.0</ele>
        <time>2022-09-26T12:24:57.918+02:00[Europe/Madrid]</time>
      </trkpt>
      <trkpt lat="36.903832" lon="-5.557521">
        <ele>217.0</ele>
        <time>2022-09-26T12:24:58.918+02:00[Europe/Madrid]</time>
      </trkpt>
      <trkpt lat="36.903645" lon="-5.557622">
        <ele>217.0</ele>
        <time>2022-09-26T12:24:59.918+02:00[Europe/Madrid]</time>
      </trkpt>
      <trkpt lat="36.903466" lon="-5.557747">
        <ele>217.0</ele>
        <time>2022-09-26T12:25:00.918+02:00[Europe/Madrid]</time>
      </trkpt>
      <trkpt lat="36.903292" lon="-5.557902">
        <ele>217.0</ele>
        <time>2022-09-26T12:25:01.918+02:00[Europe/Madrid]</time>
      </trkpt>
      <trkpt lat="36.903124" lon="-5.558078">
        <ele>217.0</ele>
        <time>2022-09-26T12:25:02.918+02:00[Europe/Madrid]</time>
      </trkpt>
      <trkpt lat="36.902953" lon="-5.558258">
        <ele>217.0</ele>
        <time>2022-09-26T12:25:03.918+02:00[Europe/Madrid]</time>
      </trkpt>
      <trkpt lat="36.902779" lon="-5.558443">
        <ele>217.0</ele>
        <time>2022-09-26T12:25:04.918+02:00[Europe/Madrid]</time>
      </trkpt>
      <trkpt lat="36.902601" lon="-5.558629">
        <ele>217.0</ele>
        <time>2022-09-26T12:25:05.918+02:00[Europe/Madrid]</time>
      </trkpt>
      <trkpt lat="36.902425" lon="-5.558815">
        <ele>217.0</ele>
        <time>2022-09-26T12:25:06.918+02:00[Europe/Madrid]</time>
      </trkpt>
      <trkpt lat="36.902248" lon="-5.558999">
        <ele>217.0</ele>
        <time>2022-09-26T12:25:07.918+02:00[Europe/Madrid]</time>
      </trkpt>
      <trkpt lat="36.902073" lon="-5.559187">
        <ele>217.0</ele>
        <time>2022-09-26T12:25:08.918+02:00[Europe/Madrid]</time>
      </trkpt>
      <trkpt lat="36.901896" lon="-5.559373">
        <ele>217.0</ele>
        <time>2022-09-26T12:25:09.918+02:00[Europe/Madrid]</time>
      </trkpt>
      <trkpt lat="36.90172" lon="-5.559561">
        <ele>217.0</ele>
        <time>2022-09-26T12:25:10.918+02:00[Europe/Madrid]</time>
      </trkpt>
      <trkpt lat="36.901541" lon="-5.559749">
        <ele>217.0</ele>
        <time>2022-09-26T12:25:11.918+02:00[Europe/Madrid]</time>
      </trkpt>
      <trkpt lat="36.901363" lon="-5.55994">
        <ele>217.0</ele>
        <time>2022-09-26T12:25:12.918+02:00[Europe/Madrid]</time>
      </trkpt>
      <trkpt lat="36.901183" lon="-5.560131">
        <ele>217.0</ele>
        <time>2022-09-26T12:25:13.918+02:00[Europe/Madrid]</time>
      </trkpt>
      <trkpt lat="36.901004" lon="-5.560311">
        <ele>217.0</ele>
        <time>2022-09-26T12:25:14.918+02:00[Europe/Madrid]</time>
      </trkpt>
      <trkpt lat="36.900828" lon="-5.5605">
        <ele>217.0</ele>
        <time>2022-09-26T12:25:15.918+02:00[Europe/Madrid]</time>
      </trkpt>
      <trkpt lat="36.900653" lon="-5.560689">
        <ele>217.0</ele>
        <time>2022-09-26T12:25:16.918+02:00[Europe/Madrid]</time>
      </trkpt>
      <trkpt lat="36.900478" lon="-5.560881">
        <ele>217.0</ele>
        <time>2022-09-26T12:25:17.918+02:00[Europe/Madrid]</time>
      </trkpt>
      <trkpt lat="36.900303" lon="-5.561077">
        <ele>218.0</ele>
        <time>2022-09-26T12:25:18.918+02:00[Europe/Madrid]</time>
      </trkpt>
      <trkpt lat="36.900128" lon="-5.561282">
        <ele>218.0</ele>
        <time>2022-09-26T12:25:19.918+02:00[Europe/Madrid]</time>
      </trkpt>
      <trkpt lat="36.899953" lon="-5.561489">
        <ele>218.0</ele>
        <time>2022-09-26T12:25:21.014+02:00[Europe/Madrid]</time>
      </trkpt>
      <trkpt lat="36.899777" lon="-5.561699">
        <ele>218.0</ele>
        <time>2022-09-26T12:25:22.014+02:00[Europe/Madrid]</time>
      </trkpt>
      <trkpt lat="36.899604" lon="-5.56191">
        <ele>219.0</ele>
        <time>2022-09-26T12:25:23.014+02:00[Europe/Madrid]</time>
      </trkpt>
      <trkpt lat="36.89943" lon="-5.562121">
        <ele>219.0</ele>
        <time>2022-09-26T12:25:24.014+02:00[Europe/Madrid]</time>
      </trkpt>
      <trkpt lat="36.899261" lon="-5.562332">
        <ele>220.0</ele>
        <time>2022-09-26T12:25:25.014+02:00[Europe/Madrid]</time>
      </trkpt>
      <trkpt lat="36.899088" lon="-5.562539">
        <ele>220.0</ele>
        <time>2022-09-26T12:25:26.014+02:00[Europe/Madrid]</time>
      </trkpt>
      <trkpt lat="36.898917" lon="-5.562749">
        <ele>220.0</ele>
        <time>2022-09-26T12:25:27.014+02:00[Europe/Madrid]</time>
      </trkpt>
      <trkpt lat="36.898745" lon="-5.562956">
        <ele>221.0</ele>
        <time>2022-09-26T12:25:28.014+02:00[Europe/Madrid]</time>
      </trkpt>
      <trkpt lat="36.898567" lon="-5.563158">
        <ele>221.0</ele>
        <time>2022-09-26T12:25:29.014+02:00[Europe/Madrid]</time>
      </trkpt>
      <trkpt lat="36.898391" lon="-5.56336">
        <ele>221.0</ele>
        <time>2022-09-26T12:25:30.014+02:00[Europe/Madrid]</time>
      </trkpt>
      <trkpt lat="36.89821" lon="-5.563557">
        <ele>221.0</ele>
        <time>2022-09-26T12:25:31.014+02:00[Europe/Madrid]</time>
      </trkpt>
      <trkpt lat="36.898028" lon="-5.563755">
        <ele>221.0</ele>
        <time>2022-09-26T12:25:32.014+02:00[Europe/Madrid]</time>
      </trkpt>
      <trkpt lat="36.897845" lon="-5.563949">
        <ele>222.0</ele>
        <time>2022-09-26T12:25:33.014+02:00[Europe/Madrid]</time>
      </trkpt>
      <trkpt lat="36.897666" lon="-5.564139">
        <ele>222.0</ele>
        <time>2022-09-26T12:25:34.014+02:00[Europe/Madrid]</time>
      </trkpt>
      <trkpt lat="36.897485" lon="-5.564324">
        <ele>222.0</ele>
        <time>2022-09-26T12:25:35.014+02:00[Europe/Madrid]</time>
      </trkpt>
      <trkpt lat="36.897303" lon="-5.564507">
        <ele>222.0</ele>
        <time>2022-09-26T12:25:36.014+02:00[Europe/Madrid]</time>
      </trkpt>
      <trkpt lat="36.897124" lon="-5.564694">
        <ele>222.0</ele>
        <time>2022-09-26T12:25:37.014+02:00[Europe/Madrid]</time>
      </trkpt>
      <trkpt lat="36.896944" lon="-5.564878">
        <ele>222.0</ele>
        <time>2022-09-26T12:25:38.014+02:00[Europe/Madrid]</time>
      </trkpt>
      <trkpt lat="36.896763" lon="-5.565061">
        <ele>222.0</ele>
        <time>2022-09-26T12:25:39.014+02:00[Europe/Madrid]</time>
      </trkpt>
      <trkpt lat="36.896585" lon="-5.565244">
        <ele>222.0</ele>
        <time>2022-09-26T12:25:40.014+02:00[Europe/Madrid]</time>
      </trkpt>
      <trkpt lat="36.896407" lon="-5.565428">
        <ele>222.0</ele>
        <time>2022-09-26T12:25:41.014+02:00[Europe/Madrid]</time>
      </trkpt>
      <trkpt lat="36.89623" lon="-5.565606">
        <ele>223.0</ele>
        <time>2022-09-26T12:25:42.014+02:00[Europe/Madrid]</time>
      </trkpt>
      <trkpt lat="36.896054" lon="-5.565787">
        <ele>223.0</ele>
        <time>2022-09-26T12:25:43.014+02:00[Europe/Madrid]</time>
      </trkpt>
      <trkpt lat="36.895885" lon="-5.565964">
        <ele>223.0</ele>
        <time>2022-09-26T12:25:44.014+02:00[Europe/Madrid]</time>
      </trkpt>
      <trkpt lat="36.89572" lon="-5.566137">
        <ele>223.0</ele>
        <time>2022-09-26T12:25:45.014+02:00[Europe/Madrid]</time>
      </trkpt>
      <trkpt lat="36.895556" lon="-5.566303">
        <ele>223.0</ele>
        <time>2022-09-26T12:25:46.014+02:00[Europe/Madrid]</time>
      </trkpt>
      <trkpt lat="36.89539" lon="-5.566455">
        <ele>223.0</ele>
        <time>2022-09-26T12:25:47.014+02:00[Europe/Madrid]</time>
      </trkpt>
      <trkpt lat="36.895223" lon="-5.566597">
        <ele>223.0</ele>
        <time>2022-09-26T12:25:48.014+02:00[Europe/Madrid]</time>
      </trkpt>
      <trkpt lat="36.895046" lon="-5.566722">
        <ele>223.0</ele>
        <time>2022-09-26T12:25:49.014+02:00[Europe/Madrid]</time>
      </trkpt>
      <trkpt lat="36.894862" lon="-5.566844">
        <ele>223.0</ele>
        <time>2022-09-26T12:25:50.014+02:00[Europe/Madrid]</time>
      </trkpt>
      <trkpt lat="36.894677" lon="-5.566965">
        <ele>222.0</ele>
        <time>2022-09-26T12:25:51.014+02:00[Europe/Madrid]</time>
      </trkpt>
      <trkpt lat="36.894489" lon="-5.567088">
        <ele>222.0</ele>
        <time>2022-09-26T12:25:52.014+02:00[Europe/Madrid]</time>
      </trkpt>
      <trkpt lat="36.894297" lon="-5.567212">
        <ele>222.0</ele>
        <time>2022-09-26T12:25:53.014+02:00[Europe/Madrid]</time>
      </trkpt>
      <trkpt lat="36.894105" lon="-5.567338">
        <ele>222.0</ele>
        <time>2022-09-26T12:25:54.014+02:00[Europe/Madrid]</time>
      </trkpt>
      <trkpt lat="36.893911" lon="-5.567465">
        <ele>222.0</ele>
        <time>2022-09-26T12:25:55.014+02:00[Europe/Madrid]</time>
      </trkpt>
      <trkpt lat="36.893713" lon="-5.567593">
        <ele>221.0</ele>
        <time>2022-09-26T12:25:56.014+02:00[Europe/Madrid]</time>
      </trkpt>
      <trkpt lat="36.893519" lon="-5.56772">
        <ele>221.0</ele>
        <time>2022-09-26T12:25:57.014+02:00[Europe/Madrid]</time>
      </trkpt>
      <trkpt lat="36.893316" lon="-5.567845">
        <ele>221.0</ele>
        <time>2022-09-26T12:25:58.014+02:00[Europe/Madrid]</time>
      </trkpt>
      <trkpt lat="36.893112" lon="-5.567977">
        <ele>221.0</ele>
        <time>2022-09-26T12:25:59.014+02:00[Europe/Madrid]</time>
      </trkpt>
      <trkpt lat="36.892907" lon="-5.568109">
        <ele>221.0</ele>
        <time>2022-09-26T12:26:00.014+02:00[Europe/Madrid]</time>
      </trkpt>
      <trkpt lat="36.8927" lon="-5.568239">
        <ele>221.0</ele>
        <time>2022-09-26T12:26:01.014+02:00[Europe/Madrid]</time>
      </trkpt>
      <trkpt lat="36.892495" lon="-5.568374">
        <ele>221.0</ele>
        <time>2022-09-26T12:26:02.014+02:00[Europe/Madrid]</time>
      </trkpt>
      <trkpt lat="36.892282" lon="-5.56851">
        <ele>221.0</ele>
        <time>2022-09-26T12:26:03.014+02:00[Europe/Madrid]</time>
      </trkpt>
      <trkpt lat="36.892067" lon="-5.568646">
        <ele>221.0</ele>
        <time>2022-09-26T12:26:04.014+02:00[Europe/Madrid]</time>
      </trkpt>
      <trkpt lat="36.891849" lon="-5.568785">
        <ele>221.0</ele>
        <time>2022-09-26T12:26:05.014+02:00[Europe/Madrid]</time>
      </trkpt>
      <trkpt lat="36.891629" lon="-5.568928">
        <ele>222.0</ele>
        <time>2022-09-26T12:26:06.014+02:00[Europe/Madrid]</time>
      </trkpt>
      <trkpt lat="36.891406" lon="-5.569072">
        <ele>222.0</ele>
        <time>2022-09-26T12:26:07.014+02:00[Europe/Madrid]</time>
      </trkpt>
      <trkpt lat="36.891187" lon="-5.569214">
        <ele>222.0</ele>
        <time>2022-09-26T12:26:08.014+02:00[Europe/Madrid]</time>
      </trkpt>
      <trkpt lat="36.890963" lon="-5.569357">
        <ele>222.0</ele>
        <time>2022-09-26T12:26:09.014+02:00[Europe/Madrid]</time>
      </trkpt>
      <trkpt lat="36.890735" lon="-5.569502">
        <ele>222.0</ele>
        <time>2022-09-26T12:26:10.014+02:00[Europe/Madrid]</time>
      </trkpt>
      <trkpt lat="36.890508" lon="-5.56964">
        <ele>222.0</ele>
        <time>2022-09-26T12:26:11.014+02:00[Europe/Madrid]</time>
      </trkpt>
      <trkpt lat="36.890283" lon="-5.569768">
        <ele>223.0</ele>
        <time>2022-09-26T12:26:12.014+02:00[Europe/Madrid]</time>
      </trkpt>
      <trkpt lat="36.890067" lon="-5.569885">
        <ele>223.0</ele>
        <time>2022-09-26T12:26:13.014+02:00[Europe/Madrid]</time>
      </trkpt>
      <trkpt lat="36.889852" lon="-5.569997">
        <ele>223.0</ele>
        <time>2022-09-26T12:26:14.014+02:00[Europe/Madrid]</time>
      </trkpt>
      <trkpt lat="36.889636" lon="-5.570112">
        <ele>223.0</ele>
        <time>2022-09-26T12:26:15.014+02:00[Europe/Madrid]</time>
      </trkpt>
      <trkpt lat="36.889422" lon="-5.570223">
        <ele>224.0</ele>
        <time>2022-09-26T12:26:16.014+02:00[Europe/Madrid]</time>
      </trkpt>
      <trkpt lat="36.889202" lon="-5.570338">
        <ele>224.0</ele>
        <time>2022-09-26T12:26:17.014+02:00[Europe/Madrid]</time>
      </trkpt>
      <trkpt lat="36.888997" lon="-5.570444">
        <ele>224.0</ele>
        <time>2022-09-26T12:26:18.014+02:00[Europe/Madrid]</time>
      </trkpt>
      <trkpt lat="36.8888" lon="-5.570547">
        <ele>225.0</ele>
        <time>2022-09-26T12:26:19.014+02:00[Europe/Madrid]</time>
      </trkpt>
      <trkpt lat="36.888615" lon="-5.57064">
        <ele>224.0</ele>
        <time>2022-09-26T12:26:20.014+02:00[Europe/Madrid]</time>
      </trkpt>
      <trkpt lat="36.888434" lon="-5.570735">
        <ele>225.0</ele>
        <time>2022-09-26T12:26:21.014+02:00[Europe/Madrid]</time>
      </trkpt>
      <trkpt lat="36.888247" lon="-5.570832">
        <ele>225.0</ele>
        <time>2022-09-26T12:26:22.014+02:00[Europe/Madrid]</time>
      </trkpt>
      <trkpt lat="36.888062" lon="-5.57093">
        <ele>225.0</ele>
        <time>2022-09-26T12:26:23.014+02:00[Europe/Madrid]</time>
      </trkpt>
      <trkpt lat="36.887873" lon="-5.571028">
        <ele>225.0</ele>
        <time>2022-09-26T12:26:24.014+02:00[Europe/Madrid]</time>
      </trkpt>
      <trkpt lat="36.887681" lon="-5.571128">
        <ele>225.0</ele>
        <time>2022-09-26T12:26:25.014+02:00[Europe/Madrid]</time>
      </trkpt>
      <trkpt lat="36.887492" lon="-5.571231">
        <ele>225.0</ele>
        <time>2022-09-26T12:26:26.014+02:00[Europe/Madrid]</time>
      </trkpt>
      <trkpt lat="36.887295" lon="-5.571338">
        <ele>225.0</ele>
        <time>2022-09-26T12:26:27.014+02:00[Europe/Madrid]</time>
      </trkpt>
      <trkpt lat="36.887095" lon="-5.57145">
        <ele>225.0</ele>
        <time>2022-09-26T12:26:28.014+02:00[Europe/Madrid]</time>
      </trkpt>
      <trkpt lat="36.886884" lon="-5.571572">
        <ele>225.0</ele>
        <time>2022-09-26T12:26:29.014+02:00[Europe/Madrid]</time>
      </trkpt>
      <trkpt lat="36.886672" lon="-5.571697">
        <ele>224.0</ele>
        <time>2022-09-26T12:26:30.014+02:00[Europe/Madrid]</time>
      </trkpt>
      <trkpt lat="36.88646" lon="-5.571828">
        <ele>224.0</ele>
        <time>2022-09-26T12:26:31.014+02:00[Europe/Madrid]</time>
      </trkpt>
      <trkpt lat="36.886249" lon="-5.571957">
        <ele>224.0</ele>
        <time>2022-09-26T12:26:32.014+02:00[Europe/Madrid]</time>
      </trkpt>
      <trkpt lat="36.886034" lon="-5.572095">
        <ele>224.0</ele>
        <time>2022-09-26T12:26:33.014+02:00[Europe/Madrid]</time>
      </trkpt>
      <trkpt lat="36.885815" lon="-5.572239">
        <ele>223.0</ele>
        <time>2022-09-26T12:26:34.014+02:00[Europe/Madrid]</time>
      </trkpt>
      <trkpt lat="36.885592" lon="-5.572387">
        <ele>223.0</ele>
        <time>2022-09-26T12:26:35.014+02:00[Europe/Madrid]</time>
      </trkpt>
      <trkpt lat="36.885366" lon="-5.572537">
        <ele>223.0</ele>
        <time>2022-09-26T12:26:36.014+02:00[Europe/Madrid]</time>
      </trkpt>
      <trkpt lat="36.885136" lon="-5.572689">
        <ele>223.0</ele>
        <time>2022-09-26T12:26:37.014+02:00[Europe/Madrid]</time>
      </trkpt>
      <trkpt lat="36.884913" lon="-5.57284">
        <ele>223.0</ele>
        <time>2022-09-26T12:26:38.014+02:00[Europe/Madrid]</time>
      </trkpt>
      <trkpt lat="36.884692" lon="-5.572988">
        <ele>222.0</ele>
        <time>2022-09-26T12:26:39.014+02:00[Europe/Madrid]</time>
      </trkpt>
      <trkpt lat="36.884474" lon="-5.573134">
        <ele>222.0</ele>
        <time>2022-09-26T12:26:40.014+02:00[Europe/Madrid]</time>
      </trkpt>
      <trkpt lat="36.884265" lon="-5.573278">
        <ele>222.0</ele>
        <time>2022-09-26T12:26:41.014+02:00[Europe/Madrid]</time>
      </trkpt>
      <trkpt lat="36.884066" lon="-5.57341">
        <ele>222.0</ele>
        <time>2022-09-26T12:26:42.014+02:00[Europe/Madrid]</time>
      </trkpt>
      <trkpt lat="36.883875" lon="-5.573539">
        <ele>222.0</ele>
        <time>2022-09-26T12:26:43.014+02:00[Europe/Madrid]</time>
      </trkpt>
      <trkpt lat="36.883689" lon="-5.573663">
        <ele>221.0</ele>
        <time>2022-09-26T12:26:44.014+02:00[Europe/Madrid]</time>
      </trkpt>
      <trkpt lat="36.883513" lon="-5.573782">
        <ele>221.0</ele>
        <time>2022-09-26T12:26:45.014+02:00[Europe/Madrid]</time>
      </trkpt>
      <trkpt lat="36.883344" lon="-5.573899">
        <ele>221.0</ele>
        <time>2022-09-26T12:26:46.014+02:00[Europe/Madrid]</time>
      </trkpt>
      <trkpt lat="36.883173" lon="-5.574013">
        <ele>221.0</ele>
        <time>2022-09-26T12:26:47.014+02:00[Europe/Madrid]</time>
      </trkpt>
      <trkpt lat="36.883005" lon="-5.574125">
        <ele>221.0</ele>
        <time>2022-09-26T12:26:48.014+02:00[Europe/Madrid]</time>
      </trkpt>
      <trkpt lat="36.882848" lon="-5.574232">
        <ele>221.0</ele>
        <time>2022-09-26T12:26:49.014+02:00[Europe/Madrid]</time>
      </trkpt>
      <trkpt lat="36.882695" lon="-5.574334">
        <ele>220.0</ele>
        <time>2022-09-26T12:26:50.014+02:00[Europe/Madrid]</time>
      </trkpt>
      <trkpt lat="36.882548" lon="-5.574427">
        <ele>220.0</ele>
        <time>2022-09-26T12:26:51.014+02:00[Europe/Madrid]</time>
      </trkpt>
      <trkpt lat="36.882404" lon="-5.574508">
        <ele>220.0</ele>
        <time>2022-09-26T12:26:52.014+02:00[Europe/Madrid]</time>
      </trkpt>
      <trkpt lat="36.882259" lon="-5.574579">
        <ele>219.0</ele>
        <time>2022-09-26T12:26:53.014+02:00[Europe/Madrid]</time>
      </trkpt>
      <trkpt lat="36.882117" lon="-5.574636">
        <ele>219.0</ele>
        <time>2022-09-26T12:26:54.014+02:00[Europe/Madrid]</time>
      </trkpt>
      <trkpt lat="36.881983" lon="-5.574679">
        <ele>218.0</ele>
        <time>2022-09-26T12:26:55.014+02:00[Europe/Madrid]</time>
      </trkpt>
      <trkpt lat="36.881854" lon="-5.574708">
        <ele>217.0</ele>
        <time>2022-09-26T12:26:56.014+02:00[Europe/Madrid]</time>
      </trkpt>
      <trkpt lat="36.881738" lon="-5.574728">
        <ele>216.0</ele>
        <time>2022-09-26T12:26:57.014+02:00[Europe/Madrid]</time>
      </trkpt>
      <trkpt lat="36.881634" lon="-5.574747">
        <ele>216.0</ele>
        <time>2022-09-26T12:26:58.014+02:00[Europe/Madrid]</time>
      </trkpt>
      <trkpt lat="36.881485" lon="-5.574804">
        <ele>215.0</ele>
        <time>2022-09-26T12:26:59.907+02:00[Europe/Madrid]</time>
      </trkpt>
      <trkpt lat="36.881373" lon="-5.574934">
        <ele>215.0</ele>
        <time>2022-09-26T12:27:01.914+02:00[Europe/Madrid]</time>
      </trkpt>
      <trkpt lat="36.881326" lon="-5.575042">
        <ele>215.0</ele>
        <time>2022-09-26T12:27:02.914+02:00[Europe/Madrid]</time>
      </trkpt>
      <trkpt lat="36.881277" lon="-5.575174">
        <ele>216.0</ele>
        <time>2022-09-26T12:27:03.914+02:00[Europe/Madrid]</time>
      </trkpt>
      <trkpt lat="36.881208" lon="-5.575326">
        <ele>216.0</ele>
        <time>2022-09-26T12:27:04.914+02:00[Europe/Madrid]</time>
      </trkpt>
      <trkpt lat="36.881119" lon="-5.575492">
        <ele>216.0</ele>
        <time>2022-09-26T12:27:05.914+02:00[Europe/Madrid]</time>
      </trkpt>
      <trkpt lat="36.881021" lon="-5.575667">
        <ele>216.0</ele>
        <time>2022-09-26T12:27:06.914+02:00[Europe/Madrid]</time>
      </trkpt>
      <trkpt lat="36.880922" lon="-5.575838">
        <ele>217.0</ele>
        <time>2022-09-26T12:27:07.914+02:00[Europe/Madrid]</time>
      </trkpt>
      <trkpt lat="36.88083" lon="-5.576003">
        <ele>217.0</ele>
        <time>2022-09-26T12:27:08.914+02:00[Europe/Madrid]</time>
      </trkpt>
      <trkpt lat="36.880749" lon="-5.576173">
        <ele>217.0</ele>
        <time>2022-09-26T12:27:09.914+02:00[Europe/Madrid]</time>
      </trkpt>
      <trkpt lat="36.88068" lon="-5.57636">
        <ele>216.0</ele>
        <time>2022-09-26T12:27:10.914+02:00[Europe/Madrid]</time>
      </trkpt>
      <trkpt lat="36.880609" lon="-5.576556">
        <ele>216.0</ele>
        <time>2022-09-26T12:27:11.914+02:00[Europe/Madrid]</time>
      </trkpt>
      <trkpt lat="36.880529" lon="-5.576761">
        <ele>216.0</ele>
        <time>2022-09-26T12:27:12.914+02:00[Europe/Madrid]</time>
      </trkpt>
      <trkpt lat="36.880437" lon="-5.576978">
        <ele>215.0</ele>
        <time>2022-09-26T12:27:13.914+02:00[Europe/Madrid]</time>
      </trkpt>
      <trkpt lat="36.880332" lon="-5.577204">
        <ele>215.0</ele>
        <time>2022-09-26T12:27:14.914+02:00[Europe/Madrid]</time>
      </trkpt>
      <trkpt lat="36.880221" lon="-5.577442">
        <ele>214.0</ele>
        <time>2022-09-26T12:27:15.914+02:00[Europe/Madrid]</time>
      </trkpt>
      <trkpt lat="36.880108" lon="-5.577688">
        <ele>214.0</ele>
        <time>2022-09-26T12:27:16.914+02:00[Europe/Madrid]</time>
      </trkpt>
      <trkpt lat="36.879985" lon="-5.577936">
        <ele>213.0</ele>
        <time>2022-09-26T12:27:17.914+02:00[Europe/Madrid]</time>
      </trkpt>
      <trkpt lat="36.879851" lon="-5.578193">
        <ele>213.0</ele>
        <time>2022-09-26T12:27:18.914+02:00[Europe/Madrid]</time>
      </trkpt>
      <trkpt lat="36.879711" lon="-5.578463">
        <ele>212.0</ele>
        <time>2022-09-26T12:27:19.914+02:00[Europe/Madrid]</time>
      </trkpt>
      <trkpt lat="36.879574" lon="-5.578725">
        <ele>212.0</ele>
        <time>2022-09-26T12:27:20.914+02:00[Europe/Madrid]</time>
      </trkpt>
      <trkpt lat="36.879444" lon="-5.578974">
        <ele>212.0</ele>
        <time>2022-09-26T12:27:21.914+02:00[Europe/Madrid]</time>
      </trkpt>
      <trkpt lat="36.879314" lon="-5.579218">
        <ele>212.0</ele>
        <time>2022-09-26T12:27:22.914+02:00[Europe/Madrid]</time>
      </trkpt>
      <trkpt lat="36.879181" lon="-5.579467">
        <ele>211.0</ele>
        <time>2022-09-26T12:27:23.914+02:00[Europe/Madrid]</time>
      </trkpt>
      <trkpt lat="36.879047" lon="-5.579716">
        <ele>212.0</ele>
        <time>2022-09-26T12:27:24.914+02:00[Europe/Madrid]</time>
      </trkpt>
      <trkpt lat="36.878916" lon="-5.579967">
        <ele>212.0</ele>
        <time>2022-09-26T12:27:25.914+02:00[Europe/Madrid]</time>
      </trkpt>
      <trkpt lat="36.878788" lon="-5.580216">
        <ele>211.0</ele>
        <time>2022-09-26T12:27:26.914+02:00[Europe/Madrid]</time>
      </trkpt>
      <trkpt lat="36.878654" lon="-5.580469">
        <ele>212.0</ele>
        <time>2022-09-26T12:27:27.914+02:00[Europe/Madrid]</time>
      </trkpt>
      <trkpt lat="36.878519" lon="-5.580724">
        <ele>212.0</ele>
        <time>2022-09-26T12:27:28.914+02:00[Europe/Madrid]</time>
      </trkpt>
      <trkpt lat="36.878384" lon="-5.580982">
        <ele>212.0</ele>
        <time>2022-09-26T12:27:29.914+02:00[Europe/Madrid]</time>
      </trkpt>
      <trkpt lat="36.878244" lon="-5.581246">
        <ele>211.0</ele>
        <time>2022-09-26T12:27:30.914+02:00[Europe/Madrid]</time>
      </trkpt>
      <trkpt lat="36.878103" lon="-5.581509">
        <ele>212.0</ele>
        <time>2022-09-26T12:27:31.914+02:00[Europe/Madrid]</time>
      </trkpt>
      <trkpt lat="36.877965" lon="-5.581768">
        <ele>212.0</ele>
        <time>2022-09-26T12:27:32.914+02:00[Europe/Madrid]</time>
      </trkpt>
      <trkpt lat="36.877828" lon="-5.582021">
        <ele>212.0</ele>
        <time>2022-09-26T12:27:33.914+02:00[Europe/Madrid]</time>
      </trkpt>
      <trkpt lat="36.877693" lon="-5.582271">
        <ele>211.0</ele>
        <time>2022-09-26T12:27:34.914+02:00[Europe/Madrid]</time>
      </trkpt>
      <trkpt lat="36.877561" lon="-5.582519">
        <ele>212.0</ele>
        <time>2022-09-26T12:27:35.914+02:00[Europe/Madrid]</time>
      </trkpt>
      <trkpt lat="36.877427" lon="-5.582767">
        <ele>212.0</ele>
        <time>2022-09-26T12:27:36.914+02:00[Europe/Madrid]</time>
      </trkpt>
      <trkpt lat="36.877297" lon="-5.583018">
        <ele>212.0</ele>
        <time>2022-09-26T12:27:37.914+02:00[Europe/Madrid]</time>
      </trkpt>
      <trkpt lat="36.877166" lon="-5.583271">
        <ele>212.0</ele>
        <time>2022-09-26T12:27:38.914+02:00[Europe/Madrid]</time>
      </trkpt>
      <trkpt lat="36.877036" lon="-5.583521">
        <ele>211.0</ele>
        <time>2022-09-26T12:27:39.914+02:00[Europe/Madrid]</time>
      </trkpt>
      <trkpt lat="36.876905" lon="-5.583766">
        <ele>211.0</ele>
        <time>2022-09-26T12:27:40.914+02:00[Europe/Madrid]</time>
      </trkpt>
      <trkpt lat="36.876773" lon="-5.584009">
        <ele>211.0</ele>
        <time>2022-09-26T12:27:41.914+02:00[Europe/Madrid]</time>
      </trkpt>
      <trkpt lat="36.876643" lon="-5.584253">
        <ele>211.0</ele>
        <time>2022-09-26T12:27:42.914+02:00[Europe/Madrid]</time>
      </trkpt>
      <trkpt lat="36.876515" lon="-5.58449">
        <ele>211.0</ele>
        <time>2022-09-26T12:27:43.914+02:00[Europe/Madrid]</time>
      </trkpt>
      <trkpt lat="36.876391" lon="-5.584727">
        <ele>211.0</ele>
        <time>2022-09-26T12:27:44.914+02:00[Europe/Madrid]</time>
      </trkpt>
      <trkpt lat="36.876267" lon="-5.584962">
        <ele>211.0</ele>
        <time>2022-09-26T12:27:45.914+02:00[Europe/Madrid]</time>
      </trkpt>
      <trkpt lat="36.876144" lon="-5.585192">
        <ele>211.0</ele>
        <time>2022-09-26T12:27:46.914+02:00[Europe/Madrid]</time>
      </trkpt>
      <trkpt lat="36.876021" lon="-5.585425">
        <ele>211.0</ele>
        <time>2022-09-26T12:27:47.914+02:00[Europe/Madrid]</time>
      </trkpt>
      <trkpt lat="36.875898" lon="-5.585657">
        <ele>211.0</ele>
        <time>2022-09-26T12:27:48.914+02:00[Europe/Madrid]</time>
      </trkpt>
      <trkpt lat="36.875777" lon="-5.585891">
        <ele>211.0</ele>
        <time>2022-09-26T12:27:49.914+02:00[Europe/Madrid]</time>
      </trkpt>
      <trkpt lat="36.875654" lon="-5.586123">
        <ele>210.0</ele>
        <time>2022-09-26T12:27:50.914+02:00[Europe/Madrid]</time>
      </trkpt>
      <trkpt lat="36.875533" lon="-5.58636">
        <ele>210.0</ele>
        <time>2022-09-26T12:27:51.914+02:00[Europe/Madrid]</time>
      </trkpt>
      <trkpt lat="36.875407" lon="-5.586596">
        <ele>209.0</ele>
        <time>2022-09-26T12:27:52.914+02:00[Europe/Madrid]</time>
      </trkpt>
      <trkpt lat="36.875279" lon="-5.586833">
        <ele>208.0</ele>
        <time>2022-09-26T12:27:53.914+02:00[Europe/Madrid]</time>
      </trkpt>
      <trkpt lat="36.875148" lon="-5.58708">
        <ele>208.0</ele>
        <time>2022-09-26T12:27:54.914+02:00[Europe/Madrid]</time>
      </trkpt>
      <trkpt lat="36.875016" lon="-5.587327">
        <ele>207.0</ele>
        <time>2022-09-26T12:27:55.914+02:00[Europe/Madrid]</time>
      </trkpt>
      <trkpt lat="36.874887" lon="-5.587575">
        <ele>206.0</ele>
        <time>2022-09-26T12:27:56.914+02:00[Europe/Madrid]</time>
      </trkpt>
      <trkpt lat="36.874752" lon="-5.587827">
        <ele>206.0</ele>
        <time>2022-09-26T12:27:57.914+02:00[Europe/Madrid]</time>
      </trkpt>
      <trkpt lat="36.874621" lon="-5.588083">
        <ele>205.0</ele>
        <time>2022-09-26T12:27:58.914+02:00[Europe/Madrid]</time>
      </trkpt>
      <trkpt lat="36.87449" lon="-5.588334">
        <ele>205.0</ele>
        <time>2022-09-26T12:27:59.914+02:00[Europe/Madrid]</time>
      </trkpt>
      <trkpt lat="36.874359" lon="-5.58858">
        <ele>204.0</ele>
        <time>2022-09-26T12:28:00.914+02:00[Europe/Madrid]</time>
      </trkpt>
      <trkpt lat="36.874232" lon="-5.58882">
        <ele>204.0</ele>
        <time>2022-09-26T12:28:01.914+02:00[Europe/Madrid]</time>
      </trkpt>
      <trkpt lat="36.874106" lon="-5.58906">
        <ele>204.0</ele>
        <time>2022-09-26T12:28:02.914+02:00[Europe/Madrid]</time>
      </trkpt>
      <trkpt lat="36.873981" lon="-5.5893">
        <ele>204.0</ele>
        <time>2022-09-26T12:28:03.914+02:00[Europe/Madrid]</time>
      </trkpt>
      <trkpt lat="36.873856" lon="-5.589533">
        <ele>203.0</ele>
        <time>2022-09-26T12:28:04.914+02:00[Europe/Madrid]</time>
      </trkpt>
      <trkpt lat="36.87373" lon="-5.58977">
        <ele>203.0</ele>
        <time>2022-09-26T12:28:05.914+02:00[Europe/Madrid]</time>
      </trkpt>
      <trkpt lat="36.873603" lon="-5.590008">
        <ele>203.0</ele>
        <time>2022-09-26T12:28:06.914+02:00[Europe/Madrid]</time>
      </trkpt>
      <trkpt lat="36.873473" lon="-5.590252">
        <ele>203.0</ele>
        <time>2022-09-26T12:28:07.914+02:00[Europe/Madrid]</time>
      </trkpt>
      <trkpt lat="36.873342" lon="-5.590499">
        <ele>203.0</ele>
        <time>2022-09-26T12:28:08.914+02:00[Europe/Madrid]</time>
      </trkpt>
      <trkpt lat="36.873212" lon="-5.590747">
        <ele>203.0</ele>
        <time>2022-09-26T12:28:09.914+02:00[Europe/Madrid]</time>
      </trkpt>
      <trkpt lat="36.873079" lon="-5.590995">
        <ele>203.0</ele>
        <time>2022-09-26T12:28:10.914+02:00[Europe/Madrid]</time>
      </trkpt>
      <trkpt lat="36.872945" lon="-5.591249">
        <ele>204.0</ele>
        <time>2022-09-26T12:28:11.914+02:00[Europe/Madrid]</time>
      </trkpt>
      <trkpt lat="36.872816" lon="-5.591494">
        <ele>203.0</ele>
        <time>2022-09-26T12:28:12.914+02:00[Europe/Madrid]</time>
      </trkpt>
      <trkpt lat="36.872692" lon="-5.591728">
        <ele>203.0</ele>
        <time>2022-09-26T12:28:13.914+02:00[Europe/Madrid]</time>
      </trkpt>
      <trkpt lat="36.872571" lon="-5.591959">
        <ele>203.0</ele>
        <time>2022-09-26T12:28:14.914+02:00[Europe/Madrid]</time>
      </trkpt>
      <trkpt lat="36.872446" lon="-5.592191">
        <ele>203.0</ele>
        <time>2022-09-26T12:28:15.914+02:00[Europe/Madrid]</time>
      </trkpt>
      <trkpt lat="36.872319" lon="-5.592425">
        <ele>203.0</ele>
        <time>2022-09-26T12:28:16.914+02:00[Europe/Madrid]</time>
      </trkpt>
      <trkpt lat="36.872192" lon="-5.592661">
        <ele>203.0</ele>
        <time>2022-09-26T12:28:17.914+02:00[Europe/Madrid]</time>
      </trkpt>
      <trkpt lat="36.872064" lon="-5.592905">
        <ele>203.0</ele>
        <time>2022-09-26T12:28:18.914+02:00[Europe/Madrid]</time>
      </trkpt>
      <trkpt lat="36.871934" lon="-5.593147">
        <ele>203.0</ele>
        <time>2022-09-26T12:28:19.914+02:00[Europe/Madrid]</time>
      </trkpt>
      <trkpt lat="36.871805" lon="-5.593395">
        <ele>202.0</ele>
        <time>2022-09-26T12:28:20.914+02:00[Europe/Madrid]</time>
      </trkpt>
      <trkpt lat="36.871681" lon="-5.593634">
        <ele>202.0</ele>
        <time>2022-09-26T12:28:21.914+02:00[Europe/Madrid]</time>
      </trkpt>
      <trkpt lat="36.871555" lon="-5.593868">
        <ele>201.0</ele>
        <time>2022-09-26T12:28:22.914+02:00[Europe/Madrid]</time>
      </trkpt>
      <trkpt lat="36.871431" lon="-5.594105">
        <ele>201.0</ele>
        <time>2022-09-26T12:28:23.914+02:00[Europe/Madrid]</time>
      </trkpt>
      <trkpt lat="36.871311" lon="-5.594335">
        <ele>201.0</ele>
        <time>2022-09-26T12:28:24.914+02:00[Europe/Madrid]</time>
      </trkpt>
      <trkpt lat="36.87119" lon="-5.594561">
        <ele>201.0</ele>
        <time>2022-09-26T12:28:25.914+02:00[Europe/Madrid]</time>
      </trkpt>
      <trkpt lat="36.871072" lon="-5.594784">
        <ele>201.0</ele>
        <time>2022-09-26T12:28:26.914+02:00[Europe/Madrid]</time>
      </trkpt>
      <trkpt lat="36.870952" lon="-5.595009">
        <ele>201.0</ele>
        <time>2022-09-26T12:28:27.914+02:00[Europe/Madrid]</time>
      </trkpt>
      <trkpt lat="36.870834" lon="-5.59523">
        <ele>201.0</ele>
        <time>2022-09-26T12:28:28.914+02:00[Europe/Madrid]</time>
      </trkpt>
      <trkpt lat="36.870715" lon="-5.595449">
        <ele>201.0</ele>
        <time>2022-09-26T12:28:29.914+02:00[Europe/Madrid]</time>
      </trkpt>
      <trkpt lat="36.870598" lon="-5.595668">
        <ele>201.0</ele>
        <time>2022-09-26T12:28:30.914+02:00[Europe/Madrid]</time>
      </trkpt>
      <trkpt lat="36.87048" lon="-5.595891">
        <ele>201.0</ele>
        <time>2022-09-26T12:28:31.914+02:00[Europe/Madrid]</time>
      </trkpt>
      <trkpt lat="36.870364" lon="-5.596116">
        <ele>201.0</ele>
        <time>2022-09-26T12:28:32.914+02:00[Europe/Madrid]</time>
      </trkpt>
      <trkpt lat="36.87025" lon="-5.596341">
        <ele>202.0</ele>
        <time>2022-09-26T12:28:33.914+02:00[Europe/Madrid]</time>
      </trkpt>
      <trkpt lat="36.870135" lon="-5.596561">
        <ele>202.0</ele>
        <time>2022-09-26T12:28:34.914+02:00[Europe/Madrid]</time>
      </trkpt>
      <trkpt lat="36.870018" lon="-5.59678">
        <ele>202.0</ele>
        <time>2022-09-26T12:28:35.914+02:00[Europe/Madrid]</time>
      </trkpt>
      <trkpt lat="36.869904" lon="-5.596994">
        <ele>202.0</ele>
        <time>2022-09-26T12:28:36.914+02:00[Europe/Madrid]</time>
      </trkpt>
      <trkpt lat="36.869792" lon="-5.597206">
        <ele>203.0</ele>
        <time>2022-09-26T12:28:37.914+02:00[Europe/Madrid]</time>
      </trkpt>
      <trkpt lat="36.869681" lon="-5.597414">
        <ele>203.0</ele>
        <time>2022-09-26T12:28:38.914+02:00[Europe/Madrid]</time>
      </trkpt>
      <trkpt lat="36.869573" lon="-5.597618">
        <ele>204.0</ele>
        <time>2022-09-26T12:28:39.914+02:00[Europe/Madrid]</time>
      </trkpt>
      <trkpt lat="36.869467" lon="-5.59782">
        <ele>204.0</ele>
        <time>2022-09-26T12:28:40.914+02:00[Europe/Madrid]</time>
      </trkpt>
      <trkpt lat="36.869358" lon="-5.598018">
        <ele>204.0</ele>
        <time>2022-09-26T12:28:41.914+02:00[Europe/Madrid]</time>
      </trkpt>
      <trkpt lat="36.869252" lon="-5.598218">
        <ele>205.0</ele>
        <time>2022-09-26T12:28:42.914+02:00[Europe/Madrid]</time>
      </trkpt>
      <trkpt lat="36.869146" lon="-5.598418">
        <ele>205.0</ele>
        <time>2022-09-26T12:28:43.914+02:00[Europe/Madrid]</time>
      </trkpt>
      <trkpt lat="36.869042" lon="-5.598619">
        <ele>206.0</ele>
        <time>2022-09-26T12:28:44.914+02:00[Europe/Madrid]</time>
      </trkpt>
      <trkpt lat="36.86894" lon="-5.598821">
        <ele>206.0</ele>
        <time>2022-09-26T12:28:45.914+02:00[Europe/Madrid]</time>
      </trkpt>
      <trkpt lat="36.868833" lon="-5.599028">
        <ele>206.0</ele>
        <time>2022-09-26T12:28:46.914+02:00[Europe/Madrid]</time>
      </trkpt>
      <trkpt lat="36.868723" lon="-5.599241">
        <ele>207.0</ele>
        <time>2022-09-26T12:28:47.914+02:00[Europe/Madrid]</time>
      </trkpt>
      <trkpt lat="36.868609" lon="-5.599452">
        <ele>207.0</ele>
        <time>2022-09-26T12:28:48.914+02:00[Europe/Madrid]</time>
      </trkpt>
      <trkpt lat="36.868499" lon="-5.599674">
        <ele>206.0</ele>
        <time>2022-09-26T12:28:49.914+02:00[Europe/Madrid]</time>
      </trkpt>
      <trkpt lat="36.868388" lon="-5.599903">
        <ele>206.0</ele>
        <time>2022-09-26T12:28:50.914+02:00[Europe/Madrid]</time>
      </trkpt>
      <trkpt lat="36.868277" lon="-5.600139">
        <ele>205.0</ele>
        <time>2022-09-26T12:28:51.914+02:00[Europe/Madrid]</time>
      </trkpt>
      <trkpt lat="36.868166" lon="-5.600385">
        <ele>205.0</ele>
        <time>2022-09-26T12:28:52.914+02:00[Europe/Madrid]</time>
      </trkpt>
      <trkpt lat="36.868059" lon="-5.600643">
        <ele>205.0</ele>
        <time>2022-09-26T12:28:53.914+02:00[Europe/Madrid]</time>
      </trkpt>
      <trkpt lat="36.867952" lon="-5.600907">
        <ele>204.0</ele>
        <time>2022-09-26T12:28:54.914+02:00[Europe/Madrid]</time>
      </trkpt>
      <trkpt lat="36.867845" lon="-5.601177">
        <ele>203.0</ele>
        <time>2022-09-26T12:28:55.914+02:00[Europe/Madrid]</time>
      </trkpt>
      <trkpt lat="36.867735" lon="-5.601452">
        <ele>202.0</ele>
        <time>2022-09-26T12:28:56.914+02:00[Europe/Madrid]</time>
      </trkpt>
      <trkpt lat="36.867626" lon="-5.601728">
        <ele>202.0</ele>
        <time>2022-09-26T12:28:57.914+02:00[Europe/Madrid]</time>
      </trkpt>
      <trkpt lat="36.867517" lon="-5.602008">
        <ele>201.0</ele>
        <time>2022-09-26T12:28:58.914+02:00[Europe/Madrid]</time>
      </trkpt>
      <trkpt lat="36.867404" lon="-5.602292">
        <ele>200.0</ele>
        <time>2022-09-26T12:28:59.914+02:00[Europe/Madrid]</time>
      </trkpt>
      <trkpt lat="36.867293" lon="-5.602581">
        <ele>200.0</ele>
        <time>2022-09-26T12:29:00.914+02:00[Europe/Madrid]</time>
      </trkpt>
      <trkpt lat="36.867177" lon="-5.602867">
        <ele>199.0</ele>
        <time>2022-09-26T12:29:01.914+02:00[Europe/Madrid]</time>
      </trkpt>
      <trkpt lat="36.867057" lon="-5.60315">
        <ele>198.0</ele>
        <time>2022-09-26T12:29:02.914+02:00[Europe/Madrid]</time>
      </trkpt>
      <trkpt lat="36.86694" lon="-5.603438">
        <ele>197.0</ele>
        <time>2022-09-26T12:29:03.914+02:00[Europe/Madrid]</time>
      </trkpt>
      <trkpt lat="36.866828" lon="-5.603723">
        <ele>196.0</ele>
        <time>2022-09-26T12:29:04.914+02:00[Europe/Madrid]</time>
      </trkpt>
      <trkpt lat="36.866718" lon="-5.604001">
        <ele>195.0</ele>
        <time>2022-09-26T12:29:05.914+02:00[Europe/Madrid]</time>
      </trkpt>
      <trkpt lat="36.866608" lon="-5.604278">
        <ele>195.0</ele>
        <time>2022-09-26T12:29:06.914+02:00[Europe/Madrid]</time>
      </trkpt>
      <trkpt lat="36.866495" lon="-5.604552">
        <ele>194.0</ele>
        <time>2022-09-26T12:29:07.914+02:00[Europe/Madrid]</time>
      </trkpt>
      <trkpt lat="36.866381" lon="-5.604826">
        <ele>193.0</ele>
        <time>2022-09-26T12:29:08.914+02:00[Europe/Madrid]</time>
      </trkpt>
      <trkpt lat="36.866267" lon="-5.605105">
        <ele>192.0</ele>
        <time>2022-09-26T12:29:09.914+02:00[Europe/Madrid]</time>
      </trkpt>
      <trkpt lat="36.866155" lon="-5.605386">
        <ele>192.0</ele>
        <time>2022-09-26T12:29:10.914+02:00[Europe/Madrid]</time>
      </trkpt>
      <trkpt lat="36.866042" lon="-5.605666">
        <ele>191.0</ele>
        <time>2022-09-26T12:29:11.914+02:00[Europe/Madrid]</time>
      </trkpt>
      <trkpt lat="36.865929" lon="-5.605943">
        <ele>190.0</ele>
        <time>2022-09-26T12:29:12.914+02:00[Europe/Madrid]</time>
      </trkpt>
      <trkpt lat="36.865824" lon="-5.606209">
        <ele>190.0</ele>
        <time>2022-09-26T12:29:13.914+02:00[Europe/Madrid]</time>
      </trkpt>
      <trkpt lat="36.865719" lon="-5.606476">
        <ele>190.0</ele>
        <time>2022-09-26T12:29:14.914+02:00[Europe/Madrid]</time>
      </trkpt>
      <trkpt lat="36.865616" lon="-5.606737">
        <ele>190.0</ele>
        <time>2022-09-26T12:29:15.914+02:00[Europe/Madrid]</time>
      </trkpt>
      <trkpt lat="36.865515" lon="-5.606987">
        <ele>190.0</ele>
        <time>2022-09-26T12:29:16.914+02:00[Europe/Madrid]</time>
      </trkpt>
      <trkpt lat="36.865414" lon="-5.607236">
        <ele>189.0</ele>
        <time>2022-09-26T12:29:17.914+02:00[Europe/Madrid]</time>
      </trkpt>
      <trkpt lat="36.865314" lon="-5.607489">
        <ele>190.0</ele>
        <time>2022-09-26T12:29:18.914+02:00[Europe/Madrid]</time>
      </trkpt>
      <trkpt lat="36.865215" lon="-5.607743">
        <ele>190.0</ele>
        <time>2022-09-26T12:29:19.914+02:00[Europe/Madrid]</time>
      </trkpt>
      <trkpt lat="36.865114" lon="-5.608001">
        <ele>190.0</ele>
        <time>2022-09-26T12:29:20.914+02:00[Europe/Madrid]</time>
      </trkpt>
      <trkpt lat="36.865008" lon="-5.608262">
        <ele>190.0</ele>
        <time>2022-09-26T12:29:21.914+02:00[Europe/Madrid]</time>
      </trkpt>
      <trkpt lat="36.864907" lon="-5.608521">
        <ele>190.0</ele>
        <time>2022-09-26T12:29:22.914+02:00[Europe/Madrid]</time>
      </trkpt>
      <trkpt lat="36.864808" lon="-5.60877">
        <ele>190.0</ele>
        <time>2022-09-26T12:29:23.914+02:00[Europe/Madrid]</time>
      </trkpt>
      <trkpt lat="36.86471" lon="-5.609016">
        <ele>190.0</ele>
        <time>2022-09-26T12:29:24.914+02:00[Europe/Madrid]</time>
      </trkpt>
      <trkpt lat="36.864616" lon="-5.609251">
        <ele>190.0</ele>
        <time>2022-09-26T12:29:25.914+02:00[Europe/Madrid]</time>
      </trkpt>
      <trkpt lat="36.864527" lon="-5.609475">
        <ele>190.0</ele>
        <time>2022-09-26T12:29:26.914+02:00[Europe/Madrid]</time>
      </trkpt>
      <trkpt lat="36.864441" lon="-5.609685">
        <ele>190.0</ele>
        <time>2022-09-26T12:29:27.914+02:00[Europe/Madrid]</time>
      </trkpt>
      <trkpt lat="36.864363" lon="-5.609882">
        <ele>190.0</ele>
        <time>2022-09-26T12:29:28.915+02:00[Europe/Madrid]</time>
      </trkpt>
      <trkpt lat="36.864288" lon="-5.61007">
        <ele>190.0</ele>
        <time>2022-09-26T12:29:29.915+02:00[Europe/Madrid]</time>
      </trkpt>
      <trkpt lat="36.864213" lon="-5.610262">
        <ele>190.0</ele>
        <time>2022-09-26T12:29:30.915+02:00[Europe/Madrid]</time>
      </trkpt>
      <trkpt lat="36.864137" lon="-5.61045">
        <ele>190.0</ele>
        <time>2022-09-26T12:29:31.915+02:00[Europe/Madrid]</time>
      </trkpt>
      <trkpt lat="36.86406" lon="-5.610645">
        <ele>190.0</ele>
        <time>2022-09-26T12:29:32.928+02:00[Europe/Madrid]</time>
      </trkpt>
      <trkpt lat="36.863984" lon="-5.610835">
        <ele>190.0</ele>
        <time>2022-09-26T12:29:33.928+02:00[Europe/Madrid]</time>
      </trkpt>
      <trkpt lat="36.863907" lon="-5.611026">
        <ele>190.0</ele>
        <time>2022-09-26T12:29:34.928+02:00[Europe/Madrid]</time>
      </trkpt>
      <trkpt lat="36.863833" lon="-5.611206">
        <ele>190.0</ele>
        <time>2022-09-26T12:29:35.928+02:00[Europe/Madrid]</time>
      </trkpt>
      <trkpt lat="36.863759" lon="-5.611383">
        <ele>190.0</ele>
        <time>2022-09-26T12:29:36.928+02:00[Europe/Madrid]</time>
      </trkpt>
      <trkpt lat="36.863688" lon="-5.611557">
        <ele>190.0</ele>
        <time>2022-09-26T12:29:37.928+02:00[Europe/Madrid]</time>
      </trkpt>
      <trkpt lat="36.86362" lon="-5.611727">
        <ele>190.0</ele>
        <time>2022-09-26T12:29:38.928+02:00[Europe/Madrid]</time>
      </trkpt>
      <trkpt lat="36.86355" lon="-5.6119">
        <ele>190.0</ele>
        <time>2022-09-26T12:29:39.928+02:00[Europe/Madrid]</time>
      </trkpt>
      <trkpt lat="36.863477" lon="-5.612078">
        <ele>190.0</ele>
        <time>2022-09-26T12:29:40.928+02:00[Europe/Madrid]</time>
      </trkpt>
      <trkpt lat="36.863404" lon="-5.612257">
        <ele>190.0</ele>
        <time>2022-09-26T12:29:41.928+02:00[Europe/Madrid]</time>
      </trkpt>
      <trkpt lat="36.863332" lon="-5.612444">
        <ele>189.0</ele>
        <time>2022-09-26T12:29:42.928+02:00[Europe/Madrid]</time>
      </trkpt>
      <trkpt lat="36.863253" lon="-5.612637">
        <ele>189.0</ele>
        <time>2022-09-26T12:29:43.928+02:00[Europe/Madrid]</time>
      </trkpt>
      <trkpt lat="36.863174" lon="-5.612835">
        <ele>189.0</ele>
        <time>2022-09-26T12:29:44.928+02:00[Europe/Madrid]</time>
      </trkpt>
      <trkpt lat="36.863097" lon="-5.613033">
        <ele>189.0</ele>
        <time>2022-09-26T12:29:45.928+02:00[Europe/Madrid]</time>
      </trkpt>
      <trkpt lat="36.863019" lon="-5.613234">
        <ele>189.0</ele>
        <time>2022-09-26T12:29:46.928+02:00[Europe/Madrid]</time>
      </trkpt>
      <trkpt lat="36.862943" lon="-5.613427">
        <ele>189.0</ele>
        <time>2022-09-26T12:29:47.928+02:00[Europe/Madrid]</time>
      </trkpt>
      <trkpt lat="36.862865" lon="-5.613612">
        <ele>190.0</ele>
        <time>2022-09-26T12:29:48.928+02:00[Europe/Madrid]</time>
      </trkpt>
      <trkpt lat="36.86279" lon="-5.6138">
        <ele>190.0</ele>
        <time>2022-09-26T12:29:49.928+02:00[Europe/Madrid]</time>
      </trkpt>
      <trkpt lat="36.862717" lon="-5.613988">
        <ele>190.0</ele>
        <time>2022-09-26T12:29:50.928+02:00[Europe/Madrid]</time>
      </trkpt>
      <trkpt lat="36.862643" lon="-5.614168">
        <ele>191.0</ele>
        <time>2022-09-26T12:29:51.928+02:00[Europe/Madrid]</time>
      </trkpt>
      <trkpt lat="36.862574" lon="-5.614346">
        <ele>191.0</ele>
        <time>2022-09-26T12:29:52.928+02:00[Europe/Madrid]</time>
      </trkpt>
      <trkpt lat="36.862499" lon="-5.614526">
        <ele>192.0</ele>
        <time>2022-09-26T12:29:53.928+02:00[Europe/Madrid]</time>
      </trkpt>
      <trkpt lat="36.862426" lon="-5.614711">
        <ele>192.0</ele>
        <time>2022-09-26T12:29:54.928+02:00[Europe/Madrid]</time>
      </trkpt>
      <trkpt lat="36.862349" lon="-5.614898">
        <ele>192.0</ele>
        <time>2022-09-26T12:29:55.928+02:00[Europe/Madrid]</time>
      </trkpt>
      <trkpt lat="36.862277" lon="-5.615087">
        <ele>192.0</ele>
        <time>2022-09-26T12:29:56.928+02:00[Europe/Madrid]</time>
      </trkpt>
      <trkpt lat="36.862201" lon="-5.615275">
        <ele>192.0</ele>
        <time>2022-09-26T12:29:57.928+02:00[Europe/Madrid]</time>
      </trkpt>
      <trkpt lat="36.862128" lon="-5.615463">
        <ele>192.0</ele>
        <time>2022-09-26T12:29:58.928+02:00[Europe/Madrid]</time>
      </trkpt>
      <trkpt lat="36.862051" lon="-5.615653">
        <ele>193.0</ele>
        <time>2022-09-26T12:29:59.928+02:00[Europe/Madrid]</time>
      </trkpt>
      <trkpt lat="36.861973" lon="-5.615843">
        <ele>193.0</ele>
        <time>2022-09-26T12:30:00.928+02:00[Europe/Madrid]</time>
      </trkpt>
      <trkpt lat="36.861895" lon="-5.616034">
        <ele>193.0</ele>
        <time>2022-09-26T12:30:01.928+02:00[Europe/Madrid]</time>
      </trkpt>
      <trkpt lat="36.861822" lon="-5.616223">
        <ele>194.0</ele>
        <time>2022-09-26T12:30:02.928+02:00[Europe/Madrid]</time>
      </trkpt>
      <trkpt lat="36.861748" lon="-5.616412">
        <ele>194.0</ele>
        <time>2022-09-26T12:30:03.928+02:00[Europe/Madrid]</time>
      </trkpt>
      <trkpt lat="36.861672" lon="-5.616603">
        <ele>194.0</ele>
        <time>2022-09-26T12:30:04.928+02:00[Europe/Madrid]</time>
      </trkpt>
      <trkpt lat="36.861595" lon="-5.616796">
        <ele>194.0</ele>
        <time>2022-09-26T12:30:05.928+02:00[Europe/Madrid]</time>
      </trkpt>
      <trkpt lat="36.861519" lon="-5.61699">
        <ele>194.0</ele>
        <time>2022-09-26T12:30:06.928+02:00[Europe/Madrid]</time>
      </trkpt>
      <trkpt lat="36.861443" lon="-5.617191">
        <ele>193.0</ele>
        <time>2022-09-26T12:30:07.928+02:00[Europe/Madrid]</time>
      </trkpt>
      <trkpt lat="36.861369" lon="-5.617391">
        <ele>192.0</ele>
        <time>2022-09-26T12:30:08.928+02:00[Europe/Madrid]</time>
      </trkpt>
      <trkpt lat="36.861293" lon="-5.617592">
        <ele>192.0</ele>
        <time>2022-09-26T12:30:09.928+02:00[Europe/Madrid]</time>
      </trkpt>
      <trkpt lat="36.861219" lon="-5.6178">
        <ele>191.0</ele>
        <time>2022-09-26T12:30:10.928+02:00[Europe/Madrid]</time>
      </trkpt>
      <trkpt lat="36.861147" lon="-5.618013">
        <ele>190.0</ele>
        <time>2022-09-26T12:30:11.928+02:00[Europe/Madrid]</time>
      </trkpt>
      <trkpt lat="36.861077" lon="-5.618229">
        <ele>190.0</ele>
        <time>2022-09-26T12:30:12.928+02:00[Europe/Madrid]</time>
      </trkpt>
      <trkpt lat="36.861012" lon="-5.618445">
        <ele>189.0</ele>
        <time>2022-09-26T12:30:13.928+02:00[Europe/Madrid]</time>
      </trkpt>
      <trkpt lat="36.860947" lon="-5.61866">
        <ele>188.0</ele>
        <time>2022-09-26T12:30:14.928+02:00[Europe/Madrid]</time>
      </trkpt>
      <trkpt lat="36.860883" lon="-5.61888">
        <ele>188.0</ele>
        <time>2022-09-26T12:30:15.928+02:00[Europe/Madrid]</time>
      </trkpt>
      <trkpt lat="36.860815" lon="-5.619106">
        <ele>187.0</ele>
        <time>2022-09-26T12:30:16.928+02:00[Europe/Madrid]</time>
      </trkpt>
      <trkpt lat="36.860751" lon="-5.619335">
        <ele>186.0</ele>
        <time>2022-09-26T12:30:17.928+02:00[Europe/Madrid]</time>
      </trkpt>
      <trkpt lat="36.860684" lon="-5.619571">
        <ele>185.0</ele>
        <time>2022-09-26T12:30:18.928+02:00[Europe/Madrid]</time>
      </trkpt>
      <trkpt lat="36.860615" lon="-5.61981">
        <ele>184.0</ele>
        <time>2022-09-26T12:30:19.928+02:00[Europe/Madrid]</time>
      </trkpt>
      <trkpt lat="36.860543" lon="-5.620048">
        <ele>183.0</ele>
        <time>2022-09-26T12:30:20.928+02:00[Europe/Madrid]</time>
      </trkpt>
      <trkpt lat="36.860467" lon="-5.620292">
        <ele>182.0</ele>
        <time>2022-09-26T12:30:21.928+02:00[Europe/Madrid]</time>
      </trkpt>
      <trkpt lat="36.860387" lon="-5.620537">
        <ele>181.0</ele>
        <time>2022-09-26T12:30:22.928+02:00[Europe/Madrid]</time>
      </trkpt>
      <trkpt lat="36.860305" lon="-5.620785">
        <ele>180.0</ele>
        <time>2022-09-26T12:30:23.928+02:00[Europe/Madrid]</time>
      </trkpt>
      <trkpt lat="36.860221" lon="-5.621035">
        <ele>179.0</ele>
        <time>2022-09-26T12:30:24.928+02:00[Europe/Madrid]</time>
      </trkpt>
      <trkpt lat="36.860134" lon="-5.621283">
        <ele>179.0</ele>
        <time>2022-09-26T12:30:25.928+02:00[Europe/Madrid]</time>
      </trkpt>
      <trkpt lat="36.860043" lon="-5.621529">
        <ele>178.0</ele>
        <time>2022-09-26T12:30:26.928+02:00[Europe/Madrid]</time>
      </trkpt>
      <trkpt lat="36.859949" lon="-5.621775">
        <ele>177.0</ele>
        <time>2022-09-26T12:30:27.928+02:00[Europe/Madrid]</time>
      </trkpt>
      <trkpt lat="36.859852" lon="-5.622016">
        <ele>176.0</ele>
        <time>2022-09-26T12:30:28.928+02:00[Europe/Madrid]</time>
      </trkpt>
      <trkpt lat="36.859751" lon="-5.622257">
        <ele>176.0</ele>
        <time>2022-09-26T12:30:29.928+02:00[Europe/Madrid]</time>
      </trkpt>
      <trkpt lat="36.859647" lon="-5.622498">
        <ele>175.0</ele>
        <time>2022-09-26T12:30:30.928+02:00[Europe/Madrid]</time>
      </trkpt>
      <trkpt lat="36.859539" lon="-5.622741">
        <ele>175.0</ele>
        <time>2022-09-26T12:30:31.928+02:00[Europe/Madrid]</time>
      </trkpt>
      <trkpt lat="36.859425" lon="-5.622989">
        <ele>174.0</ele>
        <time>2022-09-26T12:30:32.928+02:00[Europe/Madrid]</time>
      </trkpt>
      <trkpt lat="36.859315" lon="-5.62324">
        <ele>174.0</ele>
        <time>2022-09-26T12:30:33.928+02:00[Europe/Madrid]</time>
      </trkpt>
      <trkpt lat="36.859201" lon="-5.623488">
        <ele>173.0</ele>
        <time>2022-09-26T12:30:34.928+02:00[Europe/Madrid]</time>
      </trkpt>
      <trkpt lat="36.859086" lon="-5.623739">
        <ele>173.0</ele>
        <time>2022-09-26T12:30:35.928+02:00[Europe/Madrid]</time>
      </trkpt>
      <trkpt lat="36.858964" lon="-5.624004">
        <ele>172.0</ele>
        <time>2022-09-26T12:30:36.928+02:00[Europe/Madrid]</time>
      </trkpt>
      <trkpt lat="36.858842" lon="-5.62427">
        <ele>171.0</ele>
        <time>2022-09-26T12:30:37.928+02:00[Europe/Madrid]</time>
      </trkpt>
      <trkpt lat="36.858725" lon="-5.624522">
        <ele>171.0</ele>
        <time>2022-09-26T12:30:38.928+02:00[Europe/Madrid]</time>
      </trkpt>
      <trkpt lat="36.858614" lon="-5.624758">
        <ele>171.0</ele>
        <time>2022-09-26T12:30:39.928+02:00[Europe/Madrid]</time>
      </trkpt>
      <trkpt lat="36.858509" lon="-5.624985">
        <ele>170.0</ele>
        <time>2022-09-26T12:30:40.928+02:00[Europe/Madrid]</time>
      </trkpt>
      <trkpt lat="36.858405" lon="-5.625213">
        <ele>170.0</ele>
        <time>2022-09-26T12:30:41.928+02:00[Europe/Madrid]</time>
      </trkpt>
      <trkpt lat="36.8583" lon="-5.625441">
        <ele>170.0</ele>
        <time>2022-09-26T12:30:42.928+02:00[Europe/Madrid]</time>
      </trkpt>
      <trkpt lat="36.858194" lon="-5.625668">
        <ele>169.0</ele>
        <time>2022-09-26T12:30:43.928+02:00[Europe/Madrid]</time>
      </trkpt>
      <trkpt lat="36.85809" lon="-5.62589">
        <ele>169.0</ele>
        <time>2022-09-26T12:30:44.928+02:00[Europe/Madrid]</time>
      </trkpt>
      <trkpt lat="36.857991" lon="-5.626106">
        <ele>169.0</ele>
        <time>2022-09-26T12:30:45.928+02:00[Europe/Madrid]</time>
      </trkpt>
      <trkpt lat="36.857894" lon="-5.626317">
        <ele>169.0</ele>
        <time>2022-09-26T12:30:46.928+02:00[Europe/Madrid]</time>
      </trkpt>
      <trkpt lat="36.857797" lon="-5.626524">
        <ele>169.0</ele>
        <time>2022-09-26T12:30:47.928+02:00[Europe/Madrid]</time>
      </trkpt>
      <trkpt lat="36.857703" lon="-5.626722">
        <ele>169.0</ele>
        <time>2022-09-26T12:30:48.928+02:00[Europe/Madrid]</time>
      </trkpt>
      <trkpt lat="36.857603" lon="-5.626923">
        <ele>169.0</ele>
        <time>2022-09-26T12:30:49.928+02:00[Europe/Madrid]</time>
      </trkpt>
      <trkpt lat="36.857492" lon="-5.62712">
        <ele>169.0</ele>
        <time>2022-09-26T12:30:50.928+02:00[Europe/Madrid]</time>
      </trkpt>
      <trkpt lat="36.857372" lon="-5.627318">
        <ele>169.0</ele>
        <time>2022-09-26T12:30:51.928+02:00[Europe/Madrid]</time>
      </trkpt>
      <trkpt lat="36.857249" lon="-5.627518">
        <ele>169.0</ele>
        <time>2022-09-26T12:30:52.928+02:00[Europe/Madrid]</time>
      </trkpt>
      <trkpt lat="36.857115" lon="-5.627714">
        <ele>169.0</ele>
        <time>2022-09-26T12:30:53.928+02:00[Europe/Madrid]</time>
      </trkpt>
      <trkpt lat="36.856978" lon="-5.627905">
        <ele>168.0</ele>
        <time>2022-09-26T12:30:54.928+02:00[Europe/Madrid]</time>
      </trkpt>
      <trkpt lat="36.856835" lon="-5.628091">
        <ele>168.0</ele>
        <time>2022-09-26T12:30:55.928+02:00[Europe/Madrid]</time>
      </trkpt>
      <trkpt lat="36.856691" lon="-5.628274">
        <ele>168.0</ele>
        <time>2022-09-26T12:30:57.007+02:00[Europe/Madrid]</time>
      </trkpt>
      <trkpt lat="36.856539" lon="-5.628446">
        <ele>168.0</ele>
        <time>2022-09-26T12:30:58.007+02:00[Europe/Madrid]</time>
      </trkpt>
      <trkpt lat="36.856383" lon="-5.628609">
        <ele>168.0</ele>
        <time>2022-09-26T12:30:59.007+02:00[Europe/Madrid]</time>
      </trkpt>
      <trkpt lat="36.856223" lon="-5.628772">
        <ele>169.0</ele>
        <time>2022-09-26T12:31:00.007+02:00[Europe/Madrid]</time>
      </trkpt>
      <trkpt lat="36.856053" lon="-5.628932">
        <ele>169.0</ele>
        <time>2022-09-26T12:31:01.007+02:00[Europe/Madrid]</time>
      </trkpt>
      <trkpt lat="36.855873" lon="-5.62909">
        <ele>169.0</ele>
        <time>2022-09-26T12:31:02.007+02:00[Europe/Madrid]</time>
      </trkpt>
      <trkpt lat="36.855676" lon="-5.629247">
        <ele>169.0</ele>
        <time>2022-09-26T12:31:03.007+02:00[Europe/Madrid]</time>
      </trkpt>
      <trkpt lat="36.855478" lon="-5.629406">
        <ele>170.0</ele>
        <time>2022-09-26T12:31:04.007+02:00[Europe/Madrid]</time>
      </trkpt>
      <trkpt lat="36.85529" lon="-5.629559">
        <ele>170.0</ele>
        <time>2022-09-26T12:31:05.007+02:00[Europe/Madrid]</time>
      </trkpt>
      <trkpt lat="36.855108" lon="-5.629707">
        <ele>170.0</ele>
        <time>2022-09-26T12:31:06.007+02:00[Europe/Madrid]</time>
      </trkpt>
      <trkpt lat="36.854936" lon="-5.629853">
        <ele>171.0</ele>
        <time>2022-09-26T12:31:07.007+02:00[Europe/Madrid]</time>
      </trkpt>
      <trkpt lat="36.854771" lon="-5.629993">
        <ele>171.0</ele>
        <time>2022-09-26T12:31:08.007+02:00[Europe/Madrid]</time>
      </trkpt>
      <trkpt lat="36.854617" lon="-5.630128">
        <ele>172.0</ele>
        <time>2022-09-26T12:31:09.007+02:00[Europe/Madrid]</time>
      </trkpt>
      <trkpt lat="36.85447" lon="-5.630263">
        <ele>172.0</ele>
        <time>2022-09-26T12:31:10.007+02:00[Europe/Madrid]</time>
      </trkpt>
      <trkpt lat="36.854319" lon="-5.630404">
        <ele>172.0</ele>
        <time>2022-09-26T12:31:11.007+02:00[Europe/Madrid]</time>
      </trkpt>
      <trkpt lat="36.854166" lon="-5.630556">
        <ele>172.0</ele>
        <time>2022-09-26T12:31:12.007+02:00[Europe/Madrid]</time>
      </trkpt>
      <trkpt lat="36.854011" lon="-5.63072">
        <ele>172.0</ele>
        <time>2022-09-26T12:31:13.007+02:00[Europe/Madrid]</time>
      </trkpt>
      <trkpt lat="36.853857" lon="-5.630904">
        <ele>172.0</ele>
        <time>2022-09-26T12:31:14.007+02:00[Europe/Madrid]</time>
      </trkpt>
      <trkpt lat="36.853705" lon="-5.6311">
        <ele>172.0</ele>
        <time>2022-09-26T12:31:15.007+02:00[Europe/Madrid]</time>
      </trkpt>
      <trkpt lat="36.853556" lon="-5.631308">
        <ele>172.0</ele>
        <time>2022-09-26T12:31:16.007+02:00[Europe/Madrid]</time>
      </trkpt>
      <trkpt lat="36.853409" lon="-5.631523">
        <ele>172.0</ele>
        <time>2022-09-26T12:31:17.007+02:00[Europe/Madrid]</time>
      </trkpt>
      <trkpt lat="36.853269" lon="-5.631757">
        <ele>172.0</ele>
        <time>2022-09-26T12:31:18.007+02:00[Europe/Madrid]</time>
      </trkpt>
      <trkpt lat="36.853131" lon="-5.632003">
        <ele>172.0</ele>
        <time>2022-09-26T12:31:19.007+02:00[Europe/Madrid]</time>
      </trkpt>
      <trkpt lat="36.852998" lon="-5.632259">
        <ele>173.0</ele>
        <time>2022-09-26T12:31:20.007+02:00[Europe/Madrid]</time>
      </trkpt>
      <trkpt lat="36.85287" lon="-5.632524">
        <ele>173.0</ele>
        <time>2022-09-26T12:31:21.007+02:00[Europe/Madrid]</time>
      </trkpt>
      <trkpt lat="36.852748" lon="-5.632796">
        <ele>173.0</ele>
        <time>2022-09-26T12:31:22.007+02:00[Europe/Madrid]</time>
      </trkpt>
      <trkpt lat="36.852636" lon="-5.633078">
        <ele>173.0</ele>
        <time>2022-09-26T12:31:23.007+02:00[Europe/Madrid]</time>
      </trkpt>
      <trkpt lat="36.852535" lon="-5.633358">
        <ele>173.0</ele>
        <time>2022-09-26T12:31:24.007+02:00[Europe/Madrid]</time>
      </trkpt>
      <trkpt lat="36.852444" lon="-5.633639">
        <ele>174.0</ele>
        <time>2022-09-26T12:31:25.007+02:00[Europe/Madrid]</time>
      </trkpt>
      <trkpt lat="36.852368" lon="-5.633921">
        <ele>174.0</ele>
        <time>2022-09-26T12:31:26.007+02:00[Europe/Madrid]</time>
      </trkpt>
      <trkpt lat="36.852301" lon="-5.634202">
        <ele>175.0</ele>
        <time>2022-09-26T12:31:27.007+02:00[Europe/Madrid]</time>
      </trkpt>
      <trkpt lat="36.852248" lon="-5.634474">
        <ele>176.0</ele>
        <time>2022-09-26T12:31:28.007+02:00[Europe/Madrid]</time>
      </trkpt>
      <trkpt lat="36.852202" lon="-5.634739">
        <ele>176.0</ele>
        <time>2022-09-26T12:31:29.007+02:00[Europe/Madrid]</time>
      </trkpt>
      <trkpt lat="36.852164" lon="-5.635013">
        <ele>177.0</ele>
        <time>2022-09-26T12:31:30.007+02:00[Europe/Madrid]</time>
      </trkpt>
      <trkpt lat="36.852136" lon="-5.635291">
        <ele>177.0</ele>
        <time>2022-09-26T12:31:31.007+02:00[Europe/Madrid]</time>
      </trkpt>
      <trkpt lat="36.852118" lon="-5.635571">
        <ele>177.0</ele>
        <time>2022-09-26T12:31:32.007+02:00[Europe/Madrid]</time>
      </trkpt>
      <trkpt lat="36.852104" lon="-5.635853">
        <ele>178.0</ele>
        <time>2022-09-26T12:31:33.007+02:00[Europe/Madrid]</time>
      </trkpt>
      <trkpt lat="36.852095" lon="-5.636139">
        <ele>177.0</ele>
        <time>2022-09-26T12:31:34.007+02:00[Europe/Madrid]</time>
      </trkpt>
      <trkpt lat="36.852097" lon="-5.636426">
        <ele>177.0</ele>
        <time>2022-09-26T12:31:35.007+02:00[Europe/Madrid]</time>
      </trkpt>
      <trkpt lat="36.852108" lon="-5.636715">
        <ele>176.0</ele>
        <time>2022-09-26T12:31:36.007+02:00[Europe/Madrid]</time>
      </trkpt>
      <trkpt lat="36.852129" lon="-5.637005">
        <ele>176.0</ele>
        <time>2022-09-26T12:31:37.007+02:00[Europe/Madrid]</time>
      </trkpt>
      <trkpt lat="36.852161" lon="-5.637297">
        <ele>176.0</ele>
        <time>2022-09-26T12:31:38.007+02:00[Europe/Madrid]</time>
      </trkpt>
      <trkpt lat="36.852199" lon="-5.637588">
        <ele>175.0</ele>
        <time>2022-09-26T12:31:39.007+02:00[Europe/Madrid]</time>
      </trkpt>
      <trkpt lat="36.852245" lon="-5.637876">
        <ele>175.0</ele>
        <time>2022-09-26T12:31:40.007+02:00[Europe/Madrid]</time>
      </trkpt>
      <trkpt lat="36.852299" lon="-5.638161">
        <ele>175.0</ele>
        <time>2022-09-26T12:31:41.007+02:00[Europe/Madrid]</time>
      </trkpt>
      <trkpt lat="36.852362" lon="-5.63844">
        <ele>174.0</ele>
        <time>2022-09-26T12:31:42.007+02:00[Europe/Madrid]</time>
      </trkpt>
      <trkpt lat="36.852432" lon="-5.638718">
        <ele>174.0</ele>
        <time>2022-09-26T12:31:43.007+02:00[Europe/Madrid]</time>
      </trkpt>
      <trkpt lat="36.852507" lon="-5.638992">
        <ele>173.0</ele>
        <time>2022-09-26T12:31:44.007+02:00[Europe/Madrid]</time>
      </trkpt>
      <trkpt lat="36.852586" lon="-5.639264">
        <ele>173.0</ele>
        <time>2022-09-26T12:31:45.007+02:00[Europe/Madrid]</time>
      </trkpt>
      <trkpt lat="36.852667" lon="-5.63954">
        <ele>173.0</ele>
        <time>2022-09-26T12:31:46.007+02:00[Europe/Madrid]</time>
      </trkpt>
      <trkpt lat="36.852747" lon="-5.639814">
        <ele>172.0</ele>
        <time>2022-09-26T12:31:47.007+02:00[Europe/Madrid]</time>
      </trkpt>
      <trkpt lat="36.85282" lon="-5.640089">
        <ele>172.0</ele>
        <time>2022-09-26T12:31:48.007+02:00[Europe/Madrid]</time>
      </trkpt>
      <trkpt lat="36.852889" lon="-5.640361">
        <ele>172.0</ele>
        <time>2022-09-26T12:31:49.007+02:00[Europe/Madrid]</time>
      </trkpt>
      <trkpt lat="36.852955" lon="-5.640635">
        <ele>172.0</ele>
        <time>2022-09-26T12:31:50.007+02:00[Europe/Madrid]</time>
      </trkpt>
      <trkpt lat="36.853014" lon="-5.64091">
        <ele>171.0</ele>
        <time>2022-09-26T12:31:51.007+02:00[Europe/Madrid]</time>
      </trkpt>
      <trkpt lat="36.853066" lon="-5.641189">
        <ele>171.0</ele>
        <time>2022-09-26T12:31:52.007+02:00[Europe/Madrid]</time>
      </trkpt>
      <trkpt lat="36.853115" lon="-5.64147">
        <ele>171.0</ele>
        <time>2022-09-26T12:31:53.007+02:00[Europe/Madrid]</time>
      </trkpt>
      <trkpt lat="36.85316" lon="-5.64175">
        <ele>171.0</ele>
        <time>2022-09-26T12:31:54.007+02:00[Europe/Madrid]</time>
      </trkpt>
      <trkpt lat="36.853197" lon="-5.642035">
        <ele>171.0</ele>
        <time>2022-09-26T12:31:55.007+02:00[Europe/Madrid]</time>
      </trkpt>
      <trkpt lat="36.853229" lon="-5.64232">
        <ele>172.0</ele>
        <time>2022-09-26T12:31:56.007+02:00[Europe/Madrid]</time>
      </trkpt>
      <trkpt lat="36.853256" lon="-5.642603">
        <ele>172.0</ele>
        <time>2022-09-26T12:31:57.007+02:00[Europe/Madrid]</time>
      </trkpt>
      <trkpt lat="36.853275" lon="-5.642885">
        <ele>172.0</ele>
        <time>2022-09-26T12:31:58.007+02:00[Europe/Madrid]</time>
      </trkpt>
      <trkpt lat="36.853289" lon="-5.643174">
        <ele>172.0</ele>
        <time>2022-09-26T12:31:59.007+02:00[Europe/Madrid]</time>
      </trkpt>
      <trkpt lat="36.853299" lon="-5.643466">
        <ele>172.0</ele>
        <time>2022-09-26T12:32:00.007+02:00[Europe/Madrid]</time>
      </trkpt>
      <trkpt lat="36.853304" lon="-5.643758">
        <ele>172.0</ele>
        <time>2022-09-26T12:32:01.007+02:00[Europe/Madrid]</time>
      </trkpt>
      <trkpt lat="36.853302" lon="-5.644051">
        <ele>172.0</ele>
        <time>2022-09-26T12:32:02.007+02:00[Europe/Madrid]</time>
      </trkpt>
      <trkpt lat="36.853289" lon="-5.644344">
        <ele>172.0</ele>
        <time>2022-09-26T12:32:03.007+02:00[Europe/Madrid]</time>
      </trkpt>
      <trkpt lat="36.85327" lon="-5.64464">
        <ele>172.0</ele>
        <time>2022-09-26T12:32:04.007+02:00[Europe/Madrid]</time>
      </trkpt>
      <trkpt lat="36.853248" lon="-5.644943">
        <ele>172.0</ele>
        <time>2022-09-26T12:32:05.007+02:00[Europe/Madrid]</time>
      </trkpt>
      <trkpt lat="36.853223" lon="-5.645234">
        <ele>172.0</ele>
        <time>2022-09-26T12:32:06.007+02:00[Europe/Madrid]</time>
      </trkpt>
      <trkpt lat="36.853198" lon="-5.645522">
        <ele>172.0</ele>
        <time>2022-09-26T12:32:07.007+02:00[Europe/Madrid]</time>
      </trkpt>
      <trkpt lat="36.853172" lon="-5.645809">
        <ele>172.0</ele>
        <time>2022-09-26T12:32:08.007+02:00[Europe/Madrid]</time>
      </trkpt>
      <trkpt lat="36.853149" lon="-5.64609">
        <ele>173.0</ele>
        <time>2022-09-26T12:32:09.007+02:00[Europe/Madrid]</time>
      </trkpt>
      <trkpt lat="36.853126" lon="-5.646359">
        <ele>173.0</ele>
        <time>2022-09-26T12:32:10.007+02:00[Europe/Madrid]</time>
      </trkpt>
      <trkpt lat="36.853101" lon="-5.646623">
        <ele>173.0</ele>
        <time>2022-09-26T12:32:11.007+02:00[Europe/Madrid]</time>
      </trkpt>
      <trkpt lat="36.853077" lon="-5.646886">
        <ele>173.0</ele>
        <time>2022-09-26T12:32:12.007+02:00[Europe/Madrid]</time>
      </trkpt>
      <trkpt lat="36.853058" lon="-5.647155">
        <ele>173.0</ele>
        <time>2022-09-26T12:32:13.007+02:00[Europe/Madrid]</time>
      </trkpt>
      <trkpt lat="36.853041" lon="-5.647421">
        <ele>173.0</ele>
        <time>2022-09-26T12:32:14.007+02:00[Europe/Madrid]</time>
      </trkpt>
      <trkpt lat="36.853027" lon="-5.647692">
        <ele>173.0</ele>
        <time>2022-09-26T12:32:15.007+02:00[Europe/Madrid]</time>
      </trkpt>
      <trkpt lat="36.853018" lon="-5.64797">
        <ele>173.0</ele>
        <time>2022-09-26T12:32:16.007+02:00[Europe/Madrid]</time>
      </trkpt>
      <trkpt lat="36.85301" lon="-5.648251">
        <ele>173.0</ele>
        <time>2022-09-26T12:32:17.007+02:00[Europe/Madrid]</time>
      </trkpt>
      <trkpt lat="36.853007" lon="-5.648532">
        <ele>172.0</ele>
        <time>2022-09-26T12:32:18.007+02:00[Europe/Madrid]</time>
      </trkpt>
      <trkpt lat="36.853008" lon="-5.648815">
        <ele>172.0</ele>
        <time>2022-09-26T12:32:19.007+02:00[Europe/Madrid]</time>
      </trkpt>
      <trkpt lat="36.853013" lon="-5.649109">
        <ele>171.0</ele>
        <time>2022-09-26T12:32:20.007+02:00[Europe/Madrid]</time>
      </trkpt>
      <trkpt lat="36.853022" lon="-5.649408">
        <ele>171.0</ele>
        <time>2022-09-26T12:32:21.007+02:00[Europe/Madrid]</time>
      </trkpt>
      <trkpt lat="36.853037" lon="-5.649709">
        <ele>170.0</ele>
        <time>2022-09-26T12:32:22.007+02:00[Europe/Madrid]</time>
      </trkpt>
      <trkpt lat="36.853055" lon="-5.650009">
        <ele>170.0</ele>
        <time>2022-09-26T12:32:23.007+02:00[Europe/Madrid]</time>
      </trkpt>
      <trkpt lat="36.853074" lon="-5.650295">
        <ele>169.0</ele>
        <time>2022-09-26T12:32:24.007+02:00[Europe/Madrid]</time>
      </trkpt>
      <trkpt lat="36.853094" lon="-5.650567">
        <ele>168.0</ele>
        <time>2022-09-26T12:32:25.007+02:00[Europe/Madrid]</time>
      </trkpt>
      <trkpt lat="36.853123" lon="-5.65083">
        <ele>168.0</ele>
        <time>2022-09-26T12:32:26.007+02:00[Europe/Madrid]</time>
      </trkpt>
      <trkpt lat="36.853155" lon="-5.651091">
        <ele>167.0</ele>
        <time>2022-09-26T12:32:27.007+02:00[Europe/Madrid]</time>
      </trkpt>
      <trkpt lat="36.853188" lon="-5.651346">
        <ele>166.0</ele>
        <time>2022-09-26T12:32:28.007+02:00[Europe/Madrid]</time>
      </trkpt>
      <trkpt lat="36.853222" lon="-5.651604">
        <ele>166.0</ele>
        <time>2022-09-26T12:32:29.007+02:00[Europe/Madrid]</time>
      </trkpt>
      <trkpt lat="36.853259" lon="-5.651862">
        <ele>165.0</ele>
        <time>2022-09-26T12:32:30.007+02:00[Europe/Madrid]</time>
      </trkpt>
      <trkpt lat="36.853301" lon="-5.65212">
        <ele>165.0</ele>
        <time>2022-09-26T12:32:31.007+02:00[Europe/Madrid]</time>
      </trkpt>
      <trkpt lat="36.853348" lon="-5.652374">
        <ele>165.0</ele>
        <time>2022-09-26T12:32:32.007+02:00[Europe/Madrid]</time>
      </trkpt>
      <trkpt lat="36.853396" lon="-5.652629">
        <ele>164.0</ele>
        <time>2022-09-26T12:32:33.007+02:00[Europe/Madrid]</time>
      </trkpt>
      <trkpt lat="36.853444" lon="-5.652877">
        <ele>164.0</ele>
        <time>2022-09-26T12:32:34.007+02:00[Europe/Madrid]</time>
      </trkpt>
      <trkpt lat="36.853494" lon="-5.653122">
        <ele>163.0</ele>
        <time>2022-09-26T12:32:35.007+02:00[Europe/Madrid]</time>
      </trkpt>
      <trkpt lat="36.853551" lon="-5.653363">
        <ele>163.0</ele>
        <time>2022-09-26T12:32:36.007+02:00[Europe/Madrid]</time>
      </trkpt>
      <trkpt lat="36.853607" lon="-5.653598">
        <ele>163.0</ele>
        <time>2022-09-26T12:32:37.007+02:00[Europe/Madrid]</time>
      </trkpt>
      <trkpt lat="36.853669" lon="-5.653834">
        <ele>163.0</ele>
        <time>2022-09-26T12:32:38.007+02:00[Europe/Madrid]</time>
      </trkpt>
      <trkpt lat="36.853731" lon="-5.654063">
        <ele>163.0</ele>
        <time>2022-09-26T12:32:39.007+02:00[Europe/Madrid]</time>
      </trkpt>
      <trkpt lat="36.853795" lon="-5.654292">
        <ele>163.0</ele>
        <time>2022-09-26T12:32:40.007+02:00[Europe/Madrid]</time>
      </trkpt>
      <trkpt lat="36.85386" lon="-5.65452">
        <ele>163.0</ele>
        <time>2022-09-26T12:32:41.007+02:00[Europe/Madrid]</time>
      </trkpt>
      <trkpt lat="36.853929" lon="-5.654754">
        <ele>163.0</ele>
        <time>2022-09-26T12:32:42.007+02:00[Europe/Madrid]</time>
      </trkpt>
      <trkpt lat="36.854002" lon="-5.654991">
        <ele>163.0</ele>
        <time>2022-09-26T12:32:43.007+02:00[Europe/Madrid]</time>
      </trkpt>
      <trkpt lat="36.854069" lon="-5.65523">
        <ele>162.0</ele>
        <time>2022-09-26T12:32:44.007+02:00[Europe/Madrid]</time>
      </trkpt>
      <trkpt lat="36.854137" lon="-5.655468">
        <ele>162.0</ele>
        <time>2022-09-26T12:32:45.007+02:00[Europe/Madrid]</time>
      </trkpt>
      <trkpt lat="36.854206" lon="-5.655707">
        <ele>162.0</ele>
        <time>2022-09-26T12:32:46.079+02:00[Europe/Madrid]</time>
      </trkpt>
      <trkpt lat="36.854273" lon="-5.655948">
        <ele>162.0</ele>
        <time>2022-09-26T12:32:47.079+02:00[Europe/Madrid]</time>
      </trkpt>
      <trkpt lat="36.854332" lon="-5.656194">
        <ele>162.0</ele>
        <time>2022-09-26T12:32:48.079+02:00[Europe/Madrid]</time>
      </trkpt>
      <trkpt lat="36.854388" lon="-5.656441">
        <ele>162.0</ele>
        <time>2022-09-26T12:32:49.079+02:00[Europe/Madrid]</time>
      </trkpt>
      <trkpt lat="36.854435" lon="-5.656695">
        <ele>162.0</ele>
        <time>2022-09-26T12:32:50.079+02:00[Europe/Madrid]</time>
      </trkpt>
      <trkpt lat="36.854477" lon="-5.656952">
        <ele>162.0</ele>
        <time>2022-09-26T12:32:51.079+02:00[Europe/Madrid]</time>
      </trkpt>
      <trkpt lat="36.85451" lon="-5.657215">
        <ele>161.0</ele>
        <time>2022-09-26T12:32:52.079+02:00[Europe/Madrid]</time>
      </trkpt>
      <trkpt lat="36.854532" lon="-5.657484">
        <ele>161.0</ele>
        <time>2022-09-26T12:32:53.079+02:00[Europe/Madrid]</time>
      </trkpt>
      <trkpt lat="36.854543" lon="-5.657755">
        <ele>161.0</ele>
        <time>2022-09-26T12:32:54.079+02:00[Europe/Madrid]</time>
      </trkpt>
      <trkpt lat="36.85454" lon="-5.658024">
        <ele>161.0</ele>
        <time>2022-09-26T12:32:55.079+02:00[Europe/Madrid]</time>
      </trkpt>
      <trkpt lat="36.854529" lon="-5.658291">
        <ele>161.0</ele>
        <time>2022-09-26T12:32:56.079+02:00[Europe/Madrid]</time>
      </trkpt>
      <trkpt lat="36.85451" lon="-5.658551">
        <ele>161.0</ele>
        <time>2022-09-26T12:32:57.079+02:00[Europe/Madrid]</time>
      </trkpt>
      <trkpt lat="36.854483" lon="-5.658809">
        <ele>161.0</ele>
        <time>2022-09-26T12:32:58.079+02:00[Europe/Madrid]</time>
      </trkpt>
      <trkpt lat="36.854445" lon="-5.659061">
        <ele>161.0</ele>
        <time>2022-09-26T12:32:59.079+02:00[Europe/Madrid]</time>
      </trkpt>
      <trkpt lat="36.854401" lon="-5.659311">
        <ele>161.0</ele>
        <time>2022-09-26T12:33:00.079+02:00[Europe/Madrid]</time>
      </trkpt>
      <trkpt lat="36.854348" lon="-5.659554">
        <ele>161.0</ele>
        <time>2022-09-26T12:33:01.079+02:00[Europe/Madrid]</time>
      </trkpt>
      <trkpt lat="36.854283" lon="-5.659794">
        <ele>160.0</ele>
        <time>2022-09-26T12:33:02.079+02:00[Europe/Madrid]</time>
      </trkpt>
      <trkpt lat="36.854208" lon="-5.660031">
        <ele>159.0</ele>
        <time>2022-09-26T12:33:03.079+02:00[Europe/Madrid]</time>
      </trkpt>
      <trkpt lat="36.854125" lon="-5.660267">
        <ele>159.0</ele>
        <time>2022-09-26T12:33:04.079+02:00[Europe/Madrid]</time>
      </trkpt>
      <trkpt lat="36.854036" lon="-5.660498">
        <ele>158.0</ele>
        <time>2022-09-26T12:33:05.079+02:00[Europe/Madrid]</time>
      </trkpt>
      <trkpt lat="36.853939" lon="-5.660725">
        <ele>158.0</ele>
        <time>2022-09-26T12:33:06.079+02:00[Europe/Madrid]</time>
      </trkpt>
      <trkpt lat="36.85383" lon="-5.660944">
        <ele>157.0</ele>
        <time>2022-09-26T12:33:07.079+02:00[Europe/Madrid]</time>
      </trkpt>
      <trkpt lat="36.853713" lon="-5.661156">
        <ele>156.0</ele>
        <time>2022-09-26T12:33:08.079+02:00[Europe/Madrid]</time>
      </trkpt>
      <trkpt lat="36.853592" lon="-5.661365">
        <ele>156.0</ele>
        <time>2022-09-26T12:33:09.079+02:00[Europe/Madrid]</time>
      </trkpt>
      <trkpt lat="36.853471" lon="-5.661566">
        <ele>155.0</ele>
        <time>2022-09-26T12:33:10.079+02:00[Europe/Madrid]</time>
      </trkpt>
      <trkpt lat="36.853349" lon="-5.661764">
        <ele>155.0</ele>
        <time>2022-09-26T12:33:11.079+02:00[Europe/Madrid]</time>
      </trkpt>
      <trkpt lat="36.853223" lon="-5.661959">
        <ele>154.0</ele>
        <time>2022-09-26T12:33:12.079+02:00[Europe/Madrid]</time>
      </trkpt>
      <trkpt lat="36.853097" lon="-5.662157">
        <ele>153.0</ele>
        <time>2022-09-26T12:33:13.079+02:00[Europe/Madrid]</time>
      </trkpt>
      <trkpt lat="36.852965" lon="-5.662352">
        <ele>153.0</ele>
        <time>2022-09-26T12:33:14.079+02:00[Europe/Madrid]</time>
      </trkpt>
      <trkpt lat="36.85283" lon="-5.662547">
        <ele>153.0</ele>
        <time>2022-09-26T12:33:15.079+02:00[Europe/Madrid]</time>
      </trkpt>
      <trkpt lat="36.852701" lon="-5.662742">
        <ele>153.0</ele>
        <time>2022-09-26T12:33:16.079+02:00[Europe/Madrid]</time>
      </trkpt>
      <trkpt lat="36.852582" lon="-5.662942">
        <ele>153.0</ele>
        <time>2022-09-26T12:33:17.079+02:00[Europe/Madrid]</time>
      </trkpt>
      <trkpt lat="36.852471" lon="-5.663146">
        <ele>153.0</ele>
        <time>2022-09-26T12:33:18.079+02:00[Europe/Madrid]</time>
      </trkpt>
      <trkpt lat="36.852369" lon="-5.663358">
        <ele>153.0</ele>
        <time>2022-09-26T12:33:19.079+02:00[Europe/Madrid]</time>
      </trkpt>
      <trkpt lat="36.852276" lon="-5.663578">
        <ele>153.0</ele>
        <time>2022-09-26T12:33:20.079+02:00[Europe/Madrid]</time>
      </trkpt>
      <trkpt lat="36.852196" lon="-5.663805">
        <ele>153.0</ele>
        <time>2022-09-26T12:33:21.079+02:00[Europe/Madrid]</time>
      </trkpt>
      <trkpt lat="36.852131" lon="-5.664046">
        <ele>153.0</ele>
        <time>2022-09-26T12:33:22.079+02:00[Europe/Madrid]</time>
      </trkpt>
      <trkpt lat="36.852072" lon="-5.664293">
        <ele>153.0</ele>
        <time>2022-09-26T12:33:23.079+02:00[Europe/Madrid]</time>
      </trkpt>
      <trkpt lat="36.852027" lon="-5.664544">
        <ele>153.0</ele>
        <time>2022-09-26T12:33:24.079+02:00[Europe/Madrid]</time>
      </trkpt>
      <trkpt lat="36.851997" lon="-5.664795">
        <ele>153.0</ele>
        <time>2022-09-26T12:33:25.079+02:00[Europe/Madrid]</time>
      </trkpt>
      <trkpt lat="36.851984" lon="-5.665051">
        <ele>153.0</ele>
        <time>2022-09-26T12:33:26.079+02:00[Europe/Madrid]</time>
      </trkpt>
      <trkpt lat="36.851986" lon="-5.665309">
        <ele>153.0</ele>
        <time>2022-09-26T12:33:27.079+02:00[Europe/Madrid]</time>
      </trkpt>
      <trkpt lat="36.852002" lon="-5.665565">
        <ele>153.0</ele>
        <time>2022-09-26T12:33:28.079+02:00[Europe/Madrid]</time>
      </trkpt>
      <trkpt lat="36.852032" lon="-5.665815">
        <ele>153.0</ele>
        <time>2022-09-26T12:33:29.079+02:00[Europe/Madrid]</time>
      </trkpt>
      <trkpt lat="36.85207" lon="-5.666059">
        <ele>153.0</ele>
        <time>2022-09-26T12:33:30.079+02:00[Europe/Madrid]</time>
      </trkpt>
      <trkpt lat="36.852117" lon="-5.6663">
        <ele>154.0</ele>
        <time>2022-09-26T12:33:31.079+02:00[Europe/Madrid]</time>
      </trkpt>
      <trkpt lat="36.852173" lon="-5.666538">
        <ele>154.0</ele>
        <time>2022-09-26T12:33:32.079+02:00[Europe/Madrid]</time>
      </trkpt>
      <trkpt lat="36.852234" lon="-5.666774">
        <ele>154.0</ele>
        <time>2022-09-26T12:33:33.079+02:00[Europe/Madrid]</time>
      </trkpt>
      <trkpt lat="36.852302" lon="-5.667013">
        <ele>154.0</ele>
        <time>2022-09-26T12:33:34.079+02:00[Europe/Madrid]</time>
      </trkpt>
      <trkpt lat="36.852372" lon="-5.667254">
        <ele>154.0</ele>
        <time>2022-09-26T12:33:35.079+02:00[Europe/Madrid]</time>
      </trkpt>
      <trkpt lat="36.852443" lon="-5.667495">
        <ele>154.0</ele>
        <time>2022-09-26T12:33:36.079+02:00[Europe/Madrid]</time>
      </trkpt>
      <trkpt lat="36.852518" lon="-5.667741">
        <ele>154.0</ele>
        <time>2022-09-26T12:33:37.079+02:00[Europe/Madrid]</time>
      </trkpt>
      <trkpt lat="36.852591" lon="-5.667984">
        <ele>154.0</ele>
        <time>2022-09-26T12:33:38.079+02:00[Europe/Madrid]</time>
      </trkpt>
      <trkpt lat="36.852664" lon="-5.66823">
        <ele>154.0</ele>
        <time>2022-09-26T12:33:39.079+02:00[Europe/Madrid]</time>
      </trkpt>
      <trkpt lat="36.852735" lon="-5.668481">
        <ele>154.0</ele>
        <time>2022-09-26T12:33:40.079+02:00[Europe/Madrid]</time>
      </trkpt>
      <trkpt lat="36.852806" lon="-5.668735">
        <ele>155.0</ele>
        <time>2022-09-26T12:33:41.079+02:00[Europe/Madrid]</time>
      </trkpt>
      <trkpt lat="36.85288" lon="-5.66899">
        <ele>154.0</ele>
        <time>2022-09-26T12:33:42.079+02:00[Europe/Madrid]</time>
      </trkpt>
      <trkpt lat="36.852955" lon="-5.669247">
        <ele>154.0</ele>
        <time>2022-09-26T12:33:43.079+02:00[Europe/Madrid]</time>
      </trkpt>
      <trkpt lat="36.853032" lon="-5.669509">
        <ele>154.0</ele>
        <time>2022-09-26T12:33:44.079+02:00[Europe/Madrid]</time>
      </trkpt>
      <trkpt lat="36.853109" lon="-5.669773">
        <ele>154.0</ele>
        <time>2022-09-26T12:33:45.079+02:00[Europe/Madrid]</time>
      </trkpt>
      <trkpt lat="36.853187" lon="-5.670041">
        <ele>154.0</ele>
        <time>2022-09-26T12:33:46.079+02:00[Europe/Madrid]</time>
      </trkpt>
      <trkpt lat="36.853266" lon="-5.670316">
        <ele>154.0</ele>
        <time>2022-09-26T12:33:47.079+02:00[Europe/Madrid]</time>
      </trkpt>
      <trkpt lat="36.853349" lon="-5.670591">
        <ele>154.0</ele>
        <time>2022-09-26T12:33:48.079+02:00[Europe/Madrid]</time>
      </trkpt>
      <trkpt lat="36.853429" lon="-5.670868">
        <ele>154.0</ele>
        <time>2022-09-26T12:33:49.079+02:00[Europe/Madrid]</time>
      </trkpt>
      <trkpt lat="36.853512" lon="-5.671146">
        <ele>154.0</ele>
        <time>2022-09-26T12:33:50.079+02:00[Europe/Madrid]</time>
      </trkpt>
      <trkpt lat="36.853595" lon="-5.671424">
        <ele>154.0</ele>
        <time>2022-09-26T12:33:51.079+02:00[Europe/Madrid]</time>
      </trkpt>
      <trkpt lat="36.853678" lon="-5.671703">
        <ele>154.0</ele>
        <time>2022-09-26T12:33:52.079+02:00[Europe/Madrid]</time>
      </trkpt>
      <trkpt lat="36.85376" lon="-5.671977">
        <ele>154.0</ele>
        <time>2022-09-26T12:33:53.079+02:00[Europe/Madrid]</time>
      </trkpt>
      <trkpt lat="36.85384" lon="-5.672241">
        <ele>154.0</ele>
        <time>2022-09-26T12:33:54.079+02:00[Europe/Madrid]</time>
      </trkpt>
      <trkpt lat="36.853911" lon="-5.672488">
        <ele>154.0</ele>
        <time>2022-09-26T12:33:55.079+02:00[Europe/Madrid]</time>
      </trkpt>
      <trkpt lat="36.85398" lon="-5.672733">
        <ele>154.0</ele>
        <time>2022-09-26T12:33:56.079+02:00[Europe/Madrid]</time>
      </trkpt>
      <trkpt lat="36.854048" lon="-5.672974">
        <ele>154.0</ele>
        <time>2022-09-26T12:33:57.079+02:00[Europe/Madrid]</time>
      </trkpt>
      <trkpt lat="36.85411" lon="-5.673212">
        <ele>154.0</ele>
        <time>2022-09-26T12:33:58.079+02:00[Europe/Madrid]</time>
      </trkpt>
      <trkpt lat="36.854164" lon="-5.673448">
        <ele>154.0</ele>
        <time>2022-09-26T12:33:59.079+02:00[Europe/Madrid]</time>
      </trkpt>
      <trkpt lat="36.854211" lon="-5.673689">
        <ele>154.0</ele>
        <time>2022-09-26T12:34:00.079+02:00[Europe/Madrid]</time>
      </trkpt>
      <trkpt lat="36.854246" lon="-5.673932">
        <ele>154.0</ele>
        <time>2022-09-26T12:34:01.079+02:00[Europe/Madrid]</time>
      </trkpt>
      <trkpt lat="36.85427" lon="-5.674179">
        <ele>154.0</ele>
        <time>2022-09-26T12:34:02.079+02:00[Europe/Madrid]</time>
      </trkpt>
      <trkpt lat="36.854285" lon="-5.674426">
        <ele>153.0</ele>
        <time>2022-09-26T12:34:03.079+02:00[Europe/Madrid]</time>
      </trkpt>
      <trkpt lat="36.854286" lon="-5.674664">
        <ele>153.0</ele>
        <time>2022-09-26T12:34:04.079+02:00[Europe/Madrid]</time>
      </trkpt>
      <trkpt lat="36.854277" lon="-5.674899">
        <ele>154.0</ele>
        <time>2022-09-26T12:34:05.079+02:00[Europe/Madrid]</time>
      </trkpt>
      <trkpt lat="36.854263" lon="-5.675133">
        <ele>154.0</ele>
        <time>2022-09-26T12:34:06.079+02:00[Europe/Madrid]</time>
      </trkpt>
      <trkpt lat="36.854242" lon="-5.675366">
        <ele>154.0</ele>
        <time>2022-09-26T12:34:07.079+02:00[Europe/Madrid]</time>
      </trkpt>
      <trkpt lat="36.854208" lon="-5.675598">
        <ele>154.0</ele>
        <time>2022-09-26T12:34:08.079+02:00[Europe/Madrid]</time>
      </trkpt>
      <trkpt lat="36.85416" lon="-5.675826">
        <ele>154.0</ele>
        <time>2022-09-26T12:34:09.079+02:00[Europe/Madrid]</time>
      </trkpt>
      <trkpt lat="36.854097" lon="-5.676054">
        <ele>154.0</ele>
        <time>2022-09-26T12:34:10.079+02:00[Europe/Madrid]</time>
      </trkpt>
      <trkpt lat="36.85402" lon="-5.676272">
        <ele>153.0</ele>
        <time>2022-09-26T12:34:11.079+02:00[Europe/Madrid]</time>
      </trkpt>
      <trkpt lat="36.853935" lon="-5.676486">
        <ele>153.0</ele>
        <time>2022-09-26T12:34:12.079+02:00[Europe/Madrid]</time>
      </trkpt>
      <trkpt lat="36.853841" lon="-5.676696">
        <ele>153.0</ele>
        <time>2022-09-26T12:34:13.079+02:00[Europe/Madrid]</time>
      </trkpt>
      <trkpt lat="36.853734" lon="-5.676898">
        <ele>153.0</ele>
        <time>2022-09-26T12:34:14.079+02:00[Europe/Madrid]</time>
      </trkpt>
      <trkpt lat="36.853618" lon="-5.677091">
        <ele>153.0</ele>
        <time>2022-09-26T12:34:15.079+02:00[Europe/Madrid]</time>
      </trkpt>
      <trkpt lat="36.853487" lon="-5.677272">
        <ele>153.0</ele>
        <time>2022-09-26T12:34:16.079+02:00[Europe/Madrid]</time>
      </trkpt>
      <trkpt lat="36.853344" lon="-5.677446">
        <ele>152.0</ele>
        <time>2022-09-26T12:34:17.079+02:00[Europe/Madrid]</time>
      </trkpt>
      <trkpt lat="36.853194" lon="-5.677627">
        <ele>152.0</ele>
        <time>2022-09-26T12:34:18.079+02:00[Europe/Madrid]</time>
      </trkpt>
      <trkpt lat="36.853036" lon="-5.677817">
        <ele>152.0</ele>
        <time>2022-09-26T12:34:19.079+02:00[Europe/Madrid]</time>
      </trkpt>
      <trkpt lat="36.852884" lon="-5.678007">
        <ele>152.0</ele>
        <time>2022-09-26T12:34:20.079+02:00[Europe/Madrid]</time>
      </trkpt>
      <trkpt lat="36.852734" lon="-5.678194">
        <ele>152.0</ele>
        <time>2022-09-26T12:34:21.079+02:00[Europe/Madrid]</time>
      </trkpt>
      <trkpt lat="36.852589" lon="-5.678376">
        <ele>152.0</ele>
        <time>2022-09-26T12:34:22.079+02:00[Europe/Madrid]</time>
      </trkpt>
      <trkpt lat="36.852445" lon="-5.678556">
        <ele>152.0</ele>
        <time>2022-09-26T12:34:23.079+02:00[Europe/Madrid]</time>
      </trkpt>
      <trkpt lat="36.852303" lon="-5.678732">
        <ele>152.0</ele>
        <time>2022-09-26T12:34:24.079+02:00[Europe/Madrid]</time>
      </trkpt>
      <trkpt lat="36.852163" lon="-5.678907">
        <ele>152.0</ele>
        <time>2022-09-26T12:34:25.079+02:00[Europe/Madrid]</time>
      </trkpt>
      <trkpt lat="36.852017" lon="-5.679079">
        <ele>152.0</ele>
        <time>2022-09-26T12:34:26.079+02:00[Europe/Madrid]</time>
      </trkpt>
      <trkpt lat="36.851869" lon="-5.679242">
        <ele>153.0</ele>
        <time>2022-09-26T12:34:27.079+02:00[Europe/Madrid]</time>
      </trkpt>
      <trkpt lat="36.851712" lon="-5.679397">
        <ele>152.0</ele>
        <time>2022-09-26T12:34:28.079+02:00[Europe/Madrid]</time>
      </trkpt>
      <trkpt lat="36.85155" lon="-5.679543">
        <ele>152.0</ele>
        <time>2022-09-26T12:34:29.079+02:00[Europe/Madrid]</time>
      </trkpt>
      <trkpt lat="36.851378" lon="-5.67968">
        <ele>152.0</ele>
        <time>2022-09-26T12:34:30.079+02:00[Europe/Madrid]</time>
      </trkpt>
      <trkpt lat="36.851197" lon="-5.679817">
        <ele>152.0</ele>
        <time>2022-09-26T12:34:31.079+02:00[Europe/Madrid]</time>
      </trkpt>
      <trkpt lat="36.851005" lon="-5.67995">
        <ele>152.0</ele>
        <time>2022-09-26T12:34:32.079+02:00[Europe/Madrid]</time>
      </trkpt>
      <trkpt lat="36.850804" lon="-5.680089">
        <ele>153.0</ele>
        <time>2022-09-26T12:34:33.079+02:00[Europe/Madrid]</time>
      </trkpt>
      <trkpt lat="36.8506" lon="-5.680231">
        <ele>153.0</ele>
        <time>2022-09-26T12:34:34.079+02:00[Europe/Madrid]</time>
      </trkpt>
      <trkpt lat="36.850398" lon="-5.680371">
        <ele>153.0</ele>
        <time>2022-09-26T12:34:35.079+02:00[Europe/Madrid]</time>
      </trkpt>
      <trkpt lat="36.850205" lon="-5.680506">
        <ele>153.0</ele>
        <time>2022-09-26T12:34:36.079+02:00[Europe/Madrid]</time>
      </trkpt>
      <trkpt lat="36.850018" lon="-5.680636">
        <ele>153.0</ele>
        <time>2022-09-26T12:34:37.079+02:00[Europe/Madrid]</time>
      </trkpt>
      <trkpt lat="36.849827" lon="-5.680763">
        <ele>153.0</ele>
        <time>2022-09-26T12:34:38.079+02:00[Europe/Madrid]</time>
      </trkpt>
      <trkpt lat="36.849635" lon="-5.680894">
        <ele>154.0</ele>
        <time>2022-09-26T12:34:39.079+02:00[Europe/Madrid]</time>
      </trkpt>
      <trkpt lat="36.849447" lon="-5.681027">
        <ele>154.0</ele>
        <time>2022-09-26T12:34:40.079+02:00[Europe/Madrid]</time>
      </trkpt>
      <trkpt lat="36.84926" lon="-5.681171">
        <ele>155.0</ele>
        <time>2022-09-26T12:34:41.079+02:00[Europe/Madrid]</time>
      </trkpt>
      <trkpt lat="36.849078" lon="-5.681333">
        <ele>155.0</ele>
        <time>2022-09-26T12:34:42.079+02:00[Europe/Madrid]</time>
      </trkpt>
      <trkpt lat="36.848897" lon="-5.681511">
        <ele>155.0</ele>
        <time>2022-09-26T12:34:43.079+02:00[Europe/Madrid]</time>
      </trkpt>
      <trkpt lat="36.84872" lon="-5.681706">
        <ele>154.0</ele>
        <time>2022-09-26T12:34:44.079+02:00[Europe/Madrid]</time>
      </trkpt>
      <trkpt lat="36.848554" lon="-5.681906">
        <ele>154.0</ele>
        <time>2022-09-26T12:34:45.079+02:00[Europe/Madrid]</time>
      </trkpt>
      <trkpt lat="36.848393" lon="-5.682112">
        <ele>154.0</ele>
        <time>2022-09-26T12:34:46.079+02:00[Europe/Madrid]</time>
      </trkpt>
      <trkpt lat="36.848236" lon="-5.682311">
        <ele>154.0</ele>
        <time>2022-09-26T12:34:47.079+02:00[Europe/Madrid]</time>
      </trkpt>
      <trkpt lat="36.848084" lon="-5.682507">
        <ele>154.0</ele>
        <time>2022-09-26T12:34:48.079+02:00[Europe/Madrid]</time>
      </trkpt>
      <trkpt lat="36.847934" lon="-5.682701">
        <ele>154.0</ele>
        <time>2022-09-26T12:34:49.079+02:00[Europe/Madrid]</time>
      </trkpt>
      <trkpt lat="36.847785" lon="-5.682898">
        <ele>154.0</ele>
        <time>2022-09-26T12:34:50.079+02:00[Europe/Madrid]</time>
      </trkpt>
      <trkpt lat="36.847639" lon="-5.683088">
        <ele>154.0</ele>
        <time>2022-09-26T12:34:51.079+02:00[Europe/Madrid]</time>
      </trkpt>
      <trkpt lat="36.8475" lon="-5.68327">
        <ele>154.0</ele>
        <time>2022-09-26T12:34:52.079+02:00[Europe/Madrid]</time>
      </trkpt>
      <trkpt lat="36.847359" lon="-5.683456">
        <ele>155.0</ele>
        <time>2022-09-26T12:34:53.079+02:00[Europe/Madrid]</time>
      </trkpt>
      <trkpt lat="36.847223" lon="-5.683641">
        <ele>155.0</ele>
        <time>2022-09-26T12:34:54.079+02:00[Europe/Madrid]</time>
      </trkpt>
      <trkpt lat="36.847091" lon="-5.68383">
        <ele>155.0</ele>
        <time>2022-09-26T12:34:55.079+02:00[Europe/Madrid]</time>
      </trkpt>
      <trkpt lat="36.846964" lon="-5.68403">
        <ele>156.0</ele>
        <time>2022-09-26T12:34:56.079+02:00[Europe/Madrid]</time>
      </trkpt>
      <trkpt lat="36.846839" lon="-5.684243">
        <ele>156.0</ele>
        <time>2022-09-26T12:34:57.079+02:00[Europe/Madrid]</time>
      </trkpt>
      <trkpt lat="36.846725" lon="-5.684465">
        <ele>156.0</ele>
        <time>2022-09-26T12:34:58.079+02:00[Europe/Madrid]</time>
      </trkpt>
      <trkpt lat="36.846618" lon="-5.684699">
        <ele>157.0</ele>
        <time>2022-09-26T12:34:59.079+02:00[Europe/Madrid]</time>
      </trkpt>
      <trkpt lat="36.846519" lon="-5.68492">
        <ele>157.0</ele>
        <time>2022-09-26T12:35:00.079+02:00[Europe/Madrid]</time>
      </trkpt>
      <trkpt lat="36.846428" lon="-5.685133">
        <ele>158.0</ele>
        <time>2022-09-26T12:35:01.079+02:00[Europe/Madrid]</time>
      </trkpt>
      <trkpt lat="36.84634" lon="-5.685339">
        <ele>158.0</ele>
        <time>2022-09-26T12:35:02.079+02:00[Europe/Madrid]</time>
      </trkpt>
      <trkpt lat="36.846248" lon="-5.685538">
        <ele>158.0</ele>
        <time>2022-09-26T12:35:03.079+02:00[Europe/Madrid]</time>
      </trkpt>
      <trkpt lat="36.846163" lon="-5.685737">
        <ele>158.0</ele>
        <time>2022-09-26T12:35:04.079+02:00[Europe/Madrid]</time>
      </trkpt>
      <trkpt lat="36.846082" lon="-5.685921">
        <ele>159.0</ele>
        <time>2022-09-26T12:35:05.079+02:00[Europe/Madrid]</time>
      </trkpt>
      <trkpt lat="36.846007" lon="-5.6861">
        <ele>159.0</ele>
        <time>2022-09-26T12:35:06.079+02:00[Europe/Madrid]</time>
      </trkpt>
      <trkpt lat="36.845932" lon="-5.686277">
        <ele>159.0</ele>
        <time>2022-09-26T12:35:07.079+02:00[Europe/Madrid]</time>
      </trkpt>
      <trkpt lat="36.845856" lon="-5.686462">
        <ele>159.0</ele>
        <time>2022-09-26T12:35:08.079+02:00[Europe/Madrid]</time>
      </trkpt>
      <trkpt lat="36.845777" lon="-5.686649">
        <ele>159.0</ele>
        <time>2022-09-26T12:35:09.079+02:00[Europe/Madrid]</time>
      </trkpt>
      <trkpt lat="36.845693" lon="-5.686839">
        <ele>159.0</ele>
        <time>2022-09-26T12:35:10.079+02:00[Europe/Madrid]</time>
      </trkpt>
      <trkpt lat="36.84561" lon="-5.687032">
        <ele>159.0</ele>
        <time>2022-09-26T12:35:11.079+02:00[Europe/Madrid]</time>
      </trkpt>
      <trkpt lat="36.845529" lon="-5.687225">
        <ele>160.0</ele>
        <time>2022-09-26T12:35:12.079+02:00[Europe/Madrid]</time>
      </trkpt>
      <trkpt lat="36.845456" lon="-5.687398">
        <ele>160.0</ele>
        <time>2022-09-26T12:35:13.079+02:00[Europe/Madrid]</time>
      </trkpt>
      <trkpt lat="36.845386" lon="-5.687563">
        <ele>160.0</ele>
        <time>2022-09-26T12:35:14.079+02:00[Europe/Madrid]</time>
      </trkpt>
      <trkpt lat="36.845321" lon="-5.687724">
        <ele>160.0</ele>
        <time>2022-09-26T12:35:15.079+02:00[Europe/Madrid]</time>
      </trkpt>
      <trkpt lat="36.845259" lon="-5.687874">
        <ele>160.0</ele>
        <time>2022-09-26T12:35:16.079+02:00[Europe/Madrid]</time>
      </trkpt>
      <trkpt lat="36.845197" lon="-5.688024">
        <ele>160.0</ele>
        <time>2022-09-26T12:35:17.079+02:00[Europe/Madrid]</time>
      </trkpt>
      <trkpt lat="36.845134" lon="-5.688172">
        <ele>160.0</ele>
        <time>2022-09-26T12:35:18.079+02:00[Europe/Madrid]</time>
      </trkpt>
      <trkpt lat="36.845073" lon="-5.688318">
        <ele>159.0</ele>
        <time>2022-09-26T12:35:19.079+02:00[Europe/Madrid]</time>
      </trkpt>
      <trkpt lat="36.845011" lon="-5.688455">
        <ele>160.0</ele>
        <time>2022-09-26T12:35:20.079+02:00[Europe/Madrid]</time>
      </trkpt>
      <trkpt lat="36.844948" lon="-5.688598">
        <ele>159.0</ele>
        <time>2022-09-26T12:35:21.079+02:00[Europe/Madrid]</time>
      </trkpt>
      <trkpt lat="36.844883" lon="-5.688749">
        <ele>159.0</ele>
        <time>2022-09-26T12:35:22.079+02:00[Europe/Madrid]</time>
      </trkpt>
      <trkpt lat="36.844816" lon="-5.688904">
        <ele>159.0</ele>
        <time>2022-09-26T12:35:23.079+02:00[Europe/Madrid]</time>
      </trkpt>
      <trkpt lat="36.844743" lon="-5.689073">
        <ele>159.0</ele>
        <time>2022-09-26T12:35:24.079+02:00[Europe/Madrid]</time>
      </trkpt>
      <trkpt lat="36.844665" lon="-5.689247">
        <ele>158.0</ele>
        <time>2022-09-26T12:35:25.079+02:00[Europe/Madrid]</time>
      </trkpt>
      <trkpt lat="36.844592" lon="-5.689413">
        <ele>158.0</ele>
        <time>2022-09-26T12:35:26.079+02:00[Europe/Madrid]</time>
      </trkpt>
      <trkpt lat="36.844519" lon="-5.689583">
        <ele>158.0</ele>
        <time>2022-09-26T12:35:27.079+02:00[Europe/Madrid]</time>
      </trkpt>
      <trkpt lat="36.84445" lon="-5.689752">
        <ele>158.0</ele>
        <time>2022-09-26T12:35:28.079+02:00[Europe/Madrid]</time>
      </trkpt>
      <trkpt lat="36.844383" lon="-5.68992">
        <ele>158.0</ele>
        <time>2022-09-26T12:35:29.079+02:00[Europe/Madrid]</time>
      </trkpt>
      <trkpt lat="36.84432" lon="-5.690083">
        <ele>159.0</ele>
        <time>2022-09-26T12:35:30.079+02:00[Europe/Madrid]</time>
      </trkpt>
      <trkpt lat="36.844252" lon="-5.690248">
        <ele>159.0</ele>
        <time>2022-09-26T12:35:31.079+02:00[Europe/Madrid]</time>
      </trkpt>
      <trkpt lat="36.844185" lon="-5.690414">
        <ele>159.0</ele>
        <time>2022-09-26T12:35:32.079+02:00[Europe/Madrid]</time>
      </trkpt>
      <trkpt lat="36.844115" lon="-5.690578">
        <ele>159.0</ele>
        <time>2022-09-26T12:35:33.079+02:00[Europe/Madrid]</time>
      </trkpt>
      <trkpt lat="36.844045" lon="-5.690738">
        <ele>159.0</ele>
        <time>2022-09-26T12:35:34.079+02:00[Europe/Madrid]</time>
      </trkpt>
      <trkpt lat="36.843977" lon="-5.690897">
        <ele>160.0</ele>
        <time>2022-09-26T12:35:35.079+02:00[Europe/Madrid]</time>
      </trkpt>
      <trkpt lat="36.843908" lon="-5.691066">
        <ele>160.0</ele>
        <time>2022-09-26T12:35:36.079+02:00[Europe/Madrid]</time>
      </trkpt>
      <trkpt lat="36.843833" lon="-5.691234">
        <ele>160.0</ele>
        <time>2022-09-26T12:35:37.079+02:00[Europe/Madrid]</time>
      </trkpt>
      <trkpt lat="36.843759" lon="-5.691409">
        <ele>160.0</ele>
        <time>2022-09-26T12:35:38.079+02:00[Europe/Madrid]</time>
      </trkpt>
      <trkpt lat="36.843684" lon="-5.691583">
        <ele>160.0</ele>
        <time>2022-09-26T12:35:39.079+02:00[Europe/Madrid]</time>
      </trkpt>
      <trkpt lat="36.843605" lon="-5.691763">
        <ele>160.0</ele>
        <time>2022-09-26T12:35:40.079+02:00[Europe/Madrid]</time>
      </trkpt>
      <trkpt lat="36.843525" lon="-5.69195">
        <ele>160.0</ele>
        <time>2022-09-26T12:35:41.079+02:00[Europe/Madrid]</time>
      </trkpt>
      <trkpt lat="36.843446" lon="-5.692143">
        <ele>160.0</ele>
        <time>2022-09-26T12:35:42.079+02:00[Europe/Madrid]</time>
      </trkpt>
      <trkpt lat="36.843365" lon="-5.692342">
        <ele>160.0</ele>
        <time>2022-09-26T12:35:43.079+02:00[Europe/Madrid]</time>
      </trkpt>
      <trkpt lat="36.843283" lon="-5.692539">
        <ele>160.0</ele>
        <time>2022-09-26T12:35:44.079+02:00[Europe/Madrid]</time>
      </trkpt>
      <trkpt lat="36.843206" lon="-5.692727">
        <ele>160.0</ele>
        <time>2022-09-26T12:35:45.079+02:00[Europe/Madrid]</time>
      </trkpt>
      <trkpt lat="36.84313" lon="-5.69291">
        <ele>160.0</ele>
        <time>2022-09-26T12:35:46.079+02:00[Europe/Madrid]</time>
      </trkpt>
      <trkpt lat="36.843057" lon="-5.693091">
        <ele>160.0</ele>
        <time>2022-09-26T12:35:47.079+02:00[Europe/Madrid]</time>
      </trkpt>
      <trkpt lat="36.842983" lon="-5.693271">
        <ele>160.0</ele>
        <time>2022-09-26T12:35:48.079+02:00[Europe/Madrid]</time>
      </trkpt>
      <trkpt lat="36.842908" lon="-5.693446">
        <ele>160.0</ele>
        <time>2022-09-26T12:35:49.079+02:00[Europe/Madrid]</time>
      </trkpt>
      <trkpt lat="36.842832" lon="-5.693621">
        <ele>160.0</ele>
        <time>2022-09-26T12:35:50.079+02:00[Europe/Madrid]</time>
      </trkpt>
      <trkpt lat="36.842757" lon="-5.693801">
        <ele>160.0</ele>
        <time>2022-09-26T12:35:51.079+02:00[Europe/Madrid]</time>
      </trkpt>
      <trkpt lat="36.842681" lon="-5.693986">
        <ele>160.0</ele>
        <time>2022-09-26T12:35:52.079+02:00[Europe/Madrid]</time>
      </trkpt>
      <trkpt lat="36.842602" lon="-5.694172">
        <ele>160.0</ele>
        <time>2022-09-26T12:35:53.079+02:00[Europe/Madrid]</time>
      </trkpt>
      <trkpt lat="36.842523" lon="-5.694358">
        <ele>160.0</ele>
        <time>2022-09-26T12:35:54.079+02:00[Europe/Madrid]</time>
      </trkpt>
      <trkpt lat="36.842443" lon="-5.694544">
        <ele>160.0</ele>
        <time>2022-09-26T12:35:55.079+02:00[Europe/Madrid]</time>
      </trkpt>
      <trkpt lat="36.842363" lon="-5.694724">
        <ele>160.0</ele>
        <time>2022-09-26T12:35:56.079+02:00[Europe/Madrid]</time>
      </trkpt>
      <trkpt lat="36.842283" lon="-5.694907">
        <ele>160.0</ele>
        <time>2022-09-26T12:35:57.079+02:00[Europe/Madrid]</time>
      </trkpt>
      <trkpt lat="36.842204" lon="-5.69509">
        <ele>160.0</ele>
        <time>2022-09-26T12:35:58.079+02:00[Europe/Madrid]</time>
      </trkpt>
      <trkpt lat="36.842125" lon="-5.69528">
        <ele>160.0</ele>
        <time>2022-09-26T12:35:59.079+02:00[Europe/Madrid]</time>
      </trkpt>
      <trkpt lat="36.842045" lon="-5.695463">
        <ele>160.0</ele>
        <time>2022-09-26T12:36:00.079+02:00[Europe/Madrid]</time>
      </trkpt>
      <trkpt lat="36.841964" lon="-5.695648">
        <ele>160.0</ele>
        <time>2022-09-26T12:36:01.079+02:00[Europe/Madrid]</time>
      </trkpt>
      <trkpt lat="36.841881" lon="-5.695835">
        <ele>160.0</ele>
        <time>2022-09-26T12:36:02.079+02:00[Europe/Madrid]</time>
      </trkpt>
      <trkpt lat="36.8418" lon="-5.696021">
        <ele>160.0</ele>
        <time>2022-09-26T12:36:03.079+02:00[Europe/Madrid]</time>
      </trkpt>
      <trkpt lat="36.841721" lon="-5.696206">
        <ele>160.0</ele>
        <time>2022-09-26T12:36:04.079+02:00[Europe/Madrid]</time>
      </trkpt>
      <trkpt lat="36.841644" lon="-5.696391">
        <ele>160.0</ele>
        <time>2022-09-26T12:36:05.079+02:00[Europe/Madrid]</time>
      </trkpt>
      <trkpt lat="36.841563" lon="-5.696576">
        <ele>159.0</ele>
        <time>2022-09-26T12:36:06.079+02:00[Europe/Madrid]</time>
      </trkpt>
      <trkpt lat="36.841483" lon="-5.696765">
        <ele>159.0</ele>
        <time>2022-09-26T12:36:07.079+02:00[Europe/Madrid]</time>
      </trkpt>
      <trkpt lat="36.841402" lon="-5.69695">
        <ele>159.0</ele>
        <time>2022-09-26T12:36:08.079+02:00[Europe/Madrid]</time>
      </trkpt>
      <trkpt lat="36.841319" lon="-5.697138">
        <ele>158.0</ele>
        <time>2022-09-26T12:36:09.079+02:00[Europe/Madrid]</time>
      </trkpt>
      <trkpt lat="36.841238" lon="-5.697324">
        <ele>158.0</ele>
        <time>2022-09-26T12:36:10.079+02:00[Europe/Madrid]</time>
      </trkpt>
      <trkpt lat="36.841163" lon="-5.697503">
        <ele>158.0</ele>
        <time>2022-09-26T12:36:11.079+02:00[Europe/Madrid]</time>
      </trkpt>
      <trkpt lat="36.841088" lon="-5.697683">
        <ele>157.0</ele>
        <time>2022-09-26T12:36:12.079+02:00[Europe/Madrid]</time>
      </trkpt>
      <trkpt lat="36.841014" lon="-5.697858">
        <ele>157.0</ele>
        <time>2022-09-26T12:36:13.079+02:00[Europe/Madrid]</time>
      </trkpt>
      <trkpt lat="36.840943" lon="-5.698027">
        <ele>157.0</ele>
        <time>2022-09-26T12:36:14.079+02:00[Europe/Madrid]</time>
      </trkpt>
      <trkpt lat="36.840875" lon="-5.698188">
        <ele>157.0</ele>
        <time>2022-09-26T12:36:15.079+02:00[Europe/Madrid]</time>
      </trkpt>
      <trkpt lat="36.840805" lon="-5.698356">
        <ele>157.0</ele>
        <time>2022-09-26T12:36:16.079+02:00[Europe/Madrid]</time>
      </trkpt>
      <trkpt lat="36.840731" lon="-5.698522">
        <ele>157.0</ele>
        <time>2022-09-26T12:36:17.079+02:00[Europe/Madrid]</time>
      </trkpt>
      <trkpt lat="36.840654" lon="-5.698697">
        <ele>157.0</ele>
        <time>2022-09-26T12:36:18.079+02:00[Europe/Madrid]</time>
      </trkpt>
      <trkpt lat="36.840578" lon="-5.698879">
        <ele>157.0</ele>
        <time>2022-09-26T12:36:19.079+02:00[Europe/Madrid]</time>
      </trkpt>
      <trkpt lat="36.840505" lon="-5.699059">
        <ele>157.0</ele>
        <time>2022-09-26T12:36:20.079+02:00[Europe/Madrid]</time>
      </trkpt>
      <trkpt lat="36.840438" lon="-5.699233">
        <ele>157.0</ele>
        <time>2022-09-26T12:36:21.079+02:00[Europe/Madrid]</time>
      </trkpt>
      <trkpt lat="36.840379" lon="-5.699412">
        <ele>157.0</ele>
        <time>2022-09-26T12:36:22.079+02:00[Europe/Madrid]</time>
      </trkpt>
      <trkpt lat="36.840324" lon="-5.699598">
        <ele>156.0</ele>
        <time>2022-09-26T12:36:23.079+02:00[Europe/Madrid]</time>
      </trkpt>
      <trkpt lat="36.840276" lon="-5.699787">
        <ele>156.0</ele>
        <time>2022-09-26T12:36:24.079+02:00[Europe/Madrid]</time>
      </trkpt>
      <trkpt lat="36.840237" lon="-5.699982">
        <ele>157.0</ele>
        <time>2022-09-26T12:36:25.079+02:00[Europe/Madrid]</time>
      </trkpt>
      <trkpt lat="36.840199" lon="-5.700177">
        <ele>156.0</ele>
        <time>2022-09-26T12:36:26.079+02:00[Europe/Madrid]</time>
      </trkpt>
      <trkpt lat="36.840173" lon="-5.700374">
        <ele>156.0</ele>
        <time>2022-09-26T12:36:27.079+02:00[Europe/Madrid]</time>
      </trkpt>
      <trkpt lat="36.840157" lon="-5.700561">
        <ele>156.0</ele>
        <time>2022-09-26T12:36:28.079+02:00[Europe/Madrid]</time>
      </trkpt>
      <trkpt lat="36.840151" lon="-5.700747">
        <ele>156.0</ele>
        <time>2022-09-26T12:36:29.079+02:00[Europe/Madrid]</time>
      </trkpt>
      <trkpt lat="36.840152" lon="-5.700928">
        <ele>156.0</ele>
        <time>2022-09-26T12:36:30.079+02:00[Europe/Madrid]</time>
      </trkpt>
      <trkpt lat="36.840159" lon="-5.701114">
        <ele>155.0</ele>
        <time>2022-09-26T12:36:31.079+02:00[Europe/Madrid]</time>
      </trkpt>
      <trkpt lat="36.840174" lon="-5.701308">
        <ele>155.0</ele>
        <time>2022-09-26T12:36:32.079+02:00[Europe/Madrid]</time>
      </trkpt>
      <trkpt lat="36.840199" lon="-5.701505">
        <ele>155.0</ele>
        <time>2022-09-26T12:36:33.079+02:00[Europe/Madrid]</time>
      </trkpt>
      <trkpt lat="36.840231" lon="-5.70171">
        <ele>155.0</ele>
        <time>2022-09-26T12:36:34.079+02:00[Europe/Madrid]</time>
      </trkpt>
      <trkpt lat="36.840273" lon="-5.701915">
        <ele>155.0</ele>
        <time>2022-09-26T12:36:35.079+02:00[Europe/Madrid]</time>
      </trkpt>
      <trkpt lat="36.840317" lon="-5.702119">
        <ele>155.0</ele>
        <time>2022-09-26T12:36:36.079+02:00[Europe/Madrid]</time>
      </trkpt>
      <trkpt lat="36.840373" lon="-5.702339">
        <ele>154.0</ele>
        <time>2022-09-26T12:36:37.079+02:00[Europe/Madrid]</time>
      </trkpt>
      <trkpt lat="36.840434" lon="-5.70255">
        <ele>154.0</ele>
        <time>2022-09-26T12:36:38.079+02:00[Europe/Madrid]</time>
      </trkpt>
      <trkpt lat="36.840497" lon="-5.702771">
        <ele>154.0</ele>
        <time>2022-09-26T12:36:39.079+02:00[Europe/Madrid]</time>
      </trkpt>
      <trkpt lat="36.840558" lon="-5.702995">
        <ele>154.0</ele>
        <time>2022-09-26T12:36:40.079+02:00[Europe/Madrid]</time>
      </trkpt>
      <trkpt lat="36.84062" lon="-5.703217">
        <ele>154.0</ele>
        <time>2022-09-26T12:36:41.079+02:00[Europe/Madrid]</time>
      </trkpt>
      <trkpt lat="36.840683" lon="-5.703446">
        <ele>154.0</ele>
        <time>2022-09-26T12:36:42.079+02:00[Europe/Madrid]</time>
      </trkpt>
      <trkpt lat="36.840747" lon="-5.703675">
        <ele>153.0</ele>
        <time>2022-09-26T12:36:43.079+02:00[Europe/Madrid]</time>
      </trkpt>
      <trkpt lat="36.840807" lon="-5.7039">
        <ele>153.0</ele>
        <time>2022-09-26T12:36:44.079+02:00[Europe/Madrid]</time>
      </trkpt>
      <trkpt lat="36.840864" lon="-5.704117">
        <ele>153.0</ele>
        <time>2022-09-26T12:36:45.079+02:00[Europe/Madrid]</time>
      </trkpt>
      <trkpt lat="36.840915" lon="-5.70434">
        <ele>153.0</ele>
        <time>2022-09-26T12:36:46.079+02:00[Europe/Madrid]</time>
      </trkpt>
      <trkpt lat="36.840953" lon="-5.70457">
        <ele>153.0</ele>
        <time>2022-09-26T12:36:47.079+02:00[Europe/Madrid]</time>
      </trkpt>
      <trkpt lat="36.840981" lon="-5.704805">
        <ele>153.0</ele>
        <time>2022-09-26T12:36:48.079+02:00[Europe/Madrid]</time>
      </trkpt>
      <trkpt lat="36.841002" lon="-5.70505">
        <ele>153.0</ele>
        <time>2022-09-26T12:36:49.079+02:00[Europe/Madrid]</time>
      </trkpt>
      <trkpt lat="36.841012" lon="-5.705305">
        <ele>153.0</ele>
        <time>2022-09-26T12:36:50.079+02:00[Europe/Madrid]</time>
      </trkpt>
      <trkpt lat="36.841012" lon="-5.705571">
        <ele>153.0</ele>
        <time>2022-09-26T12:36:51.079+02:00[Europe/Madrid]</time>
      </trkpt>
      <trkpt lat="36.841004" lon="-5.705851">
        <ele>154.0</ele>
        <time>2022-09-26T12:36:52.079+02:00[Europe/Madrid]</time>
      </trkpt>
      <trkpt lat="36.84099" lon="-5.706138">
        <ele>153.0</ele>
        <time>2022-09-26T12:36:53.079+02:00[Europe/Madrid]</time>
      </trkpt>
      <trkpt lat="36.840972" lon="-5.70643">
        <ele>153.0</ele>
        <time>2022-09-26T12:36:54.079+02:00[Europe/Madrid]</time>
      </trkpt>
      <trkpt lat="36.840954" lon="-5.706722">
        <ele>153.0</ele>
        <time>2022-09-26T12:36:55.079+02:00[Europe/Madrid]</time>
      </trkpt>
      <trkpt lat="36.840932" lon="-5.707014">
        <ele>153.0</ele>
        <time>2022-09-26T12:36:56.079+02:00[Europe/Madrid]</time>
      </trkpt>
      <trkpt lat="36.840911" lon="-5.707297">
        <ele>153.0</ele>
        <time>2022-09-26T12:36:57.079+02:00[Europe/Madrid]</time>
      </trkpt>
      <trkpt lat="36.840896" lon="-5.707562">
        <ele>152.0</ele>
        <time>2022-09-26T12:36:58.079+02:00[Europe/Madrid]</time>
      </trkpt>
      <trkpt lat="36.840878" lon="-5.707814">
        <ele>152.0</ele>
        <time>2022-09-26T12:36:59.079+02:00[Europe/Madrid]</time>
      </trkpt>
      <trkpt lat="36.84086" lon="-5.708066">
        <ele>152.0</ele>
        <time>2022-09-26T12:37:00.079+02:00[Europe/Madrid]</time>
      </trkpt>
      <trkpt lat="36.840841" lon="-5.708324">
        <ele>153.0</ele>
        <time>2022-09-26T12:37:01.079+02:00[Europe/Madrid]</time>
      </trkpt>
      <trkpt lat="36.840824" lon="-5.708592">
        <ele>153.0</ele>
        <time>2022-09-26T12:37:02.079+02:00[Europe/Madrid]</time>
      </trkpt>
      <trkpt lat="36.840807" lon="-5.708865">
        <ele>153.0</ele>
        <time>2022-09-26T12:37:03.079+02:00[Europe/Madrid]</time>
      </trkpt>
      <trkpt lat="36.840791" lon="-5.709135">
        <ele>153.0</ele>
        <time>2022-09-26T12:37:04.079+02:00[Europe/Madrid]</time>
      </trkpt>
      <trkpt lat="36.84077" lon="-5.709402">
        <ele>153.0</ele>
        <time>2022-09-26T12:37:05.079+02:00[Europe/Madrid]</time>
      </trkpt>
      <trkpt lat="36.840753" lon="-5.709674">
        <ele>153.0</ele>
        <time>2022-09-26T12:37:06.079+02:00[Europe/Madrid]</time>
      </trkpt>
      <trkpt lat="36.840733" lon="-5.709943">
        <ele>153.0</ele>
        <time>2022-09-26T12:37:07.079+02:00[Europe/Madrid]</time>
      </trkpt>
      <trkpt lat="36.840716" lon="-5.710205">
        <ele>153.0</ele>
        <time>2022-09-26T12:37:08.079+02:00[Europe/Madrid]</time>
      </trkpt>
      <trkpt lat="36.840698" lon="-5.71046">
        <ele>153.0</ele>
        <time>2022-09-26T12:37:09.079+02:00[Europe/Madrid]</time>
      </trkpt>
      <trkpt lat="36.840677" lon="-5.710705">
        <ele>153.0</ele>
        <time>2022-09-26T12:37:10.079+02:00[Europe/Madrid]</time>
      </trkpt>
      <trkpt lat="36.840648" lon="-5.71095">
        <ele>153.0</ele>
        <time>2022-09-26T12:37:11.079+02:00[Europe/Madrid]</time>
      </trkpt>
      <trkpt lat="36.840606" lon="-5.711194">
        <ele>153.0</ele>
        <time>2022-09-26T12:37:12.079+02:00[Europe/Madrid]</time>
      </trkpt>
      <trkpt lat="36.840554" lon="-5.711433">
        <ele>154.0</ele>
        <time>2022-09-26T12:37:13.079+02:00[Europe/Madrid]</time>
      </trkpt>
      <trkpt lat="36.84049" lon="-5.711665">
        <ele>153.0</ele>
        <time>2022-09-26T12:37:14.079+02:00[Europe/Madrid]</time>
      </trkpt>
      <trkpt lat="36.840418" lon="-5.71188">
        <ele>154.0</ele>
        <time>2022-09-26T12:37:15.079+02:00[Europe/Madrid]</time>
      </trkpt>
      <trkpt lat="36.840339" lon="-5.712077">
        <ele>154.0</ele>
        <time>2022-09-26T12:37:16.079+02:00[Europe/Madrid]</time>
      </trkpt>
      <trkpt lat="36.840253" lon="-5.71227">
        <ele>154.0</ele>
        <time>2022-09-26T12:37:17.079+02:00[Europe/Madrid]</time>
      </trkpt>
      <trkpt lat="36.840156" lon="-5.712461">
        <ele>153.0</ele>
        <time>2022-09-26T12:37:18.079+02:00[Europe/Madrid]</time>
      </trkpt>
      <trkpt lat="36.840052" lon="-5.712659">
        <ele>154.0</ele>
        <time>2022-09-26T12:37:19.079+02:00[Europe/Madrid]</time>
      </trkpt>
      <trkpt lat="36.839939" lon="-5.712852">
        <ele>154.0</ele>
        <time>2022-09-26T12:37:20.079+02:00[Europe/Madrid]</time>
      </trkpt>
      <trkpt lat="36.839818" lon="-5.713039">
        <ele>154.0</ele>
        <time>2022-09-26T12:37:21.079+02:00[Europe/Madrid]</time>
      </trkpt>
      <trkpt lat="36.8397" lon="-5.713231">
        <ele>153.0</ele>
        <time>2022-09-26T12:37:22.079+02:00[Europe/Madrid]</time>
      </trkpt>
      <trkpt lat="36.83958" lon="-5.713429">
        <ele>154.0</ele>
        <time>2022-09-26T12:37:23.079+02:00[Europe/Madrid]</time>
      </trkpt>
      <trkpt lat="36.839457" lon="-5.713629">
        <ele>153.0</ele>
        <time>2022-09-26T12:37:24.079+02:00[Europe/Madrid]</time>
      </trkpt>
      <trkpt lat="36.839332" lon="-5.713837">
        <ele>153.0</ele>
        <time>2022-09-26T12:37:25.079+02:00[Europe/Madrid]</time>
      </trkpt>
      <trkpt lat="36.839203" lon="-5.714046">
        <ele>154.0</ele>
        <time>2022-09-26T12:37:26.079+02:00[Europe/Madrid]</time>
      </trkpt>
      <trkpt lat="36.839069" lon="-5.714264">
        <ele>154.0</ele>
        <time>2022-09-26T12:37:27.079+02:00[Europe/Madrid]</time>
      </trkpt>
      <trkpt lat="36.838934" lon="-5.714487">
        <ele>153.0</ele>
        <time>2022-09-26T12:37:28.079+02:00[Europe/Madrid]</time>
      </trkpt>
      <trkpt lat="36.838796" lon="-5.714707">
        <ele>153.0</ele>
        <time>2022-09-26T12:37:29.079+02:00[Europe/Madrid]</time>
      </trkpt>
      <trkpt lat="36.838659" lon="-5.714928">
        <ele>154.0</ele>
        <time>2022-09-26T12:37:30.079+02:00[Europe/Madrid]</time>
      </trkpt>
      <trkpt lat="36.83852" lon="-5.715145">
        <ele>153.0</ele>
        <time>2022-09-26T12:37:31.079+02:00[Europe/Madrid]</time>
      </trkpt>
      <trkpt lat="36.838381" lon="-5.71536">
        <ele>154.0</ele>
        <time>2022-09-26T12:37:32.079+02:00[Europe/Madrid]</time>
      </trkpt>
      <trkpt lat="36.838247" lon="-5.715575">
        <ele>153.0</ele>
        <time>2022-09-26T12:37:33.079+02:00[Europe/Madrid]</time>
      </trkpt>
      <trkpt lat="36.838115" lon="-5.715791">
        <ele>153.0</ele>
        <time>2022-09-26T12:37:34.079+02:00[Europe/Madrid]</time>
      </trkpt>
      <trkpt lat="36.837982" lon="-5.716">
        <ele>153.0</ele>
        <time>2022-09-26T12:37:35.079+02:00[Europe/Madrid]</time>
      </trkpt>
      <trkpt lat="36.837848" lon="-5.716205">
        <ele>153.0</ele>
        <time>2022-09-26T12:37:36.079+02:00[Europe/Madrid]</time>
      </trkpt>
      <trkpt lat="36.837715" lon="-5.716404">
        <ele>153.0</ele>
        <time>2022-09-26T12:37:37.079+02:00[Europe/Madrid]</time>
      </trkpt>
      <trkpt lat="36.837574" lon="-5.716587">
        <ele>153.0</ele>
        <time>2022-09-26T12:37:38.079+02:00[Europe/Madrid]</time>
      </trkpt>
      <trkpt lat="36.83743" lon="-5.716761">
        <ele>153.0</ele>
        <time>2022-09-26T12:37:39.079+02:00[Europe/Madrid]</time>
      </trkpt>
      <trkpt lat="36.837281" lon="-5.716921">
        <ele>153.0</ele>
        <time>2022-09-26T12:37:40.079+02:00[Europe/Madrid]</time>
      </trkpt>
      <trkpt lat="36.837123" lon="-5.71707">
        <ele>153.0</ele>
        <time>2022-09-26T12:37:41.079+02:00[Europe/Madrid]</time>
      </trkpt>
      <trkpt lat="36.836959" lon="-5.717205">
        <ele>153.0</ele>
        <time>2022-09-26T12:37:42.079+02:00[Europe/Madrid]</time>
      </trkpt>
      <trkpt lat="36.836784" lon="-5.717332">
        <ele>153.0</ele>
        <time>2022-09-26T12:37:43.079+02:00[Europe/Madrid]</time>
      </trkpt>
      <trkpt lat="36.836602" lon="-5.717447">
        <ele>153.0</ele>
        <time>2022-09-26T12:37:44.079+02:00[Europe/Madrid]</time>
      </trkpt>
      <trkpt lat="36.836413" lon="-5.71755">
        <ele>152.0</ele>
        <time>2022-09-26T12:37:45.079+02:00[Europe/Madrid]</time>
      </trkpt>
      <trkpt lat="36.836217" lon="-5.717641">
        <ele>152.0</ele>
        <time>2022-09-26T12:37:46.079+02:00[Europe/Madrid]</time>
      </trkpt>
      <trkpt lat="36.836014" lon="-5.717715">
        <ele>152.0</ele>
        <time>2022-09-26T12:37:47.079+02:00[Europe/Madrid]</time>
      </trkpt>
      <trkpt lat="36.835806" lon="-5.717773">
        <ele>152.0</ele>
        <time>2022-09-26T12:37:48.079+02:00[Europe/Madrid]</time>
      </trkpt>
      <trkpt lat="36.835595" lon="-5.717815">
        <ele>152.0</ele>
        <time>2022-09-26T12:37:49.079+02:00[Europe/Madrid]</time>
      </trkpt>
      <trkpt lat="36.835383" lon="-5.717854">
        <ele>152.0</ele>
        <time>2022-09-26T12:37:50.079+02:00[Europe/Madrid]</time>
      </trkpt>
      <trkpt lat="36.835169" lon="-5.717892">
        <ele>152.0</ele>
        <time>2022-09-26T12:37:51.079+02:00[Europe/Madrid]</time>
      </trkpt>
      <trkpt lat="36.834955" lon="-5.717928">
        <ele>152.0</ele>
        <time>2022-09-26T12:37:52.079+02:00[Europe/Madrid]</time>
      </trkpt>
      <trkpt lat="36.834743" lon="-5.717967">
        <ele>152.0</ele>
        <time>2022-09-26T12:37:53.079+02:00[Europe/Madrid]</time>
      </trkpt>
      <trkpt lat="36.834539" lon="-5.718006">
        <ele>153.0</ele>
        <time>2022-09-26T12:37:54.079+02:00[Europe/Madrid]</time>
      </trkpt>
      <trkpt lat="36.834343" lon="-5.718054">
        <ele>153.0</ele>
        <time>2022-09-26T12:37:55.079+02:00[Europe/Madrid]</time>
      </trkpt>
      <trkpt lat="36.834152" lon="-5.718111">
        <ele>153.0</ele>
        <time>2022-09-26T12:37:56.079+02:00[Europe/Madrid]</time>
      </trkpt>
      <trkpt lat="36.833964" lon="-5.718177">
        <ele>153.0</ele>
        <time>2022-09-26T12:37:57.079+02:00[Europe/Madrid]</time>
      </trkpt>
      <trkpt lat="36.833777" lon="-5.718256">
        <ele>153.0</ele>
        <time>2022-09-26T12:37:58.079+02:00[Europe/Madrid]</time>
      </trkpt>
      <trkpt lat="36.83359" lon="-5.718349">
        <ele>154.0</ele>
        <time>2022-09-26T12:37:59.079+02:00[Europe/Madrid]</time>
      </trkpt>
      <trkpt lat="36.833411" lon="-5.718459">
        <ele>153.0</ele>
        <time>2022-09-26T12:38:00.079+02:00[Europe/Madrid]</time>
      </trkpt>
      <trkpt lat="36.833237" lon="-5.718581">
        <ele>153.0</ele>
        <time>2022-09-26T12:38:01.079+02:00[Europe/Madrid]</time>
      </trkpt>
      <trkpt lat="36.833071" lon="-5.718715">
        <ele>153.0</ele>
        <time>2022-09-26T12:38:02.079+02:00[Europe/Madrid]</time>
      </trkpt>
      <trkpt lat="36.832911" lon="-5.718862">
        <ele>154.0</ele>
        <time>2022-09-26T12:38:03.079+02:00[Europe/Madrid]</time>
      </trkpt>
      <trkpt lat="36.832758" lon="-5.719014">
        <ele>154.0</ele>
        <time>2022-09-26T12:38:04.079+02:00[Europe/Madrid]</time>
      </trkpt>
      <trkpt lat="36.832612" lon="-5.719181">
        <ele>153.0</ele>
        <time>2022-09-26T12:38:05.079+02:00[Europe/Madrid]</time>
      </trkpt>
      <trkpt lat="36.832477" lon="-5.719361">
        <ele>154.0</ele>
        <time>2022-09-26T12:38:06.079+02:00[Europe/Madrid]</time>
      </trkpt>
      <trkpt lat="36.832352" lon="-5.71955">
        <ele>154.0</ele>
        <time>2022-09-26T12:38:07.079+02:00[Europe/Madrid]</time>
      </trkpt>
      <trkpt lat="36.832232" lon="-5.719744">
        <ele>154.0</ele>
        <time>2022-09-26T12:38:08.079+02:00[Europe/Madrid]</time>
      </trkpt>
      <trkpt lat="36.832125" lon="-5.719957">
        <ele>154.0</ele>
        <time>2022-09-26T12:38:09.079+02:00[Europe/Madrid]</time>
      </trkpt>
      <trkpt lat="36.832024" lon="-5.720181">
        <ele>155.0</ele>
        <time>2022-09-26T12:38:10.079+02:00[Europe/Madrid]</time>
      </trkpt>
      <trkpt lat="36.831926" lon="-5.720415">
        <ele>155.0</ele>
        <time>2022-09-26T12:38:11.079+02:00[Europe/Madrid]</time>
      </trkpt>
      <trkpt lat="36.831832" lon="-5.720649">
        <ele>155.0</ele>
        <time>2022-09-26T12:38:12.079+02:00[Europe/Madrid]</time>
      </trkpt>
      <trkpt lat="36.831736" lon="-5.720886">
        <ele>155.0</ele>
        <time>2022-09-26T12:38:13.079+02:00[Europe/Madrid]</time>
      </trkpt>
      <trkpt lat="36.831639" lon="-5.721128">
        <ele>156.0</ele>
        <time>2022-09-26T12:38:14.079+02:00[Europe/Madrid]</time>
      </trkpt>
      <trkpt lat="36.831544" lon="-5.721373">
        <ele>157.0</ele>
        <time>2022-09-26T12:38:15.079+02:00[Europe/Madrid]</time>
      </trkpt>
      <trkpt lat="36.831447" lon="-5.721617">
        <ele>157.0</ele>
        <time>2022-09-26T12:38:16.079+02:00[Europe/Madrid]</time>
      </trkpt>
      <trkpt lat="36.831348" lon="-5.721864">
        <ele>158.0</ele>
        <time>2022-09-26T12:38:17.079+02:00[Europe/Madrid]</time>
      </trkpt>
      <trkpt lat="36.831249" lon="-5.722114">
        <ele>159.0</ele>
        <time>2022-09-26T12:38:18.079+02:00[Europe/Madrid]</time>
      </trkpt>
      <trkpt lat="36.831151" lon="-5.72236">
        <ele>159.0</ele>
        <time>2022-09-26T12:38:19.079+02:00[Europe/Madrid]</time>
      </trkpt>
      <trkpt lat="36.831052" lon="-5.72261">
        <ele>161.0</ele>
        <time>2022-09-26T12:38:20.079+02:00[Europe/Madrid]</time>
      </trkpt>
      <trkpt lat="36.830953" lon="-5.72286">
        <ele>162.0</ele>
        <time>2022-09-26T12:38:21.079+02:00[Europe/Madrid]</time>
      </trkpt>
      <trkpt lat="36.830857" lon="-5.7231">
        <ele>163.0</ele>
        <time>2022-09-26T12:38:22.079+02:00[Europe/Madrid]</time>
      </trkpt>
      <trkpt lat="36.830767" lon="-5.723326">
        <ele>163.0</ele>
        <time>2022-09-26T12:38:23.079+02:00[Europe/Madrid]</time>
      </trkpt>
      <trkpt lat="36.830679" lon="-5.723552">
        <ele>164.0</ele>
        <time>2022-09-26T12:38:24.079+02:00[Europe/Madrid]</time>
      </trkpt>
      <trkpt lat="36.830591" lon="-5.723772">
        <ele>165.0</ele>
        <time>2022-09-26T12:38:25.079+02:00[Europe/Madrid]</time>
      </trkpt>
      <trkpt lat="36.830505" lon="-5.723993">
        <ele>166.0</ele>
        <time>2022-09-26T12:38:26.079+02:00[Europe/Madrid]</time>
      </trkpt>
      <trkpt lat="36.830418" lon="-5.724217">
        <ele>167.0</ele>
        <time>2022-09-26T12:38:27.079+02:00[Europe/Madrid]</time>
      </trkpt>
      <trkpt lat="36.83033" lon="-5.724438">
        <ele>168.0</ele>
        <time>2022-09-26T12:38:28.079+02:00[Europe/Madrid]</time>
      </trkpt>
      <trkpt lat="36.83024" lon="-5.724665">
        <ele>168.0</ele>
        <time>2022-09-26T12:38:29.079+02:00[Europe/Madrid]</time>
      </trkpt>
      <trkpt lat="36.830152" lon="-5.724891">
        <ele>169.0</ele>
        <time>2022-09-26T12:38:30.079+02:00[Europe/Madrid]</time>
      </trkpt>
      <trkpt lat="36.830062" lon="-5.725115">
        <ele>170.0</ele>
        <time>2022-09-26T12:38:31.079+02:00[Europe/Madrid]</time>
      </trkpt>
      <trkpt lat="36.829971" lon="-5.725335">
        <ele>170.0</ele>
        <time>2022-09-26T12:38:32.079+02:00[Europe/Madrid]</time>
      </trkpt>
      <trkpt lat="36.829883" lon="-5.725556">
        <ele>170.0</ele>
        <time>2022-09-26T12:38:33.079+02:00[Europe/Madrid]</time>
      </trkpt>
      <trkpt lat="36.829796" lon="-5.725776">
        <ele>170.0</ele>
        <time>2022-09-26T12:38:34.079+02:00[Europe/Madrid]</time>
      </trkpt>
      <trkpt lat="36.829709" lon="-5.725993">
        <ele>170.0</ele>
        <time>2022-09-26T12:38:35.079+02:00[Europe/Madrid]</time>
      </trkpt>
      <trkpt lat="36.829621" lon="-5.72621">
        <ele>170.0</ele>
        <time>2022-09-26T12:38:36.079+02:00[Europe/Madrid]</time>
      </trkpt>
      <trkpt lat="36.829536" lon="-5.726429">
        <ele>170.0</ele>
        <time>2022-09-26T12:38:37.079+02:00[Europe/Madrid]</time>
      </trkpt>
      <trkpt lat="36.82945" lon="-5.726649">
        <ele>170.0</ele>
        <time>2022-09-26T12:38:38.079+02:00[Europe/Madrid]</time>
      </trkpt>
      <trkpt lat="36.829362" lon="-5.726869">
        <ele>170.0</ele>
        <time>2022-09-26T12:38:39.079+02:00[Europe/Madrid]</time>
      </trkpt>
      <trkpt lat="36.829277" lon="-5.727091">
        <ele>169.0</ele>
        <time>2022-09-26T12:38:40.079+02:00[Europe/Madrid]</time>
      </trkpt>
      <trkpt lat="36.829186" lon="-5.727322">
        <ele>169.0</ele>
        <time>2022-09-26T12:38:41.079+02:00[Europe/Madrid]</time>
      </trkpt>
      <trkpt lat="36.829093" lon="-5.727557">
        <ele>168.0</ele>
        <time>2022-09-26T12:38:42.079+02:00[Europe/Madrid]</time>
      </trkpt>
      <trkpt lat="36.828995" lon="-5.727801">
        <ele>168.0</ele>
        <time>2022-09-26T12:38:43.079+02:00[Europe/Madrid]</time>
      </trkpt>
      <trkpt lat="36.828898" lon="-5.728047">
        <ele>168.0</ele>
        <time>2022-09-26T12:38:44.079+02:00[Europe/Madrid]</time>
      </trkpt>
      <trkpt lat="36.828794" lon="-5.728302">
        <ele>168.0</ele>
        <time>2022-09-26T12:38:45.079+02:00[Europe/Madrid]</time>
      </trkpt>
      <trkpt lat="36.828693" lon="-5.728553">
        <ele>168.0</ele>
        <time>2022-09-26T12:38:46.079+02:00[Europe/Madrid]</time>
      </trkpt>
      <trkpt lat="36.828593" lon="-5.7288">
        <ele>169.0</ele>
        <time>2022-09-26T12:38:47.079+02:00[Europe/Madrid]</time>
      </trkpt>
      <trkpt lat="36.828497" lon="-5.729032">
        <ele>169.0</ele>
        <time>2022-09-26T12:38:48.079+02:00[Europe/Madrid]</time>
      </trkpt>
      <trkpt lat="36.828408" lon="-5.729253">
        <ele>170.0</ele>
        <time>2022-09-26T12:38:49.079+02:00[Europe/Madrid]</time>
      </trkpt>
      <trkpt lat="36.828315" lon="-5.729486">
        <ele>170.0</ele>
        <time>2022-09-26T12:38:50.079+02:00[Europe/Madrid]</time>
      </trkpt>
      <trkpt lat="36.82822" lon="-5.729717">
        <ele>171.0</ele>
        <time>2022-09-26T12:38:51.079+02:00[Europe/Madrid]</time>
      </trkpt>
      <trkpt lat="36.828128" lon="-5.729941">
        <ele>171.0</ele>
        <time>2022-09-26T12:38:52.079+02:00[Europe/Madrid]</time>
      </trkpt>
      <trkpt lat="36.82804" lon="-5.730163">
        <ele>172.0</ele>
        <time>2022-09-26T12:38:53.079+02:00[Europe/Madrid]</time>
      </trkpt>
      <trkpt lat="36.82795" lon="-5.730383">
        <ele>172.0</ele>
        <time>2022-09-26T12:38:54.079+02:00[Europe/Madrid]</time>
      </trkpt>
      <trkpt lat="36.827859" lon="-5.730606">
        <ele>172.0</ele>
        <time>2022-09-26T12:38:55.079+02:00[Europe/Madrid]</time>
      </trkpt>
      <trkpt lat="36.82777" lon="-5.73083">
        <ele>172.0</ele>
        <time>2022-09-26T12:38:56.079+02:00[Europe/Madrid]</time>
      </trkpt>
      <trkpt lat="36.827679" lon="-5.731061">
        <ele>172.0</ele>
        <time>2022-09-26T12:38:57.079+02:00[Europe/Madrid]</time>
      </trkpt>
      <trkpt lat="36.82759" lon="-5.731295">
        <ele>172.0</ele>
        <time>2022-09-26T12:38:58.079+02:00[Europe/Madrid]</time>
      </trkpt>
      <trkpt lat="36.827504" lon="-5.731531">
        <ele>172.0</ele>
        <time>2022-09-26T12:38:59.079+02:00[Europe/Madrid]</time>
      </trkpt>
      <trkpt lat="36.827416" lon="-5.731764">
        <ele>172.0</ele>
        <time>2022-09-26T12:39:00.079+02:00[Europe/Madrid]</time>
      </trkpt>
      <trkpt lat="36.827327" lon="-5.731998">
        <ele>172.0</ele>
        <time>2022-09-26T12:39:01.079+02:00[Europe/Madrid]</time>
      </trkpt>
      <trkpt lat="36.827244" lon="-5.732227">
        <ele>172.0</ele>
        <time>2022-09-26T12:39:02.079+02:00[Europe/Madrid]</time>
      </trkpt>
      <trkpt lat="36.82716" lon="-5.73246">
        <ele>172.0</ele>
        <time>2022-09-26T12:39:03.079+02:00[Europe/Madrid]</time>
      </trkpt>
      <trkpt lat="36.827081" lon="-5.732694">
        <ele>172.0</ele>
        <time>2022-09-26T12:39:04.079+02:00[Europe/Madrid]</time>
      </trkpt>
      <trkpt lat="36.827006" lon="-5.732929">
        <ele>172.0</ele>
        <time>2022-09-26T12:39:05.079+02:00[Europe/Madrid]</time>
      </trkpt>
      <trkpt lat="36.826937" lon="-5.733167">
        <ele>172.0</ele>
        <time>2022-09-26T12:39:06.079+02:00[Europe/Madrid]</time>
      </trkpt>
      <trkpt lat="36.82687" lon="-5.733412">
        <ele>172.0</ele>
        <time>2022-09-26T12:39:07.079+02:00[Europe/Madrid]</time>
      </trkpt>
      <trkpt lat="36.826805" lon="-5.733661">
        <ele>171.0</ele>
        <time>2022-09-26T12:39:08.079+02:00[Europe/Madrid]</time>
      </trkpt>
      <trkpt lat="36.82674" lon="-5.733912">
        <ele>171.0</ele>
        <time>2022-09-26T12:39:09.079+02:00[Europe/Madrid]</time>
      </trkpt>
      <trkpt lat="36.826682" lon="-5.734157">
        <ele>171.0</ele>
        <time>2022-09-26T12:39:10.079+02:00[Europe/Madrid]</time>
      </trkpt>
      <trkpt lat="36.826625" lon="-5.734397">
        <ele>170.0</ele>
        <time>2022-09-26T12:39:11.079+02:00[Europe/Madrid]</time>
      </trkpt>
      <trkpt lat="36.826569" lon="-5.734637">
        <ele>170.0</ele>
        <time>2022-09-26T12:39:12.079+02:00[Europe/Madrid]</time>
      </trkpt>
      <trkpt lat="36.826519" lon="-5.734879">
        <ele>170.0</ele>
        <time>2022-09-26T12:39:13.079+02:00[Europe/Madrid]</time>
      </trkpt>
      <trkpt lat="36.826469" lon="-5.735128">
        <ele>169.0</ele>
        <time>2022-09-26T12:39:14.079+02:00[Europe/Madrid]</time>
      </trkpt>
      <trkpt lat="36.826415" lon="-5.735383">
        <ele>169.0</ele>
        <time>2022-09-26T12:39:15.079+02:00[Europe/Madrid]</time>
      </trkpt>
      <trkpt lat="36.826359" lon="-5.735637">
        <ele>169.0</ele>
        <time>2022-09-26T12:39:16.079+02:00[Europe/Madrid]</time>
      </trkpt>
      <trkpt lat="36.826301" lon="-5.735888">
        <ele>169.0</ele>
        <time>2022-09-26T12:39:17.079+02:00[Europe/Madrid]</time>
      </trkpt>
      <trkpt lat="36.826244" lon="-5.736134">
        <ele>169.0</ele>
        <time>2022-09-26T12:39:18.079+02:00[Europe/Madrid]</time>
      </trkpt>
      <trkpt lat="36.826188" lon="-5.736369">
        <ele>170.0</ele>
        <time>2022-09-26T12:39:19.079+02:00[Europe/Madrid]</time>
      </trkpt>
      <trkpt lat="36.826133" lon="-5.736602">
        <ele>170.0</ele>
        <time>2022-09-26T12:39:20.079+02:00[Europe/Madrid]</time>
      </trkpt>
      <trkpt lat="36.826075" lon="-5.736838">
        <ele>171.0</ele>
        <time>2022-09-26T12:39:21.079+02:00[Europe/Madrid]</time>
      </trkpt>
      <trkpt lat="36.826015" lon="-5.737067">
        <ele>171.0</ele>
        <time>2022-09-26T12:39:22.079+02:00[Europe/Madrid]</time>
      </trkpt>
      <trkpt lat="36.825957" lon="-5.737293">
        <ele>172.0</ele>
        <time>2022-09-26T12:39:23.079+02:00[Europe/Madrid]</time>
      </trkpt>
      <trkpt lat="36.825897" lon="-5.737523">
        <ele>173.0</ele>
        <time>2022-09-26T12:39:24.079+02:00[Europe/Madrid]</time>
      </trkpt>
      <trkpt lat="36.825835" lon="-5.737748">
        <ele>173.0</ele>
        <time>2022-09-26T12:39:25.079+02:00[Europe/Madrid]</time>
      </trkpt>
      <trkpt lat="36.825771" lon="-5.737968">
        <ele>174.0</ele>
        <time>2022-09-26T12:39:26.079+02:00[Europe/Madrid]</time>
      </trkpt>
      <trkpt lat="36.825709" lon="-5.738195">
        <ele>175.0</ele>
        <time>2022-09-26T12:39:27.079+02:00[Europe/Madrid]</time>
      </trkpt>
      <trkpt lat="36.825645" lon="-5.738413">
        <ele>176.0</ele>
        <time>2022-09-26T12:39:28.079+02:00[Europe/Madrid]</time>
      </trkpt>
      <trkpt lat="36.825585" lon="-5.738626">
        <ele>177.0</ele>
        <time>2022-09-26T12:39:29.079+02:00[Europe/Madrid]</time>
      </trkpt>
      <trkpt lat="36.825524" lon="-5.738839">
        <ele>178.0</ele>
        <time>2022-09-26T12:39:30.079+02:00[Europe/Madrid]</time>
      </trkpt>
      <trkpt lat="36.825469" lon="-5.739044">
        <ele>178.0</ele>
        <time>2022-09-26T12:39:31.079+02:00[Europe/Madrid]</time>
      </trkpt>
      <trkpt lat="36.825414" lon="-5.739246">
        <ele>179.0</ele>
        <time>2022-09-26T12:39:32.079+02:00[Europe/Madrid]</time>
      </trkpt>
      <trkpt lat="36.825356" lon="-5.739445">
        <ele>180.0</ele>
        <time>2022-09-26T12:39:33.079+02:00[Europe/Madrid]</time>
      </trkpt>
      <trkpt lat="36.825303" lon="-5.739648">
        <ele>181.0</ele>
        <time>2022-09-26T12:39:34.079+02:00[Europe/Madrid]</time>
      </trkpt>
      <trkpt lat="36.825252" lon="-5.739857">
        <ele>182.0</ele>
        <time>2022-09-26T12:39:35.079+02:00[Europe/Madrid]</time>
      </trkpt>
      <trkpt lat="36.8252" lon="-5.740064">
        <ele>182.0</ele>
        <time>2022-09-26T12:39:36.079+02:00[Europe/Madrid]</time>
      </trkpt>
      <trkpt lat="36.825148" lon="-5.74027">
        <ele>183.0</ele>
        <time>2022-09-26T12:39:37.079+02:00[Europe/Madrid]</time>
      </trkpt>
      <trkpt lat="36.825097" lon="-5.740473">
        <ele>184.0</ele>
        <time>2022-09-26T12:39:38.079+02:00[Europe/Madrid]</time>
      </trkpt>
      <trkpt lat="36.82505" lon="-5.740678">
        <ele>184.0</ele>
        <time>2022-09-26T12:39:39.079+02:00[Europe/Madrid]</time>
      </trkpt>
      <trkpt lat="36.825005" lon="-5.740882">
        <ele>185.0</ele>
        <time>2022-09-26T12:39:40.079+02:00[Europe/Madrid]</time>
      </trkpt>
      <trkpt lat="36.824964" lon="-5.741088">
        <ele>185.0</ele>
        <time>2022-09-26T12:39:41.079+02:00[Europe/Madrid]</time>
      </trkpt>
      <trkpt lat="36.824925" lon="-5.74129">
        <ele>186.0</ele>
        <time>2022-09-26T12:39:42.079+02:00[Europe/Madrid]</time>
      </trkpt>
      <trkpt lat="36.824883" lon="-5.741489">
        <ele>186.0</ele>
        <time>2022-09-26T12:39:43.079+02:00[Europe/Madrid]</time>
      </trkpt>
      <trkpt lat="36.82484" lon="-5.74168">
        <ele>187.0</ele>
        <time>2022-09-26T12:39:44.079+02:00[Europe/Madrid]</time>
      </trkpt>
      <trkpt lat="36.824802" lon="-5.741859">
        <ele>187.0</ele>
        <time>2022-09-26T12:39:45.079+02:00[Europe/Madrid]</time>
      </trkpt>
      <trkpt lat="36.824762" lon="-5.742029">
        <ele>188.0</ele>
        <time>2022-09-26T12:39:46.079+02:00[Europe/Madrid]</time>
      </trkpt>
      <trkpt lat="36.824721" lon="-5.742194">
        <ele>189.0</ele>
        <time>2022-09-26T12:39:47.079+02:00[Europe/Madrid]</time>
      </trkpt>
      <trkpt lat="36.824679" lon="-5.742367">
        <ele>190.0</ele>
        <time>2022-09-26T12:39:48.079+02:00[Europe/Madrid]</time>
      </trkpt>
      <trkpt lat="36.824635" lon="-5.742546">
        <ele>190.0</ele>
        <time>2022-09-26T12:39:49.079+02:00[Europe/Madrid]</time>
      </trkpt>
      <trkpt lat="36.824589" lon="-5.742723">
        <ele>191.0</ele>
        <time>2022-09-26T12:39:50.079+02:00[Europe/Madrid]</time>
      </trkpt>
      <trkpt lat="36.824541" lon="-5.742897">
        <ele>192.0</ele>
        <time>2022-09-26T12:39:51.079+02:00[Europe/Madrid]</time>
      </trkpt>
      <trkpt lat="36.824493" lon="-5.74306">
        <ele>193.0</ele>
        <time>2022-09-26T12:39:52.079+02:00[Europe/Madrid]</time>
      </trkpt>
      <trkpt lat="36.824446" lon="-5.743221">
        <ele>194.0</ele>
        <time>2022-09-26T12:39:53.079+02:00[Europe/Madrid]</time>
      </trkpt>
      <trkpt lat="36.824394" lon="-5.743378">
        <ele>195.0</ele>
        <time>2022-09-26T12:39:54.079+02:00[Europe/Madrid]</time>
      </trkpt>
      <trkpt lat="36.824344" lon="-5.743532">
        <ele>195.0</ele>
        <time>2022-09-26T12:39:55.079+02:00[Europe/Madrid]</time>
      </trkpt>
      <trkpt lat="36.824289" lon="-5.743682">
        <ele>196.0</ele>
        <time>2022-09-26T12:39:56.079+02:00[Europe/Madrid]</time>
      </trkpt>
      <trkpt lat="36.824224" lon="-5.743827">
        <ele>196.0</ele>
        <time>2022-09-26T12:39:57.079+02:00[Europe/Madrid]</time>
      </trkpt>
      <trkpt lat="36.824152" lon="-5.743967">
        <ele>197.0</ele>
        <time>2022-09-26T12:39:58.079+02:00[Europe/Madrid]</time>
      </trkpt>
      <trkpt lat="36.82406" lon="-5.7441">
        <ele>198.0</ele>
        <time>2022-09-26T12:39:59.079+02:00[Europe/Madrid]</time>
      </trkpt>
      <trkpt lat="36.823953" lon="-5.744221">
        <ele>199.0</ele>
        <time>2022-09-26T12:40:00.079+02:00[Europe/Madrid]</time>
      </trkpt>
      <trkpt lat="36.82383" lon="-5.744326">
        <ele>199.0</ele>
        <time>2022-09-26T12:40:01.079+02:00[Europe/Madrid]</time>
      </trkpt>
      <trkpt lat="36.82369" lon="-5.74441">
        <ele>200.0</ele>
        <time>2022-09-26T12:40:02.079+02:00[Europe/Madrid]</time>
      </trkpt>
      <trkpt lat="36.823545" lon="-5.744474">
        <ele>200.0</ele>
        <time>2022-09-26T12:40:03.079+02:00[Europe/Madrid]</time>
      </trkpt>
      <trkpt lat="36.823399" lon="-5.744524">
        <ele>201.0</ele>
        <time>2022-09-26T12:40:04.079+02:00[Europe/Madrid]</time>
      </trkpt>
      <trkpt lat="36.823252" lon="-5.744571">
        <ele>202.0</ele>
        <time>2022-09-26T12:40:05.079+02:00[Europe/Madrid]</time>
      </trkpt>
      <trkpt lat="36.823105" lon="-5.744617">
        <ele>202.0</ele>
        <time>2022-09-26T12:40:06.079+02:00[Europe/Madrid]</time>
      </trkpt>
      <trkpt lat="36.822961" lon="-5.744663">
        <ele>203.0</ele>
        <time>2022-09-26T12:40:07.079+02:00[Europe/Madrid]</time>
      </trkpt>
      <trkpt lat="36.822817" lon="-5.744713">
        <ele>204.0</ele>
        <time>2022-09-26T12:40:08.079+02:00[Europe/Madrid]</time>
      </trkpt>
      <trkpt lat="36.822671" lon="-5.744767">
        <ele>205.0</ele>
        <time>2022-09-26T12:40:09.079+02:00[Europe/Madrid]</time>
      </trkpt>
      <trkpt lat="36.822513" lon="-5.744835">
        <ele>205.0</ele>
        <time>2022-09-26T12:40:10.079+02:00[Europe/Madrid]</time>
      </trkpt>
      <trkpt lat="36.82235" lon="-5.744905">
        <ele>207.0</ele>
        <time>2022-09-26T12:40:11.079+02:00[Europe/Madrid]</time>
      </trkpt>
      <trkpt lat="36.822175" lon="-5.744988">
        <ele>207.0</ele>
        <time>2022-09-26T12:40:12.079+02:00[Europe/Madrid]</time>
      </trkpt>
      <trkpt lat="36.821992" lon="-5.745079">
        <ele>208.0</ele>
        <time>2022-09-26T12:40:13.079+02:00[Europe/Madrid]</time>
      </trkpt>
      <trkpt lat="36.821803" lon="-5.745179">
        <ele>209.0</ele>
        <time>2022-09-26T12:40:14.079+02:00[Europe/Madrid]</time>
      </trkpt>
      <trkpt lat="36.821607" lon="-5.745292">
        <ele>210.0</ele>
        <time>2022-09-26T12:40:15.079+02:00[Europe/Madrid]</time>
      </trkpt>
      <trkpt lat="36.821405" lon="-5.745421">
        <ele>211.0</ele>
        <time>2022-09-26T12:40:16.079+02:00[Europe/Madrid]</time>
      </trkpt>
      <trkpt lat="36.821201" lon="-5.745559">
        <ele>212.0</ele>
        <time>2022-09-26T12:40:17.079+02:00[Europe/Madrid]</time>
      </trkpt>
      <trkpt lat="36.820996" lon="-5.745696">
        <ele>213.0</ele>
        <time>2022-09-26T12:40:18.079+02:00[Europe/Madrid]</time>
      </trkpt>
      <trkpt lat="36.820789" lon="-5.745835">
        <ele>214.0</ele>
        <time>2022-09-26T12:40:19.079+02:00[Europe/Madrid]</time>
      </trkpt>
      <trkpt lat="36.820579" lon="-5.745984">
        <ele>215.0</ele>
        <time>2022-09-26T12:40:20.079+02:00[Europe/Madrid]</time>
      </trkpt>
      <trkpt lat="36.820364" lon="-5.746132">
        <ele>217.0</ele>
        <time>2022-09-26T12:40:21.079+02:00[Europe/Madrid]</time>
      </trkpt>
      <trkpt lat="36.820138" lon="-5.746275">
        <ele>218.0</ele>
        <time>2022-09-26T12:40:22.079+02:00[Europe/Madrid]</time>
      </trkpt>
      <trkpt lat="36.819913" lon="-5.746415">
        <ele>219.0</ele>
        <time>2022-09-26T12:40:23.079+02:00[Europe/Madrid]</time>
      </trkpt>
      <trkpt lat="36.8197" lon="-5.746547">
        <ele>220.0</ele>
        <time>2022-09-26T12:40:24.079+02:00[Europe/Madrid]</time>
      </trkpt>
      <trkpt lat="36.819495" lon="-5.746679">
        <ele>222.0</ele>
        <time>2022-09-26T12:40:25.079+02:00[Europe/Madrid]</time>
      </trkpt>
      <trkpt lat="36.819289" lon="-5.74682">
        <ele>223.0</ele>
        <time>2022-09-26T12:40:26.079+02:00[Europe/Madrid]</time>
      </trkpt>
      <trkpt lat="36.819095" lon="-5.746959">
        <ele>224.0</ele>
        <time>2022-09-26T12:40:27.079+02:00[Europe/Madrid]</time>
      </trkpt>
      <trkpt lat="36.818906" lon="-5.747093">
        <ele>225.0</ele>
        <time>2022-09-26T12:40:28.079+02:00[Europe/Madrid]</time>
      </trkpt>
      <trkpt lat="36.81872" lon="-5.747237">
        <ele>226.0</ele>
        <time>2022-09-26T12:40:29.079+02:00[Europe/Madrid]</time>
      </trkpt>
      <trkpt lat="36.818534" lon="-5.747383">
        <ele>227.0</ele>
        <time>2022-09-26T12:40:30.079+02:00[Europe/Madrid]</time>
      </trkpt>
      <trkpt lat="36.818351" lon="-5.747537">
        <ele>228.0</ele>
        <time>2022-09-26T12:40:31.079+02:00[Europe/Madrid]</time>
      </trkpt>
      <trkpt lat="36.818164" lon="-5.747699">
        <ele>229.0</ele>
        <time>2022-09-26T12:40:32.079+02:00[Europe/Madrid]</time>
      </trkpt>
      <trkpt lat="36.817979" lon="-5.747857">
        <ele>230.0</ele>
        <time>2022-09-26T12:40:33.079+02:00[Europe/Madrid]</time>
      </trkpt>
      <trkpt lat="36.817806" lon="-5.747999">
        <ele>231.0</ele>
        <time>2022-09-26T12:40:34.079+02:00[Europe/Madrid]</time>
      </trkpt>
      <trkpt lat="36.817642" lon="-5.748129">
        <ele>232.0</ele>
        <time>2022-09-26T12:40:35.079+02:00[Europe/Madrid]</time>
      </trkpt>
      <trkpt lat="36.817467" lon="-5.748248">
        <ele>233.0</ele>
        <time>2022-09-26T12:40:36.079+02:00[Europe/Madrid]</time>
      </trkpt>
      <trkpt lat="36.817281" lon="-5.748352">
        <ele>234.0</ele>
        <time>2022-09-26T12:40:37.079+02:00[Europe/Madrid]</time>
      </trkpt>
      <trkpt lat="36.817086" lon="-5.748449">
        <ele>235.0</ele>
        <time>2022-09-26T12:40:38.079+02:00[Europe/Madrid]</time>
      </trkpt>
      <trkpt lat="36.816884" lon="-5.748542">
        <ele>236.0</ele>
        <time>2022-09-26T12:40:39.079+02:00[Europe/Madrid]</time>
      </trkpt>
      <trkpt lat="36.81668" lon="-5.74863">
        <ele>237.0</ele>
        <time>2022-09-26T12:40:40.079+02:00[Europe/Madrid]</time>
      </trkpt>
      <trkpt lat="36.816474" lon="-5.748718">
        <ele>238.0</ele>
        <time>2022-09-26T12:40:41.079+02:00[Europe/Madrid]</time>
      </trkpt>
      <trkpt lat="36.816271" lon="-5.748807">
        <ele>239.0</ele>
        <time>2022-09-26T12:40:42.079+02:00[Europe/Madrid]</time>
      </trkpt>
      <trkpt lat="36.816072" lon="-5.748898">
        <ele>240.0</ele>
        <time>2022-09-26T12:40:43.079+02:00[Europe/Madrid]</time>
      </trkpt>
      <trkpt lat="36.815886" lon="-5.748986">
        <ele>241.0</ele>
        <time>2022-09-26T12:40:44.079+02:00[Europe/Madrid]</time>
      </trkpt>
      <trkpt lat="36.815714" lon="-5.749067">
        <ele>241.0</ele>
        <time>2022-09-26T12:40:45.079+02:00[Europe/Madrid]</time>
      </trkpt>
      <trkpt lat="36.815556" lon="-5.74914">
        <ele>242.0</ele>
        <time>2022-09-26T12:40:46.079+02:00[Europe/Madrid]</time>
      </trkpt>
      <trkpt lat="36.815417" lon="-5.749205">
        <ele>243.0</ele>
        <time>2022-09-26T12:40:47.079+02:00[Europe/Madrid]</time>
      </trkpt>
      <trkpt lat="36.815297" lon="-5.749267">
        <ele>244.0</ele>
        <time>2022-09-26T12:40:48.079+02:00[Europe/Madrid]</time>
      </trkpt>
      <trkpt lat="36.815195" lon="-5.749331">
        <ele>244.0</ele>
        <time>2022-09-26T12:40:49.079+02:00[Europe/Madrid]</time>
      </trkpt>
      <trkpt lat="36.815113" lon="-5.749396">
        <ele>244.0</ele>
        <time>2022-09-26T12:40:50.079+02:00[Europe/Madrid]</time>
      </trkpt>
      <trkpt lat="36.814972" lon="-5.749529">
        <ele>245.0</ele>
        <time>2022-09-26T12:40:51.911+02:00[Europe/Madrid]</time>
      </trkpt>
      <trkpt lat="36.814841" lon="-5.749632">
        <ele>245.0</ele>
        <time>2022-09-26T12:40:53.899+02:00[Europe/Madrid]</time>
      </trkpt>
      <trkpt lat="36.814736" lon="-5.749698">
        <ele>246.0</ele>
        <time>2022-09-26T12:40:55.908+02:00[Europe/Madrid]</time>
      </trkpt>
      <trkpt lat="36.814637" lon="-5.749743">
        <ele>246.0</ele>
        <time>2022-09-26T12:40:58.901+02:00[Europe/Madrid]</time>
      </trkpt>
      <trkpt lat="36.814554" lon="-5.749695">
        <ele>247.0</ele>
        <time>2022-09-26T12:41:03.906+02:00[Europe/Madrid]</time>
      </trkpt>
      <trkpt lat="36.814607" lon="-5.749542">
        <ele>247.0</ele>
        <time>2022-09-26T12:41:21.914+02:00[Europe/Madrid]</time>
      </trkpt>
      <trkpt lat="36.81469" lon="-5.749477">
        <ele>246.0</ele>
        <time>2022-09-26T12:41:22.914+02:00[Europe/Madrid]</time>
      </trkpt>
      <trkpt lat="36.814786" lon="-5.749421">
        <ele>245.0</ele>
        <time>2022-09-26T12:41:23.914+02:00[Europe/Madrid]</time>
      </trkpt>
      <trkpt lat="36.814913" lon="-5.749358">
        <ele>245.0</ele>
        <time>2022-09-26T12:41:24.914+02:00[Europe/Madrid]</time>
      </trkpt>
      <trkpt lat="36.81505" lon="-5.749291">
        <ele>244.0</ele>
        <time>2022-09-26T12:41:25.914+02:00[Europe/Madrid]</time>
      </trkpt>
      <trkpt lat="36.8152" lon="-5.749221">
        <ele>244.0</ele>
        <time>2022-09-26T12:41:26.914+02:00[Europe/Madrid]</time>
      </trkpt>
      <trkpt lat="36.815341" lon="-5.749155">
        <ele>243.0</ele>
        <time>2022-09-26T12:41:27.914+02:00[Europe/Madrid]</time>
      </trkpt>
      <trkpt lat="36.815484" lon="-5.749086">
        <ele>242.0</ele>
        <time>2022-09-26T12:41:28.914+02:00[Europe/Madrid]</time>
      </trkpt>
      <trkpt lat="36.815624" lon="-5.749017">
        <ele>241.0</ele>
        <time>2022-09-26T12:41:29.914+02:00[Europe/Madrid]</time>
      </trkpt>
      <trkpt lat="36.815764" lon="-5.748945">
        <ele>241.0</ele>
        <time>2022-09-26T12:41:30.914+02:00[Europe/Madrid]</time>
      </trkpt>
      <trkpt lat="36.815906" lon="-5.74887">
        <ele>240.0</ele>
        <time>2022-09-26T12:41:31.914+02:00[Europe/Madrid]</time>
      </trkpt>
      <trkpt lat="36.816044" lon="-5.748802">
        <ele>239.0</ele>
        <time>2022-09-26T12:41:32.914+02:00[Europe/Madrid]</time>
      </trkpt>
      <trkpt lat="36.816177" lon="-5.748743">
        <ele>238.0</ele>
        <time>2022-09-26T12:41:33.914+02:00[Europe/Madrid]</time>
      </trkpt>
      <trkpt lat="36.816306" lon="-5.748685">
        <ele>238.0</ele>
        <time>2022-09-26T12:41:34.914+02:00[Europe/Madrid]</time>
      </trkpt>
      <trkpt lat="36.816435" lon="-5.748625">
        <ele>237.0</ele>
        <time>2022-09-26T12:41:35.914+02:00[Europe/Madrid]</time>
      </trkpt>
      <trkpt lat="36.816568" lon="-5.748563">
        <ele>237.0</ele>
        <time>2022-09-26T12:41:36.914+02:00[Europe/Madrid]</time>
      </trkpt>
      <trkpt lat="36.816711" lon="-5.748505">
        <ele>236.0</ele>
        <time>2022-09-26T12:41:37.914+02:00[Europe/Madrid]</time>
      </trkpt>
      <trkpt lat="36.816847" lon="-5.748448">
        <ele>235.0</ele>
        <time>2022-09-26T12:41:38.914+02:00[Europe/Madrid]</time>
      </trkpt>
      <trkpt lat="36.816969" lon="-5.748392">
        <ele>234.0</ele>
        <time>2022-09-26T12:41:39.914+02:00[Europe/Madrid]</time>
      </trkpt>
      <trkpt lat="36.817084" lon="-5.748339">
        <ele>233.0</ele>
        <time>2022-09-26T12:41:40.914+02:00[Europe/Madrid]</time>
      </trkpt>
      <trkpt lat="36.817185" lon="-5.748292">
        <ele>233.0</ele>
        <time>2022-09-26T12:41:41.914+02:00[Europe/Madrid]</time>
      </trkpt>
      <trkpt lat="36.817275" lon="-5.748245">
        <ele>232.0</ele>
        <time>2022-09-26T12:41:42.914+02:00[Europe/Madrid]</time>
      </trkpt>
      <trkpt lat="36.817416" lon="-5.748161">
        <ele>231.0</ele>
        <time>2022-09-26T12:41:44.907+02:00[Europe/Madrid]</time>
      </trkpt>
      <trkpt lat="36.8175" lon="-5.748103">
        <ele>230.0</ele>
        <time>2022-09-26T12:41:46.901+02:00[Europe/Madrid]</time>
      </trkpt>
      <trkpt lat="36.817588" lon="-5.748049">
        <ele>232.0</ele>
        <time>2022-09-26T12:51:45.903+02:00[Europe/Madrid]</time>
      </trkpt>
      <trkpt lat="36.817721" lon="-5.747959">
        <ele>232.0</ele>
        <time>2022-09-26T12:51:48.916+02:00[Europe/Madrid]</time>
      </trkpt>
      <trkpt lat="36.817888" lon="-5.747826">
        <ele>231.0</ele>
        <time>2022-09-26T12:51:50.945+02:00[Europe/Madrid]</time>
      </trkpt>
      <trkpt lat="36.817993" lon="-5.747739">
        <ele>230.0</ele>
        <time>2022-09-26T12:51:51.945+02:00[Europe/Madrid]</time>
      </trkpt>
      <trkpt lat="36.818098" lon="-5.747651">
        <ele>230.0</ele>
        <time>2022-09-26T12:51:52.945+02:00[Europe/Madrid]</time>
      </trkpt>
      <trkpt lat="36.81821" lon="-5.747562">
        <ele>229.0</ele>
        <time>2022-09-26T12:51:53.945+02:00[Europe/Madrid]</time>
      </trkpt>
      <trkpt lat="36.818327" lon="-5.747471">
        <ele>229.0</ele>
        <time>2022-09-26T12:51:54.945+02:00[Europe/Madrid]</time>
      </trkpt>
      <trkpt lat="36.818451" lon="-5.747376">
        <ele>228.0</ele>
        <time>2022-09-26T12:51:55.945+02:00[Europe/Madrid]</time>
      </trkpt>
      <trkpt lat="36.818575" lon="-5.747287">
        <ele>227.0</ele>
        <time>2022-09-26T12:51:56.945+02:00[Europe/Madrid]</time>
      </trkpt>
      <trkpt lat="36.818696" lon="-5.747199">
        <ele>227.0</ele>
        <time>2022-09-26T12:51:57.945+02:00[Europe/Madrid]</time>
      </trkpt>
      <trkpt lat="36.81881" lon="-5.747111">
        <ele>226.0</ele>
        <time>2022-09-26T12:51:58.945+02:00[Europe/Madrid]</time>
      </trkpt>
      <trkpt lat="36.81892" lon="-5.747027">
        <ele>225.0</ele>
        <time>2022-09-26T12:51:59.945+02:00[Europe/Madrid]</time>
      </trkpt>
      <trkpt lat="36.819034" lon="-5.746944">
        <ele>225.0</ele>
        <time>2022-09-26T12:52:00.945+02:00[Europe/Madrid]</time>
      </trkpt>
      <trkpt lat="36.819152" lon="-5.746859">
        <ele>224.0</ele>
        <time>2022-09-26T12:52:01.945+02:00[Europe/Madrid]</time>
      </trkpt>
      <trkpt lat="36.819273" lon="-5.746775">
        <ele>224.0</ele>
        <time>2022-09-26T12:52:02.945+02:00[Europe/Madrid]</time>
      </trkpt>
      <trkpt lat="36.819397" lon="-5.74669">
        <ele>223.0</ele>
        <time>2022-09-26T12:52:03.945+02:00[Europe/Madrid]</time>
      </trkpt>
      <trkpt lat="36.819522" lon="-5.746607">
        <ele>223.0</ele>
        <time>2022-09-26T12:52:04.945+02:00[Europe/Madrid]</time>
      </trkpt>
      <trkpt lat="36.819643" lon="-5.746524">
        <ele>222.0</ele>
        <time>2022-09-26T12:52:05.945+02:00[Europe/Madrid]</time>
      </trkpt>
      <trkpt lat="36.819761" lon="-5.746442">
        <ele>221.0</ele>
        <time>2022-09-26T12:52:06.945+02:00[Europe/Madrid]</time>
      </trkpt>
      <trkpt lat="36.819877" lon="-5.746359">
        <ele>220.0</ele>
        <time>2022-09-26T12:52:07.945+02:00[Europe/Madrid]</time>
      </trkpt>
      <trkpt lat="36.819992" lon="-5.746281">
        <ele>220.0</ele>
        <time>2022-09-26T12:52:08.945+02:00[Europe/Madrid]</time>
      </trkpt>
      <trkpt lat="36.820106" lon="-5.746207">
        <ele>219.0</ele>
        <time>2022-09-26T12:52:09.945+02:00[Europe/Madrid]</time>
      </trkpt>
      <trkpt lat="36.820221" lon="-5.746129">
        <ele>218.0</ele>
        <time>2022-09-26T12:52:10.945+02:00[Europe/Madrid]</time>
      </trkpt>
      <trkpt lat="36.820336" lon="-5.746049">
        <ele>218.0</ele>
        <time>2022-09-26T12:52:11.945+02:00[Europe/Madrid]</time>
      </trkpt>
      <trkpt lat="36.820453" lon="-5.745967">
        <ele>217.0</ele>
        <time>2022-09-26T12:52:12.945+02:00[Europe/Madrid]</time>
      </trkpt>
      <trkpt lat="36.820572" lon="-5.74588">
        <ele>217.0</ele>
        <time>2022-09-26T12:52:13.945+02:00[Europe/Madrid]</time>
      </trkpt>
      <trkpt lat="36.82068" lon="-5.745793">
        <ele>216.0</ele>
        <time>2022-09-26T12:52:14.945+02:00[Europe/Madrid]</time>
      </trkpt>
      <trkpt lat="36.820782" lon="-5.745711">
        <ele>215.0</ele>
        <time>2022-09-26T12:52:15.945+02:00[Europe/Madrid]</time>
      </trkpt>
      <trkpt lat="36.82087" lon="-5.745641">
        <ele>215.0</ele>
        <time>2022-09-26T12:52:16.945+02:00[Europe/Madrid]</time>
      </trkpt>
      <trkpt lat="36.820953" lon="-5.74558">
        <ele>214.0</ele>
        <time>2022-09-26T12:52:17.945+02:00[Europe/Madrid]</time>
      </trkpt>
      <trkpt lat="36.821074" lon="-5.745481">
        <ele>214.0</ele>
        <time>2022-09-26T12:52:19.914+02:00[Europe/Madrid]</time>
      </trkpt>
      <trkpt lat="36.821123" lon="-5.745376">
        <ele>212.0</ele>
        <time>2022-09-26T12:52:21.891+02:00[Europe/Madrid]</time>
      </trkpt>
      <trkpt lat="36.821056" lon="-5.74525">
        <ele>210.0</ele>
        <time>2022-09-26T12:52:24.922+02:00[Europe/Madrid]</time>
      </trkpt>
      <trkpt lat="36.820943" lon="-5.745201">
        <ele>209.0</ele>
        <time>2022-09-26T12:52:26.908+02:00[Europe/Madrid]</time>
      </trkpt>
      <trkpt lat="36.820792" lon="-5.745162">
        <ele>208.0</ele>
        <time>2022-09-26T12:52:28.908+02:00[Europe/Madrid]</time>
      </trkpt>
      <trkpt lat="36.820624" lon="-5.745143">
        <ele>207.0</ele>
        <time>2022-09-26T12:52:30.896+02:00[Europe/Madrid]</time>
      </trkpt>
      <trkpt lat="36.820464" lon="-5.745126">
        <ele>207.0</ele>
        <time>2022-09-26T12:52:32.904+02:00[Europe/Madrid]</time>
      </trkpt>
      <trkpt lat="36.820308" lon="-5.745111">
        <ele>207.0</ele>
        <time>2022-09-26T12:52:34.905+02:00[Europe/Madrid]</time>
      </trkpt>
      <trkpt lat="36.82015" lon="-5.745097">
        <ele>207.0</ele>
        <time>2022-09-26T12:52:36.910+02:00[Europe/Madrid]</time>
      </trkpt>
      <trkpt lat="36.820006" lon="-5.745093">
        <ele>208.0</ele>
        <time>2022-09-26T12:52:38.915+02:00[Europe/Madrid]</time>
      </trkpt>
      <trkpt lat="36.819879" lon="-5.745103">
        <ele>207.0</ele>
        <time>2022-09-26T12:52:40.894+02:00[Europe/Madrid]</time>
      </trkpt>
      <trkpt lat="36.819748" lon="-5.745116">
        <ele>208.0</ele>
        <time>2022-09-26T12:52:42.900+02:00[Europe/Madrid]</time>
      </trkpt>
      <trkpt lat="36.819605" lon="-5.745131">
        <ele>208.0</ele>
        <time>2022-09-26T12:52:44.913+02:00[Europe/Madrid]</time>
      </trkpt>
      <trkpt lat="36.819452" lon="-5.745144">
        <ele>208.0</ele>
        <time>2022-09-26T12:52:46.912+02:00[Europe/Madrid]</time>
      </trkpt>
      <trkpt lat="36.819306" lon="-5.745166">
        <ele>207.0</ele>
        <time>2022-09-26T12:52:48.923+02:00[Europe/Madrid]</time>
      </trkpt>
      <trkpt lat="36.819152" lon="-5.745195">
        <ele>208.0</ele>
        <time>2022-09-26T12:52:50.906+02:00[Europe/Madrid]</time>
      </trkpt>
      <trkpt lat="36.818995" lon="-5.745231">
        <ele>209.0</ele>
        <time>2022-09-26T12:52:52.912+02:00[Europe/Madrid]</time>
      </trkpt>
      <trkpt lat="36.818831" lon="-5.745273">
        <ele>209.0</ele>
        <time>2022-09-26T12:52:54.907+02:00[Europe/Madrid]</time>
      </trkpt>
      <trkpt lat="36.818668" lon="-5.745328">
        <ele>209.0</ele>
        <time>2022-09-26T12:52:56.901+02:00[Europe/Madrid]</time>
      </trkpt>
      <trkpt lat="36.818501" lon="-5.745376">
        <ele>209.0</ele>
        <time>2022-09-26T12:52:58.908+02:00[Europe/Madrid]</time>
      </trkpt>
      <trkpt lat="36.818338" lon="-5.745452">
        <ele>208.0</ele>
        <time>2022-09-26T12:53:00.956+02:00[Europe/Madrid]</time>
      </trkpt>
      <trkpt lat="36.818181" lon="-5.745545">
        <ele>207.0</ele>
        <time>2022-09-26T12:53:02.896+02:00[Europe/Madrid]</time>
      </trkpt>
      <trkpt lat="36.818028" lon="-5.745631">
        <ele>205.0</ele>
        <time>2022-09-26T12:53:04.904+02:00[Europe/Madrid]</time>
      </trkpt>
      <trkpt lat="36.817886" lon="-5.745711">
        <ele>206.0</ele>
        <time>2022-09-26T12:53:06.899+02:00[Europe/Madrid]</time>
      </trkpt>
      <trkpt lat="36.817738" lon="-5.745755">
        <ele>206.0</ele>
        <time>2022-09-26T12:53:08.902+02:00[Europe/Madrid]</time>
      </trkpt>
      <trkpt lat="36.817564" lon="-5.745737">
        <ele>205.0</ele>
        <time>2022-09-26T12:53:10.947+02:00[Europe/Madrid]</time>
      </trkpt>
      <trkpt lat="36.817394" lon="-5.745713">
        <ele>205.0</ele>
        <time>2022-09-26T12:53:12.908+02:00[Europe/Madrid]</time>
      </trkpt>
      <trkpt lat="36.817247" lon="-5.745695">
        <ele>204.0</ele>
        <time>2022-09-26T12:53:14.902+02:00[Europe/Madrid]</time>
      </trkpt>
      <trkpt lat="36.817122" lon="-5.745657">
        <ele>204.0</ele>
        <time>2022-09-26T12:53:16.920+02:00[Europe/Madrid]</time>
      </trkpt>
      <trkpt lat="36.817011" lon="-5.745639">
        <ele>204.0</ele>
        <time>2022-09-26T12:53:18.905+02:00[Europe/Madrid]</time>
      </trkpt>
      <trkpt lat="36.816887" lon="-5.745644">
        <ele>203.0</ele>
        <time>2022-09-26T12:53:20.901+02:00[Europe/Madrid]</time>
      </trkpt>
      <trkpt lat="36.81676" lon="-5.745659">
        <ele>203.0</ele>
        <time>2022-09-26T12:53:22.900+02:00[Europe/Madrid]</time>
      </trkpt>
      <trkpt lat="36.816628" lon="-5.745689">
        <ele>204.0</ele>
        <time>2022-09-26T12:53:24.913+02:00[Europe/Madrid]</time>
      </trkpt>
      <trkpt lat="36.816495" lon="-5.745713">
        <ele>204.0</ele>
        <time>2022-09-26T12:53:26.910+02:00[Europe/Madrid]</time>
      </trkpt>
      <trkpt lat="36.816379" lon="-5.745708">
        <ele>205.0</ele>
        <time>2022-09-26T12:53:28.905+02:00[Europe/Madrid]</time>
      </trkpt>
      <trkpt lat="36.816278" lon="-5.745685">
        <ele>205.0</ele>
        <time>2022-09-26T12:53:30.933+02:00[Europe/Madrid]</time>
      </trkpt>
      <trkpt lat="36.816169" lon="-5.745657">
        <ele>206.0</ele>
        <time>2022-09-26T12:53:32.905+02:00[Europe/Madrid]</time>
      </trkpt>
      <trkpt lat="36.816077" lon="-5.745635">
        <ele>206.0</ele>
        <time>2022-09-26T12:53:34.897+02:00[Europe/Madrid]</time>
      </trkpt>
      <trkpt lat="36.815966" lon="-5.745621">
        <ele>207.0</ele>
        <time>2022-09-26T12:53:36.899+02:00[Europe/Madrid]</time>
      </trkpt>
      <trkpt lat="36.815844" lon="-5.745592">
        <ele>207.0</ele>
        <time>2022-09-26T12:53:38.907+02:00[Europe/Madrid]</time>
      </trkpt>
      <trkpt lat="36.815731" lon="-5.745545">
        <ele>206.0</ele>
        <time>2022-09-26T12:53:40.904+02:00[Europe/Madrid]</time>
      </trkpt>
      <trkpt lat="36.815609" lon="-5.745513">
        <ele>206.0</ele>
        <time>2022-09-26T12:53:42.906+02:00[Europe/Madrid]</time>
      </trkpt>
      <trkpt lat="36.815505" lon="-5.745489">
        <ele>206.0</ele>
        <time>2022-09-26T12:53:44.904+02:00[Europe/Madrid]</time>
      </trkpt>
      <trkpt lat="36.815403" lon="-5.745459">
        <ele>206.0</ele>
        <time>2022-09-26T12:53:47.907+02:00[Europe/Madrid]</time>
      </trkpt>
      <trkpt lat="36.815325" lon="-5.745399">
        <ele>206.0</ele>
        <time>2022-09-26T12:53:56.902+02:00[Europe/Madrid]</time>
      </trkpt>
      <trkpt lat="36.815363" lon="-5.745271">
        <ele>204.0</ele>
        <time>2022-09-26T12:53:59.896+02:00[Europe/Madrid]</time>
      </trkpt>
      <trkpt lat="36.815397" lon="-5.745164">
        <ele>204.0</ele>
        <time>2022-09-26T12:54:02.902+02:00[Europe/Madrid]</time>
      </trkpt>
      <trkpt lat="36.81543" lon="-5.745058">
        <ele>204.0</ele>
        <time>2022-09-26T12:54:05.898+02:00[Europe/Madrid]</time>
      </trkpt>
      <trkpt lat="36.81546" lon="-5.744917">
        <ele>203.0</ele>
        <time>2022-09-26T12:54:07.902+02:00[Europe/Madrid]</time>
      </trkpt>
      <trkpt lat="36.815507" lon="-5.744766">
        <ele>203.0</ele>
        <time>2022-09-26T12:54:09.892+02:00[Europe/Madrid]</time>
      </trkpt>
      <trkpt lat="36.815548" lon="-5.744623">
        <ele>203.0</ele>
        <time>2022-09-26T12:54:11.899+02:00[Europe/Madrid]</time>
      </trkpt>
      <trkpt lat="36.81559" lon="-5.744493">
        <ele>203.0</ele>
        <time>2022-09-26T12:54:13.891+02:00[Europe/Madrid]</time>
      </trkpt>
      <trkpt lat="36.815632" lon="-5.744359">
        <ele>202.0</ele>
        <time>2022-09-26T12:54:15.900+02:00[Europe/Madrid]</time>
      </trkpt>
      <trkpt lat="36.815679" lon="-5.744212">
        <ele>201.0</ele>
        <time>2022-09-26T12:54:17.887+02:00[Europe/Madrid]</time>
      </trkpt>
      <trkpt lat="36.81573" lon="-5.744062">
        <ele>200.0</ele>
        <time>2022-09-26T12:54:19.903+02:00[Europe/Madrid]</time>
      </trkpt>
      <trkpt lat="36.815778" lon="-5.743923">
        <ele>198.0</ele>
        <time>2022-09-26T12:54:21.897+02:00[Europe/Madrid]</time>
      </trkpt>
      <trkpt lat="36.815831" lon="-5.743786">
        <ele>197.0</ele>
        <time>2022-09-26T12:54:23.900+02:00[Europe/Madrid]</time>
      </trkpt>
      <trkpt lat="36.815868" lon="-5.743658">
        <ele>196.0</ele>
        <time>2022-09-26T12:54:25.897+02:00[Europe/Madrid]</time>
      </trkpt>
      <trkpt lat="36.815889" lon="-5.743547">
        <ele>196.0</ele>
        <time>2022-09-26T12:54:27.906+02:00[Europe/Madrid]</time>
      </trkpt>
      <trkpt lat="36.815889" lon="-5.743414">
        <ele>194.0</ele>
        <time>2022-09-26T12:54:30.897+02:00[Europe/Madrid]</time>
      </trkpt>
      <trkpt lat="36.815822" lon="-5.743329">
        <ele>193.0</ele>
        <time>2022-09-26T12:54:33.904+02:00[Europe/Madrid]</time>
      </trkpt>
      <trkpt lat="36.815709" lon="-5.743269">
        <ele>194.0</ele>
        <time>2022-09-26T12:54:37.891+02:00[Europe/Madrid]</time>
      </trkpt>
      <trkpt lat="36.81559" lon="-5.743232">
        <ele>194.0</ele>
        <time>2022-09-26T12:54:40.895+02:00[Europe/Madrid]</time>
      </trkpt>
      <trkpt lat="36.815481" lon="-5.743198">
        <ele>194.0</ele>
        <time>2022-09-26T12:54:42.913+02:00[Europe/Madrid]</time>
      </trkpt>
      <trkpt lat="36.815383" lon="-5.743169">
        <ele>194.0</ele>
        <time>2022-09-26T12:54:44.903+02:00[Europe/Madrid]</time>
      </trkpt>
      <trkpt lat="36.815255" lon="-5.74313">
        <ele>194.0</ele>
        <time>2022-09-26T12:54:47.908+02:00[Europe/Madrid]</time>
      </trkpt>
      <trkpt lat="36.815151" lon="-5.743118">
        <ele>194.0</ele>
        <time>2022-09-26T12:54:51.906+02:00[Europe/Madrid]</time>
      </trkpt>
      <trkpt lat="36.815038" lon="-5.743089">
        <ele>194.0</ele>
        <time>2022-09-26T12:54:54.896+02:00[Europe/Madrid]</time>
      </trkpt>
      <trkpt lat="36.814948" lon="-5.743056">
        <ele>194.0</ele>
        <time>2022-09-26T12:54:57.008+02:00[Europe/Madrid]</time>
      </trkpt>
      <trkpt lat="36.814864" lon="-5.743016">
        <ele>194.0</ele>
        <time>2022-09-26T12:54:58.893+02:00[Europe/Madrid]</time>
      </trkpt>
      <trkpt lat="36.814724" lon="-5.742999">
        <ele>192.0</ele>
        <time>2022-09-26T12:55:01.896+02:00[Europe/Madrid]</time>
      </trkpt>
      <trkpt lat="36.814607" lon="-5.742992">
        <ele>192.0</ele>
        <time>2022-09-26T12:55:03.906+02:00[Europe/Madrid]</time>
      </trkpt>
      <trkpt lat="36.814486" lon="-5.742982">
        <ele>192.0</ele>
        <time>2022-09-26T12:55:05.910+02:00[Europe/Madrid]</time>
      </trkpt>
      <trkpt lat="36.814363" lon="-5.74298">
        <ele>192.0</ele>
        <time>2022-09-26T12:55:07.913+02:00[Europe/Madrid]</time>
      </trkpt>
      <trkpt lat="36.81424" lon="-5.743004">
        <ele>192.0</ele>
        <time>2022-09-26T12:55:09.898+02:00[Europe/Madrid]</time>
      </trkpt>
      <trkpt lat="36.814129" lon="-5.743035">
        <ele>195.0</ele>
        <time>2022-09-26T12:55:11.906+02:00[Europe/Madrid]</time>
      </trkpt>
      <trkpt lat="36.814011" lon="-5.743064">
        <ele>195.0</ele>
        <time>2022-09-26T12:55:13.894+02:00[Europe/Madrid]</time>
      </trkpt>
      <trkpt lat="36.813894" lon="-5.743091">
        <ele>195.0</ele>
        <time>2022-09-26T12:55:15.901+02:00[Europe/Madrid]</time>
      </trkpt>
      <trkpt lat="36.813796" lon="-5.743081">
        <ele>194.0</ele>
        <time>2022-09-26T12:55:17.901+02:00[Europe/Madrid]</time>
      </trkpt>
      <trkpt lat="36.813675" lon="-5.743055">
        <ele>194.0</ele>
        <time>2022-09-26T12:55:20.903+02:00[Europe/Madrid]</time>
      </trkpt>
      <trkpt lat="36.813557" lon="-5.742972">
        <ele>193.0</ele>
        <time>2022-09-26T12:55:24.896+02:00[Europe/Madrid]</time>
      </trkpt>
      <trkpt lat="36.813439" lon="-5.742958">
        <ele>191.0</ele>
        <time>2022-09-26T12:55:26.907+02:00[Europe/Madrid]</time>
      </trkpt>
      <trkpt lat="36.81331" lon="-5.742962">
        <ele>191.0</ele>
        <time>2022-09-26T12:55:28.909+02:00[Europe/Madrid]</time>
      </trkpt>
      <trkpt lat="36.813205" lon="-5.742965">
        <ele>191.0</ele>
        <time>2022-09-26T12:55:30.914+02:00[Europe/Madrid]</time>
      </trkpt>
      <trkpt lat="36.813057" lon="-5.742955">
        <ele>190.0</ele>
        <time>2022-09-26T12:55:33.889+02:00[Europe/Madrid]</time>
      </trkpt>
      <trkpt lat="36.812914" lon="-5.742963">
        <ele>188.0</ele>
        <time>2022-09-26T12:55:35.912+02:00[Europe/Madrid]</time>
      </trkpt>
      <trkpt lat="36.812774" lon="-5.74297">
        <ele>188.0</ele>
        <time>2022-09-26T12:55:37.905+02:00[Europe/Madrid]</time>
      </trkpt>
      <trkpt lat="36.812653" lon="-5.742981">
        <ele>189.0</ele>
        <time>2022-09-26T12:55:39.905+02:00[Europe/Madrid]</time>
      </trkpt>
      <trkpt lat="36.812528" lon="-5.742982">
        <ele>189.0</ele>
        <time>2022-09-26T12:55:41.906+02:00[Europe/Madrid]</time>
      </trkpt>
      <trkpt lat="36.812371" lon="-5.742996">
        <ele>189.0</ele>
        <time>2022-09-26T12:55:43.904+02:00[Europe/Madrid]</time>
      </trkpt>
      <trkpt lat="36.812279" lon="-5.742992">
        <ele>188.0</ele>
        <time>2022-09-26T12:55:44.904+02:00[Europe/Madrid]</time>
      </trkpt>
      <trkpt lat="36.812186" lon="-5.742999">
        <ele>188.0</ele>
        <time>2022-09-26T12:55:45.912+02:00[Europe/Madrid]</time>
      </trkpt>
      <trkpt lat="36.812093" lon="-5.743002">
        <ele>188.0</ele>
        <time>2022-09-26T12:55:46.912+02:00[Europe/Madrid]</time>
      </trkpt>
      <trkpt lat="36.811921" lon="-5.742996">
        <ele>187.0</ele>
        <time>2022-09-26T12:55:48.904+02:00[Europe/Madrid]</time>
      </trkpt>
      <trkpt lat="36.811742" lon="-5.742979">
        <ele>188.0</ele>
        <time>2022-09-26T12:55:50.914+02:00[Europe/Madrid]</time>
      </trkpt>
      <trkpt lat="36.811571" lon="-5.742961">
        <ele>187.0</ele>
        <time>2022-09-26T12:55:52.897+02:00[Europe/Madrid]</time>
      </trkpt>
      <trkpt lat="36.811417" lon="-5.742951">
        <ele>187.0</ele>
        <time>2022-09-26T12:55:54.903+02:00[Europe/Madrid]</time>
      </trkpt>
      <trkpt lat="36.811267" lon="-5.742939">
        <ele>186.0</ele>
        <time>2022-09-26T12:55:56.904+02:00[Europe/Madrid]</time>
      </trkpt>
      <trkpt lat="36.811108" lon="-5.742918">
        <ele>186.0</ele>
        <time>2022-09-26T12:55:58.904+02:00[Europe/Madrid]</time>
      </trkpt>
      <trkpt lat="36.810939" lon="-5.742896">
        <ele>186.0</ele>
        <time>2022-09-26T12:56:00.905+02:00[Europe/Madrid]</time>
      </trkpt>
      <trkpt lat="36.810771" lon="-5.742886">
        <ele>186.0</ele>
        <time>2022-09-26T12:56:02.905+02:00[Europe/Madrid]</time>
      </trkpt>
      <trkpt lat="36.810616" lon="-5.742885">
        <ele>184.0</ele>
        <time>2022-09-26T12:56:04.897+02:00[Europe/Madrid]</time>
      </trkpt>
      <trkpt lat="36.81047" lon="-5.742872">
        <ele>184.0</ele>
        <time>2022-09-26T12:56:06.906+02:00[Europe/Madrid]</time>
      </trkpt>
      <trkpt lat="36.81031" lon="-5.742851">
        <ele>184.0</ele>
        <time>2022-09-26T12:56:08.909+02:00[Europe/Madrid]</time>
      </trkpt>
      <trkpt lat="36.81022" lon="-5.742842">
        <ele>183.0</ele>
        <time>2022-09-26T12:56:09.909+02:00[Europe/Madrid]</time>
      </trkpt>
      <trkpt lat="36.810125" lon="-5.742828">
        <ele>183.0</ele>
        <time>2022-09-26T12:56:10.909+02:00[Europe/Madrid]</time>
      </trkpt>
      <trkpt lat="36.810027" lon="-5.742811">
        <ele>181.0</ele>
        <time>2022-09-26T12:56:11.909+02:00[Europe/Madrid]</time>
      </trkpt>
      <trkpt lat="36.809935" lon="-5.742798">
        <ele>180.0</ele>
        <time>2022-09-26T12:56:12.909+02:00[Europe/Madrid]</time>
      </trkpt>
      <trkpt lat="36.809773" lon="-5.742773">
        <ele>178.0</ele>
        <time>2022-09-26T12:56:14.895+02:00[Europe/Madrid]</time>
      </trkpt>
      <trkpt lat="36.809636" lon="-5.742744">
        <ele>177.0</ele>
        <time>2022-09-26T12:56:16.896+02:00[Europe/Madrid]</time>
      </trkpt>
      <trkpt lat="36.809535" lon="-5.742668">
        <ele>175.0</ele>
        <time>2022-09-26T12:56:18.900+02:00[Europe/Madrid]</time>
      </trkpt>
      <trkpt lat="36.809545" lon="-5.742495">
        <ele>172.0</ele>
        <time>2022-09-26T12:56:21.898+02:00[Europe/Madrid]</time>
      </trkpt>
      <trkpt lat="36.80959" lon="-5.742341">
        <ele>170.0</ele>
        <time>2022-09-26T12:56:23.887+02:00[Europe/Madrid]</time>
      </trkpt>
      <trkpt lat="36.80959" lon="-5.742189">
        <ele>168.0</ele>
        <time>2022-09-26T12:56:25.910+02:00[Europe/Madrid]</time>
      </trkpt>
      <trkpt lat="36.809561" lon="-5.742028">
        <ele>166.0</ele>
        <time>2022-09-26T12:56:27.900+02:00[Europe/Madrid]</time>
      </trkpt>
      <trkpt lat="36.809511" lon="-5.741878">
        <ele>165.0</ele>
        <time>2022-09-26T12:56:29.909+02:00[Europe/Madrid]</time>
      </trkpt>
      <trkpt lat="36.809452" lon="-5.741735">
        <ele>163.0</ele>
        <time>2022-09-26T12:56:31.894+02:00[Europe/Madrid]</time>
      </trkpt>
      <trkpt lat="36.809394" lon="-5.741601">
        <ele>161.0</ele>
        <time>2022-09-26T12:56:33.904+02:00[Europe/Madrid]</time>
      </trkpt>
      <trkpt lat="36.809348" lon="-5.741488">
        <ele>159.0</ele>
        <time>2022-09-26T12:56:35.898+02:00[Europe/Madrid]</time>
      </trkpt>
      <trkpt lat="36.809293" lon="-5.741375">
        <ele>157.0</ele>
        <time>2022-09-26T12:56:39.896+02:00[Europe/Madrid]</time>
      </trkpt>
      <trkpt lat="36.809169" lon="-5.741348">
        <ele>156.0</ele>
        <time>2022-09-26T12:56:42.900+02:00[Europe/Madrid]</time>
      </trkpt>
      <trkpt lat="36.80906" lon="-5.741369">
        <ele>155.0</ele>
        <time>2022-09-26T12:56:44.912+02:00[Europe/Madrid]</time>
      </trkpt>
      <trkpt lat="36.809006" lon="-5.741385">
        <ele>155.0</ele>
        <time>2022-09-26T12:56:45.912+02:00[Europe/Madrid]</time>
      </trkpt>
      <trkpt lat="36.808905" lon="-5.741422">
        <ele>154.0</ele>
        <time>2022-09-26T12:56:47.901+02:00[Europe/Madrid]</time>
      </trkpt>
      <trkpt lat="36.808782" lon="-5.741455">
        <ele>154.0</ele>
        <time>2022-09-26T12:56:50.906+02:00[Europe/Madrid]</time>
      </trkpt>
      <trkpt lat="36.808724" lon="-5.741349">
        <ele>152.0</ele>
        <time>2022-09-26T12:56:54.908+02:00[Europe/Madrid]</time>
      </trkpt>
      <trkpt lat="36.808726" lon="-5.741237">
        <ele>150.0</ele>
        <time>2022-09-26T12:56:59.904+02:00[Europe/Madrid]</time>
      </trkpt>
      <trkpt lat="36.808767" lon="-5.741128">
        <ele>150.0</ele>
        <time>2022-09-26T12:57:02.899+02:00[Europe/Madrid]</time>
      </trkpt>
      <trkpt lat="36.80876" lon="-5.741007">
        <ele>149.0</ele>
        <time>2022-09-26T12:57:06.898+02:00[Europe/Madrid]</time>
      </trkpt>
      <trkpt lat="36.808756" lon="-5.74101">
        <ele>149.0</ele>
        <time>2022-09-26T12:57:11.897+02:00[Europe/Madrid]</time>
      </trkpt>
      <trkpt lat="36.808761" lon="-5.741013">
        <ele>150.0</ele>
        <time>2022-09-26T12:57:16.901+02:00[Europe/Madrid]</time>
      </trkpt>
      <trkpt lat="36.80876" lon="-5.74102">
        <ele>150.0</ele>
        <time>2022-09-26T12:57:21.900+02:00[Europe/Madrid]</time>
      </trkpt>
      <trkpt lat="36.808758" lon="-5.741019">
        <ele>150.0</ele>
        <time>2022-09-26T12:57:26.901+02:00[Europe/Madrid]</time>
      </trkpt>
    </trkseg>
  </trk>
</gpx>
